<?xml version="1.0" encoding="UTF-8" standalone="no" ?>
<gpx xmlns="http://www.topografix.com/GPX/1/1" xmlns:xsi="http://www.w3.org/2001/XMLSchema-instance" xsi:schemaLocation="http://www.topografix.com/GPX/1/1 http://www.topografix.com/GPX/1/1/gpx.xsd" version="1.1" creator="VisuGPX - https://www.visugpx.com">
  <metadata>
    <name>sortie ASCVTT - 07/11/2015 - Gourdon</name>
    <desc><![CDATA[inspirée du rallye de Gourdon édition 2015]]></desc>
  </metadata>
  <trk>
    <name><![CDATA[Sur les traces du rallye de Gourdon 2015 ]]></name>
    <trkseg>
      <trkpt lat="43.69037" lon="6.9789">
        <ele>251.2</ele>
        <time>2015-11-07T06:55:47Z</time>
      </trkpt>
      <trkpt lat="43.69018" lon="6.97874">
        <ele>251.2</ele>
        <time>2015-11-07T06:55:55Z</time>
      </trkpt>
      <trkpt lat="43.69004" lon="6.97868">
        <ele>251.8</ele>
        <time>2015-11-07T06:56:00Z</time>
      </trkpt>
      <trkpt lat="43.68999" lon="6.97867">
        <ele>251.8</ele>
        <time>2015-11-07T06:56:02Z</time>
      </trkpt>
      <trkpt lat="43.68979" lon="6.97868">
        <ele>251.8</ele>
        <time>2015-11-07T06:56:09Z</time>
      </trkpt>
      <trkpt lat="43.68965" lon="6.9787">
        <ele>252.2</ele>
        <time>2015-11-07T06:56:13Z</time>
      </trkpt>
      <trkpt lat="43.68961" lon="6.97871">
        <ele>252.6</ele>
        <time>2015-11-07T06:56:14Z</time>
      </trkpt>
      <trkpt lat="43.68958" lon="6.97873">
        <ele>253</ele>
        <time>2015-11-07T06:56:15Z</time>
      </trkpt>
      <trkpt lat="43.68952" lon="6.97872">
        <ele>253.4</ele>
        <time>2015-11-07T06:56:16Z</time>
      </trkpt>
      <trkpt lat="43.68949" lon="6.97871">
        <ele>254</ele>
        <time>2015-11-07T06:56:17Z</time>
      </trkpt>
      <trkpt lat="43.68915" lon="6.97866">
        <ele>254</ele>
        <time>2015-11-07T06:56:24Z</time>
      </trkpt>
      <trkpt lat="43.68909" lon="6.97865">
        <ele>254.4</ele>
        <time>2015-11-07T06:56:25Z</time>
      </trkpt>
      <trkpt lat="43.68905" lon="6.97863">
        <ele>254.8</ele>
        <time>2015-11-07T06:56:26Z</time>
      </trkpt>
      <trkpt lat="43.68902" lon="6.97863">
        <ele>255.2</ele>
        <time>2015-11-07T06:56:27Z</time>
      </trkpt>
      <trkpt lat="43.68907" lon="6.97869">
        <ele>255.6</ele>
        <time>2015-11-07T06:56:28Z</time>
      </trkpt>
      <trkpt lat="43.68908" lon="6.97872">
        <ele>256</ele>
        <time>2015-11-07T06:56:29Z</time>
      </trkpt>
      <trkpt lat="43.68899" lon="6.9787">
        <ele>256</ele>
        <time>2015-11-07T06:56:31Z</time>
      </trkpt>
      <trkpt lat="43.68856" lon="6.9785">
        <ele>256.4</ele>
        <time>2015-11-07T06:56:38Z</time>
      </trkpt>
      <trkpt lat="43.68845" lon="6.97846">
        <ele>256.8</ele>
        <time>2015-11-07T06:56:39Z</time>
      </trkpt>
      <trkpt lat="43.68842" lon="6.97844">
        <ele>257.2</ele>
        <time>2015-11-07T06:56:40Z</time>
      </trkpt>
      <trkpt lat="43.68838" lon="6.97842">
        <ele>257.6</ele>
        <time>2015-11-07T06:56:41Z</time>
      </trkpt>
      <trkpt lat="43.68835" lon="6.97841">
        <ele>258</ele>
        <time>2015-11-07T06:56:42Z</time>
      </trkpt>
      <trkpt lat="43.68826" lon="6.97837">
        <ele>258</ele>
        <time>2015-11-07T06:56:45Z</time>
      </trkpt>
      <trkpt lat="43.68817" lon="6.97832">
        <ele>258.4</ele>
        <time>2015-11-07T06:56:48Z</time>
      </trkpt>
      <trkpt lat="43.68815" lon="6.97832">
        <ele>258.8</ele>
        <time>2015-11-07T06:56:49Z</time>
      </trkpt>
      <trkpt lat="43.68812" lon="6.97832">
        <ele>259.2</ele>
        <time>2015-11-07T06:56:50Z</time>
      </trkpt>
      <trkpt lat="43.68809" lon="6.97831">
        <ele>259.6</ele>
        <time>2015-11-07T06:56:51Z</time>
      </trkpt>
      <trkpt lat="43.68804" lon="6.97829">
        <ele>260</ele>
        <time>2015-11-07T06:56:52Z</time>
      </trkpt>
      <trkpt lat="43.68774" lon="6.97813">
        <ele>260</ele>
        <time>2015-11-07T06:56:59Z</time>
      </trkpt>
      <trkpt lat="43.68771" lon="6.97809">
        <ele>260</ele>
        <time>2015-11-07T06:57:00Z</time>
      </trkpt>
      <trkpt lat="43.68763" lon="6.97798">
        <ele>260</ele>
        <time>2015-11-07T06:57:03Z</time>
      </trkpt>
      <trkpt lat="43.68758" lon="6.97791">
        <ele>260</ele>
        <time>2015-11-07T06:57:05Z</time>
      </trkpt>
      <trkpt lat="43.68753" lon="6.97786">
        <ele>260.4</ele>
        <time>2015-11-07T06:57:06Z</time>
      </trkpt>
      <trkpt lat="43.6875" lon="6.97782">
        <ele>261</ele>
        <time>2015-11-07T06:57:07Z</time>
      </trkpt>
      <trkpt lat="43.68747" lon="6.97778">
        <ele>261.4</ele>
        <time>2015-11-07T06:57:08Z</time>
      </trkpt>
      <trkpt lat="43.68745" lon="6.97775">
        <ele>261.8</ele>
        <time>2015-11-07T06:57:09Z</time>
      </trkpt>
      <trkpt lat="43.68743" lon="6.97772">
        <ele>262.2</ele>
        <time>2015-11-07T06:57:10Z</time>
      </trkpt>
      <trkpt lat="43.68725" lon="6.97755">
        <ele>262.2</ele>
        <time>2015-11-07T06:57:15Z</time>
      </trkpt>
      <trkpt lat="43.68715" lon="6.97745">
        <ele>262.6</ele>
        <time>2015-11-07T06:57:18Z</time>
      </trkpt>
      <trkpt lat="43.68711" lon="6.97741">
        <ele>263.2</ele>
        <time>2015-11-07T06:57:19Z</time>
      </trkpt>
      <trkpt lat="43.68708" lon="6.97739">
        <ele>263.6</ele>
        <time>2015-11-07T06:57:20Z</time>
      </trkpt>
      <trkpt lat="43.68704" lon="6.97735">
        <ele>264</ele>
        <time>2015-11-07T06:57:21Z</time>
      </trkpt>
      <trkpt lat="43.687" lon="6.97732">
        <ele>264.6</ele>
        <time>2015-11-07T06:57:22Z</time>
      </trkpt>
      <trkpt lat="43.68697" lon="6.9773">
        <ele>264.6</ele>
        <time>2015-11-07T06:57:23Z</time>
      </trkpt>
      <trkpt lat="43.68682" lon="6.97723">
        <ele>264.6</ele>
        <time>2015-11-07T06:57:26Z</time>
      </trkpt>
      <trkpt lat="43.68664" lon="6.97718">
        <ele>264.6</ele>
        <time>2015-11-07T06:57:30Z</time>
      </trkpt>
      <trkpt lat="43.68644" lon="6.9771">
        <ele>265</ele>
        <time>2015-11-07T06:57:35Z</time>
      </trkpt>
      <trkpt lat="43.68641" lon="6.97706">
        <ele>265.4</ele>
        <time>2015-11-07T06:57:36Z</time>
      </trkpt>
      <trkpt lat="43.68636" lon="6.97703">
        <ele>265.8</ele>
        <time>2015-11-07T06:57:37Z</time>
      </trkpt>
      <trkpt lat="43.68632" lon="6.977">
        <ele>266.2</ele>
        <time>2015-11-07T06:57:38Z</time>
      </trkpt>
      <trkpt lat="43.68629" lon="6.97697">
        <ele>266.6</ele>
        <time>2015-11-07T06:57:39Z</time>
      </trkpt>
      <trkpt lat="43.68604" lon="6.97677">
        <ele>267</ele>
        <time>2015-11-07T06:57:45Z</time>
      </trkpt>
      <trkpt lat="43.68599" lon="6.97673">
        <ele>267.6</ele>
        <time>2015-11-07T06:57:46Z</time>
      </trkpt>
      <trkpt lat="43.68596" lon="6.9767">
        <ele>268</ele>
        <time>2015-11-07T06:57:47Z</time>
      </trkpt>
      <trkpt lat="43.68593" lon="6.97666">
        <ele>268.4</ele>
        <time>2015-11-07T06:57:48Z</time>
      </trkpt>
      <trkpt lat="43.68589" lon="6.97661">
        <ele>268.8</ele>
        <time>2015-11-07T06:57:49Z</time>
      </trkpt>
      <trkpt lat="43.68576" lon="6.97648">
        <ele>268.8</ele>
        <time>2015-11-07T06:57:52Z</time>
      </trkpt>
      <trkpt lat="43.68568" lon="6.97642">
        <ele>268.8</ele>
        <time>2015-11-07T06:57:54Z</time>
      </trkpt>
      <trkpt lat="43.68552" lon="6.97629">
        <ele>269.2</ele>
        <time>2015-11-07T06:57:58Z</time>
      </trkpt>
      <trkpt lat="43.68548" lon="6.97626">
        <ele>269.6</ele>
        <time>2015-11-07T06:57:59Z</time>
      </trkpt>
      <trkpt lat="43.68544" lon="6.97622">
        <ele>270.2</ele>
        <time>2015-11-07T06:58:00Z</time>
      </trkpt>
      <trkpt lat="43.68539" lon="6.97618">
        <ele>270.6</ele>
        <time>2015-11-07T06:58:01Z</time>
      </trkpt>
      <trkpt lat="43.68535" lon="6.97615">
        <ele>271</ele>
        <time>2015-11-07T06:58:02Z</time>
      </trkpt>
      <trkpt lat="43.68513" lon="6.97599">
        <ele>271</ele>
        <time>2015-11-07T06:58:07Z</time>
      </trkpt>
      <trkpt lat="43.68508" lon="6.97597">
        <ele>271</ele>
        <time>2015-11-07T06:58:08Z</time>
      </trkpt>
      <trkpt lat="43.68494" lon="6.97592">
        <ele>271</ele>
        <time>2015-11-07T06:58:11Z</time>
      </trkpt>
      <trkpt lat="43.68491" lon="6.97588">
        <ele>271.4</ele>
        <time>2015-11-07T06:58:13Z</time>
      </trkpt>
      <trkpt lat="43.68486" lon="6.97587">
        <ele>271.8</ele>
        <time>2015-11-07T06:58:14Z</time>
      </trkpt>
      <trkpt lat="43.68482" lon="6.97586">
        <ele>272.2</ele>
        <time>2015-11-07T06:58:15Z</time>
      </trkpt>
      <trkpt lat="43.68478" lon="6.97584">
        <ele>272.6</ele>
        <time>2015-11-07T06:58:16Z</time>
      </trkpt>
      <trkpt lat="43.68473" lon="6.97583">
        <ele>273</ele>
        <time>2015-11-07T06:58:17Z</time>
      </trkpt>
      <trkpt lat="43.68465" lon="6.97579">
        <ele>273</ele>
        <time>2015-11-07T06:58:19Z</time>
      </trkpt>
      <trkpt lat="43.68441" lon="6.97563">
        <ele>273.4</ele>
        <time>2015-11-07T06:58:25Z</time>
      </trkpt>
      <trkpt lat="43.68437" lon="6.9756">
        <ele>274</ele>
        <time>2015-11-07T06:58:26Z</time>
      </trkpt>
      <trkpt lat="43.68433" lon="6.97557">
        <ele>274.4</ele>
        <time>2015-11-07T06:58:27Z</time>
      </trkpt>
      <trkpt lat="43.68429" lon="6.97555">
        <ele>274.8</ele>
        <time>2015-11-07T06:58:28Z</time>
      </trkpt>
      <trkpt lat="43.68426" lon="6.97553">
        <ele>275.2</ele>
        <time>2015-11-07T06:58:29Z</time>
      </trkpt>
      <trkpt lat="43.68412" lon="6.97541">
        <ele>275.2</ele>
        <time>2015-11-07T06:58:33Z</time>
      </trkpt>
      <trkpt lat="43.68388" lon="6.9752">
        <ele>275.6</ele>
        <time>2015-11-07T06:58:39Z</time>
      </trkpt>
      <trkpt lat="43.6838" lon="6.97512">
        <ele>276</ele>
        <time>2015-11-07T06:58:41Z</time>
      </trkpt>
      <trkpt lat="43.68377" lon="6.97507">
        <ele>276.6</ele>
        <time>2015-11-07T06:58:42Z</time>
      </trkpt>
      <trkpt lat="43.68373" lon="6.97502">
        <ele>277</ele>
        <time>2015-11-07T06:58:43Z</time>
      </trkpt>
      <trkpt lat="43.68371" lon="6.97497">
        <ele>277.4</ele>
        <time>2015-11-07T06:58:44Z</time>
      </trkpt>
      <trkpt lat="43.68363" lon="6.97483">
        <ele>277.4</ele>
        <time>2015-11-07T06:58:47Z</time>
      </trkpt>
      <trkpt lat="43.68351" lon="6.97457">
        <ele>277.8</ele>
        <time>2015-11-07T06:58:52Z</time>
      </trkpt>
      <trkpt lat="43.68349" lon="6.97452">
        <ele>278.2</ele>
        <time>2015-11-07T06:58:53Z</time>
      </trkpt>
      <trkpt lat="43.68347" lon="6.97446">
        <ele>278.6</ele>
        <time>2015-11-07T06:58:54Z</time>
      </trkpt>
      <trkpt lat="43.68346" lon="6.97441">
        <ele>279</ele>
        <time>2015-11-07T06:58:55Z</time>
      </trkpt>
      <trkpt lat="43.68343" lon="6.97436">
        <ele>279.4</ele>
        <time>2015-11-07T06:58:56Z</time>
      </trkpt>
      <trkpt lat="43.68329" lon="6.97407">
        <ele>279.4</ele>
        <time>2015-11-07T06:59:02Z</time>
      </trkpt>
      <trkpt lat="43.68317" lon="6.97389">
        <ele>279.8</ele>
        <time>2015-11-07T06:59:06Z</time>
      </trkpt>
      <trkpt lat="43.68314" lon="6.97385">
        <ele>280.2</ele>
        <time>2015-11-07T06:59:07Z</time>
      </trkpt>
      <trkpt lat="43.68311" lon="6.97381">
        <ele>280.6</ele>
        <time>2015-11-07T06:59:08Z</time>
      </trkpt>
      <trkpt lat="43.68307" lon="6.97377">
        <ele>281</ele>
        <time>2015-11-07T06:59:09Z</time>
      </trkpt>
      <trkpt lat="43.68303" lon="6.97373">
        <ele>281.4</ele>
        <time>2015-11-07T06:59:10Z</time>
      </trkpt>
      <trkpt lat="43.68299" lon="6.97371">
        <ele>281.4</ele>
        <time>2015-11-07T06:59:11Z</time>
      </trkpt>
      <trkpt lat="43.68276" lon="6.97354">
        <ele>281.4</ele>
        <time>2015-11-07T06:59:17Z</time>
      </trkpt>
      <trkpt lat="43.68267" lon="6.97341">
        <ele>281.8</ele>
        <time>2015-11-07T06:59:20Z</time>
      </trkpt>
      <trkpt lat="43.68265" lon="6.97337">
        <ele>282.2</ele>
        <time>2015-11-07T06:59:21Z</time>
      </trkpt>
      <trkpt lat="43.68261" lon="6.97332">
        <ele>282.6</ele>
        <time>2015-11-07T06:59:22Z</time>
      </trkpt>
      <trkpt lat="43.68258" lon="6.97328">
        <ele>283</ele>
        <time>2015-11-07T06:59:23Z</time>
      </trkpt>
      <trkpt lat="43.68255" lon="6.97324">
        <ele>283.4</ele>
        <time>2015-11-07T06:59:24Z</time>
      </trkpt>
      <trkpt lat="43.68235" lon="6.9729">
        <ele>283.4</ele>
        <time>2015-11-07T06:59:31Z</time>
      </trkpt>
      <trkpt lat="43.68231" lon="6.97282">
        <ele>283.8</ele>
        <time>2015-11-07T06:59:33Z</time>
      </trkpt>
      <trkpt lat="43.68229" lon="6.97277">
        <ele>284.2</ele>
        <time>2015-11-07T06:59:34Z</time>
      </trkpt>
      <trkpt lat="43.68226" lon="6.97273">
        <ele>284.6</ele>
        <time>2015-11-07T06:59:35Z</time>
      </trkpt>
      <trkpt lat="43.68223" lon="6.97268">
        <ele>285</ele>
        <time>2015-11-07T06:59:36Z</time>
      </trkpt>
      <trkpt lat="43.68221" lon="6.97263">
        <ele>285.4</ele>
        <time>2015-11-07T06:59:37Z</time>
      </trkpt>
      <trkpt lat="43.68214" lon="6.97249">
        <ele>285.4</ele>
        <time>2015-11-07T06:59:40Z</time>
      </trkpt>
      <trkpt lat="43.68204" lon="6.97231">
        <ele>285.8</ele>
        <time>2015-11-07T06:59:44Z</time>
      </trkpt>
      <trkpt lat="43.68202" lon="6.97227">
        <ele>286.4</ele>
        <time>2015-11-07T06:59:45Z</time>
      </trkpt>
      <trkpt lat="43.682" lon="6.97223">
        <ele>286.8</ele>
        <time>2015-11-07T06:59:46Z</time>
      </trkpt>
      <trkpt lat="43.68197" lon="6.97218">
        <ele>287.2</ele>
        <time>2015-11-07T06:59:47Z</time>
      </trkpt>
      <trkpt lat="43.68195" lon="6.97214">
        <ele>287.6</ele>
        <time>2015-11-07T06:59:48Z</time>
      </trkpt>
      <trkpt lat="43.68192" lon="6.97211">
        <ele>287.6</ele>
        <time>2015-11-07T06:59:49Z</time>
      </trkpt>
      <trkpt lat="43.68179" lon="6.97195">
        <ele>287.6</ele>
        <time>2015-11-07T06:59:53Z</time>
      </trkpt>
      <trkpt lat="43.68172" lon="6.97189">
        <ele>287.6</ele>
        <time>2015-11-07T06:59:55Z</time>
      </trkpt>
      <trkpt lat="43.68164" lon="6.97184">
        <ele>287.6</ele>
        <time>2015-11-07T06:59:57Z</time>
      </trkpt>
      <trkpt lat="43.68157" lon="6.97183">
        <ele>288</ele>
        <time>2015-11-07T06:59:59Z</time>
      </trkpt>
      <trkpt lat="43.68153" lon="6.97183">
        <ele>288.4</ele>
        <time>2015-11-07T07:00:00Z</time>
      </trkpt>
      <trkpt lat="43.6815" lon="6.97185">
        <ele>288.8</ele>
        <time>2015-11-07T07:00:01Z</time>
      </trkpt>
      <trkpt lat="43.68146" lon="6.97187">
        <ele>289.4</ele>
        <time>2015-11-07T07:00:02Z</time>
      </trkpt>
      <trkpt lat="43.68144" lon="6.97189">
        <ele>289.8</ele>
        <time>2015-11-07T07:00:03Z</time>
      </trkpt>
      <trkpt lat="43.68132" lon="6.97196">
        <ele>289.8</ele>
        <time>2015-11-07T07:00:06Z</time>
      </trkpt>
      <trkpt lat="43.68115" lon="6.97205">
        <ele>290.2</ele>
        <time>2015-11-07T07:00:10Z</time>
      </trkpt>
      <trkpt lat="43.68111" lon="6.97207">
        <ele>290.6</ele>
        <time>2015-11-07T07:00:11Z</time>
      </trkpt>
      <trkpt lat="43.68108" lon="6.97208">
        <ele>291</ele>
        <time>2015-11-07T07:00:12Z</time>
      </trkpt>
      <trkpt lat="43.68102" lon="6.97207">
        <ele>291.4</ele>
        <time>2015-11-07T07:00:13Z</time>
      </trkpt>
      <trkpt lat="43.68098" lon="6.97205">
        <ele>291.8</ele>
        <time>2015-11-07T07:00:14Z</time>
      </trkpt>
      <trkpt lat="43.68092" lon="6.97195">
        <ele>291.8</ele>
        <time>2015-11-07T07:00:17Z</time>
      </trkpt>
      <trkpt lat="43.681" lon="6.97191">
        <ele>291.8</ele>
        <time>2015-11-07T07:00:20Z</time>
      </trkpt>
      <trkpt lat="43.68114" lon="6.97183">
        <ele>292.4</ele>
        <time>2015-11-07T07:00:26Z</time>
      </trkpt>
      <trkpt lat="43.68117" lon="6.97181">
        <ele>292.8</ele>
        <time>2015-11-07T07:00:27Z</time>
      </trkpt>
      <trkpt lat="43.68119" lon="6.97178">
        <ele>293.4</ele>
        <time>2015-11-07T07:00:28Z</time>
      </trkpt>
      <trkpt lat="43.68121" lon="6.97176">
        <ele>293.8</ele>
        <time>2015-11-07T07:00:29Z</time>
      </trkpt>
      <trkpt lat="43.68123" lon="6.97174">
        <ele>294.4</ele>
        <time>2015-11-07T07:00:30Z</time>
      </trkpt>
      <trkpt lat="43.68142" lon="6.97158">
        <ele>294.4</ele>
        <time>2015-11-07T07:00:35Z</time>
      </trkpt>
      <trkpt lat="43.68149" lon="6.97151">
        <ele>294.8</ele>
        <time>2015-11-07T07:00:37Z</time>
      </trkpt>
      <trkpt lat="43.68152" lon="6.97148">
        <ele>295.4</ele>
        <time>2015-11-07T07:00:38Z</time>
      </trkpt>
      <trkpt lat="43.68154" lon="6.97146">
        <ele>295.8</ele>
        <time>2015-11-07T07:00:39Z</time>
      </trkpt>
      <trkpt lat="43.68157" lon="6.97143">
        <ele>296.2</ele>
        <time>2015-11-07T07:00:40Z</time>
      </trkpt>
      <trkpt lat="43.6816" lon="6.97142">
        <ele>296.8</ele>
        <time>2015-11-07T07:00:41Z</time>
      </trkpt>
      <trkpt lat="43.68164" lon="6.97138">
        <ele>296.8</ele>
        <time>2015-11-07T07:00:43Z</time>
      </trkpt>
      <trkpt lat="43.68168" lon="6.9713">
        <ele>297.2</ele>
        <time>2015-11-07T07:00:46Z</time>
      </trkpt>
      <trkpt lat="43.68171" lon="6.97128">
        <ele>297.6</ele>
        <time>2015-11-07T07:00:47Z</time>
      </trkpt>
      <trkpt lat="43.68172" lon="6.97126">
        <ele>298</ele>
        <time>2015-11-07T07:00:48Z</time>
      </trkpt>
      <trkpt lat="43.68174" lon="6.97124">
        <ele>298.6</ele>
        <time>2015-11-07T07:00:49Z</time>
      </trkpt>
      <trkpt lat="43.68176" lon="6.97122">
        <ele>299</ele>
        <time>2015-11-07T07:00:50Z</time>
      </trkpt>
      <trkpt lat="43.68191" lon="6.97112">
        <ele>299.4</ele>
        <time>2015-11-07T07:00:56Z</time>
      </trkpt>
      <trkpt lat="43.68193" lon="6.97111">
        <ele>299.8</ele>
        <time>2015-11-07T07:00:57Z</time>
      </trkpt>
      <trkpt lat="43.68196" lon="6.9711">
        <ele>300.2</ele>
        <time>2015-11-07T07:00:58Z</time>
      </trkpt>
      <trkpt lat="43.682" lon="6.9711">
        <ele>300.6</ele>
        <time>2015-11-07T07:00:59Z</time>
      </trkpt>
      <trkpt lat="43.68204" lon="6.97113">
        <ele>301</ele>
        <time>2015-11-07T07:01:00Z</time>
      </trkpt>
      <trkpt lat="43.68207" lon="6.97115">
        <ele>301</ele>
        <time>2015-11-07T07:01:01Z</time>
      </trkpt>
      <trkpt lat="43.6821" lon="6.97117">
        <ele>301</ele>
        <time>2015-11-07T07:01:02Z</time>
      </trkpt>
      <trkpt lat="43.68218" lon="6.97127">
        <ele>301.4</ele>
        <time>2015-11-07T07:01:05Z</time>
      </trkpt>
      <trkpt lat="43.68219" lon="6.97131">
        <ele>301.8</ele>
        <time>2015-11-07T07:01:06Z</time>
      </trkpt>
      <trkpt lat="43.6822" lon="6.97133">
        <ele>302.2</ele>
        <time>2015-11-07T07:01:07Z</time>
      </trkpt>
      <trkpt lat="43.68221" lon="6.97135">
        <ele>302.8</ele>
        <time>2015-11-07T07:01:08Z</time>
      </trkpt>
      <trkpt lat="43.68221" lon="6.97138">
        <ele>303.2</ele>
        <time>2015-11-07T07:01:09Z</time>
      </trkpt>
      <trkpt lat="43.68224" lon="6.97154">
        <ele>303.2</ele>
        <time>2015-11-07T07:01:13Z</time>
      </trkpt>
      <trkpt lat="43.68226" lon="6.97161">
        <ele>303.6</ele>
        <time>2015-11-07T07:01:15Z</time>
      </trkpt>
      <trkpt lat="43.68227" lon="6.97164">
        <ele>304</ele>
        <time>2015-11-07T07:01:16Z</time>
      </trkpt>
      <trkpt lat="43.68228" lon="6.97167">
        <ele>304.4</ele>
        <time>2015-11-07T07:01:17Z</time>
      </trkpt>
      <trkpt lat="43.68229" lon="6.9717">
        <ele>305</ele>
        <time>2015-11-07T07:01:18Z</time>
      </trkpt>
      <trkpt lat="43.6823" lon="6.97175">
        <ele>305.4</ele>
        <time>2015-11-07T07:01:19Z</time>
      </trkpt>
      <trkpt lat="43.68231" lon="6.97182">
        <ele>305.4</ele>
        <time>2015-11-07T07:01:21Z</time>
      </trkpt>
      <trkpt lat="43.68234" lon="6.97193">
        <ele>305.8</ele>
        <time>2015-11-07T07:01:24Z</time>
      </trkpt>
      <trkpt lat="43.68235" lon="6.97196">
        <ele>306.2</ele>
        <time>2015-11-07T07:01:25Z</time>
      </trkpt>
      <trkpt lat="43.68236" lon="6.972">
        <ele>306.6</ele>
        <time>2015-11-07T07:01:26Z</time>
      </trkpt>
      <trkpt lat="43.68237" lon="6.97204">
        <ele>307</ele>
        <time>2015-11-07T07:01:27Z</time>
      </trkpt>
      <trkpt lat="43.68238" lon="6.97207">
        <ele>307.4</ele>
        <time>2015-11-07T07:01:28Z</time>
      </trkpt>
      <trkpt lat="43.68241" lon="6.97216">
        <ele>307.4</ele>
        <time>2015-11-07T07:01:30Z</time>
      </trkpt>
      <trkpt lat="43.68248" lon="6.9723">
        <ele>307.8</ele>
        <time>2015-11-07T07:01:34Z</time>
      </trkpt>
      <trkpt lat="43.6825" lon="6.97233">
        <ele>308.2</ele>
        <time>2015-11-07T07:01:35Z</time>
      </trkpt>
      <trkpt lat="43.68252" lon="6.97236">
        <ele>308.6</ele>
        <time>2015-11-07T07:01:36Z</time>
      </trkpt>
      <trkpt lat="43.68254" lon="6.9724">
        <ele>309.2</ele>
        <time>2015-11-07T07:01:37Z</time>
      </trkpt>
      <trkpt lat="43.68257" lon="6.97243">
        <ele>309.6</ele>
        <time>2015-11-07T07:01:38Z</time>
      </trkpt>
      <trkpt lat="43.68265" lon="6.97247">
        <ele>310</ele>
        <time>2015-11-07T07:01:41Z</time>
      </trkpt>
      <trkpt lat="43.68268" lon="6.97249">
        <ele>310.4</ele>
        <time>2015-11-07T07:01:42Z</time>
      </trkpt>
      <trkpt lat="43.68271" lon="6.97251">
        <ele>310.8</ele>
        <time>2015-11-07T07:01:43Z</time>
      </trkpt>
      <trkpt lat="43.68273" lon="6.97253">
        <ele>311.2</ele>
        <time>2015-11-07T07:01:44Z</time>
      </trkpt>
      <trkpt lat="43.68276" lon="6.97256">
        <ele>311.6</ele>
        <time>2015-11-07T07:01:45Z</time>
      </trkpt>
      <trkpt lat="43.68293" lon="6.97266">
        <ele>312</ele>
        <time>2015-11-07T07:01:51Z</time>
      </trkpt>
      <trkpt lat="43.68296" lon="6.97268">
        <ele>312.4</ele>
        <time>2015-11-07T07:01:52Z</time>
      </trkpt>
      <trkpt lat="43.68298" lon="6.9727">
        <ele>312.8</ele>
        <time>2015-11-07T07:01:53Z</time>
      </trkpt>
      <trkpt lat="43.683" lon="6.97272">
        <ele>313.4</ele>
        <time>2015-11-07T07:01:54Z</time>
      </trkpt>
      <trkpt lat="43.68302" lon="6.97273">
        <ele>313.8</ele>
        <time>2015-11-07T07:01:55Z</time>
      </trkpt>
      <trkpt lat="43.68314" lon="6.97286">
        <ele>313.8</ele>
        <time>2015-11-07T07:02:00Z</time>
      </trkpt>
      <trkpt lat="43.68318" lon="6.97288">
        <ele>314.2</ele>
        <time>2015-11-07T07:02:01Z</time>
      </trkpt>
      <trkpt lat="43.68321" lon="6.97292">
        <ele>314.6</ele>
        <time>2015-11-07T07:02:02Z</time>
      </trkpt>
      <trkpt lat="43.68324" lon="6.97295">
        <ele>315</ele>
        <time>2015-11-07T07:02:03Z</time>
      </trkpt>
      <trkpt lat="43.68326" lon="6.97297">
        <ele>315.4</ele>
        <time>2015-11-07T07:02:04Z</time>
      </trkpt>
      <trkpt lat="43.68328" lon="6.97299">
        <ele>315.8</ele>
        <time>2015-11-07T07:02:05Z</time>
      </trkpt>
      <trkpt lat="43.68335" lon="6.97304">
        <ele>316.2</ele>
        <time>2015-11-07T07:02:08Z</time>
      </trkpt>
      <trkpt lat="43.68336" lon="6.97306">
        <ele>316.6</ele>
        <time>2015-11-07T07:02:09Z</time>
      </trkpt>
      <trkpt lat="43.68338" lon="6.9731">
        <ele>317</ele>
        <time>2015-11-07T07:02:10Z</time>
      </trkpt>
      <trkpt lat="43.6834" lon="6.97312">
        <ele>317.4</ele>
        <time>2015-11-07T07:02:11Z</time>
      </trkpt>
      <trkpt lat="43.68342" lon="6.97316">
        <ele>317.8</ele>
        <time>2015-11-07T07:02:12Z</time>
      </trkpt>
      <trkpt lat="43.68352" lon="6.97337">
        <ele>318.2</ele>
        <time>2015-11-07T07:02:18Z</time>
      </trkpt>
      <trkpt lat="43.68354" lon="6.97341">
        <ele>318.8</ele>
        <time>2015-11-07T07:02:19Z</time>
      </trkpt>
      <trkpt lat="43.68356" lon="6.97345">
        <ele>319.2</ele>
        <time>2015-11-07T07:02:20Z</time>
      </trkpt>
      <trkpt lat="43.68357" lon="6.97348">
        <ele>319.6</ele>
        <time>2015-11-07T07:02:21Z</time>
      </trkpt>
      <trkpt lat="43.68359" lon="6.97352">
        <ele>320</ele>
        <time>2015-11-07T07:02:22Z</time>
      </trkpt>
      <trkpt lat="43.68366" lon="6.97369">
        <ele>320</ele>
        <time>2015-11-07T07:02:27Z</time>
      </trkpt>
      <trkpt lat="43.68367" lon="6.97372">
        <ele>320.4</ele>
        <time>2015-11-07T07:02:28Z</time>
      </trkpt>
      <trkpt lat="43.68369" lon="6.97376">
        <ele>320.8</ele>
        <time>2015-11-07T07:02:29Z</time>
      </trkpt>
      <trkpt lat="43.6837" lon="6.97379">
        <ele>321.4</ele>
        <time>2015-11-07T07:02:30Z</time>
      </trkpt>
      <trkpt lat="43.68371" lon="6.97383">
        <ele>321.8</ele>
        <time>2015-11-07T07:02:31Z</time>
      </trkpt>
      <trkpt lat="43.68374" lon="6.97387">
        <ele>322.2</ele>
        <time>2015-11-07T07:02:32Z</time>
      </trkpt>
      <trkpt lat="43.68377" lon="6.97393">
        <ele>322.2</ele>
        <time>2015-11-07T07:02:34Z</time>
      </trkpt>
      <trkpt lat="43.68389" lon="6.9741">
        <ele>322.6</ele>
        <time>2015-11-07T07:02:40Z</time>
      </trkpt>
      <trkpt lat="43.68391" lon="6.97412">
        <ele>323</ele>
        <time>2015-11-07T07:02:41Z</time>
      </trkpt>
      <trkpt lat="43.68393" lon="6.97413">
        <ele>323.4</ele>
        <time>2015-11-07T07:02:42Z</time>
      </trkpt>
      <trkpt lat="43.68395" lon="6.97415">
        <ele>324</ele>
        <time>2015-11-07T07:02:43Z</time>
      </trkpt>
      <trkpt lat="43.68398" lon="6.97417">
        <ele>324.4</ele>
        <time>2015-11-07T07:02:44Z</time>
      </trkpt>
      <trkpt lat="43.68401" lon="6.97419">
        <ele>324.4</ele>
        <time>2015-11-07T07:02:45Z</time>
      </trkpt>
      <trkpt lat="43.68415" lon="6.97429">
        <ele>324.8</ele>
        <time>2015-11-07T07:02:50Z</time>
      </trkpt>
      <trkpt lat="43.68418" lon="6.97431">
        <ele>325.2</ele>
        <time>2015-11-07T07:02:51Z</time>
      </trkpt>
      <trkpt lat="43.6842" lon="6.97432">
        <ele>325.6</ele>
        <time>2015-11-07T07:02:52Z</time>
      </trkpt>
      <trkpt lat="43.68422" lon="6.97434">
        <ele>326</ele>
        <time>2015-11-07T07:02:53Z</time>
      </trkpt>
      <trkpt lat="43.68424" lon="6.97435">
        <ele>326.4</ele>
        <time>2015-11-07T07:02:54Z</time>
      </trkpt>
      <trkpt lat="43.68436" lon="6.97444">
        <ele>326.8</ele>
        <time>2015-11-07T07:02:58Z</time>
      </trkpt>
      <trkpt lat="43.6844" lon="6.97446">
        <ele>327.2</ele>
        <time>2015-11-07T07:02:59Z</time>
      </trkpt>
      <trkpt lat="43.68443" lon="6.97449">
        <ele>327.8</ele>
        <time>2015-11-07T07:03:00Z</time>
      </trkpt>
      <trkpt lat="43.68446" lon="6.97451">
        <ele>328.2</ele>
        <time>2015-11-07T07:03:01Z</time>
      </trkpt>
      <trkpt lat="43.6845" lon="6.97454">
        <ele>328.6</ele>
        <time>2015-11-07T07:03:02Z</time>
      </trkpt>
      <trkpt lat="43.68465" lon="6.97466">
        <ele>329</ele>
        <time>2015-11-07T07:03:07Z</time>
      </trkpt>
      <trkpt lat="43.68467" lon="6.97469">
        <ele>329.4</ele>
        <time>2015-11-07T07:03:08Z</time>
      </trkpt>
      <trkpt lat="43.6847" lon="6.97471">
        <ele>329.8</ele>
        <time>2015-11-07T07:03:09Z</time>
      </trkpt>
      <trkpt lat="43.68472" lon="6.97473">
        <ele>330.2</ele>
        <time>2015-11-07T07:03:10Z</time>
      </trkpt>
      <trkpt lat="43.68475" lon="6.97475">
        <ele>330.8</ele>
        <time>2015-11-07T07:03:11Z</time>
      </trkpt>
      <trkpt lat="43.68483" lon="6.97481">
        <ele>330.8</ele>
        <time>2015-11-07T07:03:14Z</time>
      </trkpt>
      <trkpt lat="43.68489" lon="6.97484">
        <ele>331.2</ele>
        <time>2015-11-07T07:03:16Z</time>
      </trkpt>
      <trkpt lat="43.68492" lon="6.97485">
        <ele>331.6</ele>
        <time>2015-11-07T07:03:17Z</time>
      </trkpt>
      <trkpt lat="43.68495" lon="6.97487">
        <ele>332.2</ele>
        <time>2015-11-07T07:03:18Z</time>
      </trkpt>
      <trkpt lat="43.68497" lon="6.97488">
        <ele>332.6</ele>
        <time>2015-11-07T07:03:19Z</time>
      </trkpt>
      <trkpt lat="43.685" lon="6.97488">
        <ele>333</ele>
        <time>2015-11-07T07:03:20Z</time>
      </trkpt>
      <trkpt lat="43.68504" lon="6.97487">
        <ele>333</ele>
        <time>2015-11-07T07:03:21Z</time>
      </trkpt>
      <trkpt lat="43.68518" lon="6.97481">
        <ele>333.4</ele>
        <time>2015-11-07T07:03:26Z</time>
      </trkpt>
      <trkpt lat="43.68522" lon="6.97481">
        <ele>334</ele>
        <time>2015-11-07T07:03:27Z</time>
      </trkpt>
      <trkpt lat="43.68525" lon="6.9748">
        <ele>334.4</ele>
        <time>2015-11-07T07:03:28Z</time>
      </trkpt>
      <trkpt lat="43.68529" lon="6.97478">
        <ele>334.8</ele>
        <time>2015-11-07T07:03:29Z</time>
      </trkpt>
      <trkpt lat="43.68532" lon="6.97477">
        <ele>335.2</ele>
        <time>2015-11-07T07:03:30Z</time>
      </trkpt>
      <trkpt lat="43.68543" lon="6.97469">
        <ele>335.2</ele>
        <time>2015-11-07T07:03:34Z</time>
      </trkpt>
      <trkpt lat="43.68547" lon="6.97468">
        <ele>335.6</ele>
        <time>2015-11-07T07:03:35Z</time>
      </trkpt>
      <trkpt lat="43.6855" lon="6.97468">
        <ele>336.2</ele>
        <time>2015-11-07T07:03:36Z</time>
      </trkpt>
      <trkpt lat="43.68553" lon="6.97467">
        <ele>336.6</ele>
        <time>2015-11-07T07:03:37Z</time>
      </trkpt>
      <trkpt lat="43.68556" lon="6.97468">
        <ele>337</ele>
        <time>2015-11-07T07:03:38Z</time>
      </trkpt>
      <trkpt lat="43.68559" lon="6.97468">
        <ele>337.4</ele>
        <time>2015-11-07T07:03:39Z</time>
      </trkpt>
      <trkpt lat="43.68561" lon="6.97468">
        <ele>337.4</ele>
        <time>2015-11-07T07:03:40Z</time>
      </trkpt>
      <trkpt lat="43.68574" lon="6.97473">
        <ele>337.8</ele>
        <time>2015-11-07T07:03:44Z</time>
      </trkpt>
      <trkpt lat="43.68578" lon="6.97475">
        <ele>338.4</ele>
        <time>2015-11-07T07:03:45Z</time>
      </trkpt>
      <trkpt lat="43.6858" lon="6.97476">
        <ele>338.8</ele>
        <time>2015-11-07T07:03:46Z</time>
      </trkpt>
      <trkpt lat="43.68583" lon="6.97478">
        <ele>339.2</ele>
        <time>2015-11-07T07:03:47Z</time>
      </trkpt>
      <trkpt lat="43.68586" lon="6.9748">
        <ele>339.6</ele>
        <time>2015-11-07T07:03:48Z</time>
      </trkpt>
      <trkpt lat="43.68597" lon="6.97488">
        <ele>340</ele>
        <time>2015-11-07T07:03:52Z</time>
      </trkpt>
      <trkpt lat="43.68599" lon="6.97491">
        <ele>340.4</ele>
        <time>2015-11-07T07:03:53Z</time>
      </trkpt>
      <trkpt lat="43.68602" lon="6.97493">
        <ele>341</ele>
        <time>2015-11-07T07:03:54Z</time>
      </trkpt>
      <trkpt lat="43.68605" lon="6.97495">
        <ele>341.4</ele>
        <time>2015-11-07T07:03:55Z</time>
      </trkpt>
      <trkpt lat="43.68608" lon="6.97497">
        <ele>341.8</ele>
        <time>2015-11-07T07:03:56Z</time>
      </trkpt>
      <trkpt lat="43.68619" lon="6.97501">
        <ele>342.2</ele>
        <time>2015-11-07T07:04:00Z</time>
      </trkpt>
      <trkpt lat="43.68622" lon="6.97502">
        <ele>342.6</ele>
        <time>2015-11-07T07:04:01Z</time>
      </trkpt>
      <trkpt lat="43.68625" lon="6.97502">
        <ele>343</ele>
        <time>2015-11-07T07:04:02Z</time>
      </trkpt>
      <trkpt lat="43.68628" lon="6.97503">
        <ele>343.6</ele>
        <time>2015-11-07T07:04:03Z</time>
      </trkpt>
      <trkpt lat="43.6863" lon="6.97504">
        <ele>344</ele>
        <time>2015-11-07T07:04:04Z</time>
      </trkpt>
      <trkpt lat="43.68645" lon="6.97502">
        <ele>344</ele>
        <time>2015-11-07T07:04:10Z</time>
      </trkpt>
      <trkpt lat="43.68652" lon="6.97498">
        <ele>344.4</ele>
        <time>2015-11-07T07:04:13Z</time>
      </trkpt>
      <trkpt lat="43.68654" lon="6.97498">
        <ele>344.8</ele>
        <time>2015-11-07T07:04:14Z</time>
      </trkpt>
      <trkpt lat="43.68657" lon="6.97497">
        <ele>345.2</ele>
        <time>2015-11-07T07:04:15Z</time>
      </trkpt>
      <trkpt lat="43.68659" lon="6.97497">
        <ele>345.6</ele>
        <time>2015-11-07T07:04:16Z</time>
      </trkpt>
      <trkpt lat="43.68662" lon="6.97497">
        <ele>346</ele>
        <time>2015-11-07T07:04:17Z</time>
      </trkpt>
      <trkpt lat="43.68669" lon="6.97499">
        <ele>346.4</ele>
        <time>2015-11-07T07:04:19Z</time>
      </trkpt>
      <trkpt lat="43.68673" lon="6.97502">
        <ele>346.8</ele>
        <time>2015-11-07T07:04:20Z</time>
      </trkpt>
      <trkpt lat="43.68677" lon="6.97504">
        <ele>347.4</ele>
        <time>2015-11-07T07:04:21Z</time>
      </trkpt>
      <trkpt lat="43.68679" lon="6.97506">
        <ele>347.8</ele>
        <time>2015-11-07T07:04:22Z</time>
      </trkpt>
      <trkpt lat="43.68682" lon="6.97508">
        <ele>348.2</ele>
        <time>2015-11-07T07:04:23Z</time>
      </trkpt>
      <trkpt lat="43.68685" lon="6.97509">
        <ele>348.2</ele>
        <time>2015-11-07T07:04:24Z</time>
      </trkpt>
      <trkpt lat="43.68693" lon="6.97512">
        <ele>348.6</ele>
        <time>2015-11-07T07:04:27Z</time>
      </trkpt>
      <trkpt lat="43.68695" lon="6.97512">
        <ele>349</ele>
        <time>2015-11-07T07:04:28Z</time>
      </trkpt>
      <trkpt lat="43.68698" lon="6.97512">
        <ele>349.4</ele>
        <time>2015-11-07T07:04:29Z</time>
      </trkpt>
      <trkpt lat="43.68701" lon="6.97514">
        <ele>349.8</ele>
        <time>2015-11-07T07:04:30Z</time>
      </trkpt>
      <trkpt lat="43.68704" lon="6.97515">
        <ele>350.2</ele>
        <time>2015-11-07T07:04:31Z</time>
      </trkpt>
      <trkpt lat="43.68706" lon="6.97514">
        <ele>350.2</ele>
        <time>2015-11-07T07:04:32Z</time>
      </trkpt>
      <trkpt lat="43.68714" lon="6.97514">
        <ele>350.6</ele>
        <time>2015-11-07T07:04:35Z</time>
      </trkpt>
      <trkpt lat="43.68717" lon="6.97514">
        <ele>351</ele>
        <time>2015-11-07T07:04:36Z</time>
      </trkpt>
      <trkpt lat="43.6872" lon="6.97513">
        <ele>351.4</ele>
        <time>2015-11-07T07:04:37Z</time>
      </trkpt>
      <trkpt lat="43.68723" lon="6.97513">
        <ele>351.8</ele>
        <time>2015-11-07T07:04:38Z</time>
      </trkpt>
      <trkpt lat="43.68726" lon="6.97512">
        <ele>352.4</ele>
        <time>2015-11-07T07:04:39Z</time>
      </trkpt>
      <trkpt lat="43.68738" lon="6.9751">
        <ele>352.8</ele>
        <time>2015-11-07T07:04:43Z</time>
      </trkpt>
      <trkpt lat="43.6874" lon="6.97509">
        <ele>353.2</ele>
        <time>2015-11-07T07:04:44Z</time>
      </trkpt>
      <trkpt lat="43.68742" lon="6.97506">
        <ele>353.6</ele>
        <time>2015-11-07T07:04:45Z</time>
      </trkpt>
      <trkpt lat="43.68744" lon="6.97505">
        <ele>354</ele>
        <time>2015-11-07T07:04:46Z</time>
      </trkpt>
      <trkpt lat="43.68746" lon="6.97502">
        <ele>354.4</ele>
        <time>2015-11-07T07:04:47Z</time>
      </trkpt>
      <trkpt lat="43.68753" lon="6.97489">
        <ele>354.4</ele>
        <time>2015-11-07T07:04:52Z</time>
      </trkpt>
      <trkpt lat="43.68755" lon="6.97486">
        <ele>355</ele>
        <time>2015-11-07T07:04:53Z</time>
      </trkpt>
      <trkpt lat="43.68757" lon="6.97483">
        <ele>355.4</ele>
        <time>2015-11-07T07:04:54Z</time>
      </trkpt>
      <trkpt lat="43.68759" lon="6.97481">
        <ele>355.8</ele>
        <time>2015-11-07T07:04:55Z</time>
      </trkpt>
      <trkpt lat="43.68761" lon="6.97478">
        <ele>356.2</ele>
        <time>2015-11-07T07:04:56Z</time>
      </trkpt>
      <trkpt lat="43.68763" lon="6.97476">
        <ele>356.6</ele>
        <time>2015-11-07T07:04:57Z</time>
      </trkpt>
      <trkpt lat="43.68768" lon="6.9747">
        <ele>356.6</ele>
        <time>2015-11-07T07:04:59Z</time>
      </trkpt>
      <trkpt lat="43.68772" lon="6.9746">
        <ele>357</ele>
        <time>2015-11-07T07:05:02Z</time>
      </trkpt>
      <trkpt lat="43.68774" lon="6.97457">
        <ele>357.4</ele>
        <time>2015-11-07T07:05:03Z</time>
      </trkpt>
      <trkpt lat="43.68775" lon="6.97454">
        <ele>358</ele>
        <time>2015-11-07T07:05:04Z</time>
      </trkpt>
      <trkpt lat="43.68777" lon="6.97451">
        <ele>358.4</ele>
        <time>2015-11-07T07:05:05Z</time>
      </trkpt>
      <trkpt lat="43.68779" lon="6.97449">
        <ele>358.8</ele>
        <time>2015-11-07T07:05:06Z</time>
      </trkpt>
      <trkpt lat="43.68783" lon="6.97444">
        <ele>358.8</ele>
        <time>2015-11-07T07:05:08Z</time>
      </trkpt>
      <trkpt lat="43.68789" lon="6.97436">
        <ele>359.2</ele>
        <time>2015-11-07T07:05:11Z</time>
      </trkpt>
      <trkpt lat="43.68791" lon="6.97433">
        <ele>359.8</ele>
        <time>2015-11-07T07:05:12Z</time>
      </trkpt>
      <trkpt lat="43.68793" lon="6.97429">
        <ele>360.2</ele>
        <time>2015-11-07T07:05:13Z</time>
      </trkpt>
      <trkpt lat="43.68796" lon="6.97426">
        <ele>360.6</ele>
        <time>2015-11-07T07:05:14Z</time>
      </trkpt>
      <trkpt lat="43.68799" lon="6.97423">
        <ele>361</ele>
        <time>2015-11-07T07:05:15Z</time>
      </trkpt>
      <trkpt lat="43.68801" lon="6.9742">
        <ele>361</ele>
        <time>2015-11-07T07:05:16Z</time>
      </trkpt>
      <trkpt lat="43.6881" lon="6.97411">
        <ele>361.4</ele>
        <time>2015-11-07T07:05:20Z</time>
      </trkpt>
      <trkpt lat="43.68812" lon="6.97409">
        <ele>361.8</ele>
        <time>2015-11-07T07:05:21Z</time>
      </trkpt>
      <trkpt lat="43.68815" lon="6.97407">
        <ele>362.2</ele>
        <time>2015-11-07T07:05:22Z</time>
      </trkpt>
      <trkpt lat="43.68818" lon="6.97405">
        <ele>362.8</ele>
        <time>2015-11-07T07:05:23Z</time>
      </trkpt>
      <trkpt lat="43.68821" lon="6.97403">
        <ele>363.2</ele>
        <time>2015-11-07T07:05:24Z</time>
      </trkpt>
      <trkpt lat="43.68832" lon="6.97401">
        <ele>363.2</ele>
        <time>2015-11-07T07:05:28Z</time>
      </trkpt>
      <trkpt lat="43.68839" lon="6.97399">
        <ele>363.6</ele>
        <time>2015-11-07T07:05:30Z</time>
      </trkpt>
      <trkpt lat="43.68842" lon="6.97398">
        <ele>364.2</ele>
        <time>2015-11-07T07:05:31Z</time>
      </trkpt>
      <trkpt lat="43.68844" lon="6.97398">
        <ele>364.6</ele>
        <time>2015-11-07T07:05:32Z</time>
      </trkpt>
      <trkpt lat="43.68848" lon="6.97398">
        <ele>365.2</ele>
        <time>2015-11-07T07:05:33Z</time>
      </trkpt>
      <trkpt lat="43.6885" lon="6.97399">
        <ele>365.6</ele>
        <time>2015-11-07T07:05:34Z</time>
      </trkpt>
      <trkpt lat="43.68853" lon="6.97401">
        <ele>365.6</ele>
        <time>2015-11-07T07:05:35Z</time>
      </trkpt>
      <trkpt lat="43.68863" lon="6.97404">
        <ele>366</ele>
        <time>2015-11-07T07:05:39Z</time>
      </trkpt>
      <trkpt lat="43.68866" lon="6.97403">
        <ele>366.4</ele>
        <time>2015-11-07T07:05:40Z</time>
      </trkpt>
      <trkpt lat="43.68868" lon="6.97404">
        <ele>366.8</ele>
        <time>2015-11-07T07:05:41Z</time>
      </trkpt>
      <trkpt lat="43.68871" lon="6.97404">
        <ele>367.2</ele>
        <time>2015-11-07T07:05:42Z</time>
      </trkpt>
      <trkpt lat="43.68874" lon="6.97405">
        <ele>367.6</ele>
        <time>2015-11-07T07:05:43Z</time>
      </trkpt>
      <trkpt lat="43.68886" lon="6.97407">
        <ele>368</ele>
        <time>2015-11-07T07:05:48Z</time>
      </trkpt>
      <trkpt lat="43.68889" lon="6.97408">
        <ele>368.6</ele>
        <time>2015-11-07T07:05:49Z</time>
      </trkpt>
      <trkpt lat="43.68892" lon="6.97409">
        <ele>369</ele>
        <time>2015-11-07T07:05:50Z</time>
      </trkpt>
      <trkpt lat="43.68895" lon="6.9741">
        <ele>369.4</ele>
        <time>2015-11-07T07:05:51Z</time>
      </trkpt>
      <trkpt lat="43.68898" lon="6.9741">
        <ele>369.8</ele>
        <time>2015-11-07T07:05:52Z</time>
      </trkpt>
      <trkpt lat="43.68902" lon="6.97411">
        <ele>369.8</ele>
        <time>2015-11-07T07:05:53Z</time>
      </trkpt>
      <trkpt lat="43.6892" lon="6.97414">
        <ele>370.2</ele>
        <time>2015-11-07T07:06:00Z</time>
      </trkpt>
      <trkpt lat="43.68922" lon="6.97413">
        <ele>370.6</ele>
        <time>2015-11-07T07:06:01Z</time>
      </trkpt>
      <trkpt lat="43.68925" lon="6.97413">
        <ele>371.2</ele>
        <time>2015-11-07T07:06:02Z</time>
      </trkpt>
      <trkpt lat="43.68927" lon="6.97413">
        <ele>371.6</ele>
        <time>2015-11-07T07:06:03Z</time>
      </trkpt>
      <trkpt lat="43.6893" lon="6.97413">
        <ele>372</ele>
        <time>2015-11-07T07:06:04Z</time>
      </trkpt>
      <trkpt lat="43.68941" lon="6.97418">
        <ele>372.4</ele>
        <time>2015-11-07T07:06:08Z</time>
      </trkpt>
      <trkpt lat="43.68942" lon="6.97419">
        <ele>373</ele>
        <time>2015-11-07T07:06:09Z</time>
      </trkpt>
      <trkpt lat="43.68945" lon="6.97421">
        <ele>373.4</ele>
        <time>2015-11-07T07:06:10Z</time>
      </trkpt>
      <trkpt lat="43.68946" lon="6.97421">
        <ele>373.8</ele>
        <time>2015-11-07T07:06:11Z</time>
      </trkpt>
      <trkpt lat="43.68949" lon="6.97421">
        <ele>374.4</ele>
        <time>2015-11-07T07:06:12Z</time>
      </trkpt>
      <trkpt lat="43.68962" lon="6.97424">
        <ele>374.8</ele>
        <time>2015-11-07T07:06:16Z</time>
      </trkpt>
      <trkpt lat="43.68965" lon="6.97425">
        <ele>375.2</ele>
        <time>2015-11-07T07:06:17Z</time>
      </trkpt>
      <trkpt lat="43.68968" lon="6.97425">
        <ele>375.6</ele>
        <time>2015-11-07T07:06:18Z</time>
      </trkpt>
      <trkpt lat="43.68971" lon="6.97426">
        <ele>376.2</ele>
        <time>2015-11-07T07:06:19Z</time>
      </trkpt>
      <trkpt lat="43.68973" lon="6.97427">
        <ele>376.6</ele>
        <time>2015-11-07T07:06:20Z</time>
      </trkpt>
      <trkpt lat="43.68985" lon="6.9743">
        <ele>376.6</ele>
        <time>2015-11-07T07:06:24Z</time>
      </trkpt>
      <trkpt lat="43.68994" lon="6.9743">
        <ele>377</ele>
        <time>2015-11-07T07:06:27Z</time>
      </trkpt>
      <trkpt lat="43.68996" lon="6.97429">
        <ele>377.6</ele>
        <time>2015-11-07T07:06:28Z</time>
      </trkpt>
      <trkpt lat="43.68998" lon="6.97427">
        <ele>378</ele>
        <time>2015-11-07T07:06:29Z</time>
      </trkpt>
      <trkpt lat="43.69002" lon="6.97428">
        <ele>378.6</ele>
        <time>2015-11-07T07:06:30Z</time>
      </trkpt>
      <trkpt lat="43.69004" lon="6.97427">
        <ele>379</ele>
        <time>2015-11-07T07:06:31Z</time>
      </trkpt>
      <trkpt lat="43.69007" lon="6.97426">
        <ele>379</ele>
        <time>2015-11-07T07:06:32Z</time>
      </trkpt>
      <trkpt lat="43.69017" lon="6.97426">
        <ele>379.4</ele>
        <time>2015-11-07T07:06:36Z</time>
      </trkpt>
      <trkpt lat="43.6902" lon="6.97426">
        <ele>379.8</ele>
        <time>2015-11-07T07:06:37Z</time>
      </trkpt>
      <trkpt lat="43.69023" lon="6.97426">
        <ele>380.2</ele>
        <time>2015-11-07T07:06:38Z</time>
      </trkpt>
      <trkpt lat="43.69026" lon="6.97426">
        <ele>380.6</ele>
        <time>2015-11-07T07:06:39Z</time>
      </trkpt>
      <trkpt lat="43.69029" lon="6.97427">
        <ele>381</ele>
        <time>2015-11-07T07:06:40Z</time>
      </trkpt>
      <trkpt lat="43.6904" lon="6.97428">
        <ele>381.4</ele>
        <time>2015-11-07T07:06:45Z</time>
      </trkpt>
      <trkpt lat="43.69042" lon="6.97429">
        <ele>382</ele>
        <time>2015-11-07T07:06:46Z</time>
      </trkpt>
      <trkpt lat="43.69044" lon="6.97429">
        <ele>382.4</ele>
        <time>2015-11-07T07:06:47Z</time>
      </trkpt>
      <trkpt lat="43.69046" lon="6.97429">
        <ele>382.8</ele>
        <time>2015-11-07T07:06:48Z</time>
      </trkpt>
      <trkpt lat="43.69049" lon="6.97429">
        <ele>383.2</ele>
        <time>2015-11-07T07:06:49Z</time>
      </trkpt>
      <trkpt lat="43.69067" lon="6.97428">
        <ele>383.6</ele>
        <time>2015-11-07T07:06:56Z</time>
      </trkpt>
      <trkpt lat="43.69069" lon="6.97427">
        <ele>384.2</ele>
        <time>2015-11-07T07:06:57Z</time>
      </trkpt>
      <trkpt lat="43.69072" lon="6.97427">
        <ele>384.6</ele>
        <time>2015-11-07T07:06:58Z</time>
      </trkpt>
      <trkpt lat="43.69075" lon="6.97426">
        <ele>385</ele>
        <time>2015-11-07T07:06:59Z</time>
      </trkpt>
      <trkpt lat="43.69077" lon="6.97425">
        <ele>385.6</ele>
        <time>2015-11-07T07:07:00Z</time>
      </trkpt>
      <trkpt lat="43.69085" lon="6.9742">
        <ele>385.6</ele>
        <time>2015-11-07T07:07:03Z</time>
      </trkpt>
      <trkpt lat="43.69093" lon="6.97416">
        <ele>386</ele>
        <time>2015-11-07T07:07:06Z</time>
      </trkpt>
      <trkpt lat="43.69096" lon="6.97414">
        <ele>386.4</ele>
        <time>2015-11-07T07:07:07Z</time>
      </trkpt>
      <trkpt lat="43.69098" lon="6.97412">
        <ele>386.8</ele>
        <time>2015-11-07T07:07:08Z</time>
      </trkpt>
      <trkpt lat="43.691" lon="6.97409">
        <ele>387.2</ele>
        <time>2015-11-07T07:07:09Z</time>
      </trkpt>
      <trkpt lat="43.69102" lon="6.97407">
        <ele>387.6</ele>
        <time>2015-11-07T07:07:10Z</time>
      </trkpt>
      <trkpt lat="43.69111" lon="6.97397">
        <ele>388</ele>
        <time>2015-11-07T07:07:14Z</time>
      </trkpt>
      <trkpt lat="43.69112" lon="6.97394">
        <ele>388.4</ele>
        <time>2015-11-07T07:07:15Z</time>
      </trkpt>
      <trkpt lat="43.69113" lon="6.97391">
        <ele>388.8</ele>
        <time>2015-11-07T07:07:16Z</time>
      </trkpt>
      <trkpt lat="43.69115" lon="6.97388">
        <ele>389.2</ele>
        <time>2015-11-07T07:07:17Z</time>
      </trkpt>
      <trkpt lat="43.69116" lon="6.97385">
        <ele>389.6</ele>
        <time>2015-11-07T07:07:18Z</time>
      </trkpt>
      <trkpt lat="43.69122" lon="6.9737">
        <ele>390</ele>
        <time>2015-11-07T07:07:23Z</time>
      </trkpt>
      <trkpt lat="43.69123" lon="6.97367">
        <ele>390.4</ele>
        <time>2015-11-07T07:07:24Z</time>
      </trkpt>
      <trkpt lat="43.69124" lon="6.97363">
        <ele>390.8</ele>
        <time>2015-11-07T07:07:25Z</time>
      </trkpt>
      <trkpt lat="43.69125" lon="6.9736">
        <ele>391.2</ele>
        <time>2015-11-07T07:07:26Z</time>
      </trkpt>
      <trkpt lat="43.69127" lon="6.97356">
        <ele>391.8</ele>
        <time>2015-11-07T07:07:27Z</time>
      </trkpt>
      <trkpt lat="43.69138" lon="6.97336">
        <ele>391.8</ele>
        <time>2015-11-07T07:07:33Z</time>
      </trkpt>
      <trkpt lat="43.69146" lon="6.97328">
        <ele>392.2</ele>
        <time>2015-11-07T07:07:36Z</time>
      </trkpt>
      <trkpt lat="43.69148" lon="6.97326">
        <ele>392.6</ele>
        <time>2015-11-07T07:07:37Z</time>
      </trkpt>
      <trkpt lat="43.69148" lon="6.97321">
        <ele>393</ele>
        <time>2015-11-07T07:07:38Z</time>
      </trkpt>
      <trkpt lat="43.69149" lon="6.97316">
        <ele>393.4</ele>
        <time>2015-11-07T07:07:39Z</time>
      </trkpt>
      <trkpt lat="43.6915" lon="6.97312">
        <ele>393.8</ele>
        <time>2015-11-07T07:07:40Z</time>
      </trkpt>
      <trkpt lat="43.69154" lon="6.97292">
        <ele>394.4</ele>
        <time>2015-11-07T07:07:44Z</time>
      </trkpt>
      <trkpt lat="43.69156" lon="6.9729">
        <ele>394.8</ele>
        <time>2015-11-07T07:07:45Z</time>
      </trkpt>
      <trkpt lat="43.69159" lon="6.97288">
        <ele>395.2</ele>
        <time>2015-11-07T07:07:46Z</time>
      </trkpt>
      <trkpt lat="43.69162" lon="6.97285">
        <ele>395.6</ele>
        <time>2015-11-07T07:07:47Z</time>
      </trkpt>
      <trkpt lat="43.69164" lon="6.97283">
        <ele>396</ele>
        <time>2015-11-07T07:07:48Z</time>
      </trkpt>
      <trkpt lat="43.69172" lon="6.97278">
        <ele>396.4</ele>
        <time>2015-11-07T07:07:51Z</time>
      </trkpt>
      <trkpt lat="43.69174" lon="6.97276">
        <ele>396.8</ele>
        <time>2015-11-07T07:07:52Z</time>
      </trkpt>
      <trkpt lat="43.69178" lon="6.97275">
        <ele>397.2</ele>
        <time>2015-11-07T07:07:53Z</time>
      </trkpt>
      <trkpt lat="43.69181" lon="6.97275">
        <ele>397.6</ele>
        <time>2015-11-07T07:07:54Z</time>
      </trkpt>
      <trkpt lat="43.69185" lon="6.97274">
        <ele>398</ele>
        <time>2015-11-07T07:07:55Z</time>
      </trkpt>
      <trkpt lat="43.69198" lon="6.97263">
        <ele>398</ele>
        <time>2015-11-07T07:08:00Z</time>
      </trkpt>
      <trkpt lat="43.69206" lon="6.97258">
        <ele>398.4</ele>
        <time>2015-11-07T07:08:03Z</time>
      </trkpt>
      <trkpt lat="43.69209" lon="6.97257">
        <ele>398.8</ele>
        <time>2015-11-07T07:08:04Z</time>
      </trkpt>
      <trkpt lat="43.69213" lon="6.97255">
        <ele>399.4</ele>
        <time>2015-11-07T07:08:05Z</time>
      </trkpt>
      <trkpt lat="43.69216" lon="6.97254">
        <ele>399.8</ele>
        <time>2015-11-07T07:08:06Z</time>
      </trkpt>
      <trkpt lat="43.69219" lon="6.97253">
        <ele>400.2</ele>
        <time>2015-11-07T07:08:07Z</time>
      </trkpt>
      <trkpt lat="43.69239" lon="6.97247">
        <ele>400.6</ele>
        <time>2015-11-07T07:08:13Z</time>
      </trkpt>
      <trkpt lat="43.69242" lon="6.97247">
        <ele>401</ele>
        <time>2015-11-07T07:08:14Z</time>
      </trkpt>
      <trkpt lat="43.69244" lon="6.97246">
        <ele>401.4</ele>
        <time>2015-11-07T07:08:15Z</time>
      </trkpt>
      <trkpt lat="43.69247" lon="6.97245">
        <ele>402</ele>
        <time>2015-11-07T07:08:16Z</time>
      </trkpt>
      <trkpt lat="43.6925" lon="6.97245">
        <ele>402.4</ele>
        <time>2015-11-07T07:08:17Z</time>
      </trkpt>
      <trkpt lat="43.69264" lon="6.97237">
        <ele>402.8</ele>
        <time>2015-11-07T07:08:23Z</time>
      </trkpt>
      <trkpt lat="43.69266" lon="6.97235">
        <ele>403.2</ele>
        <time>2015-11-07T07:08:24Z</time>
      </trkpt>
      <trkpt lat="43.69268" lon="6.97234">
        <ele>403.8</ele>
        <time>2015-11-07T07:08:25Z</time>
      </trkpt>
      <trkpt lat="43.69272" lon="6.97232">
        <ele>404.2</ele>
        <time>2015-11-07T07:08:26Z</time>
      </trkpt>
      <trkpt lat="43.69275" lon="6.97229">
        <ele>404.6</ele>
        <time>2015-11-07T07:08:27Z</time>
      </trkpt>
      <trkpt lat="43.69284" lon="6.97223">
        <ele>404.6</ele>
        <time>2015-11-07T07:08:30Z</time>
      </trkpt>
      <trkpt lat="43.69296" lon="6.97212">
        <ele>405</ele>
        <time>2015-11-07T07:08:35Z</time>
      </trkpt>
      <trkpt lat="43.69299" lon="6.9721">
        <ele>405.6</ele>
        <time>2015-11-07T07:08:36Z</time>
      </trkpt>
      <trkpt lat="43.69302" lon="6.97206">
        <ele>406</ele>
        <time>2015-11-07T07:08:37Z</time>
      </trkpt>
      <trkpt lat="43.69303" lon="6.97205">
        <ele>406.4</ele>
        <time>2015-11-07T07:08:38Z</time>
      </trkpt>
      <trkpt lat="43.69305" lon="6.97202">
        <ele>407</ele>
        <time>2015-11-07T07:08:39Z</time>
      </trkpt>
      <trkpt lat="43.69314" lon="6.9719">
        <ele>407.4</ele>
        <time>2015-11-07T07:08:44Z</time>
      </trkpt>
      <trkpt lat="43.69317" lon="6.97188">
        <ele>407.8</ele>
        <time>2015-11-07T07:08:45Z</time>
      </trkpt>
      <trkpt lat="43.69319" lon="6.97185">
        <ele>408.2</ele>
        <time>2015-11-07T07:08:46Z</time>
      </trkpt>
      <trkpt lat="43.69322" lon="6.97183">
        <ele>408.6</ele>
        <time>2015-11-07T07:08:47Z</time>
      </trkpt>
      <trkpt lat="43.69325" lon="6.97181">
        <ele>409</ele>
        <time>2015-11-07T07:08:48Z</time>
      </trkpt>
      <trkpt lat="43.69338" lon="6.97176">
        <ele>409</ele>
        <time>2015-11-07T07:08:52Z</time>
      </trkpt>
      <trkpt lat="43.69341" lon="6.97175">
        <ele>409.4</ele>
        <time>2015-11-07T07:08:53Z</time>
      </trkpt>
      <trkpt lat="43.69344" lon="6.97174">
        <ele>410</ele>
        <time>2015-11-07T07:08:54Z</time>
      </trkpt>
      <trkpt lat="43.69347" lon="6.97173">
        <ele>410.4</ele>
        <time>2015-11-07T07:08:55Z</time>
      </trkpt>
      <trkpt lat="43.69349" lon="6.97171">
        <ele>411</ele>
        <time>2015-11-07T07:08:56Z</time>
      </trkpt>
      <trkpt lat="43.69352" lon="6.9717">
        <ele>411.4</ele>
        <time>2015-11-07T07:08:57Z</time>
      </trkpt>
      <trkpt lat="43.69361" lon="6.97168">
        <ele>411.4</ele>
        <time>2015-11-07T07:09:00Z</time>
      </trkpt>
      <trkpt lat="43.69364" lon="6.97167">
        <ele>411.8</ele>
        <time>2015-11-07T07:09:01Z</time>
      </trkpt>
      <trkpt lat="43.69367" lon="6.97167">
        <ele>412.2</ele>
        <time>2015-11-07T07:09:02Z</time>
      </trkpt>
      <trkpt lat="43.6937" lon="6.97166">
        <ele>412.6</ele>
        <time>2015-11-07T07:09:03Z</time>
      </trkpt>
      <trkpt lat="43.69373" lon="6.97166">
        <ele>413</ele>
        <time>2015-11-07T07:09:04Z</time>
      </trkpt>
      <trkpt lat="43.69375" lon="6.97165">
        <ele>413.4</ele>
        <time>2015-11-07T07:09:05Z</time>
      </trkpt>
      <trkpt lat="43.69378" lon="6.97165">
        <ele>413.4</ele>
        <time>2015-11-07T07:09:06Z</time>
      </trkpt>
      <trkpt lat="43.69394" lon="6.97155">
        <ele>413.4</ele>
        <time>2015-11-07T07:09:12Z</time>
      </trkpt>
      <trkpt lat="43.69398" lon="6.97155">
        <ele>413.8</ele>
        <time>2015-11-07T07:09:14Z</time>
      </trkpt>
      <trkpt lat="43.694" lon="6.97154">
        <ele>414.4</ele>
        <time>2015-11-07T07:09:15Z</time>
      </trkpt>
      <trkpt lat="43.69401" lon="6.97153">
        <ele>414.8</ele>
        <time>2015-11-07T07:09:16Z</time>
      </trkpt>
      <trkpt lat="43.69403" lon="6.97153">
        <ele>415.2</ele>
        <time>2015-11-07T07:09:17Z</time>
      </trkpt>
      <trkpt lat="43.69405" lon="6.97152">
        <ele>415.6</ele>
        <time>2015-11-07T07:09:18Z</time>
      </trkpt>
      <trkpt lat="43.6942" lon="6.97136">
        <ele>416</ele>
        <time>2015-11-07T07:09:26Z</time>
      </trkpt>
      <trkpt lat="43.69421" lon="6.97134">
        <ele>416.6</ele>
        <time>2015-11-07T07:09:27Z</time>
      </trkpt>
      <trkpt lat="43.69421" lon="6.97128">
        <ele>417</ele>
        <time>2015-11-07T07:09:28Z</time>
      </trkpt>
      <trkpt lat="43.69422" lon="6.97124">
        <ele>417.4</ele>
        <time>2015-11-07T07:09:29Z</time>
      </trkpt>
      <trkpt lat="43.69423" lon="6.97121">
        <ele>417.8</ele>
        <time>2015-11-07T07:09:30Z</time>
      </trkpt>
      <trkpt lat="43.69429" lon="6.97113">
        <ele>418.4</ele>
        <time>2015-11-07T07:09:33Z</time>
      </trkpt>
      <trkpt lat="43.69431" lon="6.9711">
        <ele>418.8</ele>
        <time>2015-11-07T07:09:34Z</time>
      </trkpt>
      <trkpt lat="43.69434" lon="6.97107">
        <ele>419.2</ele>
        <time>2015-11-07T07:09:35Z</time>
      </trkpt>
      <trkpt lat="43.69435" lon="6.97104">
        <ele>419.6</ele>
        <time>2015-11-07T07:09:36Z</time>
      </trkpt>
      <trkpt lat="43.69438" lon="6.97101">
        <ele>420</ele>
        <time>2015-11-07T07:09:37Z</time>
      </trkpt>
      <trkpt lat="43.69447" lon="6.97092">
        <ele>420.6</ele>
        <time>2015-11-07T07:09:40Z</time>
      </trkpt>
      <trkpt lat="43.6945" lon="6.9709">
        <ele>421</ele>
        <time>2015-11-07T07:09:41Z</time>
      </trkpt>
      <trkpt lat="43.69453" lon="6.97087">
        <ele>421.4</ele>
        <time>2015-11-07T07:09:42Z</time>
      </trkpt>
      <trkpt lat="43.69457" lon="6.97085">
        <ele>421.8</ele>
        <time>2015-11-07T07:09:43Z</time>
      </trkpt>
      <trkpt lat="43.6946" lon="6.97083">
        <ele>422.4</ele>
        <time>2015-11-07T07:09:44Z</time>
      </trkpt>
      <trkpt lat="43.69472" lon="6.97078">
        <ele>422.4</ele>
        <time>2015-11-07T07:09:49Z</time>
      </trkpt>
      <trkpt lat="43.69479" lon="6.97079">
        <ele>422.8</ele>
        <time>2015-11-07T07:09:52Z</time>
      </trkpt>
      <trkpt lat="43.69482" lon="6.97078">
        <ele>423.2</ele>
        <time>2015-11-07T07:09:53Z</time>
      </trkpt>
      <trkpt lat="43.69486" lon="6.97077">
        <ele>423.8</ele>
        <time>2015-11-07T07:09:54Z</time>
      </trkpt>
      <trkpt lat="43.69488" lon="6.97077">
        <ele>424.2</ele>
        <time>2015-11-07T07:09:55Z</time>
      </trkpt>
      <trkpt lat="43.6949" lon="6.97076">
        <ele>424.6</ele>
        <time>2015-11-07T07:09:56Z</time>
      </trkpt>
      <trkpt lat="43.69506" lon="6.97065">
        <ele>425</ele>
        <time>2015-11-07T07:10:02Z</time>
      </trkpt>
      <trkpt lat="43.69509" lon="6.97063">
        <ele>425.4</ele>
        <time>2015-11-07T07:10:03Z</time>
      </trkpt>
      <trkpt lat="43.6951" lon="6.97061">
        <ele>425.8</ele>
        <time>2015-11-07T07:10:04Z</time>
      </trkpt>
      <trkpt lat="43.69512" lon="6.97058">
        <ele>426.2</ele>
        <time>2015-11-07T07:10:05Z</time>
      </trkpt>
      <trkpt lat="43.69514" lon="6.97056">
        <ele>426.6</ele>
        <time>2015-11-07T07:10:06Z</time>
      </trkpt>
      <trkpt lat="43.69519" lon="6.97047">
        <ele>426.6</ele>
        <time>2015-11-07T07:10:09Z</time>
      </trkpt>
      <trkpt lat="43.69521" lon="6.97039">
        <ele>427.2</ele>
        <time>2015-11-07T07:10:11Z</time>
      </trkpt>
      <trkpt lat="43.69522" lon="6.97036">
        <ele>427.6</ele>
        <time>2015-11-07T07:10:12Z</time>
      </trkpt>
      <trkpt lat="43.69524" lon="6.97032">
        <ele>428</ele>
        <time>2015-11-07T07:10:13Z</time>
      </trkpt>
      <trkpt lat="43.69526" lon="6.97029">
        <ele>428.4</ele>
        <time>2015-11-07T07:10:14Z</time>
      </trkpt>
      <trkpt lat="43.69527" lon="6.97026">
        <ele>429</ele>
        <time>2015-11-07T07:10:15Z</time>
      </trkpt>
      <trkpt lat="43.69528" lon="6.97023">
        <ele>429</ele>
        <time>2015-11-07T07:10:16Z</time>
      </trkpt>
      <trkpt lat="43.6953" lon="6.97009">
        <ele>429.4</ele>
        <time>2015-11-07T07:10:20Z</time>
      </trkpt>
      <trkpt lat="43.69531" lon="6.97005">
        <ele>429.8</ele>
        <time>2015-11-07T07:10:21Z</time>
      </trkpt>
      <trkpt lat="43.69532" lon="6.97001">
        <ele>430.2</ele>
        <time>2015-11-07T07:10:22Z</time>
      </trkpt>
      <trkpt lat="43.69532" lon="6.96997">
        <ele>430.6</ele>
        <time>2015-11-07T07:10:23Z</time>
      </trkpt>
      <trkpt lat="43.69532" lon="6.96993">
        <ele>431</ele>
        <time>2015-11-07T07:10:24Z</time>
      </trkpt>
      <trkpt lat="43.69534" lon="6.96979">
        <ele>431.4</ele>
        <time>2015-11-07T07:10:28Z</time>
      </trkpt>
      <trkpt lat="43.69535" lon="6.96975">
        <ele>431.8</ele>
        <time>2015-11-07T07:10:29Z</time>
      </trkpt>
      <trkpt lat="43.69536" lon="6.96971">
        <ele>432.4</ele>
        <time>2015-11-07T07:10:30Z</time>
      </trkpt>
      <trkpt lat="43.69536" lon="6.96968">
        <ele>432.8</ele>
        <time>2015-11-07T07:10:31Z</time>
      </trkpt>
      <trkpt lat="43.69536" lon="6.96964">
        <ele>433.2</ele>
        <time>2015-11-07T07:10:32Z</time>
      </trkpt>
      <trkpt lat="43.69542" lon="6.96946">
        <ele>433.8</ele>
        <time>2015-11-07T07:10:37Z</time>
      </trkpt>
      <trkpt lat="43.69544" lon="6.96943">
        <ele>434.2</ele>
        <time>2015-11-07T07:10:38Z</time>
      </trkpt>
      <trkpt lat="43.69546" lon="6.96941">
        <ele>434.6</ele>
        <time>2015-11-07T07:10:39Z</time>
      </trkpt>
      <trkpt lat="43.69548" lon="6.96938">
        <ele>435</ele>
        <time>2015-11-07T07:10:40Z</time>
      </trkpt>
      <trkpt lat="43.69551" lon="6.96935">
        <ele>435.6</ele>
        <time>2015-11-07T07:10:41Z</time>
      </trkpt>
      <trkpt lat="43.69566" lon="6.9692">
        <ele>436</ele>
        <time>2015-11-07T07:10:47Z</time>
      </trkpt>
      <trkpt lat="43.69568" lon="6.96917">
        <ele>436.4</ele>
        <time>2015-11-07T07:10:48Z</time>
      </trkpt>
      <trkpt lat="43.69571" lon="6.96914">
        <ele>436.8</ele>
        <time>2015-11-07T07:10:49Z</time>
      </trkpt>
      <trkpt lat="43.69573" lon="6.96911">
        <ele>437.2</ele>
        <time>2015-11-07T07:10:50Z</time>
      </trkpt>
      <trkpt lat="43.69575" lon="6.96909">
        <ele>437.6</ele>
        <time>2015-11-07T07:10:51Z</time>
      </trkpt>
      <trkpt lat="43.69583" lon="6.96899">
        <ele>438.2</ele>
        <time>2015-11-07T07:10:55Z</time>
      </trkpt>
      <trkpt lat="43.69585" lon="6.96896">
        <ele>438.6</ele>
        <time>2015-11-07T07:10:56Z</time>
      </trkpt>
      <trkpt lat="43.69588" lon="6.96894">
        <ele>439</ele>
        <time>2015-11-07T07:10:57Z</time>
      </trkpt>
      <trkpt lat="43.6959" lon="6.96891">
        <ele>439.6</ele>
        <time>2015-11-07T07:10:58Z</time>
      </trkpt>
      <trkpt lat="43.69592" lon="6.96888">
        <ele>440</ele>
        <time>2015-11-07T07:10:59Z</time>
      </trkpt>
      <trkpt lat="43.69603" lon="6.96873">
        <ele>440</ele>
        <time>2015-11-07T07:11:04Z</time>
      </trkpt>
      <trkpt lat="43.6961" lon="6.96864">
        <ele>440.4</ele>
        <time>2015-11-07T07:11:07Z</time>
      </trkpt>
      <trkpt lat="43.69611" lon="6.9686">
        <ele>440.8</ele>
        <time>2015-11-07T07:11:08Z</time>
      </trkpt>
      <trkpt lat="43.69612" lon="6.96857">
        <ele>441.2</ele>
        <time>2015-11-07T07:11:09Z</time>
      </trkpt>
      <trkpt lat="43.69613" lon="6.96853">
        <ele>441.6</ele>
        <time>2015-11-07T07:11:10Z</time>
      </trkpt>
      <trkpt lat="43.69614" lon="6.9685">
        <ele>442.2</ele>
        <time>2015-11-07T07:11:11Z</time>
      </trkpt>
      <trkpt lat="43.69614" lon="6.96847">
        <ele>442.2</ele>
        <time>2015-11-07T07:11:12Z</time>
      </trkpt>
      <trkpt lat="43.69614" lon="6.96832">
        <ele>442.6</ele>
        <time>2015-11-07T07:11:16Z</time>
      </trkpt>
      <trkpt lat="43.69615" lon="6.96828">
        <ele>443</ele>
        <time>2015-11-07T07:11:17Z</time>
      </trkpt>
      <trkpt lat="43.69615" lon="6.96823">
        <ele>443.4</ele>
        <time>2015-11-07T07:11:18Z</time>
      </trkpt>
      <trkpt lat="43.69615" lon="6.96819">
        <ele>443.8</ele>
        <time>2015-11-07T07:11:19Z</time>
      </trkpt>
      <trkpt lat="43.69615" lon="6.96815">
        <ele>444.2</ele>
        <time>2015-11-07T07:11:20Z</time>
      </trkpt>
      <trkpt lat="43.69613" lon="6.96786">
        <ele>444.2</ele>
        <time>2015-11-07T07:11:27Z</time>
      </trkpt>
      <trkpt lat="43.69612" lon="6.96778">
        <ele>444.6</ele>
        <time>2015-11-07T07:11:29Z</time>
      </trkpt>
      <trkpt lat="43.69611" lon="6.96774">
        <ele>445</ele>
        <time>2015-11-07T07:11:30Z</time>
      </trkpt>
      <trkpt lat="43.69611" lon="6.9677">
        <ele>445.4</ele>
        <time>2015-11-07T07:11:31Z</time>
      </trkpt>
      <trkpt lat="43.69611" lon="6.96766">
        <ele>446</ele>
        <time>2015-11-07T07:11:32Z</time>
      </trkpt>
      <trkpt lat="43.69611" lon="6.96762">
        <ele>446.4</ele>
        <time>2015-11-07T07:11:33Z</time>
      </trkpt>
      <trkpt lat="43.6961" lon="6.9675">
        <ele>446.8</ele>
        <time>2015-11-07T07:11:36Z</time>
      </trkpt>
      <trkpt lat="43.69611" lon="6.96746">
        <ele>447.2</ele>
        <time>2015-11-07T07:11:37Z</time>
      </trkpt>
      <trkpt lat="43.69611" lon="6.96742">
        <ele>447.6</ele>
        <time>2015-11-07T07:11:38Z</time>
      </trkpt>
      <trkpt lat="43.69612" lon="6.96738">
        <ele>448</ele>
        <time>2015-11-07T07:11:39Z</time>
      </trkpt>
      <trkpt lat="43.69613" lon="6.96734">
        <ele>448.4</ele>
        <time>2015-11-07T07:11:40Z</time>
      </trkpt>
      <trkpt lat="43.69618" lon="6.96718">
        <ele>448.4</ele>
        <time>2015-11-07T07:11:45Z</time>
      </trkpt>
      <trkpt lat="43.69621" lon="6.96711">
        <ele>448.8</ele>
        <time>2015-11-07T07:11:47Z</time>
      </trkpt>
      <trkpt lat="43.69623" lon="6.96708">
        <ele>449.2</ele>
        <time>2015-11-07T07:11:48Z</time>
      </trkpt>
      <trkpt lat="43.69625" lon="6.96705">
        <ele>449.6</ele>
        <time>2015-11-07T07:11:49Z</time>
      </trkpt>
      <trkpt lat="43.69628" lon="6.96702">
        <ele>450</ele>
        <time>2015-11-07T07:11:50Z</time>
      </trkpt>
      <trkpt lat="43.6963" lon="6.96699">
        <ele>450.4</ele>
        <time>2015-11-07T07:11:51Z</time>
      </trkpt>
      <trkpt lat="43.69634" lon="6.96694">
        <ele>450.4</ele>
        <time>2015-11-07T07:11:53Z</time>
      </trkpt>
      <trkpt lat="43.69642" lon="6.96688">
        <ele>451</ele>
        <time>2015-11-07T07:11:56Z</time>
      </trkpt>
      <trkpt lat="43.69645" lon="6.96686">
        <ele>451.4</ele>
        <time>2015-11-07T07:11:57Z</time>
      </trkpt>
      <trkpt lat="43.69647" lon="6.96685">
        <ele>451.8</ele>
        <time>2015-11-07T07:11:58Z</time>
      </trkpt>
      <trkpt lat="43.6965" lon="6.96684">
        <ele>452.2</ele>
        <time>2015-11-07T07:11:59Z</time>
      </trkpt>
      <trkpt lat="43.69653" lon="6.96682">
        <ele>452.6</ele>
        <time>2015-11-07T07:12:00Z</time>
      </trkpt>
      <trkpt lat="43.69656" lon="6.96681">
        <ele>452.6</ele>
        <time>2015-11-07T07:12:01Z</time>
      </trkpt>
      <trkpt lat="43.69664" lon="6.96679">
        <ele>453</ele>
        <time>2015-11-07T07:12:04Z</time>
      </trkpt>
      <trkpt lat="43.69667" lon="6.96679">
        <ele>453.4</ele>
        <time>2015-11-07T07:12:05Z</time>
      </trkpt>
      <trkpt lat="43.6967" lon="6.9668">
        <ele>453.8</ele>
        <time>2015-11-07T07:12:06Z</time>
      </trkpt>
      <trkpt lat="43.69673" lon="6.9668">
        <ele>454.2</ele>
        <time>2015-11-07T07:12:07Z</time>
      </trkpt>
      <trkpt lat="43.69676" lon="6.96681">
        <ele>454.8</ele>
        <time>2015-11-07T07:12:08Z</time>
      </trkpt>
      <trkpt lat="43.69688" lon="6.96686">
        <ele>455.2</ele>
        <time>2015-11-07T07:12:13Z</time>
      </trkpt>
      <trkpt lat="43.6969" lon="6.96689">
        <ele>455.8</ele>
        <time>2015-11-07T07:12:14Z</time>
      </trkpt>
      <trkpt lat="43.69693" lon="6.96692">
        <ele>456.2</ele>
        <time>2015-11-07T07:12:15Z</time>
      </trkpt>
      <trkpt lat="43.69695" lon="6.96693">
        <ele>456.8</ele>
        <time>2015-11-07T07:12:16Z</time>
      </trkpt>
      <trkpt lat="43.69697" lon="6.96694">
        <ele>457.2</ele>
        <time>2015-11-07T07:12:17Z</time>
      </trkpt>
      <trkpt lat="43.69717" lon="6.96711">
        <ele>457.8</ele>
        <time>2015-11-07T07:12:25Z</time>
      </trkpt>
      <trkpt lat="43.69719" lon="6.96713">
        <ele>458.2</ele>
        <time>2015-11-07T07:12:26Z</time>
      </trkpt>
      <trkpt lat="43.69721" lon="6.96715">
        <ele>458.8</ele>
        <time>2015-11-07T07:12:27Z</time>
      </trkpt>
      <trkpt lat="43.69724" lon="6.96717">
        <ele>459.2</ele>
        <time>2015-11-07T07:12:28Z</time>
      </trkpt>
      <trkpt lat="43.69726" lon="6.9672">
        <ele>459.8</ele>
        <time>2015-11-07T07:12:29Z</time>
      </trkpt>
      <trkpt lat="43.69741" lon="6.96732">
        <ele>460.2</ele>
        <time>2015-11-07T07:12:35Z</time>
      </trkpt>
      <trkpt lat="43.69743" lon="6.96735">
        <ele>460.2</ele>
        <time>2015-11-07T07:12:36Z</time>
      </trkpt>
      <trkpt lat="43.69746" lon="6.96737">
        <ele>461</ele>
        <time>2015-11-07T07:12:37Z</time>
      </trkpt>
      <trkpt lat="43.69748" lon="6.96739">
        <ele>461.4</ele>
        <time>2015-11-07T07:12:38Z</time>
      </trkpt>
      <trkpt lat="43.69751" lon="6.96741">
        <ele>461.8</ele>
        <time>2015-11-07T07:12:39Z</time>
      </trkpt>
      <trkpt lat="43.69771" lon="6.96752">
        <ele>462.4</ele>
        <time>2015-11-07T07:12:46Z</time>
      </trkpt>
      <trkpt lat="43.69774" lon="6.96755">
        <ele>462.8</ele>
        <time>2015-11-07T07:12:47Z</time>
      </trkpt>
      <trkpt lat="43.69776" lon="6.96757">
        <ele>463.4</ele>
        <time>2015-11-07T07:12:48Z</time>
      </trkpt>
      <trkpt lat="43.69779" lon="6.96759">
        <ele>463.8</ele>
        <time>2015-11-07T07:12:49Z</time>
      </trkpt>
      <trkpt lat="43.69782" lon="6.96761">
        <ele>464.2</ele>
        <time>2015-11-07T07:12:50Z</time>
      </trkpt>
      <trkpt lat="43.69799" lon="6.96772">
        <ele>464.6</ele>
        <time>2015-11-07T07:12:57Z</time>
      </trkpt>
      <trkpt lat="43.69802" lon="6.96773">
        <ele>465.2</ele>
        <time>2015-11-07T07:12:58Z</time>
      </trkpt>
      <trkpt lat="43.69805" lon="6.96774">
        <ele>465.6</ele>
        <time>2015-11-07T07:12:59Z</time>
      </trkpt>
      <trkpt lat="43.69807" lon="6.96775">
        <ele>466</ele>
        <time>2015-11-07T07:13:00Z</time>
      </trkpt>
      <trkpt lat="43.6981" lon="6.96775">
        <ele>466.4</ele>
        <time>2015-11-07T07:13:01Z</time>
      </trkpt>
      <trkpt lat="43.69819" lon="6.96775">
        <ele>466.4</ele>
        <time>2015-11-07T07:13:04Z</time>
      </trkpt>
      <trkpt lat="43.69825" lon="6.96774">
        <ele>466.8</ele>
        <time>2015-11-07T07:13:06Z</time>
      </trkpt>
      <trkpt lat="43.69828" lon="6.96774">
        <ele>467.2</ele>
        <time>2015-11-07T07:13:07Z</time>
      </trkpt>
      <trkpt lat="43.69831" lon="6.96773">
        <ele>467.6</ele>
        <time>2015-11-07T07:13:08Z</time>
      </trkpt>
      <trkpt lat="43.69834" lon="6.96772">
        <ele>468</ele>
        <time>2015-11-07T07:13:09Z</time>
      </trkpt>
      <trkpt lat="43.69837" lon="6.96771">
        <ele>468.4</ele>
        <time>2015-11-07T07:13:10Z</time>
      </trkpt>
      <trkpt lat="43.69843" lon="6.96769">
        <ele>468.4</ele>
        <time>2015-11-07T07:13:12Z</time>
      </trkpt>
      <trkpt lat="43.69858" lon="6.96761">
        <ele>469</ele>
        <time>2015-11-07T07:13:17Z</time>
      </trkpt>
      <trkpt lat="43.69861" lon="6.9676">
        <ele>469.4</ele>
        <time>2015-11-07T07:13:18Z</time>
      </trkpt>
      <trkpt lat="43.69864" lon="6.96759">
        <ele>469.8</ele>
        <time>2015-11-07T07:13:19Z</time>
      </trkpt>
      <trkpt lat="43.69866" lon="6.96759">
        <ele>470.4</ele>
        <time>2015-11-07T07:13:20Z</time>
      </trkpt>
      <trkpt lat="43.69869" lon="6.96759">
        <ele>470.8</ele>
        <time>2015-11-07T07:13:21Z</time>
      </trkpt>
      <trkpt lat="43.69885" lon="6.96756">
        <ele>470.8</ele>
        <time>2015-11-07T07:13:27Z</time>
      </trkpt>
      <trkpt lat="43.69891" lon="6.96755">
        <ele>471.2</ele>
        <time>2015-11-07T07:13:29Z</time>
      </trkpt>
      <trkpt lat="43.69893" lon="6.96753">
        <ele>471.6</ele>
        <time>2015-11-07T07:13:30Z</time>
      </trkpt>
      <trkpt lat="43.69895" lon="6.96753">
        <ele>472.2</ele>
        <time>2015-11-07T07:13:31Z</time>
      </trkpt>
      <trkpt lat="43.69898" lon="6.96751">
        <ele>472.6</ele>
        <time>2015-11-07T07:13:32Z</time>
      </trkpt>
      <trkpt lat="43.699" lon="6.96751">
        <ele>473</ele>
        <time>2015-11-07T07:13:33Z</time>
      </trkpt>
      <trkpt lat="43.69908" lon="6.96747">
        <ele>473.4</ele>
        <time>2015-11-07T07:13:36Z</time>
      </trkpt>
      <trkpt lat="43.6991" lon="6.96746">
        <ele>474</ele>
        <time>2015-11-07T07:13:37Z</time>
      </trkpt>
      <trkpt lat="43.69913" lon="6.96745">
        <ele>474.4</ele>
        <time>2015-11-07T07:13:38Z</time>
      </trkpt>
      <trkpt lat="43.69916" lon="6.96743">
        <ele>474.8</ele>
        <time>2015-11-07T07:13:39Z</time>
      </trkpt>
      <trkpt lat="43.69918" lon="6.96742">
        <ele>475.4</ele>
        <time>2015-11-07T07:13:40Z</time>
      </trkpt>
      <trkpt lat="43.69936" lon="6.96733">
        <ele>475.4</ele>
        <time>2015-11-07T07:13:46Z</time>
      </trkpt>
      <trkpt lat="43.69946" lon="6.9673">
        <ele>475.8</ele>
        <time>2015-11-07T07:13:49Z</time>
      </trkpt>
      <trkpt lat="43.69949" lon="6.96729">
        <ele>476.2</ele>
        <time>2015-11-07T07:13:50Z</time>
      </trkpt>
      <trkpt lat="43.69952" lon="6.96729">
        <ele>476.6</ele>
        <time>2015-11-07T07:13:51Z</time>
      </trkpt>
      <trkpt lat="43.69954" lon="6.96729">
        <ele>477</ele>
        <time>2015-11-07T07:13:52Z</time>
      </trkpt>
      <trkpt lat="43.69958" lon="6.96728">
        <ele>477.4</ele>
        <time>2015-11-07T07:13:53Z</time>
      </trkpt>
      <trkpt lat="43.69961" lon="6.96728">
        <ele>477.4</ele>
        <time>2015-11-07T07:13:54Z</time>
      </trkpt>
      <trkpt lat="43.69978" lon="6.96726">
        <ele>478</ele>
        <time>2015-11-07T07:14:00Z</time>
      </trkpt>
      <trkpt lat="43.69981" lon="6.96726">
        <ele>478.4</ele>
        <time>2015-11-07T07:14:01Z</time>
      </trkpt>
      <trkpt lat="43.69984" lon="6.96725">
        <ele>478.8</ele>
        <time>2015-11-07T07:14:02Z</time>
      </trkpt>
      <trkpt lat="43.69988" lon="6.96724">
        <ele>479.2</ele>
        <time>2015-11-07T07:14:03Z</time>
      </trkpt>
      <trkpt lat="43.69991" lon="6.96723">
        <ele>479.6</ele>
        <time>2015-11-07T07:14:04Z</time>
      </trkpt>
      <trkpt lat="43.70006" lon="6.96715">
        <ele>479.6</ele>
        <time>2015-11-07T07:14:09Z</time>
      </trkpt>
      <trkpt lat="43.70012" lon="6.96711">
        <ele>480</ele>
        <time>2015-11-07T07:14:11Z</time>
      </trkpt>
      <trkpt lat="43.70014" lon="6.96709">
        <ele>480.6</ele>
        <time>2015-11-07T07:14:12Z</time>
      </trkpt>
      <trkpt lat="43.70017" lon="6.96707">
        <ele>481</ele>
        <time>2015-11-07T07:14:13Z</time>
      </trkpt>
      <trkpt lat="43.7002" lon="6.96705">
        <ele>481.4</ele>
        <time>2015-11-07T07:14:14Z</time>
      </trkpt>
      <trkpt lat="43.70022" lon="6.96703">
        <ele>481.8</ele>
        <time>2015-11-07T07:14:15Z</time>
      </trkpt>
      <trkpt lat="43.70025" lon="6.96701">
        <ele>481.8</ele>
        <time>2015-11-07T07:14:16Z</time>
      </trkpt>
      <trkpt lat="43.70043" lon="6.96683">
        <ele>482.2</ele>
        <time>2015-11-07T07:14:23Z</time>
      </trkpt>
      <trkpt lat="43.70045" lon="6.96681">
        <ele>482.6</ele>
        <time>2015-11-07T07:14:24Z</time>
      </trkpt>
      <trkpt lat="43.70048" lon="6.96678">
        <ele>483</ele>
        <time>2015-11-07T07:14:25Z</time>
      </trkpt>
      <trkpt lat="43.7005" lon="6.96675">
        <ele>483.4</ele>
        <time>2015-11-07T07:14:26Z</time>
      </trkpt>
      <trkpt lat="43.70053" lon="6.96672">
        <ele>483.8</ele>
        <time>2015-11-07T07:14:27Z</time>
      </trkpt>
      <trkpt lat="43.7007" lon="6.96652">
        <ele>483.8</ele>
        <time>2015-11-07T07:14:34Z</time>
      </trkpt>
      <trkpt lat="43.70075" lon="6.96642">
        <ele>484.2</ele>
        <time>2015-11-07T07:14:37Z</time>
      </trkpt>
      <trkpt lat="43.70076" lon="6.96638">
        <ele>484.8</ele>
        <time>2015-11-07T07:14:38Z</time>
      </trkpt>
      <trkpt lat="43.70078" lon="6.96634">
        <ele>485.2</ele>
        <time>2015-11-07T07:14:39Z</time>
      </trkpt>
      <trkpt lat="43.70079" lon="6.96631">
        <ele>485.6</ele>
        <time>2015-11-07T07:14:40Z</time>
      </trkpt>
      <trkpt lat="43.70081" lon="6.96627">
        <ele>486</ele>
        <time>2015-11-07T07:14:41Z</time>
      </trkpt>
      <trkpt lat="43.70089" lon="6.96599">
        <ele>486</ele>
        <time>2015-11-07T07:14:48Z</time>
      </trkpt>
      <trkpt lat="43.70095" lon="6.96572">
        <ele>486</ele>
        <time>2015-11-07T07:14:54Z</time>
      </trkpt>
      <trkpt lat="43.70102" lon="6.96542">
        <ele>486.4</ele>
        <time>2015-11-07T07:15:00Z</time>
      </trkpt>
      <trkpt lat="43.70103" lon="6.96536">
        <ele>486.8</ele>
        <time>2015-11-07T07:15:01Z</time>
      </trkpt>
      <trkpt lat="43.70104" lon="6.96531">
        <ele>487.2</ele>
        <time>2015-11-07T07:15:02Z</time>
      </trkpt>
      <trkpt lat="43.70105" lon="6.96527">
        <ele>487.6</ele>
        <time>2015-11-07T07:15:03Z</time>
      </trkpt>
      <trkpt lat="43.70106" lon="6.96522">
        <ele>488</ele>
        <time>2015-11-07T07:15:04Z</time>
      </trkpt>
      <trkpt lat="43.70107" lon="6.96517">
        <ele>488</ele>
        <time>2015-11-07T07:15:05Z</time>
      </trkpt>
      <trkpt lat="43.70113" lon="6.96483">
        <ele>488</ele>
        <time>2015-11-07T07:15:12Z</time>
      </trkpt>
      <trkpt lat="43.70114" lon="6.96478">
        <ele>488.6</ele>
        <time>2015-11-07T07:15:13Z</time>
      </trkpt>
      <trkpt lat="43.70114" lon="6.96472">
        <ele>489</ele>
        <time>2015-11-07T07:15:14Z</time>
      </trkpt>
      <trkpt lat="43.70115" lon="6.96467">
        <ele>489.4</ele>
        <time>2015-11-07T07:15:15Z</time>
      </trkpt>
      <trkpt lat="43.70115" lon="6.96462">
        <ele>489.8</ele>
        <time>2015-11-07T07:15:16Z</time>
      </trkpt>
      <trkpt lat="43.70116" lon="6.96457">
        <ele>490.2</ele>
        <time>2015-11-07T07:15:17Z</time>
      </trkpt>
      <trkpt lat="43.70115" lon="6.96436">
        <ele>490.2</ele>
        <time>2015-11-07T07:15:21Z</time>
      </trkpt>
      <trkpt lat="43.70114" lon="6.96384">
        <ele>490.2</ele>
        <time>2015-11-07T07:15:31Z</time>
      </trkpt>
      <trkpt lat="43.7011" lon="6.96362">
        <ele>490.6</ele>
        <time>2015-11-07T07:15:35Z</time>
      </trkpt>
      <trkpt lat="43.70109" lon="6.96356">
        <ele>491</ele>
        <time>2015-11-07T07:15:36Z</time>
      </trkpt>
      <trkpt lat="43.70108" lon="6.96351">
        <ele>491.4</ele>
        <time>2015-11-07T07:15:37Z</time>
      </trkpt>
      <trkpt lat="43.70108" lon="6.96345">
        <ele>491.8</ele>
        <time>2015-11-07T07:15:38Z</time>
      </trkpt>
      <trkpt lat="43.70107" lon="6.9634">
        <ele>492.4</ele>
        <time>2015-11-07T07:15:39Z</time>
      </trkpt>
      <trkpt lat="43.70106" lon="6.96335">
        <ele>492.4</ele>
        <time>2015-11-07T07:15:40Z</time>
      </trkpt>
      <trkpt lat="43.70099" lon="6.96304">
        <ele>492.4</ele>
        <time>2015-11-07T07:15:46Z</time>
      </trkpt>
      <trkpt lat="43.70085" lon="6.96274">
        <ele>492.8</ele>
        <time>2015-11-07T07:15:53Z</time>
      </trkpt>
      <trkpt lat="43.70082" lon="6.9627">
        <ele>493.2</ele>
        <time>2015-11-07T07:15:54Z</time>
      </trkpt>
      <trkpt lat="43.70079" lon="6.96265">
        <ele>493.6</ele>
        <time>2015-11-07T07:15:55Z</time>
      </trkpt>
      <trkpt lat="43.70076" lon="6.96261">
        <ele>494</ele>
        <time>2015-11-07T07:15:56Z</time>
      </trkpt>
      <trkpt lat="43.70073" lon="6.96257">
        <ele>494.4</ele>
        <time>2015-11-07T07:15:57Z</time>
      </trkpt>
      <trkpt lat="43.70059" lon="6.96237">
        <ele>494.4</ele>
        <time>2015-11-07T07:16:02Z</time>
      </trkpt>
      <trkpt lat="43.70033" lon="6.962">
        <ele>494.4</ele>
        <time>2015-11-07T07:16:11Z</time>
      </trkpt>
      <trkpt lat="43.70028" lon="6.96193">
        <ele>494.8</ele>
        <time>2015-11-07T07:16:13Z</time>
      </trkpt>
      <trkpt lat="43.70025" lon="6.96189">
        <ele>495.2</ele>
        <time>2015-11-07T07:16:14Z</time>
      </trkpt>
      <trkpt lat="43.70022" lon="6.96185">
        <ele>495.6</ele>
        <time>2015-11-07T07:16:15Z</time>
      </trkpt>
      <trkpt lat="43.70019" lon="6.96181">
        <ele>496</ele>
        <time>2015-11-07T07:16:16Z</time>
      </trkpt>
      <trkpt lat="43.70017" lon="6.96176">
        <ele>496.4</ele>
        <time>2015-11-07T07:16:17Z</time>
      </trkpt>
      <trkpt lat="43.7001" lon="6.96162">
        <ele>496.4</ele>
        <time>2015-11-07T07:16:20Z</time>
      </trkpt>
      <trkpt lat="43.70009" lon="6.96157">
        <ele>496.4</ele>
        <time>2015-11-07T07:16:21Z</time>
      </trkpt>
      <trkpt lat="43.7001" lon="6.96138">
        <ele>496.4</ele>
        <time>2015-11-07T07:16:24Z</time>
      </trkpt>
      <trkpt lat="43.70022" lon="6.96122">
        <ele>496.4</ele>
        <time>2015-11-07T07:16:28Z</time>
      </trkpt>
      <trkpt lat="43.70026" lon="6.96119">
        <ele>496.8</ele>
        <time>2015-11-07T07:16:29Z</time>
      </trkpt>
      <trkpt lat="43.7003" lon="6.96117">
        <ele>497.2</ele>
        <time>2015-11-07T07:16:30Z</time>
      </trkpt>
      <trkpt lat="43.70035" lon="6.96116">
        <ele>497.6</ele>
        <time>2015-11-07T07:16:31Z</time>
      </trkpt>
      <trkpt lat="43.70038" lon="6.96117">
        <ele>498</ele>
        <time>2015-11-07T07:16:32Z</time>
      </trkpt>
      <trkpt lat="43.70042" lon="6.96118">
        <ele>498.4</ele>
        <time>2015-11-07T07:16:33Z</time>
      </trkpt>
      <trkpt lat="43.70049" lon="6.96122">
        <ele>498.4</ele>
        <time>2015-11-07T07:16:35Z</time>
      </trkpt>
      <trkpt lat="43.70053" lon="6.96124">
        <ele>498.8</ele>
        <time>2015-11-07T07:16:36Z</time>
      </trkpt>
      <trkpt lat="43.70057" lon="6.96127">
        <ele>499.2</ele>
        <time>2015-11-07T07:16:37Z</time>
      </trkpt>
      <trkpt lat="43.70064" lon="6.96133">
        <ele>499.8</ele>
        <time>2015-11-07T07:16:39Z</time>
      </trkpt>
      <trkpt lat="43.70068" lon="6.96136">
        <ele>500.6</ele>
        <time>2015-11-07T07:16:40Z</time>
      </trkpt>
      <trkpt lat="43.70072" lon="6.96139">
        <ele>500.6</ele>
        <time>2015-11-07T07:16:41Z</time>
      </trkpt>
      <trkpt lat="43.70083" lon="6.96149">
        <ele>500.6</ele>
        <time>2015-11-07T07:16:44Z</time>
      </trkpt>
      <trkpt lat="43.70105" lon="6.96166">
        <ele>500.6</ele>
        <time>2015-11-07T07:16:50Z</time>
      </trkpt>
      <trkpt lat="43.70109" lon="6.96169">
        <ele>500.6</ele>
        <time>2015-11-07T07:16:51Z</time>
      </trkpt>
      <trkpt lat="43.70142" lon="6.96189">
        <ele>501</ele>
        <time>2015-11-07T07:16:59Z</time>
      </trkpt>
      <trkpt lat="43.70146" lon="6.96191">
        <ele>501.4</ele>
        <time>2015-11-07T07:17:00Z</time>
      </trkpt>
      <trkpt lat="43.7015" lon="6.96195">
        <ele>501.8</ele>
        <time>2015-11-07T07:17:01Z</time>
      </trkpt>
      <trkpt lat="43.70154" lon="6.96197">
        <ele>502.4</ele>
        <time>2015-11-07T07:17:02Z</time>
      </trkpt>
      <trkpt lat="43.70158" lon="6.96201">
        <ele>502.8</ele>
        <time>2015-11-07T07:17:03Z</time>
      </trkpt>
      <trkpt lat="43.70184" lon="6.9622">
        <ele>502.8</ele>
        <time>2015-11-07T07:17:10Z</time>
      </trkpt>
      <trkpt lat="43.70201" lon="6.96235">
        <ele>502.8</ele>
        <time>2015-11-07T07:17:15Z</time>
      </trkpt>
      <trkpt lat="43.70206" lon="6.96243">
        <ele>502.8</ele>
        <time>2015-11-07T07:17:17Z</time>
      </trkpt>
      <trkpt lat="43.70214" lon="6.96259">
        <ele>503.2</ele>
        <time>2015-11-07T07:17:20Z</time>
      </trkpt>
      <trkpt lat="43.70217" lon="6.96264">
        <ele>503.6</ele>
        <time>2015-11-07T07:17:21Z</time>
      </trkpt>
      <trkpt lat="43.70219" lon="6.96268">
        <ele>504</ele>
        <time>2015-11-07T07:17:22Z</time>
      </trkpt>
      <trkpt lat="43.70221" lon="6.96273">
        <ele>504.4</ele>
        <time>2015-11-07T07:17:23Z</time>
      </trkpt>
      <trkpt lat="43.70224" lon="6.96277">
        <ele>504.8</ele>
        <time>2015-11-07T07:17:24Z</time>
      </trkpt>
      <trkpt lat="43.70241" lon="6.96321">
        <ele>504.8</ele>
        <time>2015-11-07T07:17:33Z</time>
      </trkpt>
      <trkpt lat="43.70249" lon="6.9634">
        <ele>505.6</ele>
        <time>2015-11-07T07:17:37Z</time>
      </trkpt>
      <trkpt lat="43.70251" lon="6.96345">
        <ele>506</ele>
        <time>2015-11-07T07:17:38Z</time>
      </trkpt>
      <trkpt lat="43.70254" lon="6.96349">
        <ele>506.4</ele>
        <time>2015-11-07T07:17:39Z</time>
      </trkpt>
      <trkpt lat="43.70256" lon="6.96354">
        <ele>506.8</ele>
        <time>2015-11-07T07:17:40Z</time>
      </trkpt>
      <trkpt lat="43.70274" lon="6.96392">
        <ele>506.8</ele>
        <time>2015-11-07T07:17:48Z</time>
      </trkpt>
      <trkpt lat="43.70283" lon="6.96419">
        <ele>507.4</ele>
        <time>2015-11-07T07:17:53Z</time>
      </trkpt>
      <trkpt lat="43.70284" lon="6.96425">
        <ele>507.8</ele>
        <time>2015-11-07T07:17:54Z</time>
      </trkpt>
      <trkpt lat="43.70285" lon="6.96432">
        <ele>508.2</ele>
        <time>2015-11-07T07:17:55Z</time>
      </trkpt>
      <trkpt lat="43.70286" lon="6.96438">
        <ele>508.6</ele>
        <time>2015-11-07T07:17:56Z</time>
      </trkpt>
      <trkpt lat="43.70288" lon="6.96444">
        <ele>509.2</ele>
        <time>2015-11-07T07:17:57Z</time>
      </trkpt>
      <trkpt lat="43.70293" lon="6.96468">
        <ele>509.2</ele>
        <time>2015-11-07T07:18:01Z</time>
      </trkpt>
      <trkpt lat="43.70301" lon="6.96507">
        <ele>509.2</ele>
        <time>2015-11-07T07:18:08Z</time>
      </trkpt>
      <trkpt lat="43.70304" lon="6.96524">
        <ele>509.6</ele>
        <time>2015-11-07T07:18:11Z</time>
      </trkpt>
      <trkpt lat="43.70305" lon="6.96529">
        <ele>510</ele>
        <time>2015-11-07T07:18:12Z</time>
      </trkpt>
      <trkpt lat="43.70306" lon="6.96535">
        <ele>510.4</ele>
        <time>2015-11-07T07:18:13Z</time>
      </trkpt>
      <trkpt lat="43.70307" lon="6.9654">
        <ele>510.8</ele>
        <time>2015-11-07T07:18:14Z</time>
      </trkpt>
      <trkpt lat="43.70308" lon="6.96546">
        <ele>511.2</ele>
        <time>2015-11-07T07:18:15Z</time>
      </trkpt>
      <trkpt lat="43.7031" lon="6.96552">
        <ele>511.2</ele>
        <time>2015-11-07T07:18:16Z</time>
      </trkpt>
      <trkpt lat="43.7032" lon="6.96598">
        <ele>511.2</ele>
        <time>2015-11-07T07:18:24Z</time>
      </trkpt>
      <trkpt lat="43.70323" lon="6.96615">
        <ele>511.6</ele>
        <time>2015-11-07T07:18:27Z</time>
      </trkpt>
      <trkpt lat="43.70323" lon="6.9662">
        <ele>512</ele>
        <time>2015-11-07T07:18:28Z</time>
      </trkpt>
      <trkpt lat="43.70324" lon="6.96625">
        <ele>512.4</ele>
        <time>2015-11-07T07:18:29Z</time>
      </trkpt>
      <trkpt lat="43.70325" lon="6.9663">
        <ele>512.8</ele>
        <time>2015-11-07T07:18:30Z</time>
      </trkpt>
      <trkpt lat="43.70326" lon="6.96636">
        <ele>513.4</ele>
        <time>2015-11-07T07:18:31Z</time>
      </trkpt>
      <trkpt lat="43.70336" lon="6.96684">
        <ele>513.4</ele>
        <time>2015-11-07T07:18:40Z</time>
      </trkpt>
      <trkpt lat="43.70341" lon="6.96715">
        <ele>513.8</ele>
        <time>2015-11-07T07:18:46Z</time>
      </trkpt>
      <trkpt lat="43.70342" lon="6.96721">
        <ele>514.2</ele>
        <time>2015-11-07T07:18:47Z</time>
      </trkpt>
      <trkpt lat="43.70343" lon="6.96727">
        <ele>514.6</ele>
        <time>2015-11-07T07:18:48Z</time>
      </trkpt>
      <trkpt lat="43.70343" lon="6.96732">
        <ele>514.6</ele>
        <time>2015-11-07T07:18:49Z</time>
      </trkpt>
      <trkpt lat="43.70344" lon="6.96738">
        <ele>515</ele>
        <time>2015-11-07T07:18:50Z</time>
      </trkpt>
      <trkpt lat="43.70345" lon="6.96743">
        <ele>515.4</ele>
        <time>2015-11-07T07:18:51Z</time>
      </trkpt>
      <trkpt lat="43.70351" lon="6.96783">
        <ele>515.4</ele>
        <time>2015-11-07T07:18:58Z</time>
      </trkpt>
      <trkpt lat="43.70353" lon="6.96817">
        <ele>515.8</ele>
        <time>2015-11-07T07:19:04Z</time>
      </trkpt>
      <trkpt lat="43.70353" lon="6.96823">
        <ele>516.2</ele>
        <time>2015-11-07T07:19:05Z</time>
      </trkpt>
      <trkpt lat="43.70354" lon="6.96829">
        <ele>516.8</ele>
        <time>2015-11-07T07:19:06Z</time>
      </trkpt>
      <trkpt lat="43.70355" lon="6.96835">
        <ele>517.2</ele>
        <time>2015-11-07T07:19:07Z</time>
      </trkpt>
      <trkpt lat="43.70356" lon="6.9684">
        <ele>517.6</ele>
        <time>2015-11-07T07:19:08Z</time>
      </trkpt>
      <trkpt lat="43.70362" lon="6.96874">
        <ele>517.6</ele>
        <time>2015-11-07T07:19:14Z</time>
      </trkpt>
      <trkpt lat="43.70366" lon="6.96911">
        <ele>518</ele>
        <time>2015-11-07T07:19:21Z</time>
      </trkpt>
      <trkpt lat="43.70367" lon="6.96916">
        <ele>518.4</ele>
        <time>2015-11-07T07:19:22Z</time>
      </trkpt>
      <trkpt lat="43.70367" lon="6.96921">
        <ele>518.8</ele>
        <time>2015-11-07T07:19:23Z</time>
      </trkpt>
      <trkpt lat="43.70368" lon="6.96926">
        <ele>519.2</ele>
        <time>2015-11-07T07:19:24Z</time>
      </trkpt>
      <trkpt lat="43.70369" lon="6.96932">
        <ele>519.6</ele>
        <time>2015-11-07T07:19:25Z</time>
      </trkpt>
      <trkpt lat="43.70372" lon="6.96965">
        <ele>519.6</ele>
        <time>2015-11-07T07:19:31Z</time>
      </trkpt>
      <trkpt lat="43.70374" lon="6.96989">
        <ele>520</ele>
        <time>2015-11-07T07:19:35Z</time>
      </trkpt>
      <trkpt lat="43.70375" lon="6.96995">
        <ele>520.4</ele>
        <time>2015-11-07T07:19:36Z</time>
      </trkpt>
      <trkpt lat="43.70376" lon="6.97">
        <ele>520.8</ele>
        <time>2015-11-07T07:19:37Z</time>
      </trkpt>
      <trkpt lat="43.70377" lon="6.97006">
        <ele>521.2</ele>
        <time>2015-11-07T07:19:38Z</time>
      </trkpt>
      <trkpt lat="43.70378" lon="6.97012">
        <ele>521.6</ele>
        <time>2015-11-07T07:19:39Z</time>
      </trkpt>
      <trkpt lat="43.70385" lon="6.97034">
        <ele>521.6</ele>
        <time>2015-11-07T07:19:43Z</time>
      </trkpt>
      <trkpt lat="43.7039" lon="6.97043">
        <ele>521.6</ele>
        <time>2015-11-07T07:19:45Z</time>
      </trkpt>
      <trkpt lat="43.70417" lon="6.97074">
        <ele>521.6</ele>
        <time>2015-11-07T07:19:53Z</time>
      </trkpt>
      <trkpt lat="43.70441" lon="6.97098">
        <ele>522.2</ele>
        <time>2015-11-07T07:20:00Z</time>
      </trkpt>
      <trkpt lat="43.70444" lon="6.97102">
        <ele>522.6</ele>
        <time>2015-11-07T07:20:01Z</time>
      </trkpt>
      <trkpt lat="43.70448" lon="6.97105">
        <ele>523</ele>
        <time>2015-11-07T07:20:02Z</time>
      </trkpt>
      <trkpt lat="43.70451" lon="6.97109">
        <ele>523.4</ele>
        <time>2015-11-07T07:20:03Z</time>
      </trkpt>
      <trkpt lat="43.70454" lon="6.97112">
        <ele>524</ele>
        <time>2015-11-07T07:20:04Z</time>
      </trkpt>
      <trkpt lat="43.70468" lon="6.97125">
        <ele>524</ele>
        <time>2015-11-07T07:20:08Z</time>
      </trkpt>
      <trkpt lat="43.70475" lon="6.97131">
        <ele>524</ele>
        <time>2015-11-07T07:20:10Z</time>
      </trkpt>
      <trkpt lat="43.70486" lon="6.9714">
        <ele>524.4</ele>
        <time>2015-11-07T07:20:13Z</time>
      </trkpt>
      <trkpt lat="43.7049" lon="6.97143">
        <ele>524.8</ele>
        <time>2015-11-07T07:20:14Z</time>
      </trkpt>
      <trkpt lat="43.70493" lon="6.97145">
        <ele>525.2</ele>
        <time>2015-11-07T07:20:15Z</time>
      </trkpt>
      <trkpt lat="43.70497" lon="6.97147">
        <ele>525.6</ele>
        <time>2015-11-07T07:20:16Z</time>
      </trkpt>
      <trkpt lat="43.70501" lon="6.97149">
        <ele>526.2</ele>
        <time>2015-11-07T07:20:17Z</time>
      </trkpt>
      <trkpt lat="43.70505" lon="6.97152">
        <ele>526.2</ele>
        <time>2015-11-07T07:20:18Z</time>
      </trkpt>
      <trkpt lat="43.70532" lon="6.97165">
        <ele>526.2</ele>
        <time>2015-11-07T07:20:25Z</time>
      </trkpt>
      <trkpt lat="43.70555" lon="6.97171">
        <ele>526.2</ele>
        <time>2015-11-07T07:20:31Z</time>
      </trkpt>
      <trkpt lat="43.70565" lon="6.97171">
        <ele>526.6</ele>
        <time>2015-11-07T07:20:34Z</time>
      </trkpt>
      <trkpt lat="43.7057" lon="6.9717">
        <ele>527</ele>
        <time>2015-11-07T07:20:35Z</time>
      </trkpt>
      <trkpt lat="43.70574" lon="6.9717">
        <ele>527.4</ele>
        <time>2015-11-07T07:20:36Z</time>
      </trkpt>
      <trkpt lat="43.70577" lon="6.9717">
        <ele>527.8</ele>
        <time>2015-11-07T07:20:37Z</time>
      </trkpt>
      <trkpt lat="43.70582" lon="6.97169">
        <ele>528.2</ele>
        <time>2015-11-07T07:20:38Z</time>
      </trkpt>
      <trkpt lat="43.70597" lon="6.97167">
        <ele>528.2</ele>
        <time>2015-11-07T07:20:42Z</time>
      </trkpt>
      <trkpt lat="43.7062" lon="6.9717">
        <ele>528.2</ele>
        <time>2015-11-07T07:20:48Z</time>
      </trkpt>
      <trkpt lat="43.70627" lon="6.97172">
        <ele>528.6</ele>
        <time>2015-11-07T07:20:50Z</time>
      </trkpt>
      <trkpt lat="43.70631" lon="6.97173">
        <ele>529.2</ele>
        <time>2015-11-07T07:20:51Z</time>
      </trkpt>
      <trkpt lat="43.70635" lon="6.97175">
        <ele>529.6</ele>
        <time>2015-11-07T07:20:52Z</time>
      </trkpt>
      <trkpt lat="43.70639" lon="6.97176">
        <ele>530.2</ele>
        <time>2015-11-07T07:20:53Z</time>
      </trkpt>
      <trkpt lat="43.70643" lon="6.97178">
        <ele>530.6</ele>
        <time>2015-11-07T07:20:54Z</time>
      </trkpt>
      <trkpt lat="43.70651" lon="6.97181">
        <ele>530.6</ele>
        <time>2015-11-07T07:20:56Z</time>
      </trkpt>
      <trkpt lat="43.70681" lon="6.97191">
        <ele>530.6</ele>
        <time>2015-11-07T07:21:02Z</time>
      </trkpt>
      <trkpt lat="43.70714" lon="6.9721">
        <ele>530.6</ele>
        <time>2015-11-07T07:21:10Z</time>
      </trkpt>
      <trkpt lat="43.70717" lon="6.97213">
        <ele>531</ele>
        <time>2015-11-07T07:21:11Z</time>
      </trkpt>
      <trkpt lat="43.7072" lon="6.97216">
        <ele>531.4</ele>
        <time>2015-11-07T07:21:12Z</time>
      </trkpt>
      <trkpt lat="43.70723" lon="6.97219">
        <ele>531.8</ele>
        <time>2015-11-07T07:21:13Z</time>
      </trkpt>
      <trkpt lat="43.70726" lon="6.97224">
        <ele>532.4</ele>
        <time>2015-11-07T07:21:14Z</time>
      </trkpt>
      <trkpt lat="43.70729" lon="6.97228">
        <ele>532.8</ele>
        <time>2015-11-07T07:21:15Z</time>
      </trkpt>
      <trkpt lat="43.70744" lon="6.97257">
        <ele>532.8</ele>
        <time>2015-11-07T07:21:21Z</time>
      </trkpt>
      <trkpt lat="43.70757" lon="6.97292">
        <ele>532.8</ele>
        <time>2015-11-07T07:21:28Z</time>
      </trkpt>
      <trkpt lat="43.7076" lon="6.97303">
        <ele>533.2</ele>
        <time>2015-11-07T07:21:30Z</time>
      </trkpt>
      <trkpt lat="43.70761" lon="6.97308">
        <ele>533.6</ele>
        <time>2015-11-07T07:21:31Z</time>
      </trkpt>
      <trkpt lat="43.70763" lon="6.97315">
        <ele>534</ele>
        <time>2015-11-07T07:21:32Z</time>
      </trkpt>
      <trkpt lat="43.70765" lon="6.97321">
        <ele>534.6</ele>
        <time>2015-11-07T07:21:33Z</time>
      </trkpt>
      <trkpt lat="43.70766" lon="6.97326">
        <ele>535</ele>
        <time>2015-11-07T07:21:34Z</time>
      </trkpt>
      <trkpt lat="43.70768" lon="6.97332">
        <ele>535</ele>
        <time>2015-11-07T07:21:35Z</time>
      </trkpt>
      <trkpt lat="43.70776" lon="6.97353">
        <ele>535.4</ele>
        <time>2015-11-07T07:21:40Z</time>
      </trkpt>
      <trkpt lat="43.70777" lon="6.97357">
        <ele>535.8</ele>
        <time>2015-11-07T07:21:41Z</time>
      </trkpt>
      <trkpt lat="43.70778" lon="6.97361">
        <ele>536.2</ele>
        <time>2015-11-07T07:21:42Z</time>
      </trkpt>
      <trkpt lat="43.70779" lon="6.97364">
        <ele>536.6</ele>
        <time>2015-11-07T07:21:43Z</time>
      </trkpt>
      <trkpt lat="43.7078" lon="6.97367">
        <ele>537.2</ele>
        <time>2015-11-07T07:21:44Z</time>
      </trkpt>
      <trkpt lat="43.7078" lon="6.97373">
        <ele>537.6</ele>
        <time>2015-11-07T07:21:46Z</time>
      </trkpt>
      <trkpt lat="43.70781" lon="6.97376">
        <ele>538</ele>
        <time>2015-11-07T07:21:47Z</time>
      </trkpt>
      <trkpt lat="43.70782" lon="6.97377">
        <ele>538.4</ele>
        <time>2015-11-07T07:21:48Z</time>
      </trkpt>
      <trkpt lat="43.70782" lon="6.97378">
        <ele>538.8</ele>
        <time>2015-11-07T07:21:49Z</time>
      </trkpt>
      <trkpt lat="43.70782" lon="6.97378">
        <ele>539.2</ele>
        <time>2015-11-07T07:21:50Z</time>
      </trkpt>
      <trkpt lat="43.70783" lon="6.97377">
        <ele>539.2</ele>
        <time>2015-11-07T07:21:51Z</time>
      </trkpt>
      <trkpt lat="43.70783" lon="6.97383">
        <ele>539.2</ele>
        <time>2015-11-07T07:29:54Z</time>
      </trkpt>
      <trkpt lat="43.70781" lon="6.97385">
        <ele>539.2</ele>
        <time>2015-11-07T07:31:27Z</time>
      </trkpt>
      <trkpt lat="43.70786" lon="6.97372">
        <ele>539.2</ele>
        <time>2015-11-07T07:31:39Z</time>
      </trkpt>
      <trkpt lat="43.70789" lon="6.97358">
        <ele>539.2</ele>
        <time>2015-11-07T07:31:44Z</time>
      </trkpt>
      <trkpt lat="43.70795" lon="6.97348">
        <ele>539.2</ele>
        <time>2015-11-07T07:31:50Z</time>
      </trkpt>
      <trkpt lat="43.70798" lon="6.9734">
        <ele>539.6</ele>
        <time>2015-11-07T07:31:54Z</time>
      </trkpt>
      <trkpt lat="43.70799" lon="6.97338">
        <ele>540.2</ele>
        <time>2015-11-07T07:31:55Z</time>
      </trkpt>
      <trkpt lat="43.70799" lon="6.97335">
        <ele>540.6</ele>
        <time>2015-11-07T07:31:56Z</time>
      </trkpt>
      <trkpt lat="43.70799" lon="6.97333">
        <ele>541</ele>
        <time>2015-11-07T07:31:57Z</time>
      </trkpt>
      <trkpt lat="43.708" lon="6.97331">
        <ele>541.4</ele>
        <time>2015-11-07T07:31:58Z</time>
      </trkpt>
      <trkpt lat="43.70806" lon="6.97313">
        <ele>541.8</ele>
        <time>2015-11-07T07:32:07Z</time>
      </trkpt>
      <trkpt lat="43.70806" lon="6.97311">
        <ele>542.2</ele>
        <time>2015-11-07T07:32:08Z</time>
      </trkpt>
      <trkpt lat="43.70806" lon="6.97309">
        <ele>542.6</ele>
        <time>2015-11-07T07:32:09Z</time>
      </trkpt>
      <trkpt lat="43.70807" lon="6.97307">
        <ele>543</ele>
        <time>2015-11-07T07:32:10Z</time>
      </trkpt>
      <trkpt lat="43.70807" lon="6.97304">
        <ele>543.4</ele>
        <time>2015-11-07T07:32:11Z</time>
      </trkpt>
      <trkpt lat="43.70812" lon="6.97293">
        <ele>543.8</ele>
        <time>2015-11-07T07:32:17Z</time>
      </trkpt>
      <trkpt lat="43.70813" lon="6.97292">
        <ele>544.2</ele>
        <time>2015-11-07T07:32:18Z</time>
      </trkpt>
      <trkpt lat="43.70814" lon="6.9729">
        <ele>544.8</ele>
        <time>2015-11-07T07:32:19Z</time>
      </trkpt>
      <trkpt lat="43.70814" lon="6.97289">
        <ele>545.2</ele>
        <time>2015-11-07T07:32:20Z</time>
      </trkpt>
      <trkpt lat="43.70815" lon="6.97287">
        <ele>545.6</ele>
        <time>2015-11-07T07:32:21Z</time>
      </trkpt>
      <trkpt lat="43.7082" lon="6.97275">
        <ele>545.6</ele>
        <time>2015-11-07T07:32:28Z</time>
      </trkpt>
      <trkpt lat="43.70821" lon="6.97271">
        <ele>546</ele>
        <time>2015-11-07T07:32:31Z</time>
      </trkpt>
      <trkpt lat="43.70822" lon="6.9727">
        <ele>546.4</ele>
        <time>2015-11-07T07:32:32Z</time>
      </trkpt>
      <trkpt lat="43.70823" lon="6.97269">
        <ele>546.8</ele>
        <time>2015-11-07T07:32:33Z</time>
      </trkpt>
      <trkpt lat="43.70824" lon="6.97267">
        <ele>547.2</ele>
        <time>2015-11-07T07:32:34Z</time>
      </trkpt>
      <trkpt lat="43.70825" lon="6.97265">
        <ele>547.8</ele>
        <time>2015-11-07T07:32:35Z</time>
      </trkpt>
      <trkpt lat="43.70828" lon="6.97259">
        <ele>547.8</ele>
        <time>2015-11-07T07:32:39Z</time>
      </trkpt>
      <trkpt lat="43.7083" lon="6.97255">
        <ele>548.2</ele>
        <time>2015-11-07T07:32:42Z</time>
      </trkpt>
      <trkpt lat="43.70832" lon="6.97253">
        <ele>548.6</ele>
        <time>2015-11-07T07:32:43Z</time>
      </trkpt>
      <trkpt lat="43.70832" lon="6.97251">
        <ele>549</ele>
        <time>2015-11-07T07:32:44Z</time>
      </trkpt>
      <trkpt lat="43.70833" lon="6.97249">
        <ele>549.4</ele>
        <time>2015-11-07T07:32:45Z</time>
      </trkpt>
      <trkpt lat="43.70835" lon="6.97248">
        <ele>549.8</ele>
        <time>2015-11-07T07:32:46Z</time>
      </trkpt>
      <trkpt lat="43.70836" lon="6.97247">
        <ele>549.8</ele>
        <time>2015-11-07T07:32:47Z</time>
      </trkpt>
      <trkpt lat="43.70843" lon="6.97237">
        <ele>550.2</ele>
        <time>2015-11-07T07:32:54Z</time>
      </trkpt>
      <trkpt lat="43.70844" lon="6.97236">
        <ele>550.6</ele>
        <time>2015-11-07T07:32:55Z</time>
      </trkpt>
      <trkpt lat="43.70846" lon="6.97235">
        <ele>551.2</ele>
        <time>2015-11-07T07:32:56Z</time>
      </trkpt>
      <trkpt lat="43.70847" lon="6.97234">
        <ele>551.6</ele>
        <time>2015-11-07T07:32:57Z</time>
      </trkpt>
      <trkpt lat="43.70849" lon="6.97232">
        <ele>552</ele>
        <time>2015-11-07T07:32:58Z</time>
      </trkpt>
      <trkpt lat="43.70856" lon="6.97223">
        <ele>552.4</ele>
        <time>2015-11-07T07:33:06Z</time>
      </trkpt>
      <trkpt lat="43.70857" lon="6.97221">
        <ele>553.4</ele>
        <time>2015-11-07T07:33:07Z</time>
      </trkpt>
      <trkpt lat="43.70859" lon="6.97218">
        <ele>553.8</ele>
        <time>2015-11-07T07:33:09Z</time>
      </trkpt>
      <trkpt lat="43.7086" lon="6.97216">
        <ele>554.2</ele>
        <time>2015-11-07T07:33:10Z</time>
      </trkpt>
      <trkpt lat="43.70867" lon="6.97212">
        <ele>554.2</ele>
        <time>2015-11-07T07:33:14Z</time>
      </trkpt>
      <trkpt lat="43.70874" lon="6.97203">
        <ele>554.6</ele>
        <time>2015-11-07T07:33:20Z</time>
      </trkpt>
      <trkpt lat="43.70877" lon="6.97202">
        <ele>555</ele>
        <time>2015-11-07T07:33:22Z</time>
      </trkpt>
      <trkpt lat="43.70877" lon="6.97201">
        <ele>555.8</ele>
        <time>2015-11-07T07:33:23Z</time>
      </trkpt>
      <trkpt lat="43.70879" lon="6.97197">
        <ele>556.2</ele>
        <time>2015-11-07T07:33:25Z</time>
      </trkpt>
      <trkpt lat="43.70885" lon="6.97187">
        <ele>556.2</ele>
        <time>2015-11-07T07:33:31Z</time>
      </trkpt>
      <trkpt lat="43.70889" lon="6.97179">
        <ele>556.6</ele>
        <time>2015-11-07T07:33:36Z</time>
      </trkpt>
      <trkpt lat="43.70889" lon="6.97177">
        <ele>557</ele>
        <time>2015-11-07T07:33:37Z</time>
      </trkpt>
      <trkpt lat="43.7089" lon="6.97175">
        <ele>557.4</ele>
        <time>2015-11-07T07:33:38Z</time>
      </trkpt>
      <trkpt lat="43.70891" lon="6.97173">
        <ele>557.4</ele>
        <time>2015-11-07T07:33:39Z</time>
      </trkpt>
      <trkpt lat="43.70891" lon="6.97172">
        <ele>558.4</ele>
        <time>2015-11-07T07:33:40Z</time>
      </trkpt>
      <trkpt lat="43.70894" lon="6.97158">
        <ele>558.4</ele>
        <time>2015-11-07T07:33:46Z</time>
      </trkpt>
      <trkpt lat="43.70897" lon="6.97145">
        <ele>558.8</ele>
        <time>2015-11-07T07:33:53Z</time>
      </trkpt>
      <trkpt lat="43.70898" lon="6.97142">
        <ele>559.2</ele>
        <time>2015-11-07T07:33:54Z</time>
      </trkpt>
      <trkpt lat="43.70898" lon="6.97141">
        <ele>559.6</ele>
        <time>2015-11-07T07:33:55Z</time>
      </trkpt>
      <trkpt lat="43.70899" lon="6.97139">
        <ele>560</ele>
        <time>2015-11-07T07:33:56Z</time>
      </trkpt>
      <trkpt lat="43.709" lon="6.97138">
        <ele>560.4</ele>
        <time>2015-11-07T07:33:57Z</time>
      </trkpt>
      <trkpt lat="43.70903" lon="6.97127">
        <ele>560.4</ele>
        <time>2015-11-07T07:34:02Z</time>
      </trkpt>
      <trkpt lat="43.70905" lon="6.97123">
        <ele>560.8</ele>
        <time>2015-11-07T07:34:04Z</time>
      </trkpt>
      <trkpt lat="43.70905" lon="6.97121">
        <ele>561.2</ele>
        <time>2015-11-07T07:34:05Z</time>
      </trkpt>
      <trkpt lat="43.70906" lon="6.97119">
        <ele>561.8</ele>
        <time>2015-11-07T07:34:06Z</time>
      </trkpt>
      <trkpt lat="43.70907" lon="6.97117">
        <ele>562.2</ele>
        <time>2015-11-07T07:34:07Z</time>
      </trkpt>
      <trkpt lat="43.70908" lon="6.97115">
        <ele>562.6</ele>
        <time>2015-11-07T07:34:08Z</time>
      </trkpt>
      <trkpt lat="43.70911" lon="6.97109">
        <ele>562.6</ele>
        <time>2015-11-07T07:34:11Z</time>
      </trkpt>
      <trkpt lat="43.70915" lon="6.97097">
        <ele>563</ele>
        <time>2015-11-07T07:34:17Z</time>
      </trkpt>
      <trkpt lat="43.70916" lon="6.97095">
        <ele>563.4</ele>
        <time>2015-11-07T07:34:18Z</time>
      </trkpt>
      <trkpt lat="43.70917" lon="6.97093">
        <ele>563.8</ele>
        <time>2015-11-07T07:34:19Z</time>
      </trkpt>
      <trkpt lat="43.70919" lon="6.97091">
        <ele>564.4</ele>
        <time>2015-11-07T07:34:20Z</time>
      </trkpt>
      <trkpt lat="43.70919" lon="6.97089">
        <ele>564.8</ele>
        <time>2015-11-07T07:34:21Z</time>
      </trkpt>
      <trkpt lat="43.70922" lon="6.97081">
        <ele>564.8</ele>
        <time>2015-11-07T07:34:25Z</time>
      </trkpt>
      <trkpt lat="43.7093" lon="6.97061">
        <ele>564.8</ele>
        <time>2015-11-07T07:34:35Z</time>
      </trkpt>
      <trkpt lat="43.70934" lon="6.97055">
        <ele>565.2</ele>
        <time>2015-11-07T07:34:38Z</time>
      </trkpt>
      <trkpt lat="43.70935" lon="6.97053">
        <ele>565.6</ele>
        <time>2015-11-07T07:34:39Z</time>
      </trkpt>
      <trkpt lat="43.70936" lon="6.97052">
        <ele>566</ele>
        <time>2015-11-07T07:34:40Z</time>
      </trkpt>
      <trkpt lat="43.70936" lon="6.9705">
        <ele>566.4</ele>
        <time>2015-11-07T07:34:41Z</time>
      </trkpt>
      <trkpt lat="43.70937" lon="6.97049">
        <ele>566.8</ele>
        <time>2015-11-07T07:34:42Z</time>
      </trkpt>
      <trkpt lat="43.70939" lon="6.97046">
        <ele>566.8</ele>
        <time>2015-11-07T07:34:44Z</time>
      </trkpt>
      <trkpt lat="43.70948" lon="6.97028">
        <ele>566.8</ele>
        <time>2015-11-07T07:34:53Z</time>
      </trkpt>
      <trkpt lat="43.7095" lon="6.97024">
        <ele>567.2</ele>
        <time>2015-11-07T07:34:55Z</time>
      </trkpt>
      <trkpt lat="43.7095" lon="6.97021">
        <ele>567.6</ele>
        <time>2015-11-07T07:34:56Z</time>
      </trkpt>
      <trkpt lat="43.70951" lon="6.97019">
        <ele>568.2</ele>
        <time>2015-11-07T07:34:57Z</time>
      </trkpt>
      <trkpt lat="43.70952" lon="6.97017">
        <ele>568.6</ele>
        <time>2015-11-07T07:34:58Z</time>
      </trkpt>
      <trkpt lat="43.70953" lon="6.97016">
        <ele>569</ele>
        <time>2015-11-07T07:34:59Z</time>
      </trkpt>
      <trkpt lat="43.70953" lon="6.97014">
        <ele>569</ele>
        <time>2015-11-07T07:35:00Z</time>
      </trkpt>
      <trkpt lat="43.70955" lon="6.96999">
        <ele>569</ele>
        <time>2015-11-07T07:35:07Z</time>
      </trkpt>
      <trkpt lat="43.70957" lon="6.96991">
        <ele>569.4</ele>
        <time>2015-11-07T07:35:10Z</time>
      </trkpt>
      <trkpt lat="43.70957" lon="6.96988">
        <ele>569.8</ele>
        <time>2015-11-07T07:35:11Z</time>
      </trkpt>
      <trkpt lat="43.70958" lon="6.96986">
        <ele>570.4</ele>
        <time>2015-11-07T07:35:12Z</time>
      </trkpt>
      <trkpt lat="43.70958" lon="6.96983">
        <ele>570.8</ele>
        <time>2015-11-07T07:35:13Z</time>
      </trkpt>
      <trkpt lat="43.70958" lon="6.96981">
        <ele>571.2</ele>
        <time>2015-11-07T07:35:14Z</time>
      </trkpt>
      <trkpt lat="43.70959" lon="6.96974">
        <ele>571.2</ele>
        <time>2015-11-07T07:35:17Z</time>
      </trkpt>
      <trkpt lat="43.7096" lon="6.96952">
        <ele>571.2</ele>
        <time>2015-11-07T07:35:26Z</time>
      </trkpt>
      <trkpt lat="43.7096" lon="6.96949">
        <ele>571.6</ele>
        <time>2015-11-07T07:35:27Z</time>
      </trkpt>
      <trkpt lat="43.7096" lon="6.96947">
        <ele>572</ele>
        <time>2015-11-07T07:35:28Z</time>
      </trkpt>
      <trkpt lat="43.7096" lon="6.96944">
        <ele>572.4</ele>
        <time>2015-11-07T07:35:29Z</time>
      </trkpt>
      <trkpt lat="43.70961" lon="6.96942">
        <ele>573</ele>
        <time>2015-11-07T07:35:30Z</time>
      </trkpt>
      <trkpt lat="43.70961" lon="6.9694">
        <ele>573.4</ele>
        <time>2015-11-07T07:35:31Z</time>
      </trkpt>
      <trkpt lat="43.70962" lon="6.96933">
        <ele>573.4</ele>
        <time>2015-11-07T07:35:34Z</time>
      </trkpt>
      <trkpt lat="43.70965" lon="6.96917">
        <ele>573.4</ele>
        <time>2015-11-07T07:35:41Z</time>
      </trkpt>
      <trkpt lat="43.70972" lon="6.96901">
        <ele>573.4</ele>
        <time>2015-11-07T07:35:48Z</time>
      </trkpt>
      <trkpt lat="43.70974" lon="6.96901">
        <ele>573.4</ele>
        <time>2015-11-07T07:35:49Z</time>
      </trkpt>
      <trkpt lat="43.7098" lon="6.96903">
        <ele>573.4</ele>
        <time>2015-11-07T07:35:51Z</time>
      </trkpt>
      <trkpt lat="43.7099" lon="6.96915">
        <ele>573.8</ele>
        <time>2015-11-07T07:35:57Z</time>
      </trkpt>
      <trkpt lat="43.70992" lon="6.96917">
        <ele>574.2</ele>
        <time>2015-11-07T07:35:58Z</time>
      </trkpt>
      <trkpt lat="43.70993" lon="6.9692">
        <ele>574.6</ele>
        <time>2015-11-07T07:35:59Z</time>
      </trkpt>
      <trkpt lat="43.70995" lon="6.96923">
        <ele>575</ele>
        <time>2015-11-07T07:36:00Z</time>
      </trkpt>
      <trkpt lat="43.70996" lon="6.96925">
        <ele>575.4</ele>
        <time>2015-11-07T07:36:01Z</time>
      </trkpt>
      <trkpt lat="43.71001" lon="6.96937">
        <ele>575.4</ele>
        <time>2015-11-07T07:36:06Z</time>
      </trkpt>
      <trkpt lat="43.71002" lon="6.96939">
        <ele>575.8</ele>
        <time>2015-11-07T07:36:07Z</time>
      </trkpt>
      <trkpt lat="43.71004" lon="6.96941">
        <ele>576.2</ele>
        <time>2015-11-07T07:36:08Z</time>
      </trkpt>
      <trkpt lat="43.71004" lon="6.96943">
        <ele>576.6</ele>
        <time>2015-11-07T07:36:09Z</time>
      </trkpt>
      <trkpt lat="43.71005" lon="6.96945">
        <ele>577</ele>
        <time>2015-11-07T07:36:10Z</time>
      </trkpt>
      <trkpt lat="43.71006" lon="6.96948">
        <ele>577.6</ele>
        <time>2015-11-07T07:36:11Z</time>
      </trkpt>
      <trkpt lat="43.7101" lon="6.96957">
        <ele>577.6</ele>
        <time>2015-11-07T07:36:15Z</time>
      </trkpt>
      <trkpt lat="43.71019" lon="6.96973">
        <ele>577.6</ele>
        <time>2015-11-07T07:36:22Z</time>
      </trkpt>
      <trkpt lat="43.71027" lon="6.96982">
        <ele>578</ele>
        <time>2015-11-07T07:36:27Z</time>
      </trkpt>
      <trkpt lat="43.71029" lon="6.96983">
        <ele>578.4</ele>
        <time>2015-11-07T07:36:28Z</time>
      </trkpt>
      <trkpt lat="43.71031" lon="6.96985">
        <ele>578.8</ele>
        <time>2015-11-07T07:36:29Z</time>
      </trkpt>
      <trkpt lat="43.71032" lon="6.96986">
        <ele>579.4</ele>
        <time>2015-11-07T07:36:30Z</time>
      </trkpt>
      <trkpt lat="43.71035" lon="6.96987">
        <ele>579.8</ele>
        <time>2015-11-07T07:36:31Z</time>
      </trkpt>
      <trkpt lat="43.71044" lon="6.9699">
        <ele>579.8</ele>
        <time>2015-11-07T07:36:36Z</time>
      </trkpt>
      <trkpt lat="43.71057" lon="6.96994">
        <ele>580.2</ele>
        <time>2015-11-07T07:36:42Z</time>
      </trkpt>
      <trkpt lat="43.71059" lon="6.96995">
        <ele>580.6</ele>
        <time>2015-11-07T07:36:43Z</time>
      </trkpt>
      <trkpt lat="43.7106" lon="6.96995">
        <ele>581</ele>
        <time>2015-11-07T07:36:44Z</time>
      </trkpt>
      <trkpt lat="43.71062" lon="6.96996">
        <ele>581.4</ele>
        <time>2015-11-07T07:36:45Z</time>
      </trkpt>
      <trkpt lat="43.71064" lon="6.96997">
        <ele>581.8</ele>
        <time>2015-11-07T07:36:46Z</time>
      </trkpt>
      <trkpt lat="43.71076" lon="6.97003">
        <ele>581.8</ele>
        <time>2015-11-07T07:36:53Z</time>
      </trkpt>
      <trkpt lat="43.71092" lon="6.9701">
        <ele>582.4</ele>
        <time>2015-11-07T07:37:02Z</time>
      </trkpt>
      <trkpt lat="43.71093" lon="6.9701">
        <ele>582.8</ele>
        <time>2015-11-07T07:37:03Z</time>
      </trkpt>
      <trkpt lat="43.71095" lon="6.97011">
        <ele>583.2</ele>
        <time>2015-11-07T07:37:04Z</time>
      </trkpt>
      <trkpt lat="43.71097" lon="6.97012">
        <ele>583.6</ele>
        <time>2015-11-07T07:37:05Z</time>
      </trkpt>
      <trkpt lat="43.71099" lon="6.97013">
        <ele>584</ele>
        <time>2015-11-07T07:37:06Z</time>
      </trkpt>
      <trkpt lat="43.71106" lon="6.97015">
        <ele>584</ele>
        <time>2015-11-07T07:37:10Z</time>
      </trkpt>
      <trkpt lat="43.71117" lon="6.97017">
        <ele>584.4</ele>
        <time>2015-11-07T07:37:16Z</time>
      </trkpt>
      <trkpt lat="43.71119" lon="6.97017">
        <ele>585</ele>
        <time>2015-11-07T07:37:17Z</time>
      </trkpt>
      <trkpt lat="43.71121" lon="6.97018">
        <ele>585.4</ele>
        <time>2015-11-07T07:37:18Z</time>
      </trkpt>
      <trkpt lat="43.71123" lon="6.97018">
        <ele>585.8</ele>
        <time>2015-11-07T07:37:19Z</time>
      </trkpt>
      <trkpt lat="43.71124" lon="6.97018">
        <ele>586.2</ele>
        <time>2015-11-07T07:37:20Z</time>
      </trkpt>
      <trkpt lat="43.71135" lon="6.97021">
        <ele>586.2</ele>
        <time>2015-11-07T07:37:26Z</time>
      </trkpt>
      <trkpt lat="43.71147" lon="6.97026">
        <ele>586.6</ele>
        <time>2015-11-07T07:37:32Z</time>
      </trkpt>
      <trkpt lat="43.71149" lon="6.97027">
        <ele>587</ele>
        <time>2015-11-07T07:37:33Z</time>
      </trkpt>
      <trkpt lat="43.71151" lon="6.97027">
        <ele>587.4</ele>
        <time>2015-11-07T07:37:34Z</time>
      </trkpt>
      <trkpt lat="43.71153" lon="6.97028">
        <ele>587.8</ele>
        <time>2015-11-07T07:37:35Z</time>
      </trkpt>
      <trkpt lat="43.71155" lon="6.97028">
        <ele>588.4</ele>
        <time>2015-11-07T07:37:36Z</time>
      </trkpt>
      <trkpt lat="43.7116" lon="6.9703">
        <ele>588.4</ele>
        <time>2015-11-07T07:37:39Z</time>
      </trkpt>
      <trkpt lat="43.71175" lon="6.97035">
        <ele>588.4</ele>
        <time>2015-11-07T07:37:47Z</time>
      </trkpt>
      <trkpt lat="43.71189" lon="6.97038">
        <ele>588.8</ele>
        <time>2015-11-07T07:37:53Z</time>
      </trkpt>
      <trkpt lat="43.71191" lon="6.97039">
        <ele>589.2</ele>
        <time>2015-11-07T07:37:54Z</time>
      </trkpt>
      <trkpt lat="43.71193" lon="6.97039">
        <ele>589.6</ele>
        <time>2015-11-07T07:37:55Z</time>
      </trkpt>
      <trkpt lat="43.71195" lon="6.9704">
        <ele>590</ele>
        <time>2015-11-07T07:37:56Z</time>
      </trkpt>
      <trkpt lat="43.71197" lon="6.97042">
        <ele>590.4</ele>
        <time>2015-11-07T07:37:57Z</time>
      </trkpt>
      <trkpt lat="43.71205" lon="6.97046">
        <ele>590.4</ele>
        <time>2015-11-07T07:38:02Z</time>
      </trkpt>
      <trkpt lat="43.71213" lon="6.97049">
        <ele>590.8</ele>
        <time>2015-11-07T07:38:07Z</time>
      </trkpt>
      <trkpt lat="43.71215" lon="6.97049">
        <ele>591.2</ele>
        <time>2015-11-07T07:38:08Z</time>
      </trkpt>
      <trkpt lat="43.71216" lon="6.97049">
        <ele>591.6</ele>
        <time>2015-11-07T07:38:09Z</time>
      </trkpt>
      <trkpt lat="43.71218" lon="6.9705">
        <ele>592</ele>
        <time>2015-11-07T07:38:10Z</time>
      </trkpt>
      <trkpt lat="43.7122" lon="6.9705">
        <ele>592.6</ele>
        <time>2015-11-07T07:38:11Z</time>
      </trkpt>
      <trkpt lat="43.71226" lon="6.9705">
        <ele>592.6</ele>
        <time>2015-11-07T07:38:16Z</time>
      </trkpt>
      <trkpt lat="43.7124" lon="6.97049">
        <ele>593</ele>
        <time>2015-11-07T07:38:23Z</time>
      </trkpt>
      <trkpt lat="43.71242" lon="6.97049">
        <ele>593.4</ele>
        <time>2015-11-07T07:38:24Z</time>
      </trkpt>
      <trkpt lat="43.71244" lon="6.97049">
        <ele>593.8</ele>
        <time>2015-11-07T07:38:25Z</time>
      </trkpt>
      <trkpt lat="43.71247" lon="6.97049">
        <ele>594.2</ele>
        <time>2015-11-07T07:38:26Z</time>
      </trkpt>
      <trkpt lat="43.71249" lon="6.97049">
        <ele>594.6</ele>
        <time>2015-11-07T07:38:27Z</time>
      </trkpt>
      <trkpt lat="43.71255" lon="6.9705">
        <ele>594.6</ele>
        <time>2015-11-07T07:38:30Z</time>
      </trkpt>
      <trkpt lat="43.71267" lon="6.9705">
        <ele>595</ele>
        <time>2015-11-07T07:38:36Z</time>
      </trkpt>
      <trkpt lat="43.71269" lon="6.97051">
        <ele>595.4</ele>
        <time>2015-11-07T07:38:37Z</time>
      </trkpt>
      <trkpt lat="43.71271" lon="6.97052">
        <ele>595.8</ele>
        <time>2015-11-07T07:38:38Z</time>
      </trkpt>
      <trkpt lat="43.71273" lon="6.97053">
        <ele>596.2</ele>
        <time>2015-11-07T07:38:39Z</time>
      </trkpt>
      <trkpt lat="43.71274" lon="6.97054">
        <ele>596.6</ele>
        <time>2015-11-07T07:38:40Z</time>
      </trkpt>
      <trkpt lat="43.71283" lon="6.97058">
        <ele>596.6</ele>
        <time>2015-11-07T07:38:45Z</time>
      </trkpt>
      <trkpt lat="43.71295" lon="6.97064">
        <ele>597</ele>
        <time>2015-11-07T07:38:52Z</time>
      </trkpt>
      <trkpt lat="43.71297" lon="6.97065">
        <ele>597.4</ele>
        <time>2015-11-07T07:38:53Z</time>
      </trkpt>
      <trkpt lat="43.713" lon="6.97066">
        <ele>598</ele>
        <time>2015-11-07T07:38:54Z</time>
      </trkpt>
      <trkpt lat="43.71301" lon="6.97067">
        <ele>598.4</ele>
        <time>2015-11-07T07:38:55Z</time>
      </trkpt>
      <trkpt lat="43.71303" lon="6.97068">
        <ele>598.8</ele>
        <time>2015-11-07T07:38:56Z</time>
      </trkpt>
      <trkpt lat="43.71312" lon="6.97076">
        <ele>598.8</ele>
        <time>2015-11-07T07:39:01Z</time>
      </trkpt>
      <trkpt lat="43.71326" lon="6.97086">
        <ele>598.8</ele>
        <time>2015-11-07T07:39:08Z</time>
      </trkpt>
      <trkpt lat="43.71341" lon="6.97098">
        <ele>598.8</ele>
        <time>2015-11-07T07:39:16Z</time>
      </trkpt>
      <trkpt lat="43.71348" lon="6.97102">
        <ele>599.2</ele>
        <time>2015-11-07T07:39:19Z</time>
      </trkpt>
      <trkpt lat="43.7135" lon="6.97104">
        <ele>599.6</ele>
        <time>2015-11-07T07:39:20Z</time>
      </trkpt>
      <trkpt lat="43.71351" lon="6.97105">
        <ele>600</ele>
        <time>2015-11-07T07:39:21Z</time>
      </trkpt>
      <trkpt lat="43.71353" lon="6.97107">
        <ele>600.6</ele>
        <time>2015-11-07T07:39:22Z</time>
      </trkpt>
      <trkpt lat="43.71355" lon="6.97108">
        <ele>601</ele>
        <time>2015-11-07T07:39:23Z</time>
      </trkpt>
      <trkpt lat="43.71368" lon="6.97122">
        <ele>601.4</ele>
        <time>2015-11-07T07:39:31Z</time>
      </trkpt>
      <trkpt lat="43.7137" lon="6.97123">
        <ele>601.8</ele>
        <time>2015-11-07T07:39:32Z</time>
      </trkpt>
      <trkpt lat="43.71371" lon="6.97125">
        <ele>602.2</ele>
        <time>2015-11-07T07:39:33Z</time>
      </trkpt>
      <trkpt lat="43.71373" lon="6.97126">
        <ele>602.6</ele>
        <time>2015-11-07T07:39:34Z</time>
      </trkpt>
      <trkpt lat="43.71375" lon="6.97128">
        <ele>603</ele>
        <time>2015-11-07T07:39:35Z</time>
      </trkpt>
      <trkpt lat="43.71383" lon="6.97134">
        <ele>603</ele>
        <time>2015-11-07T07:39:40Z</time>
      </trkpt>
      <trkpt lat="43.71394" lon="6.97149">
        <ele>603</ele>
        <time>2015-11-07T07:39:48Z</time>
      </trkpt>
      <trkpt lat="43.71408" lon="6.97163">
        <ele>603.4</ele>
        <time>2015-11-07T07:39:56Z</time>
      </trkpt>
      <trkpt lat="43.71409" lon="6.97165">
        <ele>603.8</ele>
        <time>2015-11-07T07:39:57Z</time>
      </trkpt>
      <trkpt lat="43.71411" lon="6.97167">
        <ele>604.4</ele>
        <time>2015-11-07T07:39:58Z</time>
      </trkpt>
      <trkpt lat="43.71412" lon="6.97169">
        <ele>604.8</ele>
        <time>2015-11-07T07:39:59Z</time>
      </trkpt>
      <trkpt lat="43.71414" lon="6.97171">
        <ele>605.2</ele>
        <time>2015-11-07T07:40:00Z</time>
      </trkpt>
      <trkpt lat="43.71424" lon="6.9718">
        <ele>605.2</ele>
        <time>2015-11-07T07:40:06Z</time>
      </trkpt>
      <trkpt lat="43.7144" lon="6.97192">
        <ele>605.6</ele>
        <time>2015-11-07T07:40:15Z</time>
      </trkpt>
      <trkpt lat="43.71442" lon="6.97193">
        <ele>606</ele>
        <time>2015-11-07T07:40:16Z</time>
      </trkpt>
      <trkpt lat="43.71443" lon="6.97194">
        <ele>606.4</ele>
        <time>2015-11-07T07:40:17Z</time>
      </trkpt>
      <trkpt lat="43.71445" lon="6.97195">
        <ele>607</ele>
        <time>2015-11-07T07:40:18Z</time>
      </trkpt>
      <trkpt lat="43.71447" lon="6.97196">
        <ele>607.4</ele>
        <time>2015-11-07T07:40:19Z</time>
      </trkpt>
      <trkpt lat="43.71454" lon="6.97203">
        <ele>607.4</ele>
        <time>2015-11-07T07:40:24Z</time>
      </trkpt>
      <trkpt lat="43.7146" lon="6.97204">
        <ele>607.4</ele>
        <time>2015-11-07T07:40:28Z</time>
      </trkpt>
      <trkpt lat="43.71462" lon="6.97202">
        <ele>607.8</ele>
        <time>2015-11-07T07:40:30Z</time>
      </trkpt>
      <trkpt lat="43.71463" lon="6.97199">
        <ele>608.2</ele>
        <time>2015-11-07T07:40:31Z</time>
      </trkpt>
      <trkpt lat="43.71463" lon="6.97197">
        <ele>608.6</ele>
        <time>2015-11-07T07:40:32Z</time>
      </trkpt>
      <trkpt lat="43.71463" lon="6.97196">
        <ele>609</ele>
        <time>2015-11-07T07:40:33Z</time>
      </trkpt>
      <trkpt lat="43.71462" lon="6.97194">
        <ele>609.4</ele>
        <time>2015-11-07T07:40:34Z</time>
      </trkpt>
      <trkpt lat="43.71461" lon="6.97192">
        <ele>609.4</ele>
        <time>2015-11-07T07:40:35Z</time>
      </trkpt>
      <trkpt lat="43.71452" lon="6.97177">
        <ele>609.4</ele>
        <time>2015-11-07T07:40:42Z</time>
      </trkpt>
      <trkpt lat="43.71448" lon="6.97172">
        <ele>609.8</ele>
        <time>2015-11-07T07:40:45Z</time>
      </trkpt>
      <trkpt lat="43.71447" lon="6.9717">
        <ele>610.2</ele>
        <time>2015-11-07T07:40:46Z</time>
      </trkpt>
      <trkpt lat="43.71446" lon="6.97168">
        <ele>610.6</ele>
        <time>2015-11-07T07:40:47Z</time>
      </trkpt>
      <trkpt lat="43.71445" lon="6.97166">
        <ele>611</ele>
        <time>2015-11-07T07:40:48Z</time>
      </trkpt>
      <trkpt lat="43.71444" lon="6.97164">
        <ele>611.4</ele>
        <time>2015-11-07T07:40:49Z</time>
      </trkpt>
      <trkpt lat="43.7144" lon="6.97156">
        <ele>611.8</ele>
        <time>2015-11-07T07:40:53Z</time>
      </trkpt>
      <trkpt lat="43.71439" lon="6.97154">
        <ele>612.2</ele>
        <time>2015-11-07T07:40:54Z</time>
      </trkpt>
      <trkpt lat="43.71438" lon="6.97152">
        <ele>612.8</ele>
        <time>2015-11-07T07:40:55Z</time>
      </trkpt>
      <trkpt lat="43.71437" lon="6.9715">
        <ele>613.2</ele>
        <time>2015-11-07T07:40:56Z</time>
      </trkpt>
      <trkpt lat="43.71436" lon="6.97147">
        <ele>613.6</ele>
        <time>2015-11-07T07:40:57Z</time>
      </trkpt>
      <trkpt lat="43.71423" lon="6.97132">
        <ele>613.6</ele>
        <time>2015-11-07T07:41:05Z</time>
      </trkpt>
      <trkpt lat="43.71414" lon="6.97116">
        <ele>613.6</ele>
        <time>2015-11-07T07:41:13Z</time>
      </trkpt>
      <trkpt lat="43.71408" lon="6.97106">
        <ele>614</ele>
        <time>2015-11-07T07:41:17Z</time>
      </trkpt>
      <trkpt lat="43.71406" lon="6.97102">
        <ele>614.4</ele>
        <time>2015-11-07T07:41:18Z</time>
      </trkpt>
      <trkpt lat="43.71405" lon="6.971">
        <ele>614.8</ele>
        <time>2015-11-07T07:41:19Z</time>
      </trkpt>
      <trkpt lat="43.71404" lon="6.97098">
        <ele>615.2</ele>
        <time>2015-11-07T07:41:20Z</time>
      </trkpt>
      <trkpt lat="43.71402" lon="6.97096">
        <ele>615.6</ele>
        <time>2015-11-07T07:41:21Z</time>
      </trkpt>
      <trkpt lat="43.71392" lon="6.97083">
        <ele>615.6</ele>
        <time>2015-11-07T07:41:27Z</time>
      </trkpt>
      <trkpt lat="43.71391" lon="6.97082">
        <ele>616</ele>
        <time>2015-11-07T07:41:28Z</time>
      </trkpt>
      <trkpt lat="43.71389" lon="6.97079">
        <ele>616.4</ele>
        <time>2015-11-07T07:41:29Z</time>
      </trkpt>
      <trkpt lat="43.71387" lon="6.97076">
        <ele>616.8</ele>
        <time>2015-11-07T07:41:30Z</time>
      </trkpt>
      <trkpt lat="43.71385" lon="6.97074">
        <ele>617.2</ele>
        <time>2015-11-07T07:41:31Z</time>
      </trkpt>
      <trkpt lat="43.71383" lon="6.97071">
        <ele>617.6</ele>
        <time>2015-11-07T07:41:32Z</time>
      </trkpt>
      <trkpt lat="43.71378" lon="6.97061">
        <ele>617.6</ele>
        <time>2015-11-07T07:41:36Z</time>
      </trkpt>
      <trkpt lat="43.71367" lon="6.97041">
        <ele>617.6</ele>
        <time>2015-11-07T07:41:44Z</time>
      </trkpt>
      <trkpt lat="43.71357" lon="6.97027">
        <ele>617.6</ele>
        <time>2015-11-07T07:41:51Z</time>
      </trkpt>
      <trkpt lat="43.71356" lon="6.97025">
        <ele>618</ele>
        <time>2015-11-07T07:41:52Z</time>
      </trkpt>
      <trkpt lat="43.71355" lon="6.97022">
        <ele>618.4</ele>
        <time>2015-11-07T07:41:53Z</time>
      </trkpt>
      <trkpt lat="43.71353" lon="6.97021">
        <ele>619</ele>
        <time>2015-11-07T07:41:54Z</time>
      </trkpt>
      <trkpt lat="43.71352" lon="6.97019">
        <ele>619.4</ele>
        <time>2015-11-07T07:41:55Z</time>
      </trkpt>
      <trkpt lat="43.71351" lon="6.97017">
        <ele>619.8</ele>
        <time>2015-11-07T07:41:56Z</time>
      </trkpt>
      <trkpt lat="43.7135" lon="6.97015">
        <ele>619.8</ele>
        <time>2015-11-07T07:41:57Z</time>
      </trkpt>
      <trkpt lat="43.7134" lon="6.97">
        <ele>619.8</ele>
        <time>2015-11-07T07:42:04Z</time>
      </trkpt>
      <trkpt lat="43.71333" lon="6.96989">
        <ele>620.2</ele>
        <time>2015-11-07T07:42:09Z</time>
      </trkpt>
      <trkpt lat="43.71331" lon="6.96987">
        <ele>620.6</ele>
        <time>2015-11-07T07:42:10Z</time>
      </trkpt>
      <trkpt lat="43.71329" lon="6.96985">
        <ele>621</ele>
        <time>2015-11-07T07:42:11Z</time>
      </trkpt>
      <trkpt lat="43.71328" lon="6.96984">
        <ele>621.4</ele>
        <time>2015-11-07T07:42:12Z</time>
      </trkpt>
      <trkpt lat="43.71326" lon="6.96982">
        <ele>621.8</ele>
        <time>2015-11-07T07:42:13Z</time>
      </trkpt>
      <trkpt lat="43.71316" lon="6.96966">
        <ele>622.2</ele>
        <time>2015-11-07T07:42:21Z</time>
      </trkpt>
      <trkpt lat="43.71315" lon="6.96964">
        <ele>622.6</ele>
        <time>2015-11-07T07:42:22Z</time>
      </trkpt>
      <trkpt lat="43.71314" lon="6.96962">
        <ele>623</ele>
        <time>2015-11-07T07:42:23Z</time>
      </trkpt>
      <trkpt lat="43.71313" lon="6.96959">
        <ele>623.4</ele>
        <time>2015-11-07T07:42:24Z</time>
      </trkpt>
      <trkpt lat="43.71312" lon="6.96957">
        <ele>623.8</ele>
        <time>2015-11-07T07:42:25Z</time>
      </trkpt>
      <trkpt lat="43.71309" lon="6.96945">
        <ele>623.8</ele>
        <time>2015-11-07T07:42:31Z</time>
      </trkpt>
      <trkpt lat="43.71308" lon="6.96936">
        <ele>624.2</ele>
        <time>2015-11-07T07:42:34Z</time>
      </trkpt>
      <trkpt lat="43.71308" lon="6.96934">
        <ele>624.6</ele>
        <time>2015-11-07T07:42:35Z</time>
      </trkpt>
      <trkpt lat="43.71307" lon="6.96932">
        <ele>625</ele>
        <time>2015-11-07T07:42:36Z</time>
      </trkpt>
      <trkpt lat="43.71306" lon="6.96929">
        <ele>625.6</ele>
        <time>2015-11-07T07:42:37Z</time>
      </trkpt>
      <trkpt lat="43.71304" lon="6.96926">
        <ele>626</ele>
        <time>2015-11-07T07:42:38Z</time>
      </trkpt>
      <trkpt lat="43.71299" lon="6.96908">
        <ele>626</ele>
        <time>2015-11-07T07:42:45Z</time>
      </trkpt>
      <trkpt lat="43.71296" lon="6.96891">
        <ele>626</ele>
        <time>2015-11-07T07:42:52Z</time>
      </trkpt>
      <trkpt lat="43.71292" lon="6.96874">
        <ele>626</ele>
        <time>2015-11-07T07:42:58Z</time>
      </trkpt>
      <trkpt lat="43.71292" lon="6.96871">
        <ele>626.4</ele>
        <time>2015-11-07T07:42:59Z</time>
      </trkpt>
      <trkpt lat="43.71291" lon="6.96869">
        <ele>626.8</ele>
        <time>2015-11-07T07:43:00Z</time>
      </trkpt>
      <trkpt lat="43.71291" lon="6.96865">
        <ele>627.2</ele>
        <time>2015-11-07T07:43:01Z</time>
      </trkpt>
      <trkpt lat="43.7129" lon="6.9686">
        <ele>627.8</ele>
        <time>2015-11-07T07:43:02Z</time>
      </trkpt>
      <trkpt lat="43.71289" lon="6.96857">
        <ele>628.2</ele>
        <time>2015-11-07T07:43:03Z</time>
      </trkpt>
      <trkpt lat="43.71285" lon="6.9684">
        <ele>628.6</ele>
        <time>2015-11-07T07:43:09Z</time>
      </trkpt>
      <trkpt lat="43.71284" lon="6.96837">
        <ele>629</ele>
        <time>2015-11-07T07:43:10Z</time>
      </trkpt>
      <trkpt lat="43.71283" lon="6.96835">
        <ele>629.4</ele>
        <time>2015-11-07T07:43:11Z</time>
      </trkpt>
      <trkpt lat="43.71282" lon="6.96833">
        <ele>629.8</ele>
        <time>2015-11-07T07:43:12Z</time>
      </trkpt>
      <trkpt lat="43.71281" lon="6.96831">
        <ele>630.2</ele>
        <time>2015-11-07T07:43:13Z</time>
      </trkpt>
      <trkpt lat="43.71279" lon="6.96823">
        <ele>630.2</ele>
        <time>2015-11-07T07:43:16Z</time>
      </trkpt>
      <trkpt lat="43.71277" lon="6.96806">
        <ele>630.2</ele>
        <time>2015-11-07T07:43:23Z</time>
      </trkpt>
      <trkpt lat="43.71284" lon="6.96794">
        <ele>630.2</ele>
        <time>2015-11-07T07:43:30Z</time>
      </trkpt>
      <trkpt lat="43.71287" lon="6.96789">
        <ele>630.6</ele>
        <time>2015-11-07T07:43:32Z</time>
      </trkpt>
      <trkpt lat="43.71288" lon="6.96787">
        <ele>631.2</ele>
        <time>2015-11-07T07:43:33Z</time>
      </trkpt>
      <trkpt lat="43.7129" lon="6.96785">
        <ele>631.6</ele>
        <time>2015-11-07T07:43:34Z</time>
      </trkpt>
      <trkpt lat="43.71292" lon="6.96783">
        <ele>632</ele>
        <time>2015-11-07T07:43:35Z</time>
      </trkpt>
      <trkpt lat="43.71293" lon="6.96781">
        <ele>632.6</ele>
        <time>2015-11-07T07:43:36Z</time>
      </trkpt>
      <trkpt lat="43.71294" lon="6.9678">
        <ele>632.6</ele>
        <time>2015-11-07T07:43:37Z</time>
      </trkpt>
      <trkpt lat="43.71301" lon="6.96768">
        <ele>632.6</ele>
        <time>2015-11-07T07:43:43Z</time>
      </trkpt>
      <trkpt lat="43.71308" lon="6.96761">
        <ele>632.6</ele>
        <time>2015-11-07T07:43:49Z</time>
      </trkpt>
      <trkpt lat="43.71309" lon="6.96759">
        <ele>633</ele>
        <time>2015-11-07T07:43:50Z</time>
      </trkpt>
      <trkpt lat="43.71311" lon="6.96758">
        <ele>633.4</ele>
        <time>2015-11-07T07:43:51Z</time>
      </trkpt>
      <trkpt lat="43.71313" lon="6.96757">
        <ele>633.8</ele>
        <time>2015-11-07T07:43:52Z</time>
      </trkpt>
      <trkpt lat="43.71314" lon="6.96755">
        <ele>634.2</ele>
        <time>2015-11-07T07:43:53Z</time>
      </trkpt>
      <trkpt lat="43.71315" lon="6.96754">
        <ele>634.6</ele>
        <time>2015-11-07T07:43:54Z</time>
      </trkpt>
      <trkpt lat="43.71318" lon="6.96752">
        <ele>634.6</ele>
        <time>2015-11-07T07:43:56Z</time>
      </trkpt>
      <trkpt lat="43.71323" lon="6.96745">
        <ele>635</ele>
        <time>2015-11-07T07:44:01Z</time>
      </trkpt>
      <trkpt lat="43.71323" lon="6.96743">
        <ele>635.4</ele>
        <time>2015-11-07T07:44:02Z</time>
      </trkpt>
      <trkpt lat="43.71324" lon="6.96742">
        <ele>635.8</ele>
        <time>2015-11-07T07:44:03Z</time>
      </trkpt>
      <trkpt lat="43.71325" lon="6.96739">
        <ele>636.4</ele>
        <time>2015-11-07T07:44:04Z</time>
      </trkpt>
      <trkpt lat="43.71328" lon="6.96736">
        <ele>636.8</ele>
        <time>2015-11-07T07:44:05Z</time>
      </trkpt>
      <trkpt lat="43.71334" lon="6.96728">
        <ele>637.2</ele>
        <time>2015-11-07T07:44:10Z</time>
      </trkpt>
      <trkpt lat="43.71336" lon="6.96726">
        <ele>637.6</ele>
        <time>2015-11-07T07:44:11Z</time>
      </trkpt>
      <trkpt lat="43.71337" lon="6.96725">
        <ele>638</ele>
        <time>2015-11-07T07:44:12Z</time>
      </trkpt>
      <trkpt lat="43.71338" lon="6.96724">
        <ele>638.4</ele>
        <time>2015-11-07T07:44:13Z</time>
      </trkpt>
      <trkpt lat="43.71339" lon="6.96722">
        <ele>638.8</ele>
        <time>2015-11-07T07:44:14Z</time>
      </trkpt>
      <trkpt lat="43.71343" lon="6.9672">
        <ele>638.8</ele>
        <time>2015-11-07T07:44:16Z</time>
      </trkpt>
      <trkpt lat="43.71345" lon="6.9672">
        <ele>639.2</ele>
        <time>2015-11-07T07:44:17Z</time>
      </trkpt>
      <trkpt lat="43.71347" lon="6.96721">
        <ele>639.6</ele>
        <time>2015-11-07T07:44:18Z</time>
      </trkpt>
      <trkpt lat="43.71349" lon="6.96722">
        <ele>640</ele>
        <time>2015-11-07T07:44:19Z</time>
      </trkpt>
      <trkpt lat="43.71351" lon="6.96723">
        <ele>640.4</ele>
        <time>2015-11-07T07:44:20Z</time>
      </trkpt>
      <trkpt lat="43.71353" lon="6.96724">
        <ele>641</ele>
        <time>2015-11-07T07:44:21Z</time>
      </trkpt>
      <trkpt lat="43.71359" lon="6.96726">
        <ele>641</ele>
        <time>2015-11-07T07:44:24Z</time>
      </trkpt>
      <trkpt lat="43.71361" lon="6.96726">
        <ele>641.4</ele>
        <time>2015-11-07T07:44:25Z</time>
      </trkpt>
      <trkpt lat="43.71363" lon="6.96726">
        <ele>641.8</ele>
        <time>2015-11-07T07:44:26Z</time>
      </trkpt>
      <trkpt lat="43.71365" lon="6.96725">
        <ele>642.2</ele>
        <time>2015-11-07T07:44:27Z</time>
      </trkpt>
      <trkpt lat="43.71366" lon="6.96724">
        <ele>642.6</ele>
        <time>2015-11-07T07:44:28Z</time>
      </trkpt>
      <trkpt lat="43.71367" lon="6.96723">
        <ele>643</ele>
        <time>2015-11-07T07:44:29Z</time>
      </trkpt>
      <trkpt lat="43.71368" lon="6.96722">
        <ele>643</ele>
        <time>2015-11-07T07:44:30Z</time>
      </trkpt>
      <trkpt lat="43.7137" lon="6.9672">
        <ele>643.4</ele>
        <time>2015-11-07T07:44:32Z</time>
      </trkpt>
      <trkpt lat="43.71372" lon="6.96719">
        <ele>643.8</ele>
        <time>2015-11-07T07:44:33Z</time>
      </trkpt>
      <trkpt lat="43.71374" lon="6.96718">
        <ele>644.4</ele>
        <time>2015-11-07T07:44:34Z</time>
      </trkpt>
      <trkpt lat="43.71377" lon="6.96716">
        <ele>644.8</ele>
        <time>2015-11-07T07:44:35Z</time>
      </trkpt>
      <trkpt lat="43.7138" lon="6.96715">
        <ele>645.2</ele>
        <time>2015-11-07T07:44:36Z</time>
      </trkpt>
      <trkpt lat="43.71388" lon="6.96715">
        <ele>645.2</ele>
        <time>2015-11-07T07:44:39Z</time>
      </trkpt>
      <trkpt lat="43.71394" lon="6.96714">
        <ele>645.8</ele>
        <time>2015-11-07T07:44:43Z</time>
      </trkpt>
      <trkpt lat="43.71396" lon="6.96714">
        <ele>646.2</ele>
        <time>2015-11-07T07:44:44Z</time>
      </trkpt>
      <trkpt lat="43.71397" lon="6.96714">
        <ele>646.8</ele>
        <time>2015-11-07T07:44:45Z</time>
      </trkpt>
      <trkpt lat="43.71398" lon="6.96714">
        <ele>647.2</ele>
        <time>2015-11-07T07:44:46Z</time>
      </trkpt>
      <trkpt lat="43.71399" lon="6.96714">
        <ele>647.8</ele>
        <time>2015-11-07T07:44:47Z</time>
      </trkpt>
      <trkpt lat="43.71401" lon="6.96713">
        <ele>647.8</ele>
        <time>2015-11-07T07:44:49Z</time>
      </trkpt>
      <trkpt lat="43.71406" lon="6.9671">
        <ele>647.8</ele>
        <time>2015-11-07T07:44:53Z</time>
      </trkpt>
      <trkpt lat="43.71415" lon="6.96704">
        <ele>647.8</ele>
        <time>2015-11-07T07:45:02Z</time>
      </trkpt>
      <trkpt lat="43.71417" lon="6.96704">
        <ele>648.2</ele>
        <time>2015-11-07T07:45:04Z</time>
      </trkpt>
      <trkpt lat="43.71418" lon="6.96703">
        <ele>648.6</ele>
        <time>2015-11-07T07:45:05Z</time>
      </trkpt>
      <trkpt lat="43.71419" lon="6.96701">
        <ele>649</ele>
        <time>2015-11-07T07:45:06Z</time>
      </trkpt>
      <trkpt lat="43.71421" lon="6.967">
        <ele>649.4</ele>
        <time>2015-11-07T07:45:07Z</time>
      </trkpt>
      <trkpt lat="43.71423" lon="6.96699">
        <ele>649.8</ele>
        <time>2015-11-07T07:45:08Z</time>
      </trkpt>
      <trkpt lat="43.71426" lon="6.96698">
        <ele>649.8</ele>
        <time>2015-11-07T07:45:10Z</time>
      </trkpt>
      <trkpt lat="43.71434" lon="6.96697">
        <ele>649.8</ele>
        <time>2015-11-07T07:45:14Z</time>
      </trkpt>
      <trkpt lat="43.71436" lon="6.96698">
        <ele>649.8</ele>
        <time>2015-11-07T07:45:15Z</time>
      </trkpt>
      <trkpt lat="43.7145" lon="6.96706">
        <ele>650.2</ele>
        <time>2015-11-07T07:45:23Z</time>
      </trkpt>
      <trkpt lat="43.71451" lon="6.96708">
        <ele>650.6</ele>
        <time>2015-11-07T07:45:24Z</time>
      </trkpt>
      <trkpt lat="43.71453" lon="6.9671">
        <ele>651.2</ele>
        <time>2015-11-07T07:45:25Z</time>
      </trkpt>
      <trkpt lat="43.71454" lon="6.96712">
        <ele>651.6</ele>
        <time>2015-11-07T07:45:26Z</time>
      </trkpt>
      <trkpt lat="43.71456" lon="6.96714">
        <ele>652</ele>
        <time>2015-11-07T07:45:27Z</time>
      </trkpt>
      <trkpt lat="43.71459" lon="6.96719">
        <ele>652</ele>
        <time>2015-11-07T07:45:29Z</time>
      </trkpt>
      <trkpt lat="43.71474" lon="6.96739">
        <ele>652</ele>
        <time>2015-11-07T07:45:37Z</time>
      </trkpt>
      <trkpt lat="43.71491" lon="6.96749">
        <ele>652</ele>
        <time>2015-11-07T07:45:48Z</time>
      </trkpt>
      <trkpt lat="43.71499" lon="6.96757">
        <ele>652</ele>
        <time>2015-11-07T07:45:55Z</time>
      </trkpt>
      <trkpt lat="43.71513" lon="6.96759">
        <ele>652</ele>
        <time>2015-11-07T07:46:01Z</time>
      </trkpt>
      <trkpt lat="43.7153" lon="6.96755">
        <ele>652</ele>
        <time>2015-11-07T07:46:07Z</time>
      </trkpt>
      <trkpt lat="43.71548" lon="6.96745">
        <ele>652</ele>
        <time>2015-11-07T07:46:13Z</time>
      </trkpt>
      <trkpt lat="43.71552" lon="6.96742">
        <ele>652</ele>
        <time>2015-11-07T07:46:14Z</time>
      </trkpt>
      <trkpt lat="43.71556" lon="6.96739">
        <ele>651.6</ele>
        <time>2015-11-07T07:46:15Z</time>
      </trkpt>
      <trkpt lat="43.71559" lon="6.96735">
        <ele>651.2</ele>
        <time>2015-11-07T07:46:16Z</time>
      </trkpt>
      <trkpt lat="43.71563" lon="6.96731">
        <ele>650.8</ele>
        <time>2015-11-07T07:46:17Z</time>
      </trkpt>
      <trkpt lat="43.71566" lon="6.96726">
        <ele>650.4</ele>
        <time>2015-11-07T07:46:18Z</time>
      </trkpt>
      <trkpt lat="43.71568" lon="6.96721">
        <ele>650</ele>
        <time>2015-11-07T07:46:19Z</time>
      </trkpt>
      <trkpt lat="43.71569" lon="6.96715">
        <ele>649.4</ele>
        <time>2015-11-07T07:46:20Z</time>
      </trkpt>
      <trkpt lat="43.71572" lon="6.96709">
        <ele>649</ele>
        <time>2015-11-07T07:46:21Z</time>
      </trkpt>
      <trkpt lat="43.71574" lon="6.96703">
        <ele>648.4</ele>
        <time>2015-11-07T07:46:22Z</time>
      </trkpt>
      <trkpt lat="43.71576" lon="6.96696">
        <ele>648</ele>
        <time>2015-11-07T07:46:23Z</time>
      </trkpt>
      <trkpt lat="43.71578" lon="6.96688">
        <ele>647.2</ele>
        <time>2015-11-07T07:46:24Z</time>
      </trkpt>
      <trkpt lat="43.71581" lon="6.9668">
        <ele>646.6</ele>
        <time>2015-11-07T07:46:25Z</time>
      </trkpt>
      <trkpt lat="43.71584" lon="6.96673">
        <ele>645.8</ele>
        <time>2015-11-07T07:46:26Z</time>
      </trkpt>
      <trkpt lat="43.71588" lon="6.96665">
        <ele>645.2</ele>
        <time>2015-11-07T07:46:27Z</time>
      </trkpt>
      <trkpt lat="43.71591" lon="6.96657">
        <ele>644.4</ele>
        <time>2015-11-07T07:46:28Z</time>
      </trkpt>
      <trkpt lat="43.71595" lon="6.9665">
        <ele>643.6</ele>
        <time>2015-11-07T07:46:29Z</time>
      </trkpt>
      <trkpt lat="43.71599" lon="6.96642">
        <ele>643</ele>
        <time>2015-11-07T07:46:30Z</time>
      </trkpt>
      <trkpt lat="43.71603" lon="6.96635">
        <ele>642.2</ele>
        <time>2015-11-07T07:46:31Z</time>
      </trkpt>
      <trkpt lat="43.71606" lon="6.96628">
        <ele>641.6</ele>
        <time>2015-11-07T07:46:32Z</time>
      </trkpt>
      <trkpt lat="43.71619" lon="6.96601">
        <ele>641.6</ele>
        <time>2015-11-07T07:46:36Z</time>
      </trkpt>
      <trkpt lat="43.71641" lon="6.96568">
        <ele>641.6</ele>
        <time>2015-11-07T07:46:42Z</time>
      </trkpt>
      <trkpt lat="43.71652" lon="6.96551">
        <ele>641.6</ele>
        <time>2015-11-07T07:46:47Z</time>
      </trkpt>
      <trkpt lat="43.71668" lon="6.96538">
        <ele>641.6</ele>
        <time>2015-11-07T07:46:52Z</time>
      </trkpt>
      <trkpt lat="43.71683" lon="6.9653">
        <ele>642</ele>
        <time>2015-11-07T07:46:57Z</time>
      </trkpt>
      <trkpt lat="43.71685" lon="6.96527">
        <ele>642.6</ele>
        <time>2015-11-07T07:46:58Z</time>
      </trkpt>
      <trkpt lat="43.71687" lon="6.96524">
        <ele>643</ele>
        <time>2015-11-07T07:46:59Z</time>
      </trkpt>
      <trkpt lat="43.71689" lon="6.96522">
        <ele>643.4</ele>
        <time>2015-11-07T07:47:00Z</time>
      </trkpt>
      <trkpt lat="43.7169" lon="6.96519">
        <ele>644</ele>
        <time>2015-11-07T07:47:01Z</time>
      </trkpt>
      <trkpt lat="43.71695" lon="6.96508">
        <ele>644</ele>
        <time>2015-11-07T07:47:04Z</time>
      </trkpt>
      <trkpt lat="43.71708" lon="6.96479">
        <ele>644</ele>
        <time>2015-11-07T07:47:11Z</time>
      </trkpt>
      <trkpt lat="43.71727" lon="6.96453">
        <ele>644</ele>
        <time>2015-11-07T07:47:19Z</time>
      </trkpt>
      <trkpt lat="43.7174" lon="6.96441">
        <ele>643.6</ele>
        <time>2015-11-07T07:47:23Z</time>
      </trkpt>
      <trkpt lat="43.71744" lon="6.96437">
        <ele>643.2</ele>
        <time>2015-11-07T07:47:24Z</time>
      </trkpt>
      <trkpt lat="43.71747" lon="6.96434">
        <ele>642.6</ele>
        <time>2015-11-07T07:47:25Z</time>
      </trkpt>
      <trkpt lat="43.7175" lon="6.96431">
        <ele>642.2</ele>
        <time>2015-11-07T07:47:26Z</time>
      </trkpt>
      <trkpt lat="43.71754" lon="6.96428">
        <ele>641.8</ele>
        <time>2015-11-07T07:47:27Z</time>
      </trkpt>
      <trkpt lat="43.71767" lon="6.96408">
        <ele>641.4</ele>
        <time>2015-11-07T07:47:32Z</time>
      </trkpt>
      <trkpt lat="43.71769" lon="6.96404">
        <ele>641</ele>
        <time>2015-11-07T07:47:33Z</time>
      </trkpt>
      <trkpt lat="43.71772" lon="6.964">
        <ele>640.6</ele>
        <time>2015-11-07T07:47:34Z</time>
      </trkpt>
      <trkpt lat="43.71775" lon="6.96396">
        <ele>640.2</ele>
        <time>2015-11-07T07:47:35Z</time>
      </trkpt>
      <trkpt lat="43.71778" lon="6.96391">
        <ele>639.8</ele>
        <time>2015-11-07T07:47:36Z</time>
      </trkpt>
      <trkpt lat="43.7178" lon="6.96387">
        <ele>639.4</ele>
        <time>2015-11-07T07:47:37Z</time>
      </trkpt>
      <trkpt lat="43.71782" lon="6.96383">
        <ele>639</ele>
        <time>2015-11-07T07:47:38Z</time>
      </trkpt>
      <trkpt lat="43.71784" lon="6.96378">
        <ele>638.6</ele>
        <time>2015-11-07T07:47:39Z</time>
      </trkpt>
      <trkpt lat="43.71786" lon="6.96372">
        <ele>638.2</ele>
        <time>2015-11-07T07:47:40Z</time>
      </trkpt>
      <trkpt lat="43.71788" lon="6.96365">
        <ele>637.6</ele>
        <time>2015-11-07T07:47:41Z</time>
      </trkpt>
      <trkpt lat="43.7179" lon="6.96358">
        <ele>637.2</ele>
        <time>2015-11-07T07:47:42Z</time>
      </trkpt>
      <trkpt lat="43.71792" lon="6.96351">
        <ele>636.8</ele>
        <time>2015-11-07T07:47:43Z</time>
      </trkpt>
      <trkpt lat="43.71794" lon="6.96343">
        <ele>636.4</ele>
        <time>2015-11-07T07:47:44Z</time>
      </trkpt>
      <trkpt lat="43.71795" lon="6.96335">
        <ele>635.8</ele>
        <time>2015-11-07T07:47:45Z</time>
      </trkpt>
      <trkpt lat="43.71797" lon="6.96326">
        <ele>635.2</ele>
        <time>2015-11-07T07:47:46Z</time>
      </trkpt>
      <trkpt lat="43.71798" lon="6.96319">
        <ele>634.6</ele>
        <time>2015-11-07T07:47:47Z</time>
      </trkpt>
      <trkpt lat="43.718" lon="6.96311">
        <ele>634</ele>
        <time>2015-11-07T07:47:48Z</time>
      </trkpt>
      <trkpt lat="43.71801" lon="6.96303">
        <ele>633.4</ele>
        <time>2015-11-07T07:47:49Z</time>
      </trkpt>
      <trkpt lat="43.71802" lon="6.96295">
        <ele>633</ele>
        <time>2015-11-07T07:47:50Z</time>
      </trkpt>
      <trkpt lat="43.71804" lon="6.96287">
        <ele>632.6</ele>
        <time>2015-11-07T07:47:51Z</time>
      </trkpt>
      <trkpt lat="43.71805" lon="6.96279">
        <ele>632</ele>
        <time>2015-11-07T07:47:52Z</time>
      </trkpt>
      <trkpt lat="43.71807" lon="6.96271">
        <ele>631.6</ele>
        <time>2015-11-07T07:47:53Z</time>
      </trkpt>
      <trkpt lat="43.71808" lon="6.96263">
        <ele>631.2</ele>
        <time>2015-11-07T07:47:54Z</time>
      </trkpt>
      <trkpt lat="43.71813" lon="6.96244">
        <ele>631.2</ele>
        <time>2015-11-07T07:47:57Z</time>
      </trkpt>
      <trkpt lat="43.71816" lon="6.9624">
        <ele>631.2</ele>
        <time>2015-11-07T07:47:58Z</time>
      </trkpt>
      <trkpt lat="43.71832" lon="6.96223">
        <ele>631.2</ele>
        <time>2015-11-07T07:48:03Z</time>
      </trkpt>
      <trkpt lat="43.7184" lon="6.96208">
        <ele>631.2</ele>
        <time>2015-11-07T07:48:06Z</time>
      </trkpt>
      <trkpt lat="43.71845" lon="6.962">
        <ele>631.2</ele>
        <time>2015-11-07T07:48:08Z</time>
      </trkpt>
      <trkpt lat="43.7186" lon="6.96194">
        <ele>631.2</ele>
        <time>2015-11-07T07:48:12Z</time>
      </trkpt>
      <trkpt lat="43.71888" lon="6.96187">
        <ele>631.2</ele>
        <time>2015-11-07T07:48:20Z</time>
      </trkpt>
      <trkpt lat="43.71908" lon="6.96184">
        <ele>631.2</ele>
        <time>2015-11-07T07:48:25Z</time>
      </trkpt>
      <trkpt lat="43.71921" lon="6.96179">
        <ele>631.2</ele>
        <time>2015-11-07T07:48:28Z</time>
      </trkpt>
      <trkpt lat="43.71937" lon="6.96176">
        <ele>631.2</ele>
        <time>2015-11-07T07:48:33Z</time>
      </trkpt>
      <trkpt lat="43.71957" lon="6.96176">
        <ele>631.2</ele>
        <time>2015-11-07T07:48:39Z</time>
      </trkpt>
      <trkpt lat="43.71969" lon="6.96185">
        <ele>631.2</ele>
        <time>2015-11-07T07:48:44Z</time>
      </trkpt>
      <trkpt lat="43.7198" lon="6.96195">
        <ele>631.6</ele>
        <time>2015-11-07T07:48:49Z</time>
      </trkpt>
      <trkpt lat="43.71982" lon="6.96195">
        <ele>632</ele>
        <time>2015-11-07T07:48:50Z</time>
      </trkpt>
      <trkpt lat="43.71984" lon="6.96196">
        <ele>632.4</ele>
        <time>2015-11-07T07:48:51Z</time>
      </trkpt>
      <trkpt lat="43.71986" lon="6.96197">
        <ele>632.8</ele>
        <time>2015-11-07T07:48:52Z</time>
      </trkpt>
      <trkpt lat="43.71988" lon="6.96198">
        <ele>633.2</ele>
        <time>2015-11-07T07:48:53Z</time>
      </trkpt>
      <trkpt lat="43.71999" lon="6.96204">
        <ele>633.2</ele>
        <time>2015-11-07T07:48:59Z</time>
      </trkpt>
      <trkpt lat="43.72003" lon="6.96205">
        <ele>633.6</ele>
        <time>2015-11-07T07:49:02Z</time>
      </trkpt>
      <trkpt lat="43.72004" lon="6.96208">
        <ele>634</ele>
        <time>2015-11-07T07:49:03Z</time>
      </trkpt>
      <trkpt lat="43.72005" lon="6.96211">
        <ele>634.4</ele>
        <time>2015-11-07T07:49:04Z</time>
      </trkpt>
      <trkpt lat="43.72006" lon="6.96215">
        <ele>634.8</ele>
        <time>2015-11-07T07:49:05Z</time>
      </trkpt>
      <trkpt lat="43.72007" lon="6.96219">
        <ele>635.2</ele>
        <time>2015-11-07T07:49:06Z</time>
      </trkpt>
      <trkpt lat="43.72008" lon="6.96229">
        <ele>635.2</ele>
        <time>2015-11-07T07:49:08Z</time>
      </trkpt>
      <trkpt lat="43.7201" lon="6.96237">
        <ele>635.2</ele>
        <time>2015-11-07T07:49:10Z</time>
      </trkpt>
      <trkpt lat="43.72013" lon="6.96259">
        <ele>634.8</ele>
        <time>2015-11-07T07:49:14Z</time>
      </trkpt>
      <trkpt lat="43.72014" lon="6.96265">
        <ele>634.4</ele>
        <time>2015-11-07T07:49:15Z</time>
      </trkpt>
      <trkpt lat="43.72015" lon="6.96272">
        <ele>634</ele>
        <time>2015-11-07T07:49:16Z</time>
      </trkpt>
      <trkpt lat="43.72017" lon="6.96278">
        <ele>633.6</ele>
        <time>2015-11-07T07:49:17Z</time>
      </trkpt>
      <trkpt lat="43.72019" lon="6.96284">
        <ele>633</ele>
        <time>2015-11-07T07:49:18Z</time>
      </trkpt>
      <trkpt lat="43.72021" lon="6.96289">
        <ele>632.6</ele>
        <time>2015-11-07T07:49:19Z</time>
      </trkpt>
      <trkpt lat="43.72024" lon="6.96295">
        <ele>632</ele>
        <time>2015-11-07T07:49:20Z</time>
      </trkpt>
      <trkpt lat="43.72027" lon="6.963">
        <ele>631.4</ele>
        <time>2015-11-07T07:49:21Z</time>
      </trkpt>
      <trkpt lat="43.72028" lon="6.96307">
        <ele>631</ele>
        <time>2015-11-07T07:49:22Z</time>
      </trkpt>
      <trkpt lat="43.72029" lon="6.96313">
        <ele>630.4</ele>
        <time>2015-11-07T07:49:23Z</time>
      </trkpt>
      <trkpt lat="43.72029" lon="6.96319">
        <ele>630</ele>
        <time>2015-11-07T07:49:24Z</time>
      </trkpt>
      <trkpt lat="43.72029" lon="6.96326">
        <ele>629.6</ele>
        <time>2015-11-07T07:49:25Z</time>
      </trkpt>
      <trkpt lat="43.7203" lon="6.96333">
        <ele>629.2</ele>
        <time>2015-11-07T07:49:26Z</time>
      </trkpt>
      <trkpt lat="43.7203" lon="6.96341">
        <ele>628.6</ele>
        <time>2015-11-07T07:49:27Z</time>
      </trkpt>
      <trkpt lat="43.72031" lon="6.96349">
        <ele>628.2</ele>
        <time>2015-11-07T07:49:28Z</time>
      </trkpt>
      <trkpt lat="43.72033" lon="6.96358">
        <ele>627.4</ele>
        <time>2015-11-07T07:49:29Z</time>
      </trkpt>
      <trkpt lat="43.72035" lon="6.96367">
        <ele>626.6</ele>
        <time>2015-11-07T07:49:30Z</time>
      </trkpt>
      <trkpt lat="43.72038" lon="6.96374">
        <ele>626</ele>
        <time>2015-11-07T07:49:31Z</time>
      </trkpt>
      <trkpt lat="43.72041" lon="6.96382">
        <ele>625.2</ele>
        <time>2015-11-07T07:49:32Z</time>
      </trkpt>
      <trkpt lat="43.72043" lon="6.9639">
        <ele>624.4</ele>
        <time>2015-11-07T07:49:33Z</time>
      </trkpt>
      <trkpt lat="43.72052" lon="6.9642">
        <ele>624.4</ele>
        <time>2015-11-07T07:49:37Z</time>
      </trkpt>
      <trkpt lat="43.72055" lon="6.96433">
        <ele>624.4</ele>
        <time>2015-11-07T07:49:39Z</time>
      </trkpt>
      <trkpt lat="43.72057" lon="6.96448">
        <ele>624.4</ele>
        <time>2015-11-07T07:49:42Z</time>
      </trkpt>
      <trkpt lat="43.72059" lon="6.9649">
        <ele>624.4</ele>
        <time>2015-11-07T07:49:50Z</time>
      </trkpt>
      <trkpt lat="43.72064" lon="6.96525">
        <ele>624.4</ele>
        <time>2015-11-07T07:49:57Z</time>
      </trkpt>
      <trkpt lat="43.72066" lon="6.96532">
        <ele>624.8</ele>
        <time>2015-11-07T07:49:59Z</time>
      </trkpt>
      <trkpt lat="43.72067" lon="6.96535">
        <ele>625.2</ele>
        <time>2015-11-07T07:50:00Z</time>
      </trkpt>
      <trkpt lat="43.72068" lon="6.96539">
        <ele>625.8</ele>
        <time>2015-11-07T07:50:01Z</time>
      </trkpt>
      <trkpt lat="43.7207" lon="6.96543">
        <ele>626.2</ele>
        <time>2015-11-07T07:50:02Z</time>
      </trkpt>
      <trkpt lat="43.72071" lon="6.96546">
        <ele>626.6</ele>
        <time>2015-11-07T07:50:03Z</time>
      </trkpt>
      <trkpt lat="43.72073" lon="6.96549">
        <ele>626.6</ele>
        <time>2015-11-07T07:50:04Z</time>
      </trkpt>
      <trkpt lat="43.72075" lon="6.96552">
        <ele>627.2</ele>
        <time>2015-11-07T07:50:05Z</time>
      </trkpt>
      <trkpt lat="43.72077" lon="6.96555">
        <ele>627.6</ele>
        <time>2015-11-07T07:50:06Z</time>
      </trkpt>
      <trkpt lat="43.7208" lon="6.96557">
        <ele>628</ele>
        <time>2015-11-07T07:50:07Z</time>
      </trkpt>
      <trkpt lat="43.72083" lon="6.96558">
        <ele>628.4</ele>
        <time>2015-11-07T07:50:08Z</time>
      </trkpt>
      <trkpt lat="43.72086" lon="6.96557">
        <ele>629</ele>
        <time>2015-11-07T07:50:09Z</time>
      </trkpt>
      <trkpt lat="43.72088" lon="6.96556">
        <ele>629</ele>
        <time>2015-11-07T07:50:10Z</time>
      </trkpt>
      <trkpt lat="43.7212" lon="6.96545">
        <ele>629</ele>
        <time>2015-11-07T07:50:21Z</time>
      </trkpt>
      <trkpt lat="43.72138" lon="6.96531">
        <ele>629</ele>
        <time>2015-11-07T07:50:28Z</time>
      </trkpt>
      <trkpt lat="43.7216" lon="6.96513">
        <ele>629</ele>
        <time>2015-11-07T07:50:35Z</time>
      </trkpt>
      <trkpt lat="43.72183" lon="6.96493">
        <ele>629</ele>
        <time>2015-11-07T07:50:41Z</time>
      </trkpt>
      <trkpt lat="43.72186" lon="6.96493">
        <ele>629</ele>
        <time>2015-11-07T07:50:42Z</time>
      </trkpt>
      <trkpt lat="43.7219" lon="6.96493">
        <ele>628.6</ele>
        <time>2015-11-07T07:50:43Z</time>
      </trkpt>
      <trkpt lat="43.72195" lon="6.96494">
        <ele>628.2</ele>
        <time>2015-11-07T07:50:44Z</time>
      </trkpt>
      <trkpt lat="43.72199" lon="6.96495">
        <ele>627.8</ele>
        <time>2015-11-07T07:50:45Z</time>
      </trkpt>
      <trkpt lat="43.72203" lon="6.96497">
        <ele>627.2</ele>
        <time>2015-11-07T07:50:46Z</time>
      </trkpt>
      <trkpt lat="43.72207" lon="6.96501">
        <ele>626.8</ele>
        <time>2015-11-07T07:50:47Z</time>
      </trkpt>
      <trkpt lat="43.72214" lon="6.96512">
        <ele>626.8</ele>
        <time>2015-11-07T07:50:50Z</time>
      </trkpt>
      <trkpt lat="43.72218" lon="6.96524">
        <ele>626.8</ele>
        <time>2015-11-07T07:50:53Z</time>
      </trkpt>
      <trkpt lat="43.72221" lon="6.96534">
        <ele>626.8</ele>
        <time>2015-11-07T07:50:56Z</time>
      </trkpt>
      <trkpt lat="43.72228" lon="6.96559">
        <ele>626.8</ele>
        <time>2015-11-07T07:51:03Z</time>
      </trkpt>
      <trkpt lat="43.72235" lon="6.96586">
        <ele>626.8</ele>
        <time>2015-11-07T07:51:11Z</time>
      </trkpt>
      <trkpt lat="43.72235" lon="6.96593">
        <ele>627.4</ele>
        <time>2015-11-07T07:51:13Z</time>
      </trkpt>
      <trkpt lat="43.72236" lon="6.96596">
        <ele>627.8</ele>
        <time>2015-11-07T07:51:14Z</time>
      </trkpt>
      <trkpt lat="43.72237" lon="6.96598">
        <ele>628.2</ele>
        <time>2015-11-07T07:51:15Z</time>
      </trkpt>
      <trkpt lat="43.72237" lon="6.96602">
        <ele>628.6</ele>
        <time>2015-11-07T07:51:16Z</time>
      </trkpt>
      <trkpt lat="43.72237" lon="6.96604">
        <ele>629</ele>
        <time>2015-11-07T07:51:17Z</time>
      </trkpt>
      <trkpt lat="43.72237" lon="6.96608">
        <ele>629</ele>
        <time>2015-11-07T07:51:18Z</time>
      </trkpt>
      <trkpt lat="43.72235" lon="6.96625">
        <ele>629.4</ele>
        <time>2015-11-07T07:51:23Z</time>
      </trkpt>
      <trkpt lat="43.72234" lon="6.96628">
        <ele>629.8</ele>
        <time>2015-11-07T07:51:24Z</time>
      </trkpt>
      <trkpt lat="43.72233" lon="6.96631">
        <ele>630.2</ele>
        <time>2015-11-07T07:51:25Z</time>
      </trkpt>
      <trkpt lat="43.72231" lon="6.96633">
        <ele>630.6</ele>
        <time>2015-11-07T07:51:26Z</time>
      </trkpt>
      <trkpt lat="43.7223" lon="6.96635">
        <ele>631.2</ele>
        <time>2015-11-07T07:51:27Z</time>
      </trkpt>
      <trkpt lat="43.72228" lon="6.9664">
        <ele>631.6</ele>
        <time>2015-11-07T07:51:29Z</time>
      </trkpt>
      <trkpt lat="43.72227" lon="6.96643">
        <ele>632</ele>
        <time>2015-11-07T07:51:30Z</time>
      </trkpt>
      <trkpt lat="43.72226" lon="6.96645">
        <ele>632.4</ele>
        <time>2015-11-07T07:51:31Z</time>
      </trkpt>
      <trkpt lat="43.72226" lon="6.96648">
        <ele>632.8</ele>
        <time>2015-11-07T07:51:32Z</time>
      </trkpt>
      <trkpt lat="43.72227" lon="6.96651">
        <ele>633.2</ele>
        <time>2015-11-07T07:51:33Z</time>
      </trkpt>
      <trkpt lat="43.72227" lon="6.96653">
        <ele>633.2</ele>
        <time>2015-11-07T07:51:34Z</time>
      </trkpt>
      <trkpt lat="43.72226" lon="6.96662">
        <ele>633.6</ele>
        <time>2015-11-07T07:51:37Z</time>
      </trkpt>
      <trkpt lat="43.72226" lon="6.96665">
        <ele>634</ele>
        <time>2015-11-07T07:51:38Z</time>
      </trkpt>
      <trkpt lat="43.72226" lon="6.96668">
        <ele>634.4</ele>
        <time>2015-11-07T07:51:39Z</time>
      </trkpt>
      <trkpt lat="43.72227" lon="6.96671">
        <ele>634.8</ele>
        <time>2015-11-07T07:51:40Z</time>
      </trkpt>
      <trkpt lat="43.72227" lon="6.96674">
        <ele>635.4</ele>
        <time>2015-11-07T07:51:41Z</time>
      </trkpt>
      <trkpt lat="43.72228" lon="6.96677">
        <ele>635.4</ele>
        <time>2015-11-07T07:51:42Z</time>
      </trkpt>
      <trkpt lat="43.72234" lon="6.96706">
        <ele>635.4</ele>
        <time>2015-11-07T07:51:50Z</time>
      </trkpt>
      <trkpt lat="43.7224" lon="6.96735">
        <ele>635.4</ele>
        <time>2015-11-07T07:51:58Z</time>
      </trkpt>
      <trkpt lat="43.72244" lon="6.96758">
        <ele>635.8</ele>
        <time>2015-11-07T07:52:04Z</time>
      </trkpt>
      <trkpt lat="43.72245" lon="6.96761">
        <ele>636.2</ele>
        <time>2015-11-07T07:52:05Z</time>
      </trkpt>
      <trkpt lat="43.72245" lon="6.96764">
        <ele>636.6</ele>
        <time>2015-11-07T07:52:06Z</time>
      </trkpt>
      <trkpt lat="43.72246" lon="6.96767">
        <ele>637</ele>
        <time>2015-11-07T07:52:07Z</time>
      </trkpt>
      <trkpt lat="43.72246" lon="6.96769">
        <ele>637.4</ele>
        <time>2015-11-07T07:52:08Z</time>
      </trkpt>
      <trkpt lat="43.72247" lon="6.96773">
        <ele>637.4</ele>
        <time>2015-11-07T07:52:12Z</time>
      </trkpt>
      <trkpt lat="43.7225" lon="6.96789">
        <ele>637.4</ele>
        <time>2015-11-07T07:52:18Z</time>
      </trkpt>
      <trkpt lat="43.72252" lon="6.96783">
        <ele>637.4</ele>
        <time>2015-11-07T07:52:21Z</time>
      </trkpt>
      <trkpt lat="43.72251" lon="6.9678">
        <ele>637.4</ele>
        <time>2015-11-07T07:52:22Z</time>
      </trkpt>
      <trkpt lat="43.72252" lon="6.96775">
        <ele>638</ele>
        <time>2015-11-07T07:52:24Z</time>
      </trkpt>
      <trkpt lat="43.72252" lon="6.96772">
        <ele>638.4</ele>
        <time>2015-11-07T07:52:25Z</time>
      </trkpt>
      <trkpt lat="43.72252" lon="6.96769">
        <ele>638.8</ele>
        <time>2015-11-07T07:52:26Z</time>
      </trkpt>
      <trkpt lat="43.72252" lon="6.96767">
        <ele>639.4</ele>
        <time>2015-11-07T07:52:27Z</time>
      </trkpt>
      <trkpt lat="43.72252" lon="6.96764">
        <ele>639.8</ele>
        <time>2015-11-07T07:52:28Z</time>
      </trkpt>
      <trkpt lat="43.72252" lon="6.9676">
        <ele>639.8</ele>
        <time>2015-11-07T07:52:30Z</time>
      </trkpt>
      <trkpt lat="43.72252" lon="6.96758">
        <ele>640.2</ele>
        <time>2015-11-07T07:52:31Z</time>
      </trkpt>
      <trkpt lat="43.72252" lon="6.96755">
        <ele>640.6</ele>
        <time>2015-11-07T07:52:32Z</time>
      </trkpt>
      <trkpt lat="43.72252" lon="6.96753">
        <ele>641.2</ele>
        <time>2015-11-07T07:52:33Z</time>
      </trkpt>
      <trkpt lat="43.72252" lon="6.96751">
        <ele>641.6</ele>
        <time>2015-11-07T07:52:34Z</time>
      </trkpt>
      <trkpt lat="43.72253" lon="6.9675">
        <ele>642</ele>
        <time>2015-11-07T07:52:35Z</time>
      </trkpt>
      <trkpt lat="43.72255" lon="6.96732">
        <ele>642</ele>
        <time>2015-11-07T07:52:42Z</time>
      </trkpt>
      <trkpt lat="43.72259" lon="6.96724">
        <ele>642.4</ele>
        <time>2015-11-07T07:52:47Z</time>
      </trkpt>
      <trkpt lat="43.7226" lon="6.96723">
        <ele>642.8</ele>
        <time>2015-11-07T07:52:48Z</time>
      </trkpt>
      <trkpt lat="43.72262" lon="6.96723">
        <ele>643.2</ele>
        <time>2015-11-07T07:52:49Z</time>
      </trkpt>
      <trkpt lat="43.72264" lon="6.96724">
        <ele>643.6</ele>
        <time>2015-11-07T07:52:50Z</time>
      </trkpt>
      <trkpt lat="43.72265" lon="6.96723">
        <ele>644</ele>
        <time>2015-11-07T07:52:51Z</time>
      </trkpt>
      <trkpt lat="43.72277" lon="6.96718">
        <ele>644</ele>
        <time>2015-11-07T07:52:58Z</time>
      </trkpt>
      <trkpt lat="43.72291" lon="6.96716">
        <ele>644</ele>
        <time>2015-11-07T07:53:04Z</time>
      </trkpt>
      <trkpt lat="43.72303" lon="6.9671">
        <ele>644</ele>
        <time>2015-11-07T07:53:09Z</time>
      </trkpt>
      <trkpt lat="43.72322" lon="6.9671">
        <ele>644</ele>
        <time>2015-11-07T07:53:17Z</time>
      </trkpt>
      <trkpt lat="43.72338" lon="6.96711">
        <ele>644</ele>
        <time>2015-11-07T07:53:24Z</time>
      </trkpt>
      <trkpt lat="43.7235" lon="6.96714">
        <ele>644.4</ele>
        <time>2015-11-07T07:53:30Z</time>
      </trkpt>
      <trkpt lat="43.72351" lon="6.96714">
        <ele>644.8</ele>
        <time>2015-11-07T07:53:31Z</time>
      </trkpt>
      <trkpt lat="43.72353" lon="6.96714">
        <ele>645.4</ele>
        <time>2015-11-07T07:53:32Z</time>
      </trkpt>
      <trkpt lat="43.72354" lon="6.96713">
        <ele>645.8</ele>
        <time>2015-11-07T07:53:33Z</time>
      </trkpt>
      <trkpt lat="43.72356" lon="6.96712">
        <ele>646.2</ele>
        <time>2015-11-07T07:53:34Z</time>
      </trkpt>
      <trkpt lat="43.72361" lon="6.96701">
        <ele>646.2</ele>
        <time>2015-11-07T07:53:40Z</time>
      </trkpt>
      <trkpt lat="43.72365" lon="6.96684">
        <ele>646.2</ele>
        <time>2015-11-07T07:53:45Z</time>
      </trkpt>
      <trkpt lat="43.72375" lon="6.96659">
        <ele>646.2</ele>
        <time>2015-11-07T07:53:55Z</time>
      </trkpt>
      <trkpt lat="43.72378" lon="6.96636">
        <ele>646.6</ele>
        <time>2015-11-07T07:54:04Z</time>
      </trkpt>
      <trkpt lat="43.72378" lon="6.96634">
        <ele>647</ele>
        <time>2015-11-07T07:54:05Z</time>
      </trkpt>
      <trkpt lat="43.72379" lon="6.96631">
        <ele>647.4</ele>
        <time>2015-11-07T07:54:06Z</time>
      </trkpt>
      <trkpt lat="43.72379" lon="6.96628">
        <ele>647.8</ele>
        <time>2015-11-07T07:54:07Z</time>
      </trkpt>
      <trkpt lat="43.7238" lon="6.96626">
        <ele>648.2</ele>
        <time>2015-11-07T07:54:08Z</time>
      </trkpt>
      <trkpt lat="43.72383" lon="6.96618">
        <ele>648.6</ele>
        <time>2015-11-07T07:54:12Z</time>
      </trkpt>
      <trkpt lat="43.72384" lon="6.96616">
        <ele>649</ele>
        <time>2015-11-07T07:54:13Z</time>
      </trkpt>
      <trkpt lat="43.72384" lon="6.96614">
        <ele>649.4</ele>
        <time>2015-11-07T07:54:14Z</time>
      </trkpt>
      <trkpt lat="43.72385" lon="6.96613">
        <ele>649.8</ele>
        <time>2015-11-07T07:54:15Z</time>
      </trkpt>
      <trkpt lat="43.72386" lon="6.96612">
        <ele>650.2</ele>
        <time>2015-11-07T07:54:16Z</time>
      </trkpt>
      <trkpt lat="43.72389" lon="6.96611">
        <ele>650.6</ele>
        <time>2015-11-07T07:54:18Z</time>
      </trkpt>
      <trkpt lat="43.7239" lon="6.96611">
        <ele>651</ele>
        <time>2015-11-07T07:54:19Z</time>
      </trkpt>
      <trkpt lat="43.72392" lon="6.96611">
        <ele>651.4</ele>
        <time>2015-11-07T07:54:20Z</time>
      </trkpt>
      <trkpt lat="43.72393" lon="6.9661">
        <ele>651.8</ele>
        <time>2015-11-07T07:54:21Z</time>
      </trkpt>
      <trkpt lat="43.72395" lon="6.9661">
        <ele>652.2</ele>
        <time>2015-11-07T07:54:22Z</time>
      </trkpt>
      <trkpt lat="43.72397" lon="6.96609">
        <ele>652.2</ele>
        <time>2015-11-07T07:54:23Z</time>
      </trkpt>
      <trkpt lat="43.72402" lon="6.96609">
        <ele>652.6</ele>
        <time>2015-11-07T07:54:26Z</time>
      </trkpt>
      <trkpt lat="43.72404" lon="6.96609">
        <ele>653</ele>
        <time>2015-11-07T07:54:27Z</time>
      </trkpt>
      <trkpt lat="43.72405" lon="6.9661">
        <ele>653.4</ele>
        <time>2015-11-07T07:54:28Z</time>
      </trkpt>
      <trkpt lat="43.72407" lon="6.9661">
        <ele>653.8</ele>
        <time>2015-11-07T07:54:29Z</time>
      </trkpt>
      <trkpt lat="43.72407" lon="6.9661">
        <ele>654.2</ele>
        <time>2015-11-07T07:54:30Z</time>
      </trkpt>
      <trkpt lat="43.72411" lon="6.96611">
        <ele>654.2</ele>
        <time>2015-11-07T07:54:34Z</time>
      </trkpt>
      <trkpt lat="43.72414" lon="6.96612">
        <ele>654.8</ele>
        <time>2015-11-07T07:54:36Z</time>
      </trkpt>
      <trkpt lat="43.72417" lon="6.96613">
        <ele>655.2</ele>
        <time>2015-11-07T07:54:37Z</time>
      </trkpt>
      <trkpt lat="43.72419" lon="6.96614">
        <ele>655.6</ele>
        <time>2015-11-07T07:54:38Z</time>
      </trkpt>
      <trkpt lat="43.72421" lon="6.96614">
        <ele>656.2</ele>
        <time>2015-11-07T07:54:39Z</time>
      </trkpt>
      <trkpt lat="43.72422" lon="6.96615">
        <ele>656.6</ele>
        <time>2015-11-07T07:54:40Z</time>
      </trkpt>
      <trkpt lat="43.72427" lon="6.9662">
        <ele>656.6</ele>
        <time>2015-11-07T07:54:45Z</time>
      </trkpt>
      <trkpt lat="43.72431" lon="6.96634">
        <ele>657</ele>
        <time>2015-11-07T07:54:55Z</time>
      </trkpt>
      <trkpt lat="43.72432" lon="6.96636">
        <ele>657.6</ele>
        <time>2015-11-07T07:54:56Z</time>
      </trkpt>
      <trkpt lat="43.72432" lon="6.96637">
        <ele>658</ele>
        <time>2015-11-07T07:54:57Z</time>
      </trkpt>
      <trkpt lat="43.72432" lon="6.96639">
        <ele>658.4</ele>
        <time>2015-11-07T07:54:58Z</time>
      </trkpt>
      <trkpt lat="43.72432" lon="6.96641">
        <ele>659</ele>
        <time>2015-11-07T07:54:59Z</time>
      </trkpt>
      <trkpt lat="43.72433" lon="6.96652">
        <ele>659.4</ele>
        <time>2015-11-07T07:55:05Z</time>
      </trkpt>
      <trkpt lat="43.72433" lon="6.96654">
        <ele>659.8</ele>
        <time>2015-11-07T07:55:06Z</time>
      </trkpt>
      <trkpt lat="43.72433" lon="6.96655">
        <ele>660.2</ele>
        <time>2015-11-07T07:55:07Z</time>
      </trkpt>
      <trkpt lat="43.72433" lon="6.96657">
        <ele>660.6</ele>
        <time>2015-11-07T07:55:08Z</time>
      </trkpt>
      <trkpt lat="43.72432" lon="6.96659">
        <ele>661</ele>
        <time>2015-11-07T07:55:09Z</time>
      </trkpt>
      <trkpt lat="43.72434" lon="6.96674">
        <ele>661.4</ele>
        <time>2015-11-07T07:55:15Z</time>
      </trkpt>
      <trkpt lat="43.72435" lon="6.96675">
        <ele>661.8</ele>
        <time>2015-11-07T07:55:16Z</time>
      </trkpt>
      <trkpt lat="43.72436" lon="6.96677">
        <ele>662.2</ele>
        <time>2015-11-07T07:55:17Z</time>
      </trkpt>
      <trkpt lat="43.72437" lon="6.96679">
        <ele>662.6</ele>
        <time>2015-11-07T07:55:18Z</time>
      </trkpt>
      <trkpt lat="43.72438" lon="6.9668">
        <ele>663</ele>
        <time>2015-11-07T07:55:19Z</time>
      </trkpt>
      <trkpt lat="43.72439" lon="6.96682">
        <ele>663</ele>
        <time>2015-11-07T07:55:21Z</time>
      </trkpt>
      <trkpt lat="43.72446" lon="6.96693">
        <ele>663.4</ele>
        <time>2015-11-07T07:55:27Z</time>
      </trkpt>
      <trkpt lat="43.72447" lon="6.96694">
        <ele>664</ele>
        <time>2015-11-07T07:55:28Z</time>
      </trkpt>
      <trkpt lat="43.72448" lon="6.96695">
        <ele>664.4</ele>
        <time>2015-11-07T07:55:29Z</time>
      </trkpt>
      <trkpt lat="43.7245" lon="6.96695">
        <ele>664.8</ele>
        <time>2015-11-07T07:55:30Z</time>
      </trkpt>
      <trkpt lat="43.72451" lon="6.96696">
        <ele>665.4</ele>
        <time>2015-11-07T07:55:31Z</time>
      </trkpt>
      <trkpt lat="43.72455" lon="6.96701">
        <ele>665.4</ele>
        <time>2015-11-07T07:55:36Z</time>
      </trkpt>
      <trkpt lat="43.72459" lon="6.96708">
        <ele>665.8</ele>
        <time>2015-11-07T07:55:41Z</time>
      </trkpt>
      <trkpt lat="43.72462" lon="6.9671">
        <ele>666.2</ele>
        <time>2015-11-07T07:55:42Z</time>
      </trkpt>
      <trkpt lat="43.72463" lon="6.96712">
        <ele>666.6</ele>
        <time>2015-11-07T07:55:43Z</time>
      </trkpt>
      <trkpt lat="43.72465" lon="6.96714">
        <ele>667</ele>
        <time>2015-11-07T07:55:44Z</time>
      </trkpt>
      <trkpt lat="43.72467" lon="6.96716">
        <ele>667.4</ele>
        <time>2015-11-07T07:55:45Z</time>
      </trkpt>
      <trkpt lat="43.7247" lon="6.9672">
        <ele>667.4</ele>
        <time>2015-11-07T07:55:47Z</time>
      </trkpt>
      <trkpt lat="43.72473" lon="6.96722">
        <ele>667.8</ele>
        <time>2015-11-07T07:55:49Z</time>
      </trkpt>
      <trkpt lat="43.72475" lon="6.96722">
        <ele>668.2</ele>
        <time>2015-11-07T07:55:50Z</time>
      </trkpt>
      <trkpt lat="43.72477" lon="6.96722">
        <ele>668.8</ele>
        <time>2015-11-07T07:55:51Z</time>
      </trkpt>
      <trkpt lat="43.72478" lon="6.96721">
        <ele>669.2</ele>
        <time>2015-11-07T07:55:52Z</time>
      </trkpt>
      <trkpt lat="43.72479" lon="6.96722">
        <ele>669.6</ele>
        <time>2015-11-07T07:55:53Z</time>
      </trkpt>
      <trkpt lat="43.72481" lon="6.96723">
        <ele>669.6</ele>
        <time>2015-11-07T07:55:54Z</time>
      </trkpt>
      <trkpt lat="43.72482" lon="6.96724">
        <ele>670</ele>
        <time>2015-11-07T07:55:55Z</time>
      </trkpt>
      <trkpt lat="43.72482" lon="6.96726">
        <ele>670.6</ele>
        <time>2015-11-07T07:55:56Z</time>
      </trkpt>
      <trkpt lat="43.72482" lon="6.96727">
        <ele>671.2</ele>
        <time>2015-11-07T07:55:57Z</time>
      </trkpt>
      <trkpt lat="43.72483" lon="6.96729">
        <ele>671.6</ele>
        <time>2015-11-07T07:55:58Z</time>
      </trkpt>
      <trkpt lat="43.72483" lon="6.9673">
        <ele>672.2</ele>
        <time>2015-11-07T07:55:59Z</time>
      </trkpt>
      <trkpt lat="43.72483" lon="6.96731">
        <ele>672.2</ele>
        <time>2015-11-07T07:56:00Z</time>
      </trkpt>
      <trkpt lat="43.72484" lon="6.96739">
        <ele>672.6</ele>
        <time>2015-11-07T07:56:05Z</time>
      </trkpt>
      <trkpt lat="43.72484" lon="6.96741">
        <ele>673</ele>
        <time>2015-11-07T07:56:06Z</time>
      </trkpt>
      <trkpt lat="43.72485" lon="6.96743">
        <ele>673.4</ele>
        <time>2015-11-07T07:56:07Z</time>
      </trkpt>
      <trkpt lat="43.72485" lon="6.96745">
        <ele>673.8</ele>
        <time>2015-11-07T07:56:08Z</time>
      </trkpt>
      <trkpt lat="43.72486" lon="6.96746">
        <ele>674.2</ele>
        <time>2015-11-07T07:56:09Z</time>
      </trkpt>
      <trkpt lat="43.72486" lon="6.96754">
        <ele>674.2</ele>
        <time>2015-11-07T07:56:13Z</time>
      </trkpt>
      <trkpt lat="43.72489" lon="6.96759">
        <ele>674.6</ele>
        <time>2015-11-07T07:56:16Z</time>
      </trkpt>
      <trkpt lat="43.72489" lon="6.96761">
        <ele>675</ele>
        <time>2015-11-07T07:56:17Z</time>
      </trkpt>
      <trkpt lat="43.7249" lon="6.96763">
        <ele>675.4</ele>
        <time>2015-11-07T07:56:18Z</time>
      </trkpt>
      <trkpt lat="43.72491" lon="6.96765">
        <ele>675.8</ele>
        <time>2015-11-07T07:56:19Z</time>
      </trkpt>
      <trkpt lat="43.72492" lon="6.96766">
        <ele>676.4</ele>
        <time>2015-11-07T07:56:20Z</time>
      </trkpt>
      <trkpt lat="43.72498" lon="6.96772">
        <ele>676.4</ele>
        <time>2015-11-07T07:56:25Z</time>
      </trkpt>
      <trkpt lat="43.725" lon="6.96771">
        <ele>676.4</ele>
        <time>2015-11-07T07:56:27Z</time>
      </trkpt>
      <trkpt lat="43.72501" lon="6.96766">
        <ele>676.8</ele>
        <time>2015-11-07T07:56:31Z</time>
      </trkpt>
      <trkpt lat="43.72501" lon="6.96765">
        <ele>677.2</ele>
        <time>2015-11-07T07:56:32Z</time>
      </trkpt>
      <trkpt lat="43.725" lon="6.96763">
        <ele>677.6</ele>
        <time>2015-11-07T07:56:33Z</time>
      </trkpt>
      <trkpt lat="43.725" lon="6.96761">
        <ele>678</ele>
        <time>2015-11-07T07:56:34Z</time>
      </trkpt>
      <trkpt lat="43.72501" lon="6.96761">
        <ele>678.4</ele>
        <time>2015-11-07T07:56:35Z</time>
      </trkpt>
      <trkpt lat="43.72505" lon="6.96756">
        <ele>678.4</ele>
        <time>2015-11-07T07:56:40Z</time>
      </trkpt>
      <trkpt lat="43.72507" lon="6.96757">
        <ele>678.8</ele>
        <time>2015-11-07T07:56:42Z</time>
      </trkpt>
      <trkpt lat="43.72508" lon="6.96758">
        <ele>679.2</ele>
        <time>2015-11-07T07:56:43Z</time>
      </trkpt>
      <trkpt lat="43.7251" lon="6.96759">
        <ele>679.6</ele>
        <time>2015-11-07T07:56:44Z</time>
      </trkpt>
      <trkpt lat="43.72511" lon="6.9676">
        <ele>680</ele>
        <time>2015-11-07T07:56:45Z</time>
      </trkpt>
      <trkpt lat="43.72512" lon="6.9676">
        <ele>680.4</ele>
        <time>2015-11-07T07:56:46Z</time>
      </trkpt>
      <trkpt lat="43.72515" lon="6.96762">
        <ele>680.4</ele>
        <time>2015-11-07T07:56:48Z</time>
      </trkpt>
      <trkpt lat="43.72519" lon="6.96766">
        <ele>681</ele>
        <time>2015-11-07T07:56:52Z</time>
      </trkpt>
      <trkpt lat="43.7252" lon="6.96767">
        <ele>681.4</ele>
        <time>2015-11-07T07:56:53Z</time>
      </trkpt>
      <trkpt lat="43.72522" lon="6.96768">
        <ele>681.8</ele>
        <time>2015-11-07T07:56:54Z</time>
      </trkpt>
      <trkpt lat="43.72523" lon="6.96769">
        <ele>682.2</ele>
        <time>2015-11-07T07:56:55Z</time>
      </trkpt>
      <trkpt lat="43.72524" lon="6.96771">
        <ele>682.6</ele>
        <time>2015-11-07T07:56:56Z</time>
      </trkpt>
      <trkpt lat="43.72534" lon="6.96778">
        <ele>683.2</ele>
        <time>2015-11-07T07:57:04Z</time>
      </trkpt>
      <trkpt lat="43.72536" lon="6.96779">
        <ele>683.6</ele>
        <time>2015-11-07T07:57:05Z</time>
      </trkpt>
      <trkpt lat="43.72537" lon="6.96779">
        <ele>684.2</ele>
        <time>2015-11-07T07:57:06Z</time>
      </trkpt>
      <trkpt lat="43.72539" lon="6.9678">
        <ele>684.6</ele>
        <time>2015-11-07T07:57:07Z</time>
      </trkpt>
      <trkpt lat="43.7254" lon="6.96781">
        <ele>685</ele>
        <time>2015-11-07T07:57:08Z</time>
      </trkpt>
      <trkpt lat="43.72551" lon="6.96789">
        <ele>685.4</ele>
        <time>2015-11-07T07:57:15Z</time>
      </trkpt>
      <trkpt lat="43.72552" lon="6.96789">
        <ele>685.8</ele>
        <time>2015-11-07T07:57:16Z</time>
      </trkpt>
      <trkpt lat="43.72554" lon="6.9679">
        <ele>686.4</ele>
        <time>2015-11-07T07:57:17Z</time>
      </trkpt>
      <trkpt lat="43.72555" lon="6.96791">
        <ele>686.8</ele>
        <time>2015-11-07T07:57:18Z</time>
      </trkpt>
      <trkpt lat="43.72556" lon="6.96792">
        <ele>687.2</ele>
        <time>2015-11-07T07:57:19Z</time>
      </trkpt>
      <trkpt lat="43.72562" lon="6.96796">
        <ele>687.6</ele>
        <time>2015-11-07T07:57:25Z</time>
      </trkpt>
      <trkpt lat="43.72563" lon="6.96797">
        <ele>688</ele>
        <time>2015-11-07T07:57:26Z</time>
      </trkpt>
      <trkpt lat="43.72564" lon="6.96799">
        <ele>688.4</ele>
        <time>2015-11-07T07:57:27Z</time>
      </trkpt>
      <trkpt lat="43.72565" lon="6.968">
        <ele>688.8</ele>
        <time>2015-11-07T07:57:28Z</time>
      </trkpt>
      <trkpt lat="43.72566" lon="6.968">
        <ele>689.2</ele>
        <time>2015-11-07T07:57:29Z</time>
      </trkpt>
      <trkpt lat="43.72569" lon="6.96803">
        <ele>689.2</ele>
        <time>2015-11-07T07:57:32Z</time>
      </trkpt>
      <trkpt lat="43.72573" lon="6.96807">
        <ele>689.6</ele>
        <time>2015-11-07T07:57:35Z</time>
      </trkpt>
      <trkpt lat="43.72574" lon="6.96809">
        <ele>690.2</ele>
        <time>2015-11-07T07:57:36Z</time>
      </trkpt>
      <trkpt lat="43.72575" lon="6.96811">
        <ele>690.6</ele>
        <time>2015-11-07T07:57:37Z</time>
      </trkpt>
      <trkpt lat="43.72576" lon="6.96813">
        <ele>691</ele>
        <time>2015-11-07T07:57:38Z</time>
      </trkpt>
      <trkpt lat="43.72577" lon="6.96815">
        <ele>691.4</ele>
        <time>2015-11-07T07:57:39Z</time>
      </trkpt>
      <trkpt lat="43.72579" lon="6.96818">
        <ele>691.4</ele>
        <time>2015-11-07T07:57:41Z</time>
      </trkpt>
      <trkpt lat="43.72589" lon="6.9683">
        <ele>692</ele>
        <time>2015-11-07T07:57:50Z</time>
      </trkpt>
      <trkpt lat="43.7259" lon="6.96831">
        <ele>692.4</ele>
        <time>2015-11-07T07:57:51Z</time>
      </trkpt>
      <trkpt lat="43.72591" lon="6.96832">
        <ele>692.8</ele>
        <time>2015-11-07T07:57:52Z</time>
      </trkpt>
      <trkpt lat="43.72591" lon="6.96833">
        <ele>693.2</ele>
        <time>2015-11-07T07:57:53Z</time>
      </trkpt>
      <trkpt lat="43.72593" lon="6.96835">
        <ele>693.8</ele>
        <time>2015-11-07T07:57:54Z</time>
      </trkpt>
      <trkpt lat="43.72598" lon="6.9684">
        <ele>693.8</ele>
        <time>2015-11-07T07:57:58Z</time>
      </trkpt>
      <trkpt lat="43.72603" lon="6.96843">
        <ele>694.2</ele>
        <time>2015-11-07T07:58:01Z</time>
      </trkpt>
      <trkpt lat="43.72605" lon="6.96844">
        <ele>694.6</ele>
        <time>2015-11-07T07:58:02Z</time>
      </trkpt>
      <trkpt lat="43.72606" lon="6.96845">
        <ele>695</ele>
        <time>2015-11-07T07:58:03Z</time>
      </trkpt>
      <trkpt lat="43.72608" lon="6.96846">
        <ele>695.6</ele>
        <time>2015-11-07T07:58:04Z</time>
      </trkpt>
      <trkpt lat="43.72609" lon="6.96846">
        <ele>696</ele>
        <time>2015-11-07T07:58:05Z</time>
      </trkpt>
      <trkpt lat="43.72611" lon="6.96849">
        <ele>696</ele>
        <time>2015-11-07T07:58:07Z</time>
      </trkpt>
      <trkpt lat="43.72618" lon="6.96856">
        <ele>696.4</ele>
        <time>2015-11-07T07:58:13Z</time>
      </trkpt>
      <trkpt lat="43.72619" lon="6.96857">
        <ele>697</ele>
        <time>2015-11-07T07:58:14Z</time>
      </trkpt>
      <trkpt lat="43.72621" lon="6.96858">
        <ele>697.4</ele>
        <time>2015-11-07T07:58:15Z</time>
      </trkpt>
      <trkpt lat="43.72622" lon="6.96859">
        <ele>698</ele>
        <time>2015-11-07T07:58:16Z</time>
      </trkpt>
      <trkpt lat="43.72624" lon="6.9686">
        <ele>698.4</ele>
        <time>2015-11-07T07:58:17Z</time>
      </trkpt>
      <trkpt lat="43.72631" lon="6.96867">
        <ele>698.8</ele>
        <time>2015-11-07T07:58:22Z</time>
      </trkpt>
      <trkpt lat="43.72632" lon="6.96867">
        <ele>699.4</ele>
        <time>2015-11-07T07:58:23Z</time>
      </trkpt>
      <trkpt lat="43.72633" lon="6.96866">
        <ele>699.8</ele>
        <time>2015-11-07T07:58:24Z</time>
      </trkpt>
      <trkpt lat="43.72635" lon="6.96866">
        <ele>700.2</ele>
        <time>2015-11-07T07:58:25Z</time>
      </trkpt>
      <trkpt lat="43.72637" lon="6.96866">
        <ele>700.6</ele>
        <time>2015-11-07T07:58:26Z</time>
      </trkpt>
      <trkpt lat="43.7264" lon="6.96864">
        <ele>701.2</ele>
        <time>2015-11-07T07:58:28Z</time>
      </trkpt>
      <trkpt lat="43.72642" lon="6.96862">
        <ele>701.6</ele>
        <time>2015-11-07T07:58:29Z</time>
      </trkpt>
      <trkpt lat="43.72643" lon="6.96861">
        <ele>702</ele>
        <time>2015-11-07T07:58:30Z</time>
      </trkpt>
      <trkpt lat="43.72644" lon="6.96858">
        <ele>702.4</ele>
        <time>2015-11-07T07:58:31Z</time>
      </trkpt>
      <trkpt lat="43.72644" lon="6.96856">
        <ele>702.8</ele>
        <time>2015-11-07T07:58:32Z</time>
      </trkpt>
      <trkpt lat="43.72646" lon="6.96854">
        <ele>702.8</ele>
        <time>2015-11-07T07:58:34Z</time>
      </trkpt>
      <trkpt lat="43.7265" lon="6.96851">
        <ele>703.2</ele>
        <time>2015-11-07T07:58:37Z</time>
      </trkpt>
      <trkpt lat="43.72652" lon="6.96851">
        <ele>703.6</ele>
        <time>2015-11-07T07:58:38Z</time>
      </trkpt>
      <trkpt lat="43.72654" lon="6.96851">
        <ele>704</ele>
        <time>2015-11-07T07:58:39Z</time>
      </trkpt>
      <trkpt lat="43.72656" lon="6.96851">
        <ele>704.4</ele>
        <time>2015-11-07T07:58:40Z</time>
      </trkpt>
      <trkpt lat="43.72657" lon="6.9685">
        <ele>704.8</ele>
        <time>2015-11-07T07:58:41Z</time>
      </trkpt>
      <trkpt lat="43.72666" lon="6.96843">
        <ele>704.8</ele>
        <time>2015-11-07T07:58:48Z</time>
      </trkpt>
      <trkpt lat="43.72674" lon="6.9684">
        <ele>705.4</ele>
        <time>2015-11-07T07:58:53Z</time>
      </trkpt>
      <trkpt lat="43.72676" lon="6.96841">
        <ele>705.8</ele>
        <time>2015-11-07T07:58:54Z</time>
      </trkpt>
      <trkpt lat="43.72678" lon="6.96841">
        <ele>706.2</ele>
        <time>2015-11-07T07:58:55Z</time>
      </trkpt>
      <trkpt lat="43.72679" lon="6.96841">
        <ele>706.6</ele>
        <time>2015-11-07T07:58:56Z</time>
      </trkpt>
      <trkpt lat="43.7268" lon="6.9684">
        <ele>707</ele>
        <time>2015-11-07T07:58:57Z</time>
      </trkpt>
      <trkpt lat="43.72688" lon="6.96837">
        <ele>707</ele>
        <time>2015-11-07T07:59:02Z</time>
      </trkpt>
      <trkpt lat="43.72696" lon="6.96829">
        <ele>707</ele>
        <time>2015-11-07T07:59:09Z</time>
      </trkpt>
      <trkpt lat="43.72697" lon="6.9683">
        <ele>707</ele>
        <time>2015-11-07T07:59:10Z</time>
      </trkpt>
      <trkpt lat="43.72699" lon="6.96832">
        <ele>707.4</ele>
        <time>2015-11-07T07:59:12Z</time>
      </trkpt>
      <trkpt lat="43.72699" lon="6.96833">
        <ele>707.8</ele>
        <time>2015-11-07T07:59:13Z</time>
      </trkpt>
      <trkpt lat="43.727" lon="6.96833">
        <ele>708.2</ele>
        <time>2015-11-07T07:59:14Z</time>
      </trkpt>
      <trkpt lat="43.727" lon="6.96834">
        <ele>708.8</ele>
        <time>2015-11-07T07:59:15Z</time>
      </trkpt>
      <trkpt lat="43.727" lon="6.96834">
        <ele>709.2</ele>
        <time>2015-11-07T07:59:16Z</time>
      </trkpt>
      <trkpt lat="43.72701" lon="6.96834">
        <ele>709.2</ele>
        <time>2015-11-07T07:59:30Z</time>
      </trkpt>
      <trkpt lat="43.72701" lon="6.96832">
        <ele>709.2</ele>
        <time>2015-11-07T08:01:42Z</time>
      </trkpt>
      <trkpt lat="43.727" lon="6.96826">
        <ele>709.2</ele>
        <time>2015-11-07T08:01:50Z</time>
      </trkpt>
      <trkpt lat="43.72698" lon="6.96818">
        <ele>709.2</ele>
        <time>2015-11-07T08:01:54Z</time>
      </trkpt>
      <trkpt lat="43.72705" lon="6.96798">
        <ele>709.2</ele>
        <time>2015-11-07T08:02:04Z</time>
      </trkpt>
      <trkpt lat="43.72707" lon="6.96785">
        <ele>709.2</ele>
        <time>2015-11-07T08:02:11Z</time>
      </trkpt>
      <trkpt lat="43.72711" lon="6.9677">
        <ele>709.6</ele>
        <time>2015-11-07T08:02:19Z</time>
      </trkpt>
      <trkpt lat="43.72711" lon="6.96768">
        <ele>710</ele>
        <time>2015-11-07T08:02:20Z</time>
      </trkpt>
      <trkpt lat="43.72712" lon="6.96766">
        <ele>710.4</ele>
        <time>2015-11-07T08:02:21Z</time>
      </trkpt>
      <trkpt lat="43.72712" lon="6.96764">
        <ele>710.8</ele>
        <time>2015-11-07T08:02:22Z</time>
      </trkpt>
      <trkpt lat="43.72712" lon="6.96761">
        <ele>711.2</ele>
        <time>2015-11-07T08:02:23Z</time>
      </trkpt>
      <trkpt lat="43.72717" lon="6.96745">
        <ele>711.2</ele>
        <time>2015-11-07T08:02:30Z</time>
      </trkpt>
      <trkpt lat="43.72719" lon="6.9673">
        <ele>711.8</ele>
        <time>2015-11-07T08:02:36Z</time>
      </trkpt>
      <trkpt lat="43.7272" lon="6.96727">
        <ele>712.2</ele>
        <time>2015-11-07T08:02:37Z</time>
      </trkpt>
      <trkpt lat="43.7272" lon="6.96724">
        <ele>712.6</ele>
        <time>2015-11-07T08:02:38Z</time>
      </trkpt>
      <trkpt lat="43.7272" lon="6.96721">
        <ele>713</ele>
        <time>2015-11-07T08:02:39Z</time>
      </trkpt>
      <trkpt lat="43.72721" lon="6.96717">
        <ele>713.6</ele>
        <time>2015-11-07T08:02:40Z</time>
      </trkpt>
      <trkpt lat="43.72725" lon="6.96691">
        <ele>713.6</ele>
        <time>2015-11-07T08:02:49Z</time>
      </trkpt>
      <trkpt lat="43.72726" lon="6.96682">
        <ele>714</ele>
        <time>2015-11-07T08:02:52Z</time>
      </trkpt>
      <trkpt lat="43.72726" lon="6.96679">
        <ele>714.4</ele>
        <time>2015-11-07T08:02:53Z</time>
      </trkpt>
      <trkpt lat="43.72727" lon="6.96677">
        <ele>714.8</ele>
        <time>2015-11-07T08:02:54Z</time>
      </trkpt>
      <trkpt lat="43.72727" lon="6.96673">
        <ele>715.2</ele>
        <time>2015-11-07T08:02:55Z</time>
      </trkpt>
      <trkpt lat="43.72727" lon="6.9667">
        <ele>715.6</ele>
        <time>2015-11-07T08:02:56Z</time>
      </trkpt>
      <trkpt lat="43.72728" lon="6.96667">
        <ele>715.6</ele>
        <time>2015-11-07T08:02:57Z</time>
      </trkpt>
      <trkpt lat="43.72729" lon="6.96642">
        <ele>716</ele>
        <time>2015-11-07T08:03:04Z</time>
      </trkpt>
      <trkpt lat="43.7273" lon="6.96639">
        <ele>716.4</ele>
        <time>2015-11-07T08:03:05Z</time>
      </trkpt>
      <trkpt lat="43.7273" lon="6.96635">
        <ele>716.8</ele>
        <time>2015-11-07T08:03:06Z</time>
      </trkpt>
      <trkpt lat="43.72731" lon="6.96632">
        <ele>717.4</ele>
        <time>2015-11-07T08:03:07Z</time>
      </trkpt>
      <trkpt lat="43.72731" lon="6.96629">
        <ele>717.8</ele>
        <time>2015-11-07T08:03:08Z</time>
      </trkpt>
      <trkpt lat="43.72734" lon="6.966">
        <ele>718.2</ele>
        <time>2015-11-07T08:03:18Z</time>
      </trkpt>
      <trkpt lat="43.72735" lon="6.96597">
        <ele>718.6</ele>
        <time>2015-11-07T08:03:19Z</time>
      </trkpt>
      <trkpt lat="43.72735" lon="6.96594">
        <ele>719</ele>
        <time>2015-11-07T08:03:20Z</time>
      </trkpt>
      <trkpt lat="43.72735" lon="6.96591">
        <ele>719.4</ele>
        <time>2015-11-07T08:03:21Z</time>
      </trkpt>
      <trkpt lat="43.72735" lon="6.96589">
        <ele>719.8</ele>
        <time>2015-11-07T08:03:22Z</time>
      </trkpt>
      <trkpt lat="43.72738" lon="6.96573">
        <ele>719.8</ele>
        <time>2015-11-07T08:03:28Z</time>
      </trkpt>
      <trkpt lat="43.72737" lon="6.96556">
        <ele>720.2</ele>
        <time>2015-11-07T08:03:34Z</time>
      </trkpt>
      <trkpt lat="43.72737" lon="6.96553">
        <ele>720.6</ele>
        <time>2015-11-07T08:03:35Z</time>
      </trkpt>
      <trkpt lat="43.72737" lon="6.96551">
        <ele>721</ele>
        <time>2015-11-07T08:03:36Z</time>
      </trkpt>
      <trkpt lat="43.72737" lon="6.96548">
        <ele>721.4</ele>
        <time>2015-11-07T08:03:37Z</time>
      </trkpt>
      <trkpt lat="43.72737" lon="6.96545">
        <ele>721.8</ele>
        <time>2015-11-07T08:03:38Z</time>
      </trkpt>
      <trkpt lat="43.72738" lon="6.96523">
        <ele>721.8</ele>
        <time>2015-11-07T08:03:46Z</time>
      </trkpt>
      <trkpt lat="43.72737" lon="6.96514">
        <ele>722.2</ele>
        <time>2015-11-07T08:03:49Z</time>
      </trkpt>
      <trkpt lat="43.72737" lon="6.96512">
        <ele>722.6</ele>
        <time>2015-11-07T08:03:50Z</time>
      </trkpt>
      <trkpt lat="43.72737" lon="6.96508">
        <ele>723</ele>
        <time>2015-11-07T08:03:51Z</time>
      </trkpt>
      <trkpt lat="43.72737" lon="6.96505">
        <ele>723.4</ele>
        <time>2015-11-07T08:03:52Z</time>
      </trkpt>
      <trkpt lat="43.72737" lon="6.96502">
        <ele>724</ele>
        <time>2015-11-07T08:03:53Z</time>
      </trkpt>
      <trkpt lat="43.72737" lon="6.96499">
        <ele>724</ele>
        <time>2015-11-07T08:03:54Z</time>
      </trkpt>
      <trkpt lat="43.72735" lon="6.9647">
        <ele>724</ele>
        <time>2015-11-07T08:04:03Z</time>
      </trkpt>
      <trkpt lat="43.72735" lon="6.96461">
        <ele>724.4</ele>
        <time>2015-11-07T08:04:06Z</time>
      </trkpt>
      <trkpt lat="43.72735" lon="6.96458">
        <ele>724.8</ele>
        <time>2015-11-07T08:04:07Z</time>
      </trkpt>
      <trkpt lat="43.72735" lon="6.96456">
        <ele>725.2</ele>
        <time>2015-11-07T08:04:08Z</time>
      </trkpt>
      <trkpt lat="43.72735" lon="6.96454">
        <ele>725.8</ele>
        <time>2015-11-07T08:04:09Z</time>
      </trkpt>
      <trkpt lat="43.72735" lon="6.96452">
        <ele>726.2</ele>
        <time>2015-11-07T08:04:10Z</time>
      </trkpt>
      <trkpt lat="43.72734" lon="6.96447">
        <ele>726.2</ele>
        <time>2015-11-07T08:04:12Z</time>
      </trkpt>
      <trkpt lat="43.72736" lon="6.96424">
        <ele>726.2</ele>
        <time>2015-11-07T08:04:20Z</time>
      </trkpt>
      <trkpt lat="43.72736" lon="6.96413">
        <ele>726.6</ele>
        <time>2015-11-07T08:04:24Z</time>
      </trkpt>
      <trkpt lat="43.72735" lon="6.9641">
        <ele>727.2</ele>
        <time>2015-11-07T08:04:25Z</time>
      </trkpt>
      <trkpt lat="43.72736" lon="6.96407">
        <ele>727.6</ele>
        <time>2015-11-07T08:04:26Z</time>
      </trkpt>
      <trkpt lat="43.72736" lon="6.96404">
        <ele>728.2</ele>
        <time>2015-11-07T08:04:27Z</time>
      </trkpt>
      <trkpt lat="43.72736" lon="6.96401">
        <ele>728.6</ele>
        <time>2015-11-07T08:04:28Z</time>
      </trkpt>
      <trkpt lat="43.72736" lon="6.96392">
        <ele>728.6</ele>
        <time>2015-11-07T08:04:31Z</time>
      </trkpt>
      <trkpt lat="43.72734" lon="6.96368">
        <ele>729</ele>
        <time>2015-11-07T08:04:39Z</time>
      </trkpt>
      <trkpt lat="43.72733" lon="6.96366">
        <ele>729.4</ele>
        <time>2015-11-07T08:04:40Z</time>
      </trkpt>
      <trkpt lat="43.72733" lon="6.96364">
        <ele>729.8</ele>
        <time>2015-11-07T08:04:41Z</time>
      </trkpt>
      <trkpt lat="43.72733" lon="6.96362">
        <ele>730.2</ele>
        <time>2015-11-07T08:04:42Z</time>
      </trkpt>
      <trkpt lat="43.72733" lon="6.96359">
        <ele>730.6</ele>
        <time>2015-11-07T08:04:43Z</time>
      </trkpt>
      <trkpt lat="43.72733" lon="6.96346">
        <ele>730.6</ele>
        <time>2015-11-07T08:04:47Z</time>
      </trkpt>
      <trkpt lat="43.72732" lon="6.96322">
        <ele>730.6</ele>
        <time>2015-11-07T08:04:55Z</time>
      </trkpt>
      <trkpt lat="43.72734" lon="6.96311">
        <ele>731</ele>
        <time>2015-11-07T08:04:59Z</time>
      </trkpt>
      <trkpt lat="43.72735" lon="6.96308">
        <ele>732</ele>
        <time>2015-11-07T08:05:00Z</time>
      </trkpt>
      <trkpt lat="43.72735" lon="6.96304">
        <ele>732.4</ele>
        <time>2015-11-07T08:05:01Z</time>
      </trkpt>
      <trkpt lat="43.72734" lon="6.96301">
        <ele>732.8</ele>
        <time>2015-11-07T08:05:02Z</time>
      </trkpt>
      <trkpt lat="43.72734" lon="6.96299">
        <ele>732.8</ele>
        <time>2015-11-07T08:05:03Z</time>
      </trkpt>
      <trkpt lat="43.72733" lon="6.96288">
        <ele>732.8</ele>
        <time>2015-11-07T08:05:07Z</time>
      </trkpt>
      <trkpt lat="43.72733" lon="6.9628">
        <ele>732.8</ele>
        <time>2015-11-07T08:05:11Z</time>
      </trkpt>
      <trkpt lat="43.72733" lon="6.96271">
        <ele>733.2</ele>
        <time>2015-11-07T08:05:14Z</time>
      </trkpt>
      <trkpt lat="43.72734" lon="6.96268">
        <ele>733.6</ele>
        <time>2015-11-07T08:05:15Z</time>
      </trkpt>
      <trkpt lat="43.72734" lon="6.96264">
        <ele>734</ele>
        <time>2015-11-07T08:05:16Z</time>
      </trkpt>
      <trkpt lat="43.72734" lon="6.96261">
        <ele>734.4</ele>
        <time>2015-11-07T08:05:17Z</time>
      </trkpt>
      <trkpt lat="43.72735" lon="6.96257">
        <ele>734.8</ele>
        <time>2015-11-07T08:05:18Z</time>
      </trkpt>
      <trkpt lat="43.72736" lon="6.96252">
        <ele>734.8</ele>
        <time>2015-11-07T08:05:20Z</time>
      </trkpt>
      <trkpt lat="43.72739" lon="6.9624">
        <ele>735.2</ele>
        <time>2015-11-07T08:05:25Z</time>
      </trkpt>
      <trkpt lat="43.72739" lon="6.96237">
        <ele>735.6</ele>
        <time>2015-11-07T08:05:26Z</time>
      </trkpt>
      <trkpt lat="43.7274" lon="6.96234">
        <ele>736</ele>
        <time>2015-11-07T08:05:27Z</time>
      </trkpt>
      <trkpt lat="43.72741" lon="6.96231">
        <ele>736.4</ele>
        <time>2015-11-07T08:05:28Z</time>
      </trkpt>
      <trkpt lat="43.72741" lon="6.96227">
        <ele>736.8</ele>
        <time>2015-11-07T08:05:29Z</time>
      </trkpt>
      <trkpt lat="43.72742" lon="6.96223">
        <ele>736.8</ele>
        <time>2015-11-07T08:05:30Z</time>
      </trkpt>
      <trkpt lat="43.72748" lon="6.96201">
        <ele>736.8</ele>
        <time>2015-11-07T08:05:38Z</time>
      </trkpt>
      <trkpt lat="43.72752" lon="6.96181">
        <ele>737.2</ele>
        <time>2015-11-07T08:05:45Z</time>
      </trkpt>
      <trkpt lat="43.72752" lon="6.96179">
        <ele>737.6</ele>
        <time>2015-11-07T08:05:46Z</time>
      </trkpt>
      <trkpt lat="43.72753" lon="6.96176">
        <ele>738</ele>
        <time>2015-11-07T08:05:47Z</time>
      </trkpt>
      <trkpt lat="43.72754" lon="6.96174">
        <ele>738.4</ele>
        <time>2015-11-07T08:05:48Z</time>
      </trkpt>
      <trkpt lat="43.72755" lon="6.96172">
        <ele>739</ele>
        <time>2015-11-07T08:05:49Z</time>
      </trkpt>
      <trkpt lat="43.72762" lon="6.96161">
        <ele>739</ele>
        <time>2015-11-07T08:05:54Z</time>
      </trkpt>
      <trkpt lat="43.72768" lon="6.96154">
        <ele>739.4</ele>
        <time>2015-11-07T08:05:58Z</time>
      </trkpt>
      <trkpt lat="43.72769" lon="6.96151">
        <ele>739.8</ele>
        <time>2015-11-07T08:05:59Z</time>
      </trkpt>
      <trkpt lat="43.72771" lon="6.96149">
        <ele>740.2</ele>
        <time>2015-11-07T08:06:00Z</time>
      </trkpt>
      <trkpt lat="43.72773" lon="6.96146">
        <ele>740.6</ele>
        <time>2015-11-07T08:06:01Z</time>
      </trkpt>
      <trkpt lat="43.72775" lon="6.96145">
        <ele>741</ele>
        <time>2015-11-07T08:06:02Z</time>
      </trkpt>
      <trkpt lat="43.7278" lon="6.96141">
        <ele>741</ele>
        <time>2015-11-07T08:06:05Z</time>
      </trkpt>
      <trkpt lat="43.72798" lon="6.96131">
        <ele>741</ele>
        <time>2015-11-07T08:06:14Z</time>
      </trkpt>
      <trkpt lat="43.72807" lon="6.96122">
        <ele>741.4</ele>
        <time>2015-11-07T08:06:19Z</time>
      </trkpt>
      <trkpt lat="43.72808" lon="6.96121">
        <ele>741.8</ele>
        <time>2015-11-07T08:06:20Z</time>
      </trkpt>
      <trkpt lat="43.7281" lon="6.9612">
        <ele>742.4</ele>
        <time>2015-11-07T08:06:21Z</time>
      </trkpt>
      <trkpt lat="43.72812" lon="6.96119">
        <ele>742.8</ele>
        <time>2015-11-07T08:06:22Z</time>
      </trkpt>
      <trkpt lat="43.72813" lon="6.96117">
        <ele>743.2</ele>
        <time>2015-11-07T08:06:23Z</time>
      </trkpt>
      <trkpt lat="43.72826" lon="6.96108">
        <ele>743.2</ele>
        <time>2015-11-07T08:06:30Z</time>
      </trkpt>
      <trkpt lat="43.72831" lon="6.96101">
        <ele>743.6</ele>
        <time>2015-11-07T08:06:34Z</time>
      </trkpt>
      <trkpt lat="43.72831" lon="6.96098">
        <ele>744</ele>
        <time>2015-11-07T08:06:35Z</time>
      </trkpt>
      <trkpt lat="43.72833" lon="6.96096">
        <ele>744.6</ele>
        <time>2015-11-07T08:06:36Z</time>
      </trkpt>
      <trkpt lat="43.72834" lon="6.96095">
        <ele>745</ele>
        <time>2015-11-07T08:06:37Z</time>
      </trkpt>
      <trkpt lat="43.72836" lon="6.96095">
        <ele>745.4</ele>
        <time>2015-11-07T08:06:38Z</time>
      </trkpt>
      <trkpt lat="43.72848" lon="6.96087">
        <ele>745.4</ele>
        <time>2015-11-07T08:06:45Z</time>
      </trkpt>
      <trkpt lat="43.72859" lon="6.96079">
        <ele>745.8</ele>
        <time>2015-11-07T08:06:51Z</time>
      </trkpt>
      <trkpt lat="43.72861" lon="6.96077">
        <ele>746.2</ele>
        <time>2015-11-07T08:06:52Z</time>
      </trkpt>
      <trkpt lat="43.72864" lon="6.96076">
        <ele>746.6</ele>
        <time>2015-11-07T08:06:53Z</time>
      </trkpt>
      <trkpt lat="43.72867" lon="6.96075">
        <ele>747.2</ele>
        <time>2015-11-07T08:06:54Z</time>
      </trkpt>
      <trkpt lat="43.7287" lon="6.96074">
        <ele>747.6</ele>
        <time>2015-11-07T08:06:55Z</time>
      </trkpt>
      <trkpt lat="43.72887" lon="6.96066">
        <ele>747.6</ele>
        <time>2015-11-07T08:07:03Z</time>
      </trkpt>
      <trkpt lat="43.72891" lon="6.96065">
        <ele>748</ele>
        <time>2015-11-07T08:07:05Z</time>
      </trkpt>
      <trkpt lat="43.72892" lon="6.96063">
        <ele>748.4</ele>
        <time>2015-11-07T08:07:06Z</time>
      </trkpt>
      <trkpt lat="43.72893" lon="6.96061">
        <ele>748.8</ele>
        <time>2015-11-07T08:07:07Z</time>
      </trkpt>
      <trkpt lat="43.72895" lon="6.96056">
        <ele>749.2</ele>
        <time>2015-11-07T08:07:08Z</time>
      </trkpt>
      <trkpt lat="43.72897" lon="6.96055">
        <ele>749.6</ele>
        <time>2015-11-07T08:07:09Z</time>
      </trkpt>
      <trkpt lat="43.72898" lon="6.96054">
        <ele>749.6</ele>
        <time>2015-11-07T08:07:10Z</time>
      </trkpt>
      <trkpt lat="43.72913" lon="6.96044">
        <ele>750</ele>
        <time>2015-11-07T08:07:18Z</time>
      </trkpt>
      <trkpt lat="43.72915" lon="6.96043">
        <ele>750.4</ele>
        <time>2015-11-07T08:07:19Z</time>
      </trkpt>
      <trkpt lat="43.72917" lon="6.96042">
        <ele>750.8</ele>
        <time>2015-11-07T08:07:20Z</time>
      </trkpt>
      <trkpt lat="43.72918" lon="6.9604">
        <ele>751.2</ele>
        <time>2015-11-07T08:07:21Z</time>
      </trkpt>
      <trkpt lat="43.7292" lon="6.96039">
        <ele>751.6</ele>
        <time>2015-11-07T08:07:22Z</time>
      </trkpt>
      <trkpt lat="43.72925" lon="6.96032">
        <ele>751.6</ele>
        <time>2015-11-07T08:07:26Z</time>
      </trkpt>
      <trkpt lat="43.72941" lon="6.9602">
        <ele>751.6</ele>
        <time>2015-11-07T08:07:36Z</time>
      </trkpt>
      <trkpt lat="43.72953" lon="6.96011">
        <ele>752</ele>
        <time>2015-11-07T08:07:43Z</time>
      </trkpt>
      <trkpt lat="43.72956" lon="6.9601">
        <ele>752.6</ele>
        <time>2015-11-07T08:07:44Z</time>
      </trkpt>
      <trkpt lat="43.72958" lon="6.96009">
        <ele>753</ele>
        <time>2015-11-07T08:07:45Z</time>
      </trkpt>
      <trkpt lat="43.7296" lon="6.96009">
        <ele>753.4</ele>
        <time>2015-11-07T08:07:46Z</time>
      </trkpt>
      <trkpt lat="43.72962" lon="6.96008">
        <ele>753.8</ele>
        <time>2015-11-07T08:07:47Z</time>
      </trkpt>
      <trkpt lat="43.72975" lon="6.96002">
        <ele>753.8</ele>
        <time>2015-11-07T08:07:53Z</time>
      </trkpt>
      <trkpt lat="43.72982" lon="6.96">
        <ele>754.2</ele>
        <time>2015-11-07T08:07:56Z</time>
      </trkpt>
      <trkpt lat="43.72984" lon="6.95999">
        <ele>754.6</ele>
        <time>2015-11-07T08:07:57Z</time>
      </trkpt>
      <trkpt lat="43.72987" lon="6.95999">
        <ele>755.2</ele>
        <time>2015-11-07T08:07:58Z</time>
      </trkpt>
      <trkpt lat="43.72989" lon="6.95998">
        <ele>755.6</ele>
        <time>2015-11-07T08:07:59Z</time>
      </trkpt>
      <trkpt lat="43.7299" lon="6.95996">
        <ele>756</ele>
        <time>2015-11-07T08:08:00Z</time>
      </trkpt>
      <trkpt lat="43.72995" lon="6.95991">
        <ele>756</ele>
        <time>2015-11-07T08:08:03Z</time>
      </trkpt>
      <trkpt lat="43.73013" lon="6.95983">
        <ele>756</ele>
        <time>2015-11-07T08:08:12Z</time>
      </trkpt>
      <trkpt lat="43.73015" lon="6.95982">
        <ele>756.4</ele>
        <time>2015-11-07T08:08:13Z</time>
      </trkpt>
      <trkpt lat="43.73017" lon="6.95982">
        <ele>756.8</ele>
        <time>2015-11-07T08:08:14Z</time>
      </trkpt>
      <trkpt lat="43.7302" lon="6.95983">
        <ele>757.2</ele>
        <time>2015-11-07T08:08:15Z</time>
      </trkpt>
      <trkpt lat="43.73022" lon="6.95982">
        <ele>757.8</ele>
        <time>2015-11-07T08:08:16Z</time>
      </trkpt>
      <trkpt lat="43.73025" lon="6.95982">
        <ele>758.2</ele>
        <time>2015-11-07T08:08:17Z</time>
      </trkpt>
      <trkpt lat="43.73039" lon="6.95984">
        <ele>758.2</ele>
        <time>2015-11-07T08:08:23Z</time>
      </trkpt>
      <trkpt lat="43.7305" lon="6.95983">
        <ele>758.6</ele>
        <time>2015-11-07T08:08:28Z</time>
      </trkpt>
      <trkpt lat="43.73053" lon="6.95982">
        <ele>759</ele>
        <time>2015-11-07T08:08:29Z</time>
      </trkpt>
      <trkpt lat="43.73055" lon="6.95982">
        <ele>759.6</ele>
        <time>2015-11-07T08:08:30Z</time>
      </trkpt>
      <trkpt lat="43.73057" lon="6.95981">
        <ele>760</ele>
        <time>2015-11-07T08:08:31Z</time>
      </trkpt>
      <trkpt lat="43.73059" lon="6.9598">
        <ele>760.4</ele>
        <time>2015-11-07T08:08:32Z</time>
      </trkpt>
      <trkpt lat="43.73074" lon="6.95975">
        <ele>760.4</ele>
        <time>2015-11-07T08:08:39Z</time>
      </trkpt>
      <trkpt lat="43.73076" lon="6.95974">
        <ele>760.4</ele>
        <time>2015-11-07T08:08:40Z</time>
      </trkpt>
      <trkpt lat="43.73086" lon="6.95966">
        <ele>760.8</ele>
        <time>2015-11-07T08:08:46Z</time>
      </trkpt>
      <trkpt lat="43.73088" lon="6.95965">
        <ele>761.2</ele>
        <time>2015-11-07T08:08:47Z</time>
      </trkpt>
      <trkpt lat="43.73089" lon="6.95964">
        <ele>761.6</ele>
        <time>2015-11-07T08:08:48Z</time>
      </trkpt>
      <trkpt lat="43.73089" lon="6.95961">
        <ele>762</ele>
        <time>2015-11-07T08:08:49Z</time>
      </trkpt>
      <trkpt lat="43.73091" lon="6.95961">
        <ele>762.4</ele>
        <time>2015-11-07T08:08:50Z</time>
      </trkpt>
      <trkpt lat="43.73099" lon="6.9596">
        <ele>762.4</ele>
        <time>2015-11-07T08:08:53Z</time>
      </trkpt>
      <trkpt lat="43.73116" lon="6.95947">
        <ele>762.8</ele>
        <time>2015-11-07T08:09:02Z</time>
      </trkpt>
      <trkpt lat="43.73118" lon="6.95945">
        <ele>763.4</ele>
        <time>2015-11-07T08:09:03Z</time>
      </trkpt>
      <trkpt lat="43.7312" lon="6.95943">
        <ele>763.8</ele>
        <time>2015-11-07T08:09:04Z</time>
      </trkpt>
      <trkpt lat="43.73122" lon="6.95942">
        <ele>764.2</ele>
        <time>2015-11-07T08:09:05Z</time>
      </trkpt>
      <trkpt lat="43.73124" lon="6.9594">
        <ele>764.6</ele>
        <time>2015-11-07T08:09:06Z</time>
      </trkpt>
      <trkpt lat="43.73135" lon="6.95931">
        <ele>764.6</ele>
        <time>2015-11-07T08:09:12Z</time>
      </trkpt>
      <trkpt lat="43.7314" lon="6.95929">
        <ele>765</ele>
        <time>2015-11-07T08:09:14Z</time>
      </trkpt>
      <trkpt lat="43.73142" lon="6.95928">
        <ele>765.4</ele>
        <time>2015-11-07T08:09:15Z</time>
      </trkpt>
      <trkpt lat="43.73144" lon="6.95927">
        <ele>765.8</ele>
        <time>2015-11-07T08:09:16Z</time>
      </trkpt>
      <trkpt lat="43.73145" lon="6.95926">
        <ele>766.2</ele>
        <time>2015-11-07T08:09:17Z</time>
      </trkpt>
      <trkpt lat="43.73148" lon="6.95925">
        <ele>766.6</ele>
        <time>2015-11-07T08:09:18Z</time>
      </trkpt>
      <trkpt lat="43.7315" lon="6.95923">
        <ele>766.6</ele>
        <time>2015-11-07T08:09:19Z</time>
      </trkpt>
      <trkpt lat="43.73162" lon="6.95913">
        <ele>766.6</ele>
        <time>2015-11-07T08:09:26Z</time>
      </trkpt>
      <trkpt lat="43.73166" lon="6.95911">
        <ele>767</ele>
        <time>2015-11-07T08:09:28Z</time>
      </trkpt>
      <trkpt lat="43.73168" lon="6.95909">
        <ele>767.4</ele>
        <time>2015-11-07T08:09:29Z</time>
      </trkpt>
      <trkpt lat="43.73171" lon="6.95908">
        <ele>767.8</ele>
        <time>2015-11-07T08:09:30Z</time>
      </trkpt>
      <trkpt lat="43.73173" lon="6.95907">
        <ele>768.2</ele>
        <time>2015-11-07T08:09:31Z</time>
      </trkpt>
      <trkpt lat="43.73174" lon="6.95906">
        <ele>768.6</ele>
        <time>2015-11-07T08:09:32Z</time>
      </trkpt>
      <trkpt lat="43.73176" lon="6.95904">
        <ele>768.6</ele>
        <time>2015-11-07T08:09:33Z</time>
      </trkpt>
      <trkpt lat="43.73193" lon="6.95889">
        <ele>768.6</ele>
        <time>2015-11-07T08:09:42Z</time>
      </trkpt>
      <trkpt lat="43.73194" lon="6.95888">
        <ele>769.2</ele>
        <time>2015-11-07T08:09:43Z</time>
      </trkpt>
      <trkpt lat="43.73197" lon="6.95886">
        <ele>769.6</ele>
        <time>2015-11-07T08:09:44Z</time>
      </trkpt>
      <trkpt lat="43.73198" lon="6.95884">
        <ele>770</ele>
        <time>2015-11-07T08:09:45Z</time>
      </trkpt>
      <trkpt lat="43.732" lon="6.95882">
        <ele>770.4</ele>
        <time>2015-11-07T08:09:46Z</time>
      </trkpt>
      <trkpt lat="43.73202" lon="6.95879">
        <ele>771</ele>
        <time>2015-11-07T08:09:47Z</time>
      </trkpt>
      <trkpt lat="43.73204" lon="6.95877">
        <ele>771</ele>
        <time>2015-11-07T08:09:48Z</time>
      </trkpt>
      <trkpt lat="43.73219" lon="6.9586">
        <ele>771</ele>
        <time>2015-11-07T08:09:56Z</time>
      </trkpt>
      <trkpt lat="43.73224" lon="6.95855">
        <ele>771.4</ele>
        <time>2015-11-07T08:09:59Z</time>
      </trkpt>
      <trkpt lat="43.73225" lon="6.95853">
        <ele>771.8</ele>
        <time>2015-11-07T08:10:00Z</time>
      </trkpt>
      <trkpt lat="43.73227" lon="6.95851">
        <ele>772.2</ele>
        <time>2015-11-07T08:10:01Z</time>
      </trkpt>
      <trkpt lat="43.73228" lon="6.95848">
        <ele>772.6</ele>
        <time>2015-11-07T08:10:02Z</time>
      </trkpt>
      <trkpt lat="43.7323" lon="6.95846">
        <ele>773.2</ele>
        <time>2015-11-07T08:10:03Z</time>
      </trkpt>
      <trkpt lat="43.73233" lon="6.95842">
        <ele>773.2</ele>
        <time>2015-11-07T08:10:05Z</time>
      </trkpt>
      <trkpt lat="43.73251" lon="6.95824">
        <ele>773.6</ele>
        <time>2015-11-07T08:10:15Z</time>
      </trkpt>
      <trkpt lat="43.73252" lon="6.95822">
        <ele>774</ele>
        <time>2015-11-07T08:10:16Z</time>
      </trkpt>
      <trkpt lat="43.73253" lon="6.95821">
        <ele>774.4</ele>
        <time>2015-11-07T08:10:17Z</time>
      </trkpt>
      <trkpt lat="43.73255" lon="6.95819">
        <ele>774.8</ele>
        <time>2015-11-07T08:10:18Z</time>
      </trkpt>
      <trkpt lat="43.73257" lon="6.95817">
        <ele>775.2</ele>
        <time>2015-11-07T08:10:19Z</time>
      </trkpt>
      <trkpt lat="43.73271" lon="6.95809">
        <ele>775.2</ele>
        <time>2015-11-07T08:10:26Z</time>
      </trkpt>
      <trkpt lat="43.73274" lon="6.95809">
        <ele>775.6</ele>
        <time>2015-11-07T08:10:27Z</time>
      </trkpt>
      <trkpt lat="43.73276" lon="6.95808">
        <ele>776</ele>
        <time>2015-11-07T08:10:28Z</time>
      </trkpt>
      <trkpt lat="43.73279" lon="6.95808">
        <ele>776.4</ele>
        <time>2015-11-07T08:10:29Z</time>
      </trkpt>
      <trkpt lat="43.73281" lon="6.95808">
        <ele>776.8</ele>
        <time>2015-11-07T08:10:30Z</time>
      </trkpt>
      <trkpt lat="43.73284" lon="6.95807">
        <ele>777.2</ele>
        <time>2015-11-07T08:10:31Z</time>
      </trkpt>
      <trkpt lat="43.73294" lon="6.95807">
        <ele>777.2</ele>
        <time>2015-11-07T08:10:35Z</time>
      </trkpt>
      <trkpt lat="43.73309" lon="6.95808">
        <ele>777.6</ele>
        <time>2015-11-07T08:10:42Z</time>
      </trkpt>
      <trkpt lat="43.73311" lon="6.95808">
        <ele>778</ele>
        <time>2015-11-07T08:10:43Z</time>
      </trkpt>
      <trkpt lat="43.73313" lon="6.95809">
        <ele>778.6</ele>
        <time>2015-11-07T08:10:44Z</time>
      </trkpt>
      <trkpt lat="43.73316" lon="6.95809">
        <ele>779</ele>
        <time>2015-11-07T08:10:45Z</time>
      </trkpt>
      <trkpt lat="43.73318" lon="6.95809">
        <ele>779.4</ele>
        <time>2015-11-07T08:10:46Z</time>
      </trkpt>
      <trkpt lat="43.73323" lon="6.95809">
        <ele>779.4</ele>
        <time>2015-11-07T08:10:49Z</time>
      </trkpt>
      <trkpt lat="43.73329" lon="6.95808">
        <ele>779.8</ele>
        <time>2015-11-07T08:10:52Z</time>
      </trkpt>
      <trkpt lat="43.73332" lon="6.95809">
        <ele>780.2</ele>
        <time>2015-11-07T08:10:53Z</time>
      </trkpt>
      <trkpt lat="43.73334" lon="6.9581">
        <ele>780.6</ele>
        <time>2015-11-07T08:10:54Z</time>
      </trkpt>
      <trkpt lat="43.73337" lon="6.9581">
        <ele>781</ele>
        <time>2015-11-07T08:10:55Z</time>
      </trkpt>
      <trkpt lat="43.73339" lon="6.9581">
        <ele>781.4</ele>
        <time>2015-11-07T08:10:56Z</time>
      </trkpt>
      <trkpt lat="43.73351" lon="6.95812">
        <ele>781.4</ele>
        <time>2015-11-07T08:11:01Z</time>
      </trkpt>
      <trkpt lat="43.7336" lon="6.95815">
        <ele>781.8</ele>
        <time>2015-11-07T08:11:04Z</time>
      </trkpt>
      <trkpt lat="43.73362" lon="6.95816">
        <ele>782.2</ele>
        <time>2015-11-07T08:11:05Z</time>
      </trkpt>
      <trkpt lat="43.73365" lon="6.95817">
        <ele>782.6</ele>
        <time>2015-11-07T08:11:06Z</time>
      </trkpt>
      <trkpt lat="43.73368" lon="6.95817">
        <ele>783</ele>
        <time>2015-11-07T08:11:07Z</time>
      </trkpt>
      <trkpt lat="43.7337" lon="6.95818">
        <ele>783.4</ele>
        <time>2015-11-07T08:11:08Z</time>
      </trkpt>
      <trkpt lat="43.73389" lon="6.95817">
        <ele>783.4</ele>
        <time>2015-11-07T08:11:15Z</time>
      </trkpt>
      <trkpt lat="43.73392" lon="6.95814">
        <ele>783.8</ele>
        <time>2015-11-07T08:11:17Z</time>
      </trkpt>
      <trkpt lat="43.73394" lon="6.95812">
        <ele>784.4</ele>
        <time>2015-11-07T08:11:18Z</time>
      </trkpt>
      <trkpt lat="43.73395" lon="6.95809">
        <ele>784.8</ele>
        <time>2015-11-07T08:11:19Z</time>
      </trkpt>
      <trkpt lat="43.73397" lon="6.95806">
        <ele>785.2</ele>
        <time>2015-11-07T08:11:20Z</time>
      </trkpt>
      <trkpt lat="43.73397" lon="6.95804">
        <ele>785.6</ele>
        <time>2015-11-07T08:11:21Z</time>
      </trkpt>
      <trkpt lat="43.73398" lon="6.95801">
        <ele>785.6</ele>
        <time>2015-11-07T08:11:22Z</time>
      </trkpt>
      <trkpt lat="43.73401" lon="6.95781">
        <ele>785.6</ele>
        <time>2015-11-07T08:11:29Z</time>
      </trkpt>
      <trkpt lat="43.73401" lon="6.95775">
        <ele>786.2</ele>
        <time>2015-11-07T08:11:31Z</time>
      </trkpt>
      <trkpt lat="43.73401" lon="6.95771">
        <ele>786.6</ele>
        <time>2015-11-07T08:11:32Z</time>
      </trkpt>
      <trkpt lat="43.734" lon="6.95767">
        <ele>787</ele>
        <time>2015-11-07T08:11:33Z</time>
      </trkpt>
      <trkpt lat="43.73399" lon="6.95764">
        <ele>787.4</ele>
        <time>2015-11-07T08:11:34Z</time>
      </trkpt>
      <trkpt lat="43.73398" lon="6.95762">
        <ele>787.8</ele>
        <time>2015-11-07T08:11:35Z</time>
      </trkpt>
      <trkpt lat="43.73394" lon="6.95756">
        <ele>787.8</ele>
        <time>2015-11-07T08:11:37Z</time>
      </trkpt>
      <trkpt lat="43.73382" lon="6.95731">
        <ele>787.8</ele>
        <time>2015-11-07T08:11:46Z</time>
      </trkpt>
      <trkpt lat="43.73379" lon="6.95717">
        <ele>788.2</ele>
        <time>2015-11-07T08:11:50Z</time>
      </trkpt>
      <trkpt lat="43.73379" lon="6.95714">
        <ele>788.6</ele>
        <time>2015-11-07T08:11:51Z</time>
      </trkpt>
      <trkpt lat="43.73379" lon="6.95711">
        <ele>789</ele>
        <time>2015-11-07T08:11:52Z</time>
      </trkpt>
      <trkpt lat="43.73379" lon="6.95707">
        <ele>789.4</ele>
        <time>2015-11-07T08:11:53Z</time>
      </trkpt>
      <trkpt lat="43.73379" lon="6.95704">
        <ele>789.8</ele>
        <time>2015-11-07T08:11:54Z</time>
      </trkpt>
      <trkpt lat="43.73383" lon="6.95689">
        <ele>789.8</ele>
        <time>2015-11-07T08:11:59Z</time>
      </trkpt>
      <trkpt lat="43.73389" lon="6.95671">
        <ele>790.2</ele>
        <time>2015-11-07T08:12:05Z</time>
      </trkpt>
      <trkpt lat="43.73389" lon="6.95668">
        <ele>790.6</ele>
        <time>2015-11-07T08:12:06Z</time>
      </trkpt>
      <trkpt lat="43.7339" lon="6.95665">
        <ele>791</ele>
        <time>2015-11-07T08:12:07Z</time>
      </trkpt>
      <trkpt lat="43.73391" lon="6.95662">
        <ele>791.4</ele>
        <time>2015-11-07T08:12:08Z</time>
      </trkpt>
      <trkpt lat="43.73392" lon="6.95659">
        <ele>791.8</ele>
        <time>2015-11-07T08:12:09Z</time>
      </trkpt>
      <trkpt lat="43.734" lon="6.95637">
        <ele>791.8</ele>
        <time>2015-11-07T08:12:17Z</time>
      </trkpt>
      <trkpt lat="43.73404" lon="6.95631">
        <ele>792.2</ele>
        <time>2015-11-07T08:12:20Z</time>
      </trkpt>
      <trkpt lat="43.73405" lon="6.95629">
        <ele>792.8</ele>
        <time>2015-11-07T08:12:21Z</time>
      </trkpt>
      <trkpt lat="43.73407" lon="6.95626">
        <ele>793.2</ele>
        <time>2015-11-07T08:12:22Z</time>
      </trkpt>
      <trkpt lat="43.73408" lon="6.95624">
        <ele>793.6</ele>
        <time>2015-11-07T08:12:23Z</time>
      </trkpt>
      <trkpt lat="43.7341" lon="6.95623">
        <ele>794</ele>
        <time>2015-11-07T08:12:24Z</time>
      </trkpt>
      <trkpt lat="43.73422" lon="6.95608">
        <ele>794.6</ele>
        <time>2015-11-07T08:12:31Z</time>
      </trkpt>
      <trkpt lat="43.73423" lon="6.95606">
        <ele>795</ele>
        <time>2015-11-07T08:12:32Z</time>
      </trkpt>
      <trkpt lat="43.73426" lon="6.95605">
        <ele>795.6</ele>
        <time>2015-11-07T08:12:33Z</time>
      </trkpt>
      <trkpt lat="43.73428" lon="6.95603">
        <ele>796</ele>
        <time>2015-11-07T08:12:34Z</time>
      </trkpt>
      <trkpt lat="43.73429" lon="6.95602">
        <ele>796.4</ele>
        <time>2015-11-07T08:12:35Z</time>
      </trkpt>
      <trkpt lat="43.73437" lon="6.95596">
        <ele>796.4</ele>
        <time>2015-11-07T08:12:39Z</time>
      </trkpt>
      <trkpt lat="43.7345" lon="6.95588">
        <ele>797</ele>
        <time>2015-11-07T08:12:45Z</time>
      </trkpt>
      <trkpt lat="43.73452" lon="6.95586">
        <ele>797.4</ele>
        <time>2015-11-07T08:12:46Z</time>
      </trkpt>
      <trkpt lat="43.73452" lon="6.95583">
        <ele>797.8</ele>
        <time>2015-11-07T08:12:47Z</time>
      </trkpt>
      <trkpt lat="43.73454" lon="6.9558">
        <ele>798.2</ele>
        <time>2015-11-07T08:12:48Z</time>
      </trkpt>
      <trkpt lat="43.73454" lon="6.95577">
        <ele>798.6</ele>
        <time>2015-11-07T08:12:49Z</time>
      </trkpt>
      <trkpt lat="43.73461" lon="6.95558">
        <ele>798.6</ele>
        <time>2015-11-07T08:12:55Z</time>
      </trkpt>
      <trkpt lat="43.73462" lon="6.95535">
        <ele>799</ele>
        <time>2015-11-07T08:13:02Z</time>
      </trkpt>
      <trkpt lat="43.73462" lon="6.95532">
        <ele>799.6</ele>
        <time>2015-11-07T08:13:03Z</time>
      </trkpt>
      <trkpt lat="43.73462" lon="6.95529">
        <ele>800</ele>
        <time>2015-11-07T08:13:04Z</time>
      </trkpt>
      <trkpt lat="43.73462" lon="6.95526">
        <ele>800.4</ele>
        <time>2015-11-07T08:13:05Z</time>
      </trkpt>
      <trkpt lat="43.73462" lon="6.95522">
        <ele>801</ele>
        <time>2015-11-07T08:13:06Z</time>
      </trkpt>
      <trkpt lat="43.73462" lon="6.95507">
        <ele>801</ele>
        <time>2015-11-07T08:13:11Z</time>
      </trkpt>
      <trkpt lat="43.73463" lon="6.95486">
        <ele>801.4</ele>
        <time>2015-11-07T08:13:18Z</time>
      </trkpt>
      <trkpt lat="43.73463" lon="6.95483">
        <ele>801.8</ele>
        <time>2015-11-07T08:13:19Z</time>
      </trkpt>
      <trkpt lat="43.73463" lon="6.9548">
        <ele>802.2</ele>
        <time>2015-11-07T08:13:20Z</time>
      </trkpt>
      <trkpt lat="43.73463" lon="6.95477">
        <ele>802.6</ele>
        <time>2015-11-07T08:13:21Z</time>
      </trkpt>
      <trkpt lat="43.73464" lon="6.95474">
        <ele>803</ele>
        <time>2015-11-07T08:13:22Z</time>
      </trkpt>
      <trkpt lat="43.73465" lon="6.95452">
        <ele>803</ele>
        <time>2015-11-07T08:13:29Z</time>
      </trkpt>
      <trkpt lat="43.73465" lon="6.95444">
        <ele>803.4</ele>
        <time>2015-11-07T08:13:31Z</time>
      </trkpt>
      <trkpt lat="43.73465" lon="6.95441">
        <ele>803.8</ele>
        <time>2015-11-07T08:13:32Z</time>
      </trkpt>
      <trkpt lat="43.73465" lon="6.95439">
        <ele>804.2</ele>
        <time>2015-11-07T08:13:33Z</time>
      </trkpt>
      <trkpt lat="43.73465" lon="6.95436">
        <ele>804.6</ele>
        <time>2015-11-07T08:13:34Z</time>
      </trkpt>
      <trkpt lat="43.73464" lon="6.95433">
        <ele>805</ele>
        <time>2015-11-07T08:13:35Z</time>
      </trkpt>
      <trkpt lat="43.73464" lon="6.95413">
        <ele>805.4</ele>
        <time>2015-11-07T08:13:41Z</time>
      </trkpt>
      <trkpt lat="43.73464" lon="6.9541">
        <ele>806</ele>
        <time>2015-11-07T08:13:42Z</time>
      </trkpt>
      <trkpt lat="43.73463" lon="6.95406">
        <ele>806.4</ele>
        <time>2015-11-07T08:13:43Z</time>
      </trkpt>
      <trkpt lat="43.73463" lon="6.95403">
        <ele>806.8</ele>
        <time>2015-11-07T08:13:44Z</time>
      </trkpt>
      <trkpt lat="43.73463" lon="6.954">
        <ele>807.2</ele>
        <time>2015-11-07T08:13:45Z</time>
      </trkpt>
      <trkpt lat="43.73465" lon="6.95377">
        <ele>807.2</ele>
        <time>2015-11-07T08:13:52Z</time>
      </trkpt>
      <trkpt lat="43.7347" lon="6.9536">
        <ele>807.6</ele>
        <time>2015-11-07T08:13:58Z</time>
      </trkpt>
      <trkpt lat="43.73471" lon="6.95358">
        <ele>808</ele>
        <time>2015-11-07T08:13:59Z</time>
      </trkpt>
      <trkpt lat="43.73471" lon="6.95356">
        <ele>808.4</ele>
        <time>2015-11-07T08:14:00Z</time>
      </trkpt>
      <trkpt lat="43.73472" lon="6.95353">
        <ele>808.8</ele>
        <time>2015-11-07T08:14:01Z</time>
      </trkpt>
      <trkpt lat="43.73472" lon="6.9535">
        <ele>809.2</ele>
        <time>2015-11-07T08:14:02Z</time>
      </trkpt>
      <trkpt lat="43.73477" lon="6.95332">
        <ele>809.2</ele>
        <time>2015-11-07T08:14:09Z</time>
      </trkpt>
      <trkpt lat="43.73482" lon="6.9532">
        <ele>809.8</ele>
        <time>2015-11-07T08:14:15Z</time>
      </trkpt>
      <trkpt lat="43.73484" lon="6.95318">
        <ele>810.2</ele>
        <time>2015-11-07T08:14:16Z</time>
      </trkpt>
      <trkpt lat="43.73485" lon="6.95316">
        <ele>810.6</ele>
        <time>2015-11-07T08:14:17Z</time>
      </trkpt>
      <trkpt lat="43.73487" lon="6.95315">
        <ele>811.2</ele>
        <time>2015-11-07T08:14:18Z</time>
      </trkpt>
      <trkpt lat="43.73488" lon="6.95313">
        <ele>811.6</ele>
        <time>2015-11-07T08:14:19Z</time>
      </trkpt>
      <trkpt lat="43.73495" lon="6.95302">
        <ele>811.6</ele>
        <time>2015-11-07T08:14:24Z</time>
      </trkpt>
      <trkpt lat="43.73499" lon="6.95293">
        <ele>812</ele>
        <time>2015-11-07T08:14:28Z</time>
      </trkpt>
      <trkpt lat="43.735" lon="6.9529">
        <ele>812.4</ele>
        <time>2015-11-07T08:14:29Z</time>
      </trkpt>
      <trkpt lat="43.73501" lon="6.95288">
        <ele>812.8</ele>
        <time>2015-11-07T08:14:30Z</time>
      </trkpt>
      <trkpt lat="43.73503" lon="6.95286">
        <ele>813.2</ele>
        <time>2015-11-07T08:14:31Z</time>
      </trkpt>
      <trkpt lat="43.73504" lon="6.95283">
        <ele>813.6</ele>
        <time>2015-11-07T08:14:32Z</time>
      </trkpt>
      <trkpt lat="43.73505" lon="6.9528">
        <ele>813.6</ele>
        <time>2015-11-07T08:14:33Z</time>
      </trkpt>
      <trkpt lat="43.73519" lon="6.95264">
        <ele>813.6</ele>
        <time>2015-11-07T08:14:41Z</time>
      </trkpt>
      <trkpt lat="43.73522" lon="6.95259">
        <ele>814</ele>
        <time>2015-11-07T08:14:43Z</time>
      </trkpt>
      <trkpt lat="43.73524" lon="6.95257">
        <ele>814.6</ele>
        <time>2015-11-07T08:14:44Z</time>
      </trkpt>
      <trkpt lat="43.73525" lon="6.95255">
        <ele>815</ele>
        <time>2015-11-07T08:14:45Z</time>
      </trkpt>
      <trkpt lat="43.73526" lon="6.95252">
        <ele>815.4</ele>
        <time>2015-11-07T08:14:46Z</time>
      </trkpt>
      <trkpt lat="43.73528" lon="6.95249">
        <ele>815.8</ele>
        <time>2015-11-07T08:14:47Z</time>
      </trkpt>
      <trkpt lat="43.73533" lon="6.95242">
        <ele>815.8</ele>
        <time>2015-11-07T08:14:49Z</time>
      </trkpt>
      <trkpt lat="43.73544" lon="6.95224">
        <ele>815.8</ele>
        <time>2015-11-07T08:14:57Z</time>
      </trkpt>
      <trkpt lat="43.73548" lon="6.95219">
        <ele>816.2</ele>
        <time>2015-11-07T08:14:59Z</time>
      </trkpt>
      <trkpt lat="43.73549" lon="6.95217">
        <ele>816.6</ele>
        <time>2015-11-07T08:15:00Z</time>
      </trkpt>
      <trkpt lat="43.7355" lon="6.95215">
        <ele>817.2</ele>
        <time>2015-11-07T08:15:01Z</time>
      </trkpt>
      <trkpt lat="43.73551" lon="6.95212">
        <ele>817.6</ele>
        <time>2015-11-07T08:15:02Z</time>
      </trkpt>
      <trkpt lat="43.73553" lon="6.9521">
        <ele>818</ele>
        <time>2015-11-07T08:15:03Z</time>
      </trkpt>
      <trkpt lat="43.73557" lon="6.95204">
        <ele>818</ele>
        <time>2015-11-07T08:15:06Z</time>
      </trkpt>
      <trkpt lat="43.73568" lon="6.95192">
        <ele>818</ele>
        <time>2015-11-07T08:15:13Z</time>
      </trkpt>
      <trkpt lat="43.7357" lon="6.9519">
        <ele>818.4</ele>
        <time>2015-11-07T08:15:14Z</time>
      </trkpt>
      <trkpt lat="43.73572" lon="6.95189">
        <ele>818.8</ele>
        <time>2015-11-07T08:15:15Z</time>
      </trkpt>
      <trkpt lat="43.73574" lon="6.95187">
        <ele>819.2</ele>
        <time>2015-11-07T08:15:16Z</time>
      </trkpt>
      <trkpt lat="43.73575" lon="6.95185">
        <ele>819.8</ele>
        <time>2015-11-07T08:15:17Z</time>
      </trkpt>
      <trkpt lat="43.73577" lon="6.95183">
        <ele>820.2</ele>
        <time>2015-11-07T08:15:18Z</time>
      </trkpt>
      <trkpt lat="43.73587" lon="6.95174">
        <ele>820.2</ele>
        <time>2015-11-07T08:15:23Z</time>
      </trkpt>
      <trkpt lat="43.73594" lon="6.9517">
        <ele>820.6</ele>
        <time>2015-11-07T08:15:27Z</time>
      </trkpt>
      <trkpt lat="43.73596" lon="6.95169">
        <ele>821</ele>
        <time>2015-11-07T08:15:28Z</time>
      </trkpt>
      <trkpt lat="43.73598" lon="6.95168">
        <ele>821.6</ele>
        <time>2015-11-07T08:15:29Z</time>
      </trkpt>
      <trkpt lat="43.73599" lon="6.95166">
        <ele>822</ele>
        <time>2015-11-07T08:15:30Z</time>
      </trkpt>
      <trkpt lat="43.73601" lon="6.95164">
        <ele>822.4</ele>
        <time>2015-11-07T08:15:31Z</time>
      </trkpt>
      <trkpt lat="43.73606" lon="6.95154">
        <ele>822.8</ele>
        <time>2015-11-07T08:15:36Z</time>
      </trkpt>
      <trkpt lat="43.73608" lon="6.95151">
        <ele>823.2</ele>
        <time>2015-11-07T08:15:37Z</time>
      </trkpt>
      <trkpt lat="43.73609" lon="6.9515">
        <ele>823.6</ele>
        <time>2015-11-07T08:15:38Z</time>
      </trkpt>
      <trkpt lat="43.7361" lon="6.95147">
        <ele>824</ele>
        <time>2015-11-07T08:15:39Z</time>
      </trkpt>
      <trkpt lat="43.73611" lon="6.95145">
        <ele>824.4</ele>
        <time>2015-11-07T08:15:40Z</time>
      </trkpt>
      <trkpt lat="43.73613" lon="6.95122">
        <ele>824.4</ele>
        <time>2015-11-07T08:15:48Z</time>
      </trkpt>
      <trkpt lat="43.7361" lon="6.95118">
        <ele>824.8</ele>
        <time>2015-11-07T08:15:50Z</time>
      </trkpt>
      <trkpt lat="43.73607" lon="6.95117">
        <ele>825.2</ele>
        <time>2015-11-07T08:15:51Z</time>
      </trkpt>
      <trkpt lat="43.73605" lon="6.95116">
        <ele>825.6</ele>
        <time>2015-11-07T08:15:52Z</time>
      </trkpt>
      <trkpt lat="43.73603" lon="6.95115">
        <ele>826.2</ele>
        <time>2015-11-07T08:15:53Z</time>
      </trkpt>
      <trkpt lat="43.73601" lon="6.95114">
        <ele>826.6</ele>
        <time>2015-11-07T08:15:54Z</time>
      </trkpt>
      <trkpt lat="43.73588" lon="6.95113">
        <ele>826.6</ele>
        <time>2015-11-07T08:15:59Z</time>
      </trkpt>
      <trkpt lat="43.73568" lon="6.95111">
        <ele>827</ele>
        <time>2015-11-07T08:16:08Z</time>
      </trkpt>
      <trkpt lat="43.73566" lon="6.95111">
        <ele>827.4</ele>
        <time>2015-11-07T08:16:09Z</time>
      </trkpt>
      <trkpt lat="43.73564" lon="6.95111">
        <ele>827.8</ele>
        <time>2015-11-07T08:16:10Z</time>
      </trkpt>
      <trkpt lat="43.73562" lon="6.95112">
        <ele>828.2</ele>
        <time>2015-11-07T08:16:11Z</time>
      </trkpt>
      <trkpt lat="43.73559" lon="6.95112">
        <ele>828.6</ele>
        <time>2015-11-07T08:16:12Z</time>
      </trkpt>
      <trkpt lat="43.73549" lon="6.95113">
        <ele>828.6</ele>
        <time>2015-11-07T08:16:17Z</time>
      </trkpt>
      <trkpt lat="43.73535" lon="6.95115">
        <ele>829</ele>
        <time>2015-11-07T08:16:23Z</time>
      </trkpt>
      <trkpt lat="43.73533" lon="6.95115">
        <ele>829.4</ele>
        <time>2015-11-07T08:16:24Z</time>
      </trkpt>
      <trkpt lat="43.7353" lon="6.95116">
        <ele>829.8</ele>
        <time>2015-11-07T08:16:25Z</time>
      </trkpt>
      <trkpt lat="43.73527" lon="6.95117">
        <ele>830.2</ele>
        <time>2015-11-07T08:16:26Z</time>
      </trkpt>
      <trkpt lat="43.73524" lon="6.95117">
        <ele>830.8</ele>
        <time>2015-11-07T08:16:27Z</time>
      </trkpt>
      <trkpt lat="43.73513" lon="6.95115">
        <ele>830.8</ele>
        <time>2015-11-07T08:16:32Z</time>
      </trkpt>
      <trkpt lat="43.73506" lon="6.95116">
        <ele>831.2</ele>
        <time>2015-11-07T08:16:35Z</time>
      </trkpt>
      <trkpt lat="43.73504" lon="6.95116">
        <ele>831.6</ele>
        <time>2015-11-07T08:16:36Z</time>
      </trkpt>
      <trkpt lat="43.73501" lon="6.95116">
        <ele>832</ele>
        <time>2015-11-07T08:16:37Z</time>
      </trkpt>
      <trkpt lat="43.73499" lon="6.95116">
        <ele>832.4</ele>
        <time>2015-11-07T08:16:38Z</time>
      </trkpt>
      <trkpt lat="43.73497" lon="6.95117">
        <ele>832.8</ele>
        <time>2015-11-07T08:16:39Z</time>
      </trkpt>
      <trkpt lat="43.73477" lon="6.95118">
        <ele>832.8</ele>
        <time>2015-11-07T08:16:47Z</time>
      </trkpt>
      <trkpt lat="43.73472" lon="6.95119">
        <ele>833.2</ele>
        <time>2015-11-07T08:16:49Z</time>
      </trkpt>
      <trkpt lat="43.7347" lon="6.95119">
        <ele>833.8</ele>
        <time>2015-11-07T08:16:50Z</time>
      </trkpt>
      <trkpt lat="43.73468" lon="6.95119">
        <ele>834.2</ele>
        <time>2015-11-07T08:16:51Z</time>
      </trkpt>
      <trkpt lat="43.73467" lon="6.95118">
        <ele>834.6</ele>
        <time>2015-11-07T08:16:52Z</time>
      </trkpt>
      <trkpt lat="43.73465" lon="6.95117">
        <ele>835</ele>
        <time>2015-11-07T08:16:53Z</time>
      </trkpt>
      <trkpt lat="43.7346" lon="6.95117">
        <ele>835</ele>
        <time>2015-11-07T08:16:55Z</time>
      </trkpt>
      <trkpt lat="43.73446" lon="6.95117">
        <ele>835.4</ele>
        <time>2015-11-07T08:17:01Z</time>
      </trkpt>
      <trkpt lat="43.73443" lon="6.95117">
        <ele>835.8</ele>
        <time>2015-11-07T08:17:02Z</time>
      </trkpt>
      <trkpt lat="43.73441" lon="6.95116">
        <ele>836.4</ele>
        <time>2015-11-07T08:17:03Z</time>
      </trkpt>
      <trkpt lat="43.73439" lon="6.95116">
        <ele>836.8</ele>
        <time>2015-11-07T08:17:04Z</time>
      </trkpt>
      <trkpt lat="43.73437" lon="6.95115">
        <ele>837.2</ele>
        <time>2015-11-07T08:17:05Z</time>
      </trkpt>
      <trkpt lat="43.73422" lon="6.95106">
        <ele>837.2</ele>
        <time>2015-11-07T08:17:12Z</time>
      </trkpt>
      <trkpt lat="43.7341" lon="6.95098">
        <ele>837.6</ele>
        <time>2015-11-07T08:17:18Z</time>
      </trkpt>
      <trkpt lat="43.73408" lon="6.95097">
        <ele>838</ele>
        <time>2015-11-07T08:17:19Z</time>
      </trkpt>
      <trkpt lat="43.73406" lon="6.95096">
        <ele>838.4</ele>
        <time>2015-11-07T08:17:20Z</time>
      </trkpt>
      <trkpt lat="43.73404" lon="6.95096">
        <ele>838.8</ele>
        <time>2015-11-07T08:17:21Z</time>
      </trkpt>
      <trkpt lat="43.73403" lon="6.95095">
        <ele>839.4</ele>
        <time>2015-11-07T08:17:22Z</time>
      </trkpt>
      <trkpt lat="43.73393" lon="6.95095">
        <ele>839.4</ele>
        <time>2015-11-07T08:17:27Z</time>
      </trkpt>
      <trkpt lat="43.73386" lon="6.95099">
        <ele>839.8</ele>
        <time>2015-11-07T08:17:31Z</time>
      </trkpt>
      <trkpt lat="43.73384" lon="6.95103">
        <ele>840.2</ele>
        <time>2015-11-07T08:17:32Z</time>
      </trkpt>
      <trkpt lat="43.73383" lon="6.95105">
        <ele>840.6</ele>
        <time>2015-11-07T08:17:33Z</time>
      </trkpt>
      <trkpt lat="43.73381" lon="6.95107">
        <ele>841</ele>
        <time>2015-11-07T08:17:34Z</time>
      </trkpt>
      <trkpt lat="43.7338" lon="6.95108">
        <ele>841.4</ele>
        <time>2015-11-07T08:17:35Z</time>
      </trkpt>
      <trkpt lat="43.73371" lon="6.95125">
        <ele>841.4</ele>
        <time>2015-11-07T08:17:42Z</time>
      </trkpt>
      <trkpt lat="43.73367" lon="6.95131">
        <ele>841.8</ele>
        <time>2015-11-07T08:17:45Z</time>
      </trkpt>
      <trkpt lat="43.73366" lon="6.95132">
        <ele>842.2</ele>
        <time>2015-11-07T08:17:46Z</time>
      </trkpt>
      <trkpt lat="43.73365" lon="6.95134">
        <ele>842.8</ele>
        <time>2015-11-07T08:17:47Z</time>
      </trkpt>
      <trkpt lat="43.73363" lon="6.95135">
        <ele>843.2</ele>
        <time>2015-11-07T08:17:48Z</time>
      </trkpt>
      <trkpt lat="43.73362" lon="6.95137">
        <ele>843.6</ele>
        <time>2015-11-07T08:17:49Z</time>
      </trkpt>
      <trkpt lat="43.73359" lon="6.95141">
        <ele>843.6</ele>
        <time>2015-11-07T08:17:51Z</time>
      </trkpt>
      <trkpt lat="43.73344" lon="6.95159">
        <ele>843.6</ele>
        <time>2015-11-07T08:18:00Z</time>
      </trkpt>
      <trkpt lat="43.73343" lon="6.95162">
        <ele>844</ele>
        <time>2015-11-07T08:18:01Z</time>
      </trkpt>
      <trkpt lat="43.73342" lon="6.95163">
        <ele>844.4</ele>
        <time>2015-11-07T08:18:02Z</time>
      </trkpt>
      <trkpt lat="43.7334" lon="6.95165">
        <ele>844.8</ele>
        <time>2015-11-07T08:18:03Z</time>
      </trkpt>
      <trkpt lat="43.73338" lon="6.95167">
        <ele>845.2</ele>
        <time>2015-11-07T08:18:04Z</time>
      </trkpt>
      <trkpt lat="43.73337" lon="6.95169">
        <ele>845.6</ele>
        <time>2015-11-07T08:18:05Z</time>
      </trkpt>
      <trkpt lat="43.73326" lon="6.95177">
        <ele>845.6</ele>
        <time>2015-11-07T08:18:10Z</time>
      </trkpt>
      <trkpt lat="43.7332" lon="6.95183">
        <ele>846.2</ele>
        <time>2015-11-07T08:18:14Z</time>
      </trkpt>
      <trkpt lat="43.73318" lon="6.95185">
        <ele>846.6</ele>
        <time>2015-11-07T08:18:15Z</time>
      </trkpt>
      <trkpt lat="43.73316" lon="6.95186">
        <ele>847</ele>
        <time>2015-11-07T08:18:16Z</time>
      </trkpt>
      <trkpt lat="43.73314" lon="6.95187">
        <ele>847.4</ele>
        <time>2015-11-07T08:18:17Z</time>
      </trkpt>
      <trkpt lat="43.73312" lon="6.95188">
        <ele>847.8</ele>
        <time>2015-11-07T08:18:18Z</time>
      </trkpt>
      <trkpt lat="43.73308" lon="6.95191">
        <ele>847.8</ele>
        <time>2015-11-07T08:18:20Z</time>
      </trkpt>
      <trkpt lat="43.73294" lon="6.9519">
        <ele>848.2</ele>
        <time>2015-11-07T08:18:27Z</time>
      </trkpt>
      <trkpt lat="43.73292" lon="6.9519">
        <ele>848.6</ele>
        <time>2015-11-07T08:18:28Z</time>
      </trkpt>
      <trkpt lat="43.7329" lon="6.95191">
        <ele>849.2</ele>
        <time>2015-11-07T08:18:29Z</time>
      </trkpt>
      <trkpt lat="43.73288" lon="6.95192">
        <ele>849.6</ele>
        <time>2015-11-07T08:18:30Z</time>
      </trkpt>
      <trkpt lat="43.73286" lon="6.95192">
        <ele>850</ele>
        <time>2015-11-07T08:18:31Z</time>
      </trkpt>
      <trkpt lat="43.73273" lon="6.95189">
        <ele>850</ele>
        <time>2015-11-07T08:18:37Z</time>
      </trkpt>
      <trkpt lat="43.7326" lon="6.95186">
        <ele>850.6</ele>
        <time>2015-11-07T08:18:43Z</time>
      </trkpt>
      <trkpt lat="43.73258" lon="6.95186">
        <ele>851</ele>
        <time>2015-11-07T08:18:44Z</time>
      </trkpt>
      <trkpt lat="43.73256" lon="6.95185">
        <ele>851.6</ele>
        <time>2015-11-07T08:18:45Z</time>
      </trkpt>
      <trkpt lat="43.73253" lon="6.95185">
        <ele>852</ele>
        <time>2015-11-07T08:18:46Z</time>
      </trkpt>
      <trkpt lat="43.73252" lon="6.95184">
        <ele>852.4</ele>
        <time>2015-11-07T08:18:47Z</time>
      </trkpt>
      <trkpt lat="43.73236" lon="6.95182">
        <ele>852.4</ele>
        <time>2015-11-07T08:18:54Z</time>
      </trkpt>
      <trkpt lat="43.73223" lon="6.95179">
        <ele>852.8</ele>
        <time>2015-11-07T08:19:00Z</time>
      </trkpt>
      <trkpt lat="43.7322" lon="6.95179">
        <ele>853.8</ele>
        <time>2015-11-07T08:19:01Z</time>
      </trkpt>
      <trkpt lat="43.73218" lon="6.9518">
        <ele>854.2</ele>
        <time>2015-11-07T08:19:02Z</time>
      </trkpt>
      <trkpt lat="43.73215" lon="6.95179">
        <ele>854.6</ele>
        <time>2015-11-07T08:19:03Z</time>
      </trkpt>
      <trkpt lat="43.73199" lon="6.95175">
        <ele>855</ele>
        <time>2015-11-07T08:19:11Z</time>
      </trkpt>
      <trkpt lat="43.73197" lon="6.95175">
        <ele>855.4</ele>
        <time>2015-11-07T08:19:12Z</time>
      </trkpt>
      <trkpt lat="43.73195" lon="6.95176">
        <ele>856</ele>
        <time>2015-11-07T08:19:13Z</time>
      </trkpt>
      <trkpt lat="43.73193" lon="6.95176">
        <ele>856.4</ele>
        <time>2015-11-07T08:19:14Z</time>
      </trkpt>
      <trkpt lat="43.73191" lon="6.95177">
        <ele>856.8</ele>
        <time>2015-11-07T08:19:15Z</time>
      </trkpt>
      <trkpt lat="43.73186" lon="6.95181">
        <ele>856.8</ele>
        <time>2015-11-07T08:19:18Z</time>
      </trkpt>
      <trkpt lat="43.73171" lon="6.95198">
        <ele>857.2</ele>
        <time>2015-11-07T08:19:26Z</time>
      </trkpt>
      <trkpt lat="43.7317" lon="6.95201">
        <ele>857.6</ele>
        <time>2015-11-07T08:19:27Z</time>
      </trkpt>
      <trkpt lat="43.73169" lon="6.95204">
        <ele>858</ele>
        <time>2015-11-07T08:19:28Z</time>
      </trkpt>
      <trkpt lat="43.73168" lon="6.95207">
        <ele>858.4</ele>
        <time>2015-11-07T08:19:29Z</time>
      </trkpt>
      <trkpt lat="43.73167" lon="6.9521">
        <ele>859</ele>
        <time>2015-11-07T08:19:30Z</time>
      </trkpt>
      <trkpt lat="43.73168" lon="6.95221">
        <ele>859</ele>
        <time>2015-11-07T08:19:34Z</time>
      </trkpt>
      <trkpt lat="43.73168" lon="6.95236">
        <ele>859.4</ele>
        <time>2015-11-07T08:19:39Z</time>
      </trkpt>
      <trkpt lat="43.73168" lon="6.95239">
        <ele>859.8</ele>
        <time>2015-11-07T08:19:40Z</time>
      </trkpt>
      <trkpt lat="43.73167" lon="6.95245">
        <ele>860.2</ele>
        <time>2015-11-07T08:19:42Z</time>
      </trkpt>
      <trkpt lat="43.73167" lon="6.95248">
        <ele>860.6</ele>
        <time>2015-11-07T08:19:43Z</time>
      </trkpt>
      <trkpt lat="43.73166" lon="6.95251">
        <ele>861.2</ele>
        <time>2015-11-07T08:19:44Z</time>
      </trkpt>
      <trkpt lat="43.73163" lon="6.95273">
        <ele>861.2</ele>
        <time>2015-11-07T08:19:52Z</time>
      </trkpt>
      <trkpt lat="43.73163" lon="6.95277">
        <ele>861.6</ele>
        <time>2015-11-07T08:19:53Z</time>
      </trkpt>
      <trkpt lat="43.73163" lon="6.95282">
        <ele>862</ele>
        <time>2015-11-07T08:19:55Z</time>
      </trkpt>
      <trkpt lat="43.73162" lon="6.95285">
        <ele>862.8</ele>
        <time>2015-11-07T08:19:56Z</time>
      </trkpt>
      <trkpt lat="43.73161" lon="6.95291">
        <ele>863.4</ele>
        <time>2015-11-07T08:19:58Z</time>
      </trkpt>
      <trkpt lat="43.73159" lon="6.95296">
        <ele>863.4</ele>
        <time>2015-11-07T08:20:00Z</time>
      </trkpt>
      <trkpt lat="43.73146" lon="6.95313">
        <ele>864.2</ele>
        <time>2015-11-07T08:20:07Z</time>
      </trkpt>
      <trkpt lat="43.73144" lon="6.95315">
        <ele>864.6</ele>
        <time>2015-11-07T08:20:08Z</time>
      </trkpt>
      <trkpt lat="43.73141" lon="6.9532">
        <ele>865.4</ele>
        <time>2015-11-07T08:20:10Z</time>
      </trkpt>
      <trkpt lat="43.73138" lon="6.95328">
        <ele>865.4</ele>
        <time>2015-11-07T08:20:13Z</time>
      </trkpt>
      <trkpt lat="43.73133" lon="6.95336">
        <ele>865.4</ele>
        <time>2015-11-07T08:20:16Z</time>
      </trkpt>
      <trkpt lat="43.73116" lon="6.95343">
        <ele>865.8</ele>
        <time>2015-11-07T08:20:24Z</time>
      </trkpt>
      <trkpt lat="43.73114" lon="6.95342">
        <ele>866.4</ele>
        <time>2015-11-07T08:20:25Z</time>
      </trkpt>
      <trkpt lat="43.73113" lon="6.95341">
        <ele>866.8</ele>
        <time>2015-11-07T08:20:26Z</time>
      </trkpt>
      <trkpt lat="43.73112" lon="6.95339">
        <ele>867.8</ele>
        <time>2015-11-07T08:20:27Z</time>
      </trkpt>
      <trkpt lat="43.73111" lon="6.95333">
        <ele>867.8</ele>
        <time>2015-11-07T08:20:29Z</time>
      </trkpt>
      <trkpt lat="43.73111" lon="6.95331">
        <ele>867.8</ele>
        <time>2015-11-07T08:20:30Z</time>
      </trkpt>
      <trkpt lat="43.73118" lon="6.95312">
        <ele>867.8</ele>
        <time>2015-11-07T08:20:37Z</time>
      </trkpt>
      <trkpt lat="43.7312" lon="6.9531">
        <ele>868.2</ele>
        <time>2015-11-07T08:20:38Z</time>
      </trkpt>
      <trkpt lat="43.73121" lon="6.95307">
        <ele>868.6</ele>
        <time>2015-11-07T08:20:39Z</time>
      </trkpt>
      <trkpt lat="43.73122" lon="6.95305">
        <ele>869.2</ele>
        <time>2015-11-07T08:20:40Z</time>
      </trkpt>
      <trkpt lat="43.73123" lon="6.95302">
        <ele>869.6</ele>
        <time>2015-11-07T08:20:41Z</time>
      </trkpt>
      <trkpt lat="43.73124" lon="6.95299">
        <ele>870</ele>
        <time>2015-11-07T08:20:42Z</time>
      </trkpt>
      <trkpt lat="43.7313" lon="6.95277">
        <ele>870</ele>
        <time>2015-11-07T08:20:49Z</time>
      </trkpt>
      <trkpt lat="43.73133" lon="6.95253">
        <ele>870</ele>
        <time>2015-11-07T08:20:57Z</time>
      </trkpt>
      <trkpt lat="43.73133" lon="6.9525">
        <ele>870.4</ele>
        <time>2015-11-07T08:20:58Z</time>
      </trkpt>
      <trkpt lat="43.73132" lon="6.95248">
        <ele>871</ele>
        <time>2015-11-07T08:20:59Z</time>
      </trkpt>
      <trkpt lat="43.73132" lon="6.95246">
        <ele>871.4</ele>
        <time>2015-11-07T08:21:00Z</time>
      </trkpt>
      <trkpt lat="43.73132" lon="6.95246">
        <ele>871.8</ele>
        <time>2015-11-07T08:21:01Z</time>
      </trkpt>
      <trkpt lat="43.73131" lon="6.95246">
        <ele>872.2</ele>
        <time>2015-11-07T08:21:02Z</time>
      </trkpt>
      <trkpt lat="43.73126" lon="6.95247">
        <ele>872.2</ele>
        <time>2015-11-07T08:21:05Z</time>
      </trkpt>
      <trkpt lat="43.73122" lon="6.95248">
        <ele>872.8</ele>
        <time>2015-11-07T08:21:07Z</time>
      </trkpt>
      <trkpt lat="43.7312" lon="6.95249">
        <ele>873.2</ele>
        <time>2015-11-07T08:21:08Z</time>
      </trkpt>
      <trkpt lat="43.73119" lon="6.95251">
        <ele>873.6</ele>
        <time>2015-11-07T08:21:09Z</time>
      </trkpt>
      <trkpt lat="43.73118" lon="6.95252">
        <ele>874.2</ele>
        <time>2015-11-07T08:21:10Z</time>
      </trkpt>
      <trkpt lat="43.73117" lon="6.95252">
        <ele>874.6</ele>
        <time>2015-11-07T08:21:11Z</time>
      </trkpt>
      <trkpt lat="43.73117" lon="6.95252">
        <ele>874.6</ele>
        <time>2015-11-07T08:21:14Z</time>
      </trkpt>
      <trkpt lat="43.73112" lon="6.95249">
        <ele>874.6</ele>
        <time>2015-11-07T08:21:23Z</time>
      </trkpt>
      <trkpt lat="43.73114" lon="6.9525">
        <ele>874.6</ele>
        <time>2015-11-07T08:23:41Z</time>
      </trkpt>
      <trkpt lat="43.73115" lon="6.9525">
        <ele>875</ele>
        <time>2015-11-07T08:25:15Z</time>
      </trkpt>
      <trkpt lat="43.73115" lon="6.95251">
        <ele>875.4</ele>
        <time>2015-11-07T08:25:16Z</time>
      </trkpt>
      <trkpt lat="43.73115" lon="6.95252">
        <ele>875.8</ele>
        <time>2015-11-07T08:25:17Z</time>
      </trkpt>
      <trkpt lat="43.73115" lon="6.95252">
        <ele>876.2</ele>
        <time>2015-11-07T08:25:18Z</time>
      </trkpt>
      <trkpt lat="43.73115" lon="6.95253">
        <ele>876.6</ele>
        <time>2015-11-07T08:25:19Z</time>
      </trkpt>
      <trkpt lat="43.73115" lon="6.95253">
        <ele>876.6</ele>
        <time>2015-11-07T08:25:21Z</time>
      </trkpt>
      <trkpt lat="43.73105" lon="6.95265">
        <ele>876.6</ele>
        <time>2015-11-07T08:25:46Z</time>
      </trkpt>
      <trkpt lat="43.73096" lon="6.95275">
        <ele>876.6</ele>
        <time>2015-11-07T08:25:52Z</time>
      </trkpt>
      <trkpt lat="43.73085" lon="6.9529">
        <ele>876.6</ele>
        <time>2015-11-07T08:26:00Z</time>
      </trkpt>
      <trkpt lat="43.73075" lon="6.95291">
        <ele>877.2</ele>
        <time>2015-11-07T08:26:06Z</time>
      </trkpt>
      <trkpt lat="43.73073" lon="6.9529">
        <ele>877.6</ele>
        <time>2015-11-07T08:26:07Z</time>
      </trkpt>
      <trkpt lat="43.73071" lon="6.9529">
        <ele>878</ele>
        <time>2015-11-07T08:26:08Z</time>
      </trkpt>
      <trkpt lat="43.7307" lon="6.95289">
        <ele>878.4</ele>
        <time>2015-11-07T08:26:09Z</time>
      </trkpt>
      <trkpt lat="43.73068" lon="6.95288">
        <ele>878.8</ele>
        <time>2015-11-07T08:26:10Z</time>
      </trkpt>
      <trkpt lat="43.7306" lon="6.95286">
        <ele>878.8</ele>
        <time>2015-11-07T08:26:15Z</time>
      </trkpt>
      <trkpt lat="43.73056" lon="6.95286">
        <ele>879.2</ele>
        <time>2015-11-07T08:26:17Z</time>
      </trkpt>
      <trkpt lat="43.73054" lon="6.95285">
        <ele>879.6</ele>
        <time>2015-11-07T08:26:18Z</time>
      </trkpt>
      <trkpt lat="43.73052" lon="6.95284">
        <ele>880</ele>
        <time>2015-11-07T08:26:19Z</time>
      </trkpt>
      <trkpt lat="43.7305" lon="6.95283">
        <ele>880.6</ele>
        <time>2015-11-07T08:26:20Z</time>
      </trkpt>
      <trkpt lat="43.73049" lon="6.95282">
        <ele>881</ele>
        <time>2015-11-07T08:26:21Z</time>
      </trkpt>
      <trkpt lat="43.73039" lon="6.95276">
        <ele>881</ele>
        <time>2015-11-07T08:26:27Z</time>
      </trkpt>
      <trkpt lat="43.73025" lon="6.95272">
        <ele>881</ele>
        <time>2015-11-07T08:26:34Z</time>
      </trkpt>
      <trkpt lat="43.73006" lon="6.9527">
        <ele>881</ele>
        <time>2015-11-07T08:26:42Z</time>
      </trkpt>
      <trkpt lat="43.72999" lon="6.95272">
        <ele>881.4</ele>
        <time>2015-11-07T08:26:45Z</time>
      </trkpt>
      <trkpt lat="43.72997" lon="6.95272">
        <ele>881.8</ele>
        <time>2015-11-07T08:26:46Z</time>
      </trkpt>
      <trkpt lat="43.72996" lon="6.95272">
        <ele>882.2</ele>
        <time>2015-11-07T08:26:47Z</time>
      </trkpt>
      <trkpt lat="43.72994" lon="6.95271">
        <ele>882.8</ele>
        <time>2015-11-07T08:26:48Z</time>
      </trkpt>
      <trkpt lat="43.72992" lon="6.95271">
        <ele>883.2</ele>
        <time>2015-11-07T08:26:49Z</time>
      </trkpt>
      <trkpt lat="43.7299" lon="6.95271">
        <ele>883.2</ele>
        <time>2015-11-07T08:26:50Z</time>
      </trkpt>
      <trkpt lat="43.72982" lon="6.95267">
        <ele>883.6</ele>
        <time>2015-11-07T08:26:56Z</time>
      </trkpt>
      <trkpt lat="43.72979" lon="6.95267">
        <ele>884</ele>
        <time>2015-11-07T08:26:57Z</time>
      </trkpt>
      <trkpt lat="43.72978" lon="6.95267">
        <ele>884.4</ele>
        <time>2015-11-07T08:26:58Z</time>
      </trkpt>
      <trkpt lat="43.72976" lon="6.95267">
        <ele>884.8</ele>
        <time>2015-11-07T08:26:59Z</time>
      </trkpt>
      <trkpt lat="43.72975" lon="6.95266">
        <ele>885.2</ele>
        <time>2015-11-07T08:27:00Z</time>
      </trkpt>
      <trkpt lat="43.7297" lon="6.95263">
        <ele>885.6</ele>
        <time>2015-11-07T08:27:03Z</time>
      </trkpt>
      <trkpt lat="43.72968" lon="6.95262">
        <ele>886</ele>
        <time>2015-11-07T08:27:04Z</time>
      </trkpt>
      <trkpt lat="43.72966" lon="6.95261">
        <ele>886.6</ele>
        <time>2015-11-07T08:27:05Z</time>
      </trkpt>
      <trkpt lat="43.72965" lon="6.9526">
        <ele>887</ele>
        <time>2015-11-07T08:27:06Z</time>
      </trkpt>
      <trkpt lat="43.72963" lon="6.9526">
        <ele>887.4</ele>
        <time>2015-11-07T08:27:07Z</time>
      </trkpt>
      <trkpt lat="43.72962" lon="6.95258">
        <ele>887.4</ele>
        <time>2015-11-07T08:27:09Z</time>
      </trkpt>
      <trkpt lat="43.72961" lon="6.95254">
        <ele>887.8</ele>
        <time>2015-11-07T08:27:11Z</time>
      </trkpt>
      <trkpt lat="43.72961" lon="6.95252">
        <ele>888.2</ele>
        <time>2015-11-07T08:27:12Z</time>
      </trkpt>
      <trkpt lat="43.72961" lon="6.9525">
        <ele>888.8</ele>
        <time>2015-11-07T08:27:13Z</time>
      </trkpt>
      <trkpt lat="43.72962" lon="6.95248">
        <ele>889.2</ele>
        <time>2015-11-07T08:27:14Z</time>
      </trkpt>
      <trkpt lat="43.72962" lon="6.95246">
        <ele>889.6</ele>
        <time>2015-11-07T08:27:15Z</time>
      </trkpt>
      <trkpt lat="43.72964" lon="6.95241">
        <ele>889.6</ele>
        <time>2015-11-07T08:27:18Z</time>
      </trkpt>
      <trkpt lat="43.72968" lon="6.9523">
        <ele>890</ele>
        <time>2015-11-07T08:27:23Z</time>
      </trkpt>
      <trkpt lat="43.72969" lon="6.95229">
        <ele>890.4</ele>
        <time>2015-11-07T08:27:24Z</time>
      </trkpt>
      <trkpt lat="43.7297" lon="6.95227">
        <ele>890.8</ele>
        <time>2015-11-07T08:27:25Z</time>
      </trkpt>
      <trkpt lat="43.72971" lon="6.95224">
        <ele>891.2</ele>
        <time>2015-11-07T08:27:26Z</time>
      </trkpt>
      <trkpt lat="43.72971" lon="6.95223">
        <ele>891.6</ele>
        <time>2015-11-07T08:27:27Z</time>
      </trkpt>
      <trkpt lat="43.72975" lon="6.95212">
        <ele>892</ele>
        <time>2015-11-07T08:27:32Z</time>
      </trkpt>
      <trkpt lat="43.72976" lon="6.9521">
        <ele>892.4</ele>
        <time>2015-11-07T08:27:33Z</time>
      </trkpt>
      <trkpt lat="43.72977" lon="6.95209">
        <ele>892.8</ele>
        <time>2015-11-07T08:27:34Z</time>
      </trkpt>
      <trkpt lat="43.72977" lon="6.95207">
        <ele>893.2</ele>
        <time>2015-11-07T08:27:35Z</time>
      </trkpt>
      <trkpt lat="43.72978" lon="6.95206">
        <ele>893.6</ele>
        <time>2015-11-07T08:27:36Z</time>
      </trkpt>
      <trkpt lat="43.72986" lon="6.95195">
        <ele>893.6</ele>
        <time>2015-11-07T08:27:43Z</time>
      </trkpt>
      <trkpt lat="43.72993" lon="6.95185">
        <ele>894</ele>
        <time>2015-11-07T08:27:50Z</time>
      </trkpt>
      <trkpt lat="43.72994" lon="6.95184">
        <ele>894.6</ele>
        <time>2015-11-07T08:27:51Z</time>
      </trkpt>
      <trkpt lat="43.72995" lon="6.95182">
        <ele>895</ele>
        <time>2015-11-07T08:27:52Z</time>
      </trkpt>
      <trkpt lat="43.72996" lon="6.95181">
        <ele>895.4</ele>
        <time>2015-11-07T08:27:53Z</time>
      </trkpt>
      <trkpt lat="43.72997" lon="6.95178">
        <ele>895.8</ele>
        <time>2015-11-07T08:27:54Z</time>
      </trkpt>
      <trkpt lat="43.73" lon="6.95165">
        <ele>895.8</ele>
        <time>2015-11-07T08:28:00Z</time>
      </trkpt>
      <trkpt lat="43.72998" lon="6.95161">
        <ele>896.2</ele>
        <time>2015-11-07T08:28:02Z</time>
      </trkpt>
      <trkpt lat="43.72997" lon="6.95159">
        <ele>896.6</ele>
        <time>2015-11-07T08:28:03Z</time>
      </trkpt>
      <trkpt lat="43.72996" lon="6.95157">
        <ele>897</ele>
        <time>2015-11-07T08:28:04Z</time>
      </trkpt>
      <trkpt lat="43.72995" lon="6.95156">
        <ele>897.4</ele>
        <time>2015-11-07T08:28:05Z</time>
      </trkpt>
      <trkpt lat="43.72994" lon="6.95155">
        <ele>897.8</ele>
        <time>2015-11-07T08:28:06Z</time>
      </trkpt>
      <trkpt lat="43.72993" lon="6.95154">
        <ele>897.8</ele>
        <time>2015-11-07T08:28:07Z</time>
      </trkpt>
      <trkpt lat="43.72983" lon="6.95149">
        <ele>897.8</ele>
        <time>2015-11-07T08:28:13Z</time>
      </trkpt>
      <trkpt lat="43.7298" lon="6.9515">
        <ele>897.8</ele>
        <time>2015-11-07T08:28:15Z</time>
      </trkpt>
      <trkpt lat="43.72975" lon="6.9515">
        <ele>897.8</ele>
        <time>2015-11-07T08:28:18Z</time>
      </trkpt>
      <trkpt lat="43.72968" lon="6.95147">
        <ele>898.2</ele>
        <time>2015-11-07T08:28:22Z</time>
      </trkpt>
      <trkpt lat="43.72966" lon="6.95146">
        <ele>898.8</ele>
        <time>2015-11-07T08:28:23Z</time>
      </trkpt>
      <trkpt lat="43.72965" lon="6.95145">
        <ele>899.2</ele>
        <time>2015-11-07T08:28:24Z</time>
      </trkpt>
      <trkpt lat="43.72963" lon="6.95145">
        <ele>899.6</ele>
        <time>2015-11-07T08:28:25Z</time>
      </trkpt>
      <trkpt lat="43.72962" lon="6.95144">
        <ele>900</ele>
        <time>2015-11-07T08:28:26Z</time>
      </trkpt>
      <trkpt lat="43.72958" lon="6.95143">
        <ele>900</ele>
        <time>2015-11-07T08:28:29Z</time>
      </trkpt>
      <trkpt lat="43.72949" lon="6.95141">
        <ele>900.6</ele>
        <time>2015-11-07T08:28:34Z</time>
      </trkpt>
      <trkpt lat="43.72947" lon="6.95141">
        <ele>901</ele>
        <time>2015-11-07T08:28:35Z</time>
      </trkpt>
      <trkpt lat="43.72945" lon="6.95142">
        <ele>901.4</ele>
        <time>2015-11-07T08:28:36Z</time>
      </trkpt>
      <trkpt lat="43.72944" lon="6.95141">
        <ele>901.8</ele>
        <time>2015-11-07T08:28:37Z</time>
      </trkpt>
      <trkpt lat="43.72942" lon="6.95141">
        <ele>902.4</ele>
        <time>2015-11-07T08:28:38Z</time>
      </trkpt>
      <trkpt lat="43.72929" lon="6.95139">
        <ele>902.4</ele>
        <time>2015-11-07T08:28:46Z</time>
      </trkpt>
      <trkpt lat="43.72927" lon="6.95138">
        <ele>902.8</ele>
        <time>2015-11-07T08:28:48Z</time>
      </trkpt>
      <trkpt lat="43.72925" lon="6.95138">
        <ele>903.2</ele>
        <time>2015-11-07T08:28:49Z</time>
      </trkpt>
      <trkpt lat="43.72923" lon="6.95139">
        <ele>903.6</ele>
        <time>2015-11-07T08:28:50Z</time>
      </trkpt>
      <trkpt lat="43.72922" lon="6.95139">
        <ele>904</ele>
        <time>2015-11-07T08:28:51Z</time>
      </trkpt>
      <trkpt lat="43.7292" lon="6.95138">
        <ele>904.6</ele>
        <time>2015-11-07T08:28:52Z</time>
      </trkpt>
      <trkpt lat="43.72919" lon="6.95137">
        <ele>904.6</ele>
        <time>2015-11-07T08:28:53Z</time>
      </trkpt>
      <trkpt lat="43.72908" lon="6.95137">
        <ele>904.6</ele>
        <time>2015-11-07T08:29:00Z</time>
      </trkpt>
      <trkpt lat="43.72904" lon="6.95137">
        <ele>905</ele>
        <time>2015-11-07T08:29:02Z</time>
      </trkpt>
      <trkpt lat="43.72902" lon="6.95138">
        <ele>905.4</ele>
        <time>2015-11-07T08:29:03Z</time>
      </trkpt>
      <trkpt lat="43.72901" lon="6.95138">
        <ele>905.8</ele>
        <time>2015-11-07T08:29:04Z</time>
      </trkpt>
      <trkpt lat="43.72899" lon="6.95137">
        <ele>906.2</ele>
        <time>2015-11-07T08:29:05Z</time>
      </trkpt>
      <trkpt lat="43.72897" lon="6.95137">
        <ele>906.6</ele>
        <time>2015-11-07T08:29:06Z</time>
      </trkpt>
      <trkpt lat="43.72892" lon="6.95134">
        <ele>906.6</ele>
        <time>2015-11-07T08:29:09Z</time>
      </trkpt>
      <trkpt lat="43.72885" lon="6.95125">
        <ele>907</ele>
        <time>2015-11-07T08:29:16Z</time>
      </trkpt>
      <trkpt lat="43.72884" lon="6.95123">
        <ele>907.4</ele>
        <time>2015-11-07T08:29:17Z</time>
      </trkpt>
      <trkpt lat="43.72885" lon="6.95121">
        <ele>907.8</ele>
        <time>2015-11-07T08:29:18Z</time>
      </trkpt>
      <trkpt lat="43.72885" lon="6.95119">
        <ele>908.2</ele>
        <time>2015-11-07T08:29:19Z</time>
      </trkpt>
      <trkpt lat="43.72886" lon="6.95117">
        <ele>908.6</ele>
        <time>2015-11-07T08:29:20Z</time>
      </trkpt>
      <trkpt lat="43.72888" lon="6.95114">
        <ele>908.6</ele>
        <time>2015-11-07T08:29:22Z</time>
      </trkpt>
      <trkpt lat="43.72896" lon="6.95102">
        <ele>909.2</ele>
        <time>2015-11-07T08:29:29Z</time>
      </trkpt>
      <trkpt lat="43.72898" lon="6.951">
        <ele>909.6</ele>
        <time>2015-11-07T08:29:30Z</time>
      </trkpt>
      <trkpt lat="43.729" lon="6.95099">
        <ele>910</ele>
        <time>2015-11-07T08:29:31Z</time>
      </trkpt>
      <trkpt lat="43.72901" lon="6.95097">
        <ele>910.4</ele>
        <time>2015-11-07T08:29:32Z</time>
      </trkpt>
      <trkpt lat="43.72902" lon="6.95095">
        <ele>910.8</ele>
        <time>2015-11-07T08:29:33Z</time>
      </trkpt>
      <trkpt lat="43.72907" lon="6.95088">
        <ele>910.8</ele>
        <time>2015-11-07T08:29:37Z</time>
      </trkpt>
      <trkpt lat="43.7292" lon="6.95071">
        <ele>910.8</ele>
        <time>2015-11-07T08:29:48Z</time>
      </trkpt>
      <trkpt lat="43.72922" lon="6.9507">
        <ele>911.4</ele>
        <time>2015-11-07T08:29:49Z</time>
      </trkpt>
      <trkpt lat="43.72923" lon="6.95069">
        <ele>911.8</ele>
        <time>2015-11-07T08:29:50Z</time>
      </trkpt>
      <trkpt lat="43.72925" lon="6.95068">
        <ele>912.2</ele>
        <time>2015-11-07T08:29:51Z</time>
      </trkpt>
      <trkpt lat="43.72926" lon="6.95066">
        <ele>912.8</ele>
        <time>2015-11-07T08:29:52Z</time>
      </trkpt>
      <trkpt lat="43.72928" lon="6.95064">
        <ele>913.2</ele>
        <time>2015-11-07T08:29:53Z</time>
      </trkpt>
      <trkpt lat="43.72933" lon="6.95057">
        <ele>913.2</ele>
        <time>2015-11-07T08:29:57Z</time>
      </trkpt>
      <trkpt lat="43.72945" lon="6.95042">
        <ele>913.2</ele>
        <time>2015-11-07T08:30:06Z</time>
      </trkpt>
      <trkpt lat="43.7295" lon="6.95038">
        <ele>913.6</ele>
        <time>2015-11-07T08:30:10Z</time>
      </trkpt>
      <trkpt lat="43.72951" lon="6.95037">
        <ele>914</ele>
        <time>2015-11-07T08:30:11Z</time>
      </trkpt>
      <trkpt lat="43.72953" lon="6.95035">
        <ele>914.4</ele>
        <time>2015-11-07T08:30:12Z</time>
      </trkpt>
      <trkpt lat="43.72954" lon="6.95034">
        <ele>914.8</ele>
        <time>2015-11-07T08:30:13Z</time>
      </trkpt>
      <trkpt lat="43.72956" lon="6.95033">
        <ele>915.2</ele>
        <time>2015-11-07T08:30:14Z</time>
      </trkpt>
      <trkpt lat="43.72959" lon="6.95027">
        <ele>915.2</ele>
        <time>2015-11-07T08:30:17Z</time>
      </trkpt>
      <trkpt lat="43.72966" lon="6.9502">
        <ele>915.6</ele>
        <time>2015-11-07T08:30:22Z</time>
      </trkpt>
      <trkpt lat="43.72967" lon="6.95018">
        <ele>916.2</ele>
        <time>2015-11-07T08:30:23Z</time>
      </trkpt>
      <trkpt lat="43.72968" lon="6.95015">
        <ele>916.6</ele>
        <time>2015-11-07T08:30:24Z</time>
      </trkpt>
      <trkpt lat="43.72968" lon="6.95013">
        <ele>917</ele>
        <time>2015-11-07T08:30:25Z</time>
      </trkpt>
      <trkpt lat="43.72969" lon="6.95011">
        <ele>917.6</ele>
        <time>2015-11-07T08:30:26Z</time>
      </trkpt>
      <trkpt lat="43.72969" lon="6.95009">
        <ele>917.6</ele>
        <time>2015-11-07T08:30:27Z</time>
      </trkpt>
      <trkpt lat="43.72977" lon="6.94996">
        <ele>918</ele>
        <time>2015-11-07T08:30:35Z</time>
      </trkpt>
      <trkpt lat="43.72979" lon="6.94994">
        <ele>918.4</ele>
        <time>2015-11-07T08:30:36Z</time>
      </trkpt>
      <trkpt lat="43.7298" lon="6.94992">
        <ele>918.8</ele>
        <time>2015-11-07T08:30:37Z</time>
      </trkpt>
      <trkpt lat="43.72981" lon="6.9499">
        <ele>919.2</ele>
        <time>2015-11-07T08:30:38Z</time>
      </trkpt>
      <trkpt lat="43.72982" lon="6.94988">
        <ele>919.6</ele>
        <time>2015-11-07T08:30:39Z</time>
      </trkpt>
      <trkpt lat="43.72988" lon="6.94978">
        <ele>919.6</ele>
        <time>2015-11-07T08:30:44Z</time>
      </trkpt>
      <trkpt lat="43.72991" lon="6.94968">
        <ele>920</ele>
        <time>2015-11-07T08:30:48Z</time>
      </trkpt>
      <trkpt lat="43.72991" lon="6.94966">
        <ele>920.4</ele>
        <time>2015-11-07T08:30:49Z</time>
      </trkpt>
      <trkpt lat="43.72992" lon="6.94964">
        <ele>920.8</ele>
        <time>2015-11-07T08:30:50Z</time>
      </trkpt>
      <trkpt lat="43.72992" lon="6.94962">
        <ele>921.2</ele>
        <time>2015-11-07T08:30:51Z</time>
      </trkpt>
      <trkpt lat="43.72993" lon="6.9496">
        <ele>921.6</ele>
        <time>2015-11-07T08:30:52Z</time>
      </trkpt>
      <trkpt lat="43.72992" lon="6.94944">
        <ele>921.6</ele>
        <time>2015-11-07T08:30:58Z</time>
      </trkpt>
      <trkpt lat="43.7299" lon="6.94938">
        <ele>921.6</ele>
        <time>2015-11-07T08:31:01Z</time>
      </trkpt>
      <trkpt lat="43.72988" lon="6.94935">
        <ele>921.6</ele>
        <time>2015-11-07T08:31:03Z</time>
      </trkpt>
      <trkpt lat="43.72987" lon="6.94933">
        <ele>922.2</ele>
        <time>2015-11-07T08:31:04Z</time>
      </trkpt>
      <trkpt lat="43.72985" lon="6.94933">
        <ele>922.6</ele>
        <time>2015-11-07T08:31:05Z</time>
      </trkpt>
      <trkpt lat="43.72983" lon="6.94932">
        <ele>923</ele>
        <time>2015-11-07T08:31:06Z</time>
      </trkpt>
      <trkpt lat="43.72981" lon="6.94931">
        <ele>923.6</ele>
        <time>2015-11-07T08:31:07Z</time>
      </trkpt>
      <trkpt lat="43.7298" lon="6.94931">
        <ele>924</ele>
        <time>2015-11-07T08:31:08Z</time>
      </trkpt>
      <trkpt lat="43.72978" lon="6.9493">
        <ele>924</ele>
        <time>2015-11-07T08:31:09Z</time>
      </trkpt>
      <trkpt lat="43.72969" lon="6.94929">
        <ele>924.4</ele>
        <time>2015-11-07T08:31:15Z</time>
      </trkpt>
      <trkpt lat="43.72967" lon="6.9493">
        <ele>925</ele>
        <time>2015-11-07T08:31:16Z</time>
      </trkpt>
      <trkpt lat="43.72966" lon="6.9493">
        <ele>925.4</ele>
        <time>2015-11-07T08:31:17Z</time>
      </trkpt>
      <trkpt lat="43.72964" lon="6.9493">
        <ele>925.8</ele>
        <time>2015-11-07T08:31:18Z</time>
      </trkpt>
      <trkpt lat="43.72962" lon="6.9493">
        <ele>926.2</ele>
        <time>2015-11-07T08:31:19Z</time>
      </trkpt>
      <trkpt lat="43.72948" lon="6.94929">
        <ele>926.2</ele>
        <time>2015-11-07T08:31:28Z</time>
      </trkpt>
      <trkpt lat="43.72945" lon="6.94927">
        <ele>926.6</ele>
        <time>2015-11-07T08:31:30Z</time>
      </trkpt>
      <trkpt lat="43.72943" lon="6.94927">
        <ele>927</ele>
        <time>2015-11-07T08:31:31Z</time>
      </trkpt>
      <trkpt lat="43.72941" lon="6.94927">
        <ele>927.4</ele>
        <time>2015-11-07T08:31:32Z</time>
      </trkpt>
      <trkpt lat="43.7294" lon="6.94927">
        <ele>927.8</ele>
        <time>2015-11-07T08:31:33Z</time>
      </trkpt>
      <trkpt lat="43.72938" lon="6.94927">
        <ele>928.2</ele>
        <time>2015-11-07T08:31:34Z</time>
      </trkpt>
      <trkpt lat="43.72929" lon="6.94927">
        <ele>928.8</ele>
        <time>2015-11-07T08:31:40Z</time>
      </trkpt>
      <trkpt lat="43.72927" lon="6.94927">
        <ele>929.2</ele>
        <time>2015-11-07T08:31:41Z</time>
      </trkpt>
      <trkpt lat="43.72926" lon="6.94927">
        <ele>929.6</ele>
        <time>2015-11-07T08:31:42Z</time>
      </trkpt>
      <trkpt lat="43.72924" lon="6.94928">
        <ele>930.2</ele>
        <time>2015-11-07T08:31:43Z</time>
      </trkpt>
      <trkpt lat="43.72922" lon="6.94928">
        <ele>930.6</ele>
        <time>2015-11-07T08:31:44Z</time>
      </trkpt>
      <trkpt lat="43.72907" lon="6.94927">
        <ele>930.6</ele>
        <time>2015-11-07T08:31:54Z</time>
      </trkpt>
      <trkpt lat="43.729" lon="6.94927">
        <ele>931</ele>
        <time>2015-11-07T08:31:58Z</time>
      </trkpt>
      <trkpt lat="43.72898" lon="6.94927">
        <ele>931.4</ele>
        <time>2015-11-07T08:31:59Z</time>
      </trkpt>
      <trkpt lat="43.72897" lon="6.94927">
        <ele>931.8</ele>
        <time>2015-11-07T08:32:00Z</time>
      </trkpt>
      <trkpt lat="43.72896" lon="6.94927">
        <ele>932.4</ele>
        <time>2015-11-07T08:32:01Z</time>
      </trkpt>
      <trkpt lat="43.72895" lon="6.94927">
        <ele>932.8</ele>
        <time>2015-11-07T08:32:02Z</time>
      </trkpt>
      <trkpt lat="43.72888" lon="6.94925">
        <ele>932.8</ele>
        <time>2015-11-07T08:32:06Z</time>
      </trkpt>
      <trkpt lat="43.72878" lon="6.94922">
        <ele>932.8</ele>
        <time>2015-11-07T08:32:13Z</time>
      </trkpt>
      <trkpt lat="43.72876" lon="6.9492">
        <ele>932.8</ele>
        <time>2015-11-07T08:32:15Z</time>
      </trkpt>
      <trkpt lat="43.72873" lon="6.94918">
        <ele>933.2</ele>
        <time>2015-11-07T08:32:17Z</time>
      </trkpt>
      <trkpt lat="43.72872" lon="6.94917">
        <ele>933.8</ele>
        <time>2015-11-07T08:32:18Z</time>
      </trkpt>
      <trkpt lat="43.72871" lon="6.94917">
        <ele>934.2</ele>
        <time>2015-11-07T08:32:19Z</time>
      </trkpt>
      <trkpt lat="43.7287" lon="6.94916">
        <ele>934.8</ele>
        <time>2015-11-07T08:32:20Z</time>
      </trkpt>
      <trkpt lat="43.72869" lon="6.94915">
        <ele>935.2</ele>
        <time>2015-11-07T08:32:21Z</time>
      </trkpt>
      <trkpt lat="43.72863" lon="6.94911">
        <ele>935.6</ele>
        <time>2015-11-07T08:32:26Z</time>
      </trkpt>
      <trkpt lat="43.72861" lon="6.94909">
        <ele>936</ele>
        <time>2015-11-07T08:32:27Z</time>
      </trkpt>
      <trkpt lat="43.72861" lon="6.94907">
        <ele>936.4</ele>
        <time>2015-11-07T08:32:28Z</time>
      </trkpt>
      <trkpt lat="43.72861" lon="6.94905">
        <ele>937</ele>
        <time>2015-11-07T08:32:29Z</time>
      </trkpt>
      <trkpt lat="43.7286" lon="6.94903">
        <ele>937.4</ele>
        <time>2015-11-07T08:32:30Z</time>
      </trkpt>
      <trkpt lat="43.72858" lon="6.94891">
        <ele>937.4</ele>
        <time>2015-11-07T08:32:35Z</time>
      </trkpt>
      <trkpt lat="43.72859" lon="6.94884">
        <ele>937.4</ele>
        <time>2015-11-07T08:32:38Z</time>
      </trkpt>
      <trkpt lat="43.7286" lon="6.94882">
        <ele>937.8</ele>
        <time>2015-11-07T08:32:39Z</time>
      </trkpt>
      <trkpt lat="43.7286" lon="6.9488">
        <ele>938.2</ele>
        <time>2015-11-07T08:32:40Z</time>
      </trkpt>
      <trkpt lat="43.7286" lon="6.94878">
        <ele>938.6</ele>
        <time>2015-11-07T08:32:41Z</time>
      </trkpt>
      <trkpt lat="43.7286" lon="6.94876">
        <ele>939</ele>
        <time>2015-11-07T08:32:42Z</time>
      </trkpt>
      <trkpt lat="43.72861" lon="6.94873">
        <ele>939.4</ele>
        <time>2015-11-07T08:32:43Z</time>
      </trkpt>
      <trkpt lat="43.72862" lon="6.94858">
        <ele>939.4</ele>
        <time>2015-11-07T08:32:50Z</time>
      </trkpt>
      <trkpt lat="43.72861" lon="6.94856">
        <ele>940</ele>
        <time>2015-11-07T08:32:51Z</time>
      </trkpt>
      <trkpt lat="43.72861" lon="6.94854">
        <ele>940.4</ele>
        <time>2015-11-07T08:32:52Z</time>
      </trkpt>
      <trkpt lat="43.7286" lon="6.94852">
        <ele>940.8</ele>
        <time>2015-11-07T08:32:53Z</time>
      </trkpt>
      <trkpt lat="43.72858" lon="6.94851">
        <ele>941.2</ele>
        <time>2015-11-07T08:32:54Z</time>
      </trkpt>
      <trkpt lat="43.72857" lon="6.94849">
        <ele>941.8</ele>
        <time>2015-11-07T08:32:55Z</time>
      </trkpt>
      <trkpt lat="43.72847" lon="6.94838">
        <ele>941.8</ele>
        <time>2015-11-07T08:33:04Z</time>
      </trkpt>
      <trkpt lat="43.72839" lon="6.94823">
        <ele>942.2</ele>
        <time>2015-11-07T08:33:12Z</time>
      </trkpt>
      <trkpt lat="43.72839" lon="6.9482">
        <ele>942.6</ele>
        <time>2015-11-07T08:33:13Z</time>
      </trkpt>
      <trkpt lat="43.72838" lon="6.94817">
        <ele>943</ele>
        <time>2015-11-07T08:33:14Z</time>
      </trkpt>
      <trkpt lat="43.72838" lon="6.94815">
        <ele>943.4</ele>
        <time>2015-11-07T08:33:15Z</time>
      </trkpt>
      <trkpt lat="43.72838" lon="6.94812">
        <ele>943.8</ele>
        <time>2015-11-07T08:33:16Z</time>
      </trkpt>
      <trkpt lat="43.72839" lon="6.94803">
        <ele>943.8</ele>
        <time>2015-11-07T08:33:20Z</time>
      </trkpt>
      <trkpt lat="43.7284" lon="6.94793">
        <ele>944.2</ele>
        <time>2015-11-07T08:33:25Z</time>
      </trkpt>
      <trkpt lat="43.7284" lon="6.94791">
        <ele>944.6</ele>
        <time>2015-11-07T08:33:26Z</time>
      </trkpt>
      <trkpt lat="43.7284" lon="6.94789">
        <ele>945</ele>
        <time>2015-11-07T08:33:27Z</time>
      </trkpt>
      <trkpt lat="43.7284" lon="6.94787">
        <ele>945.4</ele>
        <time>2015-11-07T08:33:28Z</time>
      </trkpt>
      <trkpt lat="43.7284" lon="6.94785">
        <ele>945.8</ele>
        <time>2015-11-07T08:33:29Z</time>
      </trkpt>
      <trkpt lat="43.72838" lon="6.94769">
        <ele>945.8</ele>
        <time>2015-11-07T08:33:36Z</time>
      </trkpt>
      <trkpt lat="43.72836" lon="6.94764">
        <ele>946.2</ele>
        <time>2015-11-07T08:33:38Z</time>
      </trkpt>
      <trkpt lat="43.72835" lon="6.94763">
        <ele>946.6</ele>
        <time>2015-11-07T08:33:39Z</time>
      </trkpt>
      <trkpt lat="43.72834" lon="6.94761">
        <ele>947.2</ele>
        <time>2015-11-07T08:33:40Z</time>
      </trkpt>
      <trkpt lat="43.72834" lon="6.94758">
        <ele>947.6</ele>
        <time>2015-11-07T08:33:41Z</time>
      </trkpt>
      <trkpt lat="43.72833" lon="6.94756">
        <ele>948</ele>
        <time>2015-11-07T08:33:42Z</time>
      </trkpt>
      <trkpt lat="43.72832" lon="6.94752">
        <ele>948</ele>
        <time>2015-11-07T08:33:44Z</time>
      </trkpt>
      <trkpt lat="43.7283" lon="6.94747">
        <ele>948.4</ele>
        <time>2015-11-07T08:33:47Z</time>
      </trkpt>
      <trkpt lat="43.72828" lon="6.94746">
        <ele>948.8</ele>
        <time>2015-11-07T08:33:48Z</time>
      </trkpt>
      <trkpt lat="43.72827" lon="6.94745">
        <ele>949.2</ele>
        <time>2015-11-07T08:33:49Z</time>
      </trkpt>
      <trkpt lat="43.72826" lon="6.94743">
        <ele>949.6</ele>
        <time>2015-11-07T08:33:50Z</time>
      </trkpt>
      <trkpt lat="43.72825" lon="6.94741">
        <ele>950</ele>
        <time>2015-11-07T08:33:51Z</time>
      </trkpt>
      <trkpt lat="43.72815" lon="6.94727">
        <ele>950.4</ele>
        <time>2015-11-07T08:34:01Z</time>
      </trkpt>
      <trkpt lat="43.72815" lon="6.94725">
        <ele>950.8</ele>
        <time>2015-11-07T08:34:02Z</time>
      </trkpt>
      <trkpt lat="43.72814" lon="6.94724">
        <ele>951.2</ele>
        <time>2015-11-07T08:34:03Z</time>
      </trkpt>
      <trkpt lat="43.72812" lon="6.94723">
        <ele>951.8</ele>
        <time>2015-11-07T08:34:04Z</time>
      </trkpt>
      <trkpt lat="43.7281" lon="6.94721">
        <ele>952.2</ele>
        <time>2015-11-07T08:34:05Z</time>
      </trkpt>
      <trkpt lat="43.72807" lon="6.94714">
        <ele>952.2</ele>
        <time>2015-11-07T08:34:08Z</time>
      </trkpt>
      <trkpt lat="43.72803" lon="6.94703">
        <ele>952.6</ele>
        <time>2015-11-07T08:34:13Z</time>
      </trkpt>
      <trkpt lat="43.72802" lon="6.947">
        <ele>953</ele>
        <time>2015-11-07T08:34:14Z</time>
      </trkpt>
      <trkpt lat="43.72801" lon="6.94698">
        <ele>953.4</ele>
        <time>2015-11-07T08:34:15Z</time>
      </trkpt>
      <trkpt lat="43.72801" lon="6.94696">
        <ele>953.8</ele>
        <time>2015-11-07T08:34:16Z</time>
      </trkpt>
      <trkpt lat="43.72801" lon="6.94694">
        <ele>954.4</ele>
        <time>2015-11-07T08:34:17Z</time>
      </trkpt>
      <trkpt lat="43.72796" lon="6.94673">
        <ele>954.8</ele>
        <time>2015-11-07T08:34:26Z</time>
      </trkpt>
      <trkpt lat="43.72795" lon="6.94671">
        <ele>955.2</ele>
        <time>2015-11-07T08:34:27Z</time>
      </trkpt>
      <trkpt lat="43.72795" lon="6.94668">
        <ele>955.6</ele>
        <time>2015-11-07T08:34:28Z</time>
      </trkpt>
      <trkpt lat="43.72794" lon="6.94666">
        <ele>956</ele>
        <time>2015-11-07T08:34:29Z</time>
      </trkpt>
      <trkpt lat="43.72794" lon="6.94664">
        <ele>956.4</ele>
        <time>2015-11-07T08:34:30Z</time>
      </trkpt>
      <trkpt lat="43.72793" lon="6.94656">
        <ele>956.4</ele>
        <time>2015-11-07T08:34:33Z</time>
      </trkpt>
      <trkpt lat="43.72792" lon="6.94654">
        <ele>956.4</ele>
        <time>2015-11-07T08:34:34Z</time>
      </trkpt>
      <trkpt lat="43.72791" lon="6.94642">
        <ele>957</ele>
        <time>2015-11-07T08:34:39Z</time>
      </trkpt>
      <trkpt lat="43.7279" lon="6.94639">
        <ele>957.4</ele>
        <time>2015-11-07T08:34:40Z</time>
      </trkpt>
      <trkpt lat="43.7279" lon="6.94637">
        <ele>958</ele>
        <time>2015-11-07T08:34:41Z</time>
      </trkpt>
      <trkpt lat="43.72789" lon="6.94634">
        <ele>958.4</ele>
        <time>2015-11-07T08:34:42Z</time>
      </trkpt>
      <trkpt lat="43.72788" lon="6.94632">
        <ele>959</ele>
        <time>2015-11-07T08:34:43Z</time>
      </trkpt>
      <trkpt lat="43.72783" lon="6.94619">
        <ele>959</ele>
        <time>2015-11-07T08:34:49Z</time>
      </trkpt>
      <trkpt lat="43.72779" lon="6.94611">
        <ele>959.4</ele>
        <time>2015-11-07T08:34:53Z</time>
      </trkpt>
      <trkpt lat="43.72778" lon="6.94608">
        <ele>959.8</ele>
        <time>2015-11-07T08:34:54Z</time>
      </trkpt>
      <trkpt lat="43.72778" lon="6.94606">
        <ele>960.2</ele>
        <time>2015-11-07T08:34:55Z</time>
      </trkpt>
      <trkpt lat="43.72779" lon="6.94604">
        <ele>960.6</ele>
        <time>2015-11-07T08:34:56Z</time>
      </trkpt>
      <trkpt lat="43.7278" lon="6.94603">
        <ele>961</ele>
        <time>2015-11-07T08:34:57Z</time>
      </trkpt>
      <trkpt lat="43.72784" lon="6.94598">
        <ele>961</ele>
        <time>2015-11-07T08:35:00Z</time>
      </trkpt>
      <trkpt lat="43.72792" lon="6.94593">
        <ele>961</ele>
        <time>2015-11-07T08:35:05Z</time>
      </trkpt>
      <trkpt lat="43.72795" lon="6.9459">
        <ele>961</ele>
        <time>2015-11-07T08:35:07Z</time>
      </trkpt>
      <trkpt lat="43.72798" lon="6.94583">
        <ele>961.4</ele>
        <time>2015-11-07T08:35:11Z</time>
      </trkpt>
      <trkpt lat="43.72797" lon="6.94581">
        <ele>962</ele>
        <time>2015-11-07T08:35:12Z</time>
      </trkpt>
      <trkpt lat="43.72796" lon="6.94579">
        <ele>962.4</ele>
        <time>2015-11-07T08:35:13Z</time>
      </trkpt>
      <trkpt lat="43.72795" lon="6.94576">
        <ele>962.8</ele>
        <time>2015-11-07T08:35:14Z</time>
      </trkpt>
      <trkpt lat="43.72793" lon="6.94574">
        <ele>963.2</ele>
        <time>2015-11-07T08:35:15Z</time>
      </trkpt>
      <trkpt lat="43.72789" lon="6.94568">
        <ele>963.2</ele>
        <time>2015-11-07T08:35:18Z</time>
      </trkpt>
      <trkpt lat="43.72786" lon="6.94553">
        <ele>963.2</ele>
        <time>2015-11-07T08:35:25Z</time>
      </trkpt>
      <trkpt lat="43.72786" lon="6.94546">
        <ele>963.2</ele>
        <time>2015-11-07T08:35:28Z</time>
      </trkpt>
      <trkpt lat="43.72787" lon="6.94542">
        <ele>963.2</ele>
        <time>2015-11-07T08:35:30Z</time>
      </trkpt>
      <trkpt lat="43.72789" lon="6.94519">
        <ele>963.2</ele>
        <time>2015-11-07T08:35:38Z</time>
      </trkpt>
      <trkpt lat="43.72789" lon="6.94513">
        <ele>963.6</ele>
        <time>2015-11-07T08:35:40Z</time>
      </trkpt>
      <trkpt lat="43.72788" lon="6.9451">
        <ele>964</ele>
        <time>2015-11-07T08:35:41Z</time>
      </trkpt>
      <trkpt lat="43.72788" lon="6.94508">
        <ele>964.4</ele>
        <time>2015-11-07T08:35:42Z</time>
      </trkpt>
      <trkpt lat="43.72788" lon="6.94505">
        <ele>964.8</ele>
        <time>2015-11-07T08:35:43Z</time>
      </trkpt>
      <trkpt lat="43.72789" lon="6.94501">
        <ele>965.2</ele>
        <time>2015-11-07T08:35:44Z</time>
      </trkpt>
      <trkpt lat="43.72789" lon="6.94498">
        <ele>965.2</ele>
        <time>2015-11-07T08:35:45Z</time>
      </trkpt>
      <trkpt lat="43.72794" lon="6.9447">
        <ele>965.2</ele>
        <time>2015-11-07T08:35:53Z</time>
      </trkpt>
      <trkpt lat="43.72799" lon="6.94433">
        <ele>965.2</ele>
        <time>2015-11-07T08:36:04Z</time>
      </trkpt>
      <trkpt lat="43.728" lon="6.94408">
        <ele>965.2</ele>
        <time>2015-11-07T08:36:12Z</time>
      </trkpt>
      <trkpt lat="43.72793" lon="6.9439">
        <ele>965.8</ele>
        <time>2015-11-07T08:36:19Z</time>
      </trkpt>
      <trkpt lat="43.72792" lon="6.94387">
        <ele>966.2</ele>
        <time>2015-11-07T08:36:20Z</time>
      </trkpt>
      <trkpt lat="43.72792" lon="6.94384">
        <ele>966.6</ele>
        <time>2015-11-07T08:36:21Z</time>
      </trkpt>
      <trkpt lat="43.72793" lon="6.9438">
        <ele>967</ele>
        <time>2015-11-07T08:36:22Z</time>
      </trkpt>
      <trkpt lat="43.72794" lon="6.94378">
        <ele>967.6</ele>
        <time>2015-11-07T08:36:23Z</time>
      </trkpt>
      <trkpt lat="43.72796" lon="6.94372">
        <ele>967.6</ele>
        <time>2015-11-07T08:36:25Z</time>
      </trkpt>
      <trkpt lat="43.72801" lon="6.94351">
        <ele>967.6</ele>
        <time>2015-11-07T08:36:33Z</time>
      </trkpt>
      <trkpt lat="43.72801" lon="6.94334">
        <ele>968</ele>
        <time>2015-11-07T08:36:39Z</time>
      </trkpt>
      <trkpt lat="43.728" lon="6.94331">
        <ele>968.4</ele>
        <time>2015-11-07T08:36:40Z</time>
      </trkpt>
      <trkpt lat="43.72799" lon="6.94329">
        <ele>969</ele>
        <time>2015-11-07T08:36:41Z</time>
      </trkpt>
      <trkpt lat="43.72799" lon="6.94326">
        <ele>969.4</ele>
        <time>2015-11-07T08:36:42Z</time>
      </trkpt>
      <trkpt lat="43.72798" lon="6.94324">
        <ele>969.8</ele>
        <time>2015-11-07T08:36:43Z</time>
      </trkpt>
      <trkpt lat="43.72796" lon="6.94303">
        <ele>969.8</ele>
        <time>2015-11-07T08:36:50Z</time>
      </trkpt>
      <trkpt lat="43.72798" lon="6.94282">
        <ele>969.8</ele>
        <time>2015-11-07T08:36:57Z</time>
      </trkpt>
      <trkpt lat="43.72793" lon="6.94256">
        <ele>969.8</ele>
        <time>2015-11-07T08:37:05Z</time>
      </trkpt>
      <trkpt lat="43.7279" lon="6.94236">
        <ele>970.2</ele>
        <time>2015-11-07T08:37:12Z</time>
      </trkpt>
      <trkpt lat="43.72789" lon="6.94234">
        <ele>970.6</ele>
        <time>2015-11-07T08:37:13Z</time>
      </trkpt>
      <trkpt lat="43.72789" lon="6.94232">
        <ele>971</ele>
        <time>2015-11-07T08:37:14Z</time>
      </trkpt>
      <trkpt lat="43.72789" lon="6.9423">
        <ele>971.4</ele>
        <time>2015-11-07T08:37:15Z</time>
      </trkpt>
      <trkpt lat="43.72788" lon="6.94227">
        <ele>971.8</ele>
        <time>2015-11-07T08:37:16Z</time>
      </trkpt>
      <trkpt lat="43.72783" lon="6.94216">
        <ele>971.8</ele>
        <time>2015-11-07T08:37:20Z</time>
      </trkpt>
      <trkpt lat="43.72782" lon="6.94204">
        <ele>972.2</ele>
        <time>2015-11-07T08:37:26Z</time>
      </trkpt>
      <trkpt lat="43.72782" lon="6.94202">
        <ele>972.8</ele>
        <time>2015-11-07T08:37:27Z</time>
      </trkpt>
      <trkpt lat="43.72782" lon="6.94199">
        <ele>973.2</ele>
        <time>2015-11-07T08:37:28Z</time>
      </trkpt>
      <trkpt lat="43.72782" lon="6.94196">
        <ele>973.6</ele>
        <time>2015-11-07T08:37:29Z</time>
      </trkpt>
      <trkpt lat="43.72782" lon="6.94193">
        <ele>974</ele>
        <time>2015-11-07T08:37:30Z</time>
      </trkpt>
      <trkpt lat="43.72782" lon="6.94181">
        <ele>974</ele>
        <time>2015-11-07T08:37:36Z</time>
      </trkpt>
      <trkpt lat="43.72781" lon="6.94177">
        <ele>974.4</ele>
        <time>2015-11-07T08:37:38Z</time>
      </trkpt>
      <trkpt lat="43.72779" lon="6.94175">
        <ele>974.8</ele>
        <time>2015-11-07T08:37:39Z</time>
      </trkpt>
      <trkpt lat="43.72778" lon="6.94173">
        <ele>975.2</ele>
        <time>2015-11-07T08:37:40Z</time>
      </trkpt>
      <trkpt lat="43.72778" lon="6.94171">
        <ele>975.6</ele>
        <time>2015-11-07T08:37:41Z</time>
      </trkpt>
      <trkpt lat="43.72778" lon="6.94169">
        <ele>976</ele>
        <time>2015-11-07T08:37:42Z</time>
      </trkpt>
      <trkpt lat="43.72778" lon="6.94162">
        <ele>976.4</ele>
        <time>2015-11-07T08:37:45Z</time>
      </trkpt>
      <trkpt lat="43.72778" lon="6.9416">
        <ele>976.8</ele>
        <time>2015-11-07T08:37:46Z</time>
      </trkpt>
      <trkpt lat="43.72778" lon="6.94158">
        <ele>977.2</ele>
        <time>2015-11-07T08:37:47Z</time>
      </trkpt>
      <trkpt lat="43.72778" lon="6.94155">
        <ele>977.6</ele>
        <time>2015-11-07T08:37:48Z</time>
      </trkpt>
      <trkpt lat="43.72777" lon="6.94154">
        <ele>978</ele>
        <time>2015-11-07T08:37:49Z</time>
      </trkpt>
      <trkpt lat="43.72775" lon="6.94149">
        <ele>978.6</ele>
        <time>2015-11-07T08:37:52Z</time>
      </trkpt>
      <trkpt lat="43.72775" lon="6.94148">
        <ele>979</ele>
        <time>2015-11-07T08:37:53Z</time>
      </trkpt>
      <trkpt lat="43.72775" lon="6.94146">
        <ele>979.4</ele>
        <time>2015-11-07T08:37:54Z</time>
      </trkpt>
      <trkpt lat="43.72775" lon="6.94145">
        <ele>979.8</ele>
        <time>2015-11-07T08:37:55Z</time>
      </trkpt>
      <trkpt lat="43.72774" lon="6.94144">
        <ele>980.4</ele>
        <time>2015-11-07T08:37:56Z</time>
      </trkpt>
      <trkpt lat="43.72775" lon="6.94136">
        <ele>980.8</ele>
        <time>2015-11-07T08:38:00Z</time>
      </trkpt>
      <trkpt lat="43.72776" lon="6.94134">
        <ele>981.2</ele>
        <time>2015-11-07T08:38:01Z</time>
      </trkpt>
      <trkpt lat="43.72776" lon="6.94132">
        <ele>981.6</ele>
        <time>2015-11-07T08:38:02Z</time>
      </trkpt>
      <trkpt lat="43.72776" lon="6.94131">
        <ele>982</ele>
        <time>2015-11-07T08:38:03Z</time>
      </trkpt>
      <trkpt lat="43.72776" lon="6.94129">
        <ele>982.4</ele>
        <time>2015-11-07T08:38:04Z</time>
      </trkpt>
      <trkpt lat="43.72785" lon="6.94105">
        <ele>982.4</ele>
        <time>2015-11-07T08:38:12Z</time>
      </trkpt>
      <trkpt lat="43.72789" lon="6.94094">
        <ele>982.8</ele>
        <time>2015-11-07T08:38:16Z</time>
      </trkpt>
      <trkpt lat="43.72789" lon="6.94092">
        <ele>983.2</ele>
        <time>2015-11-07T08:38:17Z</time>
      </trkpt>
      <trkpt lat="43.7279" lon="6.94091">
        <ele>983.6</ele>
        <time>2015-11-07T08:38:18Z</time>
      </trkpt>
      <trkpt lat="43.72791" lon="6.94088">
        <ele>984</ele>
        <time>2015-11-07T08:38:19Z</time>
      </trkpt>
      <trkpt lat="43.72792" lon="6.94086">
        <ele>984.4</ele>
        <time>2015-11-07T08:38:20Z</time>
      </trkpt>
      <trkpt lat="43.72792" lon="6.94084">
        <ele>984.4</ele>
        <time>2015-11-07T08:38:21Z</time>
      </trkpt>
      <trkpt lat="43.72794" lon="6.9407">
        <ele>984.4</ele>
        <time>2015-11-07T08:38:27Z</time>
      </trkpt>
      <trkpt lat="43.72795" lon="6.94066">
        <ele>985</ele>
        <time>2015-11-07T08:38:28Z</time>
      </trkpt>
      <trkpt lat="43.72795" lon="6.94064">
        <ele>985.4</ele>
        <time>2015-11-07T08:38:29Z</time>
      </trkpt>
      <trkpt lat="43.72795" lon="6.94061">
        <ele>985.8</ele>
        <time>2015-11-07T08:38:30Z</time>
      </trkpt>
      <trkpt lat="43.72796" lon="6.94058">
        <ele>986.2</ele>
        <time>2015-11-07T08:38:31Z</time>
      </trkpt>
      <trkpt lat="43.72796" lon="6.94055">
        <ele>986.8</ele>
        <time>2015-11-07T08:38:32Z</time>
      </trkpt>
      <trkpt lat="43.728" lon="6.94046">
        <ele>986.8</ele>
        <time>2015-11-07T08:38:36Z</time>
      </trkpt>
      <trkpt lat="43.72806" lon="6.94035">
        <ele>987.2</ele>
        <time>2015-11-07T08:38:41Z</time>
      </trkpt>
      <trkpt lat="43.72807" lon="6.94032">
        <ele>987.6</ele>
        <time>2015-11-07T08:38:42Z</time>
      </trkpt>
      <trkpt lat="43.72808" lon="6.9403">
        <ele>988</ele>
        <time>2015-11-07T08:38:43Z</time>
      </trkpt>
      <trkpt lat="43.72809" lon="6.94029">
        <ele>988.4</ele>
        <time>2015-11-07T08:38:44Z</time>
      </trkpt>
      <trkpt lat="43.72809" lon="6.94027">
        <ele>988.8</ele>
        <time>2015-11-07T08:38:45Z</time>
      </trkpt>
      <trkpt lat="43.72815" lon="6.94019">
        <ele>988.8</ele>
        <time>2015-11-07T08:38:49Z</time>
      </trkpt>
      <trkpt lat="43.72825" lon="6.94007">
        <ele>988.8</ele>
        <time>2015-11-07T08:38:56Z</time>
      </trkpt>
      <trkpt lat="43.72827" lon="6.94005">
        <ele>989.2</ele>
        <time>2015-11-07T08:38:57Z</time>
      </trkpt>
      <trkpt lat="43.72829" lon="6.94004">
        <ele>989.6</ele>
        <time>2015-11-07T08:38:58Z</time>
      </trkpt>
      <trkpt lat="43.72831" lon="6.94002">
        <ele>990</ele>
        <time>2015-11-07T08:38:59Z</time>
      </trkpt>
      <trkpt lat="43.72832" lon="6.94">
        <ele>990.6</ele>
        <time>2015-11-07T08:39:00Z</time>
      </trkpt>
      <trkpt lat="43.72833" lon="6.93998">
        <ele>991</ele>
        <time>2015-11-07T08:39:01Z</time>
      </trkpt>
      <trkpt lat="43.72836" lon="6.93994">
        <ele>991</ele>
        <time>2015-11-07T08:39:03Z</time>
      </trkpt>
      <trkpt lat="43.72839" lon="6.93984">
        <ele>991.4</ele>
        <time>2015-11-07T08:39:08Z</time>
      </trkpt>
      <trkpt lat="43.72838" lon="6.93983">
        <ele>991.8</ele>
        <time>2015-11-07T08:39:09Z</time>
      </trkpt>
      <trkpt lat="43.72837" lon="6.93982">
        <ele>992.2</ele>
        <time>2015-11-07T08:39:10Z</time>
      </trkpt>
      <trkpt lat="43.72835" lon="6.93982">
        <ele>992.8</ele>
        <time>2015-11-07T08:39:11Z</time>
      </trkpt>
      <trkpt lat="43.72836" lon="6.93983">
        <ele>993.2</ele>
        <time>2015-11-07T08:39:12Z</time>
      </trkpt>
      <trkpt lat="43.72836" lon="6.93987">
        <ele>993.2</ele>
        <time>2015-11-07T08:39:17Z</time>
      </trkpt>
      <trkpt lat="43.72829" lon="6.93988">
        <ele>993.2</ele>
        <time>2015-11-07T08:39:55Z</time>
      </trkpt>
      <trkpt lat="43.72818" lon="6.93988">
        <ele>993.6</ele>
        <time>2015-11-07T08:40:01Z</time>
      </trkpt>
      <trkpt lat="43.72816" lon="6.93987">
        <ele>994.2</ele>
        <time>2015-11-07T08:40:02Z</time>
      </trkpt>
      <trkpt lat="43.72814" lon="6.93987">
        <ele>994.6</ele>
        <time>2015-11-07T08:40:03Z</time>
      </trkpt>
      <trkpt lat="43.72812" lon="6.93987">
        <ele>995</ele>
        <time>2015-11-07T08:40:04Z</time>
      </trkpt>
      <trkpt lat="43.7281" lon="6.93987">
        <ele>995.6</ele>
        <time>2015-11-07T08:40:05Z</time>
      </trkpt>
      <trkpt lat="43.72793" lon="6.93987">
        <ele>996</ele>
        <time>2015-11-07T08:40:14Z</time>
      </trkpt>
      <trkpt lat="43.72791" lon="6.93986">
        <ele>996.4</ele>
        <time>2015-11-07T08:40:15Z</time>
      </trkpt>
      <trkpt lat="43.72789" lon="6.93986">
        <ele>996.8</ele>
        <time>2015-11-07T08:40:16Z</time>
      </trkpt>
      <trkpt lat="43.72787" lon="6.93986">
        <ele>997.2</ele>
        <time>2015-11-07T08:40:17Z</time>
      </trkpt>
      <trkpt lat="43.72785" lon="6.93986">
        <ele>997.6</ele>
        <time>2015-11-07T08:40:18Z</time>
      </trkpt>
      <trkpt lat="43.7277" lon="6.93984">
        <ele>997.6</ele>
        <time>2015-11-07T08:40:25Z</time>
      </trkpt>
      <trkpt lat="43.72754" lon="6.93981">
        <ele>998</ele>
        <time>2015-11-07T08:40:33Z</time>
      </trkpt>
      <trkpt lat="43.72753" lon="6.93981">
        <ele>998.4</ele>
        <time>2015-11-07T08:40:34Z</time>
      </trkpt>
      <trkpt lat="43.72751" lon="6.93981">
        <ele>998.8</ele>
        <time>2015-11-07T08:40:35Z</time>
      </trkpt>
      <trkpt lat="43.7275" lon="6.93981">
        <ele>999.2</ele>
        <time>2015-11-07T08:40:36Z</time>
      </trkpt>
      <trkpt lat="43.72748" lon="6.9398">
        <ele>999.6</ele>
        <time>2015-11-07T08:40:37Z</time>
      </trkpt>
      <trkpt lat="43.72734" lon="6.93977">
        <ele>999.6</ele>
        <time>2015-11-07T08:40:45Z</time>
      </trkpt>
      <trkpt lat="43.72732" lon="6.93976">
        <ele>1000</ele>
        <time>2015-11-07T08:40:46Z</time>
      </trkpt>
      <trkpt lat="43.7273" lon="6.93976">
        <ele>1000.4</ele>
        <time>2015-11-07T08:40:47Z</time>
      </trkpt>
      <trkpt lat="43.72728" lon="6.93975">
        <ele>1000.8</ele>
        <time>2015-11-07T08:40:48Z</time>
      </trkpt>
      <trkpt lat="43.72727" lon="6.93974">
        <ele>1001.4</ele>
        <time>2015-11-07T08:40:49Z</time>
      </trkpt>
      <trkpt lat="43.72725" lon="6.93974">
        <ele>1001.8</ele>
        <time>2015-11-07T08:40:50Z</time>
      </trkpt>
      <trkpt lat="43.72722" lon="6.93973">
        <ele>1001.8</ele>
        <time>2015-11-07T08:40:52Z</time>
      </trkpt>
      <trkpt lat="43.72713" lon="6.93972">
        <ele>1002.2</ele>
        <time>2015-11-07T08:40:58Z</time>
      </trkpt>
      <trkpt lat="43.7271" lon="6.93971">
        <ele>1002.6</ele>
        <time>2015-11-07T08:40:59Z</time>
      </trkpt>
      <trkpt lat="43.72708" lon="6.9397">
        <ele>1003.2</ele>
        <time>2015-11-07T08:41:00Z</time>
      </trkpt>
      <trkpt lat="43.72707" lon="6.9397">
        <ele>1003.6</ele>
        <time>2015-11-07T08:41:01Z</time>
      </trkpt>
      <trkpt lat="43.72705" lon="6.93969">
        <ele>1004</ele>
        <time>2015-11-07T08:41:02Z</time>
      </trkpt>
      <trkpt lat="43.72692" lon="6.93967">
        <ele>1004.4</ele>
        <time>2015-11-07T08:41:09Z</time>
      </trkpt>
      <trkpt lat="43.7269" lon="6.93966">
        <ele>1004.8</ele>
        <time>2015-11-07T08:41:10Z</time>
      </trkpt>
      <trkpt lat="43.72689" lon="6.93966">
        <ele>1005.4</ele>
        <time>2015-11-07T08:41:11Z</time>
      </trkpt>
      <trkpt lat="43.72687" lon="6.93965">
        <ele>1005.8</ele>
        <time>2015-11-07T08:41:12Z</time>
      </trkpt>
      <trkpt lat="43.72685" lon="6.93965">
        <ele>1006.2</ele>
        <time>2015-11-07T08:41:13Z</time>
      </trkpt>
      <trkpt lat="43.72675" lon="6.93962">
        <ele>1006.6</ele>
        <time>2015-11-07T08:41:19Z</time>
      </trkpt>
      <trkpt lat="43.72673" lon="6.93962">
        <ele>1007.2</ele>
        <time>2015-11-07T08:41:20Z</time>
      </trkpt>
      <trkpt lat="43.72672" lon="6.93962">
        <ele>1007.6</ele>
        <time>2015-11-07T08:41:21Z</time>
      </trkpt>
      <trkpt lat="43.7267" lon="6.93961">
        <ele>1008.2</ele>
        <time>2015-11-07T08:41:22Z</time>
      </trkpt>
      <trkpt lat="43.72667" lon="6.93961">
        <ele>1008.6</ele>
        <time>2015-11-07T08:41:24Z</time>
      </trkpt>
      <trkpt lat="43.7266" lon="6.93959">
        <ele>1008.6</ele>
        <time>2015-11-07T08:41:28Z</time>
      </trkpt>
      <trkpt lat="43.72652" lon="6.93959">
        <ele>1009</ele>
        <time>2015-11-07T08:41:33Z</time>
      </trkpt>
      <trkpt lat="43.72651" lon="6.93958">
        <ele>1009.4</ele>
        <time>2015-11-07T08:41:34Z</time>
      </trkpt>
      <trkpt lat="43.72649" lon="6.93958">
        <ele>1009.8</ele>
        <time>2015-11-07T08:41:35Z</time>
      </trkpt>
      <trkpt lat="43.72647" lon="6.93958">
        <ele>1010.2</ele>
        <time>2015-11-07T08:41:36Z</time>
      </trkpt>
      <trkpt lat="43.72646" lon="6.93957">
        <ele>1010.8</ele>
        <time>2015-11-07T08:41:37Z</time>
      </trkpt>
      <trkpt lat="43.72634" lon="6.93956">
        <ele>1011.2</ele>
        <time>2015-11-07T08:41:44Z</time>
      </trkpt>
      <trkpt lat="43.72632" lon="6.93955">
        <ele>1011.6</ele>
        <time>2015-11-07T08:41:45Z</time>
      </trkpt>
      <trkpt lat="43.72631" lon="6.93955">
        <ele>1012</ele>
        <time>2015-11-07T08:41:46Z</time>
      </trkpt>
      <trkpt lat="43.72629" lon="6.93955">
        <ele>1012.6</ele>
        <time>2015-11-07T08:41:47Z</time>
      </trkpt>
      <trkpt lat="43.72627" lon="6.93955">
        <ele>1013</ele>
        <time>2015-11-07T08:41:48Z</time>
      </trkpt>
      <trkpt lat="43.72616" lon="6.93951">
        <ele>1013</ele>
        <time>2015-11-07T08:41:54Z</time>
      </trkpt>
      <trkpt lat="43.72615" lon="6.9395">
        <ele>1013.4</ele>
        <time>2015-11-07T08:41:55Z</time>
      </trkpt>
      <trkpt lat="43.72613" lon="6.9395">
        <ele>1013.8</ele>
        <time>2015-11-07T08:41:56Z</time>
      </trkpt>
      <trkpt lat="43.72612" lon="6.9395">
        <ele>1014.2</ele>
        <time>2015-11-07T08:41:57Z</time>
      </trkpt>
      <trkpt lat="43.7261" lon="6.9395">
        <ele>1014.8</ele>
        <time>2015-11-07T08:41:58Z</time>
      </trkpt>
      <trkpt lat="43.72609" lon="6.93949">
        <ele>1015.2</ele>
        <time>2015-11-07T08:41:59Z</time>
      </trkpt>
      <trkpt lat="43.72602" lon="6.93947">
        <ele>1015.2</ele>
        <time>2015-11-07T08:42:04Z</time>
      </trkpt>
      <trkpt lat="43.72598" lon="6.93946">
        <ele>1015.6</ele>
        <time>2015-11-07T08:42:06Z</time>
      </trkpt>
      <trkpt lat="43.72596" lon="6.93946">
        <ele>1016</ele>
        <time>2015-11-07T08:42:07Z</time>
      </trkpt>
      <trkpt lat="43.72595" lon="6.93946">
        <ele>1016.4</ele>
        <time>2015-11-07T08:42:08Z</time>
      </trkpt>
      <trkpt lat="43.72594" lon="6.93945">
        <ele>1017</ele>
        <time>2015-11-07T08:42:09Z</time>
      </trkpt>
      <trkpt lat="43.72592" lon="6.93945">
        <ele>1017.4</ele>
        <time>2015-11-07T08:42:10Z</time>
      </trkpt>
      <trkpt lat="43.72587" lon="6.93943">
        <ele>1017.8</ele>
        <time>2015-11-07T08:42:13Z</time>
      </trkpt>
      <trkpt lat="43.72586" lon="6.93943">
        <ele>1018.2</ele>
        <time>2015-11-07T08:42:14Z</time>
      </trkpt>
      <trkpt lat="43.72584" lon="6.93942">
        <ele>1018.6</ele>
        <time>2015-11-07T08:42:15Z</time>
      </trkpt>
      <trkpt lat="43.72582" lon="6.93942">
        <ele>1019</ele>
        <time>2015-11-07T08:42:16Z</time>
      </trkpt>
      <trkpt lat="43.72581" lon="6.93942">
        <ele>1019.4</ele>
        <time>2015-11-07T08:42:17Z</time>
      </trkpt>
      <trkpt lat="43.72575" lon="6.93942">
        <ele>1019.4</ele>
        <time>2015-11-07T08:42:21Z</time>
      </trkpt>
      <trkpt lat="43.72569" lon="6.9394">
        <ele>1019.8</ele>
        <time>2015-11-07T08:42:24Z</time>
      </trkpt>
      <trkpt lat="43.72568" lon="6.9394">
        <ele>1020.2</ele>
        <time>2015-11-07T08:42:25Z</time>
      </trkpt>
      <trkpt lat="43.72566" lon="6.9394">
        <ele>1020.8</ele>
        <time>2015-11-07T08:42:26Z</time>
      </trkpt>
      <trkpt lat="43.72564" lon="6.93939">
        <ele>1021.2</ele>
        <time>2015-11-07T08:42:27Z</time>
      </trkpt>
      <trkpt lat="43.72563" lon="6.93938">
        <ele>1021.6</ele>
        <time>2015-11-07T08:42:28Z</time>
      </trkpt>
      <trkpt lat="43.72561" lon="6.93938">
        <ele>1021.6</ele>
        <time>2015-11-07T08:42:29Z</time>
      </trkpt>
      <trkpt lat="43.72557" lon="6.93937">
        <ele>1022</ele>
        <time>2015-11-07T08:42:31Z</time>
      </trkpt>
      <trkpt lat="43.72555" lon="6.93936">
        <ele>1022.4</ele>
        <time>2015-11-07T08:42:32Z</time>
      </trkpt>
      <trkpt lat="43.72553" lon="6.93936">
        <ele>1022.8</ele>
        <time>2015-11-07T08:42:33Z</time>
      </trkpt>
      <trkpt lat="43.72551" lon="6.93935">
        <ele>1023.2</ele>
        <time>2015-11-07T08:42:34Z</time>
      </trkpt>
      <trkpt lat="43.7255" lon="6.93935">
        <ele>1023.8</ele>
        <time>2015-11-07T08:42:35Z</time>
      </trkpt>
      <trkpt lat="43.72545" lon="6.93935">
        <ele>1023.8</ele>
        <time>2015-11-07T08:42:38Z</time>
      </trkpt>
      <trkpt lat="43.72541" lon="6.93934">
        <ele>1024.2</ele>
        <time>2015-11-07T08:42:41Z</time>
      </trkpt>
      <trkpt lat="43.7254" lon="6.93934">
        <ele>1024.6</ele>
        <time>2015-11-07T08:42:42Z</time>
      </trkpt>
      <trkpt lat="43.72538" lon="6.93934">
        <ele>1025</ele>
        <time>2015-11-07T08:42:43Z</time>
      </trkpt>
      <trkpt lat="43.72537" lon="6.93934">
        <ele>1025.4</ele>
        <time>2015-11-07T08:42:44Z</time>
      </trkpt>
      <trkpt lat="43.72536" lon="6.93933">
        <ele>1025.8</ele>
        <time>2015-11-07T08:42:45Z</time>
      </trkpt>
      <trkpt lat="43.72534" lon="6.93933">
        <ele>1025.8</ele>
        <time>2015-11-07T08:42:47Z</time>
      </trkpt>
      <trkpt lat="43.7253" lon="6.93932">
        <ele>1026.2</ele>
        <time>2015-11-07T08:42:50Z</time>
      </trkpt>
      <trkpt lat="43.72528" lon="6.93932">
        <ele>1026.6</ele>
        <time>2015-11-07T08:42:51Z</time>
      </trkpt>
      <trkpt lat="43.72527" lon="6.93932">
        <ele>1027</ele>
        <time>2015-11-07T08:42:52Z</time>
      </trkpt>
      <trkpt lat="43.72526" lon="6.93932">
        <ele>1027.4</ele>
        <time>2015-11-07T08:42:53Z</time>
      </trkpt>
      <trkpt lat="43.72524" lon="6.93932">
        <ele>1028</ele>
        <time>2015-11-07T08:42:54Z</time>
      </trkpt>
      <trkpt lat="43.72521" lon="6.93932">
        <ele>1028</ele>
        <time>2015-11-07T08:42:56Z</time>
      </trkpt>
      <trkpt lat="43.7252" lon="6.93932">
        <ele>1028.4</ele>
        <time>2015-11-07T08:42:57Z</time>
      </trkpt>
      <trkpt lat="43.72518" lon="6.93932">
        <ele>1028.8</ele>
        <time>2015-11-07T08:42:58Z</time>
      </trkpt>
      <trkpt lat="43.72517" lon="6.93932">
        <ele>1029.4</ele>
        <time>2015-11-07T08:42:59Z</time>
      </trkpt>
      <trkpt lat="43.72515" lon="6.93931">
        <ele>1029.8</ele>
        <time>2015-11-07T08:43:00Z</time>
      </trkpt>
      <trkpt lat="43.72513" lon="6.9393">
        <ele>1030.2</ele>
        <time>2015-11-07T08:43:01Z</time>
      </trkpt>
      <trkpt lat="43.72509" lon="6.93929">
        <ele>1030.2</ele>
        <time>2015-11-07T08:43:03Z</time>
      </trkpt>
      <trkpt lat="43.72508" lon="6.93929">
        <ele>1030.2</ele>
        <time>2015-11-07T08:43:04Z</time>
      </trkpt>
      <trkpt lat="43.72505" lon="6.93929">
        <ele>1030.6</ele>
        <time>2015-11-07T08:43:06Z</time>
      </trkpt>
      <trkpt lat="43.72504" lon="6.93928">
        <ele>1031</ele>
        <time>2015-11-07T08:43:07Z</time>
      </trkpt>
      <trkpt lat="43.72502" lon="6.93927">
        <ele>1031.4</ele>
        <time>2015-11-07T08:43:08Z</time>
      </trkpt>
      <trkpt lat="43.72502" lon="6.93927">
        <ele>1031.8</ele>
        <time>2015-11-07T08:43:09Z</time>
      </trkpt>
      <trkpt lat="43.72501" lon="6.93926">
        <ele>1032.2</ele>
        <time>2015-11-07T08:43:10Z</time>
      </trkpt>
      <trkpt lat="43.72499" lon="6.93925">
        <ele>1032.2</ele>
        <time>2015-11-07T08:43:11Z</time>
      </trkpt>
      <trkpt lat="43.72486" lon="6.93908">
        <ele>1032.2</ele>
        <time>2015-11-07T08:43:20Z</time>
      </trkpt>
      <trkpt lat="43.72481" lon="6.93901">
        <ele>1032.6</ele>
        <time>2015-11-07T08:43:24Z</time>
      </trkpt>
      <trkpt lat="43.72479" lon="6.939">
        <ele>1033.2</ele>
        <time>2015-11-07T08:43:25Z</time>
      </trkpt>
      <trkpt lat="43.72477" lon="6.93898">
        <ele>1033.6</ele>
        <time>2015-11-07T08:43:26Z</time>
      </trkpt>
      <trkpt lat="43.72476" lon="6.93897">
        <ele>1034</ele>
        <time>2015-11-07T08:43:27Z</time>
      </trkpt>
      <trkpt lat="43.72474" lon="6.93896">
        <ele>1034.4</ele>
        <time>2015-11-07T08:43:28Z</time>
      </trkpt>
      <trkpt lat="43.72472" lon="6.93894">
        <ele>1034.4</ele>
        <time>2015-11-07T08:43:29Z</time>
      </trkpt>
      <trkpt lat="43.72453" lon="6.93874">
        <ele>1034.4</ele>
        <time>2015-11-07T08:43:41Z</time>
      </trkpt>
      <trkpt lat="43.72443" lon="6.93857">
        <ele>1034.4</ele>
        <time>2015-11-07T08:43:49Z</time>
      </trkpt>
      <trkpt lat="43.72441" lon="6.93854">
        <ele>1034.8</ele>
        <time>2015-11-07T08:43:50Z</time>
      </trkpt>
      <trkpt lat="43.7244" lon="6.93852">
        <ele>1035.2</ele>
        <time>2015-11-07T08:43:51Z</time>
      </trkpt>
      <trkpt lat="43.72439" lon="6.9385">
        <ele>1035.6</ele>
        <time>2015-11-07T08:43:52Z</time>
      </trkpt>
      <trkpt lat="43.72437" lon="6.93849">
        <ele>1036</ele>
        <time>2015-11-07T08:43:53Z</time>
      </trkpt>
      <trkpt lat="43.72436" lon="6.93846">
        <ele>1036.4</ele>
        <time>2015-11-07T08:43:54Z</time>
      </trkpt>
      <trkpt lat="43.72431" lon="6.9384">
        <ele>1036.4</ele>
        <time>2015-11-07T08:43:57Z</time>
      </trkpt>
      <trkpt lat="43.72423" lon="6.93839">
        <ele>1036.4</ele>
        <time>2015-11-07T08:44:03Z</time>
      </trkpt>
      <trkpt lat="43.72422" lon="6.93838">
        <ele>1036.8</ele>
        <time>2015-11-07T08:44:04Z</time>
      </trkpt>
      <trkpt lat="43.72421" lon="6.93839">
        <ele>1037.2</ele>
        <time>2015-11-07T08:44:05Z</time>
      </trkpt>
      <trkpt lat="43.72419" lon="6.93839">
        <ele>1037.8</ele>
        <time>2015-11-07T08:44:06Z</time>
      </trkpt>
      <trkpt lat="43.72418" lon="6.93838">
        <ele>1038.2</ele>
        <time>2015-11-07T08:44:07Z</time>
      </trkpt>
      <trkpt lat="43.72416" lon="6.93837">
        <ele>1038.6</ele>
        <time>2015-11-07T08:44:08Z</time>
      </trkpt>
      <trkpt lat="43.72411" lon="6.93831">
        <ele>1038.6</ele>
        <time>2015-11-07T08:44:12Z</time>
      </trkpt>
      <trkpt lat="43.72404" lon="6.93825">
        <ele>1039</ele>
        <time>2015-11-07T08:44:16Z</time>
      </trkpt>
      <trkpt lat="43.72402" lon="6.93823">
        <ele>1039.4</ele>
        <time>2015-11-07T08:44:17Z</time>
      </trkpt>
      <trkpt lat="43.724" lon="6.93821">
        <ele>1039.8</ele>
        <time>2015-11-07T08:44:18Z</time>
      </trkpt>
      <trkpt lat="43.72399" lon="6.9382">
        <ele>1040.2</ele>
        <time>2015-11-07T08:44:19Z</time>
      </trkpt>
      <trkpt lat="43.72397" lon="6.93819">
        <ele>1040.8</ele>
        <time>2015-11-07T08:44:20Z</time>
      </trkpt>
      <trkpt lat="43.72391" lon="6.93814">
        <ele>1041.2</ele>
        <time>2015-11-07T08:44:24Z</time>
      </trkpt>
      <trkpt lat="43.72389" lon="6.93812">
        <ele>1041.6</ele>
        <time>2015-11-07T08:44:25Z</time>
      </trkpt>
      <trkpt lat="43.72387" lon="6.93811">
        <ele>1042</ele>
        <time>2015-11-07T08:44:26Z</time>
      </trkpt>
      <trkpt lat="43.72385" lon="6.9381">
        <ele>1042.4</ele>
        <time>2015-11-07T08:44:27Z</time>
      </trkpt>
      <trkpt lat="43.72384" lon="6.93809">
        <ele>1043</ele>
        <time>2015-11-07T08:44:28Z</time>
      </trkpt>
      <trkpt lat="43.72368" lon="6.93797">
        <ele>1043.4</ele>
        <time>2015-11-07T08:44:37Z</time>
      </trkpt>
      <trkpt lat="43.72366" lon="6.93796">
        <ele>1043.8</ele>
        <time>2015-11-07T08:44:38Z</time>
      </trkpt>
      <trkpt lat="43.72365" lon="6.93795">
        <ele>1044.2</ele>
        <time>2015-11-07T08:44:39Z</time>
      </trkpt>
      <trkpt lat="43.72364" lon="6.93794">
        <ele>1044.8</ele>
        <time>2015-11-07T08:44:40Z</time>
      </trkpt>
      <trkpt lat="43.72362" lon="6.93793">
        <ele>1045.2</ele>
        <time>2015-11-07T08:44:41Z</time>
      </trkpt>
      <trkpt lat="43.72358" lon="6.93791">
        <ele>1045.6</ele>
        <time>2015-11-07T08:44:44Z</time>
      </trkpt>
      <trkpt lat="43.72357" lon="6.9379">
        <ele>1046</ele>
        <time>2015-11-07T08:44:45Z</time>
      </trkpt>
      <trkpt lat="43.72355" lon="6.93789">
        <ele>1046.4</ele>
        <time>2015-11-07T08:44:46Z</time>
      </trkpt>
      <trkpt lat="43.72354" lon="6.93788">
        <ele>1046.8</ele>
        <time>2015-11-07T08:44:47Z</time>
      </trkpt>
      <trkpt lat="43.72352" lon="6.93788">
        <ele>1047.2</ele>
        <time>2015-11-07T08:44:48Z</time>
      </trkpt>
      <trkpt lat="43.72348" lon="6.93784">
        <ele>1047.6</ele>
        <time>2015-11-07T08:44:51Z</time>
      </trkpt>
      <trkpt lat="43.72346" lon="6.93783">
        <ele>1048</ele>
        <time>2015-11-07T08:44:52Z</time>
      </trkpt>
      <trkpt lat="43.72344" lon="6.93783">
        <ele>1048.6</ele>
        <time>2015-11-07T08:44:53Z</time>
      </trkpt>
      <trkpt lat="43.72343" lon="6.93782">
        <ele>1049</ele>
        <time>2015-11-07T08:44:54Z</time>
      </trkpt>
      <trkpt lat="43.72342" lon="6.93782">
        <ele>1049.4</ele>
        <time>2015-11-07T08:44:55Z</time>
      </trkpt>
      <trkpt lat="43.7234" lon="6.93782">
        <ele>1049.4</ele>
        <time>2015-11-07T08:44:56Z</time>
      </trkpt>
      <trkpt lat="43.72334" lon="6.93782">
        <ele>1049.8</ele>
        <time>2015-11-07T08:44:59Z</time>
      </trkpt>
      <trkpt lat="43.72332" lon="6.93782">
        <ele>1050.2</ele>
        <time>2015-11-07T08:45:00Z</time>
      </trkpt>
      <trkpt lat="43.72331" lon="6.93783">
        <ele>1050.6</ele>
        <time>2015-11-07T08:45:01Z</time>
      </trkpt>
      <trkpt lat="43.7233" lon="6.93783">
        <ele>1051</ele>
        <time>2015-11-07T08:45:02Z</time>
      </trkpt>
      <trkpt lat="43.72328" lon="6.93784">
        <ele>1051.4</ele>
        <time>2015-11-07T08:45:03Z</time>
      </trkpt>
      <trkpt lat="43.72321" lon="6.93784">
        <ele>1051.8</ele>
        <time>2015-11-07T08:45:07Z</time>
      </trkpt>
      <trkpt lat="43.72319" lon="6.93785">
        <ele>1052.2</ele>
        <time>2015-11-07T08:45:08Z</time>
      </trkpt>
      <trkpt lat="43.72318" lon="6.93784">
        <ele>1052.8</ele>
        <time>2015-11-07T08:45:09Z</time>
      </trkpt>
      <trkpt lat="43.72316" lon="6.93785">
        <ele>1053.2</ele>
        <time>2015-11-07T08:45:10Z</time>
      </trkpt>
      <trkpt lat="43.72315" lon="6.93785">
        <ele>1053.6</ele>
        <time>2015-11-07T08:45:11Z</time>
      </trkpt>
      <trkpt lat="43.72312" lon="6.93786">
        <ele>1053.6</ele>
        <time>2015-11-07T08:45:13Z</time>
      </trkpt>
      <trkpt lat="43.72307" lon="6.93787">
        <ele>1054.2</ele>
        <time>2015-11-07T08:45:16Z</time>
      </trkpt>
      <trkpt lat="43.72305" lon="6.93787">
        <ele>1054.6</ele>
        <time>2015-11-07T08:45:17Z</time>
      </trkpt>
      <trkpt lat="43.72304" lon="6.93788">
        <ele>1055.2</ele>
        <time>2015-11-07T08:45:18Z</time>
      </trkpt>
      <trkpt lat="43.72303" lon="6.93788">
        <ele>1055.6</ele>
        <time>2015-11-07T08:45:19Z</time>
      </trkpt>
      <trkpt lat="43.72301" lon="6.93789">
        <ele>1056.2</ele>
        <time>2015-11-07T08:45:20Z</time>
      </trkpt>
      <trkpt lat="43.723" lon="6.93791">
        <ele>1056.2</ele>
        <time>2015-11-07T08:45:21Z</time>
      </trkpt>
      <trkpt lat="43.72289" lon="6.93799">
        <ele>1056.2</ele>
        <time>2015-11-07T08:45:29Z</time>
      </trkpt>
      <trkpt lat="43.72286" lon="6.93801">
        <ele>1056.6</ele>
        <time>2015-11-07T08:45:31Z</time>
      </trkpt>
      <trkpt lat="43.72285" lon="6.93802">
        <ele>1057</ele>
        <time>2015-11-07T08:45:32Z</time>
      </trkpt>
      <trkpt lat="43.72283" lon="6.93803">
        <ele>1057.6</ele>
        <time>2015-11-07T08:45:33Z</time>
      </trkpt>
      <trkpt lat="43.72282" lon="6.93805">
        <ele>1058</ele>
        <time>2015-11-07T08:45:34Z</time>
      </trkpt>
      <trkpt lat="43.72281" lon="6.93806">
        <ele>1058.4</ele>
        <time>2015-11-07T08:45:35Z</time>
      </trkpt>
      <trkpt lat="43.72275" lon="6.93814">
        <ele>1058.4</ele>
        <time>2015-11-07T08:45:40Z</time>
      </trkpt>
      <trkpt lat="43.72266" lon="6.93824">
        <ele>1058.8</ele>
        <time>2015-11-07T08:45:46Z</time>
      </trkpt>
      <trkpt lat="43.72265" lon="6.93826">
        <ele>1059.2</ele>
        <time>2015-11-07T08:45:47Z</time>
      </trkpt>
      <trkpt lat="43.72263" lon="6.93828">
        <ele>1059.8</ele>
        <time>2015-11-07T08:45:48Z</time>
      </trkpt>
      <trkpt lat="43.72262" lon="6.93829">
        <ele>1060.2</ele>
        <time>2015-11-07T08:45:49Z</time>
      </trkpt>
      <trkpt lat="43.7226" lon="6.9383">
        <ele>1060.6</ele>
        <time>2015-11-07T08:45:50Z</time>
      </trkpt>
      <trkpt lat="43.7225" lon="6.93835">
        <ele>1060.6</ele>
        <time>2015-11-07T08:45:56Z</time>
      </trkpt>
      <trkpt lat="43.72243" lon="6.93838">
        <ele>1061</ele>
        <time>2015-11-07T08:46:00Z</time>
      </trkpt>
      <trkpt lat="43.72241" lon="6.93839">
        <ele>1061.4</ele>
        <time>2015-11-07T08:46:01Z</time>
      </trkpt>
      <trkpt lat="43.7224" lon="6.93839">
        <ele>1061.8</ele>
        <time>2015-11-07T08:46:02Z</time>
      </trkpt>
      <trkpt lat="43.72238" lon="6.9384">
        <ele>1062.2</ele>
        <time>2015-11-07T08:46:03Z</time>
      </trkpt>
      <trkpt lat="43.72237" lon="6.93841">
        <ele>1062.6</ele>
        <time>2015-11-07T08:46:04Z</time>
      </trkpt>
      <trkpt lat="43.72233" lon="6.93843">
        <ele>1062.6</ele>
        <time>2015-11-07T08:46:06Z</time>
      </trkpt>
      <trkpt lat="43.72216" lon="6.9385">
        <ele>1063</ele>
        <time>2015-11-07T08:46:15Z</time>
      </trkpt>
      <trkpt lat="43.72214" lon="6.9385">
        <ele>1063.4</ele>
        <time>2015-11-07T08:46:16Z</time>
      </trkpt>
      <trkpt lat="43.72213" lon="6.9385">
        <ele>1063.8</ele>
        <time>2015-11-07T08:46:17Z</time>
      </trkpt>
      <trkpt lat="43.72211" lon="6.9385">
        <ele>1064.4</ele>
        <time>2015-11-07T08:46:18Z</time>
      </trkpt>
      <trkpt lat="43.72209" lon="6.9385">
        <ele>1064.8</ele>
        <time>2015-11-07T08:46:19Z</time>
      </trkpt>
      <trkpt lat="43.72206" lon="6.9385">
        <ele>1064.8</ele>
        <time>2015-11-07T08:46:22Z</time>
      </trkpt>
      <trkpt lat="43.72201" lon="6.93849">
        <ele>1065.2</ele>
        <time>2015-11-07T08:46:25Z</time>
      </trkpt>
      <trkpt lat="43.722" lon="6.93849">
        <ele>1065.6</ele>
        <time>2015-11-07T08:46:26Z</time>
      </trkpt>
      <trkpt lat="43.72198" lon="6.93849">
        <ele>1066</ele>
        <time>2015-11-07T08:46:27Z</time>
      </trkpt>
      <trkpt lat="43.72196" lon="6.93849">
        <ele>1066.4</ele>
        <time>2015-11-07T08:46:28Z</time>
      </trkpt>
      <trkpt lat="43.72195" lon="6.93849">
        <ele>1066.8</ele>
        <time>2015-11-07T08:46:29Z</time>
      </trkpt>
      <trkpt lat="43.72193" lon="6.93848">
        <ele>1066.8</ele>
        <time>2015-11-07T08:46:30Z</time>
      </trkpt>
      <trkpt lat="43.72183" lon="6.93845">
        <ele>1067.4</ele>
        <time>2015-11-07T08:46:36Z</time>
      </trkpt>
      <trkpt lat="43.72181" lon="6.93844">
        <ele>1067.8</ele>
        <time>2015-11-07T08:46:37Z</time>
      </trkpt>
      <trkpt lat="43.72178" lon="6.93844">
        <ele>1068.2</ele>
        <time>2015-11-07T08:46:38Z</time>
      </trkpt>
      <trkpt lat="43.72176" lon="6.93843">
        <ele>1068.6</ele>
        <time>2015-11-07T08:46:39Z</time>
      </trkpt>
      <trkpt lat="43.72175" lon="6.93843">
        <ele>1069</ele>
        <time>2015-11-07T08:46:40Z</time>
      </trkpt>
      <trkpt lat="43.72168" lon="6.93838">
        <ele>1069.4</ele>
        <time>2015-11-07T08:46:45Z</time>
      </trkpt>
      <trkpt lat="43.72167" lon="6.93837">
        <ele>1069.8</ele>
        <time>2015-11-07T08:46:46Z</time>
      </trkpt>
      <trkpt lat="43.72165" lon="6.93835">
        <ele>1070.2</ele>
        <time>2015-11-07T08:46:47Z</time>
      </trkpt>
      <trkpt lat="43.72164" lon="6.93833">
        <ele>1070.6</ele>
        <time>2015-11-07T08:46:48Z</time>
      </trkpt>
      <trkpt lat="43.72163" lon="6.93832">
        <ele>1071</ele>
        <time>2015-11-07T08:46:49Z</time>
      </trkpt>
      <trkpt lat="43.72155" lon="6.93824">
        <ele>1071</ele>
        <time>2015-11-07T08:46:55Z</time>
      </trkpt>
      <trkpt lat="43.72153" lon="6.93822">
        <ele>1071.6</ele>
        <time>2015-11-07T08:46:56Z</time>
      </trkpt>
      <trkpt lat="43.72153" lon="6.93821">
        <ele>1072</ele>
        <time>2015-11-07T08:46:57Z</time>
      </trkpt>
      <trkpt lat="43.72152" lon="6.93819">
        <ele>1072.4</ele>
        <time>2015-11-07T08:46:58Z</time>
      </trkpt>
      <trkpt lat="43.72151" lon="6.93818">
        <ele>1073</ele>
        <time>2015-11-07T08:46:59Z</time>
      </trkpt>
      <trkpt lat="43.7215" lon="6.93817">
        <ele>1073.4</ele>
        <time>2015-11-07T08:47:00Z</time>
      </trkpt>
      <trkpt lat="43.72148" lon="6.93814">
        <ele>1073.4</ele>
        <time>2015-11-07T08:47:02Z</time>
      </trkpt>
      <trkpt lat="43.72142" lon="6.93807">
        <ele>1073.8</ele>
        <time>2015-11-07T08:47:07Z</time>
      </trkpt>
      <trkpt lat="43.72141" lon="6.93805">
        <ele>1074.2</ele>
        <time>2015-11-07T08:47:08Z</time>
      </trkpt>
      <trkpt lat="43.72139" lon="6.93802">
        <ele>1074.6</ele>
        <time>2015-11-07T08:47:09Z</time>
      </trkpt>
      <trkpt lat="43.72138" lon="6.93801">
        <ele>1075.2</ele>
        <time>2015-11-07T08:47:10Z</time>
      </trkpt>
      <trkpt lat="43.72137" lon="6.93798">
        <ele>1075.6</ele>
        <time>2015-11-07T08:47:11Z</time>
      </trkpt>
      <trkpt lat="43.72135" lon="6.93797">
        <ele>1075.6</ele>
        <time>2015-11-07T08:47:12Z</time>
      </trkpt>
      <trkpt lat="43.72133" lon="6.93794">
        <ele>1076</ele>
        <time>2015-11-07T08:47:14Z</time>
      </trkpt>
      <trkpt lat="43.72132" lon="6.93793">
        <ele>1076.4</ele>
        <time>2015-11-07T08:47:15Z</time>
      </trkpt>
      <trkpt lat="43.72131" lon="6.93791">
        <ele>1076.8</ele>
        <time>2015-11-07T08:47:16Z</time>
      </trkpt>
      <trkpt lat="43.72129" lon="6.9379">
        <ele>1077.2</ele>
        <time>2015-11-07T08:47:17Z</time>
      </trkpt>
      <trkpt lat="43.72128" lon="6.93789">
        <ele>1077.6</ele>
        <time>2015-11-07T08:47:18Z</time>
      </trkpt>
      <trkpt lat="43.72124" lon="6.93785">
        <ele>1077.6</ele>
        <time>2015-11-07T08:47:21Z</time>
      </trkpt>
      <trkpt lat="43.72119" lon="6.93779">
        <ele>1078</ele>
        <time>2015-11-07T08:47:25Z</time>
      </trkpt>
      <trkpt lat="43.72118" lon="6.93777">
        <ele>1078.4</ele>
        <time>2015-11-07T08:47:26Z</time>
      </trkpt>
      <trkpt lat="43.72116" lon="6.93775">
        <ele>1079</ele>
        <time>2015-11-07T08:47:27Z</time>
      </trkpt>
      <trkpt lat="43.72115" lon="6.93775">
        <ele>1079.4</ele>
        <time>2015-11-07T08:47:28Z</time>
      </trkpt>
      <trkpt lat="43.72114" lon="6.93774">
        <ele>1079.8</ele>
        <time>2015-11-07T08:47:29Z</time>
      </trkpt>
      <trkpt lat="43.72112" lon="6.93773">
        <ele>1079.8</ele>
        <time>2015-11-07T08:47:30Z</time>
      </trkpt>
      <trkpt lat="43.72108" lon="6.93768">
        <ele>1080.2</ele>
        <time>2015-11-07T08:47:33Z</time>
      </trkpt>
      <trkpt lat="43.72107" lon="6.93767">
        <ele>1080.6</ele>
        <time>2015-11-07T08:47:34Z</time>
      </trkpt>
      <trkpt lat="43.72106" lon="6.93766">
        <ele>1081</ele>
        <time>2015-11-07T08:47:35Z</time>
      </trkpt>
      <trkpt lat="43.72105" lon="6.93765">
        <ele>1081.4</ele>
        <time>2015-11-07T08:47:36Z</time>
      </trkpt>
      <trkpt lat="43.72103" lon="6.93763">
        <ele>1081.8</ele>
        <time>2015-11-07T08:47:37Z</time>
      </trkpt>
      <trkpt lat="43.72098" lon="6.93757">
        <ele>1081.8</ele>
        <time>2015-11-07T08:47:41Z</time>
      </trkpt>
      <trkpt lat="43.72097" lon="6.93755">
        <ele>1082.4</ele>
        <time>2015-11-07T08:47:42Z</time>
      </trkpt>
      <trkpt lat="43.72095" lon="6.93753">
        <ele>1082.8</ele>
        <time>2015-11-07T08:47:43Z</time>
      </trkpt>
      <trkpt lat="43.72094" lon="6.93752">
        <ele>1083.2</ele>
        <time>2015-11-07T08:47:44Z</time>
      </trkpt>
      <trkpt lat="43.72093" lon="6.93751">
        <ele>1083.6</ele>
        <time>2015-11-07T08:47:45Z</time>
      </trkpt>
      <trkpt lat="43.72091" lon="6.9375">
        <ele>1084.2</ele>
        <time>2015-11-07T08:47:46Z</time>
      </trkpt>
      <trkpt lat="43.72086" lon="6.93744">
        <ele>1084.6</ele>
        <time>2015-11-07T08:47:50Z</time>
      </trkpt>
      <trkpt lat="43.72085" lon="6.93743">
        <ele>1085</ele>
        <time>2015-11-07T08:47:51Z</time>
      </trkpt>
      <trkpt lat="43.72083" lon="6.93742">
        <ele>1085.4</ele>
        <time>2015-11-07T08:47:52Z</time>
      </trkpt>
      <trkpt lat="43.72082" lon="6.93741">
        <ele>1085.8</ele>
        <time>2015-11-07T08:47:53Z</time>
      </trkpt>
      <trkpt lat="43.72081" lon="6.93739">
        <ele>1086.2</ele>
        <time>2015-11-07T08:47:54Z</time>
      </trkpt>
      <trkpt lat="43.72078" lon="6.93737">
        <ele>1086.8</ele>
        <time>2015-11-07T08:47:56Z</time>
      </trkpt>
      <trkpt lat="43.72077" lon="6.93736">
        <ele>1087.2</ele>
        <time>2015-11-07T08:47:57Z</time>
      </trkpt>
      <trkpt lat="43.72076" lon="6.93735">
        <ele>1087.6</ele>
        <time>2015-11-07T08:47:58Z</time>
      </trkpt>
      <trkpt lat="43.72075" lon="6.93734">
        <ele>1088</ele>
        <time>2015-11-07T08:47:59Z</time>
      </trkpt>
      <trkpt lat="43.72074" lon="6.93732">
        <ele>1088.4</ele>
        <time>2015-11-07T08:48:00Z</time>
      </trkpt>
      <trkpt lat="43.72072" lon="6.93731">
        <ele>1088.4</ele>
        <time>2015-11-07T08:48:01Z</time>
      </trkpt>
      <trkpt lat="43.72068" lon="6.93728">
        <ele>1088.8</ele>
        <time>2015-11-07T08:48:04Z</time>
      </trkpt>
      <trkpt lat="43.72067" lon="6.93727">
        <ele>1089.2</ele>
        <time>2015-11-07T08:48:05Z</time>
      </trkpt>
      <trkpt lat="43.72066" lon="6.93726">
        <ele>1089.6</ele>
        <time>2015-11-07T08:48:06Z</time>
      </trkpt>
      <trkpt lat="43.72064" lon="6.93725">
        <ele>1090</ele>
        <time>2015-11-07T08:48:07Z</time>
      </trkpt>
      <trkpt lat="43.72063" lon="6.93724">
        <ele>1090.6</ele>
        <time>2015-11-07T08:48:08Z</time>
      </trkpt>
      <trkpt lat="43.7206" lon="6.93721">
        <ele>1090.6</ele>
        <time>2015-11-07T08:48:10Z</time>
      </trkpt>
      <trkpt lat="43.72056" lon="6.93718">
        <ele>1091</ele>
        <time>2015-11-07T08:48:14Z</time>
      </trkpt>
      <trkpt lat="43.72054" lon="6.93716">
        <ele>1091.4</ele>
        <time>2015-11-07T08:48:15Z</time>
      </trkpt>
      <trkpt lat="43.72053" lon="6.93715">
        <ele>1091.8</ele>
        <time>2015-11-07T08:48:16Z</time>
      </trkpt>
      <trkpt lat="43.72052" lon="6.93713">
        <ele>1092.2</ele>
        <time>2015-11-07T08:48:17Z</time>
      </trkpt>
      <trkpt lat="43.72051" lon="6.93712">
        <ele>1092.8</ele>
        <time>2015-11-07T08:48:18Z</time>
      </trkpt>
      <trkpt lat="43.72047" lon="6.93707">
        <ele>1093.2</ele>
        <time>2015-11-07T08:48:21Z</time>
      </trkpt>
      <trkpt lat="43.72046" lon="6.93705">
        <ele>1093.6</ele>
        <time>2015-11-07T08:48:22Z</time>
      </trkpt>
      <trkpt lat="43.72044" lon="6.93704">
        <ele>1094</ele>
        <time>2015-11-07T08:48:23Z</time>
      </trkpt>
      <trkpt lat="43.72044" lon="6.93703">
        <ele>1094.4</ele>
        <time>2015-11-07T08:48:24Z</time>
      </trkpt>
      <trkpt lat="43.72042" lon="6.93701">
        <ele>1094.8</ele>
        <time>2015-11-07T08:48:25Z</time>
      </trkpt>
      <trkpt lat="43.72037" lon="6.93697">
        <ele>1094.8</ele>
        <time>2015-11-07T08:48:29Z</time>
      </trkpt>
      <trkpt lat="43.72035" lon="6.93695">
        <ele>1095.4</ele>
        <time>2015-11-07T08:48:30Z</time>
      </trkpt>
      <trkpt lat="43.72034" lon="6.93694">
        <ele>1095.8</ele>
        <time>2015-11-07T08:48:31Z</time>
      </trkpt>
      <trkpt lat="43.72032" lon="6.93692">
        <ele>1096.2</ele>
        <time>2015-11-07T08:48:32Z</time>
      </trkpt>
      <trkpt lat="43.72031" lon="6.93691">
        <ele>1096.8</ele>
        <time>2015-11-07T08:48:33Z</time>
      </trkpt>
      <trkpt lat="43.7203" lon="6.9369">
        <ele>1097.2</ele>
        <time>2015-11-07T08:48:34Z</time>
      </trkpt>
      <trkpt lat="43.72025" lon="6.93686">
        <ele>1097.6</ele>
        <time>2015-11-07T08:48:37Z</time>
      </trkpt>
      <trkpt lat="43.72024" lon="6.93685">
        <ele>1098</ele>
        <time>2015-11-07T08:48:38Z</time>
      </trkpt>
      <trkpt lat="43.72023" lon="6.93684">
        <ele>1098.4</ele>
        <time>2015-11-07T08:48:39Z</time>
      </trkpt>
      <trkpt lat="43.72022" lon="6.93683">
        <ele>1098.8</ele>
        <time>2015-11-07T08:48:40Z</time>
      </trkpt>
      <trkpt lat="43.72021" lon="6.93682">
        <ele>1099.2</ele>
        <time>2015-11-07T08:48:41Z</time>
      </trkpt>
      <trkpt lat="43.72016" lon="6.93679">
        <ele>1099.6</ele>
        <time>2015-11-07T08:48:45Z</time>
      </trkpt>
      <trkpt lat="43.72015" lon="6.93677">
        <ele>1100.2</ele>
        <time>2015-11-07T08:48:46Z</time>
      </trkpt>
      <trkpt lat="43.72014" lon="6.93676">
        <ele>1100.6</ele>
        <time>2015-11-07T08:48:47Z</time>
      </trkpt>
      <trkpt lat="43.72012" lon="6.93675">
        <ele>1101</ele>
        <time>2015-11-07T08:48:48Z</time>
      </trkpt>
      <trkpt lat="43.72011" lon="6.93674">
        <ele>1101.4</ele>
        <time>2015-11-07T08:48:49Z</time>
      </trkpt>
      <trkpt lat="43.72006" lon="6.93668">
        <ele>1101.8</ele>
        <time>2015-11-07T08:48:53Z</time>
      </trkpt>
      <trkpt lat="43.72005" lon="6.93666">
        <ele>1102.4</ele>
        <time>2015-11-07T08:48:54Z</time>
      </trkpt>
      <trkpt lat="43.72004" lon="6.93665">
        <ele>1102.8</ele>
        <time>2015-11-07T08:48:55Z</time>
      </trkpt>
      <trkpt lat="43.72002" lon="6.93663">
        <ele>1103.4</ele>
        <time>2015-11-07T08:48:56Z</time>
      </trkpt>
      <trkpt lat="43.72001" lon="6.93662">
        <ele>1103.8</ele>
        <time>2015-11-07T08:48:57Z</time>
      </trkpt>
      <trkpt lat="43.71997" lon="6.93657">
        <ele>1103.8</ele>
        <time>2015-11-07T08:49:00Z</time>
      </trkpt>
      <trkpt lat="43.7199" lon="6.9365">
        <ele>1104.4</ele>
        <time>2015-11-07T08:49:05Z</time>
      </trkpt>
      <trkpt lat="43.71988" lon="6.93649">
        <ele>1104.8</ele>
        <time>2015-11-07T08:49:06Z</time>
      </trkpt>
      <trkpt lat="43.71987" lon="6.93648">
        <ele>1105.4</ele>
        <time>2015-11-07T08:49:07Z</time>
      </trkpt>
      <trkpt lat="43.71985" lon="6.93647">
        <ele>1105.8</ele>
        <time>2015-11-07T08:49:08Z</time>
      </trkpt>
      <trkpt lat="43.71984" lon="6.93646">
        <ele>1106.4</ele>
        <time>2015-11-07T08:49:09Z</time>
      </trkpt>
      <trkpt lat="43.71983" lon="6.93645">
        <ele>1106.4</ele>
        <time>2015-11-07T08:49:10Z</time>
      </trkpt>
      <trkpt lat="43.71975" lon="6.93636">
        <ele>1106.8</ele>
        <time>2015-11-07T08:49:16Z</time>
      </trkpt>
      <trkpt lat="43.71974" lon="6.93635">
        <ele>1107.2</ele>
        <time>2015-11-07T08:49:17Z</time>
      </trkpt>
      <trkpt lat="43.71972" lon="6.93634">
        <ele>1107.8</ele>
        <time>2015-11-07T08:49:18Z</time>
      </trkpt>
      <trkpt lat="43.71971" lon="6.93632">
        <ele>1108.2</ele>
        <time>2015-11-07T08:49:19Z</time>
      </trkpt>
      <trkpt lat="43.7197" lon="6.9363">
        <ele>1108.6</ele>
        <time>2015-11-07T08:49:20Z</time>
      </trkpt>
      <trkpt lat="43.71967" lon="6.93628">
        <ele>1108.6</ele>
        <time>2015-11-07T08:49:22Z</time>
      </trkpt>
      <trkpt lat="43.71964" lon="6.93623">
        <ele>1109</ele>
        <time>2015-11-07T08:49:25Z</time>
      </trkpt>
      <trkpt lat="43.71963" lon="6.93622">
        <ele>1109.6</ele>
        <time>2015-11-07T08:49:26Z</time>
      </trkpt>
      <trkpt lat="43.71961" lon="6.9362">
        <ele>1110.4</ele>
        <time>2015-11-07T08:49:27Z</time>
      </trkpt>
      <trkpt lat="43.71959" lon="6.93617">
        <ele>1111</ele>
        <time>2015-11-07T08:49:29Z</time>
      </trkpt>
      <trkpt lat="43.71957" lon="6.93614">
        <ele>1111.4</ele>
        <time>2015-11-07T08:49:31Z</time>
      </trkpt>
      <trkpt lat="43.71956" lon="6.93613">
        <ele>1111.8</ele>
        <time>2015-11-07T08:49:32Z</time>
      </trkpt>
      <trkpt lat="43.71955" lon="6.93612">
        <ele>1112.2</ele>
        <time>2015-11-07T08:49:33Z</time>
      </trkpt>
      <trkpt lat="43.71953" lon="6.9361">
        <ele>1112.6</ele>
        <time>2015-11-07T08:49:34Z</time>
      </trkpt>
      <trkpt lat="43.71952" lon="6.93609">
        <ele>1113</ele>
        <time>2015-11-07T08:49:35Z</time>
      </trkpt>
      <trkpt lat="43.71944" lon="6.93597">
        <ele>1113</ele>
        <time>2015-11-07T08:49:41Z</time>
      </trkpt>
      <trkpt lat="43.71943" lon="6.93596">
        <ele>1113.4</ele>
        <time>2015-11-07T08:49:42Z</time>
      </trkpt>
      <trkpt lat="43.71942" lon="6.93594">
        <ele>1113.8</ele>
        <time>2015-11-07T08:49:43Z</time>
      </trkpt>
      <trkpt lat="43.7194" lon="6.93593">
        <ele>1114.4</ele>
        <time>2015-11-07T08:49:44Z</time>
      </trkpt>
      <trkpt lat="43.71939" lon="6.93591">
        <ele>1114.8</ele>
        <time>2015-11-07T08:49:45Z</time>
      </trkpt>
      <trkpt lat="43.71938" lon="6.93589">
        <ele>1115.2</ele>
        <time>2015-11-07T08:49:46Z</time>
      </trkpt>
      <trkpt lat="43.71936" lon="6.93585">
        <ele>1115.6</ele>
        <time>2015-11-07T08:49:48Z</time>
      </trkpt>
      <trkpt lat="43.71935" lon="6.93583">
        <ele>1116.2</ele>
        <time>2015-11-07T08:49:49Z</time>
      </trkpt>
      <trkpt lat="43.71934" lon="6.93581">
        <ele>1116.6</ele>
        <time>2015-11-07T08:49:50Z</time>
      </trkpt>
      <trkpt lat="43.71933" lon="6.9358">
        <ele>1117</ele>
        <time>2015-11-07T08:49:51Z</time>
      </trkpt>
      <trkpt lat="43.71931" lon="6.93579">
        <ele>1117.6</ele>
        <time>2015-11-07T08:49:52Z</time>
      </trkpt>
      <trkpt lat="43.7193" lon="6.93577">
        <ele>1118</ele>
        <time>2015-11-07T08:49:53Z</time>
      </trkpt>
      <trkpt lat="43.71928" lon="6.93575">
        <ele>1118.4</ele>
        <time>2015-11-07T08:49:54Z</time>
      </trkpt>
      <trkpt lat="43.71927" lon="6.93573">
        <ele>1118.8</ele>
        <time>2015-11-07T08:49:55Z</time>
      </trkpt>
      <trkpt lat="43.71926" lon="6.93571">
        <ele>1119.2</ele>
        <time>2015-11-07T08:49:56Z</time>
      </trkpt>
      <trkpt lat="43.71925" lon="6.93569">
        <ele>1119.6</ele>
        <time>2015-11-07T08:49:57Z</time>
      </trkpt>
      <trkpt lat="43.7192" lon="6.93564">
        <ele>1120</ele>
        <time>2015-11-07T08:50:00Z</time>
      </trkpt>
      <trkpt lat="43.71919" lon="6.93563">
        <ele>1120.4</ele>
        <time>2015-11-07T08:50:01Z</time>
      </trkpt>
      <trkpt lat="43.71918" lon="6.93561">
        <ele>1121</ele>
        <time>2015-11-07T08:50:02Z</time>
      </trkpt>
      <trkpt lat="43.71916" lon="6.93559">
        <ele>1121.4</ele>
        <time>2015-11-07T08:50:03Z</time>
      </trkpt>
      <trkpt lat="43.71914" lon="6.93557">
        <ele>1121.8</ele>
        <time>2015-11-07T08:50:04Z</time>
      </trkpt>
      <trkpt lat="43.71912" lon="6.93554">
        <ele>1122.4</ele>
        <time>2015-11-07T08:50:06Z</time>
      </trkpt>
      <trkpt lat="43.7191" lon="6.93552">
        <ele>1122.8</ele>
        <time>2015-11-07T08:50:07Z</time>
      </trkpt>
      <trkpt lat="43.71909" lon="6.93551">
        <ele>1123.2</ele>
        <time>2015-11-07T08:50:08Z</time>
      </trkpt>
      <trkpt lat="43.71907" lon="6.9355">
        <ele>1123.6</ele>
        <time>2015-11-07T08:50:09Z</time>
      </trkpt>
      <trkpt lat="43.71906" lon="6.93549">
        <ele>1124</ele>
        <time>2015-11-07T08:50:10Z</time>
      </trkpt>
      <trkpt lat="43.71905" lon="6.93548">
        <ele>1124.6</ele>
        <time>2015-11-07T08:50:11Z</time>
      </trkpt>
      <trkpt lat="43.71904" lon="6.93546">
        <ele>1125</ele>
        <time>2015-11-07T08:50:12Z</time>
      </trkpt>
      <trkpt lat="43.71903" lon="6.93544">
        <ele>1125.4</ele>
        <time>2015-11-07T08:50:13Z</time>
      </trkpt>
      <trkpt lat="43.71902" lon="6.93542">
        <ele>1125.8</ele>
        <time>2015-11-07T08:50:14Z</time>
      </trkpt>
      <trkpt lat="43.71901" lon="6.93541">
        <ele>1126.2</ele>
        <time>2015-11-07T08:50:15Z</time>
      </trkpt>
      <trkpt lat="43.71899" lon="6.93538">
        <ele>1126.2</ele>
        <time>2015-11-07T08:50:18Z</time>
      </trkpt>
      <trkpt lat="43.719" lon="6.93537">
        <ele>1126.2</ele>
        <time>2015-11-07T08:50:28Z</time>
      </trkpt>
      <trkpt lat="43.71897" lon="6.93534">
        <ele>1126.2</ele>
        <time>2015-11-07T08:50:54Z</time>
      </trkpt>
      <trkpt lat="43.71899" lon="6.93535">
        <ele>1126.2</ele>
        <time>2015-11-07T08:51:05Z</time>
      </trkpt>
      <trkpt lat="43.71899" lon="6.93533">
        <ele>1126.2</ele>
        <time>2015-11-07T08:51:13Z</time>
      </trkpt>
      <trkpt lat="43.71903" lon="6.93542">
        <ele>1126.2</ele>
        <time>2015-11-07T08:51:17Z</time>
      </trkpt>
      <trkpt lat="43.71902" lon="6.93538">
        <ele>1126.6</ele>
        <time>2015-11-07T08:51:20Z</time>
      </trkpt>
      <trkpt lat="43.71901" lon="6.93538">
        <ele>1127</ele>
        <time>2015-11-07T08:51:21Z</time>
      </trkpt>
      <trkpt lat="43.719" lon="6.93537">
        <ele>1127.4</ele>
        <time>2015-11-07T08:51:22Z</time>
      </trkpt>
      <trkpt lat="43.71899" lon="6.93537">
        <ele>1127.8</ele>
        <time>2015-11-07T08:51:23Z</time>
      </trkpt>
      <trkpt lat="43.71899" lon="6.93536">
        <ele>1128.2</ele>
        <time>2015-11-07T08:51:24Z</time>
      </trkpt>
      <trkpt lat="43.71897" lon="6.93534">
        <ele>1128.2</ele>
        <time>2015-11-07T08:51:27Z</time>
      </trkpt>
      <trkpt lat="43.71894" lon="6.93531">
        <ele>1128.2</ele>
        <time>2015-11-07T08:51:34Z</time>
      </trkpt>
      <trkpt lat="43.71895" lon="6.9353">
        <ele>1128.2</ele>
        <time>2015-11-07T08:51:45Z</time>
      </trkpt>
      <trkpt lat="43.71896" lon="6.93531">
        <ele>1128.2</ele>
        <time>2015-11-07T08:52:18Z</time>
      </trkpt>
      <trkpt lat="43.7189" lon="6.93523">
        <ele>1128.2</ele>
        <time>2015-11-07T08:52:43Z</time>
      </trkpt>
      <trkpt lat="43.71879" lon="6.93508">
        <ele>1128.2</ele>
        <time>2015-11-07T08:52:50Z</time>
      </trkpt>
      <trkpt lat="43.71868" lon="6.93489">
        <ele>1128.2</ele>
        <time>2015-11-07T08:52:58Z</time>
      </trkpt>
      <trkpt lat="43.7186" lon="6.93472">
        <ele>1128.2</ele>
        <time>2015-11-07T08:53:06Z</time>
      </trkpt>
      <trkpt lat="43.71852" lon="6.93462">
        <ele>1128.2</ele>
        <time>2015-11-07T08:53:12Z</time>
      </trkpt>
      <trkpt lat="43.71843" lon="6.93444">
        <ele>1128.2</ele>
        <time>2015-11-07T08:53:20Z</time>
      </trkpt>
      <trkpt lat="43.71831" lon="6.93422">
        <ele>1128.2</ele>
        <time>2015-11-07T08:53:28Z</time>
      </trkpt>
      <trkpt lat="43.71817" lon="6.93392">
        <ele>1128.2</ele>
        <time>2015-11-07T08:53:34Z</time>
      </trkpt>
      <trkpt lat="43.71804" lon="6.93371">
        <ele>1128.2</ele>
        <time>2015-11-07T08:53:40Z</time>
      </trkpt>
      <trkpt lat="43.71791" lon="6.93354">
        <ele>1128.2</ele>
        <time>2015-11-07T08:53:48Z</time>
      </trkpt>
      <trkpt lat="43.71788" lon="6.93351">
        <ele>1128.6</ele>
        <time>2015-11-07T08:53:50Z</time>
      </trkpt>
      <trkpt lat="43.71785" lon="6.9335">
        <ele>1129.2</ele>
        <time>2015-11-07T08:53:51Z</time>
      </trkpt>
      <trkpt lat="43.71784" lon="6.93348">
        <ele>1129.6</ele>
        <time>2015-11-07T08:53:52Z</time>
      </trkpt>
      <trkpt lat="43.71782" lon="6.93347">
        <ele>1130</ele>
        <time>2015-11-07T08:53:53Z</time>
      </trkpt>
      <trkpt lat="43.7178" lon="6.93346">
        <ele>1130.4</ele>
        <time>2015-11-07T08:53:54Z</time>
      </trkpt>
      <trkpt lat="43.71777" lon="6.93345">
        <ele>1130.4</ele>
        <time>2015-11-07T08:53:56Z</time>
      </trkpt>
      <trkpt lat="43.71769" lon="6.93345">
        <ele>1130.8</ele>
        <time>2015-11-07T08:54:00Z</time>
      </trkpt>
      <trkpt lat="43.71767" lon="6.93345">
        <ele>1131.2</ele>
        <time>2015-11-07T08:54:01Z</time>
      </trkpt>
      <trkpt lat="43.71765" lon="6.93345">
        <ele>1131.6</ele>
        <time>2015-11-07T08:54:02Z</time>
      </trkpt>
      <trkpt lat="43.71763" lon="6.93346">
        <ele>1132</ele>
        <time>2015-11-07T08:54:03Z</time>
      </trkpt>
      <trkpt lat="43.71761" lon="6.93347">
        <ele>1132.4</ele>
        <time>2015-11-07T08:54:04Z</time>
      </trkpt>
      <trkpt lat="43.7176" lon="6.93347">
        <ele>1132.4</ele>
        <time>2015-11-07T08:54:05Z</time>
      </trkpt>
      <trkpt lat="43.71746" lon="6.93354">
        <ele>1133</ele>
        <time>2015-11-07T08:54:13Z</time>
      </trkpt>
      <trkpt lat="43.71744" lon="6.93355">
        <ele>1133.4</ele>
        <time>2015-11-07T08:54:14Z</time>
      </trkpt>
      <trkpt lat="43.71743" lon="6.93356">
        <ele>1133.8</ele>
        <time>2015-11-07T08:54:15Z</time>
      </trkpt>
      <trkpt lat="43.71741" lon="6.93357">
        <ele>1134.2</ele>
        <time>2015-11-07T08:54:16Z</time>
      </trkpt>
      <trkpt lat="43.7174" lon="6.93358">
        <ele>1134.8</ele>
        <time>2015-11-07T08:54:17Z</time>
      </trkpt>
      <trkpt lat="43.71735" lon="6.9336">
        <ele>1134.8</ele>
        <time>2015-11-07T08:54:20Z</time>
      </trkpt>
      <trkpt lat="43.71733" lon="6.9336">
        <ele>1135.2</ele>
        <time>2015-11-07T08:54:21Z</time>
      </trkpt>
      <trkpt lat="43.71731" lon="6.93361">
        <ele>1135.6</ele>
        <time>2015-11-07T08:54:22Z</time>
      </trkpt>
      <trkpt lat="43.7173" lon="6.93362">
        <ele>1136</ele>
        <time>2015-11-07T08:54:23Z</time>
      </trkpt>
      <trkpt lat="43.71729" lon="6.93363">
        <ele>1136.4</ele>
        <time>2015-11-07T08:54:24Z</time>
      </trkpt>
      <trkpt lat="43.71728" lon="6.93363">
        <ele>1136.8</ele>
        <time>2015-11-07T08:54:25Z</time>
      </trkpt>
      <trkpt lat="43.71726" lon="6.93363">
        <ele>1136.8</ele>
        <time>2015-11-07T08:54:27Z</time>
      </trkpt>
      <trkpt lat="43.7172" lon="6.93364">
        <ele>1137.2</ele>
        <time>2015-11-07T08:54:31Z</time>
      </trkpt>
      <trkpt lat="43.71719" lon="6.93364">
        <ele>1137.6</ele>
        <time>2015-11-07T08:54:32Z</time>
      </trkpt>
      <trkpt lat="43.71717" lon="6.93365">
        <ele>1138.2</ele>
        <time>2015-11-07T08:54:33Z</time>
      </trkpt>
      <trkpt lat="43.71716" lon="6.93365">
        <ele>1138.6</ele>
        <time>2015-11-07T08:54:34Z</time>
      </trkpt>
      <trkpt lat="43.71714" lon="6.93365">
        <ele>1139</ele>
        <time>2015-11-07T08:54:35Z</time>
      </trkpt>
      <trkpt lat="43.71713" lon="6.93366">
        <ele>1139</ele>
        <time>2015-11-07T08:54:36Z</time>
      </trkpt>
      <trkpt lat="43.71709" lon="6.93365">
        <ele>1139.4</ele>
        <time>2015-11-07T08:54:39Z</time>
      </trkpt>
      <trkpt lat="43.71707" lon="6.93365">
        <ele>1139.8</ele>
        <time>2015-11-07T08:54:40Z</time>
      </trkpt>
      <trkpt lat="43.71706" lon="6.93366">
        <ele>1140.4</ele>
        <time>2015-11-07T08:54:41Z</time>
      </trkpt>
      <trkpt lat="43.71705" lon="6.93366">
        <ele>1140.8</ele>
        <time>2015-11-07T08:54:42Z</time>
      </trkpt>
      <trkpt lat="43.71703" lon="6.93366">
        <ele>1141.2</ele>
        <time>2015-11-07T08:54:43Z</time>
      </trkpt>
      <trkpt lat="43.71702" lon="6.93367">
        <ele>1141.2</ele>
        <time>2015-11-07T08:54:44Z</time>
      </trkpt>
      <trkpt lat="43.71699" lon="6.93366">
        <ele>1141.6</ele>
        <time>2015-11-07T08:54:46Z</time>
      </trkpt>
      <trkpt lat="43.71698" lon="6.93366">
        <ele>1142</ele>
        <time>2015-11-07T08:54:47Z</time>
      </trkpt>
      <trkpt lat="43.71696" lon="6.93366">
        <ele>1142.4</ele>
        <time>2015-11-07T08:54:48Z</time>
      </trkpt>
      <trkpt lat="43.71694" lon="6.93367">
        <ele>1142.8</ele>
        <time>2015-11-07T08:54:49Z</time>
      </trkpt>
      <trkpt lat="43.71693" lon="6.93367">
        <ele>1143.2</ele>
        <time>2015-11-07T08:54:50Z</time>
      </trkpt>
      <trkpt lat="43.71687" lon="6.93366">
        <ele>1143.2</ele>
        <time>2015-11-07T08:54:55Z</time>
      </trkpt>
      <trkpt lat="43.71684" lon="6.93365">
        <ele>1143.6</ele>
        <time>2015-11-07T08:54:57Z</time>
      </trkpt>
      <trkpt lat="43.71683" lon="6.93365">
        <ele>1144</ele>
        <time>2015-11-07T08:54:58Z</time>
      </trkpt>
      <trkpt lat="43.71682" lon="6.93365">
        <ele>1144.4</ele>
        <time>2015-11-07T08:54:59Z</time>
      </trkpt>
      <trkpt lat="43.7168" lon="6.93364">
        <ele>1144.8</ele>
        <time>2015-11-07T08:55:00Z</time>
      </trkpt>
      <trkpt lat="43.71679" lon="6.93363">
        <ele>1145.2</ele>
        <time>2015-11-07T08:55:01Z</time>
      </trkpt>
      <trkpt lat="43.71676" lon="6.93362">
        <ele>1145.2</ele>
        <time>2015-11-07T08:55:03Z</time>
      </trkpt>
      <trkpt lat="43.71675" lon="6.93361">
        <ele>1145.8</ele>
        <time>2015-11-07T08:55:04Z</time>
      </trkpt>
      <trkpt lat="43.71674" lon="6.9336">
        <ele>1146.2</ele>
        <time>2015-11-07T08:55:05Z</time>
      </trkpt>
      <trkpt lat="43.71673" lon="6.93359">
        <ele>1146.6</ele>
        <time>2015-11-07T08:55:06Z</time>
      </trkpt>
      <trkpt lat="43.71671" lon="6.93359">
        <ele>1147</ele>
        <time>2015-11-07T08:55:07Z</time>
      </trkpt>
      <trkpt lat="43.7167" lon="6.93358">
        <ele>1147.4</ele>
        <time>2015-11-07T08:55:08Z</time>
      </trkpt>
      <trkpt lat="43.71667" lon="6.93356">
        <ele>1147.4</ele>
        <time>2015-11-07T08:55:12Z</time>
      </trkpt>
      <trkpt lat="43.71665" lon="6.93355">
        <ele>1148</ele>
        <time>2015-11-07T08:55:13Z</time>
      </trkpt>
      <trkpt lat="43.71664" lon="6.93354">
        <ele>1148.4</ele>
        <time>2015-11-07T08:55:14Z</time>
      </trkpt>
      <trkpt lat="43.71663" lon="6.93353">
        <ele>1148.8</ele>
        <time>2015-11-07T08:55:15Z</time>
      </trkpt>
      <trkpt lat="43.71661" lon="6.93353">
        <ele>1149.4</ele>
        <time>2015-11-07T08:55:16Z</time>
      </trkpt>
      <trkpt lat="43.7166" lon="6.93352">
        <ele>1149.8</ele>
        <time>2015-11-07T08:55:17Z</time>
      </trkpt>
      <trkpt lat="43.71656" lon="6.9335">
        <ele>1149.8</ele>
        <time>2015-11-07T08:55:19Z</time>
      </trkpt>
      <trkpt lat="43.71654" lon="6.93348">
        <ele>1150.2</ele>
        <time>2015-11-07T08:55:22Z</time>
      </trkpt>
      <trkpt lat="43.71652" lon="6.93346">
        <ele>1150.8</ele>
        <time>2015-11-07T08:55:23Z</time>
      </trkpt>
      <trkpt lat="43.71651" lon="6.93346">
        <ele>1151.2</ele>
        <time>2015-11-07T08:55:24Z</time>
      </trkpt>
      <trkpt lat="43.7165" lon="6.93345">
        <ele>1151.6</ele>
        <time>2015-11-07T08:55:25Z</time>
      </trkpt>
      <trkpt lat="43.71649" lon="6.93345">
        <ele>1152.2</ele>
        <time>2015-11-07T08:55:26Z</time>
      </trkpt>
      <trkpt lat="43.71641" lon="6.93337">
        <ele>1152.6</ele>
        <time>2015-11-07T08:55:33Z</time>
      </trkpt>
      <trkpt lat="43.7164" lon="6.93334">
        <ele>1153</ele>
        <time>2015-11-07T08:55:34Z</time>
      </trkpt>
      <trkpt lat="43.71639" lon="6.93333">
        <ele>1153.6</ele>
        <time>2015-11-07T08:55:35Z</time>
      </trkpt>
      <trkpt lat="43.71639" lon="6.93332">
        <ele>1154</ele>
        <time>2015-11-07T08:55:36Z</time>
      </trkpt>
      <trkpt lat="43.71638" lon="6.93331">
        <ele>1154.4</ele>
        <time>2015-11-07T08:55:37Z</time>
      </trkpt>
      <trkpt lat="43.71635" lon="6.93326">
        <ele>1154.4</ele>
        <time>2015-11-07T08:55:40Z</time>
      </trkpt>
      <trkpt lat="43.71634" lon="6.93325">
        <ele>1155</ele>
        <time>2015-11-07T08:55:41Z</time>
      </trkpt>
      <trkpt lat="43.71633" lon="6.93324">
        <ele>1155.4</ele>
        <time>2015-11-07T08:55:42Z</time>
      </trkpt>
      <trkpt lat="43.71632" lon="6.93322">
        <ele>1155.8</ele>
        <time>2015-11-07T08:55:43Z</time>
      </trkpt>
      <trkpt lat="43.71631" lon="6.93321">
        <ele>1156.2</ele>
        <time>2015-11-07T08:55:44Z</time>
      </trkpt>
      <trkpt lat="43.7163" lon="6.9332">
        <ele>1156.8</ele>
        <time>2015-11-07T08:55:45Z</time>
      </trkpt>
      <trkpt lat="43.71628" lon="6.93315">
        <ele>1156.8</ele>
        <time>2015-11-07T08:55:48Z</time>
      </trkpt>
      <trkpt lat="43.71623" lon="6.93305">
        <ele>1157.2</ele>
        <time>2015-11-07T08:55:53Z</time>
      </trkpt>
      <trkpt lat="43.71623" lon="6.93303">
        <ele>1157.6</ele>
        <time>2015-11-07T08:55:54Z</time>
      </trkpt>
      <trkpt lat="43.71622" lon="6.93302">
        <ele>1158.2</ele>
        <time>2015-11-07T08:55:55Z</time>
      </trkpt>
      <trkpt lat="43.71621" lon="6.933">
        <ele>1158.6</ele>
        <time>2015-11-07T08:55:56Z</time>
      </trkpt>
      <trkpt lat="43.71621" lon="6.93298">
        <ele>1159</ele>
        <time>2015-11-07T08:55:57Z</time>
      </trkpt>
      <trkpt lat="43.7162" lon="6.93296">
        <ele>1159</ele>
        <time>2015-11-07T08:55:58Z</time>
      </trkpt>
      <trkpt lat="43.71616" lon="6.93285">
        <ele>1159.6</ele>
        <time>2015-11-07T08:56:05Z</time>
      </trkpt>
      <trkpt lat="43.71616" lon="6.93282">
        <ele>1160</ele>
        <time>2015-11-07T08:56:06Z</time>
      </trkpt>
      <trkpt lat="43.71615" lon="6.93281">
        <ele>1160.4</ele>
        <time>2015-11-07T08:56:07Z</time>
      </trkpt>
      <trkpt lat="43.71615" lon="6.93279">
        <ele>1160.8</ele>
        <time>2015-11-07T08:56:08Z</time>
      </trkpt>
      <trkpt lat="43.71614" lon="6.93277">
        <ele>1161.2</ele>
        <time>2015-11-07T08:56:09Z</time>
      </trkpt>
      <trkpt lat="43.71612" lon="6.93267">
        <ele>1161.8</ele>
        <time>2015-11-07T08:56:15Z</time>
      </trkpt>
      <trkpt lat="43.71611" lon="6.93265">
        <ele>1162.2</ele>
        <time>2015-11-07T08:56:16Z</time>
      </trkpt>
      <trkpt lat="43.71611" lon="6.93264">
        <ele>1162.6</ele>
        <time>2015-11-07T08:56:17Z</time>
      </trkpt>
      <trkpt lat="43.71611" lon="6.93262">
        <ele>1163</ele>
        <time>2015-11-07T08:56:18Z</time>
      </trkpt>
      <trkpt lat="43.71611" lon="6.9326">
        <ele>1163.4</ele>
        <time>2015-11-07T08:56:19Z</time>
      </trkpt>
      <trkpt lat="43.71611" lon="6.93252">
        <ele>1164</ele>
        <time>2015-11-07T08:56:23Z</time>
      </trkpt>
      <trkpt lat="43.71611" lon="6.9325">
        <ele>1164.4</ele>
        <time>2015-11-07T08:56:24Z</time>
      </trkpt>
      <trkpt lat="43.71611" lon="6.93248">
        <ele>1164.8</ele>
        <time>2015-11-07T08:56:25Z</time>
      </trkpt>
      <trkpt lat="43.71611" lon="6.93247">
        <ele>1165.2</ele>
        <time>2015-11-07T08:56:26Z</time>
      </trkpt>
      <trkpt lat="43.71611" lon="6.93245">
        <ele>1165.8</ele>
        <time>2015-11-07T08:56:27Z</time>
      </trkpt>
      <trkpt lat="43.7161" lon="6.93233">
        <ele>1166.2</ele>
        <time>2015-11-07T08:56:34Z</time>
      </trkpt>
      <trkpt lat="43.7161" lon="6.93232">
        <ele>1166.6</ele>
        <time>2015-11-07T08:56:35Z</time>
      </trkpt>
      <trkpt lat="43.7161" lon="6.9323">
        <ele>1167</ele>
        <time>2015-11-07T08:56:36Z</time>
      </trkpt>
      <trkpt lat="43.71609" lon="6.93228">
        <ele>1167.4</ele>
        <time>2015-11-07T08:56:37Z</time>
      </trkpt>
      <trkpt lat="43.7161" lon="6.93227">
        <ele>1167.8</ele>
        <time>2015-11-07T08:56:38Z</time>
      </trkpt>
      <trkpt lat="43.7161" lon="6.9322">
        <ele>1168.2</ele>
        <time>2015-11-07T08:56:42Z</time>
      </trkpt>
      <trkpt lat="43.7161" lon="6.93218">
        <ele>1168.6</ele>
        <time>2015-11-07T08:56:43Z</time>
      </trkpt>
      <trkpt lat="43.7161" lon="6.93216">
        <ele>1169</ele>
        <time>2015-11-07T08:56:44Z</time>
      </trkpt>
      <trkpt lat="43.7161" lon="6.93214">
        <ele>1169.6</ele>
        <time>2015-11-07T08:56:45Z</time>
      </trkpt>
      <trkpt lat="43.7161" lon="6.93213">
        <ele>1170</ele>
        <time>2015-11-07T08:56:46Z</time>
      </trkpt>
      <trkpt lat="43.71611" lon="6.93209">
        <ele>1170</ele>
        <time>2015-11-07T08:56:48Z</time>
      </trkpt>
      <trkpt lat="43.71611" lon="6.93203">
        <ele>1170.4</ele>
        <time>2015-11-07T08:56:51Z</time>
      </trkpt>
      <trkpt lat="43.7161" lon="6.93201">
        <ele>1171</ele>
        <time>2015-11-07T08:56:52Z</time>
      </trkpt>
      <trkpt lat="43.7161" lon="6.93198">
        <ele>1171.4</ele>
        <time>2015-11-07T08:56:53Z</time>
      </trkpt>
      <trkpt lat="43.7161" lon="6.93196">
        <ele>1171.8</ele>
        <time>2015-11-07T08:56:54Z</time>
      </trkpt>
      <trkpt lat="43.71611" lon="6.93195">
        <ele>1172.4</ele>
        <time>2015-11-07T08:56:55Z</time>
      </trkpt>
      <trkpt lat="43.71611" lon="6.93192">
        <ele>1172.4</ele>
        <time>2015-11-07T08:56:57Z</time>
      </trkpt>
      <trkpt lat="43.71611" lon="6.93183">
        <ele>1172.8</ele>
        <time>2015-11-07T08:57:02Z</time>
      </trkpt>
      <trkpt lat="43.71611" lon="6.93181">
        <ele>1173.2</ele>
        <time>2015-11-07T08:57:03Z</time>
      </trkpt>
      <trkpt lat="43.71611" lon="6.93179">
        <ele>1173.6</ele>
        <time>2015-11-07T08:57:04Z</time>
      </trkpt>
      <trkpt lat="43.71611" lon="6.93178">
        <ele>1174.2</ele>
        <time>2015-11-07T08:57:05Z</time>
      </trkpt>
      <trkpt lat="43.71611" lon="6.93176">
        <ele>1174.6</ele>
        <time>2015-11-07T08:57:06Z</time>
      </trkpt>
      <trkpt lat="43.71611" lon="6.93173">
        <ele>1174.6</ele>
        <time>2015-11-07T08:57:08Z</time>
      </trkpt>
      <trkpt lat="43.71611" lon="6.93167">
        <ele>1175</ele>
        <time>2015-11-07T08:57:11Z</time>
      </trkpt>
      <trkpt lat="43.71611" lon="6.93165">
        <ele>1175.4</ele>
        <time>2015-11-07T08:57:12Z</time>
      </trkpt>
      <trkpt lat="43.71611" lon="6.93163">
        <ele>1175.8</ele>
        <time>2015-11-07T08:57:13Z</time>
      </trkpt>
      <trkpt lat="43.71611" lon="6.93161">
        <ele>1176.2</ele>
        <time>2015-11-07T08:57:14Z</time>
      </trkpt>
      <trkpt lat="43.71611" lon="6.93159">
        <ele>1176.6</ele>
        <time>2015-11-07T08:57:15Z</time>
      </trkpt>
      <trkpt lat="43.71611" lon="6.93157">
        <ele>1176.6</ele>
        <time>2015-11-07T08:57:16Z</time>
      </trkpt>
      <trkpt lat="43.71612" lon="6.93152">
        <ele>1177.2</ele>
        <time>2015-11-07T08:57:19Z</time>
      </trkpt>
      <trkpt lat="43.71612" lon="6.93151">
        <ele>1177.6</ele>
        <time>2015-11-07T08:57:20Z</time>
      </trkpt>
      <trkpt lat="43.71611" lon="6.93148">
        <ele>1178</ele>
        <time>2015-11-07T08:57:21Z</time>
      </trkpt>
      <trkpt lat="43.71611" lon="6.93147">
        <ele>1178.6</ele>
        <time>2015-11-07T08:57:22Z</time>
      </trkpt>
      <trkpt lat="43.71611" lon="6.93145">
        <ele>1179</ele>
        <time>2015-11-07T08:57:23Z</time>
      </trkpt>
      <trkpt lat="43.7161" lon="6.93143">
        <ele>1179</ele>
        <time>2015-11-07T08:57:25Z</time>
      </trkpt>
      <trkpt lat="43.71609" lon="6.93135">
        <ele>1179.4</ele>
        <time>2015-11-07T08:57:29Z</time>
      </trkpt>
      <trkpt lat="43.71609" lon="6.93132">
        <ele>1179.8</ele>
        <time>2015-11-07T08:57:30Z</time>
      </trkpt>
      <trkpt lat="43.71609" lon="6.9313">
        <ele>1180.2</ele>
        <time>2015-11-07T08:57:31Z</time>
      </trkpt>
      <trkpt lat="43.71609" lon="6.93128">
        <ele>1180.6</ele>
        <time>2015-11-07T08:57:32Z</time>
      </trkpt>
      <trkpt lat="43.71608" lon="6.93126">
        <ele>1181</ele>
        <time>2015-11-07T08:57:33Z</time>
      </trkpt>
      <trkpt lat="43.71607" lon="6.9312">
        <ele>1181.4</ele>
        <time>2015-11-07T08:57:37Z</time>
      </trkpt>
      <trkpt lat="43.71607" lon="6.93117">
        <ele>1182</ele>
        <time>2015-11-07T08:57:38Z</time>
      </trkpt>
      <trkpt lat="43.71607" lon="6.93116">
        <ele>1182.4</ele>
        <time>2015-11-07T08:57:39Z</time>
      </trkpt>
      <trkpt lat="43.71607" lon="6.93114">
        <ele>1182.8</ele>
        <time>2015-11-07T08:57:40Z</time>
      </trkpt>
      <trkpt lat="43.71606" lon="6.93112">
        <ele>1183.2</ele>
        <time>2015-11-07T08:57:41Z</time>
      </trkpt>
      <trkpt lat="43.71604" lon="6.93104">
        <ele>1183.6</ele>
        <time>2015-11-07T08:57:46Z</time>
      </trkpt>
      <trkpt lat="43.71603" lon="6.93102">
        <ele>1184.2</ele>
        <time>2015-11-07T08:57:47Z</time>
      </trkpt>
      <trkpt lat="43.71603" lon="6.931">
        <ele>1184.6</ele>
        <time>2015-11-07T08:57:48Z</time>
      </trkpt>
      <trkpt lat="43.71602" lon="6.93099">
        <ele>1185</ele>
        <time>2015-11-07T08:57:49Z</time>
      </trkpt>
      <trkpt lat="43.71602" lon="6.93097">
        <ele>1185.4</ele>
        <time>2015-11-07T08:57:50Z</time>
      </trkpt>
      <trkpt lat="43.71598" lon="6.9309">
        <ele>1186</ele>
        <time>2015-11-07T08:57:55Z</time>
      </trkpt>
      <trkpt lat="43.71598" lon="6.93088">
        <ele>1186.4</ele>
        <time>2015-11-07T08:57:56Z</time>
      </trkpt>
      <trkpt lat="43.71597" lon="6.93086">
        <ele>1186.8</ele>
        <time>2015-11-07T08:57:57Z</time>
      </trkpt>
      <trkpt lat="43.71597" lon="6.93084">
        <ele>1187.2</ele>
        <time>2015-11-07T08:57:58Z</time>
      </trkpt>
      <trkpt lat="43.71596" lon="6.93082">
        <ele>1187.8</ele>
        <time>2015-11-07T08:57:59Z</time>
      </trkpt>
      <trkpt lat="43.71596" lon="6.9308">
        <ele>1187.8</ele>
        <time>2015-11-07T08:58:00Z</time>
      </trkpt>
      <trkpt lat="43.71591" lon="6.93065">
        <ele>1188.2</ele>
        <time>2015-11-07T08:58:08Z</time>
      </trkpt>
      <trkpt lat="43.71591" lon="6.93063">
        <ele>1188.6</ele>
        <time>2015-11-07T08:58:09Z</time>
      </trkpt>
      <trkpt lat="43.7159" lon="6.93061">
        <ele>1189</ele>
        <time>2015-11-07T08:58:10Z</time>
      </trkpt>
      <trkpt lat="43.71589" lon="6.93059">
        <ele>1189.6</ele>
        <time>2015-11-07T08:58:11Z</time>
      </trkpt>
      <trkpt lat="43.71589" lon="6.93057">
        <ele>1190</ele>
        <time>2015-11-07T08:58:12Z</time>
      </trkpt>
      <trkpt lat="43.71581" lon="6.93047">
        <ele>1190</ele>
        <time>2015-11-07T08:58:19Z</time>
      </trkpt>
      <trkpt lat="43.71575" lon="6.93045">
        <ele>1190.4</ele>
        <time>2015-11-07T08:58:23Z</time>
      </trkpt>
      <trkpt lat="43.71574" lon="6.93045">
        <ele>1190.8</ele>
        <time>2015-11-07T08:58:24Z</time>
      </trkpt>
      <trkpt lat="43.71573" lon="6.93044">
        <ele>1191.2</ele>
        <time>2015-11-07T08:58:25Z</time>
      </trkpt>
      <trkpt lat="43.71571" lon="6.93044">
        <ele>1191.6</ele>
        <time>2015-11-07T08:58:26Z</time>
      </trkpt>
      <trkpt lat="43.7157" lon="6.93043">
        <ele>1192</ele>
        <time>2015-11-07T08:58:27Z</time>
      </trkpt>
      <trkpt lat="43.71558" lon="6.93046">
        <ele>1192</ele>
        <time>2015-11-07T08:58:34Z</time>
      </trkpt>
      <trkpt lat="43.71545" lon="6.93055">
        <ele>1192</ele>
        <time>2015-11-07T08:58:40Z</time>
      </trkpt>
      <trkpt lat="43.71536" lon="6.93068">
        <ele>1192</ele>
        <time>2015-11-07T08:58:45Z</time>
      </trkpt>
      <trkpt lat="43.71539" lon="6.93083">
        <ele>1192</ele>
        <time>2015-11-07T08:58:51Z</time>
      </trkpt>
      <trkpt lat="43.71543" lon="6.93094">
        <ele>1192</ele>
        <time>2015-11-07T08:58:57Z</time>
      </trkpt>
      <trkpt lat="43.71544" lon="6.93095">
        <ele>1192</ele>
        <time>2015-11-07T08:59:04Z</time>
      </trkpt>
      <trkpt lat="43.71545" lon="6.93095">
        <ele>1192.4</ele>
        <time>2015-11-07T08:59:47Z</time>
      </trkpt>
      <trkpt lat="43.71545" lon="6.93095">
        <ele>1192.8</ele>
        <time>2015-11-07T08:59:48Z</time>
      </trkpt>
      <trkpt lat="43.71545" lon="6.93095">
        <ele>1193.2</ele>
        <time>2015-11-07T08:59:49Z</time>
      </trkpt>
      <trkpt lat="43.71545" lon="6.93095">
        <ele>1193.6</ele>
        <time>2015-11-07T08:59:50Z</time>
      </trkpt>
      <trkpt lat="43.71545" lon="6.93095">
        <ele>1194</ele>
        <time>2015-11-07T08:59:51Z</time>
      </trkpt>
      <trkpt lat="43.71545" lon="6.93095">
        <ele>1194</ele>
        <time>2015-11-07T08:59:53Z</time>
      </trkpt>
      <trkpt lat="43.71545" lon="6.93095">
        <ele>1194</ele>
        <time>2015-11-07T09:01:42Z</time>
      </trkpt>
      <trkpt lat="43.71545" lon="6.93096">
        <ele>1194</ele>
        <time>2015-11-07T09:03:13Z</time>
      </trkpt>
      <trkpt lat="43.71545" lon="6.93096">
        <ele>1194.4</ele>
        <time>2015-11-07T09:04:44Z</time>
      </trkpt>
      <trkpt lat="43.71545" lon="6.93096">
        <ele>1194.8</ele>
        <time>2015-11-07T09:04:45Z</time>
      </trkpt>
      <trkpt lat="43.71545" lon="6.93096">
        <ele>1195.2</ele>
        <time>2015-11-07T09:04:46Z</time>
      </trkpt>
      <trkpt lat="43.71545" lon="6.93096">
        <ele>1195.8</ele>
        <time>2015-11-07T09:04:47Z</time>
      </trkpt>
      <trkpt lat="43.71545" lon="6.93096">
        <ele>1196.2</ele>
        <time>2015-11-07T09:04:48Z</time>
      </trkpt>
      <trkpt lat="43.71545" lon="6.93096">
        <ele>1196.2</ele>
        <time>2015-11-07T09:05:01Z</time>
      </trkpt>
      <trkpt lat="43.71545" lon="6.93096">
        <ele>1196.2</ele>
        <time>2015-11-07T09:06:59Z</time>
      </trkpt>
      <trkpt lat="43.71544" lon="6.93095">
        <ele>1196.6</ele>
        <time>2015-11-07T09:13:13Z</time>
      </trkpt>
      <trkpt lat="43.71544" lon="6.93095">
        <ele>1197</ele>
        <time>2015-11-07T09:13:14Z</time>
      </trkpt>
      <trkpt lat="43.71544" lon="6.93095">
        <ele>1197.4</ele>
        <time>2015-11-07T09:13:15Z</time>
      </trkpt>
      <trkpt lat="43.71544" lon="6.93095">
        <ele>1197.8</ele>
        <time>2015-11-07T09:13:16Z</time>
      </trkpt>
      <trkpt lat="43.71544" lon="6.93095">
        <ele>1198.2</ele>
        <time>2015-11-07T09:13:17Z</time>
      </trkpt>
      <trkpt lat="43.71538" lon="6.9308">
        <ele>1198.2</ele>
        <time>2015-11-07T09:13:33Z</time>
      </trkpt>
      <trkpt lat="43.71535" lon="6.93054">
        <ele>1197.8</ele>
        <time>2015-11-07T09:13:41Z</time>
      </trkpt>
      <trkpt lat="43.71534" lon="6.93052">
        <ele>1197.4</ele>
        <time>2015-11-07T09:13:42Z</time>
      </trkpt>
      <trkpt lat="43.71534" lon="6.93049">
        <ele>1197</ele>
        <time>2015-11-07T09:13:43Z</time>
      </trkpt>
      <trkpt lat="43.71533" lon="6.93046">
        <ele>1196.6</ele>
        <time>2015-11-07T09:13:44Z</time>
      </trkpt>
      <trkpt lat="43.71533" lon="6.93044">
        <ele>1196.2</ele>
        <time>2015-11-07T09:13:45Z</time>
      </trkpt>
      <trkpt lat="43.71532" lon="6.93042">
        <ele>1196.2</ele>
        <time>2015-11-07T09:13:48Z</time>
      </trkpt>
      <trkpt lat="43.71531" lon="6.93038">
        <ele>1195.8</ele>
        <time>2015-11-07T09:13:50Z</time>
      </trkpt>
      <trkpt lat="43.7153" lon="6.93036">
        <ele>1195.2</ele>
        <time>2015-11-07T09:13:51Z</time>
      </trkpt>
      <trkpt lat="43.7153" lon="6.93035">
        <ele>1194.6</ele>
        <time>2015-11-07T09:13:52Z</time>
      </trkpt>
      <trkpt lat="43.71529" lon="6.93034">
        <ele>1194.2</ele>
        <time>2015-11-07T09:13:53Z</time>
      </trkpt>
      <trkpt lat="43.71528" lon="6.93035">
        <ele>1193.6</ele>
        <time>2015-11-07T09:13:54Z</time>
      </trkpt>
      <trkpt lat="43.71528" lon="6.93036">
        <ele>1193.6</ele>
        <time>2015-11-07T09:13:58Z</time>
      </trkpt>
      <trkpt lat="43.71525" lon="6.93038">
        <ele>1193.6</ele>
        <time>2015-11-07T09:14:02Z</time>
      </trkpt>
      <trkpt lat="43.71522" lon="6.93039">
        <ele>1193.2</ele>
        <time>2015-11-07T09:14:03Z</time>
      </trkpt>
      <trkpt lat="43.71519" lon="6.93041">
        <ele>1192.8</ele>
        <time>2015-11-07T09:14:04Z</time>
      </trkpt>
      <trkpt lat="43.71515" lon="6.93042">
        <ele>1192.2</ele>
        <time>2015-11-07T09:14:05Z</time>
      </trkpt>
      <trkpt lat="43.71511" lon="6.93044">
        <ele>1191.4</ele>
        <time>2015-11-07T09:14:06Z</time>
      </trkpt>
      <trkpt lat="43.71506" lon="6.93046">
        <ele>1190.6</ele>
        <time>2015-11-07T09:14:07Z</time>
      </trkpt>
      <trkpt lat="43.71504" lon="6.9305">
        <ele>1189.8</ele>
        <time>2015-11-07T09:14:08Z</time>
      </trkpt>
      <trkpt lat="43.71501" lon="6.93053">
        <ele>1189.2</ele>
        <time>2015-11-07T09:14:09Z</time>
      </trkpt>
      <trkpt lat="43.71498" lon="6.93057">
        <ele>1188.4</ele>
        <time>2015-11-07T09:14:10Z</time>
      </trkpt>
      <trkpt lat="43.71495" lon="6.93063">
        <ele>1187.6</ele>
        <time>2015-11-07T09:14:11Z</time>
      </trkpt>
      <trkpt lat="43.71492" lon="6.93069">
        <ele>1186.8</ele>
        <time>2015-11-07T09:14:12Z</time>
      </trkpt>
      <trkpt lat="43.71488" lon="6.93075">
        <ele>1186.8</ele>
        <time>2015-11-07T09:14:13Z</time>
      </trkpt>
      <trkpt lat="43.71485" lon="6.93079">
        <ele>1186.4</ele>
        <time>2015-11-07T09:14:14Z</time>
      </trkpt>
      <trkpt lat="43.71482" lon="6.93082">
        <ele>1186</ele>
        <time>2015-11-07T09:14:15Z</time>
      </trkpt>
      <trkpt lat="43.71478" lon="6.93085">
        <ele>1185.2</ele>
        <time>2015-11-07T09:14:16Z</time>
      </trkpt>
      <trkpt lat="43.71473" lon="6.93087">
        <ele>1184.6</ele>
        <time>2015-11-07T09:14:17Z</time>
      </trkpt>
      <trkpt lat="43.71468" lon="6.93091">
        <ele>1183.6</ele>
        <time>2015-11-07T09:14:18Z</time>
      </trkpt>
      <trkpt lat="43.71463" lon="6.93094">
        <ele>1182.8</ele>
        <time>2015-11-07T09:14:19Z</time>
      </trkpt>
      <trkpt lat="43.71459" lon="6.93096">
        <ele>1181.8</ele>
        <time>2015-11-07T09:14:20Z</time>
      </trkpt>
      <trkpt lat="43.71455" lon="6.93097">
        <ele>1180.8</ele>
        <time>2015-11-07T09:14:21Z</time>
      </trkpt>
      <trkpt lat="43.71451" lon="6.93097">
        <ele>1179.8</ele>
        <time>2015-11-07T09:14:22Z</time>
      </trkpt>
      <trkpt lat="43.71446" lon="6.93097">
        <ele>1178.6</ele>
        <time>2015-11-07T09:14:23Z</time>
      </trkpt>
      <trkpt lat="43.71442" lon="6.93096">
        <ele>1177.6</ele>
        <time>2015-11-07T09:14:24Z</time>
      </trkpt>
      <trkpt lat="43.71438" lon="6.93096">
        <ele>1177.6</ele>
        <time>2015-11-07T09:14:25Z</time>
      </trkpt>
      <trkpt lat="43.71434" lon="6.93097">
        <ele>1175.8</ele>
        <time>2015-11-07T09:14:26Z</time>
      </trkpt>
      <trkpt lat="43.71429" lon="6.93101">
        <ele>1175.8</ele>
        <time>2015-11-07T09:14:27Z</time>
      </trkpt>
      <trkpt lat="43.71425" lon="6.93105">
        <ele>1174.8</ele>
        <time>2015-11-07T09:14:28Z</time>
      </trkpt>
      <trkpt lat="43.71422" lon="6.93109">
        <ele>1173.8</ele>
        <time>2015-11-07T09:14:29Z</time>
      </trkpt>
      <trkpt lat="43.71419" lon="6.93113">
        <ele>1172.8</ele>
        <time>2015-11-07T09:14:30Z</time>
      </trkpt>
      <trkpt lat="43.71416" lon="6.93117">
        <ele>1172</ele>
        <time>2015-11-07T09:14:31Z</time>
      </trkpt>
      <trkpt lat="43.71414" lon="6.9312">
        <ele>1171</ele>
        <time>2015-11-07T09:14:32Z</time>
      </trkpt>
      <trkpt lat="43.71412" lon="6.93125">
        <ele>1170.2</ele>
        <time>2015-11-07T09:14:33Z</time>
      </trkpt>
      <trkpt lat="43.71412" lon="6.9313">
        <ele>1169.4</ele>
        <time>2015-11-07T09:14:34Z</time>
      </trkpt>
      <trkpt lat="43.71412" lon="6.93135">
        <ele>1168.6</ele>
        <time>2015-11-07T09:14:35Z</time>
      </trkpt>
      <trkpt lat="43.71414" lon="6.9314">
        <ele>1167.8</ele>
        <time>2015-11-07T09:14:36Z</time>
      </trkpt>
      <trkpt lat="43.71416" lon="6.93146">
        <ele>1167</ele>
        <time>2015-11-07T09:14:37Z</time>
      </trkpt>
      <trkpt lat="43.71418" lon="6.93151">
        <ele>1166.2</ele>
        <time>2015-11-07T09:14:38Z</time>
      </trkpt>
      <trkpt lat="43.7142" lon="6.93156">
        <ele>1166.2</ele>
        <time>2015-11-07T09:14:39Z</time>
      </trkpt>
      <trkpt lat="43.71422" lon="6.93162">
        <ele>1165.8</ele>
        <time>2015-11-07T09:14:40Z</time>
      </trkpt>
      <trkpt lat="43.71425" lon="6.93169">
        <ele>1165.4</ele>
        <time>2015-11-07T09:14:41Z</time>
      </trkpt>
      <trkpt lat="43.71428" lon="6.93176">
        <ele>1164.8</ele>
        <time>2015-11-07T09:14:42Z</time>
      </trkpt>
      <trkpt lat="43.71431" lon="6.93183">
        <ele>1164.4</ele>
        <time>2015-11-07T09:14:43Z</time>
      </trkpt>
      <trkpt lat="43.71434" lon="6.93189">
        <ele>1164</ele>
        <time>2015-11-07T09:14:44Z</time>
      </trkpt>
      <trkpt lat="43.71451" lon="6.93212">
        <ele>1163.6</ele>
        <time>2015-11-07T09:14:49Z</time>
      </trkpt>
      <trkpt lat="43.71454" lon="6.93217">
        <ele>1163.2</ele>
        <time>2015-11-07T09:14:50Z</time>
      </trkpt>
      <trkpt lat="43.71458" lon="6.93222">
        <ele>1162.8</ele>
        <time>2015-11-07T09:14:51Z</time>
      </trkpt>
      <trkpt lat="43.7146" lon="6.93228">
        <ele>1162.2</ele>
        <time>2015-11-07T09:14:52Z</time>
      </trkpt>
      <trkpt lat="43.71464" lon="6.93235">
        <ele>1161.8</ele>
        <time>2015-11-07T09:14:53Z</time>
      </trkpt>
      <trkpt lat="43.71471" lon="6.93244">
        <ele>1161.8</ele>
        <time>2015-11-07T09:14:55Z</time>
      </trkpt>
      <trkpt lat="43.71485" lon="6.9326">
        <ele>1161.4</ele>
        <time>2015-11-07T09:14:59Z</time>
      </trkpt>
      <trkpt lat="43.71488" lon="6.93264">
        <ele>1161</ele>
        <time>2015-11-07T09:15:00Z</time>
      </trkpt>
      <trkpt lat="43.71491" lon="6.93267">
        <ele>1160.4</ele>
        <time>2015-11-07T09:15:01Z</time>
      </trkpt>
      <trkpt lat="43.71495" lon="6.93269">
        <ele>1160</ele>
        <time>2015-11-07T09:15:02Z</time>
      </trkpt>
      <trkpt lat="43.71498" lon="6.9327">
        <ele>1159.4</ele>
        <time>2015-11-07T09:15:03Z</time>
      </trkpt>
      <trkpt lat="43.71501" lon="6.93269">
        <ele>1159.4</ele>
        <time>2015-11-07T09:15:04Z</time>
      </trkpt>
      <trkpt lat="43.71512" lon="6.93274">
        <ele>1159.4</ele>
        <time>2015-11-07T09:15:08Z</time>
      </trkpt>
      <trkpt lat="43.71529" lon="6.93287">
        <ele>1159.4</ele>
        <time>2015-11-07T09:15:13Z</time>
      </trkpt>
      <trkpt lat="43.71532" lon="6.93291">
        <ele>1159.4</ele>
        <time>2015-11-07T09:15:14Z</time>
      </trkpt>
      <trkpt lat="43.71534" lon="6.93295">
        <ele>1159</ele>
        <time>2015-11-07T09:15:15Z</time>
      </trkpt>
      <trkpt lat="43.71535" lon="6.93299">
        <ele>1158.4</ele>
        <time>2015-11-07T09:15:16Z</time>
      </trkpt>
      <trkpt lat="43.71537" lon="6.93305">
        <ele>1158</ele>
        <time>2015-11-07T09:15:17Z</time>
      </trkpt>
      <trkpt lat="43.71538" lon="6.9331">
        <ele>1157.2</ele>
        <time>2015-11-07T09:15:18Z</time>
      </trkpt>
      <trkpt lat="43.71539" lon="6.93313">
        <ele>1156.6</ele>
        <time>2015-11-07T09:15:19Z</time>
      </trkpt>
      <trkpt lat="43.71541" lon="6.93316">
        <ele>1155.8</ele>
        <time>2015-11-07T09:15:20Z</time>
      </trkpt>
      <trkpt lat="43.71544" lon="6.93317">
        <ele>1155</ele>
        <time>2015-11-07T09:15:21Z</time>
      </trkpt>
      <trkpt lat="43.71547" lon="6.93314">
        <ele>1154.4</ele>
        <time>2015-11-07T09:15:22Z</time>
      </trkpt>
      <trkpt lat="43.71563" lon="6.93327">
        <ele>1154.4</ele>
        <time>2015-11-07T09:15:29Z</time>
      </trkpt>
      <trkpt lat="43.71578" lon="6.93342">
        <ele>1154.4</ele>
        <time>2015-11-07T09:15:34Z</time>
      </trkpt>
      <trkpt lat="43.71598" lon="6.93375">
        <ele>1154.4</ele>
        <time>2015-11-07T09:15:40Z</time>
      </trkpt>
      <trkpt lat="43.71603" lon="6.93378">
        <ele>1154.4</ele>
        <time>2015-11-07T09:15:41Z</time>
      </trkpt>
      <trkpt lat="43.71611" lon="6.93382">
        <ele>1154.4</ele>
        <time>2015-11-07T09:15:43Z</time>
      </trkpt>
      <trkpt lat="43.7162" lon="6.93383">
        <ele>1154.4</ele>
        <time>2015-11-07T09:15:46Z</time>
      </trkpt>
      <trkpt lat="43.71623" lon="6.93384">
        <ele>1154.4</ele>
        <time>2015-11-07T09:15:47Z</time>
      </trkpt>
      <trkpt lat="43.71633" lon="6.93391">
        <ele>1154.4</ele>
        <time>2015-11-07T09:15:53Z</time>
      </trkpt>
      <trkpt lat="43.71639" lon="6.93396">
        <ele>1153.8</ele>
        <time>2015-11-07T09:15:57Z</time>
      </trkpt>
      <trkpt lat="43.71643" lon="6.93398">
        <ele>1153.4</ele>
        <time>2015-11-07T09:15:58Z</time>
      </trkpt>
      <trkpt lat="43.71644" lon="6.93401">
        <ele>1152.8</ele>
        <time>2015-11-07T09:15:59Z</time>
      </trkpt>
      <trkpt lat="43.71646" lon="6.93405">
        <ele>1152.4</ele>
        <time>2015-11-07T09:16:00Z</time>
      </trkpt>
      <trkpt lat="43.71646" lon="6.93406">
        <ele>1151.6</ele>
        <time>2015-11-07T09:16:01Z</time>
      </trkpt>
      <trkpt lat="43.71646" lon="6.93409">
        <ele>1151</ele>
        <time>2015-11-07T09:16:02Z</time>
      </trkpt>
      <trkpt lat="43.71647" lon="6.93411">
        <ele>1150.4</ele>
        <time>2015-11-07T09:16:03Z</time>
      </trkpt>
      <trkpt lat="43.71647" lon="6.93414">
        <ele>1149.8</ele>
        <time>2015-11-07T09:16:04Z</time>
      </trkpt>
      <trkpt lat="43.71649" lon="6.93416">
        <ele>1149</ele>
        <time>2015-11-07T09:16:05Z</time>
      </trkpt>
      <trkpt lat="43.7165" lon="6.93418">
        <ele>1148.4</ele>
        <time>2015-11-07T09:16:06Z</time>
      </trkpt>
      <trkpt lat="43.71651" lon="6.93419">
        <ele>1147.6</ele>
        <time>2015-11-07T09:16:07Z</time>
      </trkpt>
      <trkpt lat="43.71653" lon="6.93421">
        <ele>1147</ele>
        <time>2015-11-07T09:16:08Z</time>
      </trkpt>
      <trkpt lat="43.71656" lon="6.93419">
        <ele>1146.4</ele>
        <time>2015-11-07T09:16:09Z</time>
      </trkpt>
      <trkpt lat="43.71658" lon="6.93419">
        <ele>1146</ele>
        <time>2015-11-07T09:16:10Z</time>
      </trkpt>
      <trkpt lat="43.7166" lon="6.93417">
        <ele>1145.4</ele>
        <time>2015-11-07T09:16:11Z</time>
      </trkpt>
      <trkpt lat="43.71663" lon="6.93417">
        <ele>1144.8</ele>
        <time>2015-11-07T09:16:12Z</time>
      </trkpt>
      <trkpt lat="43.71672" lon="6.93415">
        <ele>1144.4</ele>
        <time>2015-11-07T09:16:15Z</time>
      </trkpt>
      <trkpt lat="43.71674" lon="6.93417">
        <ele>1144</ele>
        <time>2015-11-07T09:16:16Z</time>
      </trkpt>
      <trkpt lat="43.71678" lon="6.93415">
        <ele>1143.6</ele>
        <time>2015-11-07T09:16:17Z</time>
      </trkpt>
      <trkpt lat="43.71682" lon="6.93414">
        <ele>1143.2</ele>
        <time>2015-11-07T09:16:18Z</time>
      </trkpt>
      <trkpt lat="43.71685" lon="6.93413">
        <ele>1142.6</ele>
        <time>2015-11-07T09:16:19Z</time>
      </trkpt>
      <trkpt lat="43.7169" lon="6.93411">
        <ele>1142.2</ele>
        <time>2015-11-07T09:16:20Z</time>
      </trkpt>
      <trkpt lat="43.71694" lon="6.93409">
        <ele>1141.8</ele>
        <time>2015-11-07T09:16:21Z</time>
      </trkpt>
      <trkpt lat="43.71698" lon="6.93407">
        <ele>1141.4</ele>
        <time>2015-11-07T09:16:22Z</time>
      </trkpt>
      <trkpt lat="43.71704" lon="6.93403">
        <ele>1141</ele>
        <time>2015-11-07T09:16:23Z</time>
      </trkpt>
      <trkpt lat="43.71707" lon="6.93401">
        <ele>1140.6</ele>
        <time>2015-11-07T09:16:24Z</time>
      </trkpt>
      <trkpt lat="43.7172" lon="6.93396">
        <ele>1140.6</ele>
        <time>2015-11-07T09:16:28Z</time>
      </trkpt>
      <trkpt lat="43.71726" lon="6.93394">
        <ele>1140.6</ele>
        <time>2015-11-07T09:16:29Z</time>
      </trkpt>
      <trkpt lat="43.71731" lon="6.93392">
        <ele>1140.2</ele>
        <time>2015-11-07T09:16:30Z</time>
      </trkpt>
      <trkpt lat="43.71734" lon="6.93391">
        <ele>1139.8</ele>
        <time>2015-11-07T09:16:31Z</time>
      </trkpt>
      <trkpt lat="43.71738" lon="6.93392">
        <ele>1139.8</ele>
        <time>2015-11-07T09:16:32Z</time>
      </trkpt>
      <trkpt lat="43.71743" lon="6.93392">
        <ele>1139</ele>
        <time>2015-11-07T09:16:33Z</time>
      </trkpt>
      <trkpt lat="43.71746" lon="6.93391">
        <ele>1138.4</ele>
        <time>2015-11-07T09:16:34Z</time>
      </trkpt>
      <trkpt lat="43.7175" lon="6.93391">
        <ele>1138</ele>
        <time>2015-11-07T09:16:35Z</time>
      </trkpt>
      <trkpt lat="43.71754" lon="6.93392">
        <ele>1137.4</ele>
        <time>2015-11-07T09:16:36Z</time>
      </trkpt>
      <trkpt lat="43.71757" lon="6.93394">
        <ele>1137</ele>
        <time>2015-11-07T09:16:37Z</time>
      </trkpt>
      <trkpt lat="43.71758" lon="6.93397">
        <ele>1136.4</ele>
        <time>2015-11-07T09:16:38Z</time>
      </trkpt>
      <trkpt lat="43.7176" lon="6.934">
        <ele>1136</ele>
        <time>2015-11-07T09:16:39Z</time>
      </trkpt>
      <trkpt lat="43.71762" lon="6.93402">
        <ele>1135.6</ele>
        <time>2015-11-07T09:16:40Z</time>
      </trkpt>
      <trkpt lat="43.71764" lon="6.93404">
        <ele>1135.2</ele>
        <time>2015-11-07T09:16:41Z</time>
      </trkpt>
      <trkpt lat="43.71768" lon="6.93406">
        <ele>1134.8</ele>
        <time>2015-11-07T09:16:42Z</time>
      </trkpt>
      <trkpt lat="43.71773" lon="6.93409">
        <ele>1134</ele>
        <time>2015-11-07T09:16:43Z</time>
      </trkpt>
      <trkpt lat="43.71776" lon="6.93412">
        <ele>1133.4</ele>
        <time>2015-11-07T09:16:44Z</time>
      </trkpt>
      <trkpt lat="43.71778" lon="6.93415">
        <ele>1132.8</ele>
        <time>2015-11-07T09:16:45Z</time>
      </trkpt>
      <trkpt lat="43.71779" lon="6.93419">
        <ele>1132</ele>
        <time>2015-11-07T09:16:46Z</time>
      </trkpt>
      <trkpt lat="43.71778" lon="6.93422">
        <ele>1131.4</ele>
        <time>2015-11-07T09:16:47Z</time>
      </trkpt>
      <trkpt lat="43.71777" lon="6.93428">
        <ele>1131.4</ele>
        <time>2015-11-07T09:16:49Z</time>
      </trkpt>
      <trkpt lat="43.71776" lon="6.93435">
        <ele>1131</ele>
        <time>2015-11-07T09:16:51Z</time>
      </trkpt>
      <trkpt lat="43.71774" lon="6.93439">
        <ele>1131</ele>
        <time>2015-11-07T09:16:52Z</time>
      </trkpt>
      <trkpt lat="43.71774" lon="6.93443">
        <ele>1130.6</ele>
        <time>2015-11-07T09:16:53Z</time>
      </trkpt>
      <trkpt lat="43.71774" lon="6.93447">
        <ele>1130.2</ele>
        <time>2015-11-07T09:16:54Z</time>
      </trkpt>
      <trkpt lat="43.71774" lon="6.9345">
        <ele>1129.8</ele>
        <time>2015-11-07T09:16:55Z</time>
      </trkpt>
      <trkpt lat="43.71774" lon="6.93454">
        <ele>1129.2</ele>
        <time>2015-11-07T09:16:56Z</time>
      </trkpt>
      <trkpt lat="43.71773" lon="6.93473">
        <ele>1129.2</ele>
        <time>2015-11-07T09:17:00Z</time>
      </trkpt>
      <trkpt lat="43.71765" lon="6.93485">
        <ele>1129.2</ele>
        <time>2015-11-07T09:17:02Z</time>
      </trkpt>
      <trkpt lat="43.7176" lon="6.93488">
        <ele>1129.2</ele>
        <time>2015-11-07T09:17:03Z</time>
      </trkpt>
      <trkpt lat="43.71742" lon="6.93506">
        <ele>1129.2</ele>
        <time>2015-11-07T09:17:08Z</time>
      </trkpt>
      <trkpt lat="43.71736" lon="6.93518">
        <ele>1129.2</ele>
        <time>2015-11-07T09:17:12Z</time>
      </trkpt>
      <trkpt lat="43.71731" lon="6.93527">
        <ele>1128.8</ele>
        <time>2015-11-07T09:17:14Z</time>
      </trkpt>
      <trkpt lat="43.71728" lon="6.93533">
        <ele>1128.2</ele>
        <time>2015-11-07T09:17:15Z</time>
      </trkpt>
      <trkpt lat="43.71725" lon="6.93539">
        <ele>1127.8</ele>
        <time>2015-11-07T09:17:16Z</time>
      </trkpt>
      <trkpt lat="43.71725" lon="6.93544">
        <ele>1127.2</ele>
        <time>2015-11-07T09:17:17Z</time>
      </trkpt>
      <trkpt lat="43.71726" lon="6.93548">
        <ele>1126.8</ele>
        <time>2015-11-07T09:17:18Z</time>
      </trkpt>
      <trkpt lat="43.71722" lon="6.93563">
        <ele>1126.2</ele>
        <time>2015-11-07T09:17:21Z</time>
      </trkpt>
      <trkpt lat="43.71721" lon="6.93567">
        <ele>1125.8</ele>
        <time>2015-11-07T09:17:22Z</time>
      </trkpt>
      <trkpt lat="43.71719" lon="6.93571">
        <ele>1125.2</ele>
        <time>2015-11-07T09:17:23Z</time>
      </trkpt>
      <trkpt lat="43.71718" lon="6.93579">
        <ele>1124.8</ele>
        <time>2015-11-07T09:17:24Z</time>
      </trkpt>
      <trkpt lat="43.71716" lon="6.93585">
        <ele>1124.4</ele>
        <time>2015-11-07T09:17:25Z</time>
      </trkpt>
      <trkpt lat="43.71718" lon="6.93589">
        <ele>1124.4</ele>
        <time>2015-11-07T09:17:26Z</time>
      </trkpt>
      <trkpt lat="43.71719" lon="6.93592">
        <ele>1124.4</ele>
        <time>2015-11-07T09:17:27Z</time>
      </trkpt>
      <trkpt lat="43.71723" lon="6.93596">
        <ele>1123.8</ele>
        <time>2015-11-07T09:17:28Z</time>
      </trkpt>
      <trkpt lat="43.71728" lon="6.93601">
        <ele>1123.4</ele>
        <time>2015-11-07T09:17:29Z</time>
      </trkpt>
      <trkpt lat="43.71733" lon="6.93605">
        <ele>1123</ele>
        <time>2015-11-07T09:17:30Z</time>
      </trkpt>
      <trkpt lat="43.71738" lon="6.93606">
        <ele>1122.6</ele>
        <time>2015-11-07T09:17:31Z</time>
      </trkpt>
      <trkpt lat="43.71743" lon="6.93602">
        <ele>1122.2</ele>
        <time>2015-11-07T09:17:32Z</time>
      </trkpt>
      <trkpt lat="43.71746" lon="6.93603">
        <ele>1121.8</ele>
        <time>2015-11-07T09:17:33Z</time>
      </trkpt>
      <trkpt lat="43.71751" lon="6.93604">
        <ele>1121.4</ele>
        <time>2015-11-07T09:17:34Z</time>
      </trkpt>
      <trkpt lat="43.71754" lon="6.93605">
        <ele>1121</ele>
        <time>2015-11-07T09:17:35Z</time>
      </trkpt>
      <trkpt lat="43.71757" lon="6.93604">
        <ele>1120.4</ele>
        <time>2015-11-07T09:17:36Z</time>
      </trkpt>
      <trkpt lat="43.7176" lon="6.93603">
        <ele>1120</ele>
        <time>2015-11-07T09:17:37Z</time>
      </trkpt>
      <trkpt lat="43.71765" lon="6.93603">
        <ele>1119.6</ele>
        <time>2015-11-07T09:17:38Z</time>
      </trkpt>
      <trkpt lat="43.71771" lon="6.93601">
        <ele>1119</ele>
        <time>2015-11-07T09:17:39Z</time>
      </trkpt>
      <trkpt lat="43.71775" lon="6.936">
        <ele>1118.4</ele>
        <time>2015-11-07T09:17:40Z</time>
      </trkpt>
      <trkpt lat="43.71779" lon="6.936">
        <ele>1117.8</ele>
        <time>2015-11-07T09:17:41Z</time>
      </trkpt>
      <trkpt lat="43.71781" lon="6.93607">
        <ele>1117.2</ele>
        <time>2015-11-07T09:17:42Z</time>
      </trkpt>
      <trkpt lat="43.71789" lon="6.9361">
        <ele>1117.2</ele>
        <time>2015-11-07T09:17:46Z</time>
      </trkpt>
      <trkpt lat="43.71801" lon="6.93622">
        <ele>1117.2</ele>
        <time>2015-11-07T09:17:51Z</time>
      </trkpt>
      <trkpt lat="43.71806" lon="6.93632">
        <ele>1116.8</ele>
        <time>2015-11-07T09:17:53Z</time>
      </trkpt>
      <trkpt lat="43.7181" lon="6.93636">
        <ele>1116.2</ele>
        <time>2015-11-07T09:17:54Z</time>
      </trkpt>
      <trkpt lat="43.71814" lon="6.93639">
        <ele>1115.8</ele>
        <time>2015-11-07T09:17:55Z</time>
      </trkpt>
      <trkpt lat="43.71818" lon="6.93642">
        <ele>1115.4</ele>
        <time>2015-11-07T09:17:56Z</time>
      </trkpt>
      <trkpt lat="43.71823" lon="6.93644">
        <ele>1114.8</ele>
        <time>2015-11-07T09:17:57Z</time>
      </trkpt>
      <trkpt lat="43.71838" lon="6.93652">
        <ele>1114.8</ele>
        <time>2015-11-07T09:18:01Z</time>
      </trkpt>
      <trkpt lat="43.71842" lon="6.93664">
        <ele>1114.4</ele>
        <time>2015-11-07T09:18:04Z</time>
      </trkpt>
      <trkpt lat="43.71842" lon="6.93667">
        <ele>1114</ele>
        <time>2015-11-07T09:18:05Z</time>
      </trkpt>
      <trkpt lat="43.71842" lon="6.9367">
        <ele>1113.6</ele>
        <time>2015-11-07T09:18:06Z</time>
      </trkpt>
      <trkpt lat="43.71842" lon="6.93672">
        <ele>1113.2</ele>
        <time>2015-11-07T09:18:07Z</time>
      </trkpt>
      <trkpt lat="43.71844" lon="6.93674">
        <ele>1112.6</ele>
        <time>2015-11-07T09:18:08Z</time>
      </trkpt>
      <trkpt lat="43.71848" lon="6.93677">
        <ele>1112.2</ele>
        <time>2015-11-07T09:18:09Z</time>
      </trkpt>
      <trkpt lat="43.71851" lon="6.93681">
        <ele>1111.8</ele>
        <time>2015-11-07T09:18:10Z</time>
      </trkpt>
      <trkpt lat="43.71853" lon="6.93685">
        <ele>1111.4</ele>
        <time>2015-11-07T09:18:11Z</time>
      </trkpt>
      <trkpt lat="43.71854" lon="6.93688">
        <ele>1110.8</ele>
        <time>2015-11-07T09:18:12Z</time>
      </trkpt>
      <trkpt lat="43.71858" lon="6.93692">
        <ele>1110.4</ele>
        <time>2015-11-07T09:18:13Z</time>
      </trkpt>
      <trkpt lat="43.71863" lon="6.93696">
        <ele>1110.4</ele>
        <time>2015-11-07T09:18:15Z</time>
      </trkpt>
      <trkpt lat="43.71879" lon="6.93717">
        <ele>1110.4</ele>
        <time>2015-11-07T09:18:21Z</time>
      </trkpt>
      <trkpt lat="43.71892" lon="6.93725">
        <ele>1110.4</ele>
        <time>2015-11-07T09:18:24Z</time>
      </trkpt>
      <trkpt lat="43.71896" lon="6.93725">
        <ele>1110.4</ele>
        <time>2015-11-07T09:18:25Z</time>
      </trkpt>
      <trkpt lat="43.7191" lon="6.9372">
        <ele>1110.4</ele>
        <time>2015-11-07T09:18:29Z</time>
      </trkpt>
      <trkpt lat="43.71913" lon="6.93719">
        <ele>1110.4</ele>
        <time>2015-11-07T09:18:30Z</time>
      </trkpt>
      <trkpt lat="43.7192" lon="6.93718">
        <ele>1110.4</ele>
        <time>2015-11-07T09:18:33Z</time>
      </trkpt>
      <trkpt lat="43.71921" lon="6.93718">
        <ele>1110.4</ele>
        <time>2015-11-07T09:18:37Z</time>
      </trkpt>
      <trkpt lat="43.71925" lon="6.93719">
        <ele>1110</ele>
        <time>2015-11-07T09:18:42Z</time>
      </trkpt>
      <trkpt lat="43.71929" lon="6.93722">
        <ele>1109.6</ele>
        <time>2015-11-07T09:18:43Z</time>
      </trkpt>
      <trkpt lat="43.71933" lon="6.93726">
        <ele>1109</ele>
        <time>2015-11-07T09:18:44Z</time>
      </trkpt>
      <trkpt lat="43.71939" lon="6.9373">
        <ele>1108.4</ele>
        <time>2015-11-07T09:18:45Z</time>
      </trkpt>
      <trkpt lat="43.71945" lon="6.93735">
        <ele>1107.8</ele>
        <time>2015-11-07T09:18:46Z</time>
      </trkpt>
      <trkpt lat="43.7195" lon="6.9374">
        <ele>1107.2</ele>
        <time>2015-11-07T09:18:47Z</time>
      </trkpt>
      <trkpt lat="43.71957" lon="6.93745">
        <ele>1106.4</ele>
        <time>2015-11-07T09:18:48Z</time>
      </trkpt>
      <trkpt lat="43.71964" lon="6.93751">
        <ele>1105.6</ele>
        <time>2015-11-07T09:18:49Z</time>
      </trkpt>
      <trkpt lat="43.7197" lon="6.93758">
        <ele>1104.8</ele>
        <time>2015-11-07T09:18:50Z</time>
      </trkpt>
      <trkpt lat="43.71976" lon="6.93763">
        <ele>1104</ele>
        <time>2015-11-07T09:18:51Z</time>
      </trkpt>
      <trkpt lat="43.71981" lon="6.93768">
        <ele>1103</ele>
        <time>2015-11-07T09:18:52Z</time>
      </trkpt>
      <trkpt lat="43.71984" lon="6.93773">
        <ele>1102.2</ele>
        <time>2015-11-07T09:18:53Z</time>
      </trkpt>
      <trkpt lat="43.71985" lon="6.93777">
        <ele>1101.4</ele>
        <time>2015-11-07T09:18:54Z</time>
      </trkpt>
      <trkpt lat="43.71986" lon="6.93781">
        <ele>1100.6</ele>
        <time>2015-11-07T09:18:55Z</time>
      </trkpt>
      <trkpt lat="43.7199" lon="6.93792">
        <ele>1100</ele>
        <time>2015-11-07T09:18:57Z</time>
      </trkpt>
      <trkpt lat="43.71992" lon="6.93798">
        <ele>1099.4</ele>
        <time>2015-11-07T09:18:58Z</time>
      </trkpt>
      <trkpt lat="43.71994" lon="6.93803">
        <ele>1098.6</ele>
        <time>2015-11-07T09:18:59Z</time>
      </trkpt>
      <trkpt lat="43.71996" lon="6.93808">
        <ele>1097.8</ele>
        <time>2015-11-07T09:19:00Z</time>
      </trkpt>
      <trkpt lat="43.71998" lon="6.93812">
        <ele>1096.8</ele>
        <time>2015-11-07T09:19:01Z</time>
      </trkpt>
      <trkpt lat="43.72" lon="6.93815">
        <ele>1096</ele>
        <time>2015-11-07T09:19:02Z</time>
      </trkpt>
      <trkpt lat="43.72003" lon="6.93817">
        <ele>1095.2</ele>
        <time>2015-11-07T09:19:03Z</time>
      </trkpt>
      <trkpt lat="43.72011" lon="6.93807">
        <ele>1094.8</ele>
        <time>2015-11-07T09:19:04Z</time>
      </trkpt>
      <trkpt lat="43.72016" lon="6.93805">
        <ele>1094.4</ele>
        <time>2015-11-07T09:19:05Z</time>
      </trkpt>
      <trkpt lat="43.72021" lon="6.93805">
        <ele>1094</ele>
        <time>2015-11-07T09:19:06Z</time>
      </trkpt>
      <trkpt lat="43.72025" lon="6.93807">
        <ele>1093.6</ele>
        <time>2015-11-07T09:19:07Z</time>
      </trkpt>
      <trkpt lat="43.72031" lon="6.93808">
        <ele>1093</ele>
        <time>2015-11-07T09:19:08Z</time>
      </trkpt>
      <trkpt lat="43.72036" lon="6.93806">
        <ele>1093</ele>
        <time>2015-11-07T09:19:09Z</time>
      </trkpt>
      <trkpt lat="43.7205" lon="6.93805">
        <ele>1092.6</ele>
        <time>2015-11-07T09:19:12Z</time>
      </trkpt>
      <trkpt lat="43.72054" lon="6.93806">
        <ele>1092.2</ele>
        <time>2015-11-07T09:19:13Z</time>
      </trkpt>
      <trkpt lat="43.72058" lon="6.93809">
        <ele>1091.8</ele>
        <time>2015-11-07T09:19:14Z</time>
      </trkpt>
      <trkpt lat="43.72062" lon="6.93812">
        <ele>1091.2</ele>
        <time>2015-11-07T09:19:15Z</time>
      </trkpt>
      <trkpt lat="43.72065" lon="6.93816">
        <ele>1090.6</ele>
        <time>2015-11-07T09:19:16Z</time>
      </trkpt>
      <trkpt lat="43.72067" lon="6.93822">
        <ele>1089.8</ele>
        <time>2015-11-07T09:19:17Z</time>
      </trkpt>
      <trkpt lat="43.72068" lon="6.93828">
        <ele>1089</ele>
        <time>2015-11-07T09:19:18Z</time>
      </trkpt>
      <trkpt lat="43.72068" lon="6.93836">
        <ele>1088.2</ele>
        <time>2015-11-07T09:19:19Z</time>
      </trkpt>
      <trkpt lat="43.72069" lon="6.93843">
        <ele>1087.4</ele>
        <time>2015-11-07T09:19:20Z</time>
      </trkpt>
      <trkpt lat="43.72069" lon="6.93851">
        <ele>1086.4</ele>
        <time>2015-11-07T09:19:21Z</time>
      </trkpt>
      <trkpt lat="43.72068" lon="6.93858">
        <ele>1085.6</ele>
        <time>2015-11-07T09:19:22Z</time>
      </trkpt>
      <trkpt lat="43.72067" lon="6.93866">
        <ele>1084.6</ele>
        <time>2015-11-07T09:19:23Z</time>
      </trkpt>
      <trkpt lat="43.72065" lon="6.93875">
        <ele>1083.6</ele>
        <time>2015-11-07T09:19:24Z</time>
      </trkpt>
      <trkpt lat="43.72067" lon="6.93883">
        <ele>1082.6</ele>
        <time>2015-11-07T09:19:25Z</time>
      </trkpt>
      <trkpt lat="43.72072" lon="6.93888">
        <ele>1081.6</ele>
        <time>2015-11-07T09:19:26Z</time>
      </trkpt>
      <trkpt lat="43.72078" lon="6.93895">
        <ele>1080.4</ele>
        <time>2015-11-07T09:19:27Z</time>
      </trkpt>
      <trkpt lat="43.72082" lon="6.93901">
        <ele>1079.4</ele>
        <time>2015-11-07T09:19:28Z</time>
      </trkpt>
      <trkpt lat="43.72085" lon="6.93907">
        <ele>1078.6</ele>
        <time>2015-11-07T09:19:29Z</time>
      </trkpt>
      <trkpt lat="43.72088" lon="6.93912">
        <ele>1077.8</ele>
        <time>2015-11-07T09:19:30Z</time>
      </trkpt>
      <trkpt lat="43.7209" lon="6.93916">
        <ele>1076.8</ele>
        <time>2015-11-07T09:19:31Z</time>
      </trkpt>
      <trkpt lat="43.72094" lon="6.93919">
        <ele>1076</ele>
        <time>2015-11-07T09:19:32Z</time>
      </trkpt>
      <trkpt lat="43.72098" lon="6.93921">
        <ele>1075</ele>
        <time>2015-11-07T09:19:33Z</time>
      </trkpt>
      <trkpt lat="43.72103" lon="6.93922">
        <ele>1074</ele>
        <time>2015-11-07T09:19:34Z</time>
      </trkpt>
      <trkpt lat="43.72108" lon="6.93924">
        <ele>1073</ele>
        <time>2015-11-07T09:19:35Z</time>
      </trkpt>
      <trkpt lat="43.72113" lon="6.93924">
        <ele>1072.2</ele>
        <time>2015-11-07T09:19:36Z</time>
      </trkpt>
      <trkpt lat="43.72117" lon="6.93926">
        <ele>1072.2</ele>
        <time>2015-11-07T09:19:37Z</time>
      </trkpt>
      <trkpt lat="43.72121" lon="6.9393">
        <ele>1071.8</ele>
        <time>2015-11-07T09:19:38Z</time>
      </trkpt>
      <trkpt lat="43.72123" lon="6.93934">
        <ele>1071.2</ele>
        <time>2015-11-07T09:19:39Z</time>
      </trkpt>
      <trkpt lat="43.72126" lon="6.93938">
        <ele>1070.8</ele>
        <time>2015-11-07T09:19:40Z</time>
      </trkpt>
      <trkpt lat="43.72129" lon="6.93942">
        <ele>1070.4</ele>
        <time>2015-11-07T09:19:41Z</time>
      </trkpt>
      <trkpt lat="43.72133" lon="6.93948">
        <ele>1070</ele>
        <time>2015-11-07T09:19:42Z</time>
      </trkpt>
      <trkpt lat="43.72138" lon="6.93953">
        <ele>1069.4</ele>
        <time>2015-11-07T09:19:43Z</time>
      </trkpt>
      <trkpt lat="43.72143" lon="6.93959">
        <ele>1068.8</ele>
        <time>2015-11-07T09:19:44Z</time>
      </trkpt>
      <trkpt lat="43.72148" lon="6.93965">
        <ele>1068.2</ele>
        <time>2015-11-07T09:19:45Z</time>
      </trkpt>
      <trkpt lat="43.72153" lon="6.93972">
        <ele>1067.6</ele>
        <time>2015-11-07T09:19:46Z</time>
      </trkpt>
      <trkpt lat="43.72156" lon="6.9398">
        <ele>1067</ele>
        <time>2015-11-07T09:19:47Z</time>
      </trkpt>
      <trkpt lat="43.72158" lon="6.93988">
        <ele>1066.4</ele>
        <time>2015-11-07T09:19:48Z</time>
      </trkpt>
      <trkpt lat="43.7216" lon="6.93993">
        <ele>1065.8</ele>
        <time>2015-11-07T09:19:49Z</time>
      </trkpt>
      <trkpt lat="43.72163" lon="6.93998">
        <ele>1065</ele>
        <time>2015-11-07T09:19:50Z</time>
      </trkpt>
      <trkpt lat="43.7217" lon="6.93999">
        <ele>1065</ele>
        <time>2015-11-07T09:19:52Z</time>
      </trkpt>
      <trkpt lat="43.72175" lon="6.93995">
        <ele>1065</ele>
        <time>2015-11-07T09:19:53Z</time>
      </trkpt>
      <trkpt lat="43.72177" lon="6.93996">
        <ele>1065</ele>
        <time>2015-11-07T09:19:54Z</time>
      </trkpt>
      <trkpt lat="43.72178" lon="6.94002">
        <ele>1065</ele>
        <time>2015-11-07T09:19:57Z</time>
      </trkpt>
      <trkpt lat="43.72178" lon="6.94007">
        <ele>1064.6</ele>
        <time>2015-11-07T09:20:03Z</time>
      </trkpt>
      <trkpt lat="43.72179" lon="6.94012">
        <ele>1064</ele>
        <time>2015-11-07T09:20:04Z</time>
      </trkpt>
      <trkpt lat="43.7218" lon="6.9402">
        <ele>1063.2</ele>
        <time>2015-11-07T09:20:05Z</time>
      </trkpt>
      <trkpt lat="43.7218" lon="6.94026">
        <ele>1062.4</ele>
        <time>2015-11-07T09:20:06Z</time>
      </trkpt>
      <trkpt lat="43.72181" lon="6.94033">
        <ele>1061.6</ele>
        <time>2015-11-07T09:20:07Z</time>
      </trkpt>
      <trkpt lat="43.72182" lon="6.94041">
        <ele>1060.6</ele>
        <time>2015-11-07T09:20:08Z</time>
      </trkpt>
      <trkpt lat="43.72182" lon="6.9405">
        <ele>1059.8</ele>
        <time>2015-11-07T09:20:09Z</time>
      </trkpt>
      <trkpt lat="43.72182" lon="6.94058">
        <ele>1058.6</ele>
        <time>2015-11-07T09:20:10Z</time>
      </trkpt>
      <trkpt lat="43.72183" lon="6.94067">
        <ele>1057.4</ele>
        <time>2015-11-07T09:20:11Z</time>
      </trkpt>
      <trkpt lat="43.72184" lon="6.94074">
        <ele>1056.2</ele>
        <time>2015-11-07T09:20:12Z</time>
      </trkpt>
      <trkpt lat="43.72186" lon="6.9408">
        <ele>1055</ele>
        <time>2015-11-07T09:20:13Z</time>
      </trkpt>
      <trkpt lat="43.72188" lon="6.94084">
        <ele>1053.8</ele>
        <time>2015-11-07T09:20:14Z</time>
      </trkpt>
      <trkpt lat="43.72189" lon="6.94088">
        <ele>1053.8</ele>
        <time>2015-11-07T09:20:15Z</time>
      </trkpt>
      <trkpt lat="43.72197" lon="6.94106">
        <ele>1053.8</ele>
        <time>2015-11-07T09:20:21Z</time>
      </trkpt>
      <trkpt lat="43.72201" lon="6.94104">
        <ele>1053.8</ele>
        <time>2015-11-07T09:20:22Z</time>
      </trkpt>
      <trkpt lat="43.72203" lon="6.94104">
        <ele>1053.2</ele>
        <time>2015-11-07T09:20:23Z</time>
      </trkpt>
      <trkpt lat="43.72205" lon="6.94105">
        <ele>1052.6</ele>
        <time>2015-11-07T09:20:24Z</time>
      </trkpt>
      <trkpt lat="43.72207" lon="6.94109">
        <ele>1052</ele>
        <time>2015-11-07T09:20:25Z</time>
      </trkpt>
      <trkpt lat="43.72209" lon="6.94113">
        <ele>1051.4</ele>
        <time>2015-11-07T09:20:26Z</time>
      </trkpt>
      <trkpt lat="43.72212" lon="6.94115">
        <ele>1050.8</ele>
        <time>2015-11-07T09:20:27Z</time>
      </trkpt>
      <trkpt lat="43.72215" lon="6.94122">
        <ele>1050.8</ele>
        <time>2015-11-07T09:20:29Z</time>
      </trkpt>
      <trkpt lat="43.72221" lon="6.94151">
        <ele>1050.8</ele>
        <time>2015-11-07T09:20:35Z</time>
      </trkpt>
      <trkpt lat="43.72222" lon="6.94157">
        <ele>1049.8</ele>
        <time>2015-11-07T09:20:36Z</time>
      </trkpt>
      <trkpt lat="43.72223" lon="6.94165">
        <ele>1049.2</ele>
        <time>2015-11-07T09:20:37Z</time>
      </trkpt>
      <trkpt lat="43.72226" lon="6.94173">
        <ele>1048.6</ele>
        <time>2015-11-07T09:20:38Z</time>
      </trkpt>
      <trkpt lat="43.72229" lon="6.94181">
        <ele>1047.8</ele>
        <time>2015-11-07T09:20:39Z</time>
      </trkpt>
      <trkpt lat="43.72231" lon="6.94189">
        <ele>1047.2</ele>
        <time>2015-11-07T09:20:40Z</time>
      </trkpt>
      <trkpt lat="43.72235" lon="6.94201">
        <ele>1046.6</ele>
        <time>2015-11-07T09:20:42Z</time>
      </trkpt>
      <trkpt lat="43.72238" lon="6.94206">
        <ele>1046</ele>
        <time>2015-11-07T09:20:43Z</time>
      </trkpt>
      <trkpt lat="43.72241" lon="6.94212">
        <ele>1045.4</ele>
        <time>2015-11-07T09:20:44Z</time>
      </trkpt>
      <trkpt lat="43.72243" lon="6.94217">
        <ele>1044.8</ele>
        <time>2015-11-07T09:20:45Z</time>
      </trkpt>
      <trkpt lat="43.72245" lon="6.94223">
        <ele>1044.2</ele>
        <time>2015-11-07T09:20:46Z</time>
      </trkpt>
      <trkpt lat="43.72246" lon="6.94231">
        <ele>1043.6</ele>
        <time>2015-11-07T09:20:47Z</time>
      </trkpt>
      <trkpt lat="43.72247" lon="6.9424">
        <ele>1042.8</ele>
        <time>2015-11-07T09:20:48Z</time>
      </trkpt>
      <trkpt lat="43.72247" lon="6.94247">
        <ele>1042.2</ele>
        <time>2015-11-07T09:20:49Z</time>
      </trkpt>
      <trkpt lat="43.72247" lon="6.94253">
        <ele>1041.6</ele>
        <time>2015-11-07T09:20:50Z</time>
      </trkpt>
      <trkpt lat="43.72248" lon="6.9426">
        <ele>1041</ele>
        <time>2015-11-07T09:20:51Z</time>
      </trkpt>
      <trkpt lat="43.72252" lon="6.94267">
        <ele>1040.4</ele>
        <time>2015-11-07T09:20:52Z</time>
      </trkpt>
      <trkpt lat="43.72256" lon="6.94274">
        <ele>1039.6</ele>
        <time>2015-11-07T09:20:53Z</time>
      </trkpt>
      <trkpt lat="43.7226" lon="6.94281">
        <ele>1039.2</ele>
        <time>2015-11-07T09:20:54Z</time>
      </trkpt>
      <trkpt lat="43.72263" lon="6.94287">
        <ele>1038.6</ele>
        <time>2015-11-07T09:20:55Z</time>
      </trkpt>
      <trkpt lat="43.72268" lon="6.94291">
        <ele>1038</ele>
        <time>2015-11-07T09:20:56Z</time>
      </trkpt>
      <trkpt lat="43.72273" lon="6.94294">
        <ele>1037.6</ele>
        <time>2015-11-07T09:20:57Z</time>
      </trkpt>
      <trkpt lat="43.72278" lon="6.94298">
        <ele>1037</ele>
        <time>2015-11-07T09:20:58Z</time>
      </trkpt>
      <trkpt lat="43.72291" lon="6.9431">
        <ele>1037.4</ele>
        <time>2015-11-07T09:21:02Z</time>
      </trkpt>
      <trkpt lat="43.72294" lon="6.94313">
        <ele>1038</ele>
        <time>2015-11-07T09:21:03Z</time>
      </trkpt>
      <trkpt lat="43.72297" lon="6.94316">
        <ele>1038.4</ele>
        <time>2015-11-07T09:21:04Z</time>
      </trkpt>
      <trkpt lat="43.723" lon="6.9432">
        <ele>1038.8</ele>
        <time>2015-11-07T09:21:05Z</time>
      </trkpt>
      <trkpt lat="43.72303" lon="6.94325">
        <ele>1039.4</ele>
        <time>2015-11-07T09:21:06Z</time>
      </trkpt>
      <trkpt lat="43.72311" lon="6.94336">
        <ele>1039.4</ele>
        <time>2015-11-07T09:21:09Z</time>
      </trkpt>
      <trkpt lat="43.72325" lon="6.94351">
        <ele>1039.4</ele>
        <time>2015-11-07T09:21:15Z</time>
      </trkpt>
      <trkpt lat="43.72335" lon="6.9436">
        <ele>1039.8</ele>
        <time>2015-11-07T09:21:19Z</time>
      </trkpt>
      <trkpt lat="43.72337" lon="6.94363">
        <ele>1040.2</ele>
        <time>2015-11-07T09:21:20Z</time>
      </trkpt>
      <trkpt lat="43.7234" lon="6.94366">
        <ele>1040.6</ele>
        <time>2015-11-07T09:21:21Z</time>
      </trkpt>
      <trkpt lat="43.72342" lon="6.94368">
        <ele>1041</ele>
        <time>2015-11-07T09:21:22Z</time>
      </trkpt>
      <trkpt lat="43.72345" lon="6.9437">
        <ele>1041.4</ele>
        <time>2015-11-07T09:21:23Z</time>
      </trkpt>
      <trkpt lat="43.72353" lon="6.94377">
        <ele>1041.4</ele>
        <time>2015-11-07T09:21:28Z</time>
      </trkpt>
      <trkpt lat="43.72355" lon="6.9438">
        <ele>1041.4</ele>
        <time>2015-11-07T09:22:19Z</time>
      </trkpt>
      <trkpt lat="43.72358" lon="6.94383">
        <ele>1041.4</ele>
        <time>2015-11-07T09:22:20Z</time>
      </trkpt>
      <trkpt lat="43.72366" lon="6.94391">
        <ele>1041.4</ele>
        <time>2015-11-07T09:22:22Z</time>
      </trkpt>
      <trkpt lat="43.72374" lon="6.94395">
        <ele>1041.4</ele>
        <time>2015-11-07T09:22:24Z</time>
      </trkpt>
      <trkpt lat="43.72391" lon="6.94401">
        <ele>1041.4</ele>
        <time>2015-11-07T09:22:29Z</time>
      </trkpt>
      <trkpt lat="43.72396" lon="6.94402">
        <ele>1041.4</ele>
        <time>2015-11-07T09:22:30Z</time>
      </trkpt>
      <trkpt lat="43.72403" lon="6.944">
        <ele>1041.4</ele>
        <time>2015-11-07T09:22:32Z</time>
      </trkpt>
      <trkpt lat="43.72417" lon="6.94393">
        <ele>1041.4</ele>
        <time>2015-11-07T09:22:35Z</time>
      </trkpt>
      <trkpt lat="43.72428" lon="6.9439">
        <ele>1041.4</ele>
        <time>2015-11-07T09:22:37Z</time>
      </trkpt>
      <trkpt lat="43.72437" lon="6.9439">
        <ele>1041.4</ele>
        <time>2015-11-07T09:22:39Z</time>
      </trkpt>
      <trkpt lat="43.72445" lon="6.94396">
        <ele>1040.8</ele>
        <time>2015-11-07T09:22:41Z</time>
      </trkpt>
      <trkpt lat="43.72448" lon="6.94399">
        <ele>1040.4</ele>
        <time>2015-11-07T09:22:42Z</time>
      </trkpt>
      <trkpt lat="43.72451" lon="6.94401">
        <ele>1039.8</ele>
        <time>2015-11-07T09:22:43Z</time>
      </trkpt>
      <trkpt lat="43.72454" lon="6.94403">
        <ele>1039.2</ele>
        <time>2015-11-07T09:22:44Z</time>
      </trkpt>
      <trkpt lat="43.72458" lon="6.94403">
        <ele>1038.4</ele>
        <time>2015-11-07T09:22:45Z</time>
      </trkpt>
      <trkpt lat="43.72461" lon="6.944">
        <ele>1037.8</ele>
        <time>2015-11-07T09:22:46Z</time>
      </trkpt>
      <trkpt lat="43.72465" lon="6.94398">
        <ele>1037</ele>
        <time>2015-11-07T09:22:47Z</time>
      </trkpt>
      <trkpt lat="43.72469" lon="6.94395">
        <ele>1036.4</ele>
        <time>2015-11-07T09:22:48Z</time>
      </trkpt>
      <trkpt lat="43.72472" lon="6.94391">
        <ele>1035.6</ele>
        <time>2015-11-07T09:22:49Z</time>
      </trkpt>
      <trkpt lat="43.72475" lon="6.94388">
        <ele>1035</ele>
        <time>2015-11-07T09:22:50Z</time>
      </trkpt>
      <trkpt lat="43.72478" lon="6.94383">
        <ele>1034.2</ele>
        <time>2015-11-07T09:22:51Z</time>
      </trkpt>
      <trkpt lat="43.72482" lon="6.94379">
        <ele>1034.2</ele>
        <time>2015-11-07T09:22:52Z</time>
      </trkpt>
      <trkpt lat="43.72492" lon="6.9437">
        <ele>1033.8</ele>
        <time>2015-11-07T09:22:54Z</time>
      </trkpt>
      <trkpt lat="43.72496" lon="6.94365">
        <ele>1033.4</ele>
        <time>2015-11-07T09:22:55Z</time>
      </trkpt>
      <trkpt lat="43.72501" lon="6.94363">
        <ele>1032.8</ele>
        <time>2015-11-07T09:22:56Z</time>
      </trkpt>
      <trkpt lat="43.72507" lon="6.94363">
        <ele>1032.4</ele>
        <time>2015-11-07T09:22:57Z</time>
      </trkpt>
      <trkpt lat="43.72511" lon="6.94361">
        <ele>1032</ele>
        <time>2015-11-07T09:22:58Z</time>
      </trkpt>
      <trkpt lat="43.72514" lon="6.94358">
        <ele>1031.4</ele>
        <time>2015-11-07T09:22:59Z</time>
      </trkpt>
      <trkpt lat="43.72517" lon="6.94355">
        <ele>1031</ele>
        <time>2015-11-07T09:23:00Z</time>
      </trkpt>
      <trkpt lat="43.72519" lon="6.94351">
        <ele>1030.4</ele>
        <time>2015-11-07T09:23:01Z</time>
      </trkpt>
      <trkpt lat="43.72521" lon="6.94346">
        <ele>1030</ele>
        <time>2015-11-07T09:23:02Z</time>
      </trkpt>
      <trkpt lat="43.72522" lon="6.94342">
        <ele>1029.6</ele>
        <time>2015-11-07T09:23:03Z</time>
      </trkpt>
      <trkpt lat="43.72534" lon="6.9432">
        <ele>1029.6</ele>
        <time>2015-11-07T09:23:08Z</time>
      </trkpt>
      <trkpt lat="43.72541" lon="6.94316">
        <ele>1029</ele>
        <time>2015-11-07T09:23:10Z</time>
      </trkpt>
      <trkpt lat="43.72543" lon="6.94314">
        <ele>1028.6</ele>
        <time>2015-11-07T09:23:11Z</time>
      </trkpt>
      <trkpt lat="43.72546" lon="6.94313">
        <ele>1028.2</ele>
        <time>2015-11-07T09:23:12Z</time>
      </trkpt>
      <trkpt lat="43.72549" lon="6.94313">
        <ele>1027.4</ele>
        <time>2015-11-07T09:23:13Z</time>
      </trkpt>
      <trkpt lat="43.72552" lon="6.94313">
        <ele>1026.6</ele>
        <time>2015-11-07T09:23:14Z</time>
      </trkpt>
      <trkpt lat="43.72555" lon="6.94311">
        <ele>1025.8</ele>
        <time>2015-11-07T09:23:15Z</time>
      </trkpt>
      <trkpt lat="43.72559" lon="6.94308">
        <ele>1024.8</ele>
        <time>2015-11-07T09:23:16Z</time>
      </trkpt>
      <trkpt lat="43.72562" lon="6.94304">
        <ele>1024</ele>
        <time>2015-11-07T09:23:17Z</time>
      </trkpt>
      <trkpt lat="43.72565" lon="6.94302">
        <ele>1023</ele>
        <time>2015-11-07T09:23:18Z</time>
      </trkpt>
      <trkpt lat="43.72568" lon="6.94301">
        <ele>1022.2</ele>
        <time>2015-11-07T09:23:19Z</time>
      </trkpt>
      <trkpt lat="43.72572" lon="6.94304">
        <ele>1021.6</ele>
        <time>2015-11-07T09:23:20Z</time>
      </trkpt>
      <trkpt lat="43.72573" lon="6.94306">
        <ele>1021.2</ele>
        <time>2015-11-07T09:23:21Z</time>
      </trkpt>
      <trkpt lat="43.72574" lon="6.9431">
        <ele>1020.6</ele>
        <time>2015-11-07T09:23:22Z</time>
      </trkpt>
      <trkpt lat="43.72575" lon="6.94312">
        <ele>1020.2</ele>
        <time>2015-11-07T09:23:23Z</time>
      </trkpt>
      <trkpt lat="43.72576" lon="6.94315">
        <ele>1019.6</ele>
        <time>2015-11-07T09:23:24Z</time>
      </trkpt>
      <trkpt lat="43.72579" lon="6.94326">
        <ele>1019.2</ele>
        <time>2015-11-07T09:23:26Z</time>
      </trkpt>
      <trkpt lat="43.7258" lon="6.94333">
        <ele>1018.8</ele>
        <time>2015-11-07T09:23:27Z</time>
      </trkpt>
      <trkpt lat="43.72582" lon="6.9434">
        <ele>1018.2</ele>
        <time>2015-11-07T09:23:28Z</time>
      </trkpt>
      <trkpt lat="43.72583" lon="6.94349">
        <ele>1017.8</ele>
        <time>2015-11-07T09:23:29Z</time>
      </trkpt>
      <trkpt lat="43.72581" lon="6.94356">
        <ele>1017.2</ele>
        <time>2015-11-07T09:23:30Z</time>
      </trkpt>
      <trkpt lat="43.7258" lon="6.94362">
        <ele>1017.2</ele>
        <time>2015-11-07T09:23:31Z</time>
      </trkpt>
      <trkpt lat="43.72575" lon="6.94377">
        <ele>1017.2</ele>
        <time>2015-11-07T09:23:34Z</time>
      </trkpt>
      <trkpt lat="43.72576" lon="6.94386">
        <ele>1016.8</ele>
        <time>2015-11-07T09:23:36Z</time>
      </trkpt>
      <trkpt lat="43.72577" lon="6.94387">
        <ele>1016.4</ele>
        <time>2015-11-07T09:23:37Z</time>
      </trkpt>
      <trkpt lat="43.72578" lon="6.94387">
        <ele>1016</ele>
        <time>2015-11-07T09:23:38Z</time>
      </trkpt>
      <trkpt lat="43.72579" lon="6.94388">
        <ele>1015.4</ele>
        <time>2015-11-07T09:23:39Z</time>
      </trkpt>
      <trkpt lat="43.72583" lon="6.94385">
        <ele>1014.8</ele>
        <time>2015-11-07T09:23:40Z</time>
      </trkpt>
      <trkpt lat="43.72584" lon="6.94384">
        <ele>1014.2</ele>
        <time>2015-11-07T09:23:41Z</time>
      </trkpt>
      <trkpt lat="43.72585" lon="6.94383">
        <ele>1013.4</ele>
        <time>2015-11-07T09:23:42Z</time>
      </trkpt>
      <trkpt lat="43.72588" lon="6.94381">
        <ele>1012.6</ele>
        <time>2015-11-07T09:23:43Z</time>
      </trkpt>
      <trkpt lat="43.7259" lon="6.94378">
        <ele>1011.8</ele>
        <time>2015-11-07T09:23:44Z</time>
      </trkpt>
      <trkpt lat="43.72593" lon="6.94377">
        <ele>1011</ele>
        <time>2015-11-07T09:23:45Z</time>
      </trkpt>
      <trkpt lat="43.72596" lon="6.94375">
        <ele>1010.4</ele>
        <time>2015-11-07T09:23:46Z</time>
      </trkpt>
      <trkpt lat="43.72599" lon="6.94374">
        <ele>1009.6</ele>
        <time>2015-11-07T09:23:47Z</time>
      </trkpt>
      <trkpt lat="43.72601" lon="6.94372">
        <ele>1008.8</ele>
        <time>2015-11-07T09:23:48Z</time>
      </trkpt>
      <trkpt lat="43.72604" lon="6.9437">
        <ele>1008</ele>
        <time>2015-11-07T09:23:49Z</time>
      </trkpt>
      <trkpt lat="43.72607" lon="6.94368">
        <ele>1007.6</ele>
        <time>2015-11-07T09:23:50Z</time>
      </trkpt>
      <trkpt lat="43.72609" lon="6.94366">
        <ele>1007</ele>
        <time>2015-11-07T09:23:51Z</time>
      </trkpt>
      <trkpt lat="43.72611" lon="6.94366">
        <ele>1006.4</ele>
        <time>2015-11-07T09:23:52Z</time>
      </trkpt>
      <trkpt lat="43.72612" lon="6.94365">
        <ele>1005.8</ele>
        <time>2015-11-07T09:23:53Z</time>
      </trkpt>
      <trkpt lat="43.72613" lon="6.94366">
        <ele>1005.2</ele>
        <time>2015-11-07T09:23:54Z</time>
      </trkpt>
      <trkpt lat="43.72615" lon="6.94371">
        <ele>1004.8</ele>
        <time>2015-11-07T09:23:55Z</time>
      </trkpt>
      <trkpt lat="43.72616" lon="6.94372">
        <ele>1004.4</ele>
        <time>2015-11-07T09:23:56Z</time>
      </trkpt>
      <trkpt lat="43.72618" lon="6.94371">
        <ele>1004</ele>
        <time>2015-11-07T09:23:57Z</time>
      </trkpt>
      <trkpt lat="43.72621" lon="6.94369">
        <ele>1003.6</ele>
        <time>2015-11-07T09:23:58Z</time>
      </trkpt>
      <trkpt lat="43.72625" lon="6.94367">
        <ele>1003</ele>
        <time>2015-11-07T09:23:59Z</time>
      </trkpt>
      <trkpt lat="43.72628" lon="6.94365">
        <ele>1002.6</ele>
        <time>2015-11-07T09:24:00Z</time>
      </trkpt>
      <trkpt lat="43.72631" lon="6.94362">
        <ele>1002</ele>
        <time>2015-11-07T09:24:01Z</time>
      </trkpt>
      <trkpt lat="43.72635" lon="6.94359">
        <ele>1001.6</ele>
        <time>2015-11-07T09:24:02Z</time>
      </trkpt>
      <trkpt lat="43.72636" lon="6.94357">
        <ele>1001</ele>
        <time>2015-11-07T09:24:03Z</time>
      </trkpt>
      <trkpt lat="43.72638" lon="6.94358">
        <ele>1000.6</ele>
        <time>2015-11-07T09:24:04Z</time>
      </trkpt>
      <trkpt lat="43.72641" lon="6.9436">
        <ele>1000.2</ele>
        <time>2015-11-07T09:24:05Z</time>
      </trkpt>
      <trkpt lat="43.72644" lon="6.94362">
        <ele>999.6</ele>
        <time>2015-11-07T09:24:06Z</time>
      </trkpt>
      <trkpt lat="43.72644" lon="6.94367">
        <ele>998.8</ele>
        <time>2015-11-07T09:24:07Z</time>
      </trkpt>
      <trkpt lat="43.72646" lon="6.9437">
        <ele>998.2</ele>
        <time>2015-11-07T09:24:08Z</time>
      </trkpt>
      <trkpt lat="43.72648" lon="6.94373">
        <ele>997.4</ele>
        <time>2015-11-07T09:24:09Z</time>
      </trkpt>
      <trkpt lat="43.72649" lon="6.94374">
        <ele>996.6</ele>
        <time>2015-11-07T09:24:10Z</time>
      </trkpt>
      <trkpt lat="43.7265" lon="6.94376">
        <ele>995.8</ele>
        <time>2015-11-07T09:24:11Z</time>
      </trkpt>
      <trkpt lat="43.7265" lon="6.94379">
        <ele>995</ele>
        <time>2015-11-07T09:24:12Z</time>
      </trkpt>
      <trkpt lat="43.72651" lon="6.94384">
        <ele>994.2</ele>
        <time>2015-11-07T09:24:13Z</time>
      </trkpt>
      <trkpt lat="43.72651" lon="6.94388">
        <ele>993.4</ele>
        <time>2015-11-07T09:24:14Z</time>
      </trkpt>
      <trkpt lat="43.7265" lon="6.94391">
        <ele>993.4</ele>
        <time>2015-11-07T09:24:15Z</time>
      </trkpt>
      <trkpt lat="43.72649" lon="6.94398">
        <ele>993</ele>
        <time>2015-11-07T09:24:16Z</time>
      </trkpt>
      <trkpt lat="43.7265" lon="6.94403">
        <ele>992.6</ele>
        <time>2015-11-07T09:24:17Z</time>
      </trkpt>
      <trkpt lat="43.72651" lon="6.94407">
        <ele>992</ele>
        <time>2015-11-07T09:24:18Z</time>
      </trkpt>
      <trkpt lat="43.72652" lon="6.94411">
        <ele>991.6</ele>
        <time>2015-11-07T09:24:19Z</time>
      </trkpt>
      <trkpt lat="43.72653" lon="6.94413">
        <ele>991</ele>
        <time>2015-11-07T09:24:20Z</time>
      </trkpt>
      <trkpt lat="43.72656" lon="6.94417">
        <ele>990.4</ele>
        <time>2015-11-07T09:24:21Z</time>
      </trkpt>
      <trkpt lat="43.72659" lon="6.94422">
        <ele>990</ele>
        <time>2015-11-07T09:24:22Z</time>
      </trkpt>
      <trkpt lat="43.72664" lon="6.94429">
        <ele>989.2</ele>
        <time>2015-11-07T09:24:23Z</time>
      </trkpt>
      <trkpt lat="43.72671" lon="6.94431">
        <ele>988.6</ele>
        <time>2015-11-07T09:24:24Z</time>
      </trkpt>
      <trkpt lat="43.72677" lon="6.94434">
        <ele>988</ele>
        <time>2015-11-07T09:24:25Z</time>
      </trkpt>
      <trkpt lat="43.72684" lon="6.94441">
        <ele>987.4</ele>
        <time>2015-11-07T09:24:26Z</time>
      </trkpt>
      <trkpt lat="43.72688" lon="6.94446">
        <ele>986.6</ele>
        <time>2015-11-07T09:24:27Z</time>
      </trkpt>
      <trkpt lat="43.72702" lon="6.94469">
        <ele>986.6</ele>
        <time>2015-11-07T09:24:31Z</time>
      </trkpt>
      <trkpt lat="43.72708" lon="6.94501">
        <ele>986.2</ele>
        <time>2015-11-07T09:24:36Z</time>
      </trkpt>
      <trkpt lat="43.72709" lon="6.94507">
        <ele>985.8</ele>
        <time>2015-11-07T09:24:37Z</time>
      </trkpt>
      <trkpt lat="43.72711" lon="6.94512">
        <ele>985.4</ele>
        <time>2015-11-07T09:24:38Z</time>
      </trkpt>
      <trkpt lat="43.72713" lon="6.94517">
        <ele>985</ele>
        <time>2015-11-07T09:24:39Z</time>
      </trkpt>
      <trkpt lat="43.72714" lon="6.94521">
        <ele>984.6</ele>
        <time>2015-11-07T09:24:40Z</time>
      </trkpt>
      <trkpt lat="43.72715" lon="6.94526">
        <ele>984</ele>
        <time>2015-11-07T09:24:41Z</time>
      </trkpt>
      <trkpt lat="43.72716" lon="6.94533">
        <ele>983.4</ele>
        <time>2015-11-07T09:24:42Z</time>
      </trkpt>
      <trkpt lat="43.72718" lon="6.94541">
        <ele>982.6</ele>
        <time>2015-11-07T09:24:43Z</time>
      </trkpt>
      <trkpt lat="43.7272" lon="6.94548">
        <ele>981.8</ele>
        <time>2015-11-07T09:24:44Z</time>
      </trkpt>
      <trkpt lat="43.72721" lon="6.94556">
        <ele>981</ele>
        <time>2015-11-07T09:24:45Z</time>
      </trkpt>
      <trkpt lat="43.72722" lon="6.94567">
        <ele>980</ele>
        <time>2015-11-07T09:24:46Z</time>
      </trkpt>
      <trkpt lat="43.72723" lon="6.94578">
        <ele>978.8</ele>
        <time>2015-11-07T09:24:47Z</time>
      </trkpt>
      <trkpt lat="43.72723" lon="6.94589">
        <ele>977.6</ele>
        <time>2015-11-07T09:24:48Z</time>
      </trkpt>
      <trkpt lat="43.72722" lon="6.94601">
        <ele>976.6</ele>
        <time>2015-11-07T09:24:49Z</time>
      </trkpt>
      <trkpt lat="43.72723" lon="6.9461">
        <ele>975.6</ele>
        <time>2015-11-07T09:24:50Z</time>
      </trkpt>
      <trkpt lat="43.72724" lon="6.94619">
        <ele>974.8</ele>
        <time>2015-11-07T09:24:51Z</time>
      </trkpt>
      <trkpt lat="43.72725" lon="6.94629">
        <ele>973.8</ele>
        <time>2015-11-07T09:24:52Z</time>
      </trkpt>
      <trkpt lat="43.72727" lon="6.94638">
        <ele>972.8</ele>
        <time>2015-11-07T09:24:53Z</time>
      </trkpt>
      <trkpt lat="43.72728" lon="6.94646">
        <ele>972</ele>
        <time>2015-11-07T09:24:54Z</time>
      </trkpt>
      <trkpt lat="43.72729" lon="6.94662">
        <ele>972</ele>
        <time>2015-11-07T09:24:56Z</time>
      </trkpt>
      <trkpt lat="43.72729" lon="6.94674">
        <ele>972</ele>
        <time>2015-11-07T09:24:58Z</time>
      </trkpt>
      <trkpt lat="43.72729" lon="6.94681">
        <ele>972</ele>
        <time>2015-11-07T09:25:02Z</time>
      </trkpt>
      <trkpt lat="43.72728" lon="6.94678">
        <ele>972</ele>
        <time>2015-11-07T09:25:16Z</time>
      </trkpt>
      <trkpt lat="43.72725" lon="6.94682">
        <ele>972</ele>
        <time>2015-11-07T09:27:03Z</time>
      </trkpt>
      <trkpt lat="43.72722" lon="6.94684">
        <ele>972</ele>
        <time>2015-11-07T09:27:04Z</time>
      </trkpt>
      <trkpt lat="43.72712" lon="6.9471">
        <ele>972</ele>
        <time>2015-11-07T09:27:12Z</time>
      </trkpt>
      <trkpt lat="43.72711" lon="6.94726">
        <ele>971.4</ele>
        <time>2015-11-07T09:27:15Z</time>
      </trkpt>
      <trkpt lat="43.72709" lon="6.94731">
        <ele>971</ele>
        <time>2015-11-07T09:27:16Z</time>
      </trkpt>
      <trkpt lat="43.72708" lon="6.94736">
        <ele>970.4</ele>
        <time>2015-11-07T09:27:17Z</time>
      </trkpt>
      <trkpt lat="43.72706" lon="6.9474">
        <ele>970</ele>
        <time>2015-11-07T09:27:18Z</time>
      </trkpt>
      <trkpt lat="43.72703" lon="6.94744">
        <ele>969.4</ele>
        <time>2015-11-07T09:27:19Z</time>
      </trkpt>
      <trkpt lat="43.72696" lon="6.9475">
        <ele>969.4</ele>
        <time>2015-11-07T09:27:21Z</time>
      </trkpt>
      <trkpt lat="43.72678" lon="6.94752">
        <ele>969</ele>
        <time>2015-11-07T09:27:25Z</time>
      </trkpt>
      <trkpt lat="43.72673" lon="6.94752">
        <ele>968.6</ele>
        <time>2015-11-07T09:27:26Z</time>
      </trkpt>
      <trkpt lat="43.72669" lon="6.9475">
        <ele>968.2</ele>
        <time>2015-11-07T09:27:27Z</time>
      </trkpt>
      <trkpt lat="43.72665" lon="6.94749">
        <ele>967.6</ele>
        <time>2015-11-07T09:27:28Z</time>
      </trkpt>
      <trkpt lat="43.72662" lon="6.94748">
        <ele>967.2</ele>
        <time>2015-11-07T09:27:29Z</time>
      </trkpt>
      <trkpt lat="43.72638" lon="6.94748">
        <ele>967.2</ele>
        <time>2015-11-07T09:27:34Z</time>
      </trkpt>
      <trkpt lat="43.72633" lon="6.94748">
        <ele>966.8</ele>
        <time>2015-11-07T09:27:35Z</time>
      </trkpt>
      <trkpt lat="43.72628" lon="6.94749">
        <ele>966.4</ele>
        <time>2015-11-07T09:27:36Z</time>
      </trkpt>
      <trkpt lat="43.72623" lon="6.94749">
        <ele>966</ele>
        <time>2015-11-07T09:27:37Z</time>
      </trkpt>
      <trkpt lat="43.72619" lon="6.94748">
        <ele>965.6</ele>
        <time>2015-11-07T09:27:38Z</time>
      </trkpt>
      <trkpt lat="43.72616" lon="6.94748">
        <ele>965.2</ele>
        <time>2015-11-07T09:27:39Z</time>
      </trkpt>
      <trkpt lat="43.72615" lon="6.94747">
        <ele>965.2</ele>
        <time>2015-11-07T09:27:40Z</time>
      </trkpt>
      <trkpt lat="43.72614" lon="6.94745">
        <ele>965.6</ele>
        <time>2015-11-07T09:27:41Z</time>
      </trkpt>
      <trkpt lat="43.72613" lon="6.94743">
        <ele>966</ele>
        <time>2015-11-07T09:27:42Z</time>
      </trkpt>
      <trkpt lat="43.72611" lon="6.94743">
        <ele>966.4</ele>
        <time>2015-11-07T09:27:43Z</time>
      </trkpt>
      <trkpt lat="43.72609" lon="6.94743">
        <ele>966.8</ele>
        <time>2015-11-07T09:27:44Z</time>
      </trkpt>
      <trkpt lat="43.72607" lon="6.94744">
        <ele>967.2</ele>
        <time>2015-11-07T09:27:45Z</time>
      </trkpt>
      <trkpt lat="43.72595" lon="6.94759">
        <ele>967.2</ele>
        <time>2015-11-07T09:27:51Z</time>
      </trkpt>
      <trkpt lat="43.72586" lon="6.9478">
        <ele>967.2</ele>
        <time>2015-11-07T09:27:57Z</time>
      </trkpt>
      <trkpt lat="43.72586" lon="6.94794">
        <ele>967.2</ele>
        <time>2015-11-07T09:27:59Z</time>
      </trkpt>
      <trkpt lat="43.72586" lon="6.948">
        <ele>967.2</ele>
        <time>2015-11-07T09:28:00Z</time>
      </trkpt>
      <trkpt lat="43.72585" lon="6.9481">
        <ele>966.8</ele>
        <time>2015-11-07T09:28:02Z</time>
      </trkpt>
      <trkpt lat="43.72584" lon="6.94815">
        <ele>966.4</ele>
        <time>2015-11-07T09:28:03Z</time>
      </trkpt>
      <trkpt lat="43.72584" lon="6.94819">
        <ele>966</ele>
        <time>2015-11-07T09:28:04Z</time>
      </trkpt>
      <trkpt lat="43.72583" lon="6.94822">
        <ele>965.6</ele>
        <time>2015-11-07T09:28:05Z</time>
      </trkpt>
      <trkpt lat="43.72583" lon="6.94826">
        <ele>965.2</ele>
        <time>2015-11-07T09:28:06Z</time>
      </trkpt>
      <trkpt lat="43.72582" lon="6.94843">
        <ele>965.2</ele>
        <time>2015-11-07T09:28:11Z</time>
      </trkpt>
      <trkpt lat="43.72582" lon="6.9487">
        <ele>965.2</ele>
        <time>2015-11-07T09:28:18Z</time>
      </trkpt>
      <trkpt lat="43.72579" lon="6.94892">
        <ele>964.8</ele>
        <time>2015-11-07T09:28:23Z</time>
      </trkpt>
      <trkpt lat="43.72579" lon="6.94897">
        <ele>964.4</ele>
        <time>2015-11-07T09:28:24Z</time>
      </trkpt>
      <trkpt lat="43.72579" lon="6.94902">
        <ele>964</ele>
        <time>2015-11-07T09:28:25Z</time>
      </trkpt>
      <trkpt lat="43.72578" lon="6.94906">
        <ele>963.4</ele>
        <time>2015-11-07T09:28:26Z</time>
      </trkpt>
      <trkpt lat="43.72577" lon="6.9491">
        <ele>963</ele>
        <time>2015-11-07T09:28:27Z</time>
      </trkpt>
      <trkpt lat="43.72574" lon="6.94918">
        <ele>963</ele>
        <time>2015-11-07T09:28:30Z</time>
      </trkpt>
      <trkpt lat="43.7258" lon="6.94929">
        <ele>962.6</ele>
        <time>2015-11-07T09:28:35Z</time>
      </trkpt>
      <trkpt lat="43.72582" lon="6.94932">
        <ele>962.2</ele>
        <time>2015-11-07T09:28:36Z</time>
      </trkpt>
      <trkpt lat="43.72583" lon="6.94935">
        <ele>961.6</ele>
        <time>2015-11-07T09:28:37Z</time>
      </trkpt>
      <trkpt lat="43.72583" lon="6.94939">
        <ele>961.2</ele>
        <time>2015-11-07T09:28:38Z</time>
      </trkpt>
      <trkpt lat="43.72585" lon="6.94942">
        <ele>960.8</ele>
        <time>2015-11-07T09:28:39Z</time>
      </trkpt>
      <trkpt lat="43.72587" lon="6.94943">
        <ele>960.2</ele>
        <time>2015-11-07T09:28:40Z</time>
      </trkpt>
      <trkpt lat="43.72589" lon="6.94944">
        <ele>959.8</ele>
        <time>2015-11-07T09:28:41Z</time>
      </trkpt>
      <trkpt lat="43.72591" lon="6.94945">
        <ele>959.2</ele>
        <time>2015-11-07T09:28:42Z</time>
      </trkpt>
      <trkpt lat="43.72592" lon="6.94948">
        <ele>958.6</ele>
        <time>2015-11-07T09:28:43Z</time>
      </trkpt>
      <trkpt lat="43.72595" lon="6.94963">
        <ele>958.6</ele>
        <time>2015-11-07T09:28:47Z</time>
      </trkpt>
      <trkpt lat="43.72595" lon="6.94964">
        <ele>958.2</ele>
        <time>2015-11-07T09:28:48Z</time>
      </trkpt>
      <trkpt lat="43.72595" lon="6.94964">
        <ele>957.8</ele>
        <time>2015-11-07T09:28:49Z</time>
      </trkpt>
      <trkpt lat="43.72595" lon="6.94964">
        <ele>957.4</ele>
        <time>2015-11-07T09:28:50Z</time>
      </trkpt>
      <trkpt lat="43.72595" lon="6.94964">
        <ele>957</ele>
        <time>2015-11-07T09:28:51Z</time>
      </trkpt>
      <trkpt lat="43.72595" lon="6.94964">
        <ele>956.4</ele>
        <time>2015-11-07T09:28:52Z</time>
      </trkpt>
      <trkpt lat="43.726" lon="6.94971">
        <ele>956.4</ele>
        <time>2015-11-07T09:29:16Z</time>
      </trkpt>
      <trkpt lat="43.72602" lon="6.94973">
        <ele>956</ele>
        <time>2015-11-07T09:29:17Z</time>
      </trkpt>
      <trkpt lat="43.72605" lon="6.94974">
        <ele>955.6</ele>
        <time>2015-11-07T09:29:18Z</time>
      </trkpt>
      <trkpt lat="43.72609" lon="6.94976">
        <ele>955.2</ele>
        <time>2015-11-07T09:29:19Z</time>
      </trkpt>
      <trkpt lat="43.72614" lon="6.94978">
        <ele>954.6</ele>
        <time>2015-11-07T09:29:20Z</time>
      </trkpt>
      <trkpt lat="43.72617" lon="6.9498">
        <ele>953.8</ele>
        <time>2015-11-07T09:29:21Z</time>
      </trkpt>
      <trkpt lat="43.72621" lon="6.94982">
        <ele>953</ele>
        <time>2015-11-07T09:29:22Z</time>
      </trkpt>
      <trkpt lat="43.72623" lon="6.94985">
        <ele>952.4</ele>
        <time>2015-11-07T09:29:23Z</time>
      </trkpt>
      <trkpt lat="43.72623" lon="6.94987">
        <ele>951.6</ele>
        <time>2015-11-07T09:29:24Z</time>
      </trkpt>
      <trkpt lat="43.72622" lon="6.94987">
        <ele>950.8</ele>
        <time>2015-11-07T09:29:25Z</time>
      </trkpt>
      <trkpt lat="43.72623" lon="6.94987">
        <ele>950</ele>
        <time>2015-11-07T09:29:26Z</time>
      </trkpt>
      <trkpt lat="43.72623" lon="6.94987">
        <ele>949.4</ele>
        <time>2015-11-07T09:29:27Z</time>
      </trkpt>
      <trkpt lat="43.72624" lon="6.94999">
        <ele>949.4</ele>
        <time>2015-11-07T09:29:38Z</time>
      </trkpt>
      <trkpt lat="43.72623" lon="6.94996">
        <ele>949.4</ele>
        <time>2015-11-07T09:29:42Z</time>
      </trkpt>
      <trkpt lat="43.72621" lon="6.94979">
        <ele>949.4</ele>
        <time>2015-11-07T09:29:51Z</time>
      </trkpt>
      <trkpt lat="43.72619" lon="6.94972">
        <ele>949.4</ele>
        <time>2015-11-07T09:29:59Z</time>
      </trkpt>
      <trkpt lat="43.72621" lon="6.9497">
        <ele>949.4</ele>
        <time>2015-11-07T09:30:04Z</time>
      </trkpt>
      <trkpt lat="43.72628" lon="6.94961">
        <ele>949.4</ele>
        <time>2015-11-07T09:30:15Z</time>
      </trkpt>
      <trkpt lat="43.72634" lon="6.94957">
        <ele>948.8</ele>
        <time>2015-11-07T09:30:19Z</time>
      </trkpt>
      <trkpt lat="43.72639" lon="6.94953">
        <ele>947.6</ele>
        <time>2015-11-07T09:30:21Z</time>
      </trkpt>
      <trkpt lat="43.72645" lon="6.94945">
        <ele>946.4</ele>
        <time>2015-11-07T09:30:23Z</time>
      </trkpt>
      <trkpt lat="43.72646" lon="6.94942">
        <ele>945.6</ele>
        <time>2015-11-07T09:30:24Z</time>
      </trkpt>
      <trkpt lat="43.72648" lon="6.9494">
        <ele>945</ele>
        <time>2015-11-07T09:30:25Z</time>
      </trkpt>
      <trkpt lat="43.72652" lon="6.94941">
        <ele>944.4</ele>
        <time>2015-11-07T09:30:26Z</time>
      </trkpt>
      <trkpt lat="43.72654" lon="6.94941">
        <ele>944</ele>
        <time>2015-11-07T09:30:27Z</time>
      </trkpt>
      <trkpt lat="43.72659" lon="6.94941">
        <ele>943.4</ele>
        <time>2015-11-07T09:30:28Z</time>
      </trkpt>
      <trkpt lat="43.72663" lon="6.9494">
        <ele>943</ele>
        <time>2015-11-07T09:30:29Z</time>
      </trkpt>
      <trkpt lat="43.72668" lon="6.94943">
        <ele>942.2</ele>
        <time>2015-11-07T09:30:30Z</time>
      </trkpt>
      <trkpt lat="43.72673" lon="6.94945">
        <ele>941.4</ele>
        <time>2015-11-07T09:30:31Z</time>
      </trkpt>
      <trkpt lat="43.72679" lon="6.94948">
        <ele>940.6</ele>
        <time>2015-11-07T09:30:32Z</time>
      </trkpt>
      <trkpt lat="43.72682" lon="6.94951">
        <ele>939.8</ele>
        <time>2015-11-07T09:30:33Z</time>
      </trkpt>
      <trkpt lat="43.72686" lon="6.94955">
        <ele>939</ele>
        <time>2015-11-07T09:30:34Z</time>
      </trkpt>
      <trkpt lat="43.72689" lon="6.9496">
        <ele>938.2</ele>
        <time>2015-11-07T09:30:35Z</time>
      </trkpt>
      <trkpt lat="43.72691" lon="6.94966">
        <ele>937.4</ele>
        <time>2015-11-07T09:30:36Z</time>
      </trkpt>
      <trkpt lat="43.72693" lon="6.94972">
        <ele>936.6</ele>
        <time>2015-11-07T09:30:37Z</time>
      </trkpt>
      <trkpt lat="43.72693" lon="6.94976">
        <ele>936</ele>
        <time>2015-11-07T09:30:38Z</time>
      </trkpt>
      <trkpt lat="43.72694" lon="6.94981">
        <ele>935.6</ele>
        <time>2015-11-07T09:30:39Z</time>
      </trkpt>
      <trkpt lat="43.72694" lon="6.94986">
        <ele>935</ele>
        <time>2015-11-07T09:30:40Z</time>
      </trkpt>
      <trkpt lat="43.72692" lon="6.94991">
        <ele>934.6</ele>
        <time>2015-11-07T09:30:41Z</time>
      </trkpt>
      <trkpt lat="43.7269" lon="6.94998">
        <ele>934</ele>
        <time>2015-11-07T09:30:42Z</time>
      </trkpt>
      <trkpt lat="43.72688" lon="6.95003">
        <ele>934</ele>
        <time>2015-11-07T09:30:43Z</time>
      </trkpt>
      <trkpt lat="43.72683" lon="6.95018">
        <ele>934</ele>
        <time>2015-11-07T09:30:47Z</time>
      </trkpt>
      <trkpt lat="43.72683" lon="6.95023">
        <ele>934</ele>
        <time>2015-11-07T09:30:48Z</time>
      </trkpt>
      <trkpt lat="43.7268" lon="6.95039">
        <ele>933.6</ele>
        <time>2015-11-07T09:30:52Z</time>
      </trkpt>
      <trkpt lat="43.7268" lon="6.95043">
        <ele>933</ele>
        <time>2015-11-07T09:30:53Z</time>
      </trkpt>
      <trkpt lat="43.72681" lon="6.95046">
        <ele>932.6</ele>
        <time>2015-11-07T09:30:54Z</time>
      </trkpt>
      <trkpt lat="43.72682" lon="6.95048">
        <ele>932</ele>
        <time>2015-11-07T09:30:55Z</time>
      </trkpt>
      <trkpt lat="43.72684" lon="6.95049">
        <ele>931.6</ele>
        <time>2015-11-07T09:30:56Z</time>
      </trkpt>
      <trkpt lat="43.72687" lon="6.95051">
        <ele>931.2</ele>
        <time>2015-11-07T09:30:57Z</time>
      </trkpt>
      <trkpt lat="43.72689" lon="6.95052">
        <ele>930.6</ele>
        <time>2015-11-07T09:30:58Z</time>
      </trkpt>
      <trkpt lat="43.72692" lon="6.95052">
        <ele>930.2</ele>
        <time>2015-11-07T09:30:59Z</time>
      </trkpt>
      <trkpt lat="43.72694" lon="6.95052">
        <ele>929.6</ele>
        <time>2015-11-07T09:31:00Z</time>
      </trkpt>
      <trkpt lat="43.72695" lon="6.95051">
        <ele>929</ele>
        <time>2015-11-07T09:31:01Z</time>
      </trkpt>
      <trkpt lat="43.72699" lon="6.9505">
        <ele>928.4</ele>
        <time>2015-11-07T09:31:02Z</time>
      </trkpt>
      <trkpt lat="43.72702" lon="6.9505">
        <ele>927.6</ele>
        <time>2015-11-07T09:31:03Z</time>
      </trkpt>
      <trkpt lat="43.72706" lon="6.95048">
        <ele>927</ele>
        <time>2015-11-07T09:31:04Z</time>
      </trkpt>
      <trkpt lat="43.72709" lon="6.95048">
        <ele>926.2</ele>
        <time>2015-11-07T09:31:05Z</time>
      </trkpt>
      <trkpt lat="43.72712" lon="6.95051">
        <ele>925.4</ele>
        <time>2015-11-07T09:31:06Z</time>
      </trkpt>
      <trkpt lat="43.72714" lon="6.95053">
        <ele>924.6</ele>
        <time>2015-11-07T09:31:07Z</time>
      </trkpt>
      <trkpt lat="43.72715" lon="6.95054">
        <ele>924.6</ele>
        <time>2015-11-07T09:31:11Z</time>
      </trkpt>
      <trkpt lat="43.72717" lon="6.95056">
        <ele>924.2</ele>
        <time>2015-11-07T09:31:12Z</time>
      </trkpt>
      <trkpt lat="43.72719" lon="6.95057">
        <ele>923.8</ele>
        <time>2015-11-07T09:31:13Z</time>
      </trkpt>
      <trkpt lat="43.7272" lon="6.95059">
        <ele>923.4</ele>
        <time>2015-11-07T09:31:14Z</time>
      </trkpt>
      <trkpt lat="43.72722" lon="6.95061">
        <ele>922.8</ele>
        <time>2015-11-07T09:31:15Z</time>
      </trkpt>
      <trkpt lat="43.72724" lon="6.95062">
        <ele>922.4</ele>
        <time>2015-11-07T09:31:16Z</time>
      </trkpt>
      <trkpt lat="43.72725" lon="6.95064">
        <ele>921.6</ele>
        <time>2015-11-07T09:31:22Z</time>
      </trkpt>
      <trkpt lat="43.72727" lon="6.95066">
        <ele>921.2</ele>
        <time>2015-11-07T09:31:23Z</time>
      </trkpt>
      <trkpt lat="43.72734" lon="6.95073">
        <ele>920.4</ele>
        <time>2015-11-07T09:31:25Z</time>
      </trkpt>
      <trkpt lat="43.72747" lon="6.95084">
        <ele>920.4</ele>
        <time>2015-11-07T09:31:30Z</time>
      </trkpt>
      <trkpt lat="43.72756" lon="6.95094">
        <ele>920.4</ele>
        <time>2015-11-07T09:31:36Z</time>
      </trkpt>
      <trkpt lat="43.72759" lon="6.95097">
        <ele>920.4</ele>
        <time>2015-11-07T09:31:42Z</time>
      </trkpt>
      <trkpt lat="43.72765" lon="6.95103">
        <ele>920.4</ele>
        <time>2015-11-07T09:31:50Z</time>
      </trkpt>
      <trkpt lat="43.72769" lon="6.95112">
        <ele>920.4</ele>
        <time>2015-11-07T09:31:56Z</time>
      </trkpt>
      <trkpt lat="43.7277" lon="6.95112">
        <ele>920.8</ele>
        <time>2015-11-07T09:31:57Z</time>
      </trkpt>
      <trkpt lat="43.72771" lon="6.95111">
        <ele>921.2</ele>
        <time>2015-11-07T09:31:58Z</time>
      </trkpt>
      <trkpt lat="43.72772" lon="6.95112">
        <ele>921.8</ele>
        <time>2015-11-07T09:31:59Z</time>
      </trkpt>
      <trkpt lat="43.72772" lon="6.95112">
        <ele>922.2</ele>
        <time>2015-11-07T09:32:00Z</time>
      </trkpt>
      <trkpt lat="43.72773" lon="6.95113">
        <ele>922.6</ele>
        <time>2015-11-07T09:32:01Z</time>
      </trkpt>
      <trkpt lat="43.72773" lon="6.95113">
        <ele>922.6</ele>
        <time>2015-11-07T09:32:02Z</time>
      </trkpt>
      <trkpt lat="43.72775" lon="6.95114">
        <ele>922.6</ele>
        <time>2015-11-07T09:32:04Z</time>
      </trkpt>
      <trkpt lat="43.72775" lon="6.95117">
        <ele>922.6</ele>
        <time>2015-11-07T09:32:06Z</time>
      </trkpt>
      <trkpt lat="43.72775" lon="6.95118">
        <ele>922.6</ele>
        <time>2015-11-07T09:32:08Z</time>
      </trkpt>
      <trkpt lat="43.72775" lon="6.95119">
        <ele>922.6</ele>
        <time>2015-11-07T09:32:17Z</time>
      </trkpt>
      <trkpt lat="43.72776" lon="6.9512">
        <ele>922.6</ele>
        <time>2015-11-07T09:32:20Z</time>
      </trkpt>
      <trkpt lat="43.7278" lon="6.95123">
        <ele>922.6</ele>
        <time>2015-11-07T09:32:23Z</time>
      </trkpt>
      <trkpt lat="43.72789" lon="6.95142">
        <ele>922.2</ele>
        <time>2015-11-07T09:32:31Z</time>
      </trkpt>
      <trkpt lat="43.72791" lon="6.95145">
        <ele>921.6</ele>
        <time>2015-11-07T09:32:32Z</time>
      </trkpt>
      <trkpt lat="43.72792" lon="6.95146">
        <ele>921.2</ele>
        <time>2015-11-07T09:32:33Z</time>
      </trkpt>
      <trkpt lat="43.72794" lon="6.95149">
        <ele>920.6</ele>
        <time>2015-11-07T09:32:34Z</time>
      </trkpt>
      <trkpt lat="43.72797" lon="6.9515">
        <ele>920</ele>
        <time>2015-11-07T09:32:35Z</time>
      </trkpt>
      <trkpt lat="43.72801" lon="6.95151">
        <ele>919.4</ele>
        <time>2015-11-07T09:32:36Z</time>
      </trkpt>
      <trkpt lat="43.72804" lon="6.95153">
        <ele>918.8</ele>
        <time>2015-11-07T09:32:37Z</time>
      </trkpt>
      <trkpt lat="43.72808" lon="6.95155">
        <ele>918.4</ele>
        <time>2015-11-07T09:32:38Z</time>
      </trkpt>
      <trkpt lat="43.72811" lon="6.95159">
        <ele>917.8</ele>
        <time>2015-11-07T09:32:39Z</time>
      </trkpt>
      <trkpt lat="43.72815" lon="6.95162">
        <ele>917.2</ele>
        <time>2015-11-07T09:32:40Z</time>
      </trkpt>
      <trkpt lat="43.72817" lon="6.95164">
        <ele>916.6</ele>
        <time>2015-11-07T09:32:41Z</time>
      </trkpt>
      <trkpt lat="43.72818" lon="6.95167">
        <ele>916</ele>
        <time>2015-11-07T09:32:42Z</time>
      </trkpt>
      <trkpt lat="43.7282" lon="6.9517">
        <ele>915.4</ele>
        <time>2015-11-07T09:32:43Z</time>
      </trkpt>
      <trkpt lat="43.72825" lon="6.95181">
        <ele>915.4</ele>
        <time>2015-11-07T09:32:49Z</time>
      </trkpt>
      <trkpt lat="43.72836" lon="6.95199">
        <ele>915.4</ele>
        <time>2015-11-07T09:32:54Z</time>
      </trkpt>
      <trkpt lat="43.72847" lon="6.95205">
        <ele>915</ele>
        <time>2015-11-07T09:32:56Z</time>
      </trkpt>
      <trkpt lat="43.72852" lon="6.95207">
        <ele>914.6</ele>
        <time>2015-11-07T09:32:57Z</time>
      </trkpt>
      <trkpt lat="43.72858" lon="6.95208">
        <ele>914.2</ele>
        <time>2015-11-07T09:32:58Z</time>
      </trkpt>
      <trkpt lat="43.72863" lon="6.9521">
        <ele>913.8</ele>
        <time>2015-11-07T09:32:59Z</time>
      </trkpt>
      <trkpt lat="43.72867" lon="6.95215">
        <ele>913</ele>
        <time>2015-11-07T09:33:00Z</time>
      </trkpt>
      <trkpt lat="43.72873" lon="6.95218">
        <ele>912.4</ele>
        <time>2015-11-07T09:33:01Z</time>
      </trkpt>
      <trkpt lat="43.72877" lon="6.95223">
        <ele>911.8</ele>
        <time>2015-11-07T09:33:02Z</time>
      </trkpt>
      <trkpt lat="43.7288" lon="6.95226">
        <ele>911.2</ele>
        <time>2015-11-07T09:33:03Z</time>
      </trkpt>
      <trkpt lat="43.72882" lon="6.95228">
        <ele>910.6</ele>
        <time>2015-11-07T09:33:04Z</time>
      </trkpt>
      <trkpt lat="43.72884" lon="6.95229">
        <ele>910.6</ele>
        <time>2015-11-07T09:33:05Z</time>
      </trkpt>
      <trkpt lat="43.72889" lon="6.95234">
        <ele>910.2</ele>
        <time>2015-11-07T09:33:08Z</time>
      </trkpt>
      <trkpt lat="43.72892" lon="6.95237">
        <ele>909.8</ele>
        <time>2015-11-07T09:33:09Z</time>
      </trkpt>
      <trkpt lat="43.72894" lon="6.9524">
        <ele>909.2</ele>
        <time>2015-11-07T09:33:10Z</time>
      </trkpt>
      <trkpt lat="43.72897" lon="6.95245">
        <ele>908.4</ele>
        <time>2015-11-07T09:33:11Z</time>
      </trkpt>
      <trkpt lat="43.72902" lon="6.9525">
        <ele>907.8</ele>
        <time>2015-11-07T09:33:12Z</time>
      </trkpt>
      <trkpt lat="43.72906" lon="6.95255">
        <ele>907</ele>
        <time>2015-11-07T09:33:13Z</time>
      </trkpt>
      <trkpt lat="43.72911" lon="6.9526">
        <ele>906.2</ele>
        <time>2015-11-07T09:33:14Z</time>
      </trkpt>
      <trkpt lat="43.72913" lon="6.95266">
        <ele>905.6</ele>
        <time>2015-11-07T09:33:15Z</time>
      </trkpt>
      <trkpt lat="43.72915" lon="6.95272">
        <ele>904.8</ele>
        <time>2015-11-07T09:33:16Z</time>
      </trkpt>
      <trkpt lat="43.72915" lon="6.95274">
        <ele>904</ele>
        <time>2015-11-07T09:33:17Z</time>
      </trkpt>
      <trkpt lat="43.72915" lon="6.95273">
        <ele>904</ele>
        <time>2015-11-07T09:33:18Z</time>
      </trkpt>
      <trkpt lat="43.72919" lon="6.95278">
        <ele>903.6</ele>
        <time>2015-11-07T09:33:52Z</time>
      </trkpt>
      <trkpt lat="43.72921" lon="6.95282">
        <ele>903</ele>
        <time>2015-11-07T09:33:53Z</time>
      </trkpt>
      <trkpt lat="43.72923" lon="6.95286">
        <ele>902.6</ele>
        <time>2015-11-07T09:33:54Z</time>
      </trkpt>
      <trkpt lat="43.72925" lon="6.95289">
        <ele>902.2</ele>
        <time>2015-11-07T09:33:55Z</time>
      </trkpt>
      <trkpt lat="43.72926" lon="6.95292">
        <ele>901.8</ele>
        <time>2015-11-07T09:33:56Z</time>
      </trkpt>
      <trkpt lat="43.72927" lon="6.95295">
        <ele>901.2</ele>
        <time>2015-11-07T09:33:57Z</time>
      </trkpt>
      <trkpt lat="43.72928" lon="6.95297">
        <ele>900.8</ele>
        <time>2015-11-07T09:33:58Z</time>
      </trkpt>
      <trkpt lat="43.7293" lon="6.95297">
        <ele>900.4</ele>
        <time>2015-11-07T09:33:59Z</time>
      </trkpt>
      <trkpt lat="43.72933" lon="6.95296">
        <ele>900</ele>
        <time>2015-11-07T09:34:00Z</time>
      </trkpt>
      <trkpt lat="43.72937" lon="6.95296">
        <ele>899.6</ele>
        <time>2015-11-07T09:34:01Z</time>
      </trkpt>
      <trkpt lat="43.72957" lon="6.95303">
        <ele>899.2</ele>
        <time>2015-11-07T09:34:06Z</time>
      </trkpt>
      <trkpt lat="43.72962" lon="6.95306">
        <ele>898.6</ele>
        <time>2015-11-07T09:34:07Z</time>
      </trkpt>
      <trkpt lat="43.72974" lon="6.95313">
        <ele>897.8</ele>
        <time>2015-11-07T09:34:09Z</time>
      </trkpt>
      <trkpt lat="43.72981" lon="6.95317">
        <ele>897</ele>
        <time>2015-11-07T09:34:10Z</time>
      </trkpt>
      <trkpt lat="43.72987" lon="6.95318">
        <ele>896.2</ele>
        <time>2015-11-07T09:34:11Z</time>
      </trkpt>
      <trkpt lat="43.72993" lon="6.95321">
        <ele>895.4</ele>
        <time>2015-11-07T09:34:12Z</time>
      </trkpt>
      <trkpt lat="43.72999" lon="6.95324">
        <ele>894.8</ele>
        <time>2015-11-07T09:34:13Z</time>
      </trkpt>
      <trkpt lat="43.73003" lon="6.95327">
        <ele>894</ele>
        <time>2015-11-07T09:34:14Z</time>
      </trkpt>
      <trkpt lat="43.73008" lon="6.95328">
        <ele>893.4</ele>
        <time>2015-11-07T09:34:15Z</time>
      </trkpt>
      <trkpt lat="43.7301" lon="6.95325">
        <ele>892.6</ele>
        <time>2015-11-07T09:34:16Z</time>
      </trkpt>
      <trkpt lat="43.7301" lon="6.95325">
        <ele>892</ele>
        <time>2015-11-07T09:34:17Z</time>
      </trkpt>
      <trkpt lat="43.7301" lon="6.95325">
        <ele>891.2</ele>
        <time>2015-11-07T09:34:18Z</time>
      </trkpt>
      <trkpt lat="43.7301" lon="6.95325">
        <ele>890.6</ele>
        <time>2015-11-07T09:34:19Z</time>
      </trkpt>
      <trkpt lat="43.7301" lon="6.95325">
        <ele>890.6</ele>
        <time>2015-11-07T09:34:21Z</time>
      </trkpt>
      <trkpt lat="43.73006" lon="6.95326">
        <ele>890.6</ele>
        <time>2015-11-07T09:34:34Z</time>
      </trkpt>
      <trkpt lat="43.73001" lon="6.95328">
        <ele>890.6</ele>
        <time>2015-11-07T09:34:40Z</time>
      </trkpt>
      <trkpt lat="43.73004" lon="6.95329">
        <ele>890.6</ele>
        <time>2015-11-07T09:34:52Z</time>
      </trkpt>
      <trkpt lat="43.73005" lon="6.95329">
        <ele>890.6</ele>
        <time>2015-11-07T09:34:59Z</time>
      </trkpt>
      <trkpt lat="43.73007" lon="6.95331">
        <ele>890.6</ele>
        <time>2015-11-07T09:35:25Z</time>
      </trkpt>
      <trkpt lat="43.73012" lon="6.9532">
        <ele>890.6</ele>
        <time>2015-11-07T09:35:36Z</time>
      </trkpt>
      <trkpt lat="43.73037" lon="6.95307">
        <ele>890.6</ele>
        <time>2015-11-07T09:35:44Z</time>
      </trkpt>
      <trkpt lat="43.73047" lon="6.95306">
        <ele>890.6</ele>
        <time>2015-11-07T09:35:48Z</time>
      </trkpt>
      <trkpt lat="43.73053" lon="6.95302">
        <ele>890.6</ele>
        <time>2015-11-07T09:35:53Z</time>
      </trkpt>
      <trkpt lat="43.73062" lon="6.95305">
        <ele>890.6</ele>
        <time>2015-11-07T09:36:09Z</time>
      </trkpt>
      <trkpt lat="43.73071" lon="6.95311">
        <ele>890.6</ele>
        <time>2015-11-07T09:36:11Z</time>
      </trkpt>
      <trkpt lat="43.7308" lon="6.95321">
        <ele>890.6</ele>
        <time>2015-11-07T09:36:14Z</time>
      </trkpt>
      <trkpt lat="43.73082" lon="6.95323">
        <ele>890.6</ele>
        <time>2015-11-07T09:36:15Z</time>
      </trkpt>
      <trkpt lat="43.73085" lon="6.95324">
        <ele>890.2</ele>
        <time>2015-11-07T09:36:16Z</time>
      </trkpt>
      <trkpt lat="43.73087" lon="6.95326">
        <ele>889.8</ele>
        <time>2015-11-07T09:36:17Z</time>
      </trkpt>
      <trkpt lat="43.7309" lon="6.95328">
        <ele>889.4</ele>
        <time>2015-11-07T09:36:18Z</time>
      </trkpt>
      <trkpt lat="43.73093" lon="6.9533">
        <ele>889</ele>
        <time>2015-11-07T09:36:19Z</time>
      </trkpt>
      <trkpt lat="43.73096" lon="6.9533">
        <ele>888.4</ele>
        <time>2015-11-07T09:36:20Z</time>
      </trkpt>
      <trkpt lat="43.73097" lon="6.95332">
        <ele>887.8</ele>
        <time>2015-11-07T09:36:21Z</time>
      </trkpt>
      <trkpt lat="43.73099" lon="6.95334">
        <ele>887.4</ele>
        <time>2015-11-07T09:36:22Z</time>
      </trkpt>
      <trkpt lat="43.73101" lon="6.95336">
        <ele>886.6</ele>
        <time>2015-11-07T09:36:23Z</time>
      </trkpt>
      <trkpt lat="43.73102" lon="6.9534">
        <ele>886</ele>
        <time>2015-11-07T09:36:24Z</time>
      </trkpt>
      <trkpt lat="43.73103" lon="6.95343">
        <ele>885.4</ele>
        <time>2015-11-07T09:36:25Z</time>
      </trkpt>
      <trkpt lat="43.73103" lon="6.95345">
        <ele>884.6</ele>
        <time>2015-11-07T09:36:26Z</time>
      </trkpt>
      <trkpt lat="43.73104" lon="6.95349">
        <ele>884</ele>
        <time>2015-11-07T09:36:27Z</time>
      </trkpt>
      <trkpt lat="43.73103" lon="6.95353">
        <ele>883.4</ele>
        <time>2015-11-07T09:36:28Z</time>
      </trkpt>
      <trkpt lat="43.73102" lon="6.95355">
        <ele>882.8</ele>
        <time>2015-11-07T09:36:29Z</time>
      </trkpt>
      <trkpt lat="43.73101" lon="6.95357">
        <ele>882.2</ele>
        <time>2015-11-07T09:36:30Z</time>
      </trkpt>
      <trkpt lat="43.73099" lon="6.95362">
        <ele>881.6</ele>
        <time>2015-11-07T09:36:31Z</time>
      </trkpt>
      <trkpt lat="43.73097" lon="6.95368">
        <ele>880.8</ele>
        <time>2015-11-07T09:36:32Z</time>
      </trkpt>
      <trkpt lat="43.73095" lon="6.95373">
        <ele>880.2</ele>
        <time>2015-11-07T09:36:33Z</time>
      </trkpt>
      <trkpt lat="43.73094" lon="6.95378">
        <ele>879.4</ele>
        <time>2015-11-07T09:36:34Z</time>
      </trkpt>
      <trkpt lat="43.73092" lon="6.95381">
        <ele>878.8</ele>
        <time>2015-11-07T09:36:35Z</time>
      </trkpt>
      <trkpt lat="43.7309" lon="6.95386">
        <ele>878</ele>
        <time>2015-11-07T09:36:36Z</time>
      </trkpt>
      <trkpt lat="43.73087" lon="6.95391">
        <ele>877.4</ele>
        <time>2015-11-07T09:36:37Z</time>
      </trkpt>
      <trkpt lat="43.73084" lon="6.95395">
        <ele>876.6</ele>
        <time>2015-11-07T09:36:38Z</time>
      </trkpt>
      <trkpt lat="43.73084" lon="6.954">
        <ele>876.2</ele>
        <time>2015-11-07T09:36:39Z</time>
      </trkpt>
      <trkpt lat="43.73085" lon="6.95403">
        <ele>875.6</ele>
        <time>2015-11-07T09:36:40Z</time>
      </trkpt>
      <trkpt lat="43.73086" lon="6.95408">
        <ele>875.2</ele>
        <time>2015-11-07T09:36:41Z</time>
      </trkpt>
      <trkpt lat="43.73089" lon="6.9541">
        <ele>874.8</ele>
        <time>2015-11-07T09:36:42Z</time>
      </trkpt>
      <trkpt lat="43.73092" lon="6.9541">
        <ele>874.4</ele>
        <time>2015-11-07T09:36:43Z</time>
      </trkpt>
      <trkpt lat="43.73095" lon="6.95412">
        <ele>873.8</ele>
        <time>2015-11-07T09:36:44Z</time>
      </trkpt>
      <trkpt lat="43.73094" lon="6.95416">
        <ele>873.4</ele>
        <time>2015-11-07T09:36:45Z</time>
      </trkpt>
      <trkpt lat="43.73093" lon="6.95419">
        <ele>873</ele>
        <time>2015-11-07T09:36:46Z</time>
      </trkpt>
      <trkpt lat="43.73092" lon="6.95421">
        <ele>872.6</ele>
        <time>2015-11-07T09:36:47Z</time>
      </trkpt>
      <trkpt lat="43.7309" lon="6.95423">
        <ele>872</ele>
        <time>2015-11-07T09:36:48Z</time>
      </trkpt>
      <trkpt lat="43.73089" lon="6.95427">
        <ele>871.4</ele>
        <time>2015-11-07T09:36:49Z</time>
      </trkpt>
      <trkpt lat="43.73087" lon="6.9543">
        <ele>871</ele>
        <time>2015-11-07T09:36:50Z</time>
      </trkpt>
      <trkpt lat="43.73085" lon="6.95433">
        <ele>870.4</ele>
        <time>2015-11-07T09:36:51Z</time>
      </trkpt>
      <trkpt lat="43.73084" lon="6.95436">
        <ele>869.8</ele>
        <time>2015-11-07T09:36:52Z</time>
      </trkpt>
      <trkpt lat="43.73082" lon="6.95441">
        <ele>869.2</ele>
        <time>2015-11-07T09:36:53Z</time>
      </trkpt>
      <trkpt lat="43.73081" lon="6.95445">
        <ele>868.6</ele>
        <time>2015-11-07T09:36:54Z</time>
      </trkpt>
      <trkpt lat="43.73079" lon="6.95449">
        <ele>868</ele>
        <time>2015-11-07T09:36:55Z</time>
      </trkpt>
      <trkpt lat="43.73077" lon="6.95451">
        <ele>867.4</ele>
        <time>2015-11-07T09:36:56Z</time>
      </trkpt>
      <trkpt lat="43.73075" lon="6.95454">
        <ele>866.8</ele>
        <time>2015-11-07T09:36:57Z</time>
      </trkpt>
      <trkpt lat="43.73076" lon="6.95456">
        <ele>866.8</ele>
        <time>2015-11-07T09:37:01Z</time>
      </trkpt>
      <trkpt lat="43.73078" lon="6.95457">
        <ele>866.4</ele>
        <time>2015-11-07T09:37:02Z</time>
      </trkpt>
      <trkpt lat="43.73079" lon="6.95458">
        <ele>866</ele>
        <time>2015-11-07T09:37:03Z</time>
      </trkpt>
      <trkpt lat="43.7308" lon="6.95459">
        <ele>865.6</ele>
        <time>2015-11-07T09:37:04Z</time>
      </trkpt>
      <trkpt lat="43.73082" lon="6.9546">
        <ele>865.2</ele>
        <time>2015-11-07T09:37:05Z</time>
      </trkpt>
      <trkpt lat="43.73085" lon="6.9546">
        <ele>864.8</ele>
        <time>2015-11-07T09:37:06Z</time>
      </trkpt>
      <trkpt lat="43.73087" lon="6.9546">
        <ele>864.8</ele>
        <time>2015-11-07T09:37:07Z</time>
      </trkpt>
      <trkpt lat="43.73088" lon="6.95461">
        <ele>864.4</ele>
        <time>2015-11-07T09:37:08Z</time>
      </trkpt>
      <trkpt lat="43.73091" lon="6.95462">
        <ele>864</ele>
        <time>2015-11-07T09:37:09Z</time>
      </trkpt>
      <trkpt lat="43.73093" lon="6.95462">
        <ele>863.6</ele>
        <time>2015-11-07T09:37:10Z</time>
      </trkpt>
      <trkpt lat="43.73096" lon="6.95463">
        <ele>863.2</ele>
        <time>2015-11-07T09:37:11Z</time>
      </trkpt>
      <trkpt lat="43.73099" lon="6.95464">
        <ele>862.8</ele>
        <time>2015-11-07T09:37:12Z</time>
      </trkpt>
      <trkpt lat="43.73104" lon="6.95466">
        <ele>862.2</ele>
        <time>2015-11-07T09:37:13Z</time>
      </trkpt>
      <trkpt lat="43.73109" lon="6.95468">
        <ele>861.6</ele>
        <time>2015-11-07T09:37:14Z</time>
      </trkpt>
      <trkpt lat="43.73114" lon="6.95469">
        <ele>861</ele>
        <time>2015-11-07T09:37:15Z</time>
      </trkpt>
      <trkpt lat="43.73117" lon="6.95469">
        <ele>860.6</ele>
        <time>2015-11-07T09:37:16Z</time>
      </trkpt>
      <trkpt lat="43.7312" lon="6.95469">
        <ele>860</ele>
        <time>2015-11-07T09:37:17Z</time>
      </trkpt>
      <trkpt lat="43.73124" lon="6.95468">
        <ele>859.4</ele>
        <time>2015-11-07T09:37:18Z</time>
      </trkpt>
      <trkpt lat="43.73127" lon="6.9547">
        <ele>859</ele>
        <time>2015-11-07T09:37:19Z</time>
      </trkpt>
      <trkpt lat="43.7313" lon="6.95472">
        <ele>858</ele>
        <time>2015-11-07T09:37:20Z</time>
      </trkpt>
      <trkpt lat="43.73132" lon="6.95475">
        <ele>857.2</ele>
        <time>2015-11-07T09:37:21Z</time>
      </trkpt>
      <trkpt lat="43.73134" lon="6.95478">
        <ele>856.2</ele>
        <time>2015-11-07T09:37:22Z</time>
      </trkpt>
      <trkpt lat="43.73136" lon="6.95481">
        <ele>855.2</ele>
        <time>2015-11-07T09:37:23Z</time>
      </trkpt>
      <trkpt lat="43.73137" lon="6.95484">
        <ele>854.2</ele>
        <time>2015-11-07T09:37:24Z</time>
      </trkpt>
      <trkpt lat="43.73137" lon="6.95487">
        <ele>853.4</ele>
        <time>2015-11-07T09:37:25Z</time>
      </trkpt>
      <trkpt lat="43.73133" lon="6.95491">
        <ele>851.6</ele>
        <time>2015-11-07T09:37:27Z</time>
      </trkpt>
      <trkpt lat="43.73132" lon="6.95493">
        <ele>850.6</ele>
        <time>2015-11-07T09:37:28Z</time>
      </trkpt>
      <trkpt lat="43.73131" lon="6.95496">
        <ele>849.8</ele>
        <time>2015-11-07T09:37:29Z</time>
      </trkpt>
      <trkpt lat="43.7313" lon="6.95501">
        <ele>849.4</ele>
        <time>2015-11-07T09:37:31Z</time>
      </trkpt>
      <trkpt lat="43.7313" lon="6.95503">
        <ele>848.8</ele>
        <time>2015-11-07T09:37:32Z</time>
      </trkpt>
      <trkpt lat="43.7313" lon="6.95505">
        <ele>848.4</ele>
        <time>2015-11-07T09:37:33Z</time>
      </trkpt>
      <trkpt lat="43.7313" lon="6.9551">
        <ele>847.8</ele>
        <time>2015-11-07T09:37:34Z</time>
      </trkpt>
      <trkpt lat="43.7313" lon="6.95512">
        <ele>847</ele>
        <time>2015-11-07T09:37:35Z</time>
      </trkpt>
      <trkpt lat="43.73129" lon="6.95515">
        <ele>846.4</ele>
        <time>2015-11-07T09:37:36Z</time>
      </trkpt>
      <trkpt lat="43.73129" lon="6.95519">
        <ele>845.6</ele>
        <time>2015-11-07T09:37:37Z</time>
      </trkpt>
      <trkpt lat="43.73128" lon="6.95522">
        <ele>844.8</ele>
        <time>2015-11-07T09:37:38Z</time>
      </trkpt>
      <trkpt lat="43.73127" lon="6.95523">
        <ele>844.2</ele>
        <time>2015-11-07T09:37:39Z</time>
      </trkpt>
      <trkpt lat="43.73126" lon="6.95526">
        <ele>843.4</ele>
        <time>2015-11-07T09:37:40Z</time>
      </trkpt>
      <trkpt lat="43.73125" lon="6.9553">
        <ele>842.8</ele>
        <time>2015-11-07T09:37:41Z</time>
      </trkpt>
      <trkpt lat="43.73124" lon="6.95533">
        <ele>841.8</ele>
        <time>2015-11-07T09:37:42Z</time>
      </trkpt>
      <trkpt lat="43.73123" lon="6.95539">
        <ele>841</ele>
        <time>2015-11-07T09:37:43Z</time>
      </trkpt>
      <trkpt lat="43.73123" lon="6.95542">
        <ele>840.2</ele>
        <time>2015-11-07T09:37:44Z</time>
      </trkpt>
      <trkpt lat="43.73123" lon="6.95545">
        <ele>839.4</ele>
        <time>2015-11-07T09:37:45Z</time>
      </trkpt>
      <trkpt lat="43.73124" lon="6.95547">
        <ele>838.6</ele>
        <time>2015-11-07T09:37:46Z</time>
      </trkpt>
      <trkpt lat="43.73125" lon="6.95548">
        <ele>837.8</ele>
        <time>2015-11-07T09:37:47Z</time>
      </trkpt>
      <trkpt lat="43.73125" lon="6.95549">
        <ele>837</ele>
        <time>2015-11-07T09:37:48Z</time>
      </trkpt>
      <trkpt lat="43.73127" lon="6.95551">
        <ele>836.2</ele>
        <time>2015-11-07T09:37:49Z</time>
      </trkpt>
      <trkpt lat="43.7313" lon="6.95551">
        <ele>835.4</ele>
        <time>2015-11-07T09:37:50Z</time>
      </trkpt>
      <trkpt lat="43.73132" lon="6.95551">
        <ele>834.8</ele>
        <time>2015-11-07T09:37:51Z</time>
      </trkpt>
      <trkpt lat="43.73136" lon="6.95548">
        <ele>834</ele>
        <time>2015-11-07T09:37:52Z</time>
      </trkpt>
      <trkpt lat="43.73139" lon="6.95547">
        <ele>833.2</ele>
        <time>2015-11-07T09:37:53Z</time>
      </trkpt>
      <trkpt lat="43.73142" lon="6.95546">
        <ele>832.4</ele>
        <time>2015-11-07T09:37:54Z</time>
      </trkpt>
      <trkpt lat="43.73145" lon="6.95546">
        <ele>831.8</ele>
        <time>2015-11-07T09:37:55Z</time>
      </trkpt>
      <trkpt lat="43.73146" lon="6.95544">
        <ele>831.2</ele>
        <time>2015-11-07T09:37:56Z</time>
      </trkpt>
      <trkpt lat="43.73149" lon="6.95545">
        <ele>830.4</ele>
        <time>2015-11-07T09:37:57Z</time>
      </trkpt>
      <trkpt lat="43.73151" lon="6.95546">
        <ele>829.8</ele>
        <time>2015-11-07T09:37:58Z</time>
      </trkpt>
      <trkpt lat="43.73154" lon="6.95547">
        <ele>829.2</ele>
        <time>2015-11-07T09:37:59Z</time>
      </trkpt>
      <trkpt lat="43.73156" lon="6.95547">
        <ele>828.4</ele>
        <time>2015-11-07T09:38:00Z</time>
      </trkpt>
      <trkpt lat="43.73159" lon="6.95547">
        <ele>827.8</ele>
        <time>2015-11-07T09:38:01Z</time>
      </trkpt>
      <trkpt lat="43.73162" lon="6.95547">
        <ele>827</ele>
        <time>2015-11-07T09:38:02Z</time>
      </trkpt>
      <trkpt lat="43.73164" lon="6.95548">
        <ele>826.4</ele>
        <time>2015-11-07T09:38:03Z</time>
      </trkpt>
      <trkpt lat="43.73167" lon="6.95548">
        <ele>825.4</ele>
        <time>2015-11-07T09:38:04Z</time>
      </trkpt>
      <trkpt lat="43.7317" lon="6.95548">
        <ele>824.6</ele>
        <time>2015-11-07T09:38:05Z</time>
      </trkpt>
      <trkpt lat="43.73172" lon="6.95549">
        <ele>823.8</ele>
        <time>2015-11-07T09:38:06Z</time>
      </trkpt>
      <trkpt lat="43.73173" lon="6.95549">
        <ele>823</ele>
        <time>2015-11-07T09:38:07Z</time>
      </trkpt>
      <trkpt lat="43.73175" lon="6.9555">
        <ele>822.2</ele>
        <time>2015-11-07T09:38:08Z</time>
      </trkpt>
      <trkpt lat="43.73177" lon="6.95552">
        <ele>821.4</ele>
        <time>2015-11-07T09:38:09Z</time>
      </trkpt>
      <trkpt lat="43.73178" lon="6.95553">
        <ele>820.6</ele>
        <time>2015-11-07T09:38:10Z</time>
      </trkpt>
      <trkpt lat="43.73179" lon="6.95554">
        <ele>819.8</ele>
        <time>2015-11-07T09:38:11Z</time>
      </trkpt>
      <trkpt lat="43.73181" lon="6.95555">
        <ele>819</ele>
        <time>2015-11-07T09:38:12Z</time>
      </trkpt>
      <trkpt lat="43.73183" lon="6.95556">
        <ele>818.2</ele>
        <time>2015-11-07T09:38:13Z</time>
      </trkpt>
      <trkpt lat="43.73186" lon="6.95558">
        <ele>817.4</ele>
        <time>2015-11-07T09:38:14Z</time>
      </trkpt>
      <trkpt lat="43.73187" lon="6.95559">
        <ele>816.8</ele>
        <time>2015-11-07T09:38:15Z</time>
      </trkpt>
      <trkpt lat="43.73189" lon="6.95561">
        <ele>815.8</ele>
        <time>2015-11-07T09:38:16Z</time>
      </trkpt>
      <trkpt lat="43.73191" lon="6.95562">
        <ele>815</ele>
        <time>2015-11-07T09:38:17Z</time>
      </trkpt>
      <trkpt lat="43.73192" lon="6.95563">
        <ele>814.2</ele>
        <time>2015-11-07T09:38:18Z</time>
      </trkpt>
      <trkpt lat="43.73195" lon="6.95564">
        <ele>813.4</ele>
        <time>2015-11-07T09:38:19Z</time>
      </trkpt>
      <trkpt lat="43.73198" lon="6.95563">
        <ele>812.6</ele>
        <time>2015-11-07T09:38:20Z</time>
      </trkpt>
      <trkpt lat="43.732" lon="6.95563">
        <ele>811.8</ele>
        <time>2015-11-07T09:38:21Z</time>
      </trkpt>
      <trkpt lat="43.73202" lon="6.95564">
        <ele>811.2</ele>
        <time>2015-11-07T09:38:22Z</time>
      </trkpt>
      <trkpt lat="43.73204" lon="6.95564">
        <ele>810.4</ele>
        <time>2015-11-07T09:38:23Z</time>
      </trkpt>
      <trkpt lat="43.73206" lon="6.95564">
        <ele>809.6</ele>
        <time>2015-11-07T09:38:24Z</time>
      </trkpt>
      <trkpt lat="43.73208" lon="6.95564">
        <ele>808.8</ele>
        <time>2015-11-07T09:38:25Z</time>
      </trkpt>
      <trkpt lat="43.73214" lon="6.95563">
        <ele>808</ele>
        <time>2015-11-07T09:38:26Z</time>
      </trkpt>
      <trkpt lat="43.7322" lon="6.95561">
        <ele>807.2</ele>
        <time>2015-11-07T09:38:27Z</time>
      </trkpt>
      <trkpt lat="43.73226" lon="6.95559">
        <ele>806.6</ele>
        <time>2015-11-07T09:38:28Z</time>
      </trkpt>
      <trkpt lat="43.73231" lon="6.95557">
        <ele>805.8</ele>
        <time>2015-11-07T09:38:29Z</time>
      </trkpt>
      <trkpt lat="43.73234" lon="6.95557">
        <ele>805.2</ele>
        <time>2015-11-07T09:38:30Z</time>
      </trkpt>
      <trkpt lat="43.73239" lon="6.95556">
        <ele>804.4</ele>
        <time>2015-11-07T09:38:31Z</time>
      </trkpt>
      <trkpt lat="43.73243" lon="6.95556">
        <ele>803.6</ele>
        <time>2015-11-07T09:38:32Z</time>
      </trkpt>
      <trkpt lat="43.73247" lon="6.95558">
        <ele>803</ele>
        <time>2015-11-07T09:38:33Z</time>
      </trkpt>
      <trkpt lat="43.73251" lon="6.95559">
        <ele>802.2</ele>
        <time>2015-11-07T09:38:34Z</time>
      </trkpt>
      <trkpt lat="43.73255" lon="6.95561">
        <ele>801.4</ele>
        <time>2015-11-07T09:38:35Z</time>
      </trkpt>
      <trkpt lat="43.73258" lon="6.95561">
        <ele>800.6</ele>
        <time>2015-11-07T09:38:36Z</time>
      </trkpt>
      <trkpt lat="43.7326" lon="6.95563">
        <ele>799.8</ele>
        <time>2015-11-07T09:38:37Z</time>
      </trkpt>
      <trkpt lat="43.73263" lon="6.95564">
        <ele>799</ele>
        <time>2015-11-07T09:38:38Z</time>
      </trkpt>
      <trkpt lat="43.73265" lon="6.95565">
        <ele>798.2</ele>
        <time>2015-11-07T09:38:39Z</time>
      </trkpt>
      <trkpt lat="43.73268" lon="6.95566">
        <ele>797.4</ele>
        <time>2015-11-07T09:38:40Z</time>
      </trkpt>
      <trkpt lat="43.73271" lon="6.95563">
        <ele>796.4</ele>
        <time>2015-11-07T09:38:41Z</time>
      </trkpt>
      <trkpt lat="43.73274" lon="6.95561">
        <ele>795.6</ele>
        <time>2015-11-07T09:38:42Z</time>
      </trkpt>
      <trkpt lat="43.73276" lon="6.95559">
        <ele>794.8</ele>
        <time>2015-11-07T09:38:43Z</time>
      </trkpt>
      <trkpt lat="43.73278" lon="6.95557">
        <ele>794.2</ele>
        <time>2015-11-07T09:38:44Z</time>
      </trkpt>
      <trkpt lat="43.73281" lon="6.95555">
        <ele>793.8</ele>
        <time>2015-11-07T09:38:45Z</time>
      </trkpt>
      <trkpt lat="43.73284" lon="6.95552">
        <ele>793.4</ele>
        <time>2015-11-07T09:38:46Z</time>
      </trkpt>
      <trkpt lat="43.73287" lon="6.9555">
        <ele>793</ele>
        <time>2015-11-07T09:38:47Z</time>
      </trkpt>
      <trkpt lat="43.7329" lon="6.95547">
        <ele>792.6</ele>
        <time>2015-11-07T09:38:48Z</time>
      </trkpt>
      <trkpt lat="43.733" lon="6.95541">
        <ele>792.6</ele>
        <time>2015-11-07T09:38:51Z</time>
      </trkpt>
      <trkpt lat="43.73309" lon="6.95532">
        <ele>792.6</ele>
        <time>2015-11-07T09:38:56Z</time>
      </trkpt>
      <trkpt lat="43.73312" lon="6.9553">
        <ele>792.2</ele>
        <time>2015-11-07T09:38:57Z</time>
      </trkpt>
      <trkpt lat="43.73316" lon="6.95528">
        <ele>791.6</ele>
        <time>2015-11-07T09:38:58Z</time>
      </trkpt>
      <trkpt lat="43.73318" lon="6.95528">
        <ele>791.2</ele>
        <time>2015-11-07T09:38:59Z</time>
      </trkpt>
      <trkpt lat="43.7332" lon="6.95531">
        <ele>790.6</ele>
        <time>2015-11-07T09:39:00Z</time>
      </trkpt>
      <trkpt lat="43.73323" lon="6.95532">
        <ele>790</ele>
        <time>2015-11-07T09:39:01Z</time>
      </trkpt>
      <trkpt lat="43.73327" lon="6.9553">
        <ele>789.2</ele>
        <time>2015-11-07T09:39:02Z</time>
      </trkpt>
      <trkpt lat="43.73331" lon="6.9553">
        <ele>788.4</ele>
        <time>2015-11-07T09:39:03Z</time>
      </trkpt>
      <trkpt lat="43.73336" lon="6.95529">
        <ele>787.6</ele>
        <time>2015-11-07T09:39:04Z</time>
      </trkpt>
      <trkpt lat="43.73339" lon="6.95528">
        <ele>786.8</ele>
        <time>2015-11-07T09:39:05Z</time>
      </trkpt>
      <trkpt lat="43.73342" lon="6.95529">
        <ele>786</ele>
        <time>2015-11-07T09:39:06Z</time>
      </trkpt>
      <trkpt lat="43.73345" lon="6.95529">
        <ele>785.2</ele>
        <time>2015-11-07T09:39:07Z</time>
      </trkpt>
      <trkpt lat="43.73347" lon="6.95529">
        <ele>784.4</ele>
        <time>2015-11-07T09:39:08Z</time>
      </trkpt>
      <trkpt lat="43.7335" lon="6.95529">
        <ele>783.6</ele>
        <time>2015-11-07T09:39:09Z</time>
      </trkpt>
      <trkpt lat="43.73353" lon="6.95531">
        <ele>783.6</ele>
        <time>2015-11-07T09:39:13Z</time>
      </trkpt>
      <trkpt lat="43.73352" lon="6.95532">
        <ele>783.6</ele>
        <time>2015-11-07T09:39:28Z</time>
      </trkpt>
      <trkpt lat="43.73353" lon="6.95532">
        <ele>783.2</ele>
        <time>2015-11-07T09:39:38Z</time>
      </trkpt>
      <trkpt lat="43.73354" lon="6.95533">
        <ele>782.6</ele>
        <time>2015-11-07T09:39:39Z</time>
      </trkpt>
      <trkpt lat="43.73356" lon="6.95535">
        <ele>782.2</ele>
        <time>2015-11-07T09:39:40Z</time>
      </trkpt>
      <trkpt lat="43.73358" lon="6.95539">
        <ele>781.8</ele>
        <time>2015-11-07T09:39:41Z</time>
      </trkpt>
      <trkpt lat="43.73361" lon="6.95544">
        <ele>781.4</ele>
        <time>2015-11-07T09:39:42Z</time>
      </trkpt>
      <trkpt lat="43.73362" lon="6.95548">
        <ele>781</ele>
        <time>2015-11-07T09:39:43Z</time>
      </trkpt>
      <trkpt lat="43.73362" lon="6.9555">
        <ele>780.6</ele>
        <time>2015-11-07T09:39:44Z</time>
      </trkpt>
      <trkpt lat="43.73363" lon="6.95551">
        <ele>780.2</ele>
        <time>2015-11-07T09:39:45Z</time>
      </trkpt>
      <trkpt lat="43.73363" lon="6.95552">
        <ele>779.8</ele>
        <time>2015-11-07T09:39:46Z</time>
      </trkpt>
      <trkpt lat="43.73363" lon="6.95553">
        <ele>779.2</ele>
        <time>2015-11-07T09:39:47Z</time>
      </trkpt>
      <trkpt lat="43.73358" lon="6.9556">
        <ele>779.2</ele>
        <time>2015-11-07T09:39:53Z</time>
      </trkpt>
      <trkpt lat="43.73357" lon="6.95561">
        <ele>779.2</ele>
        <time>2015-11-07T09:39:59Z</time>
      </trkpt>
      <trkpt lat="43.7335" lon="6.9557">
        <ele>779.2</ele>
        <time>2015-11-07T09:40:59Z</time>
      </trkpt>
      <trkpt lat="43.73346" lon="6.95573">
        <ele>778.8</ele>
        <time>2015-11-07T09:41:00Z</time>
      </trkpt>
      <trkpt lat="43.73343" lon="6.95575">
        <ele>778.2</ele>
        <time>2015-11-07T09:41:01Z</time>
      </trkpt>
      <trkpt lat="43.73341" lon="6.95577">
        <ele>777.8</ele>
        <time>2015-11-07T09:41:02Z</time>
      </trkpt>
      <trkpt lat="43.73339" lon="6.9558">
        <ele>777</ele>
        <time>2015-11-07T09:41:03Z</time>
      </trkpt>
      <trkpt lat="43.73338" lon="6.95583">
        <ele>776.4</ele>
        <time>2015-11-07T09:41:04Z</time>
      </trkpt>
      <trkpt lat="43.73337" lon="6.95587">
        <ele>775.6</ele>
        <time>2015-11-07T09:41:05Z</time>
      </trkpt>
      <trkpt lat="43.73336" lon="6.9559">
        <ele>775</ele>
        <time>2015-11-07T09:41:06Z</time>
      </trkpt>
      <trkpt lat="43.73335" lon="6.95593">
        <ele>774.2</ele>
        <time>2015-11-07T09:41:07Z</time>
      </trkpt>
      <trkpt lat="43.73329" lon="6.95606">
        <ele>774.2</ele>
        <time>2015-11-07T09:41:10Z</time>
      </trkpt>
      <trkpt lat="43.73321" lon="6.95627">
        <ele>773.8</ele>
        <time>2015-11-07T09:41:14Z</time>
      </trkpt>
      <trkpt lat="43.73319" lon="6.95632">
        <ele>773.4</ele>
        <time>2015-11-07T09:41:15Z</time>
      </trkpt>
      <trkpt lat="43.73317" lon="6.95636">
        <ele>773</ele>
        <time>2015-11-07T09:41:16Z</time>
      </trkpt>
      <trkpt lat="43.73315" lon="6.95637">
        <ele>772.6</ele>
        <time>2015-11-07T09:41:17Z</time>
      </trkpt>
      <trkpt lat="43.73313" lon="6.95637">
        <ele>772.2</ele>
        <time>2015-11-07T09:41:18Z</time>
      </trkpt>
      <trkpt lat="43.73311" lon="6.95637">
        <ele>771.6</ele>
        <time>2015-11-07T09:41:19Z</time>
      </trkpt>
      <trkpt lat="43.73308" lon="6.95638">
        <ele>771.2</ele>
        <time>2015-11-07T09:41:20Z</time>
      </trkpt>
      <trkpt lat="43.73305" lon="6.95639">
        <ele>770.6</ele>
        <time>2015-11-07T09:41:21Z</time>
      </trkpt>
      <trkpt lat="43.73302" lon="6.95641">
        <ele>770</ele>
        <time>2015-11-07T09:41:22Z</time>
      </trkpt>
      <trkpt lat="43.73301" lon="6.95643">
        <ele>769.6</ele>
        <time>2015-11-07T09:41:23Z</time>
      </trkpt>
      <trkpt lat="43.733" lon="6.95645">
        <ele>769.6</ele>
        <time>2015-11-07T09:41:24Z</time>
      </trkpt>
      <trkpt lat="43.73292" lon="6.95656">
        <ele>769.6</ele>
        <time>2015-11-07T09:41:29Z</time>
      </trkpt>
      <trkpt lat="43.73291" lon="6.9566">
        <ele>769.6</ele>
        <time>2015-11-07T09:41:30Z</time>
      </trkpt>
      <trkpt lat="43.73285" lon="6.9567">
        <ele>769.6</ele>
        <time>2015-11-07T09:41:33Z</time>
      </trkpt>
      <trkpt lat="43.73283" lon="6.95674">
        <ele>769</ele>
        <time>2015-11-07T09:41:34Z</time>
      </trkpt>
      <trkpt lat="43.7328" lon="6.95676">
        <ele>768.6</ele>
        <time>2015-11-07T09:41:35Z</time>
      </trkpt>
      <trkpt lat="43.73278" lon="6.95678">
        <ele>768.2</ele>
        <time>2015-11-07T09:41:36Z</time>
      </trkpt>
      <trkpt lat="43.73276" lon="6.9568">
        <ele>767.8</ele>
        <time>2015-11-07T09:41:37Z</time>
      </trkpt>
      <trkpt lat="43.73273" lon="6.95683">
        <ele>767.4</ele>
        <time>2015-11-07T09:41:38Z</time>
      </trkpt>
      <trkpt lat="43.7327" lon="6.95686">
        <ele>767.4</ele>
        <time>2015-11-07T09:41:39Z</time>
      </trkpt>
      <trkpt lat="43.73267" lon="6.95689">
        <ele>767</ele>
        <time>2015-11-07T09:41:40Z</time>
      </trkpt>
      <trkpt lat="43.73263" lon="6.95692">
        <ele>766.6</ele>
        <time>2015-11-07T09:41:41Z</time>
      </trkpt>
      <trkpt lat="43.7326" lon="6.95693">
        <ele>766.2</ele>
        <time>2015-11-07T09:41:42Z</time>
      </trkpt>
      <trkpt lat="43.73257" lon="6.95693">
        <ele>765.8</ele>
        <time>2015-11-07T09:41:43Z</time>
      </trkpt>
      <trkpt lat="43.73254" lon="6.95693">
        <ele>765.4</ele>
        <time>2015-11-07T09:41:44Z</time>
      </trkpt>
      <trkpt lat="43.7325" lon="6.95694">
        <ele>765.4</ele>
        <time>2015-11-07T09:41:45Z</time>
      </trkpt>
      <trkpt lat="43.73242" lon="6.95697">
        <ele>765</ele>
        <time>2015-11-07T09:41:47Z</time>
      </trkpt>
      <trkpt lat="43.73238" lon="6.95699">
        <ele>764.6</ele>
        <time>2015-11-07T09:41:48Z</time>
      </trkpt>
      <trkpt lat="43.73235" lon="6.957">
        <ele>764</ele>
        <time>2015-11-07T09:41:49Z</time>
      </trkpt>
      <trkpt lat="43.73231" lon="6.95701">
        <ele>763.6</ele>
        <time>2015-11-07T09:41:50Z</time>
      </trkpt>
      <trkpt lat="43.73229" lon="6.95703">
        <ele>763.2</ele>
        <time>2015-11-07T09:41:51Z</time>
      </trkpt>
      <trkpt lat="43.73226" lon="6.95704">
        <ele>763.2</ele>
        <time>2015-11-07T09:41:52Z</time>
      </trkpt>
      <trkpt lat="43.73217" lon="6.95712">
        <ele>762.8</ele>
        <time>2015-11-07T09:41:56Z</time>
      </trkpt>
      <trkpt lat="43.73215" lon="6.95714">
        <ele>762.4</ele>
        <time>2015-11-07T09:41:57Z</time>
      </trkpt>
      <trkpt lat="43.73213" lon="6.95717">
        <ele>761.8</ele>
        <time>2015-11-07T09:41:58Z</time>
      </trkpt>
      <trkpt lat="43.73209" lon="6.95721">
        <ele>761.4</ele>
        <time>2015-11-07T09:41:59Z</time>
      </trkpt>
      <trkpt lat="43.73206" lon="6.95724">
        <ele>761</ele>
        <time>2015-11-07T09:42:00Z</time>
      </trkpt>
      <trkpt lat="43.73202" lon="6.95725">
        <ele>761</ele>
        <time>2015-11-07T09:42:02Z</time>
      </trkpt>
      <trkpt lat="43.73186" lon="6.95747">
        <ele>760.6</ele>
        <time>2015-11-07T09:42:10Z</time>
      </trkpt>
      <trkpt lat="43.73185" lon="6.95749">
        <ele>760.2</ele>
        <time>2015-11-07T09:42:11Z</time>
      </trkpt>
      <trkpt lat="43.73184" lon="6.95754">
        <ele>759.8</ele>
        <time>2015-11-07T09:42:12Z</time>
      </trkpt>
      <trkpt lat="43.73182" lon="6.95757">
        <ele>759.2</ele>
        <time>2015-11-07T09:42:13Z</time>
      </trkpt>
      <trkpt lat="43.73179" lon="6.95761">
        <ele>758.8</ele>
        <time>2015-11-07T09:42:14Z</time>
      </trkpt>
      <trkpt lat="43.73166" lon="6.9578">
        <ele>758.8</ele>
        <time>2015-11-07T09:42:20Z</time>
      </trkpt>
      <trkpt lat="43.73146" lon="6.95792">
        <ele>758.4</ele>
        <time>2015-11-07T09:42:27Z</time>
      </trkpt>
      <trkpt lat="43.73142" lon="6.95795">
        <ele>757.8</ele>
        <time>2015-11-07T09:42:28Z</time>
      </trkpt>
      <trkpt lat="43.73138" lon="6.95798">
        <ele>757.4</ele>
        <time>2015-11-07T09:42:29Z</time>
      </trkpt>
      <trkpt lat="43.73134" lon="6.958">
        <ele>757</ele>
        <time>2015-11-07T09:42:30Z</time>
      </trkpt>
      <trkpt lat="43.7313" lon="6.95801">
        <ele>756.4</ele>
        <time>2015-11-07T09:42:31Z</time>
      </trkpt>
      <trkpt lat="43.73127" lon="6.95803">
        <ele>756.4</ele>
        <time>2015-11-07T09:42:32Z</time>
      </trkpt>
      <trkpt lat="43.73107" lon="6.95812">
        <ele>756.4</ele>
        <time>2015-11-07T09:42:38Z</time>
      </trkpt>
      <trkpt lat="43.73103" lon="6.95814">
        <ele>756</ele>
        <time>2015-11-07T09:42:39Z</time>
      </trkpt>
      <trkpt lat="43.731" lon="6.95815">
        <ele>755.6</ele>
        <time>2015-11-07T09:42:40Z</time>
      </trkpt>
      <trkpt lat="43.73096" lon="6.95818">
        <ele>755.2</ele>
        <time>2015-11-07T09:42:41Z</time>
      </trkpt>
      <trkpt lat="43.73093" lon="6.9582">
        <ele>754.6</ele>
        <time>2015-11-07T09:42:42Z</time>
      </trkpt>
      <trkpt lat="43.73089" lon="6.95823">
        <ele>754.2</ele>
        <time>2015-11-07T09:42:43Z</time>
      </trkpt>
      <trkpt lat="43.73086" lon="6.95826">
        <ele>753.8</ele>
        <time>2015-11-07T09:42:44Z</time>
      </trkpt>
      <trkpt lat="43.73083" lon="6.95829">
        <ele>753.4</ele>
        <time>2015-11-07T09:42:45Z</time>
      </trkpt>
      <trkpt lat="43.7308" lon="6.95831">
        <ele>753</ele>
        <time>2015-11-07T09:42:46Z</time>
      </trkpt>
      <trkpt lat="43.73077" lon="6.95834">
        <ele>752.4</ele>
        <time>2015-11-07T09:42:47Z</time>
      </trkpt>
      <trkpt lat="43.73073" lon="6.95839">
        <ele>752</ele>
        <time>2015-11-07T09:42:48Z</time>
      </trkpt>
      <trkpt lat="43.7307" lon="6.95842">
        <ele>751.4</ele>
        <time>2015-11-07T09:42:49Z</time>
      </trkpt>
      <trkpt lat="43.73066" lon="6.95843">
        <ele>750.8</ele>
        <time>2015-11-07T09:42:50Z</time>
      </trkpt>
      <trkpt lat="43.73063" lon="6.95844">
        <ele>750.2</ele>
        <time>2015-11-07T09:42:51Z</time>
      </trkpt>
      <trkpt lat="43.73059" lon="6.95844">
        <ele>749.6</ele>
        <time>2015-11-07T09:42:52Z</time>
      </trkpt>
      <trkpt lat="43.73055" lon="6.95844">
        <ele>749</ele>
        <time>2015-11-07T09:42:53Z</time>
      </trkpt>
      <trkpt lat="43.73052" lon="6.95844">
        <ele>748.2</ele>
        <time>2015-11-07T09:42:54Z</time>
      </trkpt>
      <trkpt lat="43.73049" lon="6.95843">
        <ele>747.6</ele>
        <time>2015-11-07T09:42:55Z</time>
      </trkpt>
      <trkpt lat="43.73047" lon="6.95842">
        <ele>747</ele>
        <time>2015-11-07T09:42:56Z</time>
      </trkpt>
      <trkpt lat="43.73045" lon="6.95841">
        <ele>746.6</ele>
        <time>2015-11-07T09:42:57Z</time>
      </trkpt>
      <trkpt lat="43.73041" lon="6.95841">
        <ele>746.2</ele>
        <time>2015-11-07T09:42:58Z</time>
      </trkpt>
      <trkpt lat="43.73038" lon="6.95842">
        <ele>745.6</ele>
        <time>2015-11-07T09:42:59Z</time>
      </trkpt>
      <trkpt lat="43.73034" lon="6.95842">
        <ele>745</ele>
        <time>2015-11-07T09:43:00Z</time>
      </trkpt>
      <trkpt lat="43.73031" lon="6.95843">
        <ele>744.4</ele>
        <time>2015-11-07T09:43:01Z</time>
      </trkpt>
      <trkpt lat="43.73028" lon="6.95843">
        <ele>743.8</ele>
        <time>2015-11-07T09:43:02Z</time>
      </trkpt>
      <trkpt lat="43.73024" lon="6.95843">
        <ele>743.2</ele>
        <time>2015-11-07T09:43:03Z</time>
      </trkpt>
      <trkpt lat="43.73022" lon="6.95844">
        <ele>742.6</ele>
        <time>2015-11-07T09:43:04Z</time>
      </trkpt>
      <trkpt lat="43.73021" lon="6.95846">
        <ele>742</ele>
        <time>2015-11-07T09:43:05Z</time>
      </trkpt>
      <trkpt lat="43.73019" lon="6.95848">
        <ele>741.2</ele>
        <time>2015-11-07T09:43:06Z</time>
      </trkpt>
      <trkpt lat="43.73017" lon="6.95851">
        <ele>740.6</ele>
        <time>2015-11-07T09:43:07Z</time>
      </trkpt>
      <trkpt lat="43.73014" lon="6.95854">
        <ele>740.2</ele>
        <time>2015-11-07T09:43:08Z</time>
      </trkpt>
      <trkpt lat="43.73011" lon="6.95856">
        <ele>739.6</ele>
        <time>2015-11-07T09:43:09Z</time>
      </trkpt>
      <trkpt lat="43.73009" lon="6.95856">
        <ele>739</ele>
        <time>2015-11-07T09:43:10Z</time>
      </trkpt>
      <trkpt lat="43.73007" lon="6.95858">
        <ele>738.4</ele>
        <time>2015-11-07T09:43:11Z</time>
      </trkpt>
      <trkpt lat="43.73006" lon="6.95859">
        <ele>737.8</ele>
        <time>2015-11-07T09:43:12Z</time>
      </trkpt>
      <trkpt lat="43.73004" lon="6.95859">
        <ele>737.4</ele>
        <time>2015-11-07T09:43:13Z</time>
      </trkpt>
      <trkpt lat="43.73002" lon="6.9586">
        <ele>736.8</ele>
        <time>2015-11-07T09:43:14Z</time>
      </trkpt>
      <trkpt lat="43.72999" lon="6.95861">
        <ele>736.2</ele>
        <time>2015-11-07T09:43:15Z</time>
      </trkpt>
      <trkpt lat="43.72997" lon="6.95863">
        <ele>736.2</ele>
        <time>2015-11-07T09:43:16Z</time>
      </trkpt>
      <trkpt lat="43.72991" lon="6.95868">
        <ele>735.8</ele>
        <time>2015-11-07T09:43:18Z</time>
      </trkpt>
      <trkpt lat="43.72988" lon="6.95871">
        <ele>735.4</ele>
        <time>2015-11-07T09:43:19Z</time>
      </trkpt>
      <trkpt lat="43.72984" lon="6.95873">
        <ele>735</ele>
        <time>2015-11-07T09:43:20Z</time>
      </trkpt>
      <trkpt lat="43.72979" lon="6.95875">
        <ele>734.6</ele>
        <time>2015-11-07T09:43:21Z</time>
      </trkpt>
      <trkpt lat="43.72975" lon="6.95878">
        <ele>734</ele>
        <time>2015-11-07T09:43:22Z</time>
      </trkpt>
      <trkpt lat="43.72972" lon="6.95882">
        <ele>733.2</ele>
        <time>2015-11-07T09:43:23Z</time>
      </trkpt>
      <trkpt lat="43.72968" lon="6.95886">
        <ele>732.6</ele>
        <time>2015-11-07T09:43:24Z</time>
      </trkpt>
      <trkpt lat="43.72965" lon="6.9589">
        <ele>732</ele>
        <time>2015-11-07T09:43:25Z</time>
      </trkpt>
      <trkpt lat="43.72963" lon="6.95893">
        <ele>731.4</ele>
        <time>2015-11-07T09:43:26Z</time>
      </trkpt>
      <trkpt lat="43.72958" lon="6.95902">
        <ele>731.4</ele>
        <time>2015-11-07T09:43:30Z</time>
      </trkpt>
      <trkpt lat="43.72957" lon="6.95903">
        <ele>731</ele>
        <time>2015-11-07T09:43:31Z</time>
      </trkpt>
      <trkpt lat="43.72956" lon="6.95904">
        <ele>730.4</ele>
        <time>2015-11-07T09:43:32Z</time>
      </trkpt>
      <trkpt lat="43.72954" lon="6.95906">
        <ele>730</ele>
        <time>2015-11-07T09:43:33Z</time>
      </trkpt>
      <trkpt lat="43.72952" lon="6.95907">
        <ele>729.6</ele>
        <time>2015-11-07T09:43:34Z</time>
      </trkpt>
      <trkpt lat="43.72949" lon="6.95909">
        <ele>729</ele>
        <time>2015-11-07T09:43:35Z</time>
      </trkpt>
      <trkpt lat="43.72941" lon="6.95912">
        <ele>729</ele>
        <time>2015-11-07T09:43:38Z</time>
      </trkpt>
      <trkpt lat="43.72921" lon="6.95923">
        <ele>729</ele>
        <time>2015-11-07T09:43:45Z</time>
      </trkpt>
      <trkpt lat="43.72915" lon="6.95929">
        <ele>728.6</ele>
        <time>2015-11-07T09:43:47Z</time>
      </trkpt>
      <trkpt lat="43.72912" lon="6.95932">
        <ele>728.2</ele>
        <time>2015-11-07T09:43:48Z</time>
      </trkpt>
      <trkpt lat="43.72909" lon="6.95935">
        <ele>727.8</ele>
        <time>2015-11-07T09:43:49Z</time>
      </trkpt>
      <trkpt lat="43.72906" lon="6.95938">
        <ele>727.2</ele>
        <time>2015-11-07T09:43:50Z</time>
      </trkpt>
      <trkpt lat="43.72901" lon="6.95939">
        <ele>726.6</ele>
        <time>2015-11-07T09:43:51Z</time>
      </trkpt>
      <trkpt lat="43.72897" lon="6.95941">
        <ele>726</ele>
        <time>2015-11-07T09:43:52Z</time>
      </trkpt>
      <trkpt lat="43.72895" lon="6.95942">
        <ele>725.4</ele>
        <time>2015-11-07T09:43:53Z</time>
      </trkpt>
      <trkpt lat="43.72892" lon="6.95945">
        <ele>724.8</ele>
        <time>2015-11-07T09:43:54Z</time>
      </trkpt>
      <trkpt lat="43.72889" lon="6.95947">
        <ele>724.4</ele>
        <time>2015-11-07T09:43:55Z</time>
      </trkpt>
      <trkpt lat="43.72886" lon="6.95951">
        <ele>724</ele>
        <time>2015-11-07T09:43:56Z</time>
      </trkpt>
      <trkpt lat="43.72884" lon="6.95953">
        <ele>723.6</ele>
        <time>2015-11-07T09:43:57Z</time>
      </trkpt>
      <trkpt lat="43.72882" lon="6.95955">
        <ele>723.2</ele>
        <time>2015-11-07T09:43:58Z</time>
      </trkpt>
      <trkpt lat="43.72878" lon="6.95958">
        <ele>722.8</ele>
        <time>2015-11-07T09:43:59Z</time>
      </trkpt>
      <trkpt lat="43.72866" lon="6.95962">
        <ele>722.8</ele>
        <time>2015-11-07T09:44:02Z</time>
      </trkpt>
      <trkpt lat="43.72863" lon="6.95963">
        <ele>722.8</ele>
        <time>2015-11-07T09:44:03Z</time>
      </trkpt>
      <trkpt lat="43.72853" lon="6.95967">
        <ele>722.8</ele>
        <time>2015-11-07T09:44:07Z</time>
      </trkpt>
      <trkpt lat="43.7285" lon="6.95969">
        <ele>722.8</ele>
        <time>2015-11-07T09:44:08Z</time>
      </trkpt>
      <trkpt lat="43.7284" lon="6.95987">
        <ele>722.8</ele>
        <time>2015-11-07T09:44:13Z</time>
      </trkpt>
      <trkpt lat="43.72825" lon="6.96008">
        <ele>722.8</ele>
        <time>2015-11-07T09:44:19Z</time>
      </trkpt>
      <trkpt lat="43.72807" lon="6.96022">
        <ele>722.8</ele>
        <time>2015-11-07T09:44:25Z</time>
      </trkpt>
      <trkpt lat="43.72797" lon="6.96037">
        <ele>722.8</ele>
        <time>2015-11-07T09:44:30Z</time>
      </trkpt>
      <trkpt lat="43.72784" lon="6.96054">
        <ele>722.8</ele>
        <time>2015-11-07T09:44:37Z</time>
      </trkpt>
      <trkpt lat="43.72782" lon="6.9606">
        <ele>723.2</ele>
        <time>2015-11-07T09:44:40Z</time>
      </trkpt>
      <trkpt lat="43.72781" lon="6.96062">
        <ele>723.6</ele>
        <time>2015-11-07T09:44:41Z</time>
      </trkpt>
      <trkpt lat="43.7278" lon="6.96064">
        <ele>724</ele>
        <time>2015-11-07T09:44:42Z</time>
      </trkpt>
      <trkpt lat="43.72779" lon="6.96066">
        <ele>724.4</ele>
        <time>2015-11-07T09:44:43Z</time>
      </trkpt>
      <trkpt lat="43.72778" lon="6.96068">
        <ele>724.8</ele>
        <time>2015-11-07T09:44:44Z</time>
      </trkpt>
      <trkpt lat="43.72769" lon="6.96082">
        <ele>724.8</ele>
        <time>2015-11-07T09:44:49Z</time>
      </trkpt>
      <trkpt lat="43.72761" lon="6.96096">
        <ele>724.8</ele>
        <time>2015-11-07T09:44:55Z</time>
      </trkpt>
      <trkpt lat="43.7275" lon="6.96115">
        <ele>724.8</ele>
        <time>2015-11-07T09:45:02Z</time>
      </trkpt>
      <trkpt lat="43.72747" lon="6.96127">
        <ele>725.2</ele>
        <time>2015-11-07T09:45:06Z</time>
      </trkpt>
      <trkpt lat="43.72746" lon="6.96129">
        <ele>725.6</ele>
        <time>2015-11-07T09:45:07Z</time>
      </trkpt>
      <trkpt lat="43.72744" lon="6.96131">
        <ele>726</ele>
        <time>2015-11-07T09:45:08Z</time>
      </trkpt>
      <trkpt lat="43.72742" lon="6.96133">
        <ele>726.4</ele>
        <time>2015-11-07T09:45:09Z</time>
      </trkpt>
      <trkpt lat="43.72741" lon="6.96134">
        <ele>726.8</ele>
        <time>2015-11-07T09:45:10Z</time>
      </trkpt>
      <trkpt lat="43.72738" lon="6.96141">
        <ele>726.8</ele>
        <time>2015-11-07T09:45:13Z</time>
      </trkpt>
      <trkpt lat="43.72736" lon="6.96146">
        <ele>727.2</ele>
        <time>2015-11-07T09:45:15Z</time>
      </trkpt>
      <trkpt lat="43.72734" lon="6.96148">
        <ele>727.6</ele>
        <time>2015-11-07T09:45:16Z</time>
      </trkpt>
      <trkpt lat="43.72733" lon="6.96151">
        <ele>728</ele>
        <time>2015-11-07T09:45:17Z</time>
      </trkpt>
      <trkpt lat="43.72731" lon="6.96154">
        <ele>728.4</ele>
        <time>2015-11-07T09:45:18Z</time>
      </trkpt>
      <trkpt lat="43.72731" lon="6.96156">
        <ele>728.8</ele>
        <time>2015-11-07T09:45:19Z</time>
      </trkpt>
      <trkpt lat="43.72731" lon="6.96158">
        <ele>728.8</ele>
        <time>2015-11-07T09:45:20Z</time>
      </trkpt>
      <trkpt lat="43.72731" lon="6.96164">
        <ele>729.2</ele>
        <time>2015-11-07T09:45:23Z</time>
      </trkpt>
      <trkpt lat="43.7273" lon="6.96166">
        <ele>729.8</ele>
        <time>2015-11-07T09:45:24Z</time>
      </trkpt>
      <trkpt lat="43.7273" lon="6.96168">
        <ele>730.2</ele>
        <time>2015-11-07T09:45:25Z</time>
      </trkpt>
      <trkpt lat="43.72729" lon="6.96169">
        <ele>730.6</ele>
        <time>2015-11-07T09:45:26Z</time>
      </trkpt>
      <trkpt lat="43.72728" lon="6.9617">
        <ele>731</ele>
        <time>2015-11-07T09:45:27Z</time>
      </trkpt>
      <trkpt lat="43.72725" lon="6.96181">
        <ele>731.4</ele>
        <time>2015-11-07T09:45:36Z</time>
      </trkpt>
      <trkpt lat="43.72724" lon="6.96182">
        <ele>731.8</ele>
        <time>2015-11-07T09:45:37Z</time>
      </trkpt>
      <trkpt lat="43.72725" lon="6.96183">
        <ele>732.2</ele>
        <time>2015-11-07T09:45:38Z</time>
      </trkpt>
      <trkpt lat="43.72724" lon="6.96185">
        <ele>733.2</ele>
        <time>2015-11-07T09:45:40Z</time>
      </trkpt>
      <trkpt lat="43.72724" lon="6.96195">
        <ele>733.2</ele>
        <time>2015-11-07T09:45:47Z</time>
      </trkpt>
      <trkpt lat="43.72723" lon="6.96199">
        <ele>733.6</ele>
        <time>2015-11-07T09:45:51Z</time>
      </trkpt>
      <trkpt lat="43.72724" lon="6.96201">
        <ele>734</ele>
        <time>2015-11-07T09:45:52Z</time>
      </trkpt>
      <trkpt lat="43.72724" lon="6.96202">
        <ele>734.4</ele>
        <time>2015-11-07T09:45:53Z</time>
      </trkpt>
      <trkpt lat="43.72723" lon="6.96203">
        <ele>734.8</ele>
        <time>2015-11-07T09:45:54Z</time>
      </trkpt>
      <trkpt lat="43.72723" lon="6.96204">
        <ele>735.2</ele>
        <time>2015-11-07T09:45:55Z</time>
      </trkpt>
      <trkpt lat="43.72724" lon="6.96213">
        <ele>735.2</ele>
        <time>2015-11-07T09:46:02Z</time>
      </trkpt>
      <trkpt lat="43.72724" lon="6.96214">
        <ele>735.6</ele>
        <time>2015-11-07T09:46:03Z</time>
      </trkpt>
      <trkpt lat="43.72724" lon="6.96214">
        <ele>736.2</ele>
        <time>2015-11-07T09:46:04Z</time>
      </trkpt>
      <trkpt lat="43.72723" lon="6.96215">
        <ele>736.6</ele>
        <time>2015-11-07T09:46:05Z</time>
      </trkpt>
      <trkpt lat="43.72723" lon="6.96217">
        <ele>737</ele>
        <time>2015-11-07T09:46:06Z</time>
      </trkpt>
      <trkpt lat="43.72723" lon="6.96218">
        <ele>737.4</ele>
        <time>2015-11-07T09:46:07Z</time>
      </trkpt>
      <trkpt lat="43.72722" lon="6.96228">
        <ele>737.4</ele>
        <time>2015-11-07T09:46:13Z</time>
      </trkpt>
      <trkpt lat="43.72723" lon="6.96231">
        <ele>738</ele>
        <time>2015-11-07T09:46:17Z</time>
      </trkpt>
      <trkpt lat="43.72723" lon="6.96232">
        <ele>738.4</ele>
        <time>2015-11-07T09:46:18Z</time>
      </trkpt>
      <trkpt lat="43.72723" lon="6.96233">
        <ele>738.8</ele>
        <time>2015-11-07T09:46:19Z</time>
      </trkpt>
      <trkpt lat="43.72723" lon="6.96234">
        <ele>739.2</ele>
        <time>2015-11-07T09:46:20Z</time>
      </trkpt>
      <trkpt lat="43.72723" lon="6.96235">
        <ele>739.6</ele>
        <time>2015-11-07T09:46:21Z</time>
      </trkpt>
      <trkpt lat="43.72724" lon="6.96248">
        <ele>739.6</ele>
        <time>2015-11-07T09:46:29Z</time>
      </trkpt>
      <trkpt lat="43.72724" lon="6.96251">
        <ele>740</ele>
        <time>2015-11-07T09:46:31Z</time>
      </trkpt>
      <trkpt lat="43.72725" lon="6.96251">
        <ele>740.4</ele>
        <time>2015-11-07T09:46:32Z</time>
      </trkpt>
      <trkpt lat="43.72725" lon="6.96251">
        <ele>740.8</ele>
        <time>2015-11-07T09:46:33Z</time>
      </trkpt>
      <trkpt lat="43.72725" lon="6.96252">
        <ele>741.4</ele>
        <time>2015-11-07T09:46:34Z</time>
      </trkpt>
      <trkpt lat="43.72725" lon="6.96252">
        <ele>741.8</ele>
        <time>2015-11-07T09:46:35Z</time>
      </trkpt>
      <trkpt lat="43.72725" lon="6.96253">
        <ele>741.8</ele>
        <time>2015-11-07T09:46:36Z</time>
      </trkpt>
      <trkpt lat="43.72726" lon="6.96254">
        <ele>742.2</ele>
        <time>2015-11-07T09:46:41Z</time>
      </trkpt>
      <trkpt lat="43.72726" lon="6.96255">
        <ele>742.6</ele>
        <time>2015-11-07T09:46:42Z</time>
      </trkpt>
      <trkpt lat="43.72726" lon="6.96257">
        <ele>743</ele>
        <time>2015-11-07T09:46:43Z</time>
      </trkpt>
      <trkpt lat="43.72726" lon="6.96258">
        <ele>743.4</ele>
        <time>2015-11-07T09:46:44Z</time>
      </trkpt>
      <trkpt lat="43.72727" lon="6.9626">
        <ele>743.8</ele>
        <time>2015-11-07T09:46:45Z</time>
      </trkpt>
      <trkpt lat="43.72731" lon="6.9626">
        <ele>743.8</ele>
        <time>2015-11-07T09:46:55Z</time>
      </trkpt>
      <trkpt lat="43.72733" lon="6.96259">
        <ele>743.8</ele>
        <time>2015-11-07T09:46:56Z</time>
      </trkpt>
      <trkpt lat="43.72735" lon="6.96253">
        <ele>744.2</ele>
        <time>2015-11-07T09:47:00Z</time>
      </trkpt>
      <trkpt lat="43.72735" lon="6.96252">
        <ele>744.6</ele>
        <time>2015-11-07T09:47:01Z</time>
      </trkpt>
      <trkpt lat="43.72736" lon="6.9625">
        <ele>745</ele>
        <time>2015-11-07T09:47:02Z</time>
      </trkpt>
      <trkpt lat="43.72736" lon="6.96249">
        <ele>745.4</ele>
        <time>2015-11-07T09:47:03Z</time>
      </trkpt>
      <trkpt lat="43.72736" lon="6.96247">
        <ele>745.8</ele>
        <time>2015-11-07T09:47:04Z</time>
      </trkpt>
      <trkpt lat="43.72738" lon="6.96245">
        <ele>745.8</ele>
        <time>2015-11-07T09:47:09Z</time>
      </trkpt>
      <trkpt lat="43.72736" lon="6.96244">
        <ele>745.8</ele>
        <time>2015-11-07T09:48:04Z</time>
      </trkpt>
      <trkpt lat="43.72738" lon="6.96234">
        <ele>745.8</ele>
        <time>2015-11-07T09:48:11Z</time>
      </trkpt>
      <trkpt lat="43.72743" lon="6.96219">
        <ele>745.8</ele>
        <time>2015-11-07T09:48:18Z</time>
      </trkpt>
      <trkpt lat="43.72746" lon="6.96211">
        <ele>746.4</ele>
        <time>2015-11-07T09:48:22Z</time>
      </trkpt>
      <trkpt lat="43.72747" lon="6.96209">
        <ele>746.8</ele>
        <time>2015-11-07T09:48:23Z</time>
      </trkpt>
      <trkpt lat="43.72747" lon="6.96207">
        <ele>747.2</ele>
        <time>2015-11-07T09:48:24Z</time>
      </trkpt>
      <trkpt lat="43.72748" lon="6.96205">
        <ele>747.6</ele>
        <time>2015-11-07T09:48:25Z</time>
      </trkpt>
      <trkpt lat="43.72749" lon="6.96203">
        <ele>748</ele>
        <time>2015-11-07T09:48:26Z</time>
      </trkpt>
      <trkpt lat="43.72752" lon="6.96194">
        <ele>748</ele>
        <time>2015-11-07T09:48:30Z</time>
      </trkpt>
      <trkpt lat="43.72763" lon="6.96175">
        <ele>748</ele>
        <time>2015-11-07T09:48:40Z</time>
      </trkpt>
      <trkpt lat="43.72767" lon="6.96169">
        <ele>748.4</ele>
        <time>2015-11-07T09:48:43Z</time>
      </trkpt>
      <trkpt lat="43.72768" lon="6.96168">
        <ele>748.8</ele>
        <time>2015-11-07T09:48:44Z</time>
      </trkpt>
      <trkpt lat="43.72769" lon="6.96166">
        <ele>749.4</ele>
        <time>2015-11-07T09:48:45Z</time>
      </trkpt>
      <trkpt lat="43.7277" lon="6.96164">
        <ele>749.8</ele>
        <time>2015-11-07T09:48:46Z</time>
      </trkpt>
      <trkpt lat="43.72771" lon="6.96162">
        <ele>750.2</ele>
        <time>2015-11-07T09:48:47Z</time>
      </trkpt>
      <trkpt lat="43.72774" lon="6.96156">
        <ele>750.2</ele>
        <time>2015-11-07T09:48:50Z</time>
      </trkpt>
      <trkpt lat="43.72788" lon="6.96138">
        <ele>750.6</ele>
        <time>2015-11-07T09:49:00Z</time>
      </trkpt>
      <trkpt lat="43.7279" lon="6.96136">
        <ele>751</ele>
        <time>2015-11-07T09:49:01Z</time>
      </trkpt>
      <trkpt lat="43.72791" lon="6.96134">
        <ele>751.4</ele>
        <time>2015-11-07T09:49:02Z</time>
      </trkpt>
      <trkpt lat="43.72793" lon="6.96133">
        <ele>752</ele>
        <time>2015-11-07T09:49:03Z</time>
      </trkpt>
      <trkpt lat="43.72794" lon="6.96131">
        <ele>752.4</ele>
        <time>2015-11-07T09:49:04Z</time>
      </trkpt>
      <trkpt lat="43.72803" lon="6.96122">
        <ele>752.4</ele>
        <time>2015-11-07T09:49:09Z</time>
      </trkpt>
      <trkpt lat="43.72816" lon="6.9611">
        <ele>752.8</ele>
        <time>2015-11-07T09:49:16Z</time>
      </trkpt>
      <trkpt lat="43.72818" lon="6.96109">
        <ele>753.2</ele>
        <time>2015-11-07T09:49:17Z</time>
      </trkpt>
      <trkpt lat="43.7282" lon="6.96108">
        <ele>753.8</ele>
        <time>2015-11-07T09:49:18Z</time>
      </trkpt>
      <trkpt lat="43.72822" lon="6.96107">
        <ele>754.2</ele>
        <time>2015-11-07T09:49:19Z</time>
      </trkpt>
      <trkpt lat="43.72824" lon="6.96105">
        <ele>754.6</ele>
        <time>2015-11-07T09:49:20Z</time>
      </trkpt>
      <trkpt lat="43.72836" lon="6.961">
        <ele>754.6</ele>
        <time>2015-11-07T09:49:27Z</time>
      </trkpt>
      <trkpt lat="43.72837" lon="6.96099">
        <ele>755</ele>
        <time>2015-11-07T09:49:28Z</time>
      </trkpt>
      <trkpt lat="43.72839" lon="6.96098">
        <ele>755.6</ele>
        <time>2015-11-07T09:49:29Z</time>
      </trkpt>
      <trkpt lat="43.7284" lon="6.96098">
        <ele>756</ele>
        <time>2015-11-07T09:49:30Z</time>
      </trkpt>
      <trkpt lat="43.72842" lon="6.96096">
        <ele>756.4</ele>
        <time>2015-11-07T09:49:31Z</time>
      </trkpt>
      <trkpt lat="43.72844" lon="6.96095">
        <ele>756.8</ele>
        <time>2015-11-07T09:49:32Z</time>
      </trkpt>
      <trkpt lat="43.72848" lon="6.96092">
        <ele>756.8</ele>
        <time>2015-11-07T09:49:34Z</time>
      </trkpt>
      <trkpt lat="43.72865" lon="6.96083">
        <ele>756.8</ele>
        <time>2015-11-07T09:49:44Z</time>
      </trkpt>
      <trkpt lat="43.72869" lon="6.9608">
        <ele>757.2</ele>
        <time>2015-11-07T09:49:46Z</time>
      </trkpt>
      <trkpt lat="43.72871" lon="6.96079">
        <ele>757.6</ele>
        <time>2015-11-07T09:49:47Z</time>
      </trkpt>
      <trkpt lat="43.72873" lon="6.96078">
        <ele>758</ele>
        <time>2015-11-07T09:49:48Z</time>
      </trkpt>
      <trkpt lat="43.72875" lon="6.96076">
        <ele>758.4</ele>
        <time>2015-11-07T09:49:49Z</time>
      </trkpt>
      <trkpt lat="43.72877" lon="6.96074">
        <ele>758.8</ele>
        <time>2015-11-07T09:49:50Z</time>
      </trkpt>
      <trkpt lat="43.72883" lon="6.96072">
        <ele>758.8</ele>
        <time>2015-11-07T09:49:53Z</time>
      </trkpt>
      <trkpt lat="43.72884" lon="6.96072">
        <ele>758.8</ele>
        <time>2015-11-07T09:49:54Z</time>
      </trkpt>
      <trkpt lat="43.72886" lon="6.96073">
        <ele>758.8</ele>
        <time>2015-11-07T09:49:58Z</time>
      </trkpt>
      <trkpt lat="43.72886" lon="6.96074">
        <ele>758.8</ele>
        <time>2015-11-07T09:50:08Z</time>
      </trkpt>
      <trkpt lat="43.72887" lon="6.96072">
        <ele>758.8</ele>
        <time>2015-11-07T09:50:49Z</time>
      </trkpt>
      <trkpt lat="43.72894" lon="6.96067">
        <ele>758.8</ele>
        <time>2015-11-07T09:50:54Z</time>
      </trkpt>
      <trkpt lat="43.72904" lon="6.9606">
        <ele>759.2</ele>
        <time>2015-11-07T09:51:00Z</time>
      </trkpt>
      <trkpt lat="43.72906" lon="6.96058">
        <ele>759.6</ele>
        <time>2015-11-07T09:51:01Z</time>
      </trkpt>
      <trkpt lat="43.72908" lon="6.96057">
        <ele>760</ele>
        <time>2015-11-07T09:51:02Z</time>
      </trkpt>
      <trkpt lat="43.7291" lon="6.96056">
        <ele>760.4</ele>
        <time>2015-11-07T09:51:03Z</time>
      </trkpt>
      <trkpt lat="43.72912" lon="6.96055">
        <ele>760.8</ele>
        <time>2015-11-07T09:51:04Z</time>
      </trkpt>
      <trkpt lat="43.72923" lon="6.96049">
        <ele>760.8</ele>
        <time>2015-11-07T09:51:10Z</time>
      </trkpt>
      <trkpt lat="43.72938" lon="6.9604">
        <ele>761.2</ele>
        <time>2015-11-07T09:51:18Z</time>
      </trkpt>
      <trkpt lat="43.72941" lon="6.96039">
        <ele>761.8</ele>
        <time>2015-11-07T09:51:19Z</time>
      </trkpt>
      <trkpt lat="43.72943" lon="6.96038">
        <ele>762.2</ele>
        <time>2015-11-07T09:51:20Z</time>
      </trkpt>
      <trkpt lat="43.72945" lon="6.96037">
        <ele>762.8</ele>
        <time>2015-11-07T09:51:21Z</time>
      </trkpt>
      <trkpt lat="43.72946" lon="6.96035">
        <ele>763.2</ele>
        <time>2015-11-07T09:51:22Z</time>
      </trkpt>
      <trkpt lat="43.72962" lon="6.96027">
        <ele>763.2</ele>
        <time>2015-11-07T09:51:29Z</time>
      </trkpt>
      <trkpt lat="43.72967" lon="6.96024">
        <ele>763.6</ele>
        <time>2015-11-07T09:51:32Z</time>
      </trkpt>
      <trkpt lat="43.7297" lon="6.96023">
        <ele>764</ele>
        <time>2015-11-07T09:51:33Z</time>
      </trkpt>
      <trkpt lat="43.72972" lon="6.96022">
        <ele>764.6</ele>
        <time>2015-11-07T09:51:34Z</time>
      </trkpt>
      <trkpt lat="43.72974" lon="6.96021">
        <ele>765</ele>
        <time>2015-11-07T09:51:35Z</time>
      </trkpt>
      <trkpt lat="43.72976" lon="6.9602">
        <ele>765.4</ele>
        <time>2015-11-07T09:51:36Z</time>
      </trkpt>
      <trkpt lat="43.72978" lon="6.96018">
        <ele>765.4</ele>
        <time>2015-11-07T09:51:37Z</time>
      </trkpt>
      <trkpt lat="43.72992" lon="6.96012">
        <ele>765.4</ele>
        <time>2015-11-07T09:51:44Z</time>
      </trkpt>
      <trkpt lat="43.72999" lon="6.96007">
        <ele>765.8</ele>
        <time>2015-11-07T09:51:48Z</time>
      </trkpt>
      <trkpt lat="43.73001" lon="6.96005">
        <ele>766.2</ele>
        <time>2015-11-07T09:51:49Z</time>
      </trkpt>
      <trkpt lat="43.73003" lon="6.96004">
        <ele>766.6</ele>
        <time>2015-11-07T09:51:50Z</time>
      </trkpt>
      <trkpt lat="43.73005" lon="6.96003">
        <ele>767</ele>
        <time>2015-11-07T09:51:51Z</time>
      </trkpt>
      <trkpt lat="43.73006" lon="6.96002">
        <ele>767.4</ele>
        <time>2015-11-07T09:51:52Z</time>
      </trkpt>
      <trkpt lat="43.73011" lon="6.95999">
        <ele>767.4</ele>
        <time>2015-11-07T09:51:54Z</time>
      </trkpt>
      <trkpt lat="43.7303" lon="6.95994">
        <ele>768</ele>
        <time>2015-11-07T09:52:02Z</time>
      </trkpt>
      <trkpt lat="43.73033" lon="6.95993">
        <ele>768.4</ele>
        <time>2015-11-07T09:52:03Z</time>
      </trkpt>
      <trkpt lat="43.73036" lon="6.95993">
        <ele>768.8</ele>
        <time>2015-11-07T09:52:04Z</time>
      </trkpt>
      <trkpt lat="43.73038" lon="6.95993">
        <ele>769.4</ele>
        <time>2015-11-07T09:52:05Z</time>
      </trkpt>
      <trkpt lat="43.7304" lon="6.95992">
        <ele>769.8</ele>
        <time>2015-11-07T09:52:06Z</time>
      </trkpt>
      <trkpt lat="43.73052" lon="6.95989">
        <ele>769.8</ele>
        <time>2015-11-07T09:52:12Z</time>
      </trkpt>
      <trkpt lat="43.73057" lon="6.95987">
        <ele>770.2</ele>
        <time>2015-11-07T09:52:14Z</time>
      </trkpt>
      <trkpt lat="43.73059" lon="6.95987">
        <ele>770.6</ele>
        <time>2015-11-07T09:52:15Z</time>
      </trkpt>
      <trkpt lat="43.73062" lon="6.95986">
        <ele>771</ele>
        <time>2015-11-07T09:52:16Z</time>
      </trkpt>
      <trkpt lat="43.73064" lon="6.95985">
        <ele>771.4</ele>
        <time>2015-11-07T09:52:17Z</time>
      </trkpt>
      <trkpt lat="43.73066" lon="6.95985">
        <ele>771.8</ele>
        <time>2015-11-07T09:52:18Z</time>
      </trkpt>
      <trkpt lat="43.73073" lon="6.95982">
        <ele>771.8</ele>
        <time>2015-11-07T09:52:21Z</time>
      </trkpt>
      <trkpt lat="43.73087" lon="6.95973">
        <ele>772.4</ele>
        <time>2015-11-07T09:52:28Z</time>
      </trkpt>
      <trkpt lat="43.7309" lon="6.95972">
        <ele>772.8</ele>
        <time>2015-11-07T09:52:29Z</time>
      </trkpt>
      <trkpt lat="43.73092" lon="6.95971">
        <ele>773.2</ele>
        <time>2015-11-07T09:52:30Z</time>
      </trkpt>
      <trkpt lat="43.73093" lon="6.95969">
        <ele>773.6</ele>
        <time>2015-11-07T09:52:31Z</time>
      </trkpt>
      <trkpt lat="43.73096" lon="6.95968">
        <ele>774</ele>
        <time>2015-11-07T09:52:32Z</time>
      </trkpt>
      <trkpt lat="43.73109" lon="6.9596">
        <ele>774</ele>
        <time>2015-11-07T09:52:39Z</time>
      </trkpt>
      <trkpt lat="43.73114" lon="6.95955">
        <ele>774.4</ele>
        <time>2015-11-07T09:52:42Z</time>
      </trkpt>
      <trkpt lat="43.73116" lon="6.95953">
        <ele>774.8</ele>
        <time>2015-11-07T09:52:43Z</time>
      </trkpt>
      <trkpt lat="43.73119" lon="6.95952">
        <ele>775.2</ele>
        <time>2015-11-07T09:52:44Z</time>
      </trkpt>
      <trkpt lat="43.73121" lon="6.9595">
        <ele>775.6</ele>
        <time>2015-11-07T09:52:45Z</time>
      </trkpt>
      <trkpt lat="43.73123" lon="6.95949">
        <ele>776</ele>
        <time>2015-11-07T09:52:46Z</time>
      </trkpt>
      <trkpt lat="43.73139" lon="6.95937">
        <ele>776</ele>
        <time>2015-11-07T09:52:54Z</time>
      </trkpt>
      <trkpt lat="43.7315" lon="6.95932">
        <ele>776.4</ele>
        <time>2015-11-07T09:52:59Z</time>
      </trkpt>
      <trkpt lat="43.73151" lon="6.95931">
        <ele>776.8</ele>
        <time>2015-11-07T09:53:00Z</time>
      </trkpt>
      <trkpt lat="43.73153" lon="6.95929">
        <ele>777.2</ele>
        <time>2015-11-07T09:53:01Z</time>
      </trkpt>
      <trkpt lat="43.73154" lon="6.95928">
        <ele>777.6</ele>
        <time>2015-11-07T09:53:02Z</time>
      </trkpt>
      <trkpt lat="43.73156" lon="6.95927">
        <ele>778.2</ele>
        <time>2015-11-07T09:53:03Z</time>
      </trkpt>
      <trkpt lat="43.73168" lon="6.95918">
        <ele>778.6</ele>
        <time>2015-11-07T09:53:10Z</time>
      </trkpt>
      <trkpt lat="43.7317" lon="6.95917">
        <ele>779</ele>
        <time>2015-11-07T09:53:11Z</time>
      </trkpt>
      <trkpt lat="43.73172" lon="6.95916">
        <ele>779.4</ele>
        <time>2015-11-07T09:53:12Z</time>
      </trkpt>
      <trkpt lat="43.73174" lon="6.95915">
        <ele>779.8</ele>
        <time>2015-11-07T09:53:13Z</time>
      </trkpt>
      <trkpt lat="43.73175" lon="6.95914">
        <ele>780.2</ele>
        <time>2015-11-07T09:53:14Z</time>
      </trkpt>
      <trkpt lat="43.73181" lon="6.95907">
        <ele>780.2</ele>
        <time>2015-11-07T09:53:19Z</time>
      </trkpt>
      <trkpt lat="43.73194" lon="6.95895">
        <ele>780.6</ele>
        <time>2015-11-07T09:53:26Z</time>
      </trkpt>
      <trkpt lat="43.73196" lon="6.95894">
        <ele>781</ele>
        <time>2015-11-07T09:53:27Z</time>
      </trkpt>
      <trkpt lat="43.73198" lon="6.95892">
        <ele>781.4</ele>
        <time>2015-11-07T09:53:28Z</time>
      </trkpt>
      <trkpt lat="43.73201" lon="6.9589">
        <ele>781.8</ele>
        <time>2015-11-07T09:53:29Z</time>
      </trkpt>
      <trkpt lat="43.73204" lon="6.95889">
        <ele>782.2</ele>
        <time>2015-11-07T09:53:30Z</time>
      </trkpt>
      <trkpt lat="43.73216" lon="6.95878">
        <ele>782.2</ele>
        <time>2015-11-07T09:53:37Z</time>
      </trkpt>
      <trkpt lat="43.73226" lon="6.95866">
        <ele>782.6</ele>
        <time>2015-11-07T09:53:43Z</time>
      </trkpt>
      <trkpt lat="43.73228" lon="6.95863">
        <ele>783</ele>
        <time>2015-11-07T09:53:44Z</time>
      </trkpt>
      <trkpt lat="43.7323" lon="6.95861">
        <ele>783.4</ele>
        <time>2015-11-07T09:53:45Z</time>
      </trkpt>
      <trkpt lat="43.73231" lon="6.95859">
        <ele>783.8</ele>
        <time>2015-11-07T09:53:46Z</time>
      </trkpt>
      <trkpt lat="43.73233" lon="6.95857">
        <ele>784.4</ele>
        <time>2015-11-07T09:53:47Z</time>
      </trkpt>
      <trkpt lat="43.73243" lon="6.95846">
        <ele>784.4</ele>
        <time>2015-11-07T09:53:53Z</time>
      </trkpt>
      <trkpt lat="43.73247" lon="6.95841">
        <ele>784.8</ele>
        <time>2015-11-07T09:53:55Z</time>
      </trkpt>
      <trkpt lat="43.73248" lon="6.95838">
        <ele>785.2</ele>
        <time>2015-11-07T09:53:56Z</time>
      </trkpt>
      <trkpt lat="43.7325" lon="6.95836">
        <ele>785.6</ele>
        <time>2015-11-07T09:53:57Z</time>
      </trkpt>
      <trkpt lat="43.73251" lon="6.95834">
        <ele>786</ele>
        <time>2015-11-07T09:53:58Z</time>
      </trkpt>
      <trkpt lat="43.73253" lon="6.95832">
        <ele>786.4</ele>
        <time>2015-11-07T09:53:59Z</time>
      </trkpt>
      <trkpt lat="43.73257" lon="6.95828">
        <ele>786.4</ele>
        <time>2015-11-07T09:54:02Z</time>
      </trkpt>
      <trkpt lat="43.73271" lon="6.95818">
        <ele>786.8</ele>
        <time>2015-11-07T09:54:09Z</time>
      </trkpt>
      <trkpt lat="43.73273" lon="6.95817">
        <ele>787.2</ele>
        <time>2015-11-07T09:54:10Z</time>
      </trkpt>
      <trkpt lat="43.73276" lon="6.95816">
        <ele>787.6</ele>
        <time>2015-11-07T09:54:11Z</time>
      </trkpt>
      <trkpt lat="43.73278" lon="6.95815">
        <ele>788</ele>
        <time>2015-11-07T09:54:12Z</time>
      </trkpt>
      <trkpt lat="43.7328" lon="6.95814">
        <ele>788.4</ele>
        <time>2015-11-07T09:54:13Z</time>
      </trkpt>
      <trkpt lat="43.73292" lon="6.95811">
        <ele>788.4</ele>
        <time>2015-11-07T09:54:19Z</time>
      </trkpt>
      <trkpt lat="43.73308" lon="6.95813">
        <ele>788.8</ele>
        <time>2015-11-07T09:54:26Z</time>
      </trkpt>
      <trkpt lat="43.73311" lon="6.95813">
        <ele>789.2</ele>
        <time>2015-11-07T09:54:27Z</time>
      </trkpt>
      <trkpt lat="43.73313" lon="6.95813">
        <ele>789.8</ele>
        <time>2015-11-07T09:54:28Z</time>
      </trkpt>
      <trkpt lat="43.73315" lon="6.95814">
        <ele>790.2</ele>
        <time>2015-11-07T09:54:29Z</time>
      </trkpt>
      <trkpt lat="43.73317" lon="6.95814">
        <ele>790.6</ele>
        <time>2015-11-07T09:54:30Z</time>
      </trkpt>
      <trkpt lat="43.73332" lon="6.95817">
        <ele>790.6</ele>
        <time>2015-11-07T09:54:36Z</time>
      </trkpt>
      <trkpt lat="43.73335" lon="6.95817">
        <ele>791.2</ele>
        <time>2015-11-07T09:54:37Z</time>
      </trkpt>
      <trkpt lat="43.73337" lon="6.95818">
        <ele>791.6</ele>
        <time>2015-11-07T09:54:38Z</time>
      </trkpt>
      <trkpt lat="43.73339" lon="6.95818">
        <ele>792</ele>
        <time>2015-11-07T09:54:39Z</time>
      </trkpt>
      <trkpt lat="43.73342" lon="6.95819">
        <ele>792.4</ele>
        <time>2015-11-07T09:54:40Z</time>
      </trkpt>
      <trkpt lat="43.73345" lon="6.9582">
        <ele>793</ele>
        <time>2015-11-07T09:54:41Z</time>
      </trkpt>
      <trkpt lat="43.73355" lon="6.95821">
        <ele>793</ele>
        <time>2015-11-07T09:54:45Z</time>
      </trkpt>
      <trkpt lat="43.73363" lon="6.95821">
        <ele>793.4</ele>
        <time>2015-11-07T09:54:49Z</time>
      </trkpt>
      <trkpt lat="43.73365" lon="6.95821">
        <ele>793.8</ele>
        <time>2015-11-07T09:54:50Z</time>
      </trkpt>
      <trkpt lat="43.73367" lon="6.95822">
        <ele>794.2</ele>
        <time>2015-11-07T09:54:51Z</time>
      </trkpt>
      <trkpt lat="43.73369" lon="6.95821">
        <ele>794.6</ele>
        <time>2015-11-07T09:54:52Z</time>
      </trkpt>
      <trkpt lat="43.73371" lon="6.9582">
        <ele>795</ele>
        <time>2015-11-07T09:54:53Z</time>
      </trkpt>
      <trkpt lat="43.73388" lon="6.95813">
        <ele>795</ele>
        <time>2015-11-07T09:55:01Z</time>
      </trkpt>
      <trkpt lat="43.73396" lon="6.95804">
        <ele>795.4</ele>
        <time>2015-11-07T09:55:05Z</time>
      </trkpt>
      <trkpt lat="43.73397" lon="6.95801">
        <ele>795.8</ele>
        <time>2015-11-07T09:55:06Z</time>
      </trkpt>
      <trkpt lat="43.73398" lon="6.95798">
        <ele>796.2</ele>
        <time>2015-11-07T09:55:07Z</time>
      </trkpt>
      <trkpt lat="43.73399" lon="6.95795">
        <ele>796.6</ele>
        <time>2015-11-07T09:55:08Z</time>
      </trkpt>
      <trkpt lat="43.734" lon="6.95792">
        <ele>797</ele>
        <time>2015-11-07T09:55:09Z</time>
      </trkpt>
      <trkpt lat="43.73402" lon="6.95775">
        <ele>797</ele>
        <time>2015-11-07T09:55:15Z</time>
      </trkpt>
      <trkpt lat="43.73401" lon="6.9577">
        <ele>797.6</ele>
        <time>2015-11-07T09:55:17Z</time>
      </trkpt>
      <trkpt lat="43.734" lon="6.95767">
        <ele>798</ele>
        <time>2015-11-07T09:55:18Z</time>
      </trkpt>
      <trkpt lat="43.73399" lon="6.95763">
        <ele>798.4</ele>
        <time>2015-11-07T09:55:19Z</time>
      </trkpt>
      <trkpt lat="43.73398" lon="6.9576">
        <ele>799</ele>
        <time>2015-11-07T09:55:20Z</time>
      </trkpt>
      <trkpt lat="43.73397" lon="6.95757">
        <ele>799.4</ele>
        <time>2015-11-07T09:55:21Z</time>
      </trkpt>
      <trkpt lat="43.73394" lon="6.95752">
        <ele>799.4</ele>
        <time>2015-11-07T09:55:23Z</time>
      </trkpt>
      <trkpt lat="43.73383" lon="6.95728">
        <ele>799.4</ele>
        <time>2015-11-07T09:55:32Z</time>
      </trkpt>
      <trkpt lat="43.73382" lon="6.95707">
        <ele>799.8</ele>
        <time>2015-11-07T09:55:38Z</time>
      </trkpt>
      <trkpt lat="43.73382" lon="6.95704">
        <ele>800.4</ele>
        <time>2015-11-07T09:55:39Z</time>
      </trkpt>
      <trkpt lat="43.73383" lon="6.957">
        <ele>800.8</ele>
        <time>2015-11-07T09:55:40Z</time>
      </trkpt>
      <trkpt lat="43.73384" lon="6.95697">
        <ele>801.2</ele>
        <time>2015-11-07T09:55:41Z</time>
      </trkpt>
      <trkpt lat="43.73385" lon="6.95694">
        <ele>801.6</ele>
        <time>2015-11-07T09:55:42Z</time>
      </trkpt>
      <trkpt lat="43.7339" lon="6.95679">
        <ele>801.6</ele>
        <time>2015-11-07T09:55:47Z</time>
      </trkpt>
      <trkpt lat="43.73396" lon="6.95662">
        <ele>802.2</ele>
        <time>2015-11-07T09:55:53Z</time>
      </trkpt>
      <trkpt lat="43.73397" lon="6.9566">
        <ele>802.6</ele>
        <time>2015-11-07T09:55:54Z</time>
      </trkpt>
      <trkpt lat="43.73398" lon="6.95658">
        <ele>803</ele>
        <time>2015-11-07T09:55:55Z</time>
      </trkpt>
      <trkpt lat="43.73399" lon="6.95656">
        <ele>803.4</ele>
        <time>2015-11-07T09:55:56Z</time>
      </trkpt>
      <trkpt lat="43.734" lon="6.95653">
        <ele>803.8</ele>
        <time>2015-11-07T09:55:57Z</time>
      </trkpt>
      <trkpt lat="43.73409" lon="6.95639">
        <ele>803.8</ele>
        <time>2015-11-07T09:56:03Z</time>
      </trkpt>
      <trkpt lat="43.73414" lon="6.95633">
        <ele>804.4</ele>
        <time>2015-11-07T09:56:06Z</time>
      </trkpt>
      <trkpt lat="43.73416" lon="6.95631">
        <ele>804.8</ele>
        <time>2015-11-07T09:56:07Z</time>
      </trkpt>
      <trkpt lat="43.73417" lon="6.95629">
        <ele>805.2</ele>
        <time>2015-11-07T09:56:08Z</time>
      </trkpt>
      <trkpt lat="43.73419" lon="6.95627">
        <ele>805.6</ele>
        <time>2015-11-07T09:56:09Z</time>
      </trkpt>
      <trkpt lat="43.73421" lon="6.95624">
        <ele>806</ele>
        <time>2015-11-07T09:56:10Z</time>
      </trkpt>
      <trkpt lat="43.73426" lon="6.95619">
        <ele>806</ele>
        <time>2015-11-07T09:56:13Z</time>
      </trkpt>
      <trkpt lat="43.73437" lon="6.95605">
        <ele>806.4</ele>
        <time>2015-11-07T09:56:19Z</time>
      </trkpt>
      <trkpt lat="43.73439" lon="6.95602">
        <ele>807</ele>
        <time>2015-11-07T09:56:20Z</time>
      </trkpt>
      <trkpt lat="43.73441" lon="6.95599">
        <ele>807.4</ele>
        <time>2015-11-07T09:56:21Z</time>
      </trkpt>
      <trkpt lat="43.73443" lon="6.95597">
        <ele>807.8</ele>
        <time>2015-11-07T09:56:22Z</time>
      </trkpt>
      <trkpt lat="43.73445" lon="6.95595">
        <ele>808.4</ele>
        <time>2015-11-07T09:56:23Z</time>
      </trkpt>
      <trkpt lat="43.73459" lon="6.95578">
        <ele>808.4</ele>
        <time>2015-11-07T09:56:30Z</time>
      </trkpt>
      <trkpt lat="43.73462" lon="6.95565">
        <ele>808.8</ele>
        <time>2015-11-07T09:56:34Z</time>
      </trkpt>
      <trkpt lat="43.73462" lon="6.95562">
        <ele>809.2</ele>
        <time>2015-11-07T09:56:35Z</time>
      </trkpt>
      <trkpt lat="43.73462" lon="6.95558">
        <ele>809.8</ele>
        <time>2015-11-07T09:56:36Z</time>
      </trkpt>
      <trkpt lat="43.73462" lon="6.95553">
        <ele>810.2</ele>
        <time>2015-11-07T09:56:37Z</time>
      </trkpt>
      <trkpt lat="43.73462" lon="6.9555">
        <ele>810.6</ele>
        <time>2015-11-07T09:56:38Z</time>
      </trkpt>
      <trkpt lat="43.73462" lon="6.95536">
        <ele>810.6</ele>
        <time>2015-11-07T09:56:42Z</time>
      </trkpt>
      <trkpt lat="43.73462" lon="6.95516">
        <ele>811</ele>
        <time>2015-11-07T09:56:48Z</time>
      </trkpt>
      <trkpt lat="43.73463" lon="6.95513">
        <ele>811.4</ele>
        <time>2015-11-07T09:56:49Z</time>
      </trkpt>
      <trkpt lat="43.73463" lon="6.9551">
        <ele>811.8</ele>
        <time>2015-11-07T09:56:50Z</time>
      </trkpt>
      <trkpt lat="43.73463" lon="6.95506">
        <ele>812.2</ele>
        <time>2015-11-07T09:56:51Z</time>
      </trkpt>
      <trkpt lat="43.73463" lon="6.95503">
        <ele>812.8</ele>
        <time>2015-11-07T09:56:52Z</time>
      </trkpt>
      <trkpt lat="43.73463" lon="6.95482">
        <ele>812.8</ele>
        <time>2015-11-07T09:56:59Z</time>
      </trkpt>
      <trkpt lat="43.73463" lon="6.95476">
        <ele>813.2</ele>
        <time>2015-11-07T09:57:01Z</time>
      </trkpt>
      <trkpt lat="43.73463" lon="6.95473">
        <ele>813.6</ele>
        <time>2015-11-07T09:57:02Z</time>
      </trkpt>
      <trkpt lat="43.73463" lon="6.9547">
        <ele>814</ele>
        <time>2015-11-07T09:57:03Z</time>
      </trkpt>
      <trkpt lat="43.73463" lon="6.95467">
        <ele>814.4</ele>
        <time>2015-11-07T09:57:04Z</time>
      </trkpt>
      <trkpt lat="43.73463" lon="6.95464">
        <ele>814.8</ele>
        <time>2015-11-07T09:57:05Z</time>
      </trkpt>
      <trkpt lat="43.73464" lon="6.95448">
        <ele>814.8</ele>
        <time>2015-11-07T09:57:10Z</time>
      </trkpt>
      <trkpt lat="43.73464" lon="6.95432">
        <ele>815.2</ele>
        <time>2015-11-07T09:57:15Z</time>
      </trkpt>
      <trkpt lat="43.73464" lon="6.95429">
        <ele>815.6</ele>
        <time>2015-11-07T09:57:16Z</time>
      </trkpt>
      <trkpt lat="43.73464" lon="6.95425">
        <ele>816</ele>
        <time>2015-11-07T09:57:17Z</time>
      </trkpt>
      <trkpt lat="43.73464" lon="6.95422">
        <ele>816.4</ele>
        <time>2015-11-07T09:57:18Z</time>
      </trkpt>
      <trkpt lat="43.73464" lon="6.95419">
        <ele>816.8</ele>
        <time>2015-11-07T09:57:19Z</time>
      </trkpt>
      <trkpt lat="43.73464" lon="6.95409">
        <ele>816.8</ele>
        <time>2015-11-07T09:57:22Z</time>
      </trkpt>
      <trkpt lat="43.73465" lon="6.95389">
        <ele>817.4</ele>
        <time>2015-11-07T09:57:28Z</time>
      </trkpt>
      <trkpt lat="43.73465" lon="6.95386">
        <ele>817.8</ele>
        <time>2015-11-07T09:57:29Z</time>
      </trkpt>
      <trkpt lat="43.73466" lon="6.95383">
        <ele>818.2</ele>
        <time>2015-11-07T09:57:30Z</time>
      </trkpt>
      <trkpt lat="43.73466" lon="6.9538">
        <ele>818.6</ele>
        <time>2015-11-07T09:57:31Z</time>
      </trkpt>
      <trkpt lat="43.73467" lon="6.95376">
        <ele>819</ele>
        <time>2015-11-07T09:57:32Z</time>
      </trkpt>
      <trkpt lat="43.73473" lon="6.95351">
        <ele>819</ele>
        <time>2015-11-07T09:57:41Z</time>
      </trkpt>
      <trkpt lat="43.73474" lon="6.95348">
        <ele>819.4</ele>
        <time>2015-11-07T09:57:42Z</time>
      </trkpt>
      <trkpt lat="43.73474" lon="6.95345">
        <ele>819.8</ele>
        <time>2015-11-07T09:57:43Z</time>
      </trkpt>
      <trkpt lat="43.73475" lon="6.95342">
        <ele>820.2</ele>
        <time>2015-11-07T09:57:44Z</time>
      </trkpt>
      <trkpt lat="43.73476" lon="6.95338">
        <ele>820.6</ele>
        <time>2015-11-07T09:57:45Z</time>
      </trkpt>
      <trkpt lat="43.73477" lon="6.95335">
        <ele>821.2</ele>
        <time>2015-11-07T09:57:46Z</time>
      </trkpt>
      <trkpt lat="43.73485" lon="6.95317">
        <ele>821.2</ele>
        <time>2015-11-07T09:57:52Z</time>
      </trkpt>
      <trkpt lat="43.73488" lon="6.9531">
        <ele>821.6</ele>
        <time>2015-11-07T09:57:54Z</time>
      </trkpt>
      <trkpt lat="43.7349" lon="6.95307">
        <ele>822</ele>
        <time>2015-11-07T09:57:55Z</time>
      </trkpt>
      <trkpt lat="43.73491" lon="6.95304">
        <ele>822.4</ele>
        <time>2015-11-07T09:57:56Z</time>
      </trkpt>
      <trkpt lat="43.73493" lon="6.95302">
        <ele>822.8</ele>
        <time>2015-11-07T09:57:57Z</time>
      </trkpt>
      <trkpt lat="43.73495" lon="6.95299">
        <ele>823.2</ele>
        <time>2015-11-07T09:57:58Z</time>
      </trkpt>
      <trkpt lat="43.735" lon="6.95291">
        <ele>823.2</ele>
        <time>2015-11-07T09:58:01Z</time>
      </trkpt>
      <trkpt lat="43.73509" lon="6.95276">
        <ele>823.6</ele>
        <time>2015-11-07T09:58:06Z</time>
      </trkpt>
      <trkpt lat="43.73511" lon="6.95274">
        <ele>824</ele>
        <time>2015-11-07T09:58:07Z</time>
      </trkpt>
      <trkpt lat="43.73513" lon="6.95271">
        <ele>824.4</ele>
        <time>2015-11-07T09:58:08Z</time>
      </trkpt>
      <trkpt lat="43.73515" lon="6.95268">
        <ele>824.8</ele>
        <time>2015-11-07T09:58:09Z</time>
      </trkpt>
      <trkpt lat="43.73517" lon="6.95266">
        <ele>825.2</ele>
        <time>2015-11-07T09:58:10Z</time>
      </trkpt>
      <trkpt lat="43.73524" lon="6.95258">
        <ele>825.2</ele>
        <time>2015-11-07T09:58:13Z</time>
      </trkpt>
      <trkpt lat="43.73528" lon="6.95252">
        <ele>825.6</ele>
        <time>2015-11-07T09:58:15Z</time>
      </trkpt>
      <trkpt lat="43.7353" lon="6.95249">
        <ele>826.2</ele>
        <time>2015-11-07T09:58:16Z</time>
      </trkpt>
      <trkpt lat="43.73532" lon="6.95246">
        <ele>826.6</ele>
        <time>2015-11-07T09:58:17Z</time>
      </trkpt>
      <trkpt lat="43.73534" lon="6.95243">
        <ele>827</ele>
        <time>2015-11-07T09:58:18Z</time>
      </trkpt>
      <trkpt lat="43.73535" lon="6.9524">
        <ele>827.6</ele>
        <time>2015-11-07T09:58:19Z</time>
      </trkpt>
      <trkpt lat="43.73546" lon="6.95225">
        <ele>827.6</ele>
        <time>2015-11-07T09:58:24Z</time>
      </trkpt>
      <trkpt lat="43.73554" lon="6.95213">
        <ele>828</ele>
        <time>2015-11-07T09:58:28Z</time>
      </trkpt>
      <trkpt lat="43.73556" lon="6.9521">
        <ele>828.4</ele>
        <time>2015-11-07T09:58:29Z</time>
      </trkpt>
      <trkpt lat="43.73558" lon="6.95207">
        <ele>828.8</ele>
        <time>2015-11-07T09:58:30Z</time>
      </trkpt>
      <trkpt lat="43.7356" lon="6.95205">
        <ele>829.2</ele>
        <time>2015-11-07T09:58:31Z</time>
      </trkpt>
      <trkpt lat="43.73562" lon="6.95202">
        <ele>829.6</ele>
        <time>2015-11-07T09:58:32Z</time>
      </trkpt>
      <trkpt lat="43.73567" lon="6.95197">
        <ele>829.6</ele>
        <time>2015-11-07T09:58:34Z</time>
      </trkpt>
      <trkpt lat="43.73576" lon="6.95188">
        <ele>830</ele>
        <time>2015-11-07T09:58:38Z</time>
      </trkpt>
      <trkpt lat="43.73578" lon="6.95186">
        <ele>830.4</ele>
        <time>2015-11-07T09:58:39Z</time>
      </trkpt>
      <trkpt lat="43.7358" lon="6.95183">
        <ele>830.8</ele>
        <time>2015-11-07T09:58:40Z</time>
      </trkpt>
      <trkpt lat="43.73582" lon="6.95181">
        <ele>831.2</ele>
        <time>2015-11-07T09:58:41Z</time>
      </trkpt>
      <trkpt lat="43.73584" lon="6.95179">
        <ele>831.6</ele>
        <time>2015-11-07T09:58:42Z</time>
      </trkpt>
      <trkpt lat="43.73595" lon="6.95169">
        <ele>832</ele>
        <time>2015-11-07T09:58:47Z</time>
      </trkpt>
      <trkpt lat="43.73598" lon="6.95167">
        <ele>832.4</ele>
        <time>2015-11-07T09:58:48Z</time>
      </trkpt>
      <trkpt lat="43.736" lon="6.95165">
        <ele>833</ele>
        <time>2015-11-07T09:58:49Z</time>
      </trkpt>
      <trkpt lat="43.73602" lon="6.95163">
        <ele>833.4</ele>
        <time>2015-11-07T09:58:50Z</time>
      </trkpt>
      <trkpt lat="43.73604" lon="6.95161">
        <ele>833.8</ele>
        <time>2015-11-07T09:58:51Z</time>
      </trkpt>
      <trkpt lat="43.73607" lon="6.95159">
        <ele>833.8</ele>
        <time>2015-11-07T09:58:52Z</time>
      </trkpt>
      <trkpt lat="43.73616" lon="6.95148">
        <ele>834.2</ele>
        <time>2015-11-07T09:58:57Z</time>
      </trkpt>
      <trkpt lat="43.73617" lon="6.95145">
        <ele>834.6</ele>
        <time>2015-11-07T09:58:58Z</time>
      </trkpt>
      <trkpt lat="43.73618" lon="6.95141">
        <ele>835</ele>
        <time>2015-11-07T09:58:59Z</time>
      </trkpt>
      <trkpt lat="43.73618" lon="6.95137">
        <ele>835.6</ele>
        <time>2015-11-07T09:59:00Z</time>
      </trkpt>
      <trkpt lat="43.73618" lon="6.95134">
        <ele>836</ele>
        <time>2015-11-07T09:59:01Z</time>
      </trkpt>
      <trkpt lat="43.73616" lon="6.95126">
        <ele>836</ele>
        <time>2015-11-07T09:59:03Z</time>
      </trkpt>
      <trkpt lat="43.73605" lon="6.95112">
        <ele>836</ele>
        <time>2015-11-07T09:59:09Z</time>
      </trkpt>
      <trkpt lat="43.73596" lon="6.95109">
        <ele>836.4</ele>
        <time>2015-11-07T09:59:12Z</time>
      </trkpt>
      <trkpt lat="43.73593" lon="6.9511">
        <ele>836.8</ele>
        <time>2015-11-07T09:59:13Z</time>
      </trkpt>
      <trkpt lat="43.7359" lon="6.9511">
        <ele>837.2</ele>
        <time>2015-11-07T09:59:14Z</time>
      </trkpt>
      <trkpt lat="43.73587" lon="6.9511">
        <ele>837.8</ele>
        <time>2015-11-07T09:59:15Z</time>
      </trkpt>
      <trkpt lat="43.73583" lon="6.95111">
        <ele>838.2</ele>
        <time>2015-11-07T09:59:16Z</time>
      </trkpt>
      <trkpt lat="43.73563" lon="6.95111">
        <ele>838.2</ele>
        <time>2015-11-07T09:59:23Z</time>
      </trkpt>
      <trkpt lat="43.73552" lon="6.9511">
        <ele>838.6</ele>
        <time>2015-11-07T09:59:27Z</time>
      </trkpt>
      <trkpt lat="43.73549" lon="6.9511">
        <ele>839</ele>
        <time>2015-11-07T09:59:28Z</time>
      </trkpt>
      <trkpt lat="43.73546" lon="6.9511">
        <ele>839.4</ele>
        <time>2015-11-07T09:59:29Z</time>
      </trkpt>
      <trkpt lat="43.73544" lon="6.9511">
        <ele>839.8</ele>
        <time>2015-11-07T09:59:30Z</time>
      </trkpt>
      <trkpt lat="43.73541" lon="6.9511">
        <ele>840.2</ele>
        <time>2015-11-07T09:59:31Z</time>
      </trkpt>
      <trkpt lat="43.73534" lon="6.9511">
        <ele>840.2</ele>
        <time>2015-11-07T09:59:34Z</time>
      </trkpt>
      <trkpt lat="43.73526" lon="6.9511">
        <ele>840.6</ele>
        <time>2015-11-07T09:59:37Z</time>
      </trkpt>
      <trkpt lat="43.73523" lon="6.9511">
        <ele>841.2</ele>
        <time>2015-11-07T09:59:38Z</time>
      </trkpt>
      <trkpt lat="43.7352" lon="6.95109">
        <ele>841.6</ele>
        <time>2015-11-07T09:59:39Z</time>
      </trkpt>
      <trkpt lat="43.73517" lon="6.95109">
        <ele>842</ele>
        <time>2015-11-07T09:59:40Z</time>
      </trkpt>
      <trkpt lat="43.73514" lon="6.95109">
        <ele>842.4</ele>
        <time>2015-11-07T09:59:41Z</time>
      </trkpt>
      <trkpt lat="43.73503" lon="6.95109">
        <ele>842.4</ele>
        <time>2015-11-07T09:59:45Z</time>
      </trkpt>
      <trkpt lat="43.73492" lon="6.95109">
        <ele>842.8</ele>
        <time>2015-11-07T09:59:49Z</time>
      </trkpt>
      <trkpt lat="43.7349" lon="6.95109">
        <ele>843.4</ele>
        <time>2015-11-07T09:59:50Z</time>
      </trkpt>
      <trkpt lat="43.73487" lon="6.9511">
        <ele>843.8</ele>
        <time>2015-11-07T09:59:51Z</time>
      </trkpt>
      <trkpt lat="43.73485" lon="6.95109">
        <ele>844.2</ele>
        <time>2015-11-07T09:59:52Z</time>
      </trkpt>
      <trkpt lat="43.73482" lon="6.9511">
        <ele>844.6</ele>
        <time>2015-11-07T09:59:53Z</time>
      </trkpt>
      <trkpt lat="43.7348" lon="6.9511">
        <ele>844.6</ele>
        <time>2015-11-07T09:59:54Z</time>
      </trkpt>
      <trkpt lat="43.73458" lon="6.95108">
        <ele>845.2</ele>
        <time>2015-11-07T10:00:02Z</time>
      </trkpt>
      <trkpt lat="43.73455" lon="6.95108">
        <ele>845.6</ele>
        <time>2015-11-07T10:00:03Z</time>
      </trkpt>
      <trkpt lat="43.73453" lon="6.95107">
        <ele>846</ele>
        <time>2015-11-07T10:00:04Z</time>
      </trkpt>
      <trkpt lat="43.7345" lon="6.95107">
        <ele>846.4</ele>
        <time>2015-11-07T10:00:05Z</time>
      </trkpt>
      <trkpt lat="43.73448" lon="6.95106">
        <ele>847</ele>
        <time>2015-11-07T10:00:06Z</time>
      </trkpt>
      <trkpt lat="43.73438" lon="6.95101">
        <ele>847</ele>
        <time>2015-11-07T10:00:10Z</time>
      </trkpt>
      <trkpt lat="43.73436" lon="6.951">
        <ele>847.4</ele>
        <time>2015-11-07T10:00:11Z</time>
      </trkpt>
      <trkpt lat="43.73433" lon="6.95098">
        <ele>848</ele>
        <time>2015-11-07T10:00:12Z</time>
      </trkpt>
      <trkpt lat="43.73431" lon="6.95096">
        <ele>848.4</ele>
        <time>2015-11-07T10:00:13Z</time>
      </trkpt>
      <trkpt lat="43.73429" lon="6.95094">
        <ele>849</ele>
        <time>2015-11-07T10:00:14Z</time>
      </trkpt>
      <trkpt lat="43.73427" lon="6.95093">
        <ele>849.4</ele>
        <time>2015-11-07T10:00:15Z</time>
      </trkpt>
      <trkpt lat="43.73421" lon="6.9509">
        <ele>849.4</ele>
        <time>2015-11-07T10:00:18Z</time>
      </trkpt>
      <trkpt lat="43.73406" lon="6.95087">
        <ele>849.4</ele>
        <time>2015-11-07T10:00:24Z</time>
      </trkpt>
      <trkpt lat="43.734" lon="6.9509">
        <ele>850</ele>
        <time>2015-11-07T10:00:26Z</time>
      </trkpt>
      <trkpt lat="43.73397" lon="6.95091">
        <ele>850.4</ele>
        <time>2015-11-07T10:00:27Z</time>
      </trkpt>
      <trkpt lat="43.73395" lon="6.95094">
        <ele>850.8</ele>
        <time>2015-11-07T10:00:28Z</time>
      </trkpt>
      <trkpt lat="43.73393" lon="6.95096">
        <ele>851.2</ele>
        <time>2015-11-07T10:00:29Z</time>
      </trkpt>
      <trkpt lat="43.73391" lon="6.95098">
        <ele>851.8</ele>
        <time>2015-11-07T10:00:30Z</time>
      </trkpt>
      <trkpt lat="43.73379" lon="6.95112">
        <ele>852.2</ele>
        <time>2015-11-07T10:00:36Z</time>
      </trkpt>
      <trkpt lat="43.73377" lon="6.95115">
        <ele>852.6</ele>
        <time>2015-11-07T10:00:37Z</time>
      </trkpt>
      <trkpt lat="43.73376" lon="6.95117">
        <ele>853</ele>
        <time>2015-11-07T10:00:38Z</time>
      </trkpt>
      <trkpt lat="43.73375" lon="6.9512">
        <ele>853.4</ele>
        <time>2015-11-07T10:00:39Z</time>
      </trkpt>
      <trkpt lat="43.73373" lon="6.95122">
        <ele>853.8</ele>
        <time>2015-11-07T10:00:40Z</time>
      </trkpt>
      <trkpt lat="43.73362" lon="6.95141">
        <ele>854.2</ele>
        <time>2015-11-07T10:00:47Z</time>
      </trkpt>
      <trkpt lat="43.7336" lon="6.95144">
        <ele>854.6</ele>
        <time>2015-11-07T10:00:48Z</time>
      </trkpt>
      <trkpt lat="43.73358" lon="6.95147">
        <ele>855</ele>
        <time>2015-11-07T10:00:49Z</time>
      </trkpt>
      <trkpt lat="43.73356" lon="6.95149">
        <ele>855.4</ele>
        <time>2015-11-07T10:00:50Z</time>
      </trkpt>
      <trkpt lat="43.73355" lon="6.95152">
        <ele>855.8</ele>
        <time>2015-11-07T10:00:51Z</time>
      </trkpt>
      <trkpt lat="43.7334" lon="6.95167">
        <ele>855.8</ele>
        <time>2015-11-07T10:00:58Z</time>
      </trkpt>
      <trkpt lat="43.73338" lon="6.95169">
        <ele>856.2</ele>
        <time>2015-11-07T10:00:59Z</time>
      </trkpt>
      <trkpt lat="43.73336" lon="6.95171">
        <ele>856.6</ele>
        <time>2015-11-07T10:01:00Z</time>
      </trkpt>
      <trkpt lat="43.73334" lon="6.95173">
        <ele>857.2</ele>
        <time>2015-11-07T10:01:01Z</time>
      </trkpt>
      <trkpt lat="43.73332" lon="6.95175">
        <ele>857.6</ele>
        <time>2015-11-07T10:01:02Z</time>
      </trkpt>
      <trkpt lat="43.7333" lon="6.95177">
        <ele>858</ele>
        <time>2015-11-07T10:01:03Z</time>
      </trkpt>
      <trkpt lat="43.73322" lon="6.95181">
        <ele>858</ele>
        <time>2015-11-07T10:01:06Z</time>
      </trkpt>
      <trkpt lat="43.73315" lon="6.95186">
        <ele>858.4</ele>
        <time>2015-11-07T10:01:09Z</time>
      </trkpt>
      <trkpt lat="43.73312" lon="6.95187">
        <ele>858.8</ele>
        <time>2015-11-07T10:01:10Z</time>
      </trkpt>
      <trkpt lat="43.7331" lon="6.95188">
        <ele>859.2</ele>
        <time>2015-11-07T10:01:11Z</time>
      </trkpt>
      <trkpt lat="43.73307" lon="6.95189">
        <ele>859.6</ele>
        <time>2015-11-07T10:01:12Z</time>
      </trkpt>
      <trkpt lat="43.73305" lon="6.9519">
        <ele>860.2</ele>
        <time>2015-11-07T10:01:13Z</time>
      </trkpt>
      <trkpt lat="43.73298" lon="6.95191">
        <ele>860.2</ele>
        <time>2015-11-07T10:01:15Z</time>
      </trkpt>
      <trkpt lat="43.73281" lon="6.95191">
        <ele>860.6</ele>
        <time>2015-11-07T10:01:21Z</time>
      </trkpt>
      <trkpt lat="43.73278" lon="6.9519">
        <ele>861</ele>
        <time>2015-11-07T10:01:22Z</time>
      </trkpt>
      <trkpt lat="43.73276" lon="6.9519">
        <ele>861.4</ele>
        <time>2015-11-07T10:01:23Z</time>
      </trkpt>
      <trkpt lat="43.73273" lon="6.95189">
        <ele>861.8</ele>
        <time>2015-11-07T10:01:24Z</time>
      </trkpt>
      <trkpt lat="43.73271" lon="6.95188">
        <ele>862.2</ele>
        <time>2015-11-07T10:01:25Z</time>
      </trkpt>
      <trkpt lat="43.73261" lon="6.95185">
        <ele>862.6</ele>
        <time>2015-11-07T10:01:29Z</time>
      </trkpt>
      <trkpt lat="43.73259" lon="6.95184">
        <ele>863</ele>
        <time>2015-11-07T10:01:30Z</time>
      </trkpt>
      <trkpt lat="43.73256" lon="6.95184">
        <ele>863.4</ele>
        <time>2015-11-07T10:01:31Z</time>
      </trkpt>
      <trkpt lat="43.73253" lon="6.95184">
        <ele>863.8</ele>
        <time>2015-11-07T10:01:32Z</time>
      </trkpt>
      <trkpt lat="43.73251" lon="6.95184">
        <ele>864.2</ele>
        <time>2015-11-07T10:01:33Z</time>
      </trkpt>
      <trkpt lat="43.7324" lon="6.95183">
        <ele>864.2</ele>
        <time>2015-11-07T10:01:39Z</time>
      </trkpt>
      <trkpt lat="43.73228" lon="6.95181">
        <ele>864.6</ele>
        <time>2015-11-07T10:01:44Z</time>
      </trkpt>
      <trkpt lat="43.73226" lon="6.9518">
        <ele>865</ele>
        <time>2015-11-07T10:01:45Z</time>
      </trkpt>
      <trkpt lat="43.73224" lon="6.95179">
        <ele>865.4</ele>
        <time>2015-11-07T10:01:46Z</time>
      </trkpt>
      <trkpt lat="43.73222" lon="6.95179">
        <ele>866</ele>
        <time>2015-11-07T10:01:47Z</time>
      </trkpt>
      <trkpt lat="43.73221" lon="6.95179">
        <ele>866.4</ele>
        <time>2015-11-07T10:01:48Z</time>
      </trkpt>
      <trkpt lat="43.73202" lon="6.95174">
        <ele>866.8</ele>
        <time>2015-11-07T10:01:56Z</time>
      </trkpt>
      <trkpt lat="43.732" lon="6.95174">
        <ele>867.2</ele>
        <time>2015-11-07T10:01:57Z</time>
      </trkpt>
      <trkpt lat="43.73197" lon="6.95174">
        <ele>867.6</ele>
        <time>2015-11-07T10:01:58Z</time>
      </trkpt>
      <trkpt lat="43.73195" lon="6.95174">
        <ele>868</ele>
        <time>2015-11-07T10:01:59Z</time>
      </trkpt>
      <trkpt lat="43.73193" lon="6.95175">
        <ele>868.4</ele>
        <time>2015-11-07T10:02:00Z</time>
      </trkpt>
      <trkpt lat="43.73186" lon="6.95178">
        <ele>868.4</ele>
        <time>2015-11-07T10:02:03Z</time>
      </trkpt>
      <trkpt lat="43.73184" lon="6.9518">
        <ele>868.8</ele>
        <time>2015-11-07T10:02:04Z</time>
      </trkpt>
      <trkpt lat="43.73182" lon="6.95181">
        <ele>869.2</ele>
        <time>2015-11-07T10:02:05Z</time>
      </trkpt>
      <trkpt lat="43.73178" lon="6.95185">
        <ele>870</ele>
        <time>2015-11-07T10:02:07Z</time>
      </trkpt>
      <trkpt lat="43.73176" lon="6.95187">
        <ele>870.4</ele>
        <time>2015-11-07T10:02:08Z</time>
      </trkpt>
      <trkpt lat="43.73174" lon="6.95193">
        <ele>870.4</ele>
        <time>2015-11-07T10:02:10Z</time>
      </trkpt>
      <trkpt lat="43.73168" lon="6.95216">
        <ele>870.8</ele>
        <time>2015-11-07T10:02:17Z</time>
      </trkpt>
      <trkpt lat="43.73167" lon="6.95219">
        <ele>871.4</ele>
        <time>2015-11-07T10:02:18Z</time>
      </trkpt>
      <trkpt lat="43.73167" lon="6.95221">
        <ele>871.8</ele>
        <time>2015-11-07T10:02:19Z</time>
      </trkpt>
      <trkpt lat="43.73167" lon="6.95224">
        <ele>872.2</ele>
        <time>2015-11-07T10:02:20Z</time>
      </trkpt>
      <trkpt lat="43.73167" lon="6.95228">
        <ele>872.6</ele>
        <time>2015-11-07T10:02:21Z</time>
      </trkpt>
      <trkpt lat="43.73168" lon="6.95245">
        <ele>872.6</ele>
        <time>2015-11-07T10:02:26Z</time>
      </trkpt>
      <trkpt lat="43.73166" lon="6.95264">
        <ele>872.6</ele>
        <time>2015-11-07T10:02:32Z</time>
      </trkpt>
      <trkpt lat="43.73165" lon="6.95268">
        <ele>873</ele>
        <time>2015-11-07T10:02:33Z</time>
      </trkpt>
      <trkpt lat="43.73165" lon="6.95271">
        <ele>873.4</ele>
        <time>2015-11-07T10:02:34Z</time>
      </trkpt>
      <trkpt lat="43.73164" lon="6.95274">
        <ele>873.8</ele>
        <time>2015-11-07T10:02:35Z</time>
      </trkpt>
      <trkpt lat="43.73164" lon="6.95277">
        <ele>874.2</ele>
        <time>2015-11-07T10:02:36Z</time>
      </trkpt>
      <trkpt lat="43.73164" lon="6.95281">
        <ele>874.6</ele>
        <time>2015-11-07T10:02:37Z</time>
      </trkpt>
      <trkpt lat="43.73162" lon="6.95287">
        <ele>874.6</ele>
        <time>2015-11-07T10:02:39Z</time>
      </trkpt>
      <trkpt lat="43.73157" lon="6.95304">
        <ele>875.2</ele>
        <time>2015-11-07T10:02:44Z</time>
      </trkpt>
      <trkpt lat="43.73155" lon="6.95307">
        <ele>875.6</ele>
        <time>2015-11-07T10:02:45Z</time>
      </trkpt>
      <trkpt lat="43.73154" lon="6.95311">
        <ele>876</ele>
        <time>2015-11-07T10:02:46Z</time>
      </trkpt>
      <trkpt lat="43.73152" lon="6.95314">
        <ele>876.6</ele>
        <time>2015-11-07T10:02:47Z</time>
      </trkpt>
      <trkpt lat="43.7315" lon="6.95317">
        <ele>877</ele>
        <time>2015-11-07T10:02:48Z</time>
      </trkpt>
      <trkpt lat="43.73144" lon="6.95326">
        <ele>877</ele>
        <time>2015-11-07T10:02:51Z</time>
      </trkpt>
      <trkpt lat="43.73136" lon="6.95336">
        <ele>877</ele>
        <time>2015-11-07T10:02:55Z</time>
      </trkpt>
      <trkpt lat="43.73133" lon="6.95341">
        <ele>877.4</ele>
        <time>2015-11-07T10:02:57Z</time>
      </trkpt>
      <trkpt lat="43.73131" lon="6.95343">
        <ele>877.8</ele>
        <time>2015-11-07T10:02:58Z</time>
      </trkpt>
      <trkpt lat="43.73129" lon="6.95345">
        <ele>878.2</ele>
        <time>2015-11-07T10:02:59Z</time>
      </trkpt>
      <trkpt lat="43.73127" lon="6.95345">
        <ele>878.8</ele>
        <time>2015-11-07T10:03:00Z</time>
      </trkpt>
      <trkpt lat="43.73125" lon="6.95346">
        <ele>879.2</ele>
        <time>2015-11-07T10:03:01Z</time>
      </trkpt>
      <trkpt lat="43.73118" lon="6.95343">
        <ele>879.2</ele>
        <time>2015-11-07T10:03:04Z</time>
      </trkpt>
      <trkpt lat="43.73114" lon="6.95332">
        <ele>879.2</ele>
        <time>2015-11-07T10:03:08Z</time>
      </trkpt>
      <trkpt lat="43.73114" lon="6.95329">
        <ele>879.2</ele>
        <time>2015-11-07T10:03:09Z</time>
      </trkpt>
      <trkpt lat="43.73114" lon="6.95327">
        <ele>879.6</ele>
        <time>2015-11-07T10:03:10Z</time>
      </trkpt>
      <trkpt lat="43.73115" lon="6.95324">
        <ele>880</ele>
        <time>2015-11-07T10:03:11Z</time>
      </trkpt>
      <trkpt lat="43.73115" lon="6.95322">
        <ele>880.6</ele>
        <time>2015-11-07T10:03:12Z</time>
      </trkpt>
      <trkpt lat="43.73116" lon="6.9532">
        <ele>881</ele>
        <time>2015-11-07T10:03:13Z</time>
      </trkpt>
      <trkpt lat="43.73117" lon="6.95317">
        <ele>881.4</ele>
        <time>2015-11-07T10:03:14Z</time>
      </trkpt>
      <trkpt lat="43.73119" lon="6.95315">
        <ele>881.4</ele>
        <time>2015-11-07T10:03:15Z</time>
      </trkpt>
      <trkpt lat="43.73125" lon="6.95296">
        <ele>881.4</ele>
        <time>2015-11-07T10:03:23Z</time>
      </trkpt>
      <trkpt lat="43.73121" lon="6.95297">
        <ele>881.4</ele>
        <time>2015-11-07T10:03:27Z</time>
      </trkpt>
      <trkpt lat="43.7312" lon="6.953">
        <ele>881.4</ele>
        <time>2015-11-07T10:03:28Z</time>
      </trkpt>
      <trkpt lat="43.7311" lon="6.95323">
        <ele>881.4</ele>
        <time>2015-11-07T10:03:34Z</time>
      </trkpt>
      <trkpt lat="43.73106" lon="6.95336">
        <ele>881.4</ele>
        <time>2015-11-07T10:03:38Z</time>
      </trkpt>
      <trkpt lat="43.73106" lon="6.95336">
        <ele>881.4</ele>
        <time>2015-11-07T10:03:44Z</time>
      </trkpt>
      <trkpt lat="43.73108" lon="6.95332">
        <ele>881.4</ele>
        <time>2015-11-07T10:05:22Z</time>
      </trkpt>
      <trkpt lat="43.7312" lon="6.9531">
        <ele>881.4</ele>
        <time>2015-11-07T10:05:31Z</time>
      </trkpt>
      <trkpt lat="43.73127" lon="6.9529">
        <ele>881.4</ele>
        <time>2015-11-07T10:05:38Z</time>
      </trkpt>
      <trkpt lat="43.73127" lon="6.95287">
        <ele>881.8</ele>
        <time>2015-11-07T10:05:39Z</time>
      </trkpt>
      <trkpt lat="43.73128" lon="6.95284">
        <ele>882.2</ele>
        <time>2015-11-07T10:05:40Z</time>
      </trkpt>
      <trkpt lat="43.73129" lon="6.95282">
        <ele>882.6</ele>
        <time>2015-11-07T10:05:41Z</time>
      </trkpt>
      <trkpt lat="43.73129" lon="6.95279">
        <ele>883.2</ele>
        <time>2015-11-07T10:05:42Z</time>
      </trkpt>
      <trkpt lat="43.7313" lon="6.95277">
        <ele>883.6</ele>
        <time>2015-11-07T10:05:43Z</time>
      </trkpt>
      <trkpt lat="43.73132" lon="6.95271">
        <ele>883.6</ele>
        <time>2015-11-07T10:05:45Z</time>
      </trkpt>
      <trkpt lat="43.73132" lon="6.95249">
        <ele>883.6</ele>
        <time>2015-11-07T10:05:53Z</time>
      </trkpt>
      <trkpt lat="43.73127" lon="6.95244">
        <ele>884</ele>
        <time>2015-11-07T10:05:56Z</time>
      </trkpt>
      <trkpt lat="43.73125" lon="6.95244">
        <ele>884.4</ele>
        <time>2015-11-07T10:05:57Z</time>
      </trkpt>
      <trkpt lat="43.73123" lon="6.95244">
        <ele>884.8</ele>
        <time>2015-11-07T10:05:58Z</time>
      </trkpt>
      <trkpt lat="43.73122" lon="6.95244">
        <ele>885.2</ele>
        <time>2015-11-07T10:05:59Z</time>
      </trkpt>
      <trkpt lat="43.7312" lon="6.95245">
        <ele>885.6</ele>
        <time>2015-11-07T10:06:00Z</time>
      </trkpt>
      <trkpt lat="43.73119" lon="6.95245">
        <ele>886</ele>
        <time>2015-11-07T10:06:01Z</time>
      </trkpt>
      <trkpt lat="43.73117" lon="6.95247">
        <ele>886.6</ele>
        <time>2015-11-07T10:06:02Z</time>
      </trkpt>
      <trkpt lat="43.73116" lon="6.95248">
        <ele>887</ele>
        <time>2015-11-07T10:06:03Z</time>
      </trkpt>
      <trkpt lat="43.73115" lon="6.95249">
        <ele>887.4</ele>
        <time>2015-11-07T10:06:04Z</time>
      </trkpt>
      <trkpt lat="43.73114" lon="6.95251">
        <ele>887.8</ele>
        <time>2015-11-07T10:06:05Z</time>
      </trkpt>
      <trkpt lat="43.73104" lon="6.95262">
        <ele>887.8</ele>
        <time>2015-11-07T10:06:12Z</time>
      </trkpt>
      <trkpt lat="43.73093" lon="6.95281">
        <ele>887.8</ele>
        <time>2015-11-07T10:06:21Z</time>
      </trkpt>
      <trkpt lat="43.73082" lon="6.95293">
        <ele>888.2</ele>
        <time>2015-11-07T10:06:28Z</time>
      </trkpt>
      <trkpt lat="43.7308" lon="6.95293">
        <ele>888.6</ele>
        <time>2015-11-07T10:06:29Z</time>
      </trkpt>
      <trkpt lat="43.73078" lon="6.95293">
        <ele>889.2</ele>
        <time>2015-11-07T10:06:30Z</time>
      </trkpt>
      <trkpt lat="43.73076" lon="6.95292">
        <ele>889.6</ele>
        <time>2015-11-07T10:06:31Z</time>
      </trkpt>
      <trkpt lat="43.73075" lon="6.95291">
        <ele>890</ele>
        <time>2015-11-07T10:06:32Z</time>
      </trkpt>
      <trkpt lat="43.7307" lon="6.9529">
        <ele>890</ele>
        <time>2015-11-07T10:06:35Z</time>
      </trkpt>
      <trkpt lat="43.73066" lon="6.95289">
        <ele>890.4</ele>
        <time>2015-11-07T10:06:38Z</time>
      </trkpt>
      <trkpt lat="43.73064" lon="6.95289">
        <ele>890.8</ele>
        <time>2015-11-07T10:06:39Z</time>
      </trkpt>
      <trkpt lat="43.73062" lon="6.95288">
        <ele>891.2</ele>
        <time>2015-11-07T10:06:40Z</time>
      </trkpt>
      <trkpt lat="43.7306" lon="6.95288">
        <ele>891.8</ele>
        <time>2015-11-07T10:06:41Z</time>
      </trkpt>
      <trkpt lat="43.73058" lon="6.95288">
        <ele>892.2</ele>
        <time>2015-11-07T10:06:42Z</time>
      </trkpt>
      <trkpt lat="43.73045" lon="6.95282">
        <ele>892.2</ele>
        <time>2015-11-07T10:06:50Z</time>
      </trkpt>
      <trkpt lat="43.73031" lon="6.95273">
        <ele>892.2</ele>
        <time>2015-11-07T10:06:57Z</time>
      </trkpt>
      <trkpt lat="43.73013" lon="6.95269">
        <ele>892.2</ele>
        <time>2015-11-07T10:07:06Z</time>
      </trkpt>
      <trkpt lat="43.73009" lon="6.95269">
        <ele>892.6</ele>
        <time>2015-11-07T10:07:08Z</time>
      </trkpt>
      <trkpt lat="43.73008" lon="6.9527">
        <ele>893</ele>
        <time>2015-11-07T10:07:09Z</time>
      </trkpt>
      <trkpt lat="43.73005" lon="6.9527">
        <ele>893.4</ele>
        <time>2015-11-07T10:07:10Z</time>
      </trkpt>
      <trkpt lat="43.73003" lon="6.95271">
        <ele>893.8</ele>
        <time>2015-11-07T10:07:11Z</time>
      </trkpt>
      <trkpt lat="43.73002" lon="6.95272">
        <ele>894.2</ele>
        <time>2015-11-07T10:07:12Z</time>
      </trkpt>
      <trkpt lat="43.72993" lon="6.95272">
        <ele>894.2</ele>
        <time>2015-11-07T10:07:16Z</time>
      </trkpt>
      <trkpt lat="43.72986" lon="6.95269">
        <ele>894.6</ele>
        <time>2015-11-07T10:07:20Z</time>
      </trkpt>
      <trkpt lat="43.72984" lon="6.95268">
        <ele>895</ele>
        <time>2015-11-07T10:07:21Z</time>
      </trkpt>
      <trkpt lat="43.72982" lon="6.95267">
        <ele>895.4</ele>
        <time>2015-11-07T10:07:22Z</time>
      </trkpt>
      <trkpt lat="43.72981" lon="6.95266">
        <ele>895.8</ele>
        <time>2015-11-07T10:07:23Z</time>
      </trkpt>
      <trkpt lat="43.72979" lon="6.95265">
        <ele>896.2</ele>
        <time>2015-11-07T10:07:24Z</time>
      </trkpt>
      <trkpt lat="43.72972" lon="6.95263">
        <ele>896.6</ele>
        <time>2015-11-07T10:07:29Z</time>
      </trkpt>
      <trkpt lat="43.72971" lon="6.95263">
        <ele>897.2</ele>
        <time>2015-11-07T10:07:30Z</time>
      </trkpt>
      <trkpt lat="43.7297" lon="6.95263">
        <ele>897.6</ele>
        <time>2015-11-07T10:07:31Z</time>
      </trkpt>
      <trkpt lat="43.72968" lon="6.95263">
        <ele>898</ele>
        <time>2015-11-07T10:07:32Z</time>
      </trkpt>
      <trkpt lat="43.72967" lon="6.95262">
        <ele>898.4</ele>
        <time>2015-11-07T10:07:33Z</time>
      </trkpt>
      <trkpt lat="43.72961" lon="6.95259">
        <ele>898.4</ele>
        <time>2015-11-07T10:07:37Z</time>
      </trkpt>
      <trkpt lat="43.72958" lon="6.95252">
        <ele>898.8</ele>
        <time>2015-11-07T10:07:40Z</time>
      </trkpt>
      <trkpt lat="43.72958" lon="6.9525">
        <ele>899.4</ele>
        <time>2015-11-07T10:07:41Z</time>
      </trkpt>
      <trkpt lat="43.72959" lon="6.95248">
        <ele>899.8</ele>
        <time>2015-11-07T10:07:42Z</time>
      </trkpt>
      <trkpt lat="43.72959" lon="6.95246">
        <ele>900.4</ele>
        <time>2015-11-07T10:07:43Z</time>
      </trkpt>
      <trkpt lat="43.7296" lon="6.95244">
        <ele>900.8</ele>
        <time>2015-11-07T10:07:44Z</time>
      </trkpt>
      <trkpt lat="43.72961" lon="6.95242">
        <ele>900.8</ele>
        <time>2015-11-07T10:07:45Z</time>
      </trkpt>
      <trkpt lat="43.72964" lon="6.95237">
        <ele>900.8</ele>
        <time>2015-11-07T10:07:48Z</time>
      </trkpt>
      <trkpt lat="43.72968" lon="6.95228">
        <ele>901.2</ele>
        <time>2015-11-07T10:07:53Z</time>
      </trkpt>
      <trkpt lat="43.72969" lon="6.95226">
        <ele>901.6</ele>
        <time>2015-11-07T10:07:54Z</time>
      </trkpt>
      <trkpt lat="43.7297" lon="6.95224">
        <ele>902</ele>
        <time>2015-11-07T10:07:55Z</time>
      </trkpt>
      <trkpt lat="43.72971" lon="6.95223">
        <ele>902.4</ele>
        <time>2015-11-07T10:07:56Z</time>
      </trkpt>
      <trkpt lat="43.72972" lon="6.95221">
        <ele>902.8</ele>
        <time>2015-11-07T10:07:57Z</time>
      </trkpt>
      <trkpt lat="43.72973" lon="6.95217">
        <ele>903.2</ele>
        <time>2015-11-07T10:07:59Z</time>
      </trkpt>
      <trkpt lat="43.72974" lon="6.95215">
        <ele>903.6</ele>
        <time>2015-11-07T10:08:00Z</time>
      </trkpt>
      <trkpt lat="43.72975" lon="6.95214">
        <ele>904.2</ele>
        <time>2015-11-07T10:08:01Z</time>
      </trkpt>
      <trkpt lat="43.72976" lon="6.95211">
        <ele>904.6</ele>
        <time>2015-11-07T10:08:02Z</time>
      </trkpt>
      <trkpt lat="43.72977" lon="6.95209">
        <ele>905</ele>
        <time>2015-11-07T10:08:03Z</time>
      </trkpt>
      <trkpt lat="43.72978" lon="6.95203">
        <ele>905</ele>
        <time>2015-11-07T10:08:06Z</time>
      </trkpt>
      <trkpt lat="43.72989" lon="6.95189">
        <ele>905</ele>
        <time>2015-11-07T10:08:15Z</time>
      </trkpt>
      <trkpt lat="43.72994" lon="6.95183">
        <ele>905.4</ele>
        <time>2015-11-07T10:08:19Z</time>
      </trkpt>
      <trkpt lat="43.72996" lon="6.95181">
        <ele>905.8</ele>
        <time>2015-11-07T10:08:20Z</time>
      </trkpt>
      <trkpt lat="43.72997" lon="6.95178">
        <ele>906.6</ele>
        <time>2015-11-07T10:08:22Z</time>
      </trkpt>
      <trkpt lat="43.72998" lon="6.95173">
        <ele>907</ele>
        <time>2015-11-07T10:08:24Z</time>
      </trkpt>
      <trkpt lat="43.72995" lon="6.95157">
        <ele>907.4</ele>
        <time>2015-11-07T10:08:31Z</time>
      </trkpt>
      <trkpt lat="43.72994" lon="6.95155">
        <ele>907.8</ele>
        <time>2015-11-07T10:08:32Z</time>
      </trkpt>
      <trkpt lat="43.72993" lon="6.95153">
        <ele>908.2</ele>
        <time>2015-11-07T10:08:33Z</time>
      </trkpt>
      <trkpt lat="43.72991" lon="6.95152">
        <ele>908.6</ele>
        <time>2015-11-07T10:08:34Z</time>
      </trkpt>
      <trkpt lat="43.72989" lon="6.95151">
        <ele>909</ele>
        <time>2015-11-07T10:08:35Z</time>
      </trkpt>
      <trkpt lat="43.72986" lon="6.9515">
        <ele>909</ele>
        <time>2015-11-07T10:08:37Z</time>
      </trkpt>
      <trkpt lat="43.72973" lon="6.95148">
        <ele>909</ele>
        <time>2015-11-07T10:08:45Z</time>
      </trkpt>
      <trkpt lat="43.7297" lon="6.95148">
        <ele>909.4</ele>
        <time>2015-11-07T10:08:47Z</time>
      </trkpt>
      <trkpt lat="43.72968" lon="6.95148">
        <ele>909.8</ele>
        <time>2015-11-07T10:08:48Z</time>
      </trkpt>
      <trkpt lat="43.72965" lon="6.95148">
        <ele>910.2</ele>
        <time>2015-11-07T10:08:49Z</time>
      </trkpt>
      <trkpt lat="43.72963" lon="6.95148">
        <ele>910.6</ele>
        <time>2015-11-07T10:08:50Z</time>
      </trkpt>
      <trkpt lat="43.72962" lon="6.95148">
        <ele>911</ele>
        <time>2015-11-07T10:08:51Z</time>
      </trkpt>
      <trkpt lat="43.72953" lon="6.95146">
        <ele>911</ele>
        <time>2015-11-07T10:08:56Z</time>
      </trkpt>
      <trkpt lat="43.72945" lon="6.95141">
        <ele>911.4</ele>
        <time>2015-11-07T10:09:01Z</time>
      </trkpt>
      <trkpt lat="43.72943" lon="6.9514">
        <ele>912</ele>
        <time>2015-11-07T10:09:02Z</time>
      </trkpt>
      <trkpt lat="43.72942" lon="6.95139">
        <ele>912.4</ele>
        <time>2015-11-07T10:09:03Z</time>
      </trkpt>
      <trkpt lat="43.7294" lon="6.95139">
        <ele>912.8</ele>
        <time>2015-11-07T10:09:04Z</time>
      </trkpt>
      <trkpt lat="43.72939" lon="6.95139">
        <ele>913.2</ele>
        <time>2015-11-07T10:09:05Z</time>
      </trkpt>
      <trkpt lat="43.72926" lon="6.95139">
        <ele>913.6</ele>
        <time>2015-11-07T10:09:13Z</time>
      </trkpt>
      <trkpt lat="43.72924" lon="6.95139">
        <ele>914.2</ele>
        <time>2015-11-07T10:09:14Z</time>
      </trkpt>
      <trkpt lat="43.72923" lon="6.95139">
        <ele>914.6</ele>
        <time>2015-11-07T10:09:15Z</time>
      </trkpt>
      <trkpt lat="43.72921" lon="6.95139">
        <ele>915</ele>
        <time>2015-11-07T10:09:16Z</time>
      </trkpt>
      <trkpt lat="43.72919" lon="6.95139">
        <ele>915.4</ele>
        <time>2015-11-07T10:09:17Z</time>
      </trkpt>
      <trkpt lat="43.72904" lon="6.95138">
        <ele>915.8</ele>
        <time>2015-11-07T10:09:26Z</time>
      </trkpt>
      <trkpt lat="43.72902" lon="6.95138">
        <ele>916.4</ele>
        <time>2015-11-07T10:09:27Z</time>
      </trkpt>
      <trkpt lat="43.72901" lon="6.95138">
        <ele>916.8</ele>
        <time>2015-11-07T10:09:28Z</time>
      </trkpt>
      <trkpt lat="43.72899" lon="6.95138">
        <ele>917.2</ele>
        <time>2015-11-07T10:09:29Z</time>
      </trkpt>
      <trkpt lat="43.72897" lon="6.95137">
        <ele>917.6</ele>
        <time>2015-11-07T10:09:30Z</time>
      </trkpt>
      <trkpt lat="43.72893" lon="6.95135">
        <ele>917.6</ele>
        <time>2015-11-07T10:09:33Z</time>
      </trkpt>
      <trkpt lat="43.72889" lon="6.95132">
        <ele>917.6</ele>
        <time>2015-11-07T10:09:35Z</time>
      </trkpt>
      <trkpt lat="43.72886" lon="6.95128">
        <ele>918</ele>
        <time>2015-11-07T10:09:38Z</time>
      </trkpt>
      <trkpt lat="43.72885" lon="6.95126">
        <ele>918.4</ele>
        <time>2015-11-07T10:09:39Z</time>
      </trkpt>
      <trkpt lat="43.72884" lon="6.95123">
        <ele>918.8</ele>
        <time>2015-11-07T10:09:40Z</time>
      </trkpt>
      <trkpt lat="43.72884" lon="6.95121">
        <ele>919.2</ele>
        <time>2015-11-07T10:09:41Z</time>
      </trkpt>
      <trkpt lat="43.72885" lon="6.95119">
        <ele>919.6</ele>
        <time>2015-11-07T10:09:42Z</time>
      </trkpt>
      <trkpt lat="43.7289" lon="6.95107">
        <ele>919.6</ele>
        <time>2015-11-07T10:09:48Z</time>
      </trkpt>
      <trkpt lat="43.72893" lon="6.95103">
        <ele>920</ele>
        <time>2015-11-07T10:09:50Z</time>
      </trkpt>
      <trkpt lat="43.72894" lon="6.95102">
        <ele>920.6</ele>
        <time>2015-11-07T10:09:51Z</time>
      </trkpt>
      <trkpt lat="43.72895" lon="6.951">
        <ele>921</ele>
        <time>2015-11-07T10:09:52Z</time>
      </trkpt>
      <trkpt lat="43.72897" lon="6.95099">
        <ele>921.4</ele>
        <time>2015-11-07T10:09:53Z</time>
      </trkpt>
      <trkpt lat="43.72898" lon="6.95097">
        <ele>922</ele>
        <time>2015-11-07T10:09:54Z</time>
      </trkpt>
      <trkpt lat="43.72903" lon="6.95091">
        <ele>922</ele>
        <time>2015-11-07T10:09:58Z</time>
      </trkpt>
      <trkpt lat="43.72915" lon="6.95076">
        <ele>922.4</ele>
        <time>2015-11-07T10:10:07Z</time>
      </trkpt>
      <trkpt lat="43.72916" lon="6.95075">
        <ele>922.8</ele>
        <time>2015-11-07T10:10:08Z</time>
      </trkpt>
      <trkpt lat="43.72918" lon="6.95073">
        <ele>923.2</ele>
        <time>2015-11-07T10:10:09Z</time>
      </trkpt>
      <trkpt lat="43.72919" lon="6.95072">
        <ele>923.6</ele>
        <time>2015-11-07T10:10:10Z</time>
      </trkpt>
      <trkpt lat="43.7292" lon="6.95071">
        <ele>924</ele>
        <time>2015-11-07T10:10:11Z</time>
      </trkpt>
      <trkpt lat="43.72929" lon="6.9506">
        <ele>924</ele>
        <time>2015-11-07T10:10:17Z</time>
      </trkpt>
      <trkpt lat="43.72938" lon="6.95049">
        <ele>924.4</ele>
        <time>2015-11-07T10:10:23Z</time>
      </trkpt>
      <trkpt lat="43.72939" lon="6.95047">
        <ele>924.8</ele>
        <time>2015-11-07T10:10:24Z</time>
      </trkpt>
      <trkpt lat="43.72941" lon="6.95046">
        <ele>925.2</ele>
        <time>2015-11-07T10:10:25Z</time>
      </trkpt>
      <trkpt lat="43.72942" lon="6.95045">
        <ele>925.6</ele>
        <time>2015-11-07T10:10:26Z</time>
      </trkpt>
      <trkpt lat="43.72944" lon="6.95044">
        <ele>926</ele>
        <time>2015-11-07T10:10:27Z</time>
      </trkpt>
      <trkpt lat="43.72959" lon="6.9503">
        <ele>926</ele>
        <time>2015-11-07T10:10:35Z</time>
      </trkpt>
      <trkpt lat="43.7297" lon="6.95015">
        <ele>926.6</ele>
        <time>2015-11-07T10:10:43Z</time>
      </trkpt>
      <trkpt lat="43.72971" lon="6.95013">
        <ele>927</ele>
        <time>2015-11-07T10:10:44Z</time>
      </trkpt>
      <trkpt lat="43.72972" lon="6.95011">
        <ele>927.4</ele>
        <time>2015-11-07T10:10:45Z</time>
      </trkpt>
      <trkpt lat="43.72972" lon="6.95009">
        <ele>928</ele>
        <time>2015-11-07T10:10:46Z</time>
      </trkpt>
      <trkpt lat="43.72974" lon="6.95007">
        <ele>928.4</ele>
        <time>2015-11-07T10:10:47Z</time>
      </trkpt>
      <trkpt lat="43.72976" lon="6.95001">
        <ele>929</ele>
        <time>2015-11-07T10:10:50Z</time>
      </trkpt>
      <trkpt lat="43.72977" lon="6.94999">
        <ele>929.4</ele>
        <time>2015-11-07T10:10:51Z</time>
      </trkpt>
      <trkpt lat="43.72978" lon="6.94997">
        <ele>929.8</ele>
        <time>2015-11-07T10:10:52Z</time>
      </trkpt>
      <trkpt lat="43.72979" lon="6.94995">
        <ele>930.2</ele>
        <time>2015-11-07T10:10:53Z</time>
      </trkpt>
      <trkpt lat="43.72981" lon="6.94993">
        <ele>930.6</ele>
        <time>2015-11-07T10:10:54Z</time>
      </trkpt>
      <trkpt lat="43.72992" lon="6.94975">
        <ele>930.6</ele>
        <time>2015-11-07T10:11:03Z</time>
      </trkpt>
      <trkpt lat="43.72997" lon="6.94957">
        <ele>931</ele>
        <time>2015-11-07T10:11:10Z</time>
      </trkpt>
      <trkpt lat="43.72996" lon="6.94954">
        <ele>931.4</ele>
        <time>2015-11-07T10:11:11Z</time>
      </trkpt>
      <trkpt lat="43.72996" lon="6.94952">
        <ele>931.8</ele>
        <time>2015-11-07T10:11:12Z</time>
      </trkpt>
      <trkpt lat="43.72996" lon="6.94949">
        <ele>932.4</ele>
        <time>2015-11-07T10:11:13Z</time>
      </trkpt>
      <trkpt lat="43.72997" lon="6.94948">
        <ele>932.8</ele>
        <time>2015-11-07T10:11:14Z</time>
      </trkpt>
      <trkpt lat="43.72994" lon="6.94939">
        <ele>932.8</ele>
        <time>2015-11-07T10:11:19Z</time>
      </trkpt>
      <trkpt lat="43.72993" lon="6.94938">
        <ele>933.2</ele>
        <time>2015-11-07T10:11:20Z</time>
      </trkpt>
      <trkpt lat="43.72992" lon="6.94936">
        <ele>933.6</ele>
        <time>2015-11-07T10:11:21Z</time>
      </trkpt>
      <trkpt lat="43.72991" lon="6.94935">
        <ele>934</ele>
        <time>2015-11-07T10:11:22Z</time>
      </trkpt>
      <trkpt lat="43.72989" lon="6.94934">
        <ele>934.4</ele>
        <time>2015-11-07T10:11:23Z</time>
      </trkpt>
      <trkpt lat="43.72988" lon="6.94933">
        <ele>935</ele>
        <time>2015-11-07T10:11:24Z</time>
      </trkpt>
      <trkpt lat="43.72987" lon="6.94933">
        <ele>935</ele>
        <time>2015-11-07T10:11:25Z</time>
      </trkpt>
      <trkpt lat="43.72976" lon="6.94928">
        <ele>935.4</ele>
        <time>2015-11-07T10:11:32Z</time>
      </trkpt>
      <trkpt lat="43.72974" lon="6.94928">
        <ele>935.8</ele>
        <time>2015-11-07T10:11:33Z</time>
      </trkpt>
      <trkpt lat="43.72972" lon="6.94928">
        <ele>936.2</ele>
        <time>2015-11-07T10:11:34Z</time>
      </trkpt>
      <trkpt lat="43.7297" lon="6.94928">
        <ele>936.8</ele>
        <time>2015-11-07T10:11:35Z</time>
      </trkpt>
      <trkpt lat="43.72968" lon="6.94928">
        <ele>937.2</ele>
        <time>2015-11-07T10:11:36Z</time>
      </trkpt>
      <trkpt lat="43.72953" lon="6.94928">
        <ele>937.2</ele>
        <time>2015-11-07T10:11:45Z</time>
      </trkpt>
      <trkpt lat="43.72948" lon="6.94927">
        <ele>937.6</ele>
        <time>2015-11-07T10:11:48Z</time>
      </trkpt>
      <trkpt lat="43.72946" lon="6.94927">
        <ele>938</ele>
        <time>2015-11-07T10:11:49Z</time>
      </trkpt>
      <trkpt lat="43.72944" lon="6.94927">
        <ele>938.4</ele>
        <time>2015-11-07T10:11:50Z</time>
      </trkpt>
      <trkpt lat="43.72942" lon="6.94927">
        <ele>938.8</ele>
        <time>2015-11-07T10:11:51Z</time>
      </trkpt>
      <trkpt lat="43.72941" lon="6.94927">
        <ele>939.2</ele>
        <time>2015-11-07T10:11:52Z</time>
      </trkpt>
      <trkpt lat="43.72937" lon="6.94928">
        <ele>939.2</ele>
        <time>2015-11-07T10:11:54Z</time>
      </trkpt>
      <trkpt lat="43.72923" lon="6.94928">
        <ele>939.6</ele>
        <time>2015-11-07T10:12:02Z</time>
      </trkpt>
      <trkpt lat="43.72922" lon="6.94928">
        <ele>940.2</ele>
        <time>2015-11-07T10:12:03Z</time>
      </trkpt>
      <trkpt lat="43.7292" lon="6.94928">
        <ele>940.6</ele>
        <time>2015-11-07T10:12:04Z</time>
      </trkpt>
      <trkpt lat="43.72918" lon="6.94928">
        <ele>941.2</ele>
        <time>2015-11-07T10:12:05Z</time>
      </trkpt>
      <trkpt lat="43.72917" lon="6.94927">
        <ele>941.6</ele>
        <time>2015-11-07T10:12:06Z</time>
      </trkpt>
      <trkpt lat="43.72908" lon="6.94926">
        <ele>941.6</ele>
        <time>2015-11-07T10:12:11Z</time>
      </trkpt>
      <trkpt lat="43.72897" lon="6.94927">
        <ele>942.2</ele>
        <time>2015-11-07T10:12:18Z</time>
      </trkpt>
      <trkpt lat="43.72895" lon="6.94926">
        <ele>942.6</ele>
        <time>2015-11-07T10:12:19Z</time>
      </trkpt>
      <trkpt lat="43.72893" lon="6.94926">
        <ele>943</ele>
        <time>2015-11-07T10:12:20Z</time>
      </trkpt>
      <trkpt lat="43.72892" lon="6.94925">
        <ele>943.4</ele>
        <time>2015-11-07T10:12:21Z</time>
      </trkpt>
      <trkpt lat="43.7289" lon="6.94925">
        <ele>943.8</ele>
        <time>2015-11-07T10:12:22Z</time>
      </trkpt>
      <trkpt lat="43.72884" lon="6.94924">
        <ele>943.8</ele>
        <time>2015-11-07T10:12:26Z</time>
      </trkpt>
      <trkpt lat="43.72873" lon="6.94914">
        <ele>943.8</ele>
        <time>2015-11-07T10:12:34Z</time>
      </trkpt>
      <trkpt lat="43.72873" lon="6.94913">
        <ele>944.4</ele>
        <time>2015-11-07T10:12:35Z</time>
      </trkpt>
      <trkpt lat="43.72872" lon="6.94911">
        <ele>944.8</ele>
        <time>2015-11-07T10:12:36Z</time>
      </trkpt>
      <trkpt lat="43.7287" lon="6.9491">
        <ele>945.2</ele>
        <time>2015-11-07T10:12:37Z</time>
      </trkpt>
      <trkpt lat="43.72868" lon="6.94909">
        <ele>945.8</ele>
        <time>2015-11-07T10:12:38Z</time>
      </trkpt>
      <trkpt lat="43.72867" lon="6.94908">
        <ele>946.2</ele>
        <time>2015-11-07T10:12:39Z</time>
      </trkpt>
      <trkpt lat="43.72863" lon="6.94904">
        <ele>946.2</ele>
        <time>2015-11-07T10:12:42Z</time>
      </trkpt>
      <trkpt lat="43.72858" lon="6.949">
        <ele>946.6</ele>
        <time>2015-11-07T10:12:46Z</time>
      </trkpt>
      <trkpt lat="43.72857" lon="6.94899">
        <ele>947</ele>
        <time>2015-11-07T10:12:47Z</time>
      </trkpt>
      <trkpt lat="43.72856" lon="6.94897">
        <ele>947.4</ele>
        <time>2015-11-07T10:12:48Z</time>
      </trkpt>
      <trkpt lat="43.72856" lon="6.94895">
        <ele>948</ele>
        <time>2015-11-07T10:12:49Z</time>
      </trkpt>
      <trkpt lat="43.72855" lon="6.94893">
        <ele>948.4</ele>
        <time>2015-11-07T10:12:50Z</time>
      </trkpt>
      <trkpt lat="43.72858" lon="6.94876">
        <ele>948.8</ele>
        <time>2015-11-07T10:12:58Z</time>
      </trkpt>
      <trkpt lat="43.72859" lon="6.94874">
        <ele>949.4</ele>
        <time>2015-11-07T10:12:59Z</time>
      </trkpt>
      <trkpt lat="43.7286" lon="6.94872">
        <ele>949.8</ele>
        <time>2015-11-07T10:13:00Z</time>
      </trkpt>
      <trkpt lat="43.7286" lon="6.9487">
        <ele>950.4</ele>
        <time>2015-11-07T10:13:01Z</time>
      </trkpt>
      <trkpt lat="43.72861" lon="6.94868">
        <ele>951</ele>
        <time>2015-11-07T10:13:02Z</time>
      </trkpt>
      <trkpt lat="43.72861" lon="6.94856">
        <ele>951</ele>
        <time>2015-11-07T10:13:07Z</time>
      </trkpt>
      <trkpt lat="43.7286" lon="6.94855">
        <ele>951.4</ele>
        <time>2015-11-07T10:13:08Z</time>
      </trkpt>
      <trkpt lat="43.72859" lon="6.94853">
        <ele>951.8</ele>
        <time>2015-11-07T10:13:09Z</time>
      </trkpt>
      <trkpt lat="43.72859" lon="6.94851">
        <ele>952.2</ele>
        <time>2015-11-07T10:13:10Z</time>
      </trkpt>
      <trkpt lat="43.72858" lon="6.94849">
        <ele>952.8</ele>
        <time>2015-11-07T10:13:11Z</time>
      </trkpt>
      <trkpt lat="43.72857" lon="6.94848">
        <ele>953.2</ele>
        <time>2015-11-07T10:13:12Z</time>
      </trkpt>
      <trkpt lat="43.72853" lon="6.94843">
        <ele>953.2</ele>
        <time>2015-11-07T10:13:15Z</time>
      </trkpt>
      <trkpt lat="43.72843" lon="6.94832">
        <ele>953.6</ele>
        <time>2015-11-07T10:13:23Z</time>
      </trkpt>
      <trkpt lat="43.72843" lon="6.9483">
        <ele>954</ele>
        <time>2015-11-07T10:13:24Z</time>
      </trkpt>
      <trkpt lat="43.72842" lon="6.94828">
        <ele>954.4</ele>
        <time>2015-11-07T10:13:25Z</time>
      </trkpt>
      <trkpt lat="43.72841" lon="6.94827">
        <ele>954.8</ele>
        <time>2015-11-07T10:13:26Z</time>
      </trkpt>
      <trkpt lat="43.7284" lon="6.94825">
        <ele>955.2</ele>
        <time>2015-11-07T10:13:27Z</time>
      </trkpt>
      <trkpt lat="43.72836" lon="6.9481">
        <ele>955.2</ele>
        <time>2015-11-07T10:13:34Z</time>
      </trkpt>
      <trkpt lat="43.7284" lon="6.94791">
        <ele>955.2</ele>
        <time>2015-11-07T10:13:42Z</time>
      </trkpt>
      <trkpt lat="43.7284" lon="6.94789">
        <ele>955.8</ele>
        <time>2015-11-07T10:13:43Z</time>
      </trkpt>
      <trkpt lat="43.72841" lon="6.94786">
        <ele>956.2</ele>
        <time>2015-11-07T10:13:44Z</time>
      </trkpt>
      <trkpt lat="43.72841" lon="6.94784">
        <ele>956.6</ele>
        <time>2015-11-07T10:13:45Z</time>
      </trkpt>
      <trkpt lat="43.72841" lon="6.94781">
        <ele>957</ele>
        <time>2015-11-07T10:13:46Z</time>
      </trkpt>
      <trkpt lat="43.72842" lon="6.94779">
        <ele>957.4</ele>
        <time>2015-11-07T10:13:47Z</time>
      </trkpt>
      <trkpt lat="43.7284" lon="6.94773">
        <ele>957.4</ele>
        <time>2015-11-07T10:13:50Z</time>
      </trkpt>
      <trkpt lat="43.72837" lon="6.94762">
        <ele>957.8</ele>
        <time>2015-11-07T10:13:55Z</time>
      </trkpt>
      <trkpt lat="43.72836" lon="6.9476">
        <ele>958.4</ele>
        <time>2015-11-07T10:13:56Z</time>
      </trkpt>
      <trkpt lat="43.72836" lon="6.94758">
        <ele>958.8</ele>
        <time>2015-11-07T10:13:57Z</time>
      </trkpt>
      <trkpt lat="43.72835" lon="6.94756">
        <ele>959.2</ele>
        <time>2015-11-07T10:13:58Z</time>
      </trkpt>
      <trkpt lat="43.72834" lon="6.94754">
        <ele>959.6</ele>
        <time>2015-11-07T10:13:59Z</time>
      </trkpt>
      <trkpt lat="43.72832" lon="6.94749">
        <ele>959.6</ele>
        <time>2015-11-07T10:14:02Z</time>
      </trkpt>
      <trkpt lat="43.72827" lon="6.9474">
        <ele>960</ele>
        <time>2015-11-07T10:14:07Z</time>
      </trkpt>
      <trkpt lat="43.72825" lon="6.94738">
        <ele>960.4</ele>
        <time>2015-11-07T10:14:08Z</time>
      </trkpt>
      <trkpt lat="43.72824" lon="6.94736">
        <ele>961</ele>
        <time>2015-11-07T10:14:09Z</time>
      </trkpt>
      <trkpt lat="43.72824" lon="6.94733">
        <ele>961.4</ele>
        <time>2015-11-07T10:14:10Z</time>
      </trkpt>
      <trkpt lat="43.72822" lon="6.94731">
        <ele>961.8</ele>
        <time>2015-11-07T10:14:11Z</time>
      </trkpt>
      <trkpt lat="43.72817" lon="6.94724">
        <ele>962.2</ele>
        <time>2015-11-07T10:14:16Z</time>
      </trkpt>
      <trkpt lat="43.72815" lon="6.94722">
        <ele>962.6</ele>
        <time>2015-11-07T10:14:17Z</time>
      </trkpt>
      <trkpt lat="43.72814" lon="6.9472">
        <ele>963</ele>
        <time>2015-11-07T10:14:18Z</time>
      </trkpt>
      <trkpt lat="43.72813" lon="6.94719">
        <ele>963.4</ele>
        <time>2015-11-07T10:14:19Z</time>
      </trkpt>
      <trkpt lat="43.72811" lon="6.94717">
        <ele>963.8</ele>
        <time>2015-11-07T10:14:20Z</time>
      </trkpt>
      <trkpt lat="43.72804" lon="6.94704">
        <ele>963.8</ele>
        <time>2015-11-07T10:14:28Z</time>
      </trkpt>
      <trkpt lat="43.72803" lon="6.94697">
        <ele>964.4</ele>
        <time>2015-11-07T10:14:31Z</time>
      </trkpt>
      <trkpt lat="43.72803" lon="6.94694">
        <ele>964.8</ele>
        <time>2015-11-07T10:14:32Z</time>
      </trkpt>
      <trkpt lat="43.72802" lon="6.94692">
        <ele>965.2</ele>
        <time>2015-11-07T10:14:33Z</time>
      </trkpt>
      <trkpt lat="43.72801" lon="6.94689">
        <ele>965.6</ele>
        <time>2015-11-07T10:14:34Z</time>
      </trkpt>
      <trkpt lat="43.72801" lon="6.94687">
        <ele>966</ele>
        <time>2015-11-07T10:14:35Z</time>
      </trkpt>
      <trkpt lat="43.72796" lon="6.94668">
        <ele>966.4</ele>
        <time>2015-11-07T10:14:45Z</time>
      </trkpt>
      <trkpt lat="43.72796" lon="6.94666">
        <ele>967</ele>
        <time>2015-11-07T10:14:46Z</time>
      </trkpt>
      <trkpt lat="43.72795" lon="6.94663">
        <ele>967.4</ele>
        <time>2015-11-07T10:14:47Z</time>
      </trkpt>
      <trkpt lat="43.72794" lon="6.94661">
        <ele>967.8</ele>
        <time>2015-11-07T10:14:48Z</time>
      </trkpt>
      <trkpt lat="43.72794" lon="6.94658">
        <ele>968.2</ele>
        <time>2015-11-07T10:14:49Z</time>
      </trkpt>
      <trkpt lat="43.72789" lon="6.94642">
        <ele>968.2</ele>
        <time>2015-11-07T10:14:56Z</time>
      </trkpt>
      <trkpt lat="43.72782" lon="6.94631">
        <ele>968.8</ele>
        <time>2015-11-07T10:15:02Z</time>
      </trkpt>
      <trkpt lat="43.72781" lon="6.94629">
        <ele>969.2</ele>
        <time>2015-11-07T10:15:03Z</time>
      </trkpt>
      <trkpt lat="43.7278" lon="6.94628">
        <ele>969.8</ele>
        <time>2015-11-07T10:15:04Z</time>
      </trkpt>
      <trkpt lat="43.72778" lon="6.94627">
        <ele>970.2</ele>
        <time>2015-11-07T10:15:05Z</time>
      </trkpt>
      <trkpt lat="43.72777" lon="6.94626">
        <ele>970.8</ele>
        <time>2015-11-07T10:15:06Z</time>
      </trkpt>
      <trkpt lat="43.72774" lon="6.94625">
        <ele>970.8</ele>
        <time>2015-11-07T10:15:08Z</time>
      </trkpt>
      <trkpt lat="43.7277" lon="6.94624">
        <ele>970.8</ele>
        <time>2015-11-07T10:15:11Z</time>
      </trkpt>
      <trkpt lat="43.72756" lon="6.94628">
        <ele>970.8</ele>
        <time>2015-11-07T10:15:20Z</time>
      </trkpt>
      <trkpt lat="43.7275" lon="6.94635">
        <ele>970.8</ele>
        <time>2015-11-07T10:15:27Z</time>
      </trkpt>
      <trkpt lat="43.72757" lon="6.9463">
        <ele>970.8</ele>
        <time>2015-11-07T10:15:47Z</time>
      </trkpt>
      <trkpt lat="43.7277" lon="6.94617">
        <ele>970.8</ele>
        <time>2015-11-07T10:15:54Z</time>
      </trkpt>
      <trkpt lat="43.72778" lon="6.94607">
        <ele>971.2</ele>
        <time>2015-11-07T10:16:00Z</time>
      </trkpt>
      <trkpt lat="43.72778" lon="6.94606">
        <ele>971.8</ele>
        <time>2015-11-07T10:16:01Z</time>
      </trkpt>
      <trkpt lat="43.7278" lon="6.94605">
        <ele>972.2</ele>
        <time>2015-11-07T10:16:02Z</time>
      </trkpt>
      <trkpt lat="43.72781" lon="6.94604">
        <ele>972.6</ele>
        <time>2015-11-07T10:16:03Z</time>
      </trkpt>
      <trkpt lat="43.72782" lon="6.94603">
        <ele>973.2</ele>
        <time>2015-11-07T10:16:04Z</time>
      </trkpt>
      <trkpt lat="43.72782" lon="6.94603">
        <ele>973.2</ele>
        <time>2015-11-07T10:16:09Z</time>
      </trkpt>
      <trkpt lat="43.72783" lon="6.94604">
        <ele>973.2</ele>
        <time>2015-11-07T10:16:20Z</time>
      </trkpt>
      <trkpt lat="43.72781" lon="6.94608">
        <ele>973.2</ele>
        <time>2015-11-07T10:17:11Z</time>
      </trkpt>
      <trkpt lat="43.7278" lon="6.94608">
        <ele>973.2</ele>
        <time>2015-11-07T10:17:23Z</time>
      </trkpt>
      <trkpt lat="43.72784" lon="6.94612">
        <ele>973.2</ele>
        <time>2015-11-07T10:22:21Z</time>
      </trkpt>
      <trkpt lat="43.72785" lon="6.94623">
        <ele>973.2</ele>
        <time>2015-11-07T10:25:01Z</time>
      </trkpt>
      <trkpt lat="43.72787" lon="6.94627">
        <ele>972.8</ele>
        <time>2015-11-07T10:25:02Z</time>
      </trkpt>
      <trkpt lat="43.72789" lon="6.9463">
        <ele>972.4</ele>
        <time>2015-11-07T10:25:03Z</time>
      </trkpt>
      <trkpt lat="43.7279" lon="6.94634">
        <ele>972</ele>
        <time>2015-11-07T10:25:04Z</time>
      </trkpt>
      <trkpt lat="43.72791" lon="6.94636">
        <ele>971.6</ele>
        <time>2015-11-07T10:25:05Z</time>
      </trkpt>
      <trkpt lat="43.72792" lon="6.94639">
        <ele>971.2</ele>
        <time>2015-11-07T10:25:06Z</time>
      </trkpt>
      <trkpt lat="43.728" lon="6.94658">
        <ele>971.2</ele>
        <time>2015-11-07T10:25:11Z</time>
      </trkpt>
      <trkpt lat="43.72807" lon="6.94667">
        <ele>970.6</ele>
        <time>2015-11-07T10:25:13Z</time>
      </trkpt>
      <trkpt lat="43.72809" lon="6.94672">
        <ele>970.2</ele>
        <time>2015-11-07T10:25:14Z</time>
      </trkpt>
      <trkpt lat="43.72811" lon="6.94676">
        <ele>969.6</ele>
        <time>2015-11-07T10:25:15Z</time>
      </trkpt>
      <trkpt lat="43.72814" lon="6.94681">
        <ele>969.2</ele>
        <time>2015-11-07T10:25:16Z</time>
      </trkpt>
      <trkpt lat="43.72816" lon="6.94687">
        <ele>968.8</ele>
        <time>2015-11-07T10:25:17Z</time>
      </trkpt>
      <trkpt lat="43.72819" lon="6.94692">
        <ele>968.4</ele>
        <time>2015-11-07T10:25:18Z</time>
      </trkpt>
      <trkpt lat="43.72822" lon="6.94697">
        <ele>967.8</ele>
        <time>2015-11-07T10:25:19Z</time>
      </trkpt>
      <trkpt lat="43.72826" lon="6.94702">
        <ele>967.4</ele>
        <time>2015-11-07T10:25:20Z</time>
      </trkpt>
      <trkpt lat="43.7283" lon="6.94706">
        <ele>967</ele>
        <time>2015-11-07T10:25:21Z</time>
      </trkpt>
      <trkpt lat="43.72834" lon="6.94711">
        <ele>966.4</ele>
        <time>2015-11-07T10:25:22Z</time>
      </trkpt>
      <trkpt lat="43.72841" lon="6.94722">
        <ele>966.4</ele>
        <time>2015-11-07T10:25:24Z</time>
      </trkpt>
      <trkpt lat="43.72845" lon="6.94728">
        <ele>966</ele>
        <time>2015-11-07T10:25:25Z</time>
      </trkpt>
      <trkpt lat="43.72848" lon="6.94734">
        <ele>965.6</ele>
        <time>2015-11-07T10:25:26Z</time>
      </trkpt>
      <trkpt lat="43.72852" lon="6.9474">
        <ele>965.2</ele>
        <time>2015-11-07T10:25:27Z</time>
      </trkpt>
      <trkpt lat="43.72855" lon="6.94746">
        <ele>964.8</ele>
        <time>2015-11-07T10:25:28Z</time>
      </trkpt>
      <trkpt lat="43.72859" lon="6.94751">
        <ele>964.2</ele>
        <time>2015-11-07T10:25:29Z</time>
      </trkpt>
      <trkpt lat="43.72863" lon="6.94755">
        <ele>963.8</ele>
        <time>2015-11-07T10:25:30Z</time>
      </trkpt>
      <trkpt lat="43.72868" lon="6.94758">
        <ele>963.4</ele>
        <time>2015-11-07T10:25:31Z</time>
      </trkpt>
      <trkpt lat="43.72871" lon="6.94761">
        <ele>963</ele>
        <time>2015-11-07T10:25:32Z</time>
      </trkpt>
      <trkpt lat="43.72874" lon="6.94762">
        <ele>962.6</ele>
        <time>2015-11-07T10:25:33Z</time>
      </trkpt>
      <trkpt lat="43.72877" lon="6.94762">
        <ele>962.2</ele>
        <time>2015-11-07T10:25:34Z</time>
      </trkpt>
      <trkpt lat="43.72877" lon="6.94761">
        <ele>962.2</ele>
        <time>2015-11-07T10:25:35Z</time>
      </trkpt>
      <trkpt lat="43.72889" lon="6.94762">
        <ele>962.2</ele>
        <time>2015-11-07T10:25:41Z</time>
      </trkpt>
      <trkpt lat="43.72897" lon="6.94772">
        <ele>961.8</ele>
        <time>2015-11-07T10:25:44Z</time>
      </trkpt>
      <trkpt lat="43.72899" lon="6.94776">
        <ele>961.4</ele>
        <time>2015-11-07T10:25:45Z</time>
      </trkpt>
      <trkpt lat="43.72901" lon="6.94778">
        <ele>961</ele>
        <time>2015-11-07T10:25:46Z</time>
      </trkpt>
      <trkpt lat="43.72904" lon="6.9478">
        <ele>960.6</ele>
        <time>2015-11-07T10:25:47Z</time>
      </trkpt>
      <trkpt lat="43.72906" lon="6.9478">
        <ele>960.2</ele>
        <time>2015-11-07T10:25:48Z</time>
      </trkpt>
      <trkpt lat="43.72912" lon="6.94779">
        <ele>959.6</ele>
        <time>2015-11-07T10:25:51Z</time>
      </trkpt>
      <trkpt lat="43.72914" lon="6.94779">
        <ele>959.2</ele>
        <time>2015-11-07T10:25:52Z</time>
      </trkpt>
      <trkpt lat="43.72916" lon="6.94778">
        <ele>958.6</ele>
        <time>2015-11-07T10:25:53Z</time>
      </trkpt>
      <trkpt lat="43.72919" lon="6.94779">
        <ele>957.8</ele>
        <time>2015-11-07T10:25:54Z</time>
      </trkpt>
      <trkpt lat="43.72921" lon="6.9478">
        <ele>957.2</ele>
        <time>2015-11-07T10:25:55Z</time>
      </trkpt>
      <trkpt lat="43.72923" lon="6.94781">
        <ele>956.4</ele>
        <time>2015-11-07T10:25:56Z</time>
      </trkpt>
      <trkpt lat="43.72925" lon="6.94783">
        <ele>955.8</ele>
        <time>2015-11-07T10:25:57Z</time>
      </trkpt>
      <trkpt lat="43.72927" lon="6.94785">
        <ele>955.2</ele>
        <time>2015-11-07T10:25:58Z</time>
      </trkpt>
      <trkpt lat="43.7293" lon="6.94786">
        <ele>954.6</ele>
        <time>2015-11-07T10:25:59Z</time>
      </trkpt>
      <trkpt lat="43.72933" lon="6.94787">
        <ele>954</ele>
        <time>2015-11-07T10:26:00Z</time>
      </trkpt>
      <trkpt lat="43.72935" lon="6.94787">
        <ele>953.6</ele>
        <time>2015-11-07T10:26:01Z</time>
      </trkpt>
      <trkpt lat="43.72938" lon="6.94787">
        <ele>952.8</ele>
        <time>2015-11-07T10:26:02Z</time>
      </trkpt>
      <trkpt lat="43.72941" lon="6.94788">
        <ele>952.2</ele>
        <time>2015-11-07T10:26:03Z</time>
      </trkpt>
      <trkpt lat="43.72944" lon="6.94787">
        <ele>951.6</ele>
        <time>2015-11-07T10:26:04Z</time>
      </trkpt>
      <trkpt lat="43.72949" lon="6.94788">
        <ele>950.8</ele>
        <time>2015-11-07T10:26:05Z</time>
      </trkpt>
      <trkpt lat="43.72952" lon="6.9479">
        <ele>949.8</ele>
        <time>2015-11-07T10:26:06Z</time>
      </trkpt>
      <trkpt lat="43.72955" lon="6.94792">
        <ele>949</ele>
        <time>2015-11-07T10:26:07Z</time>
      </trkpt>
      <trkpt lat="43.72958" lon="6.94796">
        <ele>948</ele>
        <time>2015-11-07T10:26:08Z</time>
      </trkpt>
      <trkpt lat="43.72961" lon="6.94801">
        <ele>947.2</ele>
        <time>2015-11-07T10:26:09Z</time>
      </trkpt>
      <trkpt lat="43.72963" lon="6.94807">
        <ele>946.2</ele>
        <time>2015-11-07T10:26:10Z</time>
      </trkpt>
      <trkpt lat="43.72967" lon="6.94814">
        <ele>945.6</ele>
        <time>2015-11-07T10:26:11Z</time>
      </trkpt>
      <trkpt lat="43.72969" lon="6.94819">
        <ele>945.6</ele>
        <time>2015-11-07T10:26:12Z</time>
      </trkpt>
      <trkpt lat="43.72971" lon="6.94823">
        <ele>945</ele>
        <time>2015-11-07T10:26:13Z</time>
      </trkpt>
      <trkpt lat="43.72972" lon="6.94826">
        <ele>944.4</ele>
        <time>2015-11-07T10:26:14Z</time>
      </trkpt>
      <trkpt lat="43.72973" lon="6.94828">
        <ele>943.6</ele>
        <time>2015-11-07T10:26:15Z</time>
      </trkpt>
      <trkpt lat="43.72973" lon="6.9483">
        <ele>943</ele>
        <time>2015-11-07T10:26:16Z</time>
      </trkpt>
      <trkpt lat="43.72979" lon="6.94838">
        <ele>943</ele>
        <time>2015-11-07T10:26:19Z</time>
      </trkpt>
      <trkpt lat="43.72981" lon="6.94839">
        <ele>942.6</ele>
        <time>2015-11-07T10:26:20Z</time>
      </trkpt>
      <trkpt lat="43.72984" lon="6.94842">
        <ele>942.2</ele>
        <time>2015-11-07T10:26:21Z</time>
      </trkpt>
      <trkpt lat="43.72986" lon="6.94845">
        <ele>941.8</ele>
        <time>2015-11-07T10:26:22Z</time>
      </trkpt>
      <trkpt lat="43.72989" lon="6.94849">
        <ele>941.4</ele>
        <time>2015-11-07T10:26:23Z</time>
      </trkpt>
      <trkpt lat="43.72991" lon="6.94853">
        <ele>940.8</ele>
        <time>2015-11-07T10:26:24Z</time>
      </trkpt>
      <trkpt lat="43.72992" lon="6.94857">
        <ele>940.4</ele>
        <time>2015-11-07T10:26:25Z</time>
      </trkpt>
      <trkpt lat="43.72993" lon="6.94862">
        <ele>939.8</ele>
        <time>2015-11-07T10:26:26Z</time>
      </trkpt>
      <trkpt lat="43.72995" lon="6.94867">
        <ele>939.2</ele>
        <time>2015-11-07T10:26:27Z</time>
      </trkpt>
      <trkpt lat="43.72995" lon="6.94874">
        <ele>938.8</ele>
        <time>2015-11-07T10:26:28Z</time>
      </trkpt>
      <trkpt lat="43.73002" lon="6.94892">
        <ele>938.4</ele>
        <time>2015-11-07T10:26:31Z</time>
      </trkpt>
      <trkpt lat="43.73003" lon="6.94896">
        <ele>938</ele>
        <time>2015-11-07T10:26:32Z</time>
      </trkpt>
      <trkpt lat="43.73004" lon="6.949">
        <ele>937.6</ele>
        <time>2015-11-07T10:26:33Z</time>
      </trkpt>
      <trkpt lat="43.73004" lon="6.94905">
        <ele>937</ele>
        <time>2015-11-07T10:26:34Z</time>
      </trkpt>
      <trkpt lat="43.73004" lon="6.9491">
        <ele>936.6</ele>
        <time>2015-11-07T10:26:35Z</time>
      </trkpt>
      <trkpt lat="43.73012" lon="6.94927">
        <ele>936.2</ele>
        <time>2015-11-07T10:26:39Z</time>
      </trkpt>
      <trkpt lat="43.73012" lon="6.94929">
        <ele>935.8</ele>
        <time>2015-11-07T10:26:40Z</time>
      </trkpt>
      <trkpt lat="43.73013" lon="6.94932">
        <ele>935.4</ele>
        <time>2015-11-07T10:26:41Z</time>
      </trkpt>
      <trkpt lat="43.73014" lon="6.94935">
        <ele>935</ele>
        <time>2015-11-07T10:26:42Z</time>
      </trkpt>
      <trkpt lat="43.73015" lon="6.94938">
        <ele>934.4</ele>
        <time>2015-11-07T10:26:43Z</time>
      </trkpt>
      <trkpt lat="43.73017" lon="6.94943">
        <ele>934</ele>
        <time>2015-11-07T10:26:45Z</time>
      </trkpt>
      <trkpt lat="43.73017" lon="6.94947">
        <ele>933.4</ele>
        <time>2015-11-07T10:26:46Z</time>
      </trkpt>
      <trkpt lat="43.73016" lon="6.9495">
        <ele>933</ele>
        <time>2015-11-07T10:26:47Z</time>
      </trkpt>
      <trkpt lat="43.73015" lon="6.94954">
        <ele>932.4</ele>
        <time>2015-11-07T10:26:48Z</time>
      </trkpt>
      <trkpt lat="43.73014" lon="6.94958">
        <ele>932</ele>
        <time>2015-11-07T10:26:49Z</time>
      </trkpt>
      <trkpt lat="43.73012" lon="6.94962">
        <ele>931.4</ele>
        <time>2015-11-07T10:26:50Z</time>
      </trkpt>
      <trkpt lat="43.7301" lon="6.94964">
        <ele>931</ele>
        <time>2015-11-07T10:26:51Z</time>
      </trkpt>
      <trkpt lat="43.73008" lon="6.94967">
        <ele>930.6</ele>
        <time>2015-11-07T10:26:52Z</time>
      </trkpt>
      <trkpt lat="43.73007" lon="6.94969">
        <ele>930.2</ele>
        <time>2015-11-07T10:26:53Z</time>
      </trkpt>
      <trkpt lat="43.73006" lon="6.94972">
        <ele>929.8</ele>
        <time>2015-11-07T10:26:54Z</time>
      </trkpt>
      <trkpt lat="43.73003" lon="6.94991">
        <ele>929.4</ele>
        <time>2015-11-07T10:26:59Z</time>
      </trkpt>
      <trkpt lat="43.73003" lon="6.94996">
        <ele>928.8</ele>
        <time>2015-11-07T10:27:00Z</time>
      </trkpt>
      <trkpt lat="43.73004" lon="6.95002">
        <ele>928.4</ele>
        <time>2015-11-07T10:27:01Z</time>
      </trkpt>
      <trkpt lat="43.73005" lon="6.95008">
        <ele>928</ele>
        <time>2015-11-07T10:27:02Z</time>
      </trkpt>
      <trkpt lat="43.73007" lon="6.95012">
        <ele>927.6</ele>
        <time>2015-11-07T10:27:03Z</time>
      </trkpt>
      <trkpt lat="43.73007" lon="6.95016">
        <ele>927</ele>
        <time>2015-11-07T10:27:04Z</time>
      </trkpt>
      <trkpt lat="43.73007" lon="6.95021">
        <ele>926.6</ele>
        <time>2015-11-07T10:27:05Z</time>
      </trkpt>
      <trkpt lat="43.73006" lon="6.95024">
        <ele>926</ele>
        <time>2015-11-07T10:27:06Z</time>
      </trkpt>
      <trkpt lat="43.73005" lon="6.95028">
        <ele>925.6</ele>
        <time>2015-11-07T10:27:07Z</time>
      </trkpt>
      <trkpt lat="43.73003" lon="6.95031">
        <ele>925.2</ele>
        <time>2015-11-07T10:27:08Z</time>
      </trkpt>
      <trkpt lat="43.73001" lon="6.95035">
        <ele>924.8</ele>
        <time>2015-11-07T10:27:09Z</time>
      </trkpt>
      <trkpt lat="43.72999" lon="6.95038">
        <ele>924.4</ele>
        <time>2015-11-07T10:27:10Z</time>
      </trkpt>
      <trkpt lat="43.72997" lon="6.95041">
        <ele>923.8</ele>
        <time>2015-11-07T10:27:11Z</time>
      </trkpt>
      <trkpt lat="43.72996" lon="6.95045">
        <ele>923.4</ele>
        <time>2015-11-07T10:27:12Z</time>
      </trkpt>
      <trkpt lat="43.72997" lon="6.95052">
        <ele>923.4</ele>
        <time>2015-11-07T10:27:13Z</time>
      </trkpt>
      <trkpt lat="43.72999" lon="6.9506">
        <ele>923</ele>
        <time>2015-11-07T10:27:15Z</time>
      </trkpt>
      <trkpt lat="43.72999" lon="6.95063">
        <ele>922.6</ele>
        <time>2015-11-07T10:27:16Z</time>
      </trkpt>
      <trkpt lat="43.73" lon="6.95068">
        <ele>922.2</ele>
        <time>2015-11-07T10:27:17Z</time>
      </trkpt>
      <trkpt lat="43.73002" lon="6.95073">
        <ele>921.8</ele>
        <time>2015-11-07T10:27:18Z</time>
      </trkpt>
      <trkpt lat="43.73005" lon="6.95077">
        <ele>921.4</ele>
        <time>2015-11-07T10:27:19Z</time>
      </trkpt>
      <trkpt lat="43.73006" lon="6.95082">
        <ele>920.8</ele>
        <time>2015-11-07T10:27:20Z</time>
      </trkpt>
      <trkpt lat="43.73006" lon="6.95085">
        <ele>920.2</ele>
        <time>2015-11-07T10:27:21Z</time>
      </trkpt>
      <trkpt lat="43.73006" lon="6.95089">
        <ele>919.8</ele>
        <time>2015-11-07T10:27:22Z</time>
      </trkpt>
      <trkpt lat="43.73005" lon="6.95092">
        <ele>919.2</ele>
        <time>2015-11-07T10:27:23Z</time>
      </trkpt>
      <trkpt lat="43.73004" lon="6.95095">
        <ele>918.8</ele>
        <time>2015-11-07T10:27:24Z</time>
      </trkpt>
      <trkpt lat="43.73001" lon="6.95097">
        <ele>918.2</ele>
        <time>2015-11-07T10:27:25Z</time>
      </trkpt>
      <trkpt lat="43.72999" lon="6.95098">
        <ele>917.6</ele>
        <time>2015-11-07T10:27:26Z</time>
      </trkpt>
      <trkpt lat="43.72997" lon="6.951">
        <ele>917.2</ele>
        <time>2015-11-07T10:27:27Z</time>
      </trkpt>
      <trkpt lat="43.72996" lon="6.95108">
        <ele>917.2</ele>
        <time>2015-11-07T10:27:30Z</time>
      </trkpt>
      <trkpt lat="43.73001" lon="6.95116">
        <ele>916.6</ele>
        <time>2015-11-07T10:27:33Z</time>
      </trkpt>
      <trkpt lat="43.73003" lon="6.9512">
        <ele>916.2</ele>
        <time>2015-11-07T10:27:34Z</time>
      </trkpt>
      <trkpt lat="43.73006" lon="6.95124">
        <ele>915.8</ele>
        <time>2015-11-07T10:27:35Z</time>
      </trkpt>
      <trkpt lat="43.73011" lon="6.95129">
        <ele>915.4</ele>
        <time>2015-11-07T10:27:36Z</time>
      </trkpt>
      <trkpt lat="43.73015" lon="6.95131">
        <ele>914.8</ele>
        <time>2015-11-07T10:27:37Z</time>
      </trkpt>
      <trkpt lat="43.7302" lon="6.95134">
        <ele>914.4</ele>
        <time>2015-11-07T10:27:38Z</time>
      </trkpt>
      <trkpt lat="43.73024" lon="6.95136">
        <ele>913.8</ele>
        <time>2015-11-07T10:27:39Z</time>
      </trkpt>
      <trkpt lat="43.73028" lon="6.95139">
        <ele>913.4</ele>
        <time>2015-11-07T10:27:40Z</time>
      </trkpt>
      <trkpt lat="43.7303" lon="6.95141">
        <ele>912.8</ele>
        <time>2015-11-07T10:27:41Z</time>
      </trkpt>
      <trkpt lat="43.73032" lon="6.95144">
        <ele>912.2</ele>
        <time>2015-11-07T10:27:42Z</time>
      </trkpt>
      <trkpt lat="43.73033" lon="6.95146">
        <ele>911.8</ele>
        <time>2015-11-07T10:27:43Z</time>
      </trkpt>
      <trkpt lat="43.73034" lon="6.95148">
        <ele>911.2</ele>
        <time>2015-11-07T10:27:44Z</time>
      </trkpt>
      <trkpt lat="43.73035" lon="6.95151">
        <ele>910.8</ele>
        <time>2015-11-07T10:27:45Z</time>
      </trkpt>
      <trkpt lat="43.73034" lon="6.95159">
        <ele>910.2</ele>
        <time>2015-11-07T10:27:47Z</time>
      </trkpt>
      <trkpt lat="43.73033" lon="6.95163">
        <ele>909.8</ele>
        <time>2015-11-07T10:27:48Z</time>
      </trkpt>
      <trkpt lat="43.73034" lon="6.95167">
        <ele>909.4</ele>
        <time>2015-11-07T10:27:49Z</time>
      </trkpt>
      <trkpt lat="43.73035" lon="6.95171">
        <ele>908.8</ele>
        <time>2015-11-07T10:27:50Z</time>
      </trkpt>
      <trkpt lat="43.73035" lon="6.95175">
        <ele>908.4</ele>
        <time>2015-11-07T10:27:51Z</time>
      </trkpt>
      <trkpt lat="43.73037" lon="6.95178">
        <ele>908.4</ele>
        <time>2015-11-07T10:27:52Z</time>
      </trkpt>
      <trkpt lat="43.73039" lon="6.95181">
        <ele>907.8</ele>
        <time>2015-11-07T10:27:53Z</time>
      </trkpt>
      <trkpt lat="43.73041" lon="6.95184">
        <ele>907.4</ele>
        <time>2015-11-07T10:27:54Z</time>
      </trkpt>
      <trkpt lat="43.73043" lon="6.95189">
        <ele>906.8</ele>
        <time>2015-11-07T10:27:55Z</time>
      </trkpt>
      <trkpt lat="43.73045" lon="6.95195">
        <ele>906.4</ele>
        <time>2015-11-07T10:27:56Z</time>
      </trkpt>
      <trkpt lat="43.73047" lon="6.95201">
        <ele>905.6</ele>
        <time>2015-11-07T10:27:57Z</time>
      </trkpt>
      <trkpt lat="43.73048" lon="6.95208">
        <ele>904.8</ele>
        <time>2015-11-07T10:27:58Z</time>
      </trkpt>
      <trkpt lat="43.73049" lon="6.95215">
        <ele>903.8</ele>
        <time>2015-11-07T10:27:59Z</time>
      </trkpt>
      <trkpt lat="43.73046" lon="6.95222">
        <ele>903</ele>
        <time>2015-11-07T10:28:00Z</time>
      </trkpt>
      <trkpt lat="43.73045" lon="6.9523">
        <ele>902</ele>
        <time>2015-11-07T10:28:01Z</time>
      </trkpt>
      <trkpt lat="43.73043" lon="6.95239">
        <ele>901</ele>
        <time>2015-11-07T10:28:02Z</time>
      </trkpt>
      <trkpt lat="43.73043" lon="6.95249">
        <ele>900</ele>
        <time>2015-11-07T10:28:03Z</time>
      </trkpt>
      <trkpt lat="43.73042" lon="6.95257">
        <ele>899</ele>
        <time>2015-11-07T10:28:04Z</time>
      </trkpt>
      <trkpt lat="43.73041" lon="6.95264">
        <ele>898</ele>
        <time>2015-11-07T10:28:05Z</time>
      </trkpt>
      <trkpt lat="43.73037" lon="6.95269">
        <ele>897.2</ele>
        <time>2015-11-07T10:28:06Z</time>
      </trkpt>
      <trkpt lat="43.73033" lon="6.95275">
        <ele>896.2</ele>
        <time>2015-11-07T10:28:07Z</time>
      </trkpt>
      <trkpt lat="43.7303" lon="6.9528">
        <ele>895.2</ele>
        <time>2015-11-07T10:28:08Z</time>
      </trkpt>
      <trkpt lat="43.73029" lon="6.95285">
        <ele>894.2</ele>
        <time>2015-11-07T10:28:09Z</time>
      </trkpt>
      <trkpt lat="43.73029" lon="6.95289">
        <ele>893.2</ele>
        <time>2015-11-07T10:28:10Z</time>
      </trkpt>
      <trkpt lat="43.73029" lon="6.95293">
        <ele>892</ele>
        <time>2015-11-07T10:28:11Z</time>
      </trkpt>
      <trkpt lat="43.73029" lon="6.95296">
        <ele>892</ele>
        <time>2015-11-07T10:28:12Z</time>
      </trkpt>
      <trkpt lat="43.73028" lon="6.95317">
        <ele>892</ele>
        <time>2015-11-07T10:28:18Z</time>
      </trkpt>
      <trkpt lat="43.73033" lon="6.95314">
        <ele>892</ele>
        <time>2015-11-07T10:28:19Z</time>
      </trkpt>
      <trkpt lat="43.73037" lon="6.95313">
        <ele>892</ele>
        <time>2015-11-07T10:28:20Z</time>
      </trkpt>
      <trkpt lat="43.7304" lon="6.95311">
        <ele>891.6</ele>
        <time>2015-11-07T10:28:21Z</time>
      </trkpt>
      <trkpt lat="43.73043" lon="6.95309">
        <ele>891.2</ele>
        <time>2015-11-07T10:28:22Z</time>
      </trkpt>
      <trkpt lat="43.73046" lon="6.95309">
        <ele>890.8</ele>
        <time>2015-11-07T10:28:23Z</time>
      </trkpt>
      <trkpt lat="43.73049" lon="6.95308">
        <ele>890.4</ele>
        <time>2015-11-07T10:28:24Z</time>
      </trkpt>
      <trkpt lat="43.73051" lon="6.95307">
        <ele>890.8</ele>
        <time>2015-11-07T10:28:25Z</time>
      </trkpt>
      <trkpt lat="43.73053" lon="6.95305">
        <ele>891</ele>
        <time>2015-11-07T10:28:26Z</time>
      </trkpt>
      <trkpt lat="43.73055" lon="6.95305">
        <ele>891.4</ele>
        <time>2015-11-07T10:28:27Z</time>
      </trkpt>
      <trkpt lat="43.73057" lon="6.95306">
        <ele>891.6</ele>
        <time>2015-11-07T10:28:28Z</time>
      </trkpt>
      <trkpt lat="43.73058" lon="6.95306">
        <ele>892</ele>
        <time>2015-11-07T10:28:29Z</time>
      </trkpt>
      <trkpt lat="43.73061" lon="6.95305">
        <ele>892</ele>
        <time>2015-11-07T10:28:31Z</time>
      </trkpt>
      <trkpt lat="43.73062" lon="6.95305">
        <ele>892</ele>
        <time>2015-11-07T10:28:32Z</time>
      </trkpt>
      <trkpt lat="43.73066" lon="6.95305">
        <ele>892</ele>
        <time>2015-11-07T10:28:34Z</time>
      </trkpt>
      <trkpt lat="43.73073" lon="6.95306">
        <ele>892</ele>
        <time>2015-11-07T10:28:37Z</time>
      </trkpt>
      <trkpt lat="43.73084" lon="6.95318">
        <ele>891.6</ele>
        <time>2015-11-07T10:28:42Z</time>
      </trkpt>
      <trkpt lat="43.73087" lon="6.95321">
        <ele>891.2</ele>
        <time>2015-11-07T10:28:43Z</time>
      </trkpt>
      <trkpt lat="43.7309" lon="6.95323">
        <ele>890.8</ele>
        <time>2015-11-07T10:28:44Z</time>
      </trkpt>
      <trkpt lat="43.73092" lon="6.95325">
        <ele>890.4</ele>
        <time>2015-11-07T10:28:45Z</time>
      </trkpt>
      <trkpt lat="43.73095" lon="6.95328">
        <ele>889.8</ele>
        <time>2015-11-07T10:28:46Z</time>
      </trkpt>
      <trkpt lat="43.73098" lon="6.9533">
        <ele>889.2</ele>
        <time>2015-11-07T10:28:47Z</time>
      </trkpt>
      <trkpt lat="43.731" lon="6.95331">
        <ele>888.6</ele>
        <time>2015-11-07T10:28:48Z</time>
      </trkpt>
      <trkpt lat="43.73102" lon="6.95333">
        <ele>887.8</ele>
        <time>2015-11-07T10:28:49Z</time>
      </trkpt>
      <trkpt lat="43.73104" lon="6.95337">
        <ele>887.2</ele>
        <time>2015-11-07T10:28:50Z</time>
      </trkpt>
      <trkpt lat="43.73105" lon="6.95341">
        <ele>886.2</ele>
        <time>2015-11-07T10:28:51Z</time>
      </trkpt>
      <trkpt lat="43.73106" lon="6.95346">
        <ele>885.4</ele>
        <time>2015-11-07T10:28:52Z</time>
      </trkpt>
      <trkpt lat="43.73106" lon="6.9535">
        <ele>884.4</ele>
        <time>2015-11-07T10:28:53Z</time>
      </trkpt>
      <trkpt lat="43.73106" lon="6.95354">
        <ele>883.6</ele>
        <time>2015-11-07T10:28:54Z</time>
      </trkpt>
      <trkpt lat="43.73105" lon="6.95358">
        <ele>882.8</ele>
        <time>2015-11-07T10:28:55Z</time>
      </trkpt>
      <trkpt lat="43.73103" lon="6.95364">
        <ele>882.2</ele>
        <time>2015-11-07T10:28:56Z</time>
      </trkpt>
      <trkpt lat="43.73101" lon="6.9537">
        <ele>881.2</ele>
        <time>2015-11-07T10:28:57Z</time>
      </trkpt>
      <trkpt lat="43.73098" lon="6.95376">
        <ele>880.4</ele>
        <time>2015-11-07T10:28:58Z</time>
      </trkpt>
      <trkpt lat="43.73095" lon="6.95382">
        <ele>879.4</ele>
        <time>2015-11-07T10:28:59Z</time>
      </trkpt>
      <trkpt lat="43.73092" lon="6.95388">
        <ele>878.6</ele>
        <time>2015-11-07T10:29:00Z</time>
      </trkpt>
      <trkpt lat="43.73089" lon="6.95393">
        <ele>877.8</ele>
        <time>2015-11-07T10:29:01Z</time>
      </trkpt>
      <trkpt lat="43.73087" lon="6.95398">
        <ele>877.2</ele>
        <time>2015-11-07T10:29:02Z</time>
      </trkpt>
      <trkpt lat="43.73088" lon="6.95402">
        <ele>876.4</ele>
        <time>2015-11-07T10:29:03Z</time>
      </trkpt>
      <trkpt lat="43.7309" lon="6.95406">
        <ele>875.8</ele>
        <time>2015-11-07T10:29:04Z</time>
      </trkpt>
      <trkpt lat="43.73093" lon="6.95409">
        <ele>875.2</ele>
        <time>2015-11-07T10:29:05Z</time>
      </trkpt>
      <trkpt lat="43.73095" lon="6.95411">
        <ele>874.6</ele>
        <time>2015-11-07T10:29:06Z</time>
      </trkpt>
      <trkpt lat="43.73096" lon="6.95413">
        <ele>874</ele>
        <time>2015-11-07T10:29:07Z</time>
      </trkpt>
      <trkpt lat="43.73095" lon="6.95418">
        <ele>873.4</ele>
        <time>2015-11-07T10:29:08Z</time>
      </trkpt>
      <trkpt lat="43.73093" lon="6.95423">
        <ele>872.8</ele>
        <time>2015-11-07T10:29:09Z</time>
      </trkpt>
      <trkpt lat="43.7309" lon="6.9543">
        <ele>872</ele>
        <time>2015-11-07T10:29:10Z</time>
      </trkpt>
      <trkpt lat="43.73087" lon="6.95434">
        <ele>871.4</ele>
        <time>2015-11-07T10:29:11Z</time>
      </trkpt>
      <trkpt lat="43.73084" lon="6.95439">
        <ele>870.6</ele>
        <time>2015-11-07T10:29:12Z</time>
      </trkpt>
      <trkpt lat="43.73082" lon="6.95444">
        <ele>869.8</ele>
        <time>2015-11-07T10:29:13Z</time>
      </trkpt>
      <trkpt lat="43.7308" lon="6.95448">
        <ele>868.8</ele>
        <time>2015-11-07T10:29:14Z</time>
      </trkpt>
      <trkpt lat="43.73078" lon="6.95452">
        <ele>868</ele>
        <time>2015-11-07T10:29:15Z</time>
      </trkpt>
      <trkpt lat="43.73074" lon="6.95454">
        <ele>867.2</ele>
        <time>2015-11-07T10:29:16Z</time>
      </trkpt>
      <trkpt lat="43.7307" lon="6.95457">
        <ele>866.6</ele>
        <time>2015-11-07T10:29:17Z</time>
      </trkpt>
      <trkpt lat="43.73067" lon="6.95461">
        <ele>865.8</ele>
        <time>2015-11-07T10:29:18Z</time>
      </trkpt>
      <trkpt lat="43.73065" lon="6.95464">
        <ele>865.2</ele>
        <time>2015-11-07T10:29:19Z</time>
      </trkpt>
      <trkpt lat="43.73062" lon="6.95468">
        <ele>864.4</ele>
        <time>2015-11-07T10:29:20Z</time>
      </trkpt>
      <trkpt lat="43.73059" lon="6.95473">
        <ele>863.8</ele>
        <time>2015-11-07T10:29:21Z</time>
      </trkpt>
      <trkpt lat="43.73056" lon="6.95477">
        <ele>863.2</ele>
        <time>2015-11-07T10:29:22Z</time>
      </trkpt>
      <trkpt lat="43.73055" lon="6.95481">
        <ele>862.6</ele>
        <time>2015-11-07T10:29:23Z</time>
      </trkpt>
      <trkpt lat="43.73053" lon="6.95485">
        <ele>861.8</ele>
        <time>2015-11-07T10:29:24Z</time>
      </trkpt>
      <trkpt lat="43.73052" lon="6.95491">
        <ele>861</ele>
        <time>2015-11-07T10:29:25Z</time>
      </trkpt>
      <trkpt lat="43.73051" lon="6.95497">
        <ele>860.2</ele>
        <time>2015-11-07T10:29:26Z</time>
      </trkpt>
      <trkpt lat="43.73049" lon="6.95501">
        <ele>859.6</ele>
        <time>2015-11-07T10:29:27Z</time>
      </trkpt>
      <trkpt lat="43.73047" lon="6.95505">
        <ele>858.8</ele>
        <time>2015-11-07T10:29:28Z</time>
      </trkpt>
      <trkpt lat="43.73043" lon="6.95508">
        <ele>858</ele>
        <time>2015-11-07T10:29:29Z</time>
      </trkpt>
      <trkpt lat="43.73039" lon="6.95511">
        <ele>857.2</ele>
        <time>2015-11-07T10:29:30Z</time>
      </trkpt>
      <trkpt lat="43.73034" lon="6.95513">
        <ele>856.4</ele>
        <time>2015-11-07T10:29:31Z</time>
      </trkpt>
      <trkpt lat="43.73029" lon="6.95516">
        <ele>855.8</ele>
        <time>2015-11-07T10:29:32Z</time>
      </trkpt>
      <trkpt lat="43.73025" lon="6.95518">
        <ele>855.2</ele>
        <time>2015-11-07T10:29:33Z</time>
      </trkpt>
      <trkpt lat="43.73021" lon="6.9552">
        <ele>854.8</ele>
        <time>2015-11-07T10:29:34Z</time>
      </trkpt>
      <trkpt lat="43.73016" lon="6.95519">
        <ele>854.2</ele>
        <time>2015-11-07T10:29:35Z</time>
      </trkpt>
      <trkpt lat="43.73012" lon="6.95519">
        <ele>853.8</ele>
        <time>2015-11-07T10:29:36Z</time>
      </trkpt>
      <trkpt lat="43.7301" lon="6.95517">
        <ele>853.4</ele>
        <time>2015-11-07T10:29:37Z</time>
      </trkpt>
      <trkpt lat="43.73005" lon="6.95513">
        <ele>853.4</ele>
        <time>2015-11-07T10:29:40Z</time>
      </trkpt>
      <trkpt lat="43.73004" lon="6.95514">
        <ele>853</ele>
        <time>2015-11-07T10:29:41Z</time>
      </trkpt>
      <trkpt lat="43.73002" lon="6.95514">
        <ele>852.6</ele>
        <time>2015-11-07T10:29:42Z</time>
      </trkpt>
      <trkpt lat="43.73001" lon="6.95514">
        <ele>852.2</ele>
        <time>2015-11-07T10:29:43Z</time>
      </trkpt>
      <trkpt lat="43.72999" lon="6.95514">
        <ele>851.6</ele>
        <time>2015-11-07T10:29:44Z</time>
      </trkpt>
      <trkpt lat="43.72997" lon="6.95515">
        <ele>851.2</ele>
        <time>2015-11-07T10:29:45Z</time>
      </trkpt>
      <trkpt lat="43.72996" lon="6.95516">
        <ele>850.6</ele>
        <time>2015-11-07T10:29:46Z</time>
      </trkpt>
      <trkpt lat="43.72994" lon="6.95517">
        <ele>850</ele>
        <time>2015-11-07T10:29:47Z</time>
      </trkpt>
      <trkpt lat="43.72994" lon="6.95518">
        <ele>849.4</ele>
        <time>2015-11-07T10:29:48Z</time>
      </trkpt>
      <trkpt lat="43.72992" lon="6.9552">
        <ele>849</ele>
        <time>2015-11-07T10:29:49Z</time>
      </trkpt>
      <trkpt lat="43.7299" lon="6.95522">
        <ele>848.4</ele>
        <time>2015-11-07T10:29:50Z</time>
      </trkpt>
      <trkpt lat="43.72988" lon="6.95522">
        <ele>848</ele>
        <time>2015-11-07T10:29:51Z</time>
      </trkpt>
      <trkpt lat="43.72985" lon="6.95522">
        <ele>847.6</ele>
        <time>2015-11-07T10:29:52Z</time>
      </trkpt>
      <trkpt lat="43.72982" lon="6.95523">
        <ele>847</ele>
        <time>2015-11-07T10:29:53Z</time>
      </trkpt>
      <trkpt lat="43.72981" lon="6.95523">
        <ele>846.4</ele>
        <time>2015-11-07T10:29:54Z</time>
      </trkpt>
      <trkpt lat="43.72981" lon="6.95523">
        <ele>845.6</ele>
        <time>2015-11-07T10:29:55Z</time>
      </trkpt>
      <trkpt lat="43.7298" lon="6.95524">
        <ele>845</ele>
        <time>2015-11-07T10:29:56Z</time>
      </trkpt>
      <trkpt lat="43.72979" lon="6.95524">
        <ele>844.4</ele>
        <time>2015-11-07T10:29:57Z</time>
      </trkpt>
      <trkpt lat="43.72977" lon="6.95524">
        <ele>844</ele>
        <time>2015-11-07T10:30:03Z</time>
      </trkpt>
      <trkpt lat="43.72976" lon="6.95524">
        <ele>843.4</ele>
        <time>2015-11-07T10:30:04Z</time>
      </trkpt>
      <trkpt lat="43.72976" lon="6.95524">
        <ele>843</ele>
        <time>2015-11-07T10:30:05Z</time>
      </trkpt>
      <trkpt lat="43.72976" lon="6.95524">
        <ele>842.4</ele>
        <time>2015-11-07T10:30:06Z</time>
      </trkpt>
      <trkpt lat="43.72976" lon="6.95524">
        <ele>842</ele>
        <time>2015-11-07T10:30:07Z</time>
      </trkpt>
      <trkpt lat="43.72976" lon="6.95524">
        <ele>841.4</ele>
        <time>2015-11-07T10:30:13Z</time>
      </trkpt>
      <trkpt lat="43.72976" lon="6.95524">
        <ele>841</ele>
        <time>2015-11-07T10:30:14Z</time>
      </trkpt>
      <trkpt lat="43.72976" lon="6.95524">
        <ele>840.4</ele>
        <time>2015-11-07T10:30:15Z</time>
      </trkpt>
      <trkpt lat="43.72976" lon="6.95524">
        <ele>840</ele>
        <time>2015-11-07T10:30:16Z</time>
      </trkpt>
      <trkpt lat="43.72976" lon="6.95524">
        <ele>839.6</ele>
        <time>2015-11-07T10:30:17Z</time>
      </trkpt>
      <trkpt lat="43.72976" lon="6.95524">
        <ele>839</ele>
        <time>2015-11-07T10:30:19Z</time>
      </trkpt>
      <trkpt lat="43.72975" lon="6.95524">
        <ele>838.6</ele>
        <time>2015-11-07T10:30:20Z</time>
      </trkpt>
      <trkpt lat="43.72974" lon="6.95525">
        <ele>838.2</ele>
        <time>2015-11-07T10:30:21Z</time>
      </trkpt>
      <trkpt lat="43.72972" lon="6.95525">
        <ele>837.8</ele>
        <time>2015-11-07T10:30:22Z</time>
      </trkpt>
      <trkpt lat="43.72967" lon="6.95527">
        <ele>837.4</ele>
        <time>2015-11-07T10:30:23Z</time>
      </trkpt>
      <trkpt lat="43.72963" lon="6.95528">
        <ele>836.8</ele>
        <time>2015-11-07T10:30:24Z</time>
      </trkpt>
      <trkpt lat="43.72961" lon="6.95529">
        <ele>836.2</ele>
        <time>2015-11-07T10:30:25Z</time>
      </trkpt>
      <trkpt lat="43.72957" lon="6.9553">
        <ele>835.8</ele>
        <time>2015-11-07T10:30:26Z</time>
      </trkpt>
      <trkpt lat="43.72953" lon="6.95532">
        <ele>835.2</ele>
        <time>2015-11-07T10:30:27Z</time>
      </trkpt>
      <trkpt lat="43.7295" lon="6.95533">
        <ele>834.4</ele>
        <time>2015-11-07T10:30:28Z</time>
      </trkpt>
      <trkpt lat="43.72947" lon="6.95534">
        <ele>833.8</ele>
        <time>2015-11-07T10:30:29Z</time>
      </trkpt>
      <trkpt lat="43.72944" lon="6.95533">
        <ele>833.2</ele>
        <time>2015-11-07T10:30:30Z</time>
      </trkpt>
      <trkpt lat="43.72941" lon="6.95533">
        <ele>832.6</ele>
        <time>2015-11-07T10:30:31Z</time>
      </trkpt>
      <trkpt lat="43.72938" lon="6.95533">
        <ele>831.8</ele>
        <time>2015-11-07T10:30:32Z</time>
      </trkpt>
      <trkpt lat="43.72936" lon="6.95534">
        <ele>831.2</ele>
        <time>2015-11-07T10:30:33Z</time>
      </trkpt>
      <trkpt lat="43.72933" lon="6.95534">
        <ele>830.6</ele>
        <time>2015-11-07T10:30:34Z</time>
      </trkpt>
      <trkpt lat="43.72931" lon="6.95534">
        <ele>829.8</ele>
        <time>2015-11-07T10:30:35Z</time>
      </trkpt>
      <trkpt lat="43.72928" lon="6.95535">
        <ele>829.2</ele>
        <time>2015-11-07T10:30:36Z</time>
      </trkpt>
      <trkpt lat="43.72926" lon="6.95536">
        <ele>828.6</ele>
        <time>2015-11-07T10:30:37Z</time>
      </trkpt>
      <trkpt lat="43.72923" lon="6.95537">
        <ele>827.8</ele>
        <time>2015-11-07T10:30:38Z</time>
      </trkpt>
      <trkpt lat="43.72921" lon="6.95537">
        <ele>827.2</ele>
        <time>2015-11-07T10:30:39Z</time>
      </trkpt>
      <trkpt lat="43.72919" lon="6.95537">
        <ele>826.6</ele>
        <time>2015-11-07T10:30:40Z</time>
      </trkpt>
      <trkpt lat="43.72917" lon="6.95538">
        <ele>826</ele>
        <time>2015-11-07T10:30:41Z</time>
      </trkpt>
      <trkpt lat="43.72916" lon="6.95539">
        <ele>825.2</ele>
        <time>2015-11-07T10:30:42Z</time>
      </trkpt>
      <trkpt lat="43.72913" lon="6.95541">
        <ele>824.6</ele>
        <time>2015-11-07T10:30:43Z</time>
      </trkpt>
      <trkpt lat="43.72911" lon="6.95542">
        <ele>824</ele>
        <time>2015-11-07T10:30:44Z</time>
      </trkpt>
      <trkpt lat="43.72909" lon="6.95542">
        <ele>823.2</ele>
        <time>2015-11-07T10:30:45Z</time>
      </trkpt>
      <trkpt lat="43.72908" lon="6.95542">
        <ele>822.6</ele>
        <time>2015-11-07T10:30:46Z</time>
      </trkpt>
      <trkpt lat="43.72905" lon="6.95543">
        <ele>821.8</ele>
        <time>2015-11-07T10:30:47Z</time>
      </trkpt>
      <trkpt lat="43.72904" lon="6.95543">
        <ele>821.2</ele>
        <time>2015-11-07T10:30:48Z</time>
      </trkpt>
      <trkpt lat="43.72902" lon="6.95545">
        <ele>820.4</ele>
        <time>2015-11-07T10:30:49Z</time>
      </trkpt>
      <trkpt lat="43.729" lon="6.95547">
        <ele>819.8</ele>
        <time>2015-11-07T10:30:50Z</time>
      </trkpt>
      <trkpt lat="43.72898" lon="6.95547">
        <ele>818.8</ele>
        <time>2015-11-07T10:30:51Z</time>
      </trkpt>
      <trkpt lat="43.72896" lon="6.95548">
        <ele>818</ele>
        <time>2015-11-07T10:30:52Z</time>
      </trkpt>
      <trkpt lat="43.72894" lon="6.95549">
        <ele>817</ele>
        <time>2015-11-07T10:30:53Z</time>
      </trkpt>
      <trkpt lat="43.72892" lon="6.9555">
        <ele>816.2</ele>
        <time>2015-11-07T10:30:54Z</time>
      </trkpt>
      <trkpt lat="43.72889" lon="6.95551">
        <ele>815.4</ele>
        <time>2015-11-07T10:30:55Z</time>
      </trkpt>
      <trkpt lat="43.72887" lon="6.95552">
        <ele>814.6</ele>
        <time>2015-11-07T10:30:56Z</time>
      </trkpt>
      <trkpt lat="43.72884" lon="6.95553">
        <ele>813.8</ele>
        <time>2015-11-07T10:30:57Z</time>
      </trkpt>
      <trkpt lat="43.72882" lon="6.95554">
        <ele>813</ele>
        <time>2015-11-07T10:30:58Z</time>
      </trkpt>
      <trkpt lat="43.7288" lon="6.95555">
        <ele>812.4</ele>
        <time>2015-11-07T10:30:59Z</time>
      </trkpt>
      <trkpt lat="43.72878" lon="6.95556">
        <ele>811.8</ele>
        <time>2015-11-07T10:31:00Z</time>
      </trkpt>
      <trkpt lat="43.72876" lon="6.95558">
        <ele>811</ele>
        <time>2015-11-07T10:31:01Z</time>
      </trkpt>
      <trkpt lat="43.72874" lon="6.9556">
        <ele>810.2</ele>
        <time>2015-11-07T10:31:02Z</time>
      </trkpt>
      <trkpt lat="43.72872" lon="6.95562">
        <ele>809.4</ele>
        <time>2015-11-07T10:31:03Z</time>
      </trkpt>
      <trkpt lat="43.7287" lon="6.95565">
        <ele>808.6</ele>
        <time>2015-11-07T10:31:04Z</time>
      </trkpt>
      <trkpt lat="43.72868" lon="6.95567">
        <ele>807.6</ele>
        <time>2015-11-07T10:31:05Z</time>
      </trkpt>
      <trkpt lat="43.72866" lon="6.95569">
        <ele>806.8</ele>
        <time>2015-11-07T10:31:06Z</time>
      </trkpt>
      <trkpt lat="43.72864" lon="6.95571">
        <ele>806</ele>
        <time>2015-11-07T10:31:07Z</time>
      </trkpt>
      <trkpt lat="43.72862" lon="6.95573">
        <ele>805.2</ele>
        <time>2015-11-07T10:31:08Z</time>
      </trkpt>
      <trkpt lat="43.7286" lon="6.95575">
        <ele>804.4</ele>
        <time>2015-11-07T10:31:09Z</time>
      </trkpt>
      <trkpt lat="43.72858" lon="6.95577">
        <ele>803.8</ele>
        <time>2015-11-07T10:31:10Z</time>
      </trkpt>
      <trkpt lat="43.72857" lon="6.9558">
        <ele>803.2</ele>
        <time>2015-11-07T10:31:11Z</time>
      </trkpt>
      <trkpt lat="43.72856" lon="6.95583">
        <ele>802.6</ele>
        <time>2015-11-07T10:31:12Z</time>
      </trkpt>
      <trkpt lat="43.72854" lon="6.95586">
        <ele>801.8</ele>
        <time>2015-11-07T10:31:13Z</time>
      </trkpt>
      <trkpt lat="43.72852" lon="6.95589">
        <ele>801.2</ele>
        <time>2015-11-07T10:31:14Z</time>
      </trkpt>
      <trkpt lat="43.7285" lon="6.95591">
        <ele>800.2</ele>
        <time>2015-11-07T10:31:15Z</time>
      </trkpt>
      <trkpt lat="43.72848" lon="6.95594">
        <ele>799.4</ele>
        <time>2015-11-07T10:31:16Z</time>
      </trkpt>
      <trkpt lat="43.72847" lon="6.95596">
        <ele>798.6</ele>
        <time>2015-11-07T10:31:17Z</time>
      </trkpt>
      <trkpt lat="43.72846" lon="6.95599">
        <ele>797.6</ele>
        <time>2015-11-07T10:31:18Z</time>
      </trkpt>
      <trkpt lat="43.72847" lon="6.95602">
        <ele>796.8</ele>
        <time>2015-11-07T10:31:19Z</time>
      </trkpt>
      <trkpt lat="43.72848" lon="6.95606">
        <ele>796.2</ele>
        <time>2015-11-07T10:31:20Z</time>
      </trkpt>
      <trkpt lat="43.72849" lon="6.95609">
        <ele>795.8</ele>
        <time>2015-11-07T10:31:21Z</time>
      </trkpt>
      <trkpt lat="43.72848" lon="6.95613">
        <ele>795</ele>
        <time>2015-11-07T10:31:22Z</time>
      </trkpt>
      <trkpt lat="43.72846" lon="6.9562">
        <ele>793.6</ele>
        <time>2015-11-07T10:31:24Z</time>
      </trkpt>
      <trkpt lat="43.72846" lon="6.95623">
        <ele>792.8</ele>
        <time>2015-11-07T10:31:25Z</time>
      </trkpt>
      <trkpt lat="43.72846" lon="6.95626">
        <ele>792</ele>
        <time>2015-11-07T10:31:26Z</time>
      </trkpt>
      <trkpt lat="43.72846" lon="6.9563">
        <ele>791.6</ele>
        <time>2015-11-07T10:31:27Z</time>
      </trkpt>
      <trkpt lat="43.72847" lon="6.95633">
        <ele>791.2</ele>
        <time>2015-11-07T10:31:28Z</time>
      </trkpt>
      <trkpt lat="43.72848" lon="6.95637">
        <ele>790.8</ele>
        <time>2015-11-07T10:31:29Z</time>
      </trkpt>
      <trkpt lat="43.72848" lon="6.95641">
        <ele>790.2</ele>
        <time>2015-11-07T10:31:30Z</time>
      </trkpt>
      <trkpt lat="43.72849" lon="6.95645">
        <ele>789.6</ele>
        <time>2015-11-07T10:31:31Z</time>
      </trkpt>
      <trkpt lat="43.72848" lon="6.95649">
        <ele>789</ele>
        <time>2015-11-07T10:31:32Z</time>
      </trkpt>
      <trkpt lat="43.72848" lon="6.95653">
        <ele>788.2</ele>
        <time>2015-11-07T10:31:33Z</time>
      </trkpt>
      <trkpt lat="43.72848" lon="6.95657">
        <ele>787.4</ele>
        <time>2015-11-07T10:31:34Z</time>
      </trkpt>
      <trkpt lat="43.72848" lon="6.95661">
        <ele>786.6</ele>
        <time>2015-11-07T10:31:35Z</time>
      </trkpt>
      <trkpt lat="43.72848" lon="6.95666">
        <ele>786</ele>
        <time>2015-11-07T10:31:36Z</time>
      </trkpt>
      <trkpt lat="43.72847" lon="6.9567">
        <ele>785.2</ele>
        <time>2015-11-07T10:31:37Z</time>
      </trkpt>
      <trkpt lat="43.72846" lon="6.95673">
        <ele>784.4</ele>
        <time>2015-11-07T10:31:38Z</time>
      </trkpt>
      <trkpt lat="43.72845" lon="6.95676">
        <ele>783.6</ele>
        <time>2015-11-07T10:31:39Z</time>
      </trkpt>
      <trkpt lat="43.72844" lon="6.95678">
        <ele>783</ele>
        <time>2015-11-07T10:31:40Z</time>
      </trkpt>
      <trkpt lat="43.72843" lon="6.9568">
        <ele>782.4</ele>
        <time>2015-11-07T10:31:41Z</time>
      </trkpt>
      <trkpt lat="43.72842" lon="6.95681">
        <ele>781.8</ele>
        <time>2015-11-07T10:31:42Z</time>
      </trkpt>
      <trkpt lat="43.72841" lon="6.95682">
        <ele>781.2</ele>
        <time>2015-11-07T10:31:43Z</time>
      </trkpt>
      <trkpt lat="43.72839" lon="6.9568">
        <ele>780.6</ele>
        <time>2015-11-07T10:31:44Z</time>
      </trkpt>
      <trkpt lat="43.72838" lon="6.9568">
        <ele>780.2</ele>
        <time>2015-11-07T10:31:45Z</time>
      </trkpt>
      <trkpt lat="43.72838" lon="6.9568">
        <ele>779.8</ele>
        <time>2015-11-07T10:31:46Z</time>
      </trkpt>
      <trkpt lat="43.72838" lon="6.95679">
        <ele>779.4</ele>
        <time>2015-11-07T10:31:47Z</time>
      </trkpt>
      <trkpt lat="43.72838" lon="6.95678">
        <ele>779</ele>
        <time>2015-11-07T10:31:48Z</time>
      </trkpt>
      <trkpt lat="43.72837" lon="6.95677">
        <ele>778.6</ele>
        <time>2015-11-07T10:31:49Z</time>
      </trkpt>
      <trkpt lat="43.72833" lon="6.95671">
        <ele>778</ele>
        <time>2015-11-07T10:31:51Z</time>
      </trkpt>
      <trkpt lat="43.72831" lon="6.95669">
        <ele>777.6</ele>
        <time>2015-11-07T10:31:52Z</time>
      </trkpt>
      <trkpt lat="43.72829" lon="6.95666">
        <ele>777.2</ele>
        <time>2015-11-07T10:31:53Z</time>
      </trkpt>
      <trkpt lat="43.72827" lon="6.95662">
        <ele>776.8</ele>
        <time>2015-11-07T10:31:54Z</time>
      </trkpt>
      <trkpt lat="43.72825" lon="6.95658">
        <ele>776.4</ele>
        <time>2015-11-07T10:31:55Z</time>
      </trkpt>
      <trkpt lat="43.72825" lon="6.95655">
        <ele>776.4</ele>
        <time>2015-11-07T10:31:56Z</time>
      </trkpt>
      <trkpt lat="43.72817" lon="6.9564">
        <ele>776.4</ele>
        <time>2015-11-07T10:32:02Z</time>
      </trkpt>
      <trkpt lat="43.72815" lon="6.95637">
        <ele>776</ele>
        <time>2015-11-07T10:32:03Z</time>
      </trkpt>
      <trkpt lat="43.72813" lon="6.95635">
        <ele>775.4</ele>
        <time>2015-11-07T10:32:04Z</time>
      </trkpt>
      <trkpt lat="43.72812" lon="6.95632">
        <ele>775</ele>
        <time>2015-11-07T10:32:05Z</time>
      </trkpt>
      <trkpt lat="43.72811" lon="6.9563">
        <ele>774.4</ele>
        <time>2015-11-07T10:32:06Z</time>
      </trkpt>
      <trkpt lat="43.72811" lon="6.95628">
        <ele>773.8</ele>
        <time>2015-11-07T10:32:07Z</time>
      </trkpt>
      <trkpt lat="43.7281" lon="6.95626">
        <ele>773.2</ele>
        <time>2015-11-07T10:32:08Z</time>
      </trkpt>
      <trkpt lat="43.7281" lon="6.95624">
        <ele>772.4</ele>
        <time>2015-11-07T10:32:09Z</time>
      </trkpt>
      <trkpt lat="43.72809" lon="6.95623">
        <ele>771.8</ele>
        <time>2015-11-07T10:32:10Z</time>
      </trkpt>
      <trkpt lat="43.72808" lon="6.95622">
        <ele>771</ele>
        <time>2015-11-07T10:32:11Z</time>
      </trkpt>
      <trkpt lat="43.72806" lon="6.95625">
        <ele>770.4</ele>
        <time>2015-11-07T10:32:12Z</time>
      </trkpt>
      <trkpt lat="43.72805" lon="6.95627">
        <ele>769.6</ele>
        <time>2015-11-07T10:32:13Z</time>
      </trkpt>
      <trkpt lat="43.72804" lon="6.95629">
        <ele>769.2</ele>
        <time>2015-11-07T10:32:14Z</time>
      </trkpt>
      <trkpt lat="43.72801" lon="6.95631">
        <ele>768.6</ele>
        <time>2015-11-07T10:32:15Z</time>
      </trkpt>
      <trkpt lat="43.72798" lon="6.95632">
        <ele>768</ele>
        <time>2015-11-07T10:32:16Z</time>
      </trkpt>
      <trkpt lat="43.72794" lon="6.95633">
        <ele>767.4</ele>
        <time>2015-11-07T10:32:17Z</time>
      </trkpt>
      <trkpt lat="43.7279" lon="6.95633">
        <ele>766.8</ele>
        <time>2015-11-07T10:32:18Z</time>
      </trkpt>
      <trkpt lat="43.72787" lon="6.95632">
        <ele>766.2</ele>
        <time>2015-11-07T10:32:19Z</time>
      </trkpt>
      <trkpt lat="43.72785" lon="6.95631">
        <ele>765.6</ele>
        <time>2015-11-07T10:32:20Z</time>
      </trkpt>
      <trkpt lat="43.72783" lon="6.9563">
        <ele>765</ele>
        <time>2015-11-07T10:32:21Z</time>
      </trkpt>
      <trkpt lat="43.72779" lon="6.95632">
        <ele>764.2</ele>
        <time>2015-11-07T10:32:22Z</time>
      </trkpt>
      <trkpt lat="43.72776" lon="6.95632">
        <ele>763.6</ele>
        <time>2015-11-07T10:32:23Z</time>
      </trkpt>
      <trkpt lat="43.72775" lon="6.95633">
        <ele>762.8</ele>
        <time>2015-11-07T10:32:24Z</time>
      </trkpt>
      <trkpt lat="43.72773" lon="6.95632">
        <ele>762</ele>
        <time>2015-11-07T10:32:25Z</time>
      </trkpt>
      <trkpt lat="43.72771" lon="6.95632">
        <ele>761</ele>
        <time>2015-11-07T10:32:26Z</time>
      </trkpt>
      <trkpt lat="43.72767" lon="6.95631">
        <ele>760.2</ele>
        <time>2015-11-07T10:32:27Z</time>
      </trkpt>
      <trkpt lat="43.72764" lon="6.9563">
        <ele>759.4</ele>
        <time>2015-11-07T10:32:28Z</time>
      </trkpt>
      <trkpt lat="43.72761" lon="6.95627">
        <ele>758.6</ele>
        <time>2015-11-07T10:32:29Z</time>
      </trkpt>
      <trkpt lat="43.72758" lon="6.95625">
        <ele>757.8</ele>
        <time>2015-11-07T10:32:30Z</time>
      </trkpt>
      <trkpt lat="43.72755" lon="6.95622">
        <ele>757</ele>
        <time>2015-11-07T10:32:31Z</time>
      </trkpt>
      <trkpt lat="43.72752" lon="6.95619">
        <ele>756.2</ele>
        <time>2015-11-07T10:32:32Z</time>
      </trkpt>
      <trkpt lat="43.72749" lon="6.95617">
        <ele>755.4</ele>
        <time>2015-11-07T10:32:33Z</time>
      </trkpt>
      <trkpt lat="43.72747" lon="6.95621">
        <ele>755</ele>
        <time>2015-11-07T10:32:36Z</time>
      </trkpt>
      <trkpt lat="43.72747" lon="6.95625">
        <ele>754.4</ele>
        <time>2015-11-07T10:32:37Z</time>
      </trkpt>
      <trkpt lat="43.72747" lon="6.95628">
        <ele>753.6</ele>
        <time>2015-11-07T10:32:38Z</time>
      </trkpt>
      <trkpt lat="43.72745" lon="6.95632">
        <ele>752.8</ele>
        <time>2015-11-07T10:32:39Z</time>
      </trkpt>
      <trkpt lat="43.72743" lon="6.95634">
        <ele>752</ele>
        <time>2015-11-07T10:32:40Z</time>
      </trkpt>
      <trkpt lat="43.7274" lon="6.95637">
        <ele>751.2</ele>
        <time>2015-11-07T10:32:41Z</time>
      </trkpt>
      <trkpt lat="43.72736" lon="6.95637">
        <ele>750.4</ele>
        <time>2015-11-07T10:32:42Z</time>
      </trkpt>
      <trkpt lat="43.72732" lon="6.95637">
        <ele>749.6</ele>
        <time>2015-11-07T10:32:43Z</time>
      </trkpt>
      <trkpt lat="43.72728" lon="6.95635">
        <ele>748.8</ele>
        <time>2015-11-07T10:32:44Z</time>
      </trkpt>
      <trkpt lat="43.72726" lon="6.95634">
        <ele>748.2</ele>
        <time>2015-11-07T10:32:45Z</time>
      </trkpt>
      <trkpt lat="43.72723" lon="6.95635">
        <ele>747.6</ele>
        <time>2015-11-07T10:32:46Z</time>
      </trkpt>
      <trkpt lat="43.7272" lon="6.95636">
        <ele>747.2</ele>
        <time>2015-11-07T10:32:47Z</time>
      </trkpt>
      <trkpt lat="43.72717" lon="6.95636">
        <ele>746.4</ele>
        <time>2015-11-07T10:32:48Z</time>
      </trkpt>
      <trkpt lat="43.72715" lon="6.95637">
        <ele>745.6</ele>
        <time>2015-11-07T10:32:49Z</time>
      </trkpt>
      <trkpt lat="43.72713" lon="6.95639">
        <ele>744.8</ele>
        <time>2015-11-07T10:32:50Z</time>
      </trkpt>
      <trkpt lat="43.7271" lon="6.95641">
        <ele>743.8</ele>
        <time>2015-11-07T10:32:51Z</time>
      </trkpt>
      <trkpt lat="43.72707" lon="6.95642">
        <ele>743</ele>
        <time>2015-11-07T10:32:52Z</time>
      </trkpt>
      <trkpt lat="43.72705" lon="6.95644">
        <ele>742</ele>
        <time>2015-11-07T10:32:53Z</time>
      </trkpt>
      <trkpt lat="43.72702" lon="6.95647">
        <ele>741.2</ele>
        <time>2015-11-07T10:32:54Z</time>
      </trkpt>
      <trkpt lat="43.72702" lon="6.9565">
        <ele>740.2</ele>
        <time>2015-11-07T10:32:55Z</time>
      </trkpt>
      <trkpt lat="43.72701" lon="6.95654">
        <ele>739.2</ele>
        <time>2015-11-07T10:32:56Z</time>
      </trkpt>
      <trkpt lat="43.72699" lon="6.95658">
        <ele>738.4</ele>
        <time>2015-11-07T10:32:57Z</time>
      </trkpt>
      <trkpt lat="43.72695" lon="6.95663">
        <ele>737.6</ele>
        <time>2015-11-07T10:32:58Z</time>
      </trkpt>
      <trkpt lat="43.72692" lon="6.95668">
        <ele>736.8</ele>
        <time>2015-11-07T10:32:59Z</time>
      </trkpt>
      <trkpt lat="43.72689" lon="6.95673">
        <ele>736</ele>
        <time>2015-11-07T10:33:00Z</time>
      </trkpt>
      <trkpt lat="43.72686" lon="6.95679">
        <ele>735.2</ele>
        <time>2015-11-07T10:33:01Z</time>
      </trkpt>
      <trkpt lat="43.72683" lon="6.95685">
        <ele>734.4</ele>
        <time>2015-11-07T10:33:02Z</time>
      </trkpt>
      <trkpt lat="43.7268" lon="6.9569">
        <ele>733.8</ele>
        <time>2015-11-07T10:33:03Z</time>
      </trkpt>
      <trkpt lat="43.72679" lon="6.95696">
        <ele>733.2</ele>
        <time>2015-11-07T10:33:04Z</time>
      </trkpt>
      <trkpt lat="43.72679" lon="6.957">
        <ele>732.6</ele>
        <time>2015-11-07T10:33:05Z</time>
      </trkpt>
      <trkpt lat="43.72679" lon="6.95703">
        <ele>731.8</ele>
        <time>2015-11-07T10:33:06Z</time>
      </trkpt>
      <trkpt lat="43.72681" lon="6.95716">
        <ele>731.4</ele>
        <time>2015-11-07T10:33:08Z</time>
      </trkpt>
      <trkpt lat="43.72682" lon="6.95723">
        <ele>730.8</ele>
        <time>2015-11-07T10:33:09Z</time>
      </trkpt>
      <trkpt lat="43.72682" lon="6.9573">
        <ele>730.2</ele>
        <time>2015-11-07T10:33:10Z</time>
      </trkpt>
      <trkpt lat="43.72682" lon="6.95735">
        <ele>729.6</ele>
        <time>2015-11-07T10:33:11Z</time>
      </trkpt>
      <trkpt lat="43.72681" lon="6.95737">
        <ele>729.2</ele>
        <time>2015-11-07T10:33:12Z</time>
      </trkpt>
      <trkpt lat="43.7268" lon="6.95741">
        <ele>729.2</ele>
        <time>2015-11-07T10:33:13Z</time>
      </trkpt>
      <trkpt lat="43.72678" lon="6.95746">
        <ele>728.6</ele>
        <time>2015-11-07T10:33:14Z</time>
      </trkpt>
      <trkpt lat="43.72676" lon="6.9575">
        <ele>728.2</ele>
        <time>2015-11-07T10:33:15Z</time>
      </trkpt>
      <trkpt lat="43.72674" lon="6.95752">
        <ele>727.6</ele>
        <time>2015-11-07T10:33:16Z</time>
      </trkpt>
      <trkpt lat="43.72667" lon="6.95756">
        <ele>727</ele>
        <time>2015-11-07T10:33:18Z</time>
      </trkpt>
      <trkpt lat="43.72664" lon="6.95756">
        <ele>726.2</ele>
        <time>2015-11-07T10:33:19Z</time>
      </trkpt>
      <trkpt lat="43.72662" lon="6.95757">
        <ele>724.8</ele>
        <time>2015-11-07T10:33:20Z</time>
      </trkpt>
      <trkpt lat="43.7266" lon="6.95759">
        <ele>724.2</ele>
        <time>2015-11-07T10:33:21Z</time>
      </trkpt>
      <trkpt lat="43.72657" lon="6.95761">
        <ele>723.6</ele>
        <time>2015-11-07T10:33:22Z</time>
      </trkpt>
      <trkpt lat="43.7265" lon="6.95762">
        <ele>722.6</ele>
        <time>2015-11-07T10:33:24Z</time>
      </trkpt>
      <trkpt lat="43.72647" lon="6.95761">
        <ele>722</ele>
        <time>2015-11-07T10:33:25Z</time>
      </trkpt>
      <trkpt lat="43.72644" lon="6.95759">
        <ele>722</ele>
        <time>2015-11-07T10:33:26Z</time>
      </trkpt>
      <trkpt lat="43.72644" lon="6.95758">
        <ele>721.6</ele>
        <time>2015-11-07T10:33:27Z</time>
      </trkpt>
      <trkpt lat="43.72644" lon="6.95756">
        <ele>721.6</ele>
        <time>2015-11-07T10:33:29Z</time>
      </trkpt>
      <trkpt lat="43.72644" lon="6.95756">
        <ele>721.2</ele>
        <time>2015-11-07T10:34:10Z</time>
      </trkpt>
      <trkpt lat="43.72644" lon="6.95756">
        <ele>720.8</ele>
        <time>2015-11-07T10:34:11Z</time>
      </trkpt>
      <trkpt lat="43.72644" lon="6.95756">
        <ele>720.4</ele>
        <time>2015-11-07T10:34:12Z</time>
      </trkpt>
      <trkpt lat="43.72644" lon="6.95756">
        <ele>720</ele>
        <time>2015-11-07T10:34:13Z</time>
      </trkpt>
      <trkpt lat="43.72644" lon="6.95756">
        <ele>719.6</ele>
        <time>2015-11-07T10:34:14Z</time>
      </trkpt>
      <trkpt lat="43.72639" lon="6.95751">
        <ele>719.6</ele>
        <time>2015-11-07T10:36:31Z</time>
      </trkpt>
      <trkpt lat="43.72626" lon="6.95734">
        <ele>719.6</ele>
        <time>2015-11-07T10:36:35Z</time>
      </trkpt>
      <trkpt lat="43.72622" lon="6.95728">
        <ele>719.6</ele>
        <time>2015-11-07T10:36:39Z</time>
      </trkpt>
      <trkpt lat="43.7262" lon="6.95724">
        <ele>719.6</ele>
        <time>2015-11-07T10:36:41Z</time>
      </trkpt>
      <trkpt lat="43.72618" lon="6.95719">
        <ele>719.6</ele>
        <time>2015-11-07T10:36:43Z</time>
      </trkpt>
      <trkpt lat="43.72613" lon="6.95718">
        <ele>720</ele>
        <time>2015-11-07T10:36:48Z</time>
      </trkpt>
      <trkpt lat="43.72612" lon="6.95717">
        <ele>720.4</ele>
        <time>2015-11-07T10:36:49Z</time>
      </trkpt>
      <trkpt lat="43.72611" lon="6.95717">
        <ele>720.8</ele>
        <time>2015-11-07T10:36:50Z</time>
      </trkpt>
      <trkpt lat="43.7261" lon="6.95718">
        <ele>721.2</ele>
        <time>2015-11-07T10:36:51Z</time>
      </trkpt>
      <trkpt lat="43.7261" lon="6.95718">
        <ele>721.6</ele>
        <time>2015-11-07T10:36:52Z</time>
      </trkpt>
      <trkpt lat="43.72608" lon="6.95717">
        <ele>721.6</ele>
        <time>2015-11-07T10:37:02Z</time>
      </trkpt>
      <trkpt lat="43.72608" lon="6.95729">
        <ele>721.6</ele>
        <time>2015-11-07T10:37:12Z</time>
      </trkpt>
      <trkpt lat="43.72606" lon="6.95745">
        <ele>721.6</ele>
        <time>2015-11-07T10:37:20Z</time>
      </trkpt>
      <trkpt lat="43.72602" lon="6.95777">
        <ele>721.6</ele>
        <time>2015-11-07T10:37:27Z</time>
      </trkpt>
      <trkpt lat="43.72594" lon="6.95795">
        <ele>721.6</ele>
        <time>2015-11-07T10:37:32Z</time>
      </trkpt>
      <trkpt lat="43.72593" lon="6.95802">
        <ele>721.2</ele>
        <time>2015-11-07T10:37:34Z</time>
      </trkpt>
      <trkpt lat="43.72594" lon="6.95805">
        <ele>720.8</ele>
        <time>2015-11-07T10:37:35Z</time>
      </trkpt>
      <trkpt lat="43.72595" lon="6.9581">
        <ele>720.4</ele>
        <time>2015-11-07T10:37:36Z</time>
      </trkpt>
      <trkpt lat="43.72596" lon="6.95815">
        <ele>719.8</ele>
        <time>2015-11-07T10:37:37Z</time>
      </trkpt>
      <trkpt lat="43.72597" lon="6.95817">
        <ele>719.4</ele>
        <time>2015-11-07T10:37:38Z</time>
      </trkpt>
      <trkpt lat="43.72597" lon="6.95819">
        <ele>718.8</ele>
        <time>2015-11-07T10:37:39Z</time>
      </trkpt>
      <trkpt lat="43.72597" lon="6.95822">
        <ele>718.4</ele>
        <time>2015-11-07T10:37:40Z</time>
      </trkpt>
      <trkpt lat="43.72595" lon="6.95825">
        <ele>717.6</ele>
        <time>2015-11-07T10:37:41Z</time>
      </trkpt>
      <trkpt lat="43.72593" lon="6.95829">
        <ele>717</ele>
        <time>2015-11-07T10:37:42Z</time>
      </trkpt>
      <trkpt lat="43.72591" lon="6.95832">
        <ele>716.4</ele>
        <time>2015-11-07T10:37:43Z</time>
      </trkpt>
      <trkpt lat="43.72589" lon="6.95835">
        <ele>715.6</ele>
        <time>2015-11-07T10:37:44Z</time>
      </trkpt>
      <trkpt lat="43.72586" lon="6.95836">
        <ele>715</ele>
        <time>2015-11-07T10:37:45Z</time>
      </trkpt>
      <trkpt lat="43.72584" lon="6.9584">
        <ele>714.2</ele>
        <time>2015-11-07T10:37:46Z</time>
      </trkpt>
      <trkpt lat="43.72581" lon="6.95843">
        <ele>713.2</ele>
        <time>2015-11-07T10:37:47Z</time>
      </trkpt>
      <trkpt lat="43.72578" lon="6.95845">
        <ele>712.4</ele>
        <time>2015-11-07T10:37:48Z</time>
      </trkpt>
      <trkpt lat="43.72574" lon="6.95848">
        <ele>711.4</ele>
        <time>2015-11-07T10:37:49Z</time>
      </trkpt>
      <trkpt lat="43.72569" lon="6.9585">
        <ele>710.6</ele>
        <time>2015-11-07T10:37:50Z</time>
      </trkpt>
      <trkpt lat="43.72565" lon="6.95851">
        <ele>710</ele>
        <time>2015-11-07T10:37:51Z</time>
      </trkpt>
      <trkpt lat="43.72561" lon="6.95851">
        <ele>709.4</ele>
        <time>2015-11-07T10:37:52Z</time>
      </trkpt>
      <trkpt lat="43.72558" lon="6.95853">
        <ele>708.8</ele>
        <time>2015-11-07T10:37:53Z</time>
      </trkpt>
      <trkpt lat="43.72558" lon="6.95854">
        <ele>708</ele>
        <time>2015-11-07T10:37:54Z</time>
      </trkpt>
      <trkpt lat="43.72555" lon="6.95857">
        <ele>707.4</ele>
        <time>2015-11-07T10:37:55Z</time>
      </trkpt>
      <trkpt lat="43.72554" lon="6.95858">
        <ele>707</ele>
        <time>2015-11-07T10:37:56Z</time>
      </trkpt>
      <trkpt lat="43.72551" lon="6.9586">
        <ele>706.6</ele>
        <time>2015-11-07T10:37:57Z</time>
      </trkpt>
      <trkpt lat="43.72548" lon="6.9586">
        <ele>706</ele>
        <time>2015-11-07T10:37:58Z</time>
      </trkpt>
      <trkpt lat="43.72545" lon="6.95862">
        <ele>705.6</ele>
        <time>2015-11-07T10:37:59Z</time>
      </trkpt>
      <trkpt lat="43.72544" lon="6.95866">
        <ele>705</ele>
        <time>2015-11-07T10:38:00Z</time>
      </trkpt>
      <trkpt lat="43.72544" lon="6.9587">
        <ele>705</ele>
        <time>2015-11-07T10:38:01Z</time>
      </trkpt>
      <trkpt lat="43.72549" lon="6.95875">
        <ele>705</ele>
        <time>2015-11-07T10:38:03Z</time>
      </trkpt>
      <trkpt lat="43.72551" lon="6.95878">
        <ele>704.6</ele>
        <time>2015-11-07T10:38:04Z</time>
      </trkpt>
      <trkpt lat="43.72552" lon="6.95881">
        <ele>704.2</ele>
        <time>2015-11-07T10:38:05Z</time>
      </trkpt>
      <trkpt lat="43.72553" lon="6.95885">
        <ele>703.8</ele>
        <time>2015-11-07T10:38:06Z</time>
      </trkpt>
      <trkpt lat="43.72553" lon="6.95888">
        <ele>703.4</ele>
        <time>2015-11-07T10:38:07Z</time>
      </trkpt>
      <trkpt lat="43.72551" lon="6.95891">
        <ele>703</ele>
        <time>2015-11-07T10:38:08Z</time>
      </trkpt>
      <trkpt lat="43.72549" lon="6.959">
        <ele>703</ele>
        <time>2015-11-07T10:38:10Z</time>
      </trkpt>
      <trkpt lat="43.72559" lon="6.95919">
        <ele>703</ele>
        <time>2015-11-07T10:38:16Z</time>
      </trkpt>
      <trkpt lat="43.72558" lon="6.95921">
        <ele>702.6</ele>
        <time>2015-11-07T10:38:17Z</time>
      </trkpt>
      <trkpt lat="43.72557" lon="6.95924">
        <ele>702.2</ele>
        <time>2015-11-07T10:38:18Z</time>
      </trkpt>
      <trkpt lat="43.72555" lon="6.95926">
        <ele>701.6</ele>
        <time>2015-11-07T10:38:19Z</time>
      </trkpt>
      <trkpt lat="43.72552" lon="6.9593">
        <ele>701.2</ele>
        <time>2015-11-07T10:38:20Z</time>
      </trkpt>
      <trkpt lat="43.7255" lon="6.95933">
        <ele>700.8</ele>
        <time>2015-11-07T10:38:21Z</time>
      </trkpt>
      <trkpt lat="43.72546" lon="6.95941">
        <ele>700.4</ele>
        <time>2015-11-07T10:38:24Z</time>
      </trkpt>
      <trkpt lat="43.72545" lon="6.95943">
        <ele>700</ele>
        <time>2015-11-07T10:38:25Z</time>
      </trkpt>
      <trkpt lat="43.72545" lon="6.95943">
        <ele>699.6</ele>
        <time>2015-11-07T10:38:26Z</time>
      </trkpt>
      <trkpt lat="43.72545" lon="6.95943">
        <ele>699.2</ele>
        <time>2015-11-07T10:38:27Z</time>
      </trkpt>
      <trkpt lat="43.72545" lon="6.95943">
        <ele>698.8</ele>
        <time>2015-11-07T10:38:28Z</time>
      </trkpt>
      <trkpt lat="43.72543" lon="6.95945">
        <ele>698.4</ele>
        <time>2015-11-07T10:38:52Z</time>
      </trkpt>
      <trkpt lat="43.72541" lon="6.95948">
        <ele>698</ele>
        <time>2015-11-07T10:38:53Z</time>
      </trkpt>
      <trkpt lat="43.72538" lon="6.95952">
        <ele>697.4</ele>
        <time>2015-11-07T10:38:54Z</time>
      </trkpt>
      <trkpt lat="43.72534" lon="6.95956">
        <ele>697</ele>
        <time>2015-11-07T10:38:55Z</time>
      </trkpt>
      <trkpt lat="43.7253" lon="6.9596">
        <ele>696.6</ele>
        <time>2015-11-07T10:38:56Z</time>
      </trkpt>
      <trkpt lat="43.72516" lon="6.95971">
        <ele>696.6</ele>
        <time>2015-11-07T10:38:59Z</time>
      </trkpt>
      <trkpt lat="43.72506" lon="6.9598">
        <ele>696.2</ele>
        <time>2015-11-07T10:39:02Z</time>
      </trkpt>
      <trkpt lat="43.72504" lon="6.95983">
        <ele>695.8</ele>
        <time>2015-11-07T10:39:03Z</time>
      </trkpt>
      <trkpt lat="43.72502" lon="6.95987">
        <ele>695.2</ele>
        <time>2015-11-07T10:39:04Z</time>
      </trkpt>
      <trkpt lat="43.72499" lon="6.9599">
        <ele>694.8</ele>
        <time>2015-11-07T10:39:05Z</time>
      </trkpt>
      <trkpt lat="43.72497" lon="6.95995">
        <ele>694.2</ele>
        <time>2015-11-07T10:39:06Z</time>
      </trkpt>
      <trkpt lat="43.72489" lon="6.96023">
        <ele>694.2</ele>
        <time>2015-11-07T10:39:12Z</time>
      </trkpt>
      <trkpt lat="43.72485" lon="6.96051">
        <ele>693.8</ele>
        <time>2015-11-07T10:39:18Z</time>
      </trkpt>
      <trkpt lat="43.72484" lon="6.96055">
        <ele>693.4</ele>
        <time>2015-11-07T10:39:19Z</time>
      </trkpt>
      <trkpt lat="43.72483" lon="6.9606">
        <ele>693</ele>
        <time>2015-11-07T10:39:20Z</time>
      </trkpt>
      <trkpt lat="43.72483" lon="6.96064">
        <ele>692.6</ele>
        <time>2015-11-07T10:39:21Z</time>
      </trkpt>
      <trkpt lat="43.72483" lon="6.96069">
        <ele>692.2</ele>
        <time>2015-11-07T10:39:22Z</time>
      </trkpt>
      <trkpt lat="43.72478" lon="6.96079">
        <ele>692.2</ele>
        <time>2015-11-07T10:39:26Z</time>
      </trkpt>
      <trkpt lat="43.72473" lon="6.96082">
        <ele>691.8</ele>
        <time>2015-11-07T10:39:28Z</time>
      </trkpt>
      <trkpt lat="43.72471" lon="6.96084">
        <ele>691.4</ele>
        <time>2015-11-07T10:39:29Z</time>
      </trkpt>
      <trkpt lat="43.72469" lon="6.96088">
        <ele>691</ele>
        <time>2015-11-07T10:39:30Z</time>
      </trkpt>
      <trkpt lat="43.72468" lon="6.96094">
        <ele>690.4</ele>
        <time>2015-11-07T10:39:31Z</time>
      </trkpt>
      <trkpt lat="43.72467" lon="6.96099">
        <ele>689.8</ele>
        <time>2015-11-07T10:39:32Z</time>
      </trkpt>
      <trkpt lat="43.72465" lon="6.96106">
        <ele>689.2</ele>
        <time>2015-11-07T10:39:33Z</time>
      </trkpt>
      <trkpt lat="43.72463" lon="6.96111">
        <ele>688.4</ele>
        <time>2015-11-07T10:39:34Z</time>
      </trkpt>
      <trkpt lat="43.72461" lon="6.96116">
        <ele>687.8</ele>
        <time>2015-11-07T10:39:35Z</time>
      </trkpt>
      <trkpt lat="43.72459" lon="6.96119">
        <ele>687</ele>
        <time>2015-11-07T10:39:36Z</time>
      </trkpt>
      <trkpt lat="43.72457" lon="6.96123">
        <ele>686.4</ele>
        <time>2015-11-07T10:39:37Z</time>
      </trkpt>
      <trkpt lat="43.72455" lon="6.96127">
        <ele>685.6</ele>
        <time>2015-11-07T10:39:38Z</time>
      </trkpt>
      <trkpt lat="43.72452" lon="6.96134">
        <ele>685.2</ele>
        <time>2015-11-07T10:39:40Z</time>
      </trkpt>
      <trkpt lat="43.7245" lon="6.96138">
        <ele>684.8</ele>
        <time>2015-11-07T10:39:41Z</time>
      </trkpt>
      <trkpt lat="43.7245" lon="6.96141">
        <ele>684.4</ele>
        <time>2015-11-07T10:39:42Z</time>
      </trkpt>
      <trkpt lat="43.72448" lon="6.96143">
        <ele>683.8</ele>
        <time>2015-11-07T10:39:43Z</time>
      </trkpt>
      <trkpt lat="43.72446" lon="6.96145">
        <ele>683.4</ele>
        <time>2015-11-07T10:39:44Z</time>
      </trkpt>
      <trkpt lat="43.72441" lon="6.96162">
        <ele>683.4</ele>
        <time>2015-11-07T10:39:49Z</time>
      </trkpt>
      <trkpt lat="43.7244" lon="6.96167">
        <ele>683</ele>
        <time>2015-11-07T10:39:50Z</time>
      </trkpt>
      <trkpt lat="43.72439" lon="6.9617">
        <ele>682.4</ele>
        <time>2015-11-07T10:39:51Z</time>
      </trkpt>
      <trkpt lat="43.72437" lon="6.96171">
        <ele>682</ele>
        <time>2015-11-07T10:39:52Z</time>
      </trkpt>
      <trkpt lat="43.72434" lon="6.96173">
        <ele>681.6</ele>
        <time>2015-11-07T10:39:53Z</time>
      </trkpt>
      <trkpt lat="43.7243" lon="6.96175">
        <ele>680.8</ele>
        <time>2015-11-07T10:39:54Z</time>
      </trkpt>
      <trkpt lat="43.72426" lon="6.96176">
        <ele>680</ele>
        <time>2015-11-07T10:39:55Z</time>
      </trkpt>
      <trkpt lat="43.7242" lon="6.96177">
        <ele>679.2</ele>
        <time>2015-11-07T10:39:56Z</time>
      </trkpt>
      <trkpt lat="43.72414" lon="6.96175">
        <ele>678.6</ele>
        <time>2015-11-07T10:39:57Z</time>
      </trkpt>
      <trkpt lat="43.72409" lon="6.96173">
        <ele>677.8</ele>
        <time>2015-11-07T10:39:58Z</time>
      </trkpt>
      <trkpt lat="43.72403" lon="6.96171">
        <ele>677.2</ele>
        <time>2015-11-07T10:39:59Z</time>
      </trkpt>
      <trkpt lat="43.72398" lon="6.96168">
        <ele>676.6</ele>
        <time>2015-11-07T10:40:00Z</time>
      </trkpt>
      <trkpt lat="43.72394" lon="6.96166">
        <ele>675.8</ele>
        <time>2015-11-07T10:40:01Z</time>
      </trkpt>
      <trkpt lat="43.7239" lon="6.96161">
        <ele>675.2</ele>
        <time>2015-11-07T10:40:02Z</time>
      </trkpt>
      <trkpt lat="43.72387" lon="6.96159">
        <ele>675.2</ele>
        <time>2015-11-07T10:40:03Z</time>
      </trkpt>
      <trkpt lat="43.72368" lon="6.96148">
        <ele>675.2</ele>
        <time>2015-11-07T10:40:09Z</time>
      </trkpt>
      <trkpt lat="43.72354" lon="6.96163">
        <ele>675.2</ele>
        <time>2015-11-07T10:40:16Z</time>
      </trkpt>
      <trkpt lat="43.72349" lon="6.96191">
        <ele>675.2</ele>
        <time>2015-11-07T10:40:21Z</time>
      </trkpt>
      <trkpt lat="43.72351" lon="6.96197">
        <ele>674.8</ele>
        <time>2015-11-07T10:40:22Z</time>
      </trkpt>
      <trkpt lat="43.72351" lon="6.96201">
        <ele>674.4</ele>
        <time>2015-11-07T10:40:23Z</time>
      </trkpt>
      <trkpt lat="43.72352" lon="6.96206">
        <ele>674</ele>
        <time>2015-11-07T10:40:24Z</time>
      </trkpt>
      <trkpt lat="43.72352" lon="6.9621">
        <ele>673.6</ele>
        <time>2015-11-07T10:40:25Z</time>
      </trkpt>
      <trkpt lat="43.72352" lon="6.96215">
        <ele>673.2</ele>
        <time>2015-11-07T10:40:26Z</time>
      </trkpt>
      <trkpt lat="43.72355" lon="6.96233">
        <ele>673.2</ele>
        <time>2015-11-07T10:40:30Z</time>
      </trkpt>
      <trkpt lat="43.72358" lon="6.96256">
        <ele>672.8</ele>
        <time>2015-11-07T10:40:34Z</time>
      </trkpt>
      <trkpt lat="43.72357" lon="6.9626">
        <ele>672.4</ele>
        <time>2015-11-07T10:40:35Z</time>
      </trkpt>
      <trkpt lat="43.72355" lon="6.96266">
        <ele>672</ele>
        <time>2015-11-07T10:40:36Z</time>
      </trkpt>
      <trkpt lat="43.72354" lon="6.96271">
        <ele>671.2</ele>
        <time>2015-11-07T10:40:37Z</time>
      </trkpt>
      <trkpt lat="43.72353" lon="6.96277">
        <ele>670.4</ele>
        <time>2015-11-07T10:40:38Z</time>
      </trkpt>
      <trkpt lat="43.72353" lon="6.96281">
        <ele>669.8</ele>
        <time>2015-11-07T10:40:39Z</time>
      </trkpt>
      <trkpt lat="43.72352" lon="6.96285">
        <ele>669</ele>
        <time>2015-11-07T10:40:40Z</time>
      </trkpt>
      <trkpt lat="43.72352" lon="6.9629">
        <ele>668.4</ele>
        <time>2015-11-07T10:40:41Z</time>
      </trkpt>
      <trkpt lat="43.72351" lon="6.96295">
        <ele>668</ele>
        <time>2015-11-07T10:40:42Z</time>
      </trkpt>
      <trkpt lat="43.7235" lon="6.96299">
        <ele>667.6</ele>
        <time>2015-11-07T10:40:43Z</time>
      </trkpt>
      <trkpt lat="43.72347" lon="6.96304">
        <ele>667.2</ele>
        <time>2015-11-07T10:40:44Z</time>
      </trkpt>
      <trkpt lat="43.72345" lon="6.96308">
        <ele>666.6</ele>
        <time>2015-11-07T10:40:45Z</time>
      </trkpt>
      <trkpt lat="43.72342" lon="6.96312">
        <ele>666.2</ele>
        <time>2015-11-07T10:40:46Z</time>
      </trkpt>
      <trkpt lat="43.72339" lon="6.96314">
        <ele>665.6</ele>
        <time>2015-11-07T10:40:47Z</time>
      </trkpt>
      <trkpt lat="43.72335" lon="6.96315">
        <ele>665</ele>
        <time>2015-11-07T10:40:48Z</time>
      </trkpt>
      <trkpt lat="43.72331" lon="6.96315">
        <ele>664.4</ele>
        <time>2015-11-07T10:40:49Z</time>
      </trkpt>
      <trkpt lat="43.72327" lon="6.96315">
        <ele>663.8</ele>
        <time>2015-11-07T10:40:50Z</time>
      </trkpt>
      <trkpt lat="43.72323" lon="6.96316">
        <ele>663.2</ele>
        <time>2015-11-07T10:40:51Z</time>
      </trkpt>
      <trkpt lat="43.7232" lon="6.9632">
        <ele>662.8</ele>
        <time>2015-11-07T10:40:52Z</time>
      </trkpt>
      <trkpt lat="43.72318" lon="6.96324">
        <ele>662</ele>
        <time>2015-11-07T10:40:53Z</time>
      </trkpt>
      <trkpt lat="43.72317" lon="6.96329">
        <ele>661.4</ele>
        <time>2015-11-07T10:40:54Z</time>
      </trkpt>
      <trkpt lat="43.72317" lon="6.96334">
        <ele>660.6</ele>
        <time>2015-11-07T10:40:55Z</time>
      </trkpt>
      <trkpt lat="43.72319" lon="6.96337">
        <ele>660</ele>
        <time>2015-11-07T10:40:56Z</time>
      </trkpt>
      <trkpt lat="43.7232" lon="6.96339">
        <ele>659.2</ele>
        <time>2015-11-07T10:40:57Z</time>
      </trkpt>
      <trkpt lat="43.72321" lon="6.9634">
        <ele>659.2</ele>
        <time>2015-11-07T10:40:59Z</time>
      </trkpt>
      <trkpt lat="43.72323" lon="6.96348">
        <ele>658.8</ele>
        <time>2015-11-07T10:41:01Z</time>
      </trkpt>
      <trkpt lat="43.72326" lon="6.96351">
        <ele>658.4</ele>
        <time>2015-11-07T10:41:02Z</time>
      </trkpt>
      <trkpt lat="43.72328" lon="6.96354">
        <ele>658</ele>
        <time>2015-11-07T10:41:03Z</time>
      </trkpt>
      <trkpt lat="43.72331" lon="6.96356">
        <ele>657.4</ele>
        <time>2015-11-07T10:41:04Z</time>
      </trkpt>
      <trkpt lat="43.72334" lon="6.96358">
        <ele>657</ele>
        <time>2015-11-07T10:41:05Z</time>
      </trkpt>
      <trkpt lat="43.72339" lon="6.96361">
        <ele>656.6</ele>
        <time>2015-11-07T10:41:07Z</time>
      </trkpt>
      <trkpt lat="43.72342" lon="6.96363">
        <ele>656</ele>
        <time>2015-11-07T10:41:08Z</time>
      </trkpt>
      <trkpt lat="43.72343" lon="6.96367">
        <ele>655.4</ele>
        <time>2015-11-07T10:41:09Z</time>
      </trkpt>
      <trkpt lat="43.72344" lon="6.9637">
        <ele>654.6</ele>
        <time>2015-11-07T10:41:10Z</time>
      </trkpt>
      <trkpt lat="43.72344" lon="6.96374">
        <ele>653.8</ele>
        <time>2015-11-07T10:41:11Z</time>
      </trkpt>
      <trkpt lat="43.72343" lon="6.96378">
        <ele>653</ele>
        <time>2015-11-07T10:41:12Z</time>
      </trkpt>
      <trkpt lat="43.72342" lon="6.96383">
        <ele>652.2</ele>
        <time>2015-11-07T10:41:13Z</time>
      </trkpt>
      <trkpt lat="43.72339" lon="6.96389">
        <ele>651.4</ele>
        <time>2015-11-07T10:41:14Z</time>
      </trkpt>
      <trkpt lat="43.72336" lon="6.96393">
        <ele>650.6</ele>
        <time>2015-11-07T10:41:15Z</time>
      </trkpt>
      <trkpt lat="43.72332" lon="6.96397">
        <ele>649.6</ele>
        <time>2015-11-07T10:41:16Z</time>
      </trkpt>
      <trkpt lat="43.72328" lon="6.964">
        <ele>648.8</ele>
        <time>2015-11-07T10:41:17Z</time>
      </trkpt>
      <trkpt lat="43.72322" lon="6.96403">
        <ele>647.8</ele>
        <time>2015-11-07T10:41:18Z</time>
      </trkpt>
      <trkpt lat="43.72317" lon="6.96404">
        <ele>647</ele>
        <time>2015-11-07T10:41:19Z</time>
      </trkpt>
      <trkpt lat="43.72312" lon="6.96405">
        <ele>646</ele>
        <time>2015-11-07T10:41:20Z</time>
      </trkpt>
      <trkpt lat="43.723" lon="6.96407">
        <ele>645.6</ele>
        <time>2015-11-07T10:41:22Z</time>
      </trkpt>
      <trkpt lat="43.72294" lon="6.96409">
        <ele>645</ele>
        <time>2015-11-07T10:41:23Z</time>
      </trkpt>
      <trkpt lat="43.72286" lon="6.96409">
        <ele>644.6</ele>
        <time>2015-11-07T10:41:24Z</time>
      </trkpt>
      <trkpt lat="43.72279" lon="6.96412">
        <ele>644</ele>
        <time>2015-11-07T10:41:25Z</time>
      </trkpt>
      <trkpt lat="43.72273" lon="6.96416">
        <ele>643.4</ele>
        <time>2015-11-07T10:41:26Z</time>
      </trkpt>
      <trkpt lat="43.72267" lon="6.9642">
        <ele>642.8</ele>
        <time>2015-11-07T10:41:27Z</time>
      </trkpt>
      <trkpt lat="43.72261" lon="6.96424">
        <ele>642.2</ele>
        <time>2015-11-07T10:41:28Z</time>
      </trkpt>
      <trkpt lat="43.72254" lon="6.96427">
        <ele>641.6</ele>
        <time>2015-11-07T10:41:29Z</time>
      </trkpt>
      <trkpt lat="43.72247" lon="6.96432">
        <ele>641</ele>
        <time>2015-11-07T10:41:30Z</time>
      </trkpt>
      <trkpt lat="43.7224" lon="6.96435">
        <ele>640.4</ele>
        <time>2015-11-07T10:41:31Z</time>
      </trkpt>
      <trkpt lat="43.72234" lon="6.96438">
        <ele>639.8</ele>
        <time>2015-11-07T10:41:32Z</time>
      </trkpt>
      <trkpt lat="43.72228" lon="6.96442">
        <ele>639.4</ele>
        <time>2015-11-07T10:41:33Z</time>
      </trkpt>
      <trkpt lat="43.72222" lon="6.96446">
        <ele>639</ele>
        <time>2015-11-07T10:41:34Z</time>
      </trkpt>
      <trkpt lat="43.72217" lon="6.96451">
        <ele>638.4</ele>
        <time>2015-11-07T10:41:35Z</time>
      </trkpt>
      <trkpt lat="43.72213" lon="6.96455">
        <ele>638</ele>
        <time>2015-11-07T10:41:36Z</time>
      </trkpt>
      <trkpt lat="43.7221" lon="6.96459">
        <ele>637.6</ele>
        <time>2015-11-07T10:41:37Z</time>
      </trkpt>
      <trkpt lat="43.72208" lon="6.96463">
        <ele>637.2</ele>
        <time>2015-11-07T10:41:38Z</time>
      </trkpt>
      <trkpt lat="43.72207" lon="6.9647">
        <ele>637.2</ele>
        <time>2015-11-07T10:41:40Z</time>
      </trkpt>
      <trkpt lat="43.72209" lon="6.96479">
        <ele>637.2</ele>
        <time>2015-11-07T10:41:44Z</time>
      </trkpt>
      <trkpt lat="43.72202" lon="6.96498">
        <ele>637.2</ele>
        <time>2015-11-07T10:41:52Z</time>
      </trkpt>
      <trkpt lat="43.72194" lon="6.96494">
        <ele>637.2</ele>
        <time>2015-11-07T10:41:56Z</time>
      </trkpt>
      <trkpt lat="43.72193" lon="6.96494">
        <ele>637.2</ele>
        <time>2015-11-07T10:41:57Z</time>
      </trkpt>
      <trkpt lat="43.72194" lon="6.96496">
        <ele>637.2</ele>
        <time>2015-11-07T10:42:02Z</time>
      </trkpt>
      <trkpt lat="43.7219" lon="6.96499">
        <ele>637.2</ele>
        <time>2015-11-07T10:42:18Z</time>
      </trkpt>
      <trkpt lat="43.72188" lon="6.96501">
        <ele>637.2</ele>
        <time>2015-11-07T10:42:19Z</time>
      </trkpt>
      <trkpt lat="43.72172" lon="6.96512">
        <ele>637.2</ele>
        <time>2015-11-07T10:42:26Z</time>
      </trkpt>
      <trkpt lat="43.72146" lon="6.96531">
        <ele>637.2</ele>
        <time>2015-11-07T10:42:37Z</time>
      </trkpt>
      <trkpt lat="43.72144" lon="6.96532">
        <ele>637.6</ele>
        <time>2015-11-07T10:42:38Z</time>
      </trkpt>
      <trkpt lat="43.72143" lon="6.96534">
        <ele>638.2</ele>
        <time>2015-11-07T10:42:39Z</time>
      </trkpt>
      <trkpt lat="43.72141" lon="6.96535">
        <ele>638.6</ele>
        <time>2015-11-07T10:42:40Z</time>
      </trkpt>
      <trkpt lat="43.7214" lon="6.96537">
        <ele>639</ele>
        <time>2015-11-07T10:42:41Z</time>
      </trkpt>
      <trkpt lat="43.72138" lon="6.96538">
        <ele>639.4</ele>
        <time>2015-11-07T10:42:42Z</time>
      </trkpt>
      <trkpt lat="43.72133" lon="6.96542">
        <ele>639.4</ele>
        <time>2015-11-07T10:42:45Z</time>
      </trkpt>
      <trkpt lat="43.72119" lon="6.9655">
        <ele>639.4</ele>
        <time>2015-11-07T10:42:52Z</time>
      </trkpt>
      <trkpt lat="43.721" lon="6.96555">
        <ele>639.4</ele>
        <time>2015-11-07T10:42:59Z</time>
      </trkpt>
      <trkpt lat="43.7208" lon="6.96555">
        <ele>639.4</ele>
        <time>2015-11-07T10:43:07Z</time>
      </trkpt>
      <trkpt lat="43.72068" lon="6.96544">
        <ele>639.4</ele>
        <time>2015-11-07T10:43:11Z</time>
      </trkpt>
      <trkpt lat="43.72066" lon="6.96539">
        <ele>639</ele>
        <time>2015-11-07T10:43:12Z</time>
      </trkpt>
      <trkpt lat="43.72065" lon="6.96534">
        <ele>638.6</ele>
        <time>2015-11-07T10:43:13Z</time>
      </trkpt>
      <trkpt lat="43.72063" lon="6.96527">
        <ele>638</ele>
        <time>2015-11-07T10:43:14Z</time>
      </trkpt>
      <trkpt lat="43.72062" lon="6.9652">
        <ele>637.6</ele>
        <time>2015-11-07T10:43:15Z</time>
      </trkpt>
      <trkpt lat="43.72061" lon="6.96512">
        <ele>637</ele>
        <time>2015-11-07T10:43:16Z</time>
      </trkpt>
      <trkpt lat="43.72061" lon="6.96504">
        <ele>636.4</ele>
        <time>2015-11-07T10:43:17Z</time>
      </trkpt>
      <trkpt lat="43.7206" lon="6.96495">
        <ele>635.8</ele>
        <time>2015-11-07T10:43:18Z</time>
      </trkpt>
      <trkpt lat="43.7206" lon="6.96487">
        <ele>635.4</ele>
        <time>2015-11-07T10:43:19Z</time>
      </trkpt>
      <trkpt lat="43.72059" lon="6.96479">
        <ele>634.8</ele>
        <time>2015-11-07T10:43:20Z</time>
      </trkpt>
      <trkpt lat="43.72058" lon="6.9647">
        <ele>634.8</ele>
        <time>2015-11-07T10:43:21Z</time>
      </trkpt>
      <trkpt lat="43.72056" lon="6.96426">
        <ele>634.8</ele>
        <time>2015-11-07T10:43:27Z</time>
      </trkpt>
      <trkpt lat="43.72055" lon="6.9642">
        <ele>634.8</ele>
        <time>2015-11-07T10:43:28Z</time>
      </trkpt>
      <trkpt lat="43.72052" lon="6.96409">
        <ele>634.8</ele>
        <time>2015-11-07T10:43:30Z</time>
      </trkpt>
      <trkpt lat="43.72048" lon="6.96394">
        <ele>634.8</ele>
        <time>2015-11-07T10:43:33Z</time>
      </trkpt>
      <trkpt lat="43.72035" lon="6.96359">
        <ele>634.8</ele>
        <time>2015-11-07T10:43:40Z</time>
      </trkpt>
      <trkpt lat="43.72031" lon="6.96338">
        <ele>635.2</ele>
        <time>2015-11-07T10:43:45Z</time>
      </trkpt>
      <trkpt lat="43.72031" lon="6.96334">
        <ele>635.6</ele>
        <time>2015-11-07T10:43:46Z</time>
      </trkpt>
      <trkpt lat="43.72031" lon="6.9633">
        <ele>636</ele>
        <time>2015-11-07T10:43:47Z</time>
      </trkpt>
      <trkpt lat="43.72031" lon="6.96326">
        <ele>636.6</ele>
        <time>2015-11-07T10:43:48Z</time>
      </trkpt>
      <trkpt lat="43.72032" lon="6.96321">
        <ele>637</ele>
        <time>2015-11-07T10:43:49Z</time>
      </trkpt>
      <trkpt lat="43.72032" lon="6.96314">
        <ele>637.4</ele>
        <time>2015-11-07T10:43:51Z</time>
      </trkpt>
      <trkpt lat="43.72032" lon="6.9631">
        <ele>637.8</ele>
        <time>2015-11-07T10:43:52Z</time>
      </trkpt>
      <trkpt lat="43.72032" lon="6.96307">
        <ele>638.4</ele>
        <time>2015-11-07T10:43:53Z</time>
      </trkpt>
      <trkpt lat="43.72032" lon="6.96303">
        <ele>638.8</ele>
        <time>2015-11-07T10:43:54Z</time>
      </trkpt>
      <trkpt lat="43.72031" lon="6.963">
        <ele>639.4</ele>
        <time>2015-11-07T10:43:55Z</time>
      </trkpt>
      <trkpt lat="43.72026" lon="6.96293">
        <ele>639.4</ele>
        <time>2015-11-07T10:43:58Z</time>
      </trkpt>
      <trkpt lat="43.72022" lon="6.96283">
        <ele>639.8</ele>
        <time>2015-11-07T10:44:02Z</time>
      </trkpt>
      <trkpt lat="43.72021" lon="6.9628">
        <ele>640.2</ele>
        <time>2015-11-07T10:44:03Z</time>
      </trkpt>
      <trkpt lat="43.72021" lon="6.96277">
        <ele>640.6</ele>
        <time>2015-11-07T10:44:04Z</time>
      </trkpt>
      <trkpt lat="43.7202" lon="6.96274">
        <ele>641</ele>
        <time>2015-11-07T10:44:05Z</time>
      </trkpt>
      <trkpt lat="43.72019" lon="6.96272">
        <ele>641.4</ele>
        <time>2015-11-07T10:44:06Z</time>
      </trkpt>
      <trkpt lat="43.72015" lon="6.9626">
        <ele>641.8</ele>
        <time>2015-11-07T10:44:11Z</time>
      </trkpt>
      <trkpt lat="43.72015" lon="6.96257">
        <ele>642.2</ele>
        <time>2015-11-07T10:44:12Z</time>
      </trkpt>
      <trkpt lat="43.72014" lon="6.96254">
        <ele>642.6</ele>
        <time>2015-11-07T10:44:13Z</time>
      </trkpt>
      <trkpt lat="43.72014" lon="6.96251">
        <ele>643.2</ele>
        <time>2015-11-07T10:44:14Z</time>
      </trkpt>
      <trkpt lat="43.72014" lon="6.96248">
        <ele>643.6</ele>
        <time>2015-11-07T10:44:15Z</time>
      </trkpt>
      <trkpt lat="43.7201" lon="6.96227">
        <ele>643.6</ele>
        <time>2015-11-07T10:44:21Z</time>
      </trkpt>
      <trkpt lat="43.72005" lon="6.96204">
        <ele>643.6</ele>
        <time>2015-11-07T10:44:29Z</time>
      </trkpt>
      <trkpt lat="43.71993" lon="6.96198">
        <ele>643.6</ele>
        <time>2015-11-07T10:44:35Z</time>
      </trkpt>
      <trkpt lat="43.71986" lon="6.96196">
        <ele>643.6</ele>
        <time>2015-11-07T10:44:37Z</time>
      </trkpt>
      <trkpt lat="43.71978" lon="6.96193">
        <ele>643.6</ele>
        <time>2015-11-07T10:44:39Z</time>
      </trkpt>
      <trkpt lat="43.71962" lon="6.96178">
        <ele>643.2</ele>
        <time>2015-11-07T10:44:43Z</time>
      </trkpt>
      <trkpt lat="43.71957" lon="6.96177">
        <ele>642.6</ele>
        <time>2015-11-07T10:44:44Z</time>
      </trkpt>
      <trkpt lat="43.71953" lon="6.96175">
        <ele>642.2</ele>
        <time>2015-11-07T10:44:45Z</time>
      </trkpt>
      <trkpt lat="43.71948" lon="6.96175">
        <ele>641.8</ele>
        <time>2015-11-07T10:44:46Z</time>
      </trkpt>
      <trkpt lat="43.71944" lon="6.96175">
        <ele>641.4</ele>
        <time>2015-11-07T10:44:47Z</time>
      </trkpt>
      <trkpt lat="43.71936" lon="6.96177">
        <ele>641.4</ele>
        <time>2015-11-07T10:44:49Z</time>
      </trkpt>
      <trkpt lat="43.71932" lon="6.96178">
        <ele>641.4</ele>
        <time>2015-11-07T10:44:50Z</time>
      </trkpt>
      <trkpt lat="43.71916" lon="6.96178">
        <ele>641.4</ele>
        <time>2015-11-07T10:44:55Z</time>
      </trkpt>
      <trkpt lat="43.7189" lon="6.96184">
        <ele>641.4</ele>
        <time>2015-11-07T10:45:04Z</time>
      </trkpt>
      <trkpt lat="43.71876" lon="6.96188">
        <ele>641.4</ele>
        <time>2015-11-07T10:45:09Z</time>
      </trkpt>
      <trkpt lat="43.71862" lon="6.96195">
        <ele>641.4</ele>
        <time>2015-11-07T10:45:15Z</time>
      </trkpt>
      <trkpt lat="43.71851" lon="6.96207">
        <ele>641.4</ele>
        <time>2015-11-07T10:45:20Z</time>
      </trkpt>
      <trkpt lat="43.71842" lon="6.96226">
        <ele>641.4</ele>
        <time>2015-11-07T10:45:26Z</time>
      </trkpt>
      <trkpt lat="43.7184" lon="6.96229">
        <ele>641.8</ele>
        <time>2015-11-07T10:45:27Z</time>
      </trkpt>
      <trkpt lat="43.71839" lon="6.96232">
        <ele>642.2</ele>
        <time>2015-11-07T10:45:28Z</time>
      </trkpt>
      <trkpt lat="43.71836" lon="6.96235">
        <ele>642.6</ele>
        <time>2015-11-07T10:45:29Z</time>
      </trkpt>
      <trkpt lat="43.71834" lon="6.96238">
        <ele>643</ele>
        <time>2015-11-07T10:45:30Z</time>
      </trkpt>
      <trkpt lat="43.71833" lon="6.96241">
        <ele>643.4</ele>
        <time>2015-11-07T10:45:31Z</time>
      </trkpt>
      <trkpt lat="43.7183" lon="6.96243">
        <ele>643.4</ele>
        <time>2015-11-07T10:45:32Z</time>
      </trkpt>
      <trkpt lat="43.71817" lon="6.96263">
        <ele>643.4</ele>
        <time>2015-11-07T10:45:39Z</time>
      </trkpt>
      <trkpt lat="43.71812" lon="6.96286">
        <ele>643.4</ele>
        <time>2015-11-07T10:45:45Z</time>
      </trkpt>
      <trkpt lat="43.71804" lon="6.96314">
        <ele>643.4</ele>
        <time>2015-11-07T10:45:53Z</time>
      </trkpt>
      <trkpt lat="43.71797" lon="6.96339">
        <ele>643.4</ele>
        <time>2015-11-07T10:46:00Z</time>
      </trkpt>
      <trkpt lat="43.71795" lon="6.96349">
        <ele>643.8</ele>
        <time>2015-11-07T10:46:03Z</time>
      </trkpt>
      <trkpt lat="43.71794" lon="6.96351">
        <ele>644.2</ele>
        <time>2015-11-07T10:46:04Z</time>
      </trkpt>
      <trkpt lat="43.71793" lon="6.96354">
        <ele>644.8</ele>
        <time>2015-11-07T10:46:05Z</time>
      </trkpt>
      <trkpt lat="43.71793" lon="6.96357">
        <ele>645.2</ele>
        <time>2015-11-07T10:46:06Z</time>
      </trkpt>
      <trkpt lat="43.71792" lon="6.96359">
        <ele>645.6</ele>
        <time>2015-11-07T10:46:07Z</time>
      </trkpt>
      <trkpt lat="43.71792" lon="6.96362">
        <ele>645.6</ele>
        <time>2015-11-07T10:46:08Z</time>
      </trkpt>
      <trkpt lat="43.71786" lon="6.96383">
        <ele>646</ele>
        <time>2015-11-07T10:46:17Z</time>
      </trkpt>
      <trkpt lat="43.71786" lon="6.96385">
        <ele>646.8</ele>
        <time>2015-11-07T10:46:18Z</time>
      </trkpt>
      <trkpt lat="43.71785" lon="6.96387">
        <ele>647.2</ele>
        <time>2015-11-07T10:46:19Z</time>
      </trkpt>
      <trkpt lat="43.71784" lon="6.96389">
        <ele>647.6</ele>
        <time>2015-11-07T10:46:20Z</time>
      </trkpt>
      <trkpt lat="43.71781" lon="6.96398">
        <ele>648</ele>
        <time>2015-11-07T10:46:24Z</time>
      </trkpt>
      <trkpt lat="43.7178" lon="6.964">
        <ele>648.4</ele>
        <time>2015-11-07T10:46:25Z</time>
      </trkpt>
      <trkpt lat="43.71779" lon="6.96402">
        <ele>648.8</ele>
        <time>2015-11-07T10:46:26Z</time>
      </trkpt>
      <trkpt lat="43.71778" lon="6.96404">
        <ele>649.2</ele>
        <time>2015-11-07T10:46:27Z</time>
      </trkpt>
      <trkpt lat="43.71777" lon="6.96406">
        <ele>649.6</ele>
        <time>2015-11-07T10:46:28Z</time>
      </trkpt>
      <trkpt lat="43.71772" lon="6.96417">
        <ele>649.6</ele>
        <time>2015-11-07T10:46:34Z</time>
      </trkpt>
      <trkpt lat="43.71763" lon="6.96428">
        <ele>650</ele>
        <time>2015-11-07T10:46:40Z</time>
      </trkpt>
      <trkpt lat="43.71761" lon="6.9643">
        <ele>650.4</ele>
        <time>2015-11-07T10:46:41Z</time>
      </trkpt>
      <trkpt lat="43.7176" lon="6.96433">
        <ele>651</ele>
        <time>2015-11-07T10:46:42Z</time>
      </trkpt>
      <trkpt lat="43.71758" lon="6.96434">
        <ele>651.4</ele>
        <time>2015-11-07T10:46:43Z</time>
      </trkpt>
      <trkpt lat="43.71756" lon="6.96436">
        <ele>651.8</ele>
        <time>2015-11-07T10:46:44Z</time>
      </trkpt>
      <trkpt lat="43.71746" lon="6.96446">
        <ele>651.8</ele>
        <time>2015-11-07T10:46:50Z</time>
      </trkpt>
      <trkpt lat="43.71731" lon="6.96461">
        <ele>651.8</ele>
        <time>2015-11-07T10:46:59Z</time>
      </trkpt>
      <trkpt lat="43.7172" lon="6.96476">
        <ele>651.8</ele>
        <time>2015-11-07T10:47:07Z</time>
      </trkpt>
      <trkpt lat="43.71717" lon="6.96488">
        <ele>652.2</ele>
        <time>2015-11-07T10:47:12Z</time>
      </trkpt>
      <trkpt lat="43.71717" lon="6.96491">
        <ele>652.6</ele>
        <time>2015-11-07T10:47:13Z</time>
      </trkpt>
      <trkpt lat="43.71716" lon="6.96493">
        <ele>653.2</ele>
        <time>2015-11-07T10:47:14Z</time>
      </trkpt>
      <trkpt lat="43.71715" lon="6.96496">
        <ele>653.6</ele>
        <time>2015-11-07T10:47:15Z</time>
      </trkpt>
      <trkpt lat="43.71714" lon="6.96498">
        <ele>654</ele>
        <time>2015-11-07T10:47:16Z</time>
      </trkpt>
      <trkpt lat="43.71701" lon="6.96519">
        <ele>654</ele>
        <time>2015-11-07T10:47:24Z</time>
      </trkpt>
      <trkpt lat="43.71685" lon="6.96537">
        <ele>654</ele>
        <time>2015-11-07T10:47:31Z</time>
      </trkpt>
      <trkpt lat="43.71668" lon="6.9655">
        <ele>653.6</ele>
        <time>2015-11-07T10:47:35Z</time>
      </trkpt>
      <trkpt lat="43.71663" lon="6.96554">
        <ele>653</ele>
        <time>2015-11-07T10:47:36Z</time>
      </trkpt>
      <trkpt lat="43.71658" lon="6.96558">
        <ele>652.4</ele>
        <time>2015-11-07T10:47:37Z</time>
      </trkpt>
      <trkpt lat="43.71654" lon="6.96562">
        <ele>652</ele>
        <time>2015-11-07T10:47:38Z</time>
      </trkpt>
      <trkpt lat="43.71651" lon="6.96567">
        <ele>651.4</ele>
        <time>2015-11-07T10:47:39Z</time>
      </trkpt>
      <trkpt lat="43.71648" lon="6.96573">
        <ele>651.4</ele>
        <time>2015-11-07T10:47:40Z</time>
      </trkpt>
      <trkpt lat="43.71632" lon="6.96601">
        <ele>651.4</ele>
        <time>2015-11-07T10:47:46Z</time>
      </trkpt>
      <trkpt lat="43.71619" lon="6.96629">
        <ele>651.4</ele>
        <time>2015-11-07T10:47:52Z</time>
      </trkpt>
      <trkpt lat="43.71605" lon="6.96656">
        <ele>651.4</ele>
        <time>2015-11-07T10:47:59Z</time>
      </trkpt>
      <trkpt lat="43.71601" lon="6.96664">
        <ele>651.8</ele>
        <time>2015-11-07T10:48:02Z</time>
      </trkpt>
      <trkpt lat="43.716" lon="6.96667">
        <ele>652.4</ele>
        <time>2015-11-07T10:48:03Z</time>
      </trkpt>
      <trkpt lat="43.71599" lon="6.9667">
        <ele>652.8</ele>
        <time>2015-11-07T10:48:04Z</time>
      </trkpt>
      <trkpt lat="43.71598" lon="6.96673">
        <ele>653.4</ele>
        <time>2015-11-07T10:48:05Z</time>
      </trkpt>
      <trkpt lat="43.71597" lon="6.96676">
        <ele>653.8</ele>
        <time>2015-11-07T10:48:06Z</time>
      </trkpt>
      <trkpt lat="43.71592" lon="6.96686">
        <ele>653.8</ele>
        <time>2015-11-07T10:48:10Z</time>
      </trkpt>
      <trkpt lat="43.71588" lon="6.96693">
        <ele>654.2</ele>
        <time>2015-11-07T10:48:13Z</time>
      </trkpt>
      <trkpt lat="43.71587" lon="6.96695">
        <ele>654.6</ele>
        <time>2015-11-07T10:48:14Z</time>
      </trkpt>
      <trkpt lat="43.71584" lon="6.96697">
        <ele>655</ele>
        <time>2015-11-07T10:48:15Z</time>
      </trkpt>
      <trkpt lat="43.71583" lon="6.96699">
        <ele>655.4</ele>
        <time>2015-11-07T10:48:16Z</time>
      </trkpt>
      <trkpt lat="43.71582" lon="6.96701">
        <ele>655.8</ele>
        <time>2015-11-07T10:48:17Z</time>
      </trkpt>
      <trkpt lat="43.71579" lon="6.96709">
        <ele>656.2</ele>
        <time>2015-11-07T10:48:20Z</time>
      </trkpt>
      <trkpt lat="43.71577" lon="6.96711">
        <ele>656.6</ele>
        <time>2015-11-07T10:48:21Z</time>
      </trkpt>
      <trkpt lat="43.71576" lon="6.96715">
        <ele>657.2</ele>
        <time>2015-11-07T10:48:22Z</time>
      </trkpt>
      <trkpt lat="43.71574" lon="6.96718">
        <ele>657.6</ele>
        <time>2015-11-07T10:48:23Z</time>
      </trkpt>
      <trkpt lat="43.71572" lon="6.96721">
        <ele>658</ele>
        <time>2015-11-07T10:48:24Z</time>
      </trkpt>
      <trkpt lat="43.71568" lon="6.96728">
        <ele>658</ele>
        <time>2015-11-07T10:48:27Z</time>
      </trkpt>
      <trkpt lat="43.71562" lon="6.96738">
        <ele>658.4</ele>
        <time>2015-11-07T10:48:32Z</time>
      </trkpt>
      <trkpt lat="43.71559" lon="6.96742">
        <ele>659.2</ele>
        <time>2015-11-07T10:48:34Z</time>
      </trkpt>
      <trkpt lat="43.71558" lon="6.96744">
        <ele>659.6</ele>
        <time>2015-11-07T10:48:35Z</time>
      </trkpt>
      <trkpt lat="43.71555" lon="6.96746">
        <ele>660</ele>
        <time>2015-11-07T10:48:36Z</time>
      </trkpt>
      <trkpt lat="43.71532" lon="6.96757">
        <ele>660.4</ele>
        <time>2015-11-07T10:48:46Z</time>
      </trkpt>
      <trkpt lat="43.7153" lon="6.96757">
        <ele>660.8</ele>
        <time>2015-11-07T10:48:47Z</time>
      </trkpt>
      <trkpt lat="43.71527" lon="6.96758">
        <ele>661.2</ele>
        <time>2015-11-07T10:48:48Z</time>
      </trkpt>
      <trkpt lat="43.71525" lon="6.96758">
        <ele>661.8</ele>
        <time>2015-11-07T10:48:49Z</time>
      </trkpt>
      <trkpt lat="43.71522" lon="6.96759">
        <ele>662.2</ele>
        <time>2015-11-07T10:48:50Z</time>
      </trkpt>
      <trkpt lat="43.7151" lon="6.96758">
        <ele>662.2</ele>
        <time>2015-11-07T10:48:55Z</time>
      </trkpt>
      <trkpt lat="43.71493" lon="6.96748">
        <ele>662.2</ele>
        <time>2015-11-07T10:49:02Z</time>
      </trkpt>
      <trkpt lat="43.71481" lon="6.96727">
        <ele>662.2</ele>
        <time>2015-11-07T10:49:09Z</time>
      </trkpt>
      <trkpt lat="43.71469" lon="6.96703">
        <ele>662.6</ele>
        <time>2015-11-07T10:49:17Z</time>
      </trkpt>
      <trkpt lat="43.71467" lon="6.967">
        <ele>663</ele>
        <time>2015-11-07T10:49:18Z</time>
      </trkpt>
      <trkpt lat="43.71466" lon="6.96697">
        <ele>663.4</ele>
        <time>2015-11-07T10:49:19Z</time>
      </trkpt>
      <trkpt lat="43.71464" lon="6.96694">
        <ele>663.8</ele>
        <time>2015-11-07T10:49:20Z</time>
      </trkpt>
      <trkpt lat="43.71463" lon="6.96691">
        <ele>664.2</ele>
        <time>2015-11-07T10:49:21Z</time>
      </trkpt>
      <trkpt lat="43.71456" lon="6.96677">
        <ele>664.2</ele>
        <time>2015-11-07T10:49:25Z</time>
      </trkpt>
      <trkpt lat="43.71451" lon="6.96648">
        <ele>664.2</ele>
        <time>2015-11-07T10:49:32Z</time>
      </trkpt>
      <trkpt lat="43.71449" lon="6.96608">
        <ele>664.2</ele>
        <time>2015-11-07T10:49:41Z</time>
      </trkpt>
      <trkpt lat="43.71445" lon="6.96581">
        <ele>664.2</ele>
        <time>2015-11-07T10:49:48Z</time>
      </trkpt>
      <trkpt lat="43.71436" lon="6.96552">
        <ele>664.2</ele>
        <time>2015-11-07T10:49:56Z</time>
      </trkpt>
      <trkpt lat="43.71432" lon="6.96514">
        <ele>664.2</ele>
        <time>2015-11-07T10:50:05Z</time>
      </trkpt>
      <trkpt lat="43.71435" lon="6.96476">
        <ele>664.2</ele>
        <time>2015-11-07T10:50:14Z</time>
      </trkpt>
      <trkpt lat="43.71432" lon="6.96446">
        <ele>664.2</ele>
        <time>2015-11-07T10:50:21Z</time>
      </trkpt>
      <trkpt lat="43.71423" lon="6.96422">
        <ele>664.6</ele>
        <time>2015-11-07T10:50:28Z</time>
      </trkpt>
      <trkpt lat="43.71421" lon="6.96419">
        <ele>665</ele>
        <time>2015-11-07T10:50:29Z</time>
      </trkpt>
      <trkpt lat="43.71419" lon="6.96415">
        <ele>665.4</ele>
        <time>2015-11-07T10:50:30Z</time>
      </trkpt>
      <trkpt lat="43.71417" lon="6.96411">
        <ele>665.8</ele>
        <time>2015-11-07T10:50:31Z</time>
      </trkpt>
      <trkpt lat="43.71415" lon="6.96407">
        <ele>666.2</ele>
        <time>2015-11-07T10:50:32Z</time>
      </trkpt>
      <trkpt lat="43.71409" lon="6.96396">
        <ele>666.2</ele>
        <time>2015-11-07T10:50:35Z</time>
      </trkpt>
      <trkpt lat="43.71394" lon="6.96371">
        <ele>666.2</ele>
        <time>2015-11-07T10:50:41Z</time>
      </trkpt>
      <trkpt lat="43.71376" lon="6.96339">
        <ele>666.2</ele>
        <time>2015-11-07T10:50:49Z</time>
      </trkpt>
      <trkpt lat="43.71361" lon="6.96325">
        <ele>666.2</ele>
        <time>2015-11-07T10:50:55Z</time>
      </trkpt>
      <trkpt lat="43.71342" lon="6.96318">
        <ele>666.2</ele>
        <time>2015-11-07T10:51:01Z</time>
      </trkpt>
      <trkpt lat="43.71321" lon="6.96308">
        <ele>666.2</ele>
        <time>2015-11-07T10:51:07Z</time>
      </trkpt>
      <trkpt lat="43.71303" lon="6.96285">
        <ele>666.2</ele>
        <time>2015-11-07T10:51:14Z</time>
      </trkpt>
      <trkpt lat="43.7129" lon="6.96278">
        <ele>666.2</ele>
        <time>2015-11-07T10:51:18Z</time>
      </trkpt>
      <trkpt lat="43.71274" lon="6.96281">
        <ele>666.2</ele>
        <time>2015-11-07T10:51:23Z</time>
      </trkpt>
      <trkpt lat="43.71251" lon="6.96283">
        <ele>666.2</ele>
        <time>2015-11-07T10:51:30Z</time>
      </trkpt>
      <trkpt lat="43.71224" lon="6.96292">
        <ele>666.2</ele>
        <time>2015-11-07T10:51:38Z</time>
      </trkpt>
      <trkpt lat="43.71203" lon="6.96292">
        <ele>666.2</ele>
        <time>2015-11-07T10:51:44Z</time>
      </trkpt>
      <trkpt lat="43.71198" lon="6.9629">
        <ele>666.2</ele>
        <time>2015-11-07T10:51:45Z</time>
      </trkpt>
      <trkpt lat="43.71186" lon="6.96281">
        <ele>666.2</ele>
        <time>2015-11-07T10:51:49Z</time>
      </trkpt>
      <trkpt lat="43.71176" lon="6.96272">
        <ele>665.8</ele>
        <time>2015-11-07T10:51:53Z</time>
      </trkpt>
      <trkpt lat="43.71174" lon="6.9627">
        <ele>665.4</ele>
        <time>2015-11-07T10:51:54Z</time>
      </trkpt>
      <trkpt lat="43.71173" lon="6.96267">
        <ele>665</ele>
        <time>2015-11-07T10:51:55Z</time>
      </trkpt>
      <trkpt lat="43.71171" lon="6.96265">
        <ele>664.6</ele>
        <time>2015-11-07T10:51:56Z</time>
      </trkpt>
      <trkpt lat="43.7117" lon="6.96264">
        <ele>664.2</ele>
        <time>2015-11-07T10:51:57Z</time>
      </trkpt>
      <trkpt lat="43.71165" lon="6.96261">
        <ele>664.2</ele>
        <time>2015-11-07T10:52:01Z</time>
      </trkpt>
      <trkpt lat="43.71153" lon="6.96265">
        <ele>663.6</ele>
        <time>2015-11-07T10:52:10Z</time>
      </trkpt>
      <trkpt lat="43.71151" lon="6.96264">
        <ele>663.2</ele>
        <time>2015-11-07T10:52:11Z</time>
      </trkpt>
      <trkpt lat="43.71151" lon="6.96264">
        <ele>662.6</ele>
        <time>2015-11-07T10:52:12Z</time>
      </trkpt>
      <trkpt lat="43.71151" lon="6.96264">
        <ele>662.2</ele>
        <time>2015-11-07T10:52:13Z</time>
      </trkpt>
      <trkpt lat="43.71151" lon="6.96264">
        <ele>661.6</ele>
        <time>2015-11-07T10:52:14Z</time>
      </trkpt>
      <trkpt lat="43.71151" lon="6.96265">
        <ele>661.6</ele>
        <time>2015-11-07T10:52:15Z</time>
      </trkpt>
      <trkpt lat="43.71145" lon="6.9626">
        <ele>661.6</ele>
        <time>2015-11-07T10:52:23Z</time>
      </trkpt>
      <trkpt lat="43.71136" lon="6.96256">
        <ele>661.6</ele>
        <time>2015-11-07T10:52:29Z</time>
      </trkpt>
      <trkpt lat="43.71134" lon="6.96257">
        <ele>662</ele>
        <time>2015-11-07T10:52:30Z</time>
      </trkpt>
      <trkpt lat="43.71133" lon="6.96257">
        <ele>662.4</ele>
        <time>2015-11-07T10:52:31Z</time>
      </trkpt>
      <trkpt lat="43.71132" lon="6.96257">
        <ele>662.8</ele>
        <time>2015-11-07T10:52:32Z</time>
      </trkpt>
      <trkpt lat="43.71132" lon="6.96258">
        <ele>663.2</ele>
        <time>2015-11-07T10:52:33Z</time>
      </trkpt>
      <trkpt lat="43.71131" lon="6.96259">
        <ele>663.6</ele>
        <time>2015-11-07T10:52:34Z</time>
      </trkpt>
      <trkpt lat="43.71131" lon="6.96259">
        <ele>663.6</ele>
        <time>2015-11-07T10:52:36Z</time>
      </trkpt>
      <trkpt lat="43.71125" lon="6.96269">
        <ele>663.6</ele>
        <time>2015-11-07T10:52:51Z</time>
      </trkpt>
      <trkpt lat="43.71121" lon="6.96272">
        <ele>663.2</ele>
        <time>2015-11-07T10:52:54Z</time>
      </trkpt>
      <trkpt lat="43.7112" lon="6.96273">
        <ele>662.8</ele>
        <time>2015-11-07T10:52:55Z</time>
      </trkpt>
      <trkpt lat="43.71118" lon="6.96275">
        <ele>662.4</ele>
        <time>2015-11-07T10:52:56Z</time>
      </trkpt>
      <trkpt lat="43.71116" lon="6.96276">
        <ele>662</ele>
        <time>2015-11-07T10:52:57Z</time>
      </trkpt>
      <trkpt lat="43.71113" lon="6.96277">
        <ele>661.6</ele>
        <time>2015-11-07T10:52:58Z</time>
      </trkpt>
      <trkpt lat="43.7111" lon="6.96278">
        <ele>661.2</ele>
        <time>2015-11-07T10:52:59Z</time>
      </trkpt>
      <trkpt lat="43.71108" lon="6.96279">
        <ele>660.8</ele>
        <time>2015-11-07T10:53:00Z</time>
      </trkpt>
      <trkpt lat="43.71105" lon="6.96278">
        <ele>660.4</ele>
        <time>2015-11-07T10:53:01Z</time>
      </trkpt>
      <trkpt lat="43.71102" lon="6.96277">
        <ele>660</ele>
        <time>2015-11-07T10:53:02Z</time>
      </trkpt>
      <trkpt lat="43.711" lon="6.96277">
        <ele>659.6</ele>
        <time>2015-11-07T10:53:03Z</time>
      </trkpt>
      <trkpt lat="43.71091" lon="6.96271">
        <ele>659.6</ele>
        <time>2015-11-07T10:53:09Z</time>
      </trkpt>
      <trkpt lat="43.71075" lon="6.96263">
        <ele>659.6</ele>
        <time>2015-11-07T10:53:17Z</time>
      </trkpt>
      <trkpt lat="43.71054" lon="6.96261">
        <ele>659.6</ele>
        <time>2015-11-07T10:53:24Z</time>
      </trkpt>
      <trkpt lat="43.71044" lon="6.96251">
        <ele>659.6</ele>
        <time>2015-11-07T10:53:29Z</time>
      </trkpt>
      <trkpt lat="43.71033" lon="6.9624">
        <ele>659.6</ele>
        <time>2015-11-07T10:53:36Z</time>
      </trkpt>
      <trkpt lat="43.71018" lon="6.96217">
        <ele>659.6</ele>
        <time>2015-11-07T10:53:46Z</time>
      </trkpt>
      <trkpt lat="43.7101" lon="6.96194">
        <ele>659.6</ele>
        <time>2015-11-07T10:53:53Z</time>
      </trkpt>
      <trkpt lat="43.71006" lon="6.96191">
        <ele>660</ele>
        <time>2015-11-07T10:53:54Z</time>
      </trkpt>
      <trkpt lat="43.71003" lon="6.96186">
        <ele>660.4</ele>
        <time>2015-11-07T10:53:55Z</time>
      </trkpt>
      <trkpt lat="43.71002" lon="6.96183">
        <ele>661</ele>
        <time>2015-11-07T10:53:56Z</time>
      </trkpt>
      <trkpt lat="43.71001" lon="6.96181">
        <ele>661.4</ele>
        <time>2015-11-07T10:53:57Z</time>
      </trkpt>
      <trkpt lat="43.71" lon="6.96179">
        <ele>661.8</ele>
        <time>2015-11-07T10:53:58Z</time>
      </trkpt>
      <trkpt lat="43.70993" lon="6.96163">
        <ele>662.2</ele>
        <time>2015-11-07T10:54:03Z</time>
      </trkpt>
      <trkpt lat="43.70993" lon="6.96162">
        <ele>662.6</ele>
        <time>2015-11-07T10:54:04Z</time>
      </trkpt>
      <trkpt lat="43.70992" lon="6.96161">
        <ele>663</ele>
        <time>2015-11-07T10:54:05Z</time>
      </trkpt>
      <trkpt lat="43.7099" lon="6.9616">
        <ele>663.6</ele>
        <time>2015-11-07T10:54:06Z</time>
      </trkpt>
      <trkpt lat="43.70988" lon="6.96159">
        <ele>664</ele>
        <time>2015-11-07T10:54:07Z</time>
      </trkpt>
      <trkpt lat="43.70986" lon="6.96157">
        <ele>664.4</ele>
        <time>2015-11-07T10:54:08Z</time>
      </trkpt>
      <trkpt lat="43.70985" lon="6.96156">
        <ele>664.8</ele>
        <time>2015-11-07T10:54:09Z</time>
      </trkpt>
      <trkpt lat="43.70983" lon="6.96155">
        <ele>665.2</ele>
        <time>2015-11-07T10:54:10Z</time>
      </trkpt>
      <trkpt lat="43.70982" lon="6.96153">
        <ele>665.6</ele>
        <time>2015-11-07T10:54:11Z</time>
      </trkpt>
      <trkpt lat="43.70981" lon="6.96151">
        <ele>666</ele>
        <time>2015-11-07T10:54:12Z</time>
      </trkpt>
      <trkpt lat="43.70979" lon="6.96144">
        <ele>666.4</ele>
        <time>2015-11-07T10:54:15Z</time>
      </trkpt>
      <trkpt lat="43.70978" lon="6.96142">
        <ele>666.8</ele>
        <time>2015-11-07T10:54:16Z</time>
      </trkpt>
      <trkpt lat="43.70977" lon="6.9614">
        <ele>667.4</ele>
        <time>2015-11-07T10:54:17Z</time>
      </trkpt>
      <trkpt lat="43.70976" lon="6.96139">
        <ele>667.8</ele>
        <time>2015-11-07T10:54:18Z</time>
      </trkpt>
      <trkpt lat="43.70975" lon="6.96137">
        <ele>668.2</ele>
        <time>2015-11-07T10:54:19Z</time>
      </trkpt>
      <trkpt lat="43.70972" lon="6.96131">
        <ele>668.6</ele>
        <time>2015-11-07T10:54:22Z</time>
      </trkpt>
      <trkpt lat="43.70971" lon="6.9613">
        <ele>669</ele>
        <time>2015-11-07T10:54:23Z</time>
      </trkpt>
      <trkpt lat="43.7097" lon="6.96128">
        <ele>669.4</ele>
        <time>2015-11-07T10:54:24Z</time>
      </trkpt>
      <trkpt lat="43.70968" lon="6.96125">
        <ele>669.8</ele>
        <time>2015-11-07T10:54:25Z</time>
      </trkpt>
      <trkpt lat="43.70966" lon="6.96123">
        <ele>670.2</ele>
        <time>2015-11-07T10:54:26Z</time>
      </trkpt>
      <trkpt lat="43.70965" lon="6.96119">
        <ele>670.2</ele>
        <time>2015-11-07T10:54:28Z</time>
      </trkpt>
      <trkpt lat="43.70964" lon="6.96117">
        <ele>670.6</ele>
        <time>2015-11-07T10:54:29Z</time>
      </trkpt>
      <trkpt lat="43.70962" lon="6.96115">
        <ele>671</ele>
        <time>2015-11-07T10:54:30Z</time>
      </trkpt>
      <trkpt lat="43.70961" lon="6.96114">
        <ele>671.6</ele>
        <time>2015-11-07T10:54:31Z</time>
      </trkpt>
      <trkpt lat="43.7096" lon="6.96113">
        <ele>672</ele>
        <time>2015-11-07T10:54:32Z</time>
      </trkpt>
      <trkpt lat="43.70958" lon="6.96112">
        <ele>672.4</ele>
        <time>2015-11-07T10:54:33Z</time>
      </trkpt>
      <trkpt lat="43.70955" lon="6.96109">
        <ele>672.4</ele>
        <time>2015-11-07T10:54:36Z</time>
      </trkpt>
      <trkpt lat="43.70954" lon="6.96107">
        <ele>672.8</ele>
        <time>2015-11-07T10:54:37Z</time>
      </trkpt>
      <trkpt lat="43.70953" lon="6.96105">
        <ele>673.2</ele>
        <time>2015-11-07T10:54:38Z</time>
      </trkpt>
      <trkpt lat="43.70952" lon="6.96103">
        <ele>673.6</ele>
        <time>2015-11-07T10:54:39Z</time>
      </trkpt>
      <trkpt lat="43.7095" lon="6.96101">
        <ele>674</ele>
        <time>2015-11-07T10:54:40Z</time>
      </trkpt>
      <trkpt lat="43.7095" lon="6.96098">
        <ele>674.4</ele>
        <time>2015-11-07T10:54:41Z</time>
      </trkpt>
      <trkpt lat="43.70949" lon="6.96095">
        <ele>674.4</ele>
        <time>2015-11-07T10:54:43Z</time>
      </trkpt>
      <trkpt lat="43.70949" lon="6.9609">
        <ele>674.4</ele>
        <time>2015-11-07T10:54:46Z</time>
      </trkpt>
      <trkpt lat="43.70949" lon="6.96087">
        <ele>674.8</ele>
        <time>2015-11-07T10:54:48Z</time>
      </trkpt>
      <trkpt lat="43.70949" lon="6.96085">
        <ele>675.2</ele>
        <time>2015-11-07T10:54:49Z</time>
      </trkpt>
      <trkpt lat="43.70948" lon="6.96083">
        <ele>675.6</ele>
        <time>2015-11-07T10:54:50Z</time>
      </trkpt>
      <trkpt lat="43.70947" lon="6.96082">
        <ele>676</ele>
        <time>2015-11-07T10:54:51Z</time>
      </trkpt>
      <trkpt lat="43.70948" lon="6.9608">
        <ele>676.4</ele>
        <time>2015-11-07T10:54:52Z</time>
      </trkpt>
      <trkpt lat="43.7095" lon="6.96062">
        <ele>676.4</ele>
        <time>2015-11-07T10:54:58Z</time>
      </trkpt>
      <trkpt lat="43.70949" lon="6.96051">
        <ele>676.8</ele>
        <time>2015-11-07T10:55:03Z</time>
      </trkpt>
      <trkpt lat="43.70948" lon="6.96049">
        <ele>677.2</ele>
        <time>2015-11-07T10:55:04Z</time>
      </trkpt>
      <trkpt lat="43.70948" lon="6.96047">
        <ele>677.6</ele>
        <time>2015-11-07T10:55:05Z</time>
      </trkpt>
      <trkpt lat="43.70948" lon="6.96045">
        <ele>678</ele>
        <time>2015-11-07T10:55:06Z</time>
      </trkpt>
      <trkpt lat="43.70948" lon="6.96043">
        <ele>678.4</ele>
        <time>2015-11-07T10:55:07Z</time>
      </trkpt>
      <trkpt lat="43.70948" lon="6.96037">
        <ele>678.4</ele>
        <time>2015-11-07T10:55:10Z</time>
      </trkpt>
      <trkpt lat="43.70952" lon="6.96023">
        <ele>678.4</ele>
        <time>2015-11-07T10:55:16Z</time>
      </trkpt>
      <trkpt lat="43.70953" lon="6.96021">
        <ele>678.4</ele>
        <time>2015-11-07T10:55:17Z</time>
      </trkpt>
      <trkpt lat="43.70955" lon="6.96006">
        <ele>678.8</ele>
        <time>2015-11-07T10:55:22Z</time>
      </trkpt>
      <trkpt lat="43.70954" lon="6.96003">
        <ele>679.2</ele>
        <time>2015-11-07T10:55:23Z</time>
      </trkpt>
      <trkpt lat="43.70953" lon="6.96001">
        <ele>679.6</ele>
        <time>2015-11-07T10:55:24Z</time>
      </trkpt>
      <trkpt lat="43.70953" lon="6.95999">
        <ele>680</ele>
        <time>2015-11-07T10:55:25Z</time>
      </trkpt>
      <trkpt lat="43.70952" lon="6.95997">
        <ele>680.4</ele>
        <time>2015-11-07T10:55:26Z</time>
      </trkpt>
      <trkpt lat="43.70949" lon="6.95986">
        <ele>680.4</ele>
        <time>2015-11-07T10:55:30Z</time>
      </trkpt>
      <trkpt lat="43.70939" lon="6.95974">
        <ele>680.4</ele>
        <time>2015-11-07T10:55:36Z</time>
      </trkpt>
      <trkpt lat="43.70929" lon="6.95963">
        <ele>680.4</ele>
        <time>2015-11-07T10:55:41Z</time>
      </trkpt>
      <trkpt lat="43.70915" lon="6.95951">
        <ele>680.4</ele>
        <time>2015-11-07T10:55:47Z</time>
      </trkpt>
      <trkpt lat="43.70895" lon="6.95933">
        <ele>680.4</ele>
        <time>2015-11-07T10:55:54Z</time>
      </trkpt>
      <trkpt lat="43.70884" lon="6.95919">
        <ele>680.4</ele>
        <time>2015-11-07T10:55:59Z</time>
      </trkpt>
      <trkpt lat="43.70882" lon="6.95917">
        <ele>680.4</ele>
        <time>2015-11-07T10:56:00Z</time>
      </trkpt>
      <trkpt lat="43.70876" lon="6.95909">
        <ele>680.8</ele>
        <time>2015-11-07T10:56:03Z</time>
      </trkpt>
      <trkpt lat="43.70875" lon="6.95907">
        <ele>681.2</ele>
        <time>2015-11-07T10:56:04Z</time>
      </trkpt>
      <trkpt lat="43.70874" lon="6.95906">
        <ele>681.6</ele>
        <time>2015-11-07T10:56:05Z</time>
      </trkpt>
      <trkpt lat="43.70872" lon="6.95904">
        <ele>682</ele>
        <time>2015-11-07T10:56:06Z</time>
      </trkpt>
      <trkpt lat="43.70871" lon="6.95902">
        <ele>682.6</ele>
        <time>2015-11-07T10:56:07Z</time>
      </trkpt>
      <trkpt lat="43.7087" lon="6.95901">
        <ele>682.6</ele>
        <time>2015-11-07T10:56:08Z</time>
      </trkpt>
      <trkpt lat="43.70859" lon="6.9589">
        <ele>683</ele>
        <time>2015-11-07T10:56:13Z</time>
      </trkpt>
      <trkpt lat="43.70857" lon="6.95887">
        <ele>683.4</ele>
        <time>2015-11-07T10:56:14Z</time>
      </trkpt>
      <trkpt lat="43.70855" lon="6.95885">
        <ele>683.8</ele>
        <time>2015-11-07T10:56:15Z</time>
      </trkpt>
      <trkpt lat="43.70854" lon="6.95883">
        <ele>684.2</ele>
        <time>2015-11-07T10:56:16Z</time>
      </trkpt>
      <trkpt lat="43.70852" lon="6.95882">
        <ele>684.6</ele>
        <time>2015-11-07T10:56:17Z</time>
      </trkpt>
      <trkpt lat="43.70839" lon="6.95867">
        <ele>684.6</ele>
        <time>2015-11-07T10:56:23Z</time>
      </trkpt>
      <trkpt lat="43.70828" lon="6.9586">
        <ele>685</ele>
        <time>2015-11-07T10:56:28Z</time>
      </trkpt>
      <trkpt lat="43.70826" lon="6.95858">
        <ele>685.4</ele>
        <time>2015-11-07T10:56:29Z</time>
      </trkpt>
      <trkpt lat="43.70823" lon="6.95856">
        <ele>685.8</ele>
        <time>2015-11-07T10:56:30Z</time>
      </trkpt>
      <trkpt lat="43.7082" lon="6.95855">
        <ele>686.2</ele>
        <time>2015-11-07T10:56:31Z</time>
      </trkpt>
      <trkpt lat="43.70817" lon="6.95853">
        <ele>686.6</ele>
        <time>2015-11-07T10:56:32Z</time>
      </trkpt>
      <trkpt lat="43.70804" lon="6.95843">
        <ele>686.6</ele>
        <time>2015-11-07T10:56:37Z</time>
      </trkpt>
      <trkpt lat="43.70786" lon="6.95831">
        <ele>686.6</ele>
        <time>2015-11-07T10:56:46Z</time>
      </trkpt>
      <trkpt lat="43.70777" lon="6.95825">
        <ele>686.6</ele>
        <time>2015-11-07T10:56:52Z</time>
      </trkpt>
      <trkpt lat="43.70772" lon="6.95823">
        <ele>686.6</ele>
        <time>2015-11-07T10:56:57Z</time>
      </trkpt>
      <trkpt lat="43.70771" lon="6.95822">
        <ele>686.6</ele>
        <time>2015-11-07T10:57:10Z</time>
      </trkpt>
      <trkpt lat="43.70778" lon="6.95826">
        <ele>686.6</ele>
        <time>2015-11-07T10:57:17Z</time>
      </trkpt>
      <trkpt lat="43.70782" lon="6.95829">
        <ele>686.6</ele>
        <time>2015-11-07T10:57:19Z</time>
      </trkpt>
      <trkpt lat="43.7079" lon="6.95833">
        <ele>686.6</ele>
        <time>2015-11-07T10:57:26Z</time>
      </trkpt>
      <trkpt lat="43.70795" lon="6.95836">
        <ele>686.6</ele>
        <time>2015-11-07T11:01:42Z</time>
      </trkpt>
      <trkpt lat="43.70792" lon="6.95837">
        <ele>686.6</ele>
        <time>2015-11-07T11:01:44Z</time>
      </trkpt>
      <trkpt lat="43.7078" lon="6.95845">
        <ele>686.6</ele>
        <time>2015-11-07T11:01:51Z</time>
      </trkpt>
      <trkpt lat="43.70779" lon="6.95849">
        <ele>686.6</ele>
        <time>2015-11-07T11:01:52Z</time>
      </trkpt>
      <trkpt lat="43.70778" lon="6.95853">
        <ele>686.2</ele>
        <time>2015-11-07T11:01:53Z</time>
      </trkpt>
      <trkpt lat="43.70775" lon="6.95855">
        <ele>685.8</ele>
        <time>2015-11-07T11:01:54Z</time>
      </trkpt>
      <trkpt lat="43.70772" lon="6.95856">
        <ele>685.4</ele>
        <time>2015-11-07T11:01:55Z</time>
      </trkpt>
      <trkpt lat="43.70769" lon="6.95857">
        <ele>685</ele>
        <time>2015-11-07T11:01:56Z</time>
      </trkpt>
      <trkpt lat="43.70765" lon="6.95858">
        <ele>684.6</ele>
        <time>2015-11-07T11:01:57Z</time>
      </trkpt>
      <trkpt lat="43.70762" lon="6.95859">
        <ele>684.6</ele>
        <time>2015-11-07T11:01:58Z</time>
      </trkpt>
      <trkpt lat="43.70757" lon="6.95861">
        <ele>684</ele>
        <time>2015-11-07T11:01:59Z</time>
      </trkpt>
      <trkpt lat="43.70753" lon="6.95864">
        <ele>683.6</ele>
        <time>2015-11-07T11:02:00Z</time>
      </trkpt>
      <trkpt lat="43.70748" lon="6.95867">
        <ele>683.2</ele>
        <time>2015-11-07T11:02:01Z</time>
      </trkpt>
      <trkpt lat="43.70744" lon="6.95871">
        <ele>682.6</ele>
        <time>2015-11-07T11:02:02Z</time>
      </trkpt>
      <trkpt lat="43.70741" lon="6.95875">
        <ele>682</ele>
        <time>2015-11-07T11:02:03Z</time>
      </trkpt>
      <trkpt lat="43.70739" lon="6.9588">
        <ele>681.2</ele>
        <time>2015-11-07T11:02:04Z</time>
      </trkpt>
      <trkpt lat="43.70737" lon="6.95884">
        <ele>680.6</ele>
        <time>2015-11-07T11:02:05Z</time>
      </trkpt>
      <trkpt lat="43.70734" lon="6.95888">
        <ele>680</ele>
        <time>2015-11-07T11:02:06Z</time>
      </trkpt>
      <trkpt lat="43.70726" lon="6.95893">
        <ele>679.4</ele>
        <time>2015-11-07T11:02:08Z</time>
      </trkpt>
      <trkpt lat="43.70721" lon="6.95894">
        <ele>679</ele>
        <time>2015-11-07T11:02:09Z</time>
      </trkpt>
      <trkpt lat="43.70716" lon="6.95896">
        <ele>678.6</ele>
        <time>2015-11-07T11:02:10Z</time>
      </trkpt>
      <trkpt lat="43.70712" lon="6.95898">
        <ele>678</ele>
        <time>2015-11-07T11:02:11Z</time>
      </trkpt>
      <trkpt lat="43.70709" lon="6.959">
        <ele>677.6</ele>
        <time>2015-11-07T11:02:12Z</time>
      </trkpt>
      <trkpt lat="43.70703" lon="6.9591">
        <ele>677.2</ele>
        <time>2015-11-07T11:02:15Z</time>
      </trkpt>
      <trkpt lat="43.707" lon="6.95911">
        <ele>676.8</ele>
        <time>2015-11-07T11:02:16Z</time>
      </trkpt>
      <trkpt lat="43.70698" lon="6.95913">
        <ele>676.4</ele>
        <time>2015-11-07T11:02:17Z</time>
      </trkpt>
      <trkpt lat="43.70696" lon="6.95914">
        <ele>676</ele>
        <time>2015-11-07T11:02:18Z</time>
      </trkpt>
      <trkpt lat="43.70692" lon="6.95916">
        <ele>675.4</ele>
        <time>2015-11-07T11:02:19Z</time>
      </trkpt>
      <trkpt lat="43.70688" lon="6.95919">
        <ele>674.8</ele>
        <time>2015-11-07T11:02:20Z</time>
      </trkpt>
      <trkpt lat="43.70686" lon="6.95921">
        <ele>674.2</ele>
        <time>2015-11-07T11:02:21Z</time>
      </trkpt>
      <trkpt lat="43.70685" lon="6.95923">
        <ele>673.6</ele>
        <time>2015-11-07T11:02:22Z</time>
      </trkpt>
      <trkpt lat="43.70682" lon="6.95926">
        <ele>673</ele>
        <time>2015-11-07T11:02:23Z</time>
      </trkpt>
      <trkpt lat="43.70675" lon="6.95933">
        <ele>672.6</ele>
        <time>2015-11-07T11:02:25Z</time>
      </trkpt>
      <trkpt lat="43.7067" lon="6.95936">
        <ele>672.2</ele>
        <time>2015-11-07T11:02:26Z</time>
      </trkpt>
      <trkpt lat="43.70666" lon="6.95938">
        <ele>671.8</ele>
        <time>2015-11-07T11:02:27Z</time>
      </trkpt>
      <trkpt lat="43.70661" lon="6.95939">
        <ele>671.2</ele>
        <time>2015-11-07T11:02:28Z</time>
      </trkpt>
      <trkpt lat="43.70657" lon="6.95941">
        <ele>670.4</ele>
        <time>2015-11-07T11:02:29Z</time>
      </trkpt>
      <trkpt lat="43.70652" lon="6.95944">
        <ele>669.8</ele>
        <time>2015-11-07T11:02:30Z</time>
      </trkpt>
      <trkpt lat="43.70648" lon="6.95946">
        <ele>669.2</ele>
        <time>2015-11-07T11:02:31Z</time>
      </trkpt>
      <trkpt lat="43.70644" lon="6.9595">
        <ele>668.6</ele>
        <time>2015-11-07T11:02:32Z</time>
      </trkpt>
      <trkpt lat="43.70638" lon="6.95964">
        <ele>668.6</ele>
        <time>2015-11-07T11:02:35Z</time>
      </trkpt>
      <trkpt lat="43.7064" lon="6.95982">
        <ele>668.2</ele>
        <time>2015-11-07T11:02:38Z</time>
      </trkpt>
      <trkpt lat="43.70642" lon="6.95989">
        <ele>667.8</ele>
        <time>2015-11-07T11:02:39Z</time>
      </trkpt>
      <trkpt lat="43.70643" lon="6.95997">
        <ele>667.4</ele>
        <time>2015-11-07T11:02:40Z</time>
      </trkpt>
      <trkpt lat="43.70647" lon="6.96004">
        <ele>667</ele>
        <time>2015-11-07T11:02:41Z</time>
      </trkpt>
      <trkpt lat="43.70649" lon="6.96011">
        <ele>666.6</ele>
        <time>2015-11-07T11:02:42Z</time>
      </trkpt>
      <trkpt lat="43.70652" lon="6.96023">
        <ele>666.6</ele>
        <time>2015-11-07T11:02:44Z</time>
      </trkpt>
      <trkpt lat="43.70655" lon="6.96042">
        <ele>666.6</ele>
        <time>2015-11-07T11:02:47Z</time>
      </trkpt>
      <trkpt lat="43.70667" lon="6.96081">
        <ele>666.6</ele>
        <time>2015-11-07T11:02:53Z</time>
      </trkpt>
      <trkpt lat="43.70674" lon="6.96097">
        <ele>666.6</ele>
        <time>2015-11-07T11:02:56Z</time>
      </trkpt>
      <trkpt lat="43.70681" lon="6.96103">
        <ele>666.6</ele>
        <time>2015-11-07T11:02:58Z</time>
      </trkpt>
      <trkpt lat="43.70693" lon="6.96134">
        <ele>666.6</ele>
        <time>2015-11-07T11:03:04Z</time>
      </trkpt>
      <trkpt lat="43.70696" lon="6.9614">
        <ele>666.6</ele>
        <time>2015-11-07T11:03:05Z</time>
      </trkpt>
      <trkpt lat="43.70701" lon="6.96155">
        <ele>666.2</ele>
        <time>2015-11-07T11:03:07Z</time>
      </trkpt>
      <trkpt lat="43.70703" lon="6.96163">
        <ele>665.8</ele>
        <time>2015-11-07T11:03:08Z</time>
      </trkpt>
      <trkpt lat="43.70704" lon="6.96169">
        <ele>665.4</ele>
        <time>2015-11-07T11:03:09Z</time>
      </trkpt>
      <trkpt lat="43.70707" lon="6.96175">
        <ele>665</ele>
        <time>2015-11-07T11:03:10Z</time>
      </trkpt>
      <trkpt lat="43.7071" lon="6.96181">
        <ele>664.4</ele>
        <time>2015-11-07T11:03:11Z</time>
      </trkpt>
      <trkpt lat="43.70711" lon="6.96198">
        <ele>664.4</ele>
        <time>2015-11-07T11:03:14Z</time>
      </trkpt>
      <trkpt lat="43.70709" lon="6.96205">
        <ele>664</ele>
        <time>2015-11-07T11:03:15Z</time>
      </trkpt>
      <trkpt lat="43.70709" lon="6.96211">
        <ele>663.6</ele>
        <time>2015-11-07T11:03:16Z</time>
      </trkpt>
      <trkpt lat="43.70709" lon="6.96217">
        <ele>663</ele>
        <time>2015-11-07T11:03:17Z</time>
      </trkpt>
      <trkpt lat="43.7071" lon="6.96222">
        <ele>662.6</ele>
        <time>2015-11-07T11:03:18Z</time>
      </trkpt>
      <trkpt lat="43.70711" lon="6.96228">
        <ele>662</ele>
        <time>2015-11-07T11:03:19Z</time>
      </trkpt>
      <trkpt lat="43.70718" lon="6.96251">
        <ele>662</ele>
        <time>2015-11-07T11:03:23Z</time>
      </trkpt>
      <trkpt lat="43.70722" lon="6.96257">
        <ele>662</ele>
        <time>2015-11-07T11:03:24Z</time>
      </trkpt>
      <trkpt lat="43.70734" lon="6.96285">
        <ele>662</ele>
        <time>2015-11-07T11:03:29Z</time>
      </trkpt>
      <trkpt lat="43.70735" lon="6.96291">
        <ele>662</ele>
        <time>2015-11-07T11:03:30Z</time>
      </trkpt>
      <trkpt lat="43.70737" lon="6.96301">
        <ele>661.6</ele>
        <time>2015-11-07T11:03:32Z</time>
      </trkpt>
      <trkpt lat="43.70739" lon="6.96306">
        <ele>661.2</ele>
        <time>2015-11-07T11:03:33Z</time>
      </trkpt>
      <trkpt lat="43.7074" lon="6.96311">
        <ele>660.8</ele>
        <time>2015-11-07T11:03:34Z</time>
      </trkpt>
      <trkpt lat="43.70739" lon="6.96317">
        <ele>660.2</ele>
        <time>2015-11-07T11:03:35Z</time>
      </trkpt>
      <trkpt lat="43.70737" lon="6.96322">
        <ele>659.6</ele>
        <time>2015-11-07T11:03:36Z</time>
      </trkpt>
      <trkpt lat="43.70735" lon="6.96328">
        <ele>659</ele>
        <time>2015-11-07T11:03:37Z</time>
      </trkpt>
      <trkpt lat="43.70731" lon="6.96334">
        <ele>658.4</ele>
        <time>2015-11-07T11:03:38Z</time>
      </trkpt>
      <trkpt lat="43.70728" lon="6.96339">
        <ele>657.6</ele>
        <time>2015-11-07T11:03:39Z</time>
      </trkpt>
      <trkpt lat="43.70719" lon="6.96351">
        <ele>657.2</ele>
        <time>2015-11-07T11:03:41Z</time>
      </trkpt>
      <trkpt lat="43.70715" lon="6.96356">
        <ele>656.8</ele>
        <time>2015-11-07T11:03:42Z</time>
      </trkpt>
      <trkpt lat="43.70712" lon="6.9636">
        <ele>656.4</ele>
        <time>2015-11-07T11:03:43Z</time>
      </trkpt>
      <trkpt lat="43.7071" lon="6.96363">
        <ele>656</ele>
        <time>2015-11-07T11:03:44Z</time>
      </trkpt>
      <trkpt lat="43.7071" lon="6.96365">
        <ele>655.6</ele>
        <time>2015-11-07T11:03:45Z</time>
      </trkpt>
      <trkpt lat="43.70709" lon="6.96368">
        <ele>655.6</ele>
        <time>2015-11-07T11:03:48Z</time>
      </trkpt>
      <trkpt lat="43.70709" lon="6.96371">
        <ele>655.6</ele>
        <time>2015-11-07T11:03:57Z</time>
      </trkpt>
      <trkpt lat="43.70711" lon="6.96384">
        <ele>655.6</ele>
        <time>2015-11-07T11:03:59Z</time>
      </trkpt>
      <trkpt lat="43.707" lon="6.96415">
        <ele>655.6</ele>
        <time>2015-11-07T11:04:04Z</time>
      </trkpt>
      <trkpt lat="43.70699" lon="6.96455">
        <ele>655.2</ele>
        <time>2015-11-07T11:04:10Z</time>
      </trkpt>
      <trkpt lat="43.70697" lon="6.96463">
        <ele>654.8</ele>
        <time>2015-11-07T11:04:11Z</time>
      </trkpt>
      <trkpt lat="43.70694" lon="6.9647">
        <ele>654.4</ele>
        <time>2015-11-07T11:04:12Z</time>
      </trkpt>
      <trkpt lat="43.70693" lon="6.96475">
        <ele>653.8</ele>
        <time>2015-11-07T11:04:13Z</time>
      </trkpt>
      <trkpt lat="43.70692" lon="6.96479">
        <ele>653.4</ele>
        <time>2015-11-07T11:04:14Z</time>
      </trkpt>
      <trkpt lat="43.70696" lon="6.96485">
        <ele>653.4</ele>
        <time>2015-11-07T11:04:16Z</time>
      </trkpt>
      <trkpt lat="43.70698" lon="6.96492">
        <ele>653</ele>
        <time>2015-11-07T11:04:18Z</time>
      </trkpt>
      <trkpt lat="43.70697" lon="6.96497">
        <ele>652.6</ele>
        <time>2015-11-07T11:04:19Z</time>
      </trkpt>
      <trkpt lat="43.70695" lon="6.965">
        <ele>652</ele>
        <time>2015-11-07T11:04:20Z</time>
      </trkpt>
      <trkpt lat="43.70691" lon="6.96503">
        <ele>651.6</ele>
        <time>2015-11-07T11:04:21Z</time>
      </trkpt>
      <trkpt lat="43.70687" lon="6.96508">
        <ele>651.2</ele>
        <time>2015-11-07T11:04:22Z</time>
      </trkpt>
      <trkpt lat="43.70685" lon="6.96512">
        <ele>650.8</ele>
        <time>2015-11-07T11:04:23Z</time>
      </trkpt>
      <trkpt lat="43.70682" lon="6.96517">
        <ele>650.4</ele>
        <time>2015-11-07T11:04:24Z</time>
      </trkpt>
      <trkpt lat="43.7068" lon="6.96522">
        <ele>649.8</ele>
        <time>2015-11-07T11:04:25Z</time>
      </trkpt>
      <trkpt lat="43.70676" lon="6.96527">
        <ele>649.4</ele>
        <time>2015-11-07T11:04:26Z</time>
      </trkpt>
      <trkpt lat="43.70673" lon="6.96532">
        <ele>648.8</ele>
        <time>2015-11-07T11:04:27Z</time>
      </trkpt>
      <trkpt lat="43.7067" lon="6.96537">
        <ele>648.2</ele>
        <time>2015-11-07T11:04:28Z</time>
      </trkpt>
      <trkpt lat="43.70668" lon="6.96541">
        <ele>647.6</ele>
        <time>2015-11-07T11:04:29Z</time>
      </trkpt>
      <trkpt lat="43.70667" lon="6.96545">
        <ele>647</ele>
        <time>2015-11-07T11:04:30Z</time>
      </trkpt>
      <trkpt lat="43.70666" lon="6.96548">
        <ele>646.2</ele>
        <time>2015-11-07T11:04:31Z</time>
      </trkpt>
      <trkpt lat="43.70664" lon="6.9655">
        <ele>645.6</ele>
        <time>2015-11-07T11:04:32Z</time>
      </trkpt>
      <trkpt lat="43.70661" lon="6.96553">
        <ele>645</ele>
        <time>2015-11-07T11:04:33Z</time>
      </trkpt>
      <trkpt lat="43.70658" lon="6.96555">
        <ele>644.6</ele>
        <time>2015-11-07T11:04:34Z</time>
      </trkpt>
      <trkpt lat="43.70655" lon="6.96557">
        <ele>644</ele>
        <time>2015-11-07T11:04:35Z</time>
      </trkpt>
      <trkpt lat="43.70652" lon="6.96559">
        <ele>643.4</ele>
        <time>2015-11-07T11:04:36Z</time>
      </trkpt>
      <trkpt lat="43.70649" lon="6.9656">
        <ele>642.8</ele>
        <time>2015-11-07T11:04:37Z</time>
      </trkpt>
      <trkpt lat="43.70645" lon="6.96563">
        <ele>642</ele>
        <time>2015-11-07T11:04:38Z</time>
      </trkpt>
      <trkpt lat="43.70642" lon="6.96565">
        <ele>641.2</ele>
        <time>2015-11-07T11:04:39Z</time>
      </trkpt>
      <trkpt lat="43.70639" lon="6.96568">
        <ele>640.6</ele>
        <time>2015-11-07T11:04:40Z</time>
      </trkpt>
      <trkpt lat="43.70636" lon="6.96571">
        <ele>639.8</ele>
        <time>2015-11-07T11:04:41Z</time>
      </trkpt>
      <trkpt lat="43.70633" lon="6.96574">
        <ele>639.2</ele>
        <time>2015-11-07T11:04:42Z</time>
      </trkpt>
      <trkpt lat="43.7063" lon="6.96577">
        <ele>638.6</ele>
        <time>2015-11-07T11:04:43Z</time>
      </trkpt>
      <trkpt lat="43.70626" lon="6.9658">
        <ele>637.8</ele>
        <time>2015-11-07T11:04:44Z</time>
      </trkpt>
      <trkpt lat="43.70623" lon="6.96581">
        <ele>637</ele>
        <time>2015-11-07T11:04:45Z</time>
      </trkpt>
      <trkpt lat="43.70619" lon="6.96581">
        <ele>636</ele>
        <time>2015-11-07T11:04:46Z</time>
      </trkpt>
      <trkpt lat="43.70615" lon="6.9658">
        <ele>635.2</ele>
        <time>2015-11-07T11:04:47Z</time>
      </trkpt>
      <trkpt lat="43.70612" lon="6.96579">
        <ele>634.2</ele>
        <time>2015-11-07T11:04:48Z</time>
      </trkpt>
      <trkpt lat="43.70609" lon="6.9658">
        <ele>633.4</ele>
        <time>2015-11-07T11:04:49Z</time>
      </trkpt>
      <trkpt lat="43.70606" lon="6.96582">
        <ele>632.4</ele>
        <time>2015-11-07T11:04:50Z</time>
      </trkpt>
      <trkpt lat="43.70603" lon="6.96583">
        <ele>632</ele>
        <time>2015-11-07T11:04:51Z</time>
      </trkpt>
      <trkpt lat="43.70599" lon="6.96585">
        <ele>631.4</ele>
        <time>2015-11-07T11:04:52Z</time>
      </trkpt>
      <trkpt lat="43.70597" lon="6.96587">
        <ele>631</ele>
        <time>2015-11-07T11:04:53Z</time>
      </trkpt>
      <trkpt lat="43.70595" lon="6.96589">
        <ele>630.4</ele>
        <time>2015-11-07T11:04:54Z</time>
      </trkpt>
      <trkpt lat="43.70594" lon="6.96592">
        <ele>629.8</ele>
        <time>2015-11-07T11:04:55Z</time>
      </trkpt>
      <trkpt lat="43.70593" lon="6.96596">
        <ele>629.2</ele>
        <time>2015-11-07T11:04:56Z</time>
      </trkpt>
      <trkpt lat="43.70591" lon="6.966">
        <ele>628.6</ele>
        <time>2015-11-07T11:04:57Z</time>
      </trkpt>
      <trkpt lat="43.70589" lon="6.96603">
        <ele>628</ele>
        <time>2015-11-07T11:04:58Z</time>
      </trkpt>
      <trkpt lat="43.70586" lon="6.96604">
        <ele>627.4</ele>
        <time>2015-11-07T11:04:59Z</time>
      </trkpt>
      <trkpt lat="43.70582" lon="6.96606">
        <ele>626.8</ele>
        <time>2015-11-07T11:05:00Z</time>
      </trkpt>
      <trkpt lat="43.70579" lon="6.96609">
        <ele>626</ele>
        <time>2015-11-07T11:05:01Z</time>
      </trkpt>
      <trkpt lat="43.70578" lon="6.9661">
        <ele>625.2</ele>
        <time>2015-11-07T11:05:02Z</time>
      </trkpt>
      <trkpt lat="43.70576" lon="6.96612">
        <ele>624.4</ele>
        <time>2015-11-07T11:05:03Z</time>
      </trkpt>
      <trkpt lat="43.70575" lon="6.96613">
        <ele>623.6</ele>
        <time>2015-11-07T11:05:04Z</time>
      </trkpt>
      <trkpt lat="43.70572" lon="6.96614">
        <ele>622.8</ele>
        <time>2015-11-07T11:05:05Z</time>
      </trkpt>
      <trkpt lat="43.70568" lon="6.96615">
        <ele>622.2</ele>
        <time>2015-11-07T11:05:06Z</time>
      </trkpt>
      <trkpt lat="43.70565" lon="6.96615">
        <ele>621.4</ele>
        <time>2015-11-07T11:05:07Z</time>
      </trkpt>
      <trkpt lat="43.70562" lon="6.96616">
        <ele>620.6</ele>
        <time>2015-11-07T11:05:08Z</time>
      </trkpt>
      <trkpt lat="43.7056" lon="6.96618">
        <ele>619.8</ele>
        <time>2015-11-07T11:05:09Z</time>
      </trkpt>
      <trkpt lat="43.70558" lon="6.9662">
        <ele>619</ele>
        <time>2015-11-07T11:05:10Z</time>
      </trkpt>
      <trkpt lat="43.70556" lon="6.96621">
        <ele>618.4</ele>
        <time>2015-11-07T11:05:11Z</time>
      </trkpt>
      <trkpt lat="43.70554" lon="6.96623">
        <ele>617.6</ele>
        <time>2015-11-07T11:05:12Z</time>
      </trkpt>
      <trkpt lat="43.70551" lon="6.96624">
        <ele>616.8</ele>
        <time>2015-11-07T11:05:13Z</time>
      </trkpt>
      <trkpt lat="43.70549" lon="6.96625">
        <ele>616.4</ele>
        <time>2015-11-07T11:05:14Z</time>
      </trkpt>
      <trkpt lat="43.70548" lon="6.96627">
        <ele>615.8</ele>
        <time>2015-11-07T11:05:15Z</time>
      </trkpt>
      <trkpt lat="43.70548" lon="6.96631">
        <ele>615.4</ele>
        <time>2015-11-07T11:05:16Z</time>
      </trkpt>
      <trkpt lat="43.70548" lon="6.96635">
        <ele>615</ele>
        <time>2015-11-07T11:05:17Z</time>
      </trkpt>
      <trkpt lat="43.70548" lon="6.96641">
        <ele>614.4</ele>
        <time>2015-11-07T11:05:18Z</time>
      </trkpt>
      <trkpt lat="43.70547" lon="6.96651">
        <ele>614</ele>
        <time>2015-11-07T11:05:20Z</time>
      </trkpt>
      <trkpt lat="43.70545" lon="6.96658">
        <ele>613.6</ele>
        <time>2015-11-07T11:05:21Z</time>
      </trkpt>
      <trkpt lat="43.70546" lon="6.96665">
        <ele>613.2</ele>
        <time>2015-11-07T11:05:22Z</time>
      </trkpt>
      <trkpt lat="43.70548" lon="6.96672">
        <ele>612.8</ele>
        <time>2015-11-07T11:05:23Z</time>
      </trkpt>
      <trkpt lat="43.70549" lon="6.96678">
        <ele>612.4</ele>
        <time>2015-11-07T11:05:24Z</time>
      </trkpt>
      <trkpt lat="43.70549" lon="6.96689">
        <ele>611.8</ele>
        <time>2015-11-07T11:05:26Z</time>
      </trkpt>
      <trkpt lat="43.70548" lon="6.96694">
        <ele>611.4</ele>
        <time>2015-11-07T11:05:27Z</time>
      </trkpt>
      <trkpt lat="43.70546" lon="6.967">
        <ele>611</ele>
        <time>2015-11-07T11:05:28Z</time>
      </trkpt>
      <trkpt lat="43.70544" lon="6.96704">
        <ele>610.4</ele>
        <time>2015-11-07T11:05:29Z</time>
      </trkpt>
      <trkpt lat="43.70542" lon="6.96707">
        <ele>610</ele>
        <time>2015-11-07T11:05:30Z</time>
      </trkpt>
      <trkpt lat="43.7054" lon="6.96711">
        <ele>609.4</ele>
        <time>2015-11-07T11:05:31Z</time>
      </trkpt>
      <trkpt lat="43.70538" lon="6.96717">
        <ele>608.6</ele>
        <time>2015-11-07T11:05:32Z</time>
      </trkpt>
      <trkpt lat="43.70536" lon="6.96724">
        <ele>607.8</ele>
        <time>2015-11-07T11:05:33Z</time>
      </trkpt>
      <trkpt lat="43.70536" lon="6.96731">
        <ele>607</ele>
        <time>2015-11-07T11:05:34Z</time>
      </trkpt>
      <trkpt lat="43.70535" lon="6.96739">
        <ele>606.2</ele>
        <time>2015-11-07T11:05:35Z</time>
      </trkpt>
      <trkpt lat="43.70535" lon="6.96747">
        <ele>605.4</ele>
        <time>2015-11-07T11:05:36Z</time>
      </trkpt>
      <trkpt lat="43.70535" lon="6.96754">
        <ele>604.4</ele>
        <time>2015-11-07T11:05:37Z</time>
      </trkpt>
      <trkpt lat="43.70535" lon="6.9676">
        <ele>603.6</ele>
        <time>2015-11-07T11:05:38Z</time>
      </trkpt>
      <trkpt lat="43.70534" lon="6.96767">
        <ele>602.6</ele>
        <time>2015-11-07T11:05:39Z</time>
      </trkpt>
      <trkpt lat="43.70533" lon="6.96774">
        <ele>601.8</ele>
        <time>2015-11-07T11:05:40Z</time>
      </trkpt>
      <trkpt lat="43.70531" lon="6.9678">
        <ele>601</ele>
        <time>2015-11-07T11:05:41Z</time>
      </trkpt>
      <trkpt lat="43.7053" lon="6.96786">
        <ele>600.2</ele>
        <time>2015-11-07T11:05:42Z</time>
      </trkpt>
      <trkpt lat="43.7053" lon="6.96793">
        <ele>599.4</ele>
        <time>2015-11-07T11:05:43Z</time>
      </trkpt>
      <trkpt lat="43.70531" lon="6.968">
        <ele>598.8</ele>
        <time>2015-11-07T11:05:44Z</time>
      </trkpt>
      <trkpt lat="43.70532" lon="6.96807">
        <ele>598.2</ele>
        <time>2015-11-07T11:05:45Z</time>
      </trkpt>
      <trkpt lat="43.70532" lon="6.96813">
        <ele>597.4</ele>
        <time>2015-11-07T11:05:46Z</time>
      </trkpt>
      <trkpt lat="43.70531" lon="6.96818">
        <ele>596.8</ele>
        <time>2015-11-07T11:05:47Z</time>
      </trkpt>
      <trkpt lat="43.70531" lon="6.96824">
        <ele>596</ele>
        <time>2015-11-07T11:05:48Z</time>
      </trkpt>
      <trkpt lat="43.70529" lon="6.96828">
        <ele>595.2</ele>
        <time>2015-11-07T11:05:49Z</time>
      </trkpt>
      <trkpt lat="43.70529" lon="6.96833">
        <ele>594.4</ele>
        <time>2015-11-07T11:05:50Z</time>
      </trkpt>
      <trkpt lat="43.70528" lon="6.96838">
        <ele>593.6</ele>
        <time>2015-11-07T11:05:51Z</time>
      </trkpt>
      <trkpt lat="43.70528" lon="6.96845">
        <ele>591.8</ele>
        <time>2015-11-07T11:05:53Z</time>
      </trkpt>
      <trkpt lat="43.70528" lon="6.96854">
        <ele>590.2</ele>
        <time>2015-11-07T11:05:55Z</time>
      </trkpt>
      <trkpt lat="43.70528" lon="6.9686">
        <ele>589.8</ele>
        <time>2015-11-07T11:05:56Z</time>
      </trkpt>
      <trkpt lat="43.70527" lon="6.96873">
        <ele>589</ele>
        <time>2015-11-07T11:05:58Z</time>
      </trkpt>
      <trkpt lat="43.70527" lon="6.96877">
        <ele>588.2</ele>
        <time>2015-11-07T11:05:59Z</time>
      </trkpt>
      <trkpt lat="43.70527" lon="6.96881">
        <ele>587.6</ele>
        <time>2015-11-07T11:06:00Z</time>
      </trkpt>
      <trkpt lat="43.70529" lon="6.96889">
        <ele>586.2</ele>
        <time>2015-11-07T11:06:02Z</time>
      </trkpt>
      <trkpt lat="43.7053" lon="6.96902">
        <ele>585</ele>
        <time>2015-11-07T11:06:04Z</time>
      </trkpt>
      <trkpt lat="43.70531" lon="6.96908">
        <ele>584.6</ele>
        <time>2015-11-07T11:06:05Z</time>
      </trkpt>
      <trkpt lat="43.70532" lon="6.96919">
        <ele>583.6</ele>
        <time>2015-11-07T11:06:07Z</time>
      </trkpt>
      <trkpt lat="43.70532" lon="6.96925">
        <ele>582.8</ele>
        <time>2015-11-07T11:06:08Z</time>
      </trkpt>
      <trkpt lat="43.70533" lon="6.96932">
        <ele>582.2</ele>
        <time>2015-11-07T11:06:09Z</time>
      </trkpt>
      <trkpt lat="43.70534" lon="6.9694">
        <ele>582.2</ele>
        <time>2015-11-07T11:06:10Z</time>
      </trkpt>
      <trkpt lat="43.70535" lon="6.96947">
        <ele>581.4</ele>
        <time>2015-11-07T11:06:11Z</time>
      </trkpt>
      <trkpt lat="43.70538" lon="6.96953">
        <ele>580</ele>
        <time>2015-11-07T11:06:12Z</time>
      </trkpt>
      <trkpt lat="43.70542" lon="6.96961">
        <ele>579.4</ele>
        <time>2015-11-07T11:06:14Z</time>
      </trkpt>
      <trkpt lat="43.70544" lon="6.96962">
        <ele>578.6</ele>
        <time>2015-11-07T11:06:15Z</time>
      </trkpt>
      <trkpt lat="43.70545" lon="6.96965">
        <ele>577.2</ele>
        <time>2015-11-07T11:06:16Z</time>
      </trkpt>
      <trkpt lat="43.70549" lon="6.96981">
        <ele>576.6</ele>
        <time>2015-11-07T11:06:20Z</time>
      </trkpt>
      <trkpt lat="43.70551" lon="6.96985">
        <ele>575.8</ele>
        <time>2015-11-07T11:06:21Z</time>
      </trkpt>
      <trkpt lat="43.70554" lon="6.96993">
        <ele>574.8</ele>
        <time>2015-11-07T11:06:23Z</time>
      </trkpt>
      <trkpt lat="43.70556" lon="6.96996">
        <ele>574.2</ele>
        <time>2015-11-07T11:06:24Z</time>
      </trkpt>
      <trkpt lat="43.70558" lon="6.97004">
        <ele>573</ele>
        <time>2015-11-07T11:06:26Z</time>
      </trkpt>
      <trkpt lat="43.7056" lon="6.97011">
        <ele>572</ele>
        <time>2015-11-07T11:06:28Z</time>
      </trkpt>
      <trkpt lat="43.70561" lon="6.97015">
        <ele>571.4</ele>
        <time>2015-11-07T11:06:29Z</time>
      </trkpt>
      <trkpt lat="43.70563" lon="6.97019">
        <ele>570.8</ele>
        <time>2015-11-07T11:06:30Z</time>
      </trkpt>
      <trkpt lat="43.70564" lon="6.97022">
        <ele>570.2</ele>
        <time>2015-11-07T11:06:31Z</time>
      </trkpt>
      <trkpt lat="43.70565" lon="6.97024">
        <ele>570.2</ele>
        <time>2015-11-07T11:06:32Z</time>
      </trkpt>
      <trkpt lat="43.70567" lon="6.97028">
        <ele>569.4</ele>
        <time>2015-11-07T11:06:33Z</time>
      </trkpt>
      <trkpt lat="43.70569" lon="6.97031">
        <ele>568</ele>
        <time>2015-11-07T11:06:34Z</time>
      </trkpt>
      <trkpt lat="43.7057" lon="6.97034">
        <ele>567.6</ele>
        <time>2015-11-07T11:06:35Z</time>
      </trkpt>
      <trkpt lat="43.70572" lon="6.97036">
        <ele>567</ele>
        <time>2015-11-07T11:06:36Z</time>
      </trkpt>
      <trkpt lat="43.70573" lon="6.9704">
        <ele>566.4</ele>
        <time>2015-11-07T11:06:37Z</time>
      </trkpt>
      <trkpt lat="43.70576" lon="6.97044">
        <ele>566</ele>
        <time>2015-11-07T11:06:38Z</time>
      </trkpt>
      <trkpt lat="43.70577" lon="6.97047">
        <ele>565.4</ele>
        <time>2015-11-07T11:06:39Z</time>
      </trkpt>
      <trkpt lat="43.70578" lon="6.97051">
        <ele>564.6</ele>
        <time>2015-11-07T11:06:40Z</time>
      </trkpt>
      <trkpt lat="43.7058" lon="6.97054">
        <ele>564</ele>
        <time>2015-11-07T11:06:41Z</time>
      </trkpt>
      <trkpt lat="43.70582" lon="6.97057">
        <ele>563.4</ele>
        <time>2015-11-07T11:06:42Z</time>
      </trkpt>
      <trkpt lat="43.70584" lon="6.9706">
        <ele>562.8</ele>
        <time>2015-11-07T11:06:43Z</time>
      </trkpt>
      <trkpt lat="43.70585" lon="6.97061">
        <ele>562.2</ele>
        <time>2015-11-07T11:06:44Z</time>
      </trkpt>
      <trkpt lat="43.70588" lon="6.9706">
        <ele>561.6</ele>
        <time>2015-11-07T11:06:45Z</time>
      </trkpt>
      <trkpt lat="43.70588" lon="6.97061">
        <ele>561.2</ele>
        <time>2015-11-07T11:06:46Z</time>
      </trkpt>
      <trkpt lat="43.70589" lon="6.97061">
        <ele>560.6</ele>
        <time>2015-11-07T11:06:47Z</time>
      </trkpt>
      <trkpt lat="43.7059" lon="6.97063">
        <ele>560.6</ele>
        <time>2015-11-07T11:08:52Z</time>
      </trkpt>
      <trkpt lat="43.70596" lon="6.97064">
        <ele>560.6</ele>
        <time>2015-11-07T11:09:35Z</time>
      </trkpt>
      <trkpt lat="43.70605" lon="6.97065">
        <ele>561</ele>
        <time>2015-11-07T11:09:38Z</time>
      </trkpt>
      <trkpt lat="43.70609" lon="6.97065">
        <ele>561.4</ele>
        <time>2015-11-07T11:09:39Z</time>
      </trkpt>
      <trkpt lat="43.70611" lon="6.97066">
        <ele>561.8</ele>
        <time>2015-11-07T11:09:40Z</time>
      </trkpt>
      <trkpt lat="43.70614" lon="6.97066">
        <ele>562.4</ele>
        <time>2015-11-07T11:09:41Z</time>
      </trkpt>
      <trkpt lat="43.70617" lon="6.97066">
        <ele>562.8</ele>
        <time>2015-11-07T11:09:42Z</time>
      </trkpt>
      <trkpt lat="43.70631" lon="6.97066">
        <ele>562.8</ele>
        <time>2015-11-07T11:09:47Z</time>
      </trkpt>
      <trkpt lat="43.70636" lon="6.97066">
        <ele>563.2</ele>
        <time>2015-11-07T11:09:49Z</time>
      </trkpt>
      <trkpt lat="43.70639" lon="6.97067">
        <ele>563.6</ele>
        <time>2015-11-07T11:09:50Z</time>
      </trkpt>
      <trkpt lat="43.70641" lon="6.97066">
        <ele>564</ele>
        <time>2015-11-07T11:09:51Z</time>
      </trkpt>
      <trkpt lat="43.70644" lon="6.97066">
        <ele>564.4</ele>
        <time>2015-11-07T11:09:52Z</time>
      </trkpt>
      <trkpt lat="43.70647" lon="6.97066">
        <ele>564.8</ele>
        <time>2015-11-07T11:09:53Z</time>
      </trkpt>
      <trkpt lat="43.70662" lon="6.97065">
        <ele>564.8</ele>
        <time>2015-11-07T11:09:59Z</time>
      </trkpt>
      <trkpt lat="43.70686" lon="6.97064">
        <ele>564.8</ele>
        <time>2015-11-07T11:10:07Z</time>
      </trkpt>
      <trkpt lat="43.70698" lon="6.97066">
        <ele>565.2</ele>
        <time>2015-11-07T11:10:11Z</time>
      </trkpt>
      <trkpt lat="43.707" lon="6.97067">
        <ele>565.6</ele>
        <time>2015-11-07T11:10:12Z</time>
      </trkpt>
      <trkpt lat="43.70703" lon="6.97067">
        <ele>566.2</ele>
        <time>2015-11-07T11:10:13Z</time>
      </trkpt>
      <trkpt lat="43.70705" lon="6.97067">
        <ele>566.6</ele>
        <time>2015-11-07T11:10:14Z</time>
      </trkpt>
      <trkpt lat="43.70708" lon="6.97067">
        <ele>567</ele>
        <time>2015-11-07T11:10:15Z</time>
      </trkpt>
      <trkpt lat="43.70724" lon="6.97066">
        <ele>567</ele>
        <time>2015-11-07T11:10:21Z</time>
      </trkpt>
      <trkpt lat="43.70733" lon="6.97065">
        <ele>567.4</ele>
        <time>2015-11-07T11:10:25Z</time>
      </trkpt>
      <trkpt lat="43.70736" lon="6.97065">
        <ele>567.8</ele>
        <time>2015-11-07T11:10:26Z</time>
      </trkpt>
      <trkpt lat="43.70738" lon="6.97064">
        <ele>568.2</ele>
        <time>2015-11-07T11:10:27Z</time>
      </trkpt>
      <trkpt lat="43.7074" lon="6.97064">
        <ele>568.6</ele>
        <time>2015-11-07T11:10:28Z</time>
      </trkpt>
      <trkpt lat="43.70742" lon="6.97064">
        <ele>569</ele>
        <time>2015-11-07T11:10:29Z</time>
      </trkpt>
      <trkpt lat="43.70752" lon="6.97068">
        <ele>569</ele>
        <time>2015-11-07T11:10:34Z</time>
      </trkpt>
      <trkpt lat="43.7077" lon="6.97073">
        <ele>569</ele>
        <time>2015-11-07T11:10:40Z</time>
      </trkpt>
      <trkpt lat="43.70774" lon="6.97074">
        <ele>569.4</ele>
        <time>2015-11-07T11:10:42Z</time>
      </trkpt>
      <trkpt lat="43.70776" lon="6.97074">
        <ele>569.8</ele>
        <time>2015-11-07T11:10:43Z</time>
      </trkpt>
      <trkpt lat="43.70779" lon="6.97074">
        <ele>570.2</ele>
        <time>2015-11-07T11:10:44Z</time>
      </trkpt>
      <trkpt lat="43.70781" lon="6.97074">
        <ele>570.6</ele>
        <time>2015-11-07T11:10:45Z</time>
      </trkpt>
      <trkpt lat="43.70783" lon="6.97075">
        <ele>571</ele>
        <time>2015-11-07T11:10:46Z</time>
      </trkpt>
      <trkpt lat="43.70785" lon="6.97075">
        <ele>571</ele>
        <time>2015-11-07T11:10:47Z</time>
      </trkpt>
      <trkpt lat="43.70799" lon="6.97077">
        <ele>571</ele>
        <time>2015-11-07T11:10:53Z</time>
      </trkpt>
      <trkpt lat="43.70801" lon="6.97076">
        <ele>571.6</ele>
        <time>2015-11-07T11:10:54Z</time>
      </trkpt>
      <trkpt lat="43.70802" lon="6.97077">
        <ele>572</ele>
        <time>2015-11-07T11:10:55Z</time>
      </trkpt>
      <trkpt lat="43.70805" lon="6.97077">
        <ele>572.6</ele>
        <time>2015-11-07T11:10:56Z</time>
      </trkpt>
      <trkpt lat="43.70807" lon="6.97078">
        <ele>573</ele>
        <time>2015-11-07T11:10:57Z</time>
      </trkpt>
      <trkpt lat="43.70808" lon="6.97079">
        <ele>573.6</ele>
        <time>2015-11-07T11:10:58Z</time>
      </trkpt>
      <trkpt lat="43.70811" lon="6.97078">
        <ele>573.6</ele>
        <time>2015-11-07T11:11:00Z</time>
      </trkpt>
      <trkpt lat="43.70825" lon="6.97077">
        <ele>573.6</ele>
        <time>2015-11-07T11:11:06Z</time>
      </trkpt>
      <trkpt lat="43.70845" lon="6.97075">
        <ele>574</ele>
        <time>2015-11-07T11:11:13Z</time>
      </trkpt>
      <trkpt lat="43.70848" lon="6.97075">
        <ele>574.4</ele>
        <time>2015-11-07T11:11:14Z</time>
      </trkpt>
      <trkpt lat="43.7085" lon="6.97075">
        <ele>574.8</ele>
        <time>2015-11-07T11:11:15Z</time>
      </trkpt>
      <trkpt lat="43.70853" lon="6.97074">
        <ele>575.2</ele>
        <time>2015-11-07T11:11:16Z</time>
      </trkpt>
      <trkpt lat="43.70855" lon="6.97074">
        <ele>575.6</ele>
        <time>2015-11-07T11:11:17Z</time>
      </trkpt>
      <trkpt lat="43.70868" lon="6.97076">
        <ele>575.6</ele>
        <time>2015-11-07T11:11:22Z</time>
      </trkpt>
      <trkpt lat="43.70881" lon="6.97072">
        <ele>575.6</ele>
        <time>2015-11-07T11:11:28Z</time>
      </trkpt>
      <trkpt lat="43.70885" lon="6.97072">
        <ele>576</ele>
        <time>2015-11-07T11:11:32Z</time>
      </trkpt>
      <trkpt lat="43.70886" lon="6.97073">
        <ele>576.4</ele>
        <time>2015-11-07T11:11:33Z</time>
      </trkpt>
      <trkpt lat="43.70886" lon="6.97073">
        <ele>576.8</ele>
        <time>2015-11-07T11:11:34Z</time>
      </trkpt>
      <trkpt lat="43.70886" lon="6.97074">
        <ele>577.2</ele>
        <time>2015-11-07T11:11:35Z</time>
      </trkpt>
      <trkpt lat="43.70886" lon="6.97074">
        <ele>577.6</ele>
        <time>2015-11-07T11:11:36Z</time>
      </trkpt>
      <trkpt lat="43.70888" lon="6.97077">
        <ele>577.6</ele>
        <time>2015-11-07T11:12:06Z</time>
      </trkpt>
      <trkpt lat="43.7089" lon="6.97077">
        <ele>577.6</ele>
        <time>2015-11-07T11:12:07Z</time>
      </trkpt>
      <trkpt lat="43.70897" lon="6.97076">
        <ele>577.6</ele>
        <time>2015-11-07T11:12:10Z</time>
      </trkpt>
      <trkpt lat="43.70902" lon="6.97074">
        <ele>577.6</ele>
        <time>2015-11-07T11:12:13Z</time>
      </trkpt>
      <trkpt lat="43.70905" lon="6.9707">
        <ele>577.6</ele>
        <time>2015-11-07T11:12:15Z</time>
      </trkpt>
      <trkpt lat="43.7091" lon="6.97064">
        <ele>577.6</ele>
        <time>2015-11-07T11:12:18Z</time>
      </trkpt>
      <trkpt lat="43.70918" lon="6.97059">
        <ele>577.6</ele>
        <time>2015-11-07T11:12:23Z</time>
      </trkpt>
      <trkpt lat="43.70934" lon="6.97055">
        <ele>577.6</ele>
        <time>2015-11-07T11:12:29Z</time>
      </trkpt>
      <trkpt lat="43.70936" lon="6.97063">
        <ele>577.2</ele>
        <time>2015-11-07T11:12:32Z</time>
      </trkpt>
      <trkpt lat="43.70935" lon="6.97066">
        <ele>576.8</ele>
        <time>2015-11-07T11:12:33Z</time>
      </trkpt>
      <trkpt lat="43.70933" lon="6.97069">
        <ele>576.4</ele>
        <time>2015-11-07T11:12:34Z</time>
      </trkpt>
      <trkpt lat="43.70931" lon="6.97074">
        <ele>575.8</ele>
        <time>2015-11-07T11:12:35Z</time>
      </trkpt>
      <trkpt lat="43.7093" lon="6.97077">
        <ele>575.4</ele>
        <time>2015-11-07T11:12:36Z</time>
      </trkpt>
      <trkpt lat="43.70924" lon="6.97095">
        <ele>575.4</ele>
        <time>2015-11-07T11:12:40Z</time>
      </trkpt>
      <trkpt lat="43.70922" lon="6.97101">
        <ele>575</ele>
        <time>2015-11-07T11:12:41Z</time>
      </trkpt>
      <trkpt lat="43.7092" lon="6.97107">
        <ele>574.6</ele>
        <time>2015-11-07T11:12:42Z</time>
      </trkpt>
      <trkpt lat="43.70918" lon="6.97114">
        <ele>574</ele>
        <time>2015-11-07T11:12:43Z</time>
      </trkpt>
      <trkpt lat="43.70916" lon="6.97119">
        <ele>573.4</ele>
        <time>2015-11-07T11:12:44Z</time>
      </trkpt>
      <trkpt lat="43.70914" lon="6.97126">
        <ele>572.6</ele>
        <time>2015-11-07T11:12:45Z</time>
      </trkpt>
      <trkpt lat="43.70911" lon="6.97132">
        <ele>571.8</ele>
        <time>2015-11-07T11:12:46Z</time>
      </trkpt>
      <trkpt lat="43.70908" lon="6.97138">
        <ele>571.2</ele>
        <time>2015-11-07T11:12:47Z</time>
      </trkpt>
      <trkpt lat="43.70906" lon="6.97144">
        <ele>570.4</ele>
        <time>2015-11-07T11:12:48Z</time>
      </trkpt>
      <trkpt lat="43.70905" lon="6.9715">
        <ele>570</ele>
        <time>2015-11-07T11:12:49Z</time>
      </trkpt>
      <trkpt lat="43.70902" lon="6.97158">
        <ele>569.4</ele>
        <time>2015-11-07T11:12:50Z</time>
      </trkpt>
      <trkpt lat="43.709" lon="6.97165">
        <ele>569</ele>
        <time>2015-11-07T11:12:51Z</time>
      </trkpt>
      <trkpt lat="43.70897" lon="6.97172">
        <ele>568.4</ele>
        <time>2015-11-07T11:12:52Z</time>
      </trkpt>
      <trkpt lat="43.70894" lon="6.97179">
        <ele>567.8</ele>
        <time>2015-11-07T11:12:53Z</time>
      </trkpt>
      <trkpt lat="43.70891" lon="6.97187">
        <ele>567</ele>
        <time>2015-11-07T11:12:54Z</time>
      </trkpt>
      <trkpt lat="43.70887" lon="6.97195">
        <ele>566.4</ele>
        <time>2015-11-07T11:12:55Z</time>
      </trkpt>
      <trkpt lat="43.70883" lon="6.972">
        <ele>565.6</ele>
        <time>2015-11-07T11:12:56Z</time>
      </trkpt>
      <trkpt lat="43.70879" lon="6.97206">
        <ele>565</ele>
        <time>2015-11-07T11:12:57Z</time>
      </trkpt>
      <trkpt lat="43.70874" lon="6.97211">
        <ele>564.4</ele>
        <time>2015-11-07T11:12:58Z</time>
      </trkpt>
      <trkpt lat="43.70869" lon="6.97216">
        <ele>563.6</ele>
        <time>2015-11-07T11:12:59Z</time>
      </trkpt>
      <trkpt lat="43.70863" lon="6.97221">
        <ele>563.6</ele>
        <time>2015-11-07T11:13:00Z</time>
      </trkpt>
      <trkpt lat="43.70858" lon="6.97226">
        <ele>563.2</ele>
        <time>2015-11-07T11:13:01Z</time>
      </trkpt>
      <trkpt lat="43.70852" lon="6.97232">
        <ele>562.8</ele>
        <time>2015-11-07T11:13:02Z</time>
      </trkpt>
      <trkpt lat="43.70846" lon="6.97238">
        <ele>562.2</ele>
        <time>2015-11-07T11:13:03Z</time>
      </trkpt>
      <trkpt lat="43.70841" lon="6.97245">
        <ele>561.4</ele>
        <time>2015-11-07T11:13:04Z</time>
      </trkpt>
      <trkpt lat="43.70836" lon="6.97253">
        <ele>560.6</ele>
        <time>2015-11-07T11:13:05Z</time>
      </trkpt>
      <trkpt lat="43.70831" lon="6.97261">
        <ele>559.6</ele>
        <time>2015-11-07T11:13:06Z</time>
      </trkpt>
      <trkpt lat="43.70826" lon="6.9727">
        <ele>558.8</ele>
        <time>2015-11-07T11:13:07Z</time>
      </trkpt>
      <trkpt lat="43.70821" lon="6.97279">
        <ele>557.8</ele>
        <time>2015-11-07T11:13:08Z</time>
      </trkpt>
      <trkpt lat="43.70816" lon="6.97288">
        <ele>557</ele>
        <time>2015-11-07T11:13:09Z</time>
      </trkpt>
      <trkpt lat="43.70812" lon="6.97297">
        <ele>556.2</ele>
        <time>2015-11-07T11:13:10Z</time>
      </trkpt>
      <trkpt lat="43.70808" lon="6.97306">
        <ele>555.4</ele>
        <time>2015-11-07T11:13:11Z</time>
      </trkpt>
      <trkpt lat="43.70805" lon="6.97314">
        <ele>554.6</ele>
        <time>2015-11-07T11:13:12Z</time>
      </trkpt>
      <trkpt lat="43.70803" lon="6.97323">
        <ele>553.8</ele>
        <time>2015-11-07T11:13:13Z</time>
      </trkpt>
      <trkpt lat="43.70802" lon="6.97331">
        <ele>553</ele>
        <time>2015-11-07T11:13:14Z</time>
      </trkpt>
      <trkpt lat="43.708" lon="6.97339">
        <ele>552.4</ele>
        <time>2015-11-07T11:13:15Z</time>
      </trkpt>
      <trkpt lat="43.70798" lon="6.97344">
        <ele>551.6</ele>
        <time>2015-11-07T11:13:16Z</time>
      </trkpt>
      <trkpt lat="43.70797" lon="6.97349">
        <ele>551</ele>
        <time>2015-11-07T11:13:17Z</time>
      </trkpt>
      <trkpt lat="43.70795" lon="6.97354">
        <ele>550.2</ele>
        <time>2015-11-07T11:13:18Z</time>
      </trkpt>
      <trkpt lat="43.70792" lon="6.97357">
        <ele>549.8</ele>
        <time>2015-11-07T11:13:19Z</time>
      </trkpt>
      <trkpt lat="43.70791" lon="6.9736">
        <ele>549.4</ele>
        <time>2015-11-07T11:13:20Z</time>
      </trkpt>
      <trkpt lat="43.70789" lon="6.97364">
        <ele>548.8</ele>
        <time>2015-11-07T11:13:21Z</time>
      </trkpt>
      <trkpt lat="43.70788" lon="6.97367">
        <ele>548.4</ele>
        <time>2015-11-07T11:13:22Z</time>
      </trkpt>
      <trkpt lat="43.70787" lon="6.9737">
        <ele>548</ele>
        <time>2015-11-07T11:13:23Z</time>
      </trkpt>
      <trkpt lat="43.70785" lon="6.9738">
        <ele>548</ele>
        <time>2015-11-07T11:13:26Z</time>
      </trkpt>
      <trkpt lat="43.70785" lon="6.97382">
        <ele>548</ele>
        <time>2015-11-07T11:13:30Z</time>
      </trkpt>
      <trkpt lat="43.70784" lon="6.97384">
        <ele>547.6</ele>
        <time>2015-11-07T11:15:03Z</time>
      </trkpt>
      <trkpt lat="43.70784" lon="6.97384">
        <ele>547.2</ele>
        <time>2015-11-07T11:15:04Z</time>
      </trkpt>
      <trkpt lat="43.70784" lon="6.97384">
        <ele>546.8</ele>
        <time>2015-11-07T11:15:05Z</time>
      </trkpt>
      <trkpt lat="43.70784" lon="6.97384">
        <ele>546.4</ele>
        <time>2015-11-07T11:15:06Z</time>
      </trkpt>
      <trkpt lat="43.70784" lon="6.97384">
        <ele>546</ele>
        <time>2015-11-07T11:15:07Z</time>
      </trkpt>
      <trkpt lat="43.70784" lon="6.97384">
        <ele>546</ele>
        <time>2015-11-07T11:16:21Z</time>
      </trkpt>
      <trkpt lat="43.70784" lon="6.97384">
        <ele>546</ele>
        <time>2015-11-07T11:18:37Z</time>
      </trkpt>
      <trkpt lat="43.70784" lon="6.97383">
        <ele>546</ele>
        <time>2015-11-07T11:20:55Z</time>
      </trkpt>
      <trkpt lat="43.70784" lon="6.97383">
        <ele>546</ele>
        <time>2015-11-07T11:24:26Z</time>
      </trkpt>
      <trkpt lat="43.70784" lon="6.97383">
        <ele>546</ele>
        <time>2015-11-07T11:27:40Z</time>
      </trkpt>
      <trkpt lat="43.70784" lon="6.97381">
        <ele>546</ele>
        <time>2015-11-07T11:28:24Z</time>
      </trkpt>
      <trkpt lat="43.70787" lon="6.97389">
        <ele>546</ele>
        <time>2015-11-07T11:29:37Z</time>
      </trkpt>
      <trkpt lat="43.70786" lon="6.97413">
        <ele>546</ele>
        <time>2015-11-07T11:29:45Z</time>
      </trkpt>
      <trkpt lat="43.70782" lon="6.97431">
        <ele>546</ele>
        <time>2015-11-07T11:29:50Z</time>
      </trkpt>
      <trkpt lat="43.7078" lon="6.97434">
        <ele>546</ele>
        <time>2015-11-07T11:29:52Z</time>
      </trkpt>
      <trkpt lat="43.7078" lon="6.97434">
        <ele>546</ele>
        <time>2015-11-07T11:29:55Z</time>
      </trkpt>
      <trkpt lat="43.7078" lon="6.97434">
        <ele>545.6</ele>
        <time>2015-11-07T11:29:58Z</time>
      </trkpt>
      <trkpt lat="43.70778" lon="6.97435">
        <ele>545</ele>
        <time>2015-11-07T11:29:59Z</time>
      </trkpt>
      <trkpt lat="43.70776" lon="6.97437">
        <ele>544.6</ele>
        <time>2015-11-07T11:30:00Z</time>
      </trkpt>
      <trkpt lat="43.70773" lon="6.97439">
        <ele>544.2</ele>
        <time>2015-11-07T11:30:01Z</time>
      </trkpt>
      <trkpt lat="43.70771" lon="6.97444">
        <ele>543.6</ele>
        <time>2015-11-07T11:30:02Z</time>
      </trkpt>
      <trkpt lat="43.70768" lon="6.97449">
        <ele>543.2</ele>
        <time>2015-11-07T11:30:03Z</time>
      </trkpt>
      <trkpt lat="43.70765" lon="6.97455">
        <ele>542.8</ele>
        <time>2015-11-07T11:30:04Z</time>
      </trkpt>
      <trkpt lat="43.70761" lon="6.97461">
        <ele>542.4</ele>
        <time>2015-11-07T11:30:05Z</time>
      </trkpt>
      <trkpt lat="43.70758" lon="6.97466">
        <ele>541.8</ele>
        <time>2015-11-07T11:30:06Z</time>
      </trkpt>
      <trkpt lat="43.70754" lon="6.97473">
        <ele>541.2</ele>
        <time>2015-11-07T11:30:07Z</time>
      </trkpt>
      <trkpt lat="43.70749" lon="6.97481">
        <ele>540.6</ele>
        <time>2015-11-07T11:30:08Z</time>
      </trkpt>
      <trkpt lat="43.70744" lon="6.9749">
        <ele>540</ele>
        <time>2015-11-07T11:30:09Z</time>
      </trkpt>
      <trkpt lat="43.70739" lon="6.97498">
        <ele>539.4</ele>
        <time>2015-11-07T11:30:10Z</time>
      </trkpt>
      <trkpt lat="43.70732" lon="6.97505">
        <ele>538.8</ele>
        <time>2015-11-07T11:30:11Z</time>
      </trkpt>
      <trkpt lat="43.70724" lon="6.97511">
        <ele>537.8</ele>
        <time>2015-11-07T11:30:12Z</time>
      </trkpt>
      <trkpt lat="43.70716" lon="6.97515">
        <ele>537</ele>
        <time>2015-11-07T11:30:13Z</time>
      </trkpt>
      <trkpt lat="43.70709" lon="6.9752">
        <ele>536.2</ele>
        <time>2015-11-07T11:30:14Z</time>
      </trkpt>
      <trkpt lat="43.70701" lon="6.97524">
        <ele>535.4</ele>
        <time>2015-11-07T11:30:15Z</time>
      </trkpt>
      <trkpt lat="43.70693" lon="6.97528">
        <ele>534.6</ele>
        <time>2015-11-07T11:30:16Z</time>
      </trkpt>
      <trkpt lat="43.70685" lon="6.97533">
        <ele>533.8</ele>
        <time>2015-11-07T11:30:17Z</time>
      </trkpt>
      <trkpt lat="43.70677" lon="6.97536">
        <ele>533</ele>
        <time>2015-11-07T11:30:18Z</time>
      </trkpt>
      <trkpt lat="43.7067" lon="6.97539">
        <ele>532.2</ele>
        <time>2015-11-07T11:30:19Z</time>
      </trkpt>
      <trkpt lat="43.70662" lon="6.97542">
        <ele>531.4</ele>
        <time>2015-11-07T11:30:20Z</time>
      </trkpt>
      <trkpt lat="43.70654" lon="6.97546">
        <ele>530.6</ele>
        <time>2015-11-07T11:30:21Z</time>
      </trkpt>
      <trkpt lat="43.70648" lon="6.97551">
        <ele>530</ele>
        <time>2015-11-07T11:30:22Z</time>
      </trkpt>
      <trkpt lat="43.70642" lon="6.97557">
        <ele>530</ele>
        <time>2015-11-07T11:30:23Z</time>
      </trkpt>
      <trkpt lat="43.70633" lon="6.97566">
        <ele>530</ele>
        <time>2015-11-07T11:30:25Z</time>
      </trkpt>
      <trkpt lat="43.70623" lon="6.97568">
        <ele>530</ele>
        <time>2015-11-07T11:30:27Z</time>
      </trkpt>
      <trkpt lat="43.70606" lon="6.97567">
        <ele>530</ele>
        <time>2015-11-07T11:30:32Z</time>
      </trkpt>
      <trkpt lat="43.70599" lon="6.97555">
        <ele>530</ele>
        <time>2015-11-07T11:30:37Z</time>
      </trkpt>
      <trkpt lat="43.70597" lon="6.97552">
        <ele>529.4</ele>
        <time>2015-11-07T11:30:38Z</time>
      </trkpt>
      <trkpt lat="43.70596" lon="6.97549">
        <ele>528.8</ele>
        <time>2015-11-07T11:30:39Z</time>
      </trkpt>
      <trkpt lat="43.70594" lon="6.97545">
        <ele>528.4</ele>
        <time>2015-11-07T11:30:40Z</time>
      </trkpt>
      <trkpt lat="43.70593" lon="6.97541">
        <ele>527.8</ele>
        <time>2015-11-07T11:30:41Z</time>
      </trkpt>
      <trkpt lat="43.70594" lon="6.97538">
        <ele>527.2</ele>
        <time>2015-11-07T11:30:42Z</time>
      </trkpt>
      <trkpt lat="43.70595" lon="6.97537">
        <ele>526.8</ele>
        <time>2015-11-07T11:30:43Z</time>
      </trkpt>
      <trkpt lat="43.70596" lon="6.97535">
        <ele>526.2</ele>
        <time>2015-11-07T11:30:44Z</time>
      </trkpt>
      <trkpt lat="43.70597" lon="6.97532">
        <ele>525.6</ele>
        <time>2015-11-07T11:30:45Z</time>
      </trkpt>
      <trkpt lat="43.70598" lon="6.97529">
        <ele>525</ele>
        <time>2015-11-07T11:30:46Z</time>
      </trkpt>
      <trkpt lat="43.70597" lon="6.97526">
        <ele>525</ele>
        <time>2015-11-07T11:30:47Z</time>
      </trkpt>
      <trkpt lat="43.70596" lon="6.97523">
        <ele>524.6</ele>
        <time>2015-11-07T11:30:48Z</time>
      </trkpt>
      <trkpt lat="43.70594" lon="6.97521">
        <ele>524.2</ele>
        <time>2015-11-07T11:30:49Z</time>
      </trkpt>
      <trkpt lat="43.70592" lon="6.97518">
        <ele>523.8</ele>
        <time>2015-11-07T11:30:50Z</time>
      </trkpt>
      <trkpt lat="43.70591" lon="6.97516">
        <ele>523.4</ele>
        <time>2015-11-07T11:30:51Z</time>
      </trkpt>
      <trkpt lat="43.7059" lon="6.97513">
        <ele>522.8</ele>
        <time>2015-11-07T11:30:52Z</time>
      </trkpt>
      <trkpt lat="43.70588" lon="6.97511">
        <ele>522.2</ele>
        <time>2015-11-07T11:30:53Z</time>
      </trkpt>
      <trkpt lat="43.70586" lon="6.97504">
        <ele>521.8</ele>
        <time>2015-11-07T11:30:55Z</time>
      </trkpt>
      <trkpt lat="43.70585" lon="6.97502">
        <ele>521.2</ele>
        <time>2015-11-07T11:30:56Z</time>
      </trkpt>
      <trkpt lat="43.70584" lon="6.975">
        <ele>520.6</ele>
        <time>2015-11-07T11:30:57Z</time>
      </trkpt>
      <trkpt lat="43.70582" lon="6.97497">
        <ele>519.8</ele>
        <time>2015-11-07T11:30:58Z</time>
      </trkpt>
      <trkpt lat="43.70581" lon="6.97494">
        <ele>519.2</ele>
        <time>2015-11-07T11:30:59Z</time>
      </trkpt>
      <trkpt lat="43.7058" lon="6.97491">
        <ele>518.6</ele>
        <time>2015-11-07T11:31:00Z</time>
      </trkpt>
      <trkpt lat="43.70579" lon="6.97488">
        <ele>518</ele>
        <time>2015-11-07T11:31:01Z</time>
      </trkpt>
      <trkpt lat="43.70579" lon="6.97485">
        <ele>517.2</ele>
        <time>2015-11-07T11:31:02Z</time>
      </trkpt>
      <trkpt lat="43.70578" lon="6.97482">
        <ele>516.6</ele>
        <time>2015-11-07T11:31:03Z</time>
      </trkpt>
      <trkpt lat="43.70577" lon="6.97479">
        <ele>516</ele>
        <time>2015-11-07T11:31:04Z</time>
      </trkpt>
      <trkpt lat="43.70576" lon="6.97477">
        <ele>515.4</ele>
        <time>2015-11-07T11:31:05Z</time>
      </trkpt>
      <trkpt lat="43.70574" lon="6.97476">
        <ele>515</ele>
        <time>2015-11-07T11:31:06Z</time>
      </trkpt>
      <trkpt lat="43.70571" lon="6.97476">
        <ele>514.4</ele>
        <time>2015-11-07T11:31:07Z</time>
      </trkpt>
      <trkpt lat="43.70568" lon="6.97477">
        <ele>513.8</ele>
        <time>2015-11-07T11:31:08Z</time>
      </trkpt>
      <trkpt lat="43.70563" lon="6.97475">
        <ele>513.4</ele>
        <time>2015-11-07T11:31:10Z</time>
      </trkpt>
      <trkpt lat="43.7056" lon="6.97473">
        <ele>513</ele>
        <time>2015-11-07T11:31:11Z</time>
      </trkpt>
      <trkpt lat="43.70557" lon="6.97472">
        <ele>512.6</ele>
        <time>2015-11-07T11:31:12Z</time>
      </trkpt>
      <trkpt lat="43.70553" lon="6.97476">
        <ele>512.2</ele>
        <time>2015-11-07T11:31:13Z</time>
      </trkpt>
      <trkpt lat="43.7055" lon="6.97476">
        <ele>511.8</ele>
        <time>2015-11-07T11:31:14Z</time>
      </trkpt>
      <trkpt lat="43.70541" lon="6.97475">
        <ele>511.4</ele>
        <time>2015-11-07T11:31:18Z</time>
      </trkpt>
      <trkpt lat="43.70538" lon="6.97474">
        <ele>510.8</ele>
        <time>2015-11-07T11:31:19Z</time>
      </trkpt>
      <trkpt lat="43.70536" lon="6.97474">
        <ele>510.4</ele>
        <time>2015-11-07T11:31:20Z</time>
      </trkpt>
      <trkpt lat="43.70535" lon="6.97473">
        <ele>509.8</ele>
        <time>2015-11-07T11:31:21Z</time>
      </trkpt>
      <trkpt lat="43.70533" lon="6.97472">
        <ele>509.4</ele>
        <time>2015-11-07T11:31:22Z</time>
      </trkpt>
      <trkpt lat="43.70532" lon="6.9747">
        <ele>509</ele>
        <time>2015-11-07T11:31:23Z</time>
      </trkpt>
      <trkpt lat="43.7053" lon="6.97468">
        <ele>508.4</ele>
        <time>2015-11-07T11:31:24Z</time>
      </trkpt>
      <trkpt lat="43.70529" lon="6.97467">
        <ele>508</ele>
        <time>2015-11-07T11:31:25Z</time>
      </trkpt>
      <trkpt lat="43.70527" lon="6.97466">
        <ele>507.4</ele>
        <time>2015-11-07T11:31:26Z</time>
      </trkpt>
      <trkpt lat="43.70524" lon="6.97466">
        <ele>506.8</ele>
        <time>2015-11-07T11:31:27Z</time>
      </trkpt>
      <trkpt lat="43.70521" lon="6.97467">
        <ele>506.4</ele>
        <time>2015-11-07T11:31:28Z</time>
      </trkpt>
      <trkpt lat="43.70518" lon="6.97467">
        <ele>505.8</ele>
        <time>2015-11-07T11:31:29Z</time>
      </trkpt>
      <trkpt lat="43.70514" lon="6.97467">
        <ele>505.2</ele>
        <time>2015-11-07T11:31:30Z</time>
      </trkpt>
      <trkpt lat="43.70511" lon="6.97468">
        <ele>504.8</ele>
        <time>2015-11-07T11:31:31Z</time>
      </trkpt>
      <trkpt lat="43.70504" lon="6.97468">
        <ele>504.2</ele>
        <time>2015-11-07T11:31:34Z</time>
      </trkpt>
      <trkpt lat="43.70502" lon="6.97468">
        <ele>503.8</ele>
        <time>2015-11-07T11:31:35Z</time>
      </trkpt>
      <trkpt lat="43.70502" lon="6.97467">
        <ele>503.2</ele>
        <time>2015-11-07T11:31:36Z</time>
      </trkpt>
      <trkpt lat="43.70501" lon="6.97467">
        <ele>502.8</ele>
        <time>2015-11-07T11:31:37Z</time>
      </trkpt>
      <trkpt lat="43.70499" lon="6.97466">
        <ele>502.2</ele>
        <time>2015-11-07T11:31:38Z</time>
      </trkpt>
      <trkpt lat="43.70497" lon="6.97466">
        <ele>501.8</ele>
        <time>2015-11-07T11:31:39Z</time>
      </trkpt>
      <trkpt lat="43.70496" lon="6.97464">
        <ele>501.4</ele>
        <time>2015-11-07T11:31:40Z</time>
      </trkpt>
      <trkpt lat="43.70493" lon="6.97464">
        <ele>500.8</ele>
        <time>2015-11-07T11:31:41Z</time>
      </trkpt>
      <trkpt lat="43.70491" lon="6.97466">
        <ele>500.4</ele>
        <time>2015-11-07T11:31:42Z</time>
      </trkpt>
      <trkpt lat="43.70488" lon="6.97464">
        <ele>500</ele>
        <time>2015-11-07T11:31:43Z</time>
      </trkpt>
      <trkpt lat="43.70485" lon="6.97466">
        <ele>499.6</ele>
        <time>2015-11-07T11:31:44Z</time>
      </trkpt>
      <trkpt lat="43.70483" lon="6.97467">
        <ele>499</ele>
        <time>2015-11-07T11:31:45Z</time>
      </trkpt>
      <trkpt lat="43.70479" lon="6.97465">
        <ele>498.6</ele>
        <time>2015-11-07T11:31:46Z</time>
      </trkpt>
      <trkpt lat="43.70476" lon="6.97466">
        <ele>498.2</ele>
        <time>2015-11-07T11:31:47Z</time>
      </trkpt>
      <trkpt lat="43.70474" lon="6.97466">
        <ele>497.8</ele>
        <time>2015-11-07T11:31:48Z</time>
      </trkpt>
      <trkpt lat="43.70471" lon="6.97464">
        <ele>497.8</ele>
        <time>2015-11-07T11:31:50Z</time>
      </trkpt>
      <trkpt lat="43.70467" lon="6.9746">
        <ele>497.4</ele>
        <time>2015-11-07T11:31:53Z</time>
      </trkpt>
      <trkpt lat="43.70465" lon="6.97459">
        <ele>496.8</ele>
        <time>2015-11-07T11:31:54Z</time>
      </trkpt>
      <trkpt lat="43.70462" lon="6.97458">
        <ele>496.4</ele>
        <time>2015-11-07T11:31:55Z</time>
      </trkpt>
      <trkpt lat="43.70459" lon="6.97457">
        <ele>496</ele>
        <time>2015-11-07T11:31:56Z</time>
      </trkpt>
      <trkpt lat="43.70458" lon="6.97457">
        <ele>495.4</ele>
        <time>2015-11-07T11:31:57Z</time>
      </trkpt>
      <trkpt lat="43.70458" lon="6.97455">
        <ele>495.4</ele>
        <time>2015-11-07T11:32:00Z</time>
      </trkpt>
      <trkpt lat="43.70461" lon="6.97451">
        <ele>495</ele>
        <time>2015-11-07T11:32:02Z</time>
      </trkpt>
      <trkpt lat="43.70463" lon="6.97448">
        <ele>494.6</ele>
        <time>2015-11-07T11:32:03Z</time>
      </trkpt>
      <trkpt lat="43.70464" lon="6.97446">
        <ele>494.2</ele>
        <time>2015-11-07T11:32:04Z</time>
      </trkpt>
      <trkpt lat="43.70464" lon="6.97444">
        <ele>493.8</ele>
        <time>2015-11-07T11:32:05Z</time>
      </trkpt>
      <trkpt lat="43.70463" lon="6.97443">
        <ele>493.4</ele>
        <time>2015-11-07T11:32:06Z</time>
      </trkpt>
      <trkpt lat="43.7046" lon="6.97442">
        <ele>493.4</ele>
        <time>2015-11-07T11:32:07Z</time>
      </trkpt>
      <trkpt lat="43.70458" lon="6.97441">
        <ele>493.4</ele>
        <time>2015-11-07T11:32:08Z</time>
      </trkpt>
      <trkpt lat="43.70454" lon="6.97438">
        <ele>493</ele>
        <time>2015-11-07T11:32:11Z</time>
      </trkpt>
      <trkpt lat="43.70454" lon="6.97438">
        <ele>492.6</ele>
        <time>2015-11-07T11:32:12Z</time>
      </trkpt>
      <trkpt lat="43.70454" lon="6.97438">
        <ele>492</ele>
        <time>2015-11-07T11:32:13Z</time>
      </trkpt>
      <trkpt lat="43.70455" lon="6.97435">
        <ele>491.6</ele>
        <time>2015-11-07T11:32:14Z</time>
      </trkpt>
      <trkpt lat="43.70456" lon="6.97432">
        <ele>491.2</ele>
        <time>2015-11-07T11:32:15Z</time>
      </trkpt>
      <trkpt lat="43.70456" lon="6.97425">
        <ele>490.8</ele>
        <time>2015-11-07T11:32:17Z</time>
      </trkpt>
      <trkpt lat="43.70455" lon="6.97422">
        <ele>490.4</ele>
        <time>2015-11-07T11:32:18Z</time>
      </trkpt>
      <trkpt lat="43.70452" lon="6.97422">
        <ele>490</ele>
        <time>2015-11-07T11:32:19Z</time>
      </trkpt>
      <trkpt lat="43.7045" lon="6.97419">
        <ele>489.4</ele>
        <time>2015-11-07T11:32:20Z</time>
      </trkpt>
      <trkpt lat="43.70449" lon="6.97417">
        <ele>489</ele>
        <time>2015-11-07T11:32:21Z</time>
      </trkpt>
      <trkpt lat="43.70448" lon="6.974">
        <ele>488.6</ele>
        <time>2015-11-07T11:32:25Z</time>
      </trkpt>
      <trkpt lat="43.70447" lon="6.97397">
        <ele>488.2</ele>
        <time>2015-11-07T11:32:26Z</time>
      </trkpt>
      <trkpt lat="43.70446" lon="6.97395">
        <ele>487.8</ele>
        <time>2015-11-07T11:32:27Z</time>
      </trkpt>
      <trkpt lat="43.70444" lon="6.97393">
        <ele>487.4</ele>
        <time>2015-11-07T11:32:28Z</time>
      </trkpt>
      <trkpt lat="43.70442" lon="6.97393">
        <ele>487</ele>
        <time>2015-11-07T11:32:29Z</time>
      </trkpt>
      <trkpt lat="43.70432" lon="6.97389">
        <ele>487</ele>
        <time>2015-11-07T11:32:33Z</time>
      </trkpt>
      <trkpt lat="43.70427" lon="6.97391">
        <ele>487</ele>
        <time>2015-11-07T11:32:36Z</time>
      </trkpt>
      <trkpt lat="43.70428" lon="6.97393">
        <ele>487</ele>
        <time>2015-11-07T11:32:37Z</time>
      </trkpt>
      <trkpt lat="43.70432" lon="6.97398">
        <ele>487</ele>
        <time>2015-11-07T11:32:40Z</time>
      </trkpt>
      <trkpt lat="43.70432" lon="6.97401">
        <ele>486.4</ele>
        <time>2015-11-07T11:32:43Z</time>
      </trkpt>
      <trkpt lat="43.70431" lon="6.97401">
        <ele>486</ele>
        <time>2015-11-07T11:32:44Z</time>
      </trkpt>
      <trkpt lat="43.7043" lon="6.97402">
        <ele>485.4</ele>
        <time>2015-11-07T11:32:45Z</time>
      </trkpt>
      <trkpt lat="43.70427" lon="6.97401">
        <ele>485</ele>
        <time>2015-11-07T11:32:46Z</time>
      </trkpt>
      <trkpt lat="43.70426" lon="6.97401">
        <ele>484.4</ele>
        <time>2015-11-07T11:32:47Z</time>
      </trkpt>
      <trkpt lat="43.70422" lon="6.974">
        <ele>484</ele>
        <time>2015-11-07T11:32:49Z</time>
      </trkpt>
      <trkpt lat="43.7042" lon="6.974">
        <ele>483.6</ele>
        <time>2015-11-07T11:32:50Z</time>
      </trkpt>
      <trkpt lat="43.70417" lon="6.97399">
        <ele>483.2</ele>
        <time>2015-11-07T11:32:51Z</time>
      </trkpt>
      <trkpt lat="43.70416" lon="6.97399">
        <ele>482.8</ele>
        <time>2015-11-07T11:32:52Z</time>
      </trkpt>
      <trkpt lat="43.70414" lon="6.97398">
        <ele>482.4</ele>
        <time>2015-11-07T11:32:53Z</time>
      </trkpt>
      <trkpt lat="43.70409" lon="6.97398">
        <ele>482</ele>
        <time>2015-11-07T11:32:56Z</time>
      </trkpt>
      <trkpt lat="43.70407" lon="6.97397">
        <ele>481.6</ele>
        <time>2015-11-07T11:32:57Z</time>
      </trkpt>
      <trkpt lat="43.70403" lon="6.97396">
        <ele>481.2</ele>
        <time>2015-11-07T11:32:58Z</time>
      </trkpt>
      <trkpt lat="43.704" lon="6.97394">
        <ele>480.8</ele>
        <time>2015-11-07T11:32:59Z</time>
      </trkpt>
      <trkpt lat="43.70398" lon="6.97393">
        <ele>480.2</ele>
        <time>2015-11-07T11:33:00Z</time>
      </trkpt>
      <trkpt lat="43.70388" lon="6.97394">
        <ele>480.2</ele>
        <time>2015-11-07T11:33:04Z</time>
      </trkpt>
      <trkpt lat="43.70381" lon="6.97396">
        <ele>479.8</ele>
        <time>2015-11-07T11:33:08Z</time>
      </trkpt>
      <trkpt lat="43.70379" lon="6.97398">
        <ele>479.4</ele>
        <time>2015-11-07T11:33:09Z</time>
      </trkpt>
      <trkpt lat="43.70379" lon="6.97399">
        <ele>478.8</ele>
        <time>2015-11-07T11:33:10Z</time>
      </trkpt>
      <trkpt lat="43.70378" lon="6.974">
        <ele>478.4</ele>
        <time>2015-11-07T11:33:11Z</time>
      </trkpt>
      <trkpt lat="43.70377" lon="6.974">
        <ele>477.8</ele>
        <time>2015-11-07T11:33:12Z</time>
      </trkpt>
      <trkpt lat="43.70375" lon="6.97401">
        <ele>477.4</ele>
        <time>2015-11-07T11:33:13Z</time>
      </trkpt>
      <trkpt lat="43.70372" lon="6.97402">
        <ele>477</ele>
        <time>2015-11-07T11:33:14Z</time>
      </trkpt>
      <trkpt lat="43.70369" lon="6.97405">
        <ele>476.6</ele>
        <time>2015-11-07T11:33:15Z</time>
      </trkpt>
      <trkpt lat="43.70366" lon="6.97408">
        <ele>476.2</ele>
        <time>2015-11-07T11:33:16Z</time>
      </trkpt>
      <trkpt lat="43.70364" lon="6.97409">
        <ele>475.6</ele>
        <time>2015-11-07T11:33:17Z</time>
      </trkpt>
      <trkpt lat="43.70362" lon="6.97411">
        <ele>475.2</ele>
        <time>2015-11-07T11:33:18Z</time>
      </trkpt>
      <trkpt lat="43.70359" lon="6.97415">
        <ele>474.6</ele>
        <time>2015-11-07T11:33:19Z</time>
      </trkpt>
      <trkpt lat="43.70357" lon="6.97417">
        <ele>474</ele>
        <time>2015-11-07T11:33:20Z</time>
      </trkpt>
      <trkpt lat="43.70355" lon="6.97419">
        <ele>473.6</ele>
        <time>2015-11-07T11:33:21Z</time>
      </trkpt>
      <trkpt lat="43.70352" lon="6.97422">
        <ele>473</ele>
        <time>2015-11-07T11:33:22Z</time>
      </trkpt>
      <trkpt lat="43.7035" lon="6.97424">
        <ele>472.6</ele>
        <time>2015-11-07T11:33:23Z</time>
      </trkpt>
      <trkpt lat="43.70347" lon="6.97427">
        <ele>472.2</ele>
        <time>2015-11-07T11:33:24Z</time>
      </trkpt>
      <trkpt lat="43.70345" lon="6.97429">
        <ele>471.6</ele>
        <time>2015-11-07T11:33:25Z</time>
      </trkpt>
      <trkpt lat="43.70344" lon="6.9743">
        <ele>471.2</ele>
        <time>2015-11-07T11:33:26Z</time>
      </trkpt>
      <trkpt lat="43.70342" lon="6.97431">
        <ele>471.2</ele>
        <time>2015-11-07T11:33:27Z</time>
      </trkpt>
      <trkpt lat="43.70338" lon="6.97433">
        <ele>470.6</ele>
        <time>2015-11-07T11:33:29Z</time>
      </trkpt>
      <trkpt lat="43.70335" lon="6.97432">
        <ele>470.2</ele>
        <time>2015-11-07T11:33:30Z</time>
      </trkpt>
      <trkpt lat="43.70332" lon="6.97431">
        <ele>469.6</ele>
        <time>2015-11-07T11:33:31Z</time>
      </trkpt>
      <trkpt lat="43.70328" lon="6.9743">
        <ele>468.8</ele>
        <time>2015-11-07T11:33:32Z</time>
      </trkpt>
      <trkpt lat="43.70325" lon="6.97428">
        <ele>468.2</ele>
        <time>2015-11-07T11:33:33Z</time>
      </trkpt>
      <trkpt lat="43.70322" lon="6.97426">
        <ele>467.4</ele>
        <time>2015-11-07T11:33:34Z</time>
      </trkpt>
      <trkpt lat="43.70318" lon="6.97424">
        <ele>466.8</ele>
        <time>2015-11-07T11:33:35Z</time>
      </trkpt>
      <trkpt lat="43.70316" lon="6.97422">
        <ele>466</ele>
        <time>2015-11-07T11:33:36Z</time>
      </trkpt>
      <trkpt lat="43.70305" lon="6.97416">
        <ele>466</ele>
        <time>2015-11-07T11:33:39Z</time>
      </trkpt>
      <trkpt lat="43.70291" lon="6.97408">
        <ele>466</ele>
        <time>2015-11-07T11:33:42Z</time>
      </trkpt>
      <trkpt lat="43.70283" lon="6.974">
        <ele>465.6</ele>
        <time>2015-11-07T11:33:44Z</time>
      </trkpt>
      <trkpt lat="43.7028" lon="6.97394">
        <ele>465.2</ele>
        <time>2015-11-07T11:33:45Z</time>
      </trkpt>
      <trkpt lat="43.70277" lon="6.97388">
        <ele>464.4</ele>
        <time>2015-11-07T11:33:46Z</time>
      </trkpt>
      <trkpt lat="43.70274" lon="6.97375">
        <ele>463.8</ele>
        <time>2015-11-07T11:33:47Z</time>
      </trkpt>
      <trkpt lat="43.70274" lon="6.97364">
        <ele>462.6</ele>
        <time>2015-11-07T11:33:48Z</time>
      </trkpt>
      <trkpt lat="43.70274" lon="6.97352">
        <ele>461.6</ele>
        <time>2015-11-07T11:33:49Z</time>
      </trkpt>
      <trkpt lat="43.70274" lon="6.97341">
        <ele>460.6</ele>
        <time>2015-11-07T11:33:50Z</time>
      </trkpt>
      <trkpt lat="43.70275" lon="6.97329">
        <ele>459.6</ele>
        <time>2015-11-07T11:33:51Z</time>
      </trkpt>
      <trkpt lat="43.70276" lon="6.97316">
        <ele>458.6</ele>
        <time>2015-11-07T11:33:52Z</time>
      </trkpt>
      <trkpt lat="43.70276" lon="6.97305">
        <ele>457.4</ele>
        <time>2015-11-07T11:33:53Z</time>
      </trkpt>
      <trkpt lat="43.70276" lon="6.97296">
        <ele>456.4</ele>
        <time>2015-11-07T11:33:54Z</time>
      </trkpt>
      <trkpt lat="43.70277" lon="6.97287">
        <ele>455.2</ele>
        <time>2015-11-07T11:33:55Z</time>
      </trkpt>
      <trkpt lat="43.70277" lon="6.97279">
        <ele>454.2</ele>
        <time>2015-11-07T11:33:56Z</time>
      </trkpt>
      <trkpt lat="43.70277" lon="6.97272">
        <ele>453.6</ele>
        <time>2015-11-07T11:33:57Z</time>
      </trkpt>
      <trkpt lat="43.70275" lon="6.97265">
        <ele>453</ele>
        <time>2015-11-07T11:33:58Z</time>
      </trkpt>
      <trkpt lat="43.70272" lon="6.9726">
        <ele>452.2</ele>
        <time>2015-11-07T11:33:59Z</time>
      </trkpt>
      <trkpt lat="43.7027" lon="6.97254">
        <ele>451.4</ele>
        <time>2015-11-07T11:34:00Z</time>
      </trkpt>
      <trkpt lat="43.7027" lon="6.97251">
        <ele>450.8</ele>
        <time>2015-11-07T11:34:01Z</time>
      </trkpt>
      <trkpt lat="43.70269" lon="6.97245">
        <ele>450</ele>
        <time>2015-11-07T11:34:02Z</time>
      </trkpt>
      <trkpt lat="43.70269" lon="6.9724">
        <ele>449.2</ele>
        <time>2015-11-07T11:34:03Z</time>
      </trkpt>
      <trkpt lat="43.70268" lon="6.97233">
        <ele>448.6</ele>
        <time>2015-11-07T11:34:04Z</time>
      </trkpt>
      <trkpt lat="43.70268" lon="6.97226">
        <ele>448</ele>
        <time>2015-11-07T11:34:05Z</time>
      </trkpt>
      <trkpt lat="43.70268" lon="6.97219">
        <ele>447.4</ele>
        <time>2015-11-07T11:34:06Z</time>
      </trkpt>
      <trkpt lat="43.70269" lon="6.97213">
        <ele>446.8</ele>
        <time>2015-11-07T11:34:07Z</time>
      </trkpt>
      <trkpt lat="43.70268" lon="6.97207">
        <ele>446.2</ele>
        <time>2015-11-07T11:34:08Z</time>
      </trkpt>
      <trkpt lat="43.70268" lon="6.97201">
        <ele>445.8</ele>
        <time>2015-11-07T11:34:09Z</time>
      </trkpt>
      <trkpt lat="43.70267" lon="6.97195">
        <ele>445.2</ele>
        <time>2015-11-07T11:34:10Z</time>
      </trkpt>
      <trkpt lat="43.70266" lon="6.97187">
        <ele>444.4</ele>
        <time>2015-11-07T11:34:11Z</time>
      </trkpt>
      <trkpt lat="43.70264" lon="6.9718">
        <ele>443.6</ele>
        <time>2015-11-07T11:34:12Z</time>
      </trkpt>
      <trkpt lat="43.70262" lon="6.97175">
        <ele>442.8</ele>
        <time>2015-11-07T11:34:13Z</time>
      </trkpt>
      <trkpt lat="43.70261" lon="6.9717">
        <ele>442</ele>
        <time>2015-11-07T11:34:14Z</time>
      </trkpt>
      <trkpt lat="43.7026" lon="6.97167">
        <ele>441.2</ele>
        <time>2015-11-07T11:34:15Z</time>
      </trkpt>
      <trkpt lat="43.70257" lon="6.97166">
        <ele>441.2</ele>
        <time>2015-11-07T11:34:16Z</time>
      </trkpt>
      <trkpt lat="43.70253" lon="6.97166">
        <ele>440.6</ele>
        <time>2015-11-07T11:34:19Z</time>
      </trkpt>
      <trkpt lat="43.70251" lon="6.97166">
        <ele>440.2</ele>
        <time>2015-11-07T11:34:20Z</time>
      </trkpt>
      <trkpt lat="43.70249" lon="6.97171">
        <ele>439.4</ele>
        <time>2015-11-07T11:34:21Z</time>
      </trkpt>
      <trkpt lat="43.70248" lon="6.97178">
        <ele>438.6</ele>
        <time>2015-11-07T11:34:22Z</time>
      </trkpt>
      <trkpt lat="43.70247" lon="6.97188">
        <ele>437.4</ele>
        <time>2015-11-07T11:34:23Z</time>
      </trkpt>
      <trkpt lat="43.70248" lon="6.972">
        <ele>436.2</ele>
        <time>2015-11-07T11:34:24Z</time>
      </trkpt>
      <trkpt lat="43.70246" lon="6.97209">
        <ele>435</ele>
        <time>2015-11-07T11:34:25Z</time>
      </trkpt>
      <trkpt lat="43.70245" lon="6.97219">
        <ele>433.8</ele>
        <time>2015-11-07T11:34:26Z</time>
      </trkpt>
      <trkpt lat="43.70246" lon="6.97228">
        <ele>432.6</ele>
        <time>2015-11-07T11:34:27Z</time>
      </trkpt>
      <trkpt lat="43.70245" lon="6.97237">
        <ele>431.4</ele>
        <time>2015-11-07T11:34:28Z</time>
      </trkpt>
      <trkpt lat="43.70245" lon="6.97245">
        <ele>430</ele>
        <time>2015-11-07T11:34:29Z</time>
      </trkpt>
      <trkpt lat="43.70244" lon="6.97254">
        <ele>428.8</ele>
        <time>2015-11-07T11:34:30Z</time>
      </trkpt>
      <trkpt lat="43.70243" lon="6.97262">
        <ele>428.2</ele>
        <time>2015-11-07T11:34:31Z</time>
      </trkpt>
      <trkpt lat="43.70242" lon="6.97269">
        <ele>427.4</ele>
        <time>2015-11-07T11:34:32Z</time>
      </trkpt>
      <trkpt lat="43.70241" lon="6.97276">
        <ele>426.8</ele>
        <time>2015-11-07T11:34:33Z</time>
      </trkpt>
      <trkpt lat="43.70242" lon="6.97281">
        <ele>426</ele>
        <time>2015-11-07T11:34:34Z</time>
      </trkpt>
      <trkpt lat="43.70242" lon="6.97285">
        <ele>425.2</ele>
        <time>2015-11-07T11:34:35Z</time>
      </trkpt>
      <trkpt lat="43.70236" lon="6.9728">
        <ele>425.2</ele>
        <time>2015-11-07T11:34:39Z</time>
      </trkpt>
      <trkpt lat="43.70235" lon="6.97276">
        <ele>424.8</ele>
        <time>2015-11-07T11:34:40Z</time>
      </trkpt>
      <trkpt lat="43.70235" lon="6.97271">
        <ele>424.4</ele>
        <time>2015-11-07T11:34:41Z</time>
      </trkpt>
      <trkpt lat="43.70235" lon="6.97265">
        <ele>423.8</ele>
        <time>2015-11-07T11:34:42Z</time>
      </trkpt>
      <trkpt lat="43.70235" lon="6.97258">
        <ele>423.2</ele>
        <time>2015-11-07T11:34:43Z</time>
      </trkpt>
      <trkpt lat="43.70235" lon="6.9725">
        <ele>422.6</ele>
        <time>2015-11-07T11:34:44Z</time>
      </trkpt>
      <trkpt lat="43.70235" lon="6.97241">
        <ele>422</ele>
        <time>2015-11-07T11:34:45Z</time>
      </trkpt>
      <trkpt lat="43.70235" lon="6.97235">
        <ele>421.2</ele>
        <time>2015-11-07T11:34:46Z</time>
      </trkpt>
      <trkpt lat="43.70235" lon="6.97229">
        <ele>420.4</ele>
        <time>2015-11-07T11:34:47Z</time>
      </trkpt>
      <trkpt lat="43.70236" lon="6.97223">
        <ele>419.6</ele>
        <time>2015-11-07T11:34:48Z</time>
      </trkpt>
      <trkpt lat="43.70235" lon="6.97216">
        <ele>418.8</ele>
        <time>2015-11-07T11:34:49Z</time>
      </trkpt>
      <trkpt lat="43.70234" lon="6.9721">
        <ele>418.2</ele>
        <time>2015-11-07T11:34:50Z</time>
      </trkpt>
      <trkpt lat="43.70232" lon="6.97204">
        <ele>417.6</ele>
        <time>2015-11-07T11:34:51Z</time>
      </trkpt>
      <trkpt lat="43.7023" lon="6.97198">
        <ele>416.8</ele>
        <time>2015-11-07T11:34:52Z</time>
      </trkpt>
      <trkpt lat="43.70228" lon="6.97191">
        <ele>416</ele>
        <time>2015-11-07T11:34:53Z</time>
      </trkpt>
      <trkpt lat="43.70228" lon="6.97184">
        <ele>415.2</ele>
        <time>2015-11-07T11:34:54Z</time>
      </trkpt>
      <trkpt lat="43.70227" lon="6.97178">
        <ele>414.2</ele>
        <time>2015-11-07T11:34:55Z</time>
      </trkpt>
      <trkpt lat="43.70225" lon="6.97173">
        <ele>413</ele>
        <time>2015-11-07T11:34:56Z</time>
      </trkpt>
      <trkpt lat="43.70223" lon="6.97171">
        <ele>412</ele>
        <time>2015-11-07T11:34:57Z</time>
      </trkpt>
      <trkpt lat="43.70221" lon="6.97169">
        <ele>411</ele>
        <time>2015-11-07T11:34:58Z</time>
      </trkpt>
      <trkpt lat="43.7022" lon="6.97167">
        <ele>410</ele>
        <time>2015-11-07T11:34:59Z</time>
      </trkpt>
      <trkpt lat="43.7022" lon="6.97167">
        <ele>410</ele>
        <time>2015-11-07T11:35:02Z</time>
      </trkpt>
      <trkpt lat="43.7022" lon="6.97171">
        <ele>410</ele>
        <time>2015-11-07T11:35:12Z</time>
      </trkpt>
      <trkpt lat="43.70221" lon="6.9718">
        <ele>409.4</ele>
        <time>2015-11-07T11:35:14Z</time>
      </trkpt>
      <trkpt lat="43.70221" lon="6.97184">
        <ele>409</ele>
        <time>2015-11-07T11:35:15Z</time>
      </trkpt>
      <trkpt lat="43.70221" lon="6.97189">
        <ele>408.6</ele>
        <time>2015-11-07T11:35:16Z</time>
      </trkpt>
      <trkpt lat="43.7022" lon="6.97194">
        <ele>408</ele>
        <time>2015-11-07T11:35:17Z</time>
      </trkpt>
      <trkpt lat="43.7022" lon="6.97199">
        <ele>407.6</ele>
        <time>2015-11-07T11:35:18Z</time>
      </trkpt>
      <trkpt lat="43.70218" lon="6.97242">
        <ele>407.6</ele>
        <time>2015-11-07T11:35:25Z</time>
      </trkpt>
      <trkpt lat="43.70216" lon="6.97249">
        <ele>407.2</ele>
        <time>2015-11-07T11:35:26Z</time>
      </trkpt>
      <trkpt lat="43.70215" lon="6.97256">
        <ele>406.6</ele>
        <time>2015-11-07T11:35:27Z</time>
      </trkpt>
      <trkpt lat="43.70213" lon="6.97265">
        <ele>405.8</ele>
        <time>2015-11-07T11:35:28Z</time>
      </trkpt>
      <trkpt lat="43.70212" lon="6.97272">
        <ele>404.8</ele>
        <time>2015-11-07T11:35:29Z</time>
      </trkpt>
      <trkpt lat="43.70209" lon="6.9728">
        <ele>404</ele>
        <time>2015-11-07T11:35:30Z</time>
      </trkpt>
      <trkpt lat="43.70206" lon="6.97288">
        <ele>403</ele>
        <time>2015-11-07T11:35:31Z</time>
      </trkpt>
      <trkpt lat="43.70203" lon="6.97294">
        <ele>401.8</ele>
        <time>2015-11-07T11:35:32Z</time>
      </trkpt>
      <trkpt lat="43.70201" lon="6.97301">
        <ele>400.8</ele>
        <time>2015-11-07T11:35:33Z</time>
      </trkpt>
      <trkpt lat="43.70197" lon="6.97308">
        <ele>399.6</ele>
        <time>2015-11-07T11:35:34Z</time>
      </trkpt>
      <trkpt lat="43.70194" lon="6.97315">
        <ele>398.4</ele>
        <time>2015-11-07T11:35:35Z</time>
      </trkpt>
      <trkpt lat="43.70191" lon="6.9732">
        <ele>397.2</ele>
        <time>2015-11-07T11:35:36Z</time>
      </trkpt>
      <trkpt lat="43.70188" lon="6.97326">
        <ele>395.8</ele>
        <time>2015-11-07T11:35:37Z</time>
      </trkpt>
      <trkpt lat="43.70185" lon="6.97332">
        <ele>394.6</ele>
        <time>2015-11-07T11:35:38Z</time>
      </trkpt>
      <trkpt lat="43.70182" lon="6.97338">
        <ele>393.4</ele>
        <time>2015-11-07T11:35:39Z</time>
      </trkpt>
      <trkpt lat="43.70179" lon="6.97345">
        <ele>392.2</ele>
        <time>2015-11-07T11:35:40Z</time>
      </trkpt>
      <trkpt lat="43.70177" lon="6.9735">
        <ele>390.8</ele>
        <time>2015-11-07T11:35:41Z</time>
      </trkpt>
      <trkpt lat="43.70175" lon="6.97354">
        <ele>389.4</ele>
        <time>2015-11-07T11:35:42Z</time>
      </trkpt>
      <trkpt lat="43.70173" lon="6.97357">
        <ele>388.2</ele>
        <time>2015-11-07T11:35:43Z</time>
      </trkpt>
      <trkpt lat="43.70172" lon="6.9736">
        <ele>387.4</ele>
        <time>2015-11-07T11:35:44Z</time>
      </trkpt>
      <trkpt lat="43.70171" lon="6.97363">
        <ele>386.6</ele>
        <time>2015-11-07T11:35:45Z</time>
      </trkpt>
      <trkpt lat="43.70168" lon="6.97369">
        <ele>385.8</ele>
        <time>2015-11-07T11:35:46Z</time>
      </trkpt>
      <trkpt lat="43.70166" lon="6.97373">
        <ele>385</ele>
        <time>2015-11-07T11:35:47Z</time>
      </trkpt>
      <trkpt lat="43.70164" lon="6.97377">
        <ele>384.4</ele>
        <time>2015-11-07T11:35:48Z</time>
      </trkpt>
      <trkpt lat="43.70161" lon="6.97382">
        <ele>383.8</ele>
        <time>2015-11-07T11:36:03Z</time>
      </trkpt>
      <trkpt lat="43.70159" lon="6.97386">
        <ele>383.4</ele>
        <time>2015-11-07T11:36:04Z</time>
      </trkpt>
      <trkpt lat="43.70158" lon="6.9739">
        <ele>383</ele>
        <time>2015-11-07T11:36:05Z</time>
      </trkpt>
      <trkpt lat="43.70156" lon="6.97394">
        <ele>382.4</ele>
        <time>2015-11-07T11:36:06Z</time>
      </trkpt>
      <trkpt lat="43.70155" lon="6.97399">
        <ele>381.6</ele>
        <time>2015-11-07T11:36:07Z</time>
      </trkpt>
      <trkpt lat="43.70155" lon="6.97403">
        <ele>380.8</ele>
        <time>2015-11-07T11:36:08Z</time>
      </trkpt>
      <trkpt lat="43.70155" lon="6.97406">
        <ele>380.2</ele>
        <time>2015-11-07T11:36:09Z</time>
      </trkpt>
      <trkpt lat="43.70154" lon="6.97409">
        <ele>379.6</ele>
        <time>2015-11-07T11:36:10Z</time>
      </trkpt>
      <trkpt lat="43.70152" lon="6.97414">
        <ele>378.8</ele>
        <time>2015-11-07T11:36:11Z</time>
      </trkpt>
      <trkpt lat="43.70152" lon="6.97419">
        <ele>378.2</ele>
        <time>2015-11-07T11:36:12Z</time>
      </trkpt>
      <trkpt lat="43.70151" lon="6.97424">
        <ele>377.4</ele>
        <time>2015-11-07T11:36:13Z</time>
      </trkpt>
      <trkpt lat="43.7015" lon="6.97428">
        <ele>376.8</ele>
        <time>2015-11-07T11:36:14Z</time>
      </trkpt>
      <trkpt lat="43.7015" lon="6.97432">
        <ele>376.2</ele>
        <time>2015-11-07T11:36:15Z</time>
      </trkpt>
      <trkpt lat="43.70148" lon="6.97434">
        <ele>375.4</ele>
        <time>2015-11-07T11:36:16Z</time>
      </trkpt>
      <trkpt lat="43.70145" lon="6.97438">
        <ele>374.8</ele>
        <time>2015-11-07T11:36:17Z</time>
      </trkpt>
      <trkpt lat="43.70141" lon="6.97441">
        <ele>374</ele>
        <time>2015-11-07T11:36:18Z</time>
      </trkpt>
      <trkpt lat="43.70138" lon="6.97445">
        <ele>373.2</ele>
        <time>2015-11-07T11:36:19Z</time>
      </trkpt>
      <trkpt lat="43.70135" lon="6.97448">
        <ele>372.6</ele>
        <time>2015-11-07T11:36:20Z</time>
      </trkpt>
      <trkpt lat="43.70133" lon="6.97451">
        <ele>371.8</ele>
        <time>2015-11-07T11:36:21Z</time>
      </trkpt>
      <trkpt lat="43.70131" lon="6.97453">
        <ele>371</ele>
        <time>2015-11-07T11:36:22Z</time>
      </trkpt>
      <trkpt lat="43.7013" lon="6.97456">
        <ele>370.4</ele>
        <time>2015-11-07T11:36:23Z</time>
      </trkpt>
      <trkpt lat="43.70128" lon="6.97458">
        <ele>369.8</ele>
        <time>2015-11-07T11:36:24Z</time>
      </trkpt>
      <trkpt lat="43.70126" lon="6.97462">
        <ele>369.2</ele>
        <time>2015-11-07T11:36:25Z</time>
      </trkpt>
      <trkpt lat="43.70124" lon="6.97465">
        <ele>368.4</ele>
        <time>2015-11-07T11:36:26Z</time>
      </trkpt>
      <trkpt lat="43.70122" lon="6.97468">
        <ele>367.6</ele>
        <time>2015-11-07T11:36:27Z</time>
      </trkpt>
      <trkpt lat="43.70121" lon="6.97471">
        <ele>366.8</ele>
        <time>2015-11-07T11:36:28Z</time>
      </trkpt>
      <trkpt lat="43.7012" lon="6.97474">
        <ele>366.2</ele>
        <time>2015-11-07T11:36:29Z</time>
      </trkpt>
      <trkpt lat="43.70118" lon="6.97476">
        <ele>365.6</ele>
        <time>2015-11-07T11:36:30Z</time>
      </trkpt>
      <trkpt lat="43.70117" lon="6.97478">
        <ele>364.8</ele>
        <time>2015-11-07T11:36:31Z</time>
      </trkpt>
      <trkpt lat="43.70115" lon="6.97482">
        <ele>364.2</ele>
        <time>2015-11-07T11:36:32Z</time>
      </trkpt>
      <trkpt lat="43.70113" lon="6.97484">
        <ele>363.6</ele>
        <time>2015-11-07T11:36:33Z</time>
      </trkpt>
      <trkpt lat="43.70112" lon="6.97488">
        <ele>363</ele>
        <time>2015-11-07T11:36:34Z</time>
      </trkpt>
      <trkpt lat="43.70111" lon="6.97492">
        <ele>362.6</ele>
        <time>2015-11-07T11:36:35Z</time>
      </trkpt>
      <trkpt lat="43.70107" lon="6.97494">
        <ele>362</ele>
        <time>2015-11-07T11:36:36Z</time>
      </trkpt>
      <trkpt lat="43.70104" lon="6.97495">
        <ele>361.6</ele>
        <time>2015-11-07T11:36:37Z</time>
      </trkpt>
      <trkpt lat="43.70102" lon="6.97494">
        <ele>361</ele>
        <time>2015-11-07T11:36:38Z</time>
      </trkpt>
      <trkpt lat="43.70101" lon="6.97493">
        <ele>360.2</ele>
        <time>2015-11-07T11:36:39Z</time>
      </trkpt>
      <trkpt lat="43.701" lon="6.97492">
        <ele>359.6</ele>
        <time>2015-11-07T11:36:40Z</time>
      </trkpt>
      <trkpt lat="43.70098" lon="6.97489">
        <ele>358.8</ele>
        <time>2015-11-07T11:36:41Z</time>
      </trkpt>
      <trkpt lat="43.70097" lon="6.97487">
        <ele>358.2</ele>
        <time>2015-11-07T11:36:42Z</time>
      </trkpt>
      <trkpt lat="43.70095" lon="6.97483">
        <ele>357.6</ele>
        <time>2015-11-07T11:36:43Z</time>
      </trkpt>
      <trkpt lat="43.70093" lon="6.97479">
        <ele>357.2</ele>
        <time>2015-11-07T11:36:44Z</time>
      </trkpt>
      <trkpt lat="43.70092" lon="6.97476">
        <ele>356.8</ele>
        <time>2015-11-07T11:36:45Z</time>
      </trkpt>
      <trkpt lat="43.70091" lon="6.97472">
        <ele>356.2</ele>
        <time>2015-11-07T11:36:46Z</time>
      </trkpt>
      <trkpt lat="43.70089" lon="6.97469">
        <ele>355.6</ele>
        <time>2015-11-07T11:36:47Z</time>
      </trkpt>
      <trkpt lat="43.70087" lon="6.97467">
        <ele>355.2</ele>
        <time>2015-11-07T11:36:48Z</time>
      </trkpt>
      <trkpt lat="43.70084" lon="6.97466">
        <ele>354.6</ele>
        <time>2015-11-07T11:36:49Z</time>
      </trkpt>
      <trkpt lat="43.70082" lon="6.97465">
        <ele>354</ele>
        <time>2015-11-07T11:36:50Z</time>
      </trkpt>
      <trkpt lat="43.7008" lon="6.97467">
        <ele>353.4</ele>
        <time>2015-11-07T11:36:51Z</time>
      </trkpt>
      <trkpt lat="43.70079" lon="6.97469">
        <ele>353</ele>
        <time>2015-11-07T11:36:52Z</time>
      </trkpt>
      <trkpt lat="43.70077" lon="6.97471">
        <ele>352.4</ele>
        <time>2015-11-07T11:36:53Z</time>
      </trkpt>
      <trkpt lat="43.70076" lon="6.97473">
        <ele>352</ele>
        <time>2015-11-07T11:36:54Z</time>
      </trkpt>
      <trkpt lat="43.70075" lon="6.97476">
        <ele>351.2</ele>
        <time>2015-11-07T11:36:55Z</time>
      </trkpt>
      <trkpt lat="43.70074" lon="6.97478">
        <ele>350.6</ele>
        <time>2015-11-07T11:36:56Z</time>
      </trkpt>
      <trkpt lat="43.70072" lon="6.9748">
        <ele>350</ele>
        <time>2015-11-07T11:36:57Z</time>
      </trkpt>
      <trkpt lat="43.7007" lon="6.97483">
        <ele>349.4</ele>
        <time>2015-11-07T11:36:58Z</time>
      </trkpt>
      <trkpt lat="43.70069" lon="6.97486">
        <ele>348.6</ele>
        <time>2015-11-07T11:36:59Z</time>
      </trkpt>
      <trkpt lat="43.70068" lon="6.9749">
        <ele>348</ele>
        <time>2015-11-07T11:37:00Z</time>
      </trkpt>
      <trkpt lat="43.70068" lon="6.97494">
        <ele>347.2</ele>
        <time>2015-11-07T11:37:01Z</time>
      </trkpt>
      <trkpt lat="43.70068" lon="6.97498">
        <ele>346.6</ele>
        <time>2015-11-07T11:37:02Z</time>
      </trkpt>
      <trkpt lat="43.70068" lon="6.97502">
        <ele>346</ele>
        <time>2015-11-07T11:37:03Z</time>
      </trkpt>
      <trkpt lat="43.70068" lon="6.97506">
        <ele>345.6</ele>
        <time>2015-11-07T11:37:04Z</time>
      </trkpt>
      <trkpt lat="43.70067" lon="6.97508">
        <ele>345</ele>
        <time>2015-11-07T11:37:05Z</time>
      </trkpt>
      <trkpt lat="43.70067" lon="6.97512">
        <ele>344.4</ele>
        <time>2015-11-07T11:37:06Z</time>
      </trkpt>
      <trkpt lat="43.70068" lon="6.97517">
        <ele>344</ele>
        <time>2015-11-07T11:37:07Z</time>
      </trkpt>
      <trkpt lat="43.70067" lon="6.97523">
        <ele>343.6</ele>
        <time>2015-11-07T11:37:08Z</time>
      </trkpt>
      <trkpt lat="43.70066" lon="6.97527">
        <ele>343</ele>
        <time>2015-11-07T11:37:09Z</time>
      </trkpt>
      <trkpt lat="43.70065" lon="6.97532">
        <ele>342.6</ele>
        <time>2015-11-07T11:37:10Z</time>
      </trkpt>
      <trkpt lat="43.70063" lon="6.97537">
        <ele>342</ele>
        <time>2015-11-07T11:37:11Z</time>
      </trkpt>
      <trkpt lat="43.70061" lon="6.97543">
        <ele>341.4</ele>
        <time>2015-11-07T11:37:12Z</time>
      </trkpt>
      <trkpt lat="43.70058" lon="6.97548">
        <ele>340.8</ele>
        <time>2015-11-07T11:37:13Z</time>
      </trkpt>
      <trkpt lat="43.70057" lon="6.97553">
        <ele>340</ele>
        <time>2015-11-07T11:37:14Z</time>
      </trkpt>
      <trkpt lat="43.70055" lon="6.97558">
        <ele>339.2</ele>
        <time>2015-11-07T11:37:15Z</time>
      </trkpt>
      <trkpt lat="43.70054" lon="6.97562">
        <ele>338.4</ele>
        <time>2015-11-07T11:37:16Z</time>
      </trkpt>
      <trkpt lat="43.70053" lon="6.97565">
        <ele>337.4</ele>
        <time>2015-11-07T11:37:17Z</time>
      </trkpt>
      <trkpt lat="43.70052" lon="6.97569">
        <ele>336.6</ele>
        <time>2015-11-07T11:37:18Z</time>
      </trkpt>
      <trkpt lat="43.70052" lon="6.97573">
        <ele>336.2</ele>
        <time>2015-11-07T11:37:19Z</time>
      </trkpt>
      <trkpt lat="43.70052" lon="6.97576">
        <ele>335.8</ele>
        <time>2015-11-07T11:37:20Z</time>
      </trkpt>
      <trkpt lat="43.70052" lon="6.9758">
        <ele>335.4</ele>
        <time>2015-11-07T11:37:21Z</time>
      </trkpt>
      <trkpt lat="43.70052" lon="6.97584">
        <ele>335</ele>
        <time>2015-11-07T11:37:22Z</time>
      </trkpt>
      <trkpt lat="43.70051" lon="6.97588">
        <ele>334.4</ele>
        <time>2015-11-07T11:37:23Z</time>
      </trkpt>
      <trkpt lat="43.70051" lon="6.97593">
        <ele>333.8</ele>
        <time>2015-11-07T11:37:24Z</time>
      </trkpt>
      <trkpt lat="43.70051" lon="6.97596">
        <ele>333.2</ele>
        <time>2015-11-07T11:37:25Z</time>
      </trkpt>
      <trkpt lat="43.7005" lon="6.97601">
        <ele>332.4</ele>
        <time>2015-11-07T11:37:26Z</time>
      </trkpt>
      <trkpt lat="43.70049" lon="6.97604">
        <ele>332</ele>
        <time>2015-11-07T11:37:27Z</time>
      </trkpt>
      <trkpt lat="43.70048" lon="6.97607">
        <ele>331.4</ele>
        <time>2015-11-07T11:37:28Z</time>
      </trkpt>
      <trkpt lat="43.70046" lon="6.97611">
        <ele>330.8</ele>
        <time>2015-11-07T11:37:29Z</time>
      </trkpt>
      <trkpt lat="43.70045" lon="6.97614">
        <ele>330.2</ele>
        <time>2015-11-07T11:37:30Z</time>
      </trkpt>
      <trkpt lat="43.70044" lon="6.97617">
        <ele>329.8</ele>
        <time>2015-11-07T11:37:31Z</time>
      </trkpt>
      <trkpt lat="43.70043" lon="6.9762">
        <ele>329.2</ele>
        <time>2015-11-07T11:37:32Z</time>
      </trkpt>
      <trkpt lat="43.70042" lon="6.97624">
        <ele>328.6</ele>
        <time>2015-11-07T11:37:33Z</time>
      </trkpt>
      <trkpt lat="43.70042" lon="6.97627">
        <ele>327.8</ele>
        <time>2015-11-07T11:37:34Z</time>
      </trkpt>
      <trkpt lat="43.7004" lon="6.9763">
        <ele>327.2</ele>
        <time>2015-11-07T11:37:35Z</time>
      </trkpt>
      <trkpt lat="43.7004" lon="6.97634">
        <ele>326.6</ele>
        <time>2015-11-07T11:37:36Z</time>
      </trkpt>
      <trkpt lat="43.70039" lon="6.97637">
        <ele>325.8</ele>
        <time>2015-11-07T11:37:37Z</time>
      </trkpt>
      <trkpt lat="43.70036" lon="6.97643">
        <ele>324.4</ele>
        <time>2015-11-07T11:37:39Z</time>
      </trkpt>
      <trkpt lat="43.70035" lon="6.97646">
        <ele>323.8</ele>
        <time>2015-11-07T11:37:40Z</time>
      </trkpt>
      <trkpt lat="43.70035" lon="6.97649">
        <ele>323</ele>
        <time>2015-11-07T11:37:41Z</time>
      </trkpt>
      <trkpt lat="43.70035" lon="6.97652">
        <ele>322.4</ele>
        <time>2015-11-07T11:37:42Z</time>
      </trkpt>
      <trkpt lat="43.70035" lon="6.97656">
        <ele>321.6</ele>
        <time>2015-11-07T11:37:43Z</time>
      </trkpt>
      <trkpt lat="43.70036" lon="6.9766">
        <ele>320.8</ele>
        <time>2015-11-07T11:37:44Z</time>
      </trkpt>
      <trkpt lat="43.70036" lon="6.97664">
        <ele>320.2</ele>
        <time>2015-11-07T11:37:45Z</time>
      </trkpt>
      <trkpt lat="43.70038" lon="6.97669">
        <ele>319.6</ele>
        <time>2015-11-07T11:37:46Z</time>
      </trkpt>
      <trkpt lat="43.7004" lon="6.97675">
        <ele>319.2</ele>
        <time>2015-11-07T11:37:47Z</time>
      </trkpt>
      <trkpt lat="43.70042" lon="6.97683">
        <ele>318.6</ele>
        <time>2015-11-07T11:37:48Z</time>
      </trkpt>
      <trkpt lat="43.70042" lon="6.97691">
        <ele>318</ele>
        <time>2015-11-07T11:37:49Z</time>
      </trkpt>
      <trkpt lat="43.70042" lon="6.97699">
        <ele>317.4</ele>
        <time>2015-11-07T11:37:50Z</time>
      </trkpt>
      <trkpt lat="43.70042" lon="6.97707">
        <ele>316.8</ele>
        <time>2015-11-07T11:37:51Z</time>
      </trkpt>
      <trkpt lat="43.70043" lon="6.97714">
        <ele>316</ele>
        <time>2015-11-07T11:37:52Z</time>
      </trkpt>
      <trkpt lat="43.70044" lon="6.9772">
        <ele>315.4</ele>
        <time>2015-11-07T11:37:53Z</time>
      </trkpt>
      <trkpt lat="43.70049" lon="6.97742">
        <ele>315</ele>
        <time>2015-11-07T11:37:56Z</time>
      </trkpt>
      <trkpt lat="43.70049" lon="6.9775">
        <ele>314.4</ele>
        <time>2015-11-07T11:37:57Z</time>
      </trkpt>
      <trkpt lat="43.70049" lon="6.97758">
        <ele>313.6</ele>
        <time>2015-11-07T11:37:58Z</time>
      </trkpt>
      <trkpt lat="43.7005" lon="6.97764">
        <ele>312.8</ele>
        <time>2015-11-07T11:37:59Z</time>
      </trkpt>
      <trkpt lat="43.70048" lon="6.9777">
        <ele>312</ele>
        <time>2015-11-07T11:38:00Z</time>
      </trkpt>
      <trkpt lat="43.70047" lon="6.97773">
        <ele>311.2</ele>
        <time>2015-11-07T11:38:01Z</time>
      </trkpt>
      <trkpt lat="43.70045" lon="6.97775">
        <ele>310.4</ele>
        <time>2015-11-07T11:38:02Z</time>
      </trkpt>
      <trkpt lat="43.70043" lon="6.97776">
        <ele>309.6</ele>
        <time>2015-11-07T11:38:03Z</time>
      </trkpt>
      <trkpt lat="43.70041" lon="6.97777">
        <ele>308.8</ele>
        <time>2015-11-07T11:38:04Z</time>
      </trkpt>
      <trkpt lat="43.7004" lon="6.97776">
        <ele>308</ele>
        <time>2015-11-07T11:38:05Z</time>
      </trkpt>
      <trkpt lat="43.7004" lon="6.97776">
        <ele>307.2</ele>
        <time>2015-11-07T11:38:06Z</time>
      </trkpt>
      <trkpt lat="43.70038" lon="6.97777">
        <ele>306.6</ele>
        <time>2015-11-07T11:38:07Z</time>
      </trkpt>
      <trkpt lat="43.70038" lon="6.97776">
        <ele>305.8</ele>
        <time>2015-11-07T11:38:08Z</time>
      </trkpt>
      <trkpt lat="43.70038" lon="6.97775">
        <ele>305.8</ele>
        <time>2015-11-07T11:38:09Z</time>
      </trkpt>
      <trkpt lat="43.70035" lon="6.97759">
        <ele>305.8</ele>
        <time>2015-11-07T11:38:19Z</time>
      </trkpt>
      <trkpt lat="43.70033" lon="6.97744">
        <ele>305.8</ele>
        <time>2015-11-07T11:38:22Z</time>
      </trkpt>
      <trkpt lat="43.70031" lon="6.97739">
        <ele>305.8</ele>
        <time>2015-11-07T11:38:23Z</time>
      </trkpt>
      <trkpt lat="43.70019" lon="6.9771">
        <ele>305.8</ele>
        <time>2015-11-07T11:38:29Z</time>
      </trkpt>
      <trkpt lat="43.70018" lon="6.97705">
        <ele>305.4</ele>
        <time>2015-11-07T11:38:30Z</time>
      </trkpt>
      <trkpt lat="43.70017" lon="6.97699">
        <ele>304.8</ele>
        <time>2015-11-07T11:38:31Z</time>
      </trkpt>
      <trkpt lat="43.70016" lon="6.97694">
        <ele>304.4</ele>
        <time>2015-11-07T11:38:32Z</time>
      </trkpt>
      <trkpt lat="43.70015" lon="6.97688">
        <ele>304</ele>
        <time>2015-11-07T11:38:33Z</time>
      </trkpt>
      <trkpt lat="43.70014" lon="6.97683">
        <ele>303.6</ele>
        <time>2015-11-07T11:38:34Z</time>
      </trkpt>
      <trkpt lat="43.70012" lon="6.97672">
        <ele>303.6</ele>
        <time>2015-11-07T11:38:36Z</time>
      </trkpt>
      <trkpt lat="43.69996" lon="6.97618">
        <ele>303.6</ele>
        <time>2015-11-07T11:38:46Z</time>
      </trkpt>
      <trkpt lat="43.69984" lon="6.97585">
        <ele>303.6</ele>
        <time>2015-11-07T11:38:52Z</time>
      </trkpt>
      <trkpt lat="43.69967" lon="6.97538">
        <ele>303.6</ele>
        <time>2015-11-07T11:39:00Z</time>
      </trkpt>
      <trkpt lat="43.69955" lon="6.97503">
        <ele>303.6</ele>
        <time>2015-11-07T11:39:07Z</time>
      </trkpt>
      <trkpt lat="43.69955" lon="6.97469">
        <ele>303.6</ele>
        <time>2015-11-07T11:39:13Z</time>
      </trkpt>
      <trkpt lat="43.69959" lon="6.97449">
        <ele>303.6</ele>
        <time>2015-11-07T11:39:17Z</time>
      </trkpt>
      <trkpt lat="43.6996" lon="6.97444">
        <ele>303.6</ele>
        <time>2015-11-07T11:39:18Z</time>
      </trkpt>
      <trkpt lat="43.69955" lon="6.97418">
        <ele>303.6</ele>
        <time>2015-11-07T11:39:23Z</time>
      </trkpt>
      <trkpt lat="43.69953" lon="6.97412">
        <ele>303.6</ele>
        <time>2015-11-07T11:39:24Z</time>
      </trkpt>
      <trkpt lat="43.69941" lon="6.97384">
        <ele>303.6</ele>
        <time>2015-11-07T11:39:30Z</time>
      </trkpt>
      <trkpt lat="43.6994" lon="6.97363">
        <ele>303.6</ele>
        <time>2015-11-07T11:39:34Z</time>
      </trkpt>
      <trkpt lat="43.69948" lon="6.9732">
        <ele>303.6</ele>
        <time>2015-11-07T11:39:43Z</time>
      </trkpt>
      <trkpt lat="43.6996" lon="6.97297">
        <ele>303.6</ele>
        <time>2015-11-07T11:39:49Z</time>
      </trkpt>
      <trkpt lat="43.69968" lon="6.97271">
        <ele>303.6</ele>
        <time>2015-11-07T11:39:54Z</time>
      </trkpt>
      <trkpt lat="43.69969" lon="6.97232">
        <ele>303.6</ele>
        <time>2015-11-07T11:40:01Z</time>
      </trkpt>
      <trkpt lat="43.69968" lon="6.972">
        <ele>303.6</ele>
        <time>2015-11-07T11:40:07Z</time>
      </trkpt>
      <trkpt lat="43.69964" lon="6.97194">
        <ele>303.6</ele>
        <time>2015-11-07T11:40:09Z</time>
      </trkpt>
      <trkpt lat="43.69961" lon="6.97193">
        <ele>303.6</ele>
        <time>2015-11-07T11:40:10Z</time>
      </trkpt>
      <trkpt lat="43.69949" lon="6.97191">
        <ele>303.6</ele>
        <time>2015-11-07T11:40:13Z</time>
      </trkpt>
      <trkpt lat="43.69946" lon="6.97191">
        <ele>303.6</ele>
        <time>2015-11-07T11:40:14Z</time>
      </trkpt>
      <trkpt lat="43.69935" lon="6.97186">
        <ele>303.6</ele>
        <time>2015-11-07T11:40:19Z</time>
      </trkpt>
      <trkpt lat="43.69934" lon="6.97184">
        <ele>303.2</ele>
        <time>2015-11-07T11:40:20Z</time>
      </trkpt>
      <trkpt lat="43.69934" lon="6.97181">
        <ele>302.6</ele>
        <time>2015-11-07T11:40:21Z</time>
      </trkpt>
      <trkpt lat="43.69935" lon="6.97177">
        <ele>302.2</ele>
        <time>2015-11-07T11:40:22Z</time>
      </trkpt>
      <trkpt lat="43.69936" lon="6.97174">
        <ele>301.8</ele>
        <time>2015-11-07T11:40:23Z</time>
      </trkpt>
      <trkpt lat="43.69937" lon="6.97172">
        <ele>301.4</ele>
        <time>2015-11-07T11:40:24Z</time>
      </trkpt>
      <trkpt lat="43.69946" lon="6.97155">
        <ele>301.4</ele>
        <time>2015-11-07T11:40:29Z</time>
      </trkpt>
      <trkpt lat="43.69954" lon="6.97136">
        <ele>301.4</ele>
        <time>2015-11-07T11:40:34Z</time>
      </trkpt>
      <trkpt lat="43.69963" lon="6.97116">
        <ele>301.4</ele>
        <time>2015-11-07T11:40:40Z</time>
      </trkpt>
      <trkpt lat="43.69964" lon="6.97113">
        <ele>301.4</ele>
        <time>2015-11-07T11:40:45Z</time>
      </trkpt>
      <trkpt lat="43.6996" lon="6.97117">
        <ele>301.4</ele>
        <time>2015-11-07T11:40:48Z</time>
      </trkpt>
      <trkpt lat="43.69959" lon="6.97119">
        <ele>301.4</ele>
        <time>2015-11-07T11:40:49Z</time>
      </trkpt>
      <trkpt lat="43.69943" lon="6.97111">
        <ele>301.4</ele>
        <time>2015-11-07T11:40:54Z</time>
      </trkpt>
      <trkpt lat="43.69933" lon="6.97108">
        <ele>301.4</ele>
        <time>2015-11-07T11:40:59Z</time>
      </trkpt>
      <trkpt lat="43.69922" lon="6.9712">
        <ele>301.4</ele>
        <time>2015-11-07T11:41:06Z</time>
      </trkpt>
      <trkpt lat="43.69906" lon="6.97132">
        <ele>301.4</ele>
        <time>2015-11-07T11:41:13Z</time>
      </trkpt>
      <trkpt lat="43.69895" lon="6.97141">
        <ele>301.4</ele>
        <time>2015-11-07T11:41:19Z</time>
      </trkpt>
      <trkpt lat="43.69893" lon="6.97142">
        <ele>301.8</ele>
        <time>2015-11-07T11:41:21Z</time>
      </trkpt>
      <trkpt lat="43.69892" lon="6.97143">
        <ele>302.4</ele>
        <time>2015-11-07T11:41:22Z</time>
      </trkpt>
      <trkpt lat="43.69891" lon="6.97144">
        <ele>303</ele>
        <time>2015-11-07T11:41:23Z</time>
      </trkpt>
      <trkpt lat="43.69891" lon="6.97145">
        <ele>303.6</ele>
        <time>2015-11-07T11:41:24Z</time>
      </trkpt>
      <trkpt lat="43.69889" lon="6.97147">
        <ele>304</ele>
        <time>2015-11-07T11:41:25Z</time>
      </trkpt>
      <trkpt lat="43.69888" lon="6.97148">
        <ele>304.6</ele>
        <time>2015-11-07T11:41:32Z</time>
      </trkpt>
      <trkpt lat="43.69888" lon="6.97148">
        <ele>305</ele>
        <time>2015-11-07T11:41:33Z</time>
      </trkpt>
      <trkpt lat="43.69888" lon="6.97148">
        <ele>305.4</ele>
        <time>2015-11-07T11:41:34Z</time>
      </trkpt>
      <trkpt lat="43.69888" lon="6.97148">
        <ele>306</ele>
        <time>2015-11-07T11:41:35Z</time>
      </trkpt>
      <trkpt lat="43.69888" lon="6.97148">
        <ele>306.4</ele>
        <time>2015-11-07T11:41:36Z</time>
      </trkpt>
      <trkpt lat="43.69885" lon="6.97149">
        <ele>306.4</ele>
        <time>2015-11-07T11:41:40Z</time>
      </trkpt>
      <trkpt lat="43.69877" lon="6.97154">
        <ele>306.4</ele>
        <time>2015-11-07T11:41:42Z</time>
      </trkpt>
      <trkpt lat="43.69874" lon="6.97154">
        <ele>306.8</ele>
        <time>2015-11-07T11:41:43Z</time>
      </trkpt>
      <trkpt lat="43.69867" lon="6.97156">
        <ele>307.6</ele>
        <time>2015-11-07T11:41:44Z</time>
      </trkpt>
      <trkpt lat="43.6986" lon="6.97153">
        <ele>308.2</ele>
        <time>2015-11-07T11:41:46Z</time>
      </trkpt>
      <trkpt lat="43.69858" lon="6.97153">
        <ele>308.6</ele>
        <time>2015-11-07T11:41:47Z</time>
      </trkpt>
      <trkpt lat="43.69854" lon="6.97154">
        <ele>308.6</ele>
        <time>2015-11-07T11:41:48Z</time>
      </trkpt>
      <trkpt lat="43.69848" lon="6.97157">
        <ele>308.6</ele>
        <time>2015-11-07T11:41:50Z</time>
      </trkpt>
      <trkpt lat="43.69841" lon="6.97167">
        <ele>309</ele>
        <time>2015-11-07T11:41:53Z</time>
      </trkpt>
      <trkpt lat="43.69839" lon="6.97167">
        <ele>309.4</ele>
        <time>2015-11-07T11:41:54Z</time>
      </trkpt>
      <trkpt lat="43.69837" lon="6.97166">
        <ele>309.8</ele>
        <time>2015-11-07T11:41:55Z</time>
      </trkpt>
      <trkpt lat="43.69836" lon="6.97166">
        <ele>310.2</ele>
        <time>2015-11-07T11:41:56Z</time>
      </trkpt>
      <trkpt lat="43.69834" lon="6.97165">
        <ele>310.6</ele>
        <time>2015-11-07T11:41:57Z</time>
      </trkpt>
      <trkpt lat="43.69833" lon="6.97164">
        <ele>310.6</ele>
        <time>2015-11-07T11:41:58Z</time>
      </trkpt>
      <trkpt lat="43.69828" lon="6.97156">
        <ele>310.6</ele>
        <time>2015-11-07T11:42:03Z</time>
      </trkpt>
      <trkpt lat="43.69826" lon="6.97153">
        <ele>310.6</ele>
        <time>2015-11-07T11:42:04Z</time>
      </trkpt>
      <trkpt lat="43.69817" lon="6.97142">
        <ele>310.6</ele>
        <time>2015-11-07T11:42:10Z</time>
      </trkpt>
      <trkpt lat="43.69814" lon="6.97145">
        <ele>310.6</ele>
        <time>2015-11-07T11:42:12Z</time>
      </trkpt>
      <trkpt lat="43.69813" lon="6.97149">
        <ele>310.6</ele>
        <time>2015-11-07T11:42:14Z</time>
      </trkpt>
      <trkpt lat="43.69808" lon="6.97151">
        <ele>310.2</ele>
        <time>2015-11-07T11:42:16Z</time>
      </trkpt>
      <trkpt lat="43.69807" lon="6.97154">
        <ele>309.6</ele>
        <time>2015-11-07T11:42:17Z</time>
      </trkpt>
      <trkpt lat="43.69806" lon="6.97157">
        <ele>309.2</ele>
        <time>2015-11-07T11:42:18Z</time>
      </trkpt>
      <trkpt lat="43.69805" lon="6.9716">
        <ele>308.6</ele>
        <time>2015-11-07T11:42:19Z</time>
      </trkpt>
      <trkpt lat="43.69804" lon="6.97161">
        <ele>307.8</ele>
        <time>2015-11-07T11:42:20Z</time>
      </trkpt>
      <trkpt lat="43.69803" lon="6.97161">
        <ele>307.2</ele>
        <time>2015-11-07T11:42:21Z</time>
      </trkpt>
      <trkpt lat="43.69801" lon="6.97162">
        <ele>306.4</ele>
        <time>2015-11-07T11:42:22Z</time>
      </trkpt>
      <trkpt lat="43.69798" lon="6.97162">
        <ele>305.6</ele>
        <time>2015-11-07T11:42:23Z</time>
      </trkpt>
      <trkpt lat="43.69795" lon="6.97163">
        <ele>304.8</ele>
        <time>2015-11-07T11:42:24Z</time>
      </trkpt>
      <trkpt lat="43.69794" lon="6.97162">
        <ele>304</ele>
        <time>2015-11-07T11:42:25Z</time>
      </trkpt>
      <trkpt lat="43.69793" lon="6.97161">
        <ele>303</ele>
        <time>2015-11-07T11:42:26Z</time>
      </trkpt>
      <trkpt lat="43.69788" lon="6.97157">
        <ele>303</ele>
        <time>2015-11-07T11:42:29Z</time>
      </trkpt>
      <trkpt lat="43.69785" lon="6.97156">
        <ele>303</ele>
        <time>2015-11-07T11:42:31Z</time>
      </trkpt>
      <trkpt lat="43.69774" lon="6.9716">
        <ele>303</ele>
        <time>2015-11-07T11:42:38Z</time>
      </trkpt>
      <trkpt lat="43.69773" lon="6.97163">
        <ele>303</ele>
        <time>2015-11-07T11:42:39Z</time>
      </trkpt>
      <trkpt lat="43.69771" lon="6.97169">
        <ele>303</ele>
        <time>2015-11-07T11:42:41Z</time>
      </trkpt>
      <trkpt lat="43.69764" lon="6.97183">
        <ele>303</ele>
        <time>2015-11-07T11:42:46Z</time>
      </trkpt>
      <trkpt lat="43.6975" lon="6.97208">
        <ele>303</ele>
        <time>2015-11-07T11:42:52Z</time>
      </trkpt>
      <trkpt lat="43.69744" lon="6.97212">
        <ele>303</ele>
        <time>2015-11-07T11:42:54Z</time>
      </trkpt>
      <trkpt lat="43.69739" lon="6.97213">
        <ele>303</ele>
        <time>2015-11-07T11:42:56Z</time>
      </trkpt>
      <trkpt lat="43.69728" lon="6.97215">
        <ele>302.6</ele>
        <time>2015-11-07T11:43:01Z</time>
      </trkpt>
      <trkpt lat="43.69727" lon="6.97217">
        <ele>302.2</ele>
        <time>2015-11-07T11:43:02Z</time>
      </trkpt>
      <trkpt lat="43.69726" lon="6.97219">
        <ele>301.8</ele>
        <time>2015-11-07T11:43:03Z</time>
      </trkpt>
      <trkpt lat="43.69725" lon="6.97221">
        <ele>301.4</ele>
        <time>2015-11-07T11:43:04Z</time>
      </trkpt>
      <trkpt lat="43.69724" lon="6.97224">
        <ele>301</ele>
        <time>2015-11-07T11:43:05Z</time>
      </trkpt>
      <trkpt lat="43.69712" lon="6.97236">
        <ele>301</ele>
        <time>2015-11-07T11:43:11Z</time>
      </trkpt>
      <trkpt lat="43.6971" lon="6.97237">
        <ele>301.4</ele>
        <time>2015-11-07T11:43:13Z</time>
      </trkpt>
      <trkpt lat="43.6971" lon="6.97238">
        <ele>302</ele>
        <time>2015-11-07T11:43:14Z</time>
      </trkpt>
      <trkpt lat="43.69709" lon="6.97239">
        <ele>302.4</ele>
        <time>2015-11-07T11:43:15Z</time>
      </trkpt>
      <trkpt lat="43.69708" lon="6.97241">
        <ele>302.8</ele>
        <time>2015-11-07T11:43:16Z</time>
      </trkpt>
      <trkpt lat="43.69706" lon="6.97243">
        <ele>303.4</ele>
        <time>2015-11-07T11:43:17Z</time>
      </trkpt>
      <trkpt lat="43.69699" lon="6.97249">
        <ele>303.4</ele>
        <time>2015-11-07T11:43:26Z</time>
      </trkpt>
      <trkpt lat="43.69697" lon="6.97251">
        <ele>303.8</ele>
        <time>2015-11-07T11:43:28Z</time>
      </trkpt>
      <trkpt lat="43.69696" lon="6.97252">
        <ele>304.2</ele>
        <time>2015-11-07T11:43:29Z</time>
      </trkpt>
      <trkpt lat="43.69695" lon="6.97253">
        <ele>304.6</ele>
        <time>2015-11-07T11:43:30Z</time>
      </trkpt>
      <trkpt lat="43.69694" lon="6.97254">
        <ele>305</ele>
        <time>2015-11-07T11:43:31Z</time>
      </trkpt>
      <trkpt lat="43.69691" lon="6.97255">
        <ele>305.4</ele>
        <time>2015-11-07T11:43:32Z</time>
      </trkpt>
      <trkpt lat="43.69685" lon="6.97264">
        <ele>305.8</ele>
        <time>2015-11-07T11:43:37Z</time>
      </trkpt>
      <trkpt lat="43.69685" lon="6.97266">
        <ele>306.4</ele>
        <time>2015-11-07T11:43:38Z</time>
      </trkpt>
      <trkpt lat="43.69684" lon="6.97268">
        <ele>306.8</ele>
        <time>2015-11-07T11:43:39Z</time>
      </trkpt>
      <trkpt lat="43.69683" lon="6.9727">
        <ele>307.2</ele>
        <time>2015-11-07T11:43:40Z</time>
      </trkpt>
      <trkpt lat="43.69683" lon="6.97271">
        <ele>307.6</ele>
        <time>2015-11-07T11:43:41Z</time>
      </trkpt>
      <trkpt lat="43.69681" lon="6.97274">
        <ele>308</ele>
        <time>2015-11-07T11:43:44Z</time>
      </trkpt>
      <trkpt lat="43.6968" lon="6.97275">
        <ele>308.4</ele>
        <time>2015-11-07T11:43:45Z</time>
      </trkpt>
      <trkpt lat="43.69679" lon="6.97277">
        <ele>308.8</ele>
        <time>2015-11-07T11:43:46Z</time>
      </trkpt>
      <trkpt lat="43.69679" lon="6.97277">
        <ele>309.2</ele>
        <time>2015-11-07T11:43:47Z</time>
      </trkpt>
      <trkpt lat="43.69678" lon="6.97278">
        <ele>309.6</ele>
        <time>2015-11-07T11:43:48Z</time>
      </trkpt>
      <trkpt lat="43.69677" lon="6.97278">
        <ele>309.6</ele>
        <time>2015-11-07T11:43:49Z</time>
      </trkpt>
      <trkpt lat="43.69676" lon="6.97279">
        <ele>310</ele>
        <time>2015-11-07T11:43:51Z</time>
      </trkpt>
      <trkpt lat="43.69675" lon="6.97278">
        <ele>310.6</ele>
        <time>2015-11-07T11:43:52Z</time>
      </trkpt>
      <trkpt lat="43.69675" lon="6.97278">
        <ele>311</ele>
        <time>2015-11-07T11:43:53Z</time>
      </trkpt>
      <trkpt lat="43.69675" lon="6.97278">
        <ele>311.4</ele>
        <time>2015-11-07T11:43:54Z</time>
      </trkpt>
      <trkpt lat="43.69674" lon="6.97278">
        <ele>311.8</ele>
        <time>2015-11-07T11:43:55Z</time>
      </trkpt>
      <trkpt lat="43.69673" lon="6.97279">
        <ele>311.8</ele>
        <time>2015-11-07T11:44:00Z</time>
      </trkpt>
      <trkpt lat="43.6967" lon="6.97283">
        <ele>311.8</ele>
        <time>2015-11-07T11:44:08Z</time>
      </trkpt>
      <trkpt lat="43.69667" lon="6.97286">
        <ele>311.8</ele>
        <time>2015-11-07T11:44:10Z</time>
      </trkpt>
      <trkpt lat="43.69667" lon="6.97289">
        <ele>311.8</ele>
        <time>2015-11-07T11:44:12Z</time>
      </trkpt>
      <trkpt lat="43.69668" lon="6.97292">
        <ele>311.8</ele>
        <time>2015-11-07T11:44:14Z</time>
      </trkpt>
      <trkpt lat="43.69671" lon="6.973">
        <ele>311.8</ele>
        <time>2015-11-07T11:44:18Z</time>
      </trkpt>
      <trkpt lat="43.69666" lon="6.97314">
        <ele>311.8</ele>
        <time>2015-11-07T11:44:24Z</time>
      </trkpt>
      <trkpt lat="43.69665" lon="6.97316">
        <ele>311.8</ele>
        <time>2015-11-07T11:44:25Z</time>
      </trkpt>
      <trkpt lat="43.69664" lon="6.9732">
        <ele>311.4</ele>
        <time>2015-11-07T11:44:26Z</time>
      </trkpt>
      <trkpt lat="43.69662" lon="6.97323">
        <ele>311</ele>
        <time>2015-11-07T11:44:27Z</time>
      </trkpt>
      <trkpt lat="43.6966" lon="6.97328">
        <ele>310.2</ele>
        <time>2015-11-07T11:44:28Z</time>
      </trkpt>
      <trkpt lat="43.69658" lon="6.97333">
        <ele>309.4</ele>
        <time>2015-11-07T11:44:29Z</time>
      </trkpt>
      <trkpt lat="43.69657" lon="6.97338">
        <ele>308.6</ele>
        <time>2015-11-07T11:44:30Z</time>
      </trkpt>
      <trkpt lat="43.69656" lon="6.97344">
        <ele>307.6</ele>
        <time>2015-11-07T11:44:31Z</time>
      </trkpt>
      <trkpt lat="43.69654" lon="6.97349">
        <ele>306.6</ele>
        <time>2015-11-07T11:44:32Z</time>
      </trkpt>
      <trkpt lat="43.69651" lon="6.97354">
        <ele>305.6</ele>
        <time>2015-11-07T11:44:33Z</time>
      </trkpt>
      <trkpt lat="43.69648" lon="6.97359">
        <ele>304.6</ele>
        <time>2015-11-07T11:44:34Z</time>
      </trkpt>
      <trkpt lat="43.69645" lon="6.97364">
        <ele>303.6</ele>
        <time>2015-11-07T11:44:35Z</time>
      </trkpt>
      <trkpt lat="43.69643" lon="6.97369">
        <ele>302.8</ele>
        <time>2015-11-07T11:44:36Z</time>
      </trkpt>
      <trkpt lat="43.6964" lon="6.97375">
        <ele>302</ele>
        <time>2015-11-07T11:44:37Z</time>
      </trkpt>
      <trkpt lat="43.69638" lon="6.97379">
        <ele>301</ele>
        <time>2015-11-07T11:44:38Z</time>
      </trkpt>
      <trkpt lat="43.69636" lon="6.97382">
        <ele>300.2</ele>
        <time>2015-11-07T11:44:39Z</time>
      </trkpt>
      <trkpt lat="43.69633" lon="6.97386">
        <ele>300.2</ele>
        <time>2015-11-07T11:44:40Z</time>
      </trkpt>
      <trkpt lat="43.69623" lon="6.97402">
        <ele>300.2</ele>
        <time>2015-11-07T11:44:45Z</time>
      </trkpt>
      <trkpt lat="43.6961" lon="6.9742">
        <ele>300.2</ele>
        <time>2015-11-07T11:44:52Z</time>
      </trkpt>
      <trkpt lat="43.69599" lon="6.97423">
        <ele>299.6</ele>
        <time>2015-11-07T11:44:55Z</time>
      </trkpt>
      <trkpt lat="43.69595" lon="6.97424">
        <ele>299</ele>
        <time>2015-11-07T11:44:56Z</time>
      </trkpt>
      <trkpt lat="43.69589" lon="6.97427">
        <ele>298.4</ele>
        <time>2015-11-07T11:44:57Z</time>
      </trkpt>
      <trkpt lat="43.69584" lon="6.97429">
        <ele>297.6</ele>
        <time>2015-11-07T11:44:58Z</time>
      </trkpt>
      <trkpt lat="43.69578" lon="6.97433">
        <ele>297</ele>
        <time>2015-11-07T11:44:59Z</time>
      </trkpt>
      <trkpt lat="43.69574" lon="6.97435">
        <ele>296.2</ele>
        <time>2015-11-07T11:45:00Z</time>
      </trkpt>
      <trkpt lat="43.69569" lon="6.97438">
        <ele>295.6</ele>
        <time>2015-11-07T11:45:01Z</time>
      </trkpt>
      <trkpt lat="43.69565" lon="6.9744">
        <ele>294.8</ele>
        <time>2015-11-07T11:45:02Z</time>
      </trkpt>
      <trkpt lat="43.69554" lon="6.97447">
        <ele>294.8</ele>
        <time>2015-11-07T11:45:05Z</time>
      </trkpt>
      <trkpt lat="43.69536" lon="6.9746">
        <ele>294.8</ele>
        <time>2015-11-07T11:45:11Z</time>
      </trkpt>
      <trkpt lat="43.69516" lon="6.97476">
        <ele>294.8</ele>
        <time>2015-11-07T11:45:16Z</time>
      </trkpt>
      <trkpt lat="43.69487" lon="6.97498">
        <ele>294.8</ele>
        <time>2015-11-07T11:45:24Z</time>
      </trkpt>
      <trkpt lat="43.69458" lon="6.97515">
        <ele>294.8</ele>
        <time>2015-11-07T11:45:32Z</time>
      </trkpt>
      <trkpt lat="43.69444" lon="6.97524">
        <ele>294.4</ele>
        <time>2015-11-07T11:45:36Z</time>
      </trkpt>
      <trkpt lat="43.69441" lon="6.97526">
        <ele>293.8</ele>
        <time>2015-11-07T11:45:37Z</time>
      </trkpt>
      <trkpt lat="43.69437" lon="6.97527">
        <ele>293.4</ele>
        <time>2015-11-07T11:45:38Z</time>
      </trkpt>
      <trkpt lat="43.69434" lon="6.9753">
        <ele>293</ele>
        <time>2015-11-07T11:45:39Z</time>
      </trkpt>
      <trkpt lat="43.6943" lon="6.97531">
        <ele>292.6</ele>
        <time>2015-11-07T11:45:40Z</time>
      </trkpt>
      <trkpt lat="43.69412" lon="6.97537">
        <ele>292.6</ele>
        <time>2015-11-07T11:45:44Z</time>
      </trkpt>
      <trkpt lat="43.69402" lon="6.97547">
        <ele>292</ele>
        <time>2015-11-07T11:45:47Z</time>
      </trkpt>
      <trkpt lat="43.69397" lon="6.97556">
        <ele>291.6</ele>
        <time>2015-11-07T11:45:48Z</time>
      </trkpt>
      <trkpt lat="43.69394" lon="6.97564">
        <ele>290.6</ele>
        <time>2015-11-07T11:45:49Z</time>
      </trkpt>
      <trkpt lat="43.69392" lon="6.97574">
        <ele>289.2</ele>
        <time>2015-11-07T11:45:50Z</time>
      </trkpt>
      <trkpt lat="43.69389" lon="6.97583">
        <ele>287.8</ele>
        <time>2015-11-07T11:45:51Z</time>
      </trkpt>
      <trkpt lat="43.69385" lon="6.97593">
        <ele>286.2</ele>
        <time>2015-11-07T11:45:52Z</time>
      </trkpt>
      <trkpt lat="43.69382" lon="6.97601">
        <ele>284.4</ele>
        <time>2015-11-07T11:45:53Z</time>
      </trkpt>
      <trkpt lat="43.69378" lon="6.97609">
        <ele>283</ele>
        <time>2015-11-07T11:45:54Z</time>
      </trkpt>
      <trkpt lat="43.69374" lon="6.97618">
        <ele>281.4</ele>
        <time>2015-11-07T11:45:55Z</time>
      </trkpt>
      <trkpt lat="43.69371" lon="6.97627">
        <ele>280</ele>
        <time>2015-11-07T11:45:56Z</time>
      </trkpt>
      <trkpt lat="43.69367" lon="6.97638">
        <ele>278.4</ele>
        <time>2015-11-07T11:45:57Z</time>
      </trkpt>
      <trkpt lat="43.69366" lon="6.97647">
        <ele>277.6</ele>
        <time>2015-11-07T11:45:58Z</time>
      </trkpt>
      <trkpt lat="43.69365" lon="6.97657">
        <ele>276.8</ele>
        <time>2015-11-07T11:45:59Z</time>
      </trkpt>
      <trkpt lat="43.69364" lon="6.97666">
        <ele>276</ele>
        <time>2015-11-07T11:46:00Z</time>
      </trkpt>
      <trkpt lat="43.69362" lon="6.97676">
        <ele>275</ele>
        <time>2015-11-07T11:46:01Z</time>
      </trkpt>
      <trkpt lat="43.6936" lon="6.97685">
        <ele>274.2</ele>
        <time>2015-11-07T11:46:02Z</time>
      </trkpt>
      <trkpt lat="43.6936" lon="6.97694">
        <ele>273.2</ele>
        <time>2015-11-07T11:46:03Z</time>
      </trkpt>
      <trkpt lat="43.69358" lon="6.97702">
        <ele>272.6</ele>
        <time>2015-11-07T11:46:04Z</time>
      </trkpt>
      <trkpt lat="43.69357" lon="6.97711">
        <ele>271.8</ele>
        <time>2015-11-07T11:46:05Z</time>
      </trkpt>
      <trkpt lat="43.69355" lon="6.97721">
        <ele>271.2</ele>
        <time>2015-11-07T11:46:06Z</time>
      </trkpt>
      <trkpt lat="43.69352" lon="6.97731">
        <ele>270.4</ele>
        <time>2015-11-07T11:46:07Z</time>
      </trkpt>
      <trkpt lat="43.69349" lon="6.9774">
        <ele>269.6</ele>
        <time>2015-11-07T11:46:08Z</time>
      </trkpt>
      <trkpt lat="43.69344" lon="6.97748">
        <ele>268.8</ele>
        <time>2015-11-07T11:46:09Z</time>
      </trkpt>
      <trkpt lat="43.6934" lon="6.97756">
        <ele>268</ele>
        <time>2015-11-07T11:46:10Z</time>
      </trkpt>
      <trkpt lat="43.69334" lon="6.97763">
        <ele>267.2</ele>
        <time>2015-11-07T11:46:11Z</time>
      </trkpt>
      <trkpt lat="43.69328" lon="6.97771">
        <ele>266.4</ele>
        <time>2015-11-07T11:46:12Z</time>
      </trkpt>
      <trkpt lat="43.69322" lon="6.97778">
        <ele>265.4</ele>
        <time>2015-11-07T11:46:13Z</time>
      </trkpt>
      <trkpt lat="43.69317" lon="6.97786">
        <ele>264.6</ele>
        <time>2015-11-07T11:46:14Z</time>
      </trkpt>
      <trkpt lat="43.69314" lon="6.97793">
        <ele>263.6</ele>
        <time>2015-11-07T11:46:15Z</time>
      </trkpt>
      <trkpt lat="43.69311" lon="6.97803">
        <ele>262.8</ele>
        <time>2015-11-07T11:46:16Z</time>
      </trkpt>
      <trkpt lat="43.6931" lon="6.97814">
        <ele>261.8</ele>
        <time>2015-11-07T11:46:17Z</time>
      </trkpt>
      <trkpt lat="43.69309" lon="6.97825">
        <ele>261.2</ele>
        <time>2015-11-07T11:46:18Z</time>
      </trkpt>
      <trkpt lat="43.69308" lon="6.97835">
        <ele>260.6</ele>
        <time>2015-11-07T11:46:19Z</time>
      </trkpt>
      <trkpt lat="43.69307" lon="6.97844">
        <ele>259.6</ele>
        <time>2015-11-07T11:46:20Z</time>
      </trkpt>
      <trkpt lat="43.69305" lon="6.97852">
        <ele>258.8</ele>
        <time>2015-11-07T11:46:21Z</time>
      </trkpt>
      <trkpt lat="43.69305" lon="6.97858">
        <ele>257.8</ele>
        <time>2015-11-07T11:46:22Z</time>
      </trkpt>
      <trkpt lat="43.69302" lon="6.97862">
        <ele>257</ele>
        <time>2015-11-07T11:46:23Z</time>
      </trkpt>
      <trkpt lat="43.69299" lon="6.97865">
        <ele>256</ele>
        <time>2015-11-07T11:46:24Z</time>
      </trkpt>
      <trkpt lat="43.69293" lon="6.9787">
        <ele>255.6</ele>
        <time>2015-11-07T11:46:26Z</time>
      </trkpt>
      <trkpt lat="43.69291" lon="6.97874">
        <ele>255.2</ele>
        <time>2015-11-07T11:46:27Z</time>
      </trkpt>
      <trkpt lat="43.69292" lon="6.97876">
        <ele>254.8</ele>
        <time>2015-11-07T11:46:28Z</time>
      </trkpt>
      <trkpt lat="43.69291" lon="6.97879">
        <ele>254.2</ele>
        <time>2015-11-07T11:46:29Z</time>
      </trkpt>
      <trkpt lat="43.69294" lon="6.97877">
        <ele>253.8</ele>
        <time>2015-11-07T11:46:30Z</time>
      </trkpt>
      <trkpt lat="43.69296" lon="6.97877">
        <ele>253.8</ele>
        <time>2015-11-07T11:46:40Z</time>
      </trkpt>
      <trkpt lat="43.69299" lon="6.97876">
        <ele>253.8</ele>
        <time>2015-11-07T11:46:41Z</time>
      </trkpt>
      <trkpt lat="43.69304" lon="6.97873">
        <ele>253.4</ele>
        <time>2015-11-07T11:46:42Z</time>
      </trkpt>
      <trkpt lat="43.6931" lon="6.97871">
        <ele>252.8</ele>
        <time>2015-11-07T11:46:43Z</time>
      </trkpt>
      <trkpt lat="43.69316" lon="6.97868">
        <ele>252.2</ele>
        <time>2015-11-07T11:46:44Z</time>
      </trkpt>
      <trkpt lat="43.69324" lon="6.97866">
        <ele>251.4</ele>
        <time>2015-11-07T11:46:45Z</time>
      </trkpt>
      <trkpt lat="43.69332" lon="6.97864">
        <ele>250.4</ele>
        <time>2015-11-07T11:46:46Z</time>
      </trkpt>
      <trkpt lat="43.69341" lon="6.97861">
        <ele>249.4</ele>
        <time>2015-11-07T11:46:47Z</time>
      </trkpt>
      <trkpt lat="43.69351" lon="6.97858">
        <ele>248</ele>
        <time>2015-11-07T11:46:48Z</time>
      </trkpt>
      <trkpt lat="43.69361" lon="6.97856">
        <ele>246.6</ele>
        <time>2015-11-07T11:46:49Z</time>
      </trkpt>
      <trkpt lat="43.6937" lon="6.97855">
        <ele>245.2</ele>
        <time>2015-11-07T11:46:50Z</time>
      </trkpt>
      <trkpt lat="43.6938" lon="6.97855">
        <ele>243.8</ele>
        <time>2015-11-07T11:46:51Z</time>
      </trkpt>
      <trkpt lat="43.6939" lon="6.97856">
        <ele>242.4</ele>
        <time>2015-11-07T11:46:52Z</time>
      </trkpt>
      <trkpt lat="43.694" lon="6.97859">
        <ele>241.4</ele>
        <time>2015-11-07T11:46:53Z</time>
      </trkpt>
      <trkpt lat="43.69408" lon="6.97863">
        <ele>240.2</ele>
        <time>2015-11-07T11:46:54Z</time>
      </trkpt>
      <trkpt lat="43.69418" lon="6.97868">
        <ele>239</ele>
        <time>2015-11-07T11:46:55Z</time>
      </trkpt>
      <trkpt lat="43.69427" lon="6.97872">
        <ele>237.8</ele>
        <time>2015-11-07T11:46:56Z</time>
      </trkpt>
      <trkpt lat="43.69437" lon="6.97874">
        <ele>236.8</ele>
        <time>2015-11-07T11:46:57Z</time>
      </trkpt>
      <trkpt lat="43.69447" lon="6.97872">
        <ele>236.4</ele>
        <time>2015-11-07T11:46:58Z</time>
      </trkpt>
      <trkpt lat="43.69456" lon="6.97872">
        <ele>235.8</ele>
        <time>2015-11-07T11:46:59Z</time>
      </trkpt>
      <trkpt lat="43.69464" lon="6.9787">
        <ele>235.4</ele>
        <time>2015-11-07T11:47:00Z</time>
      </trkpt>
      <trkpt lat="43.69471" lon="6.97867">
        <ele>235</ele>
        <time>2015-11-07T11:47:01Z</time>
      </trkpt>
      <trkpt lat="43.69475" lon="6.97862">
        <ele>234.6</ele>
        <time>2015-11-07T11:47:02Z</time>
      </trkpt>
      <trkpt lat="43.69478" lon="6.97865">
        <ele>234.6</ele>
        <time>2015-11-07T11:47:04Z</time>
      </trkpt>
      <trkpt lat="43.69478" lon="6.97868">
        <ele>234.2</ele>
        <time>2015-11-07T11:47:05Z</time>
      </trkpt>
      <trkpt lat="43.69475" lon="6.97872">
        <ele>233.8</ele>
        <time>2015-11-07T11:47:06Z</time>
      </trkpt>
      <trkpt lat="43.69472" lon="6.97875">
        <ele>233.4</ele>
        <time>2015-11-07T11:47:07Z</time>
      </trkpt>
      <trkpt lat="43.69467" lon="6.97879">
        <ele>233</ele>
        <time>2015-11-07T11:47:08Z</time>
      </trkpt>
      <trkpt lat="43.69463" lon="6.97883">
        <ele>232.6</ele>
        <time>2015-11-07T11:47:09Z</time>
      </trkpt>
      <trkpt lat="43.69459" lon="6.97886">
        <ele>232</ele>
        <time>2015-11-07T11:47:10Z</time>
      </trkpt>
      <trkpt lat="43.69454" lon="6.97888">
        <ele>231.6</ele>
        <time>2015-11-07T11:47:11Z</time>
      </trkpt>
      <trkpt lat="43.69449" lon="6.97889">
        <ele>231.2</ele>
        <time>2015-11-07T11:47:12Z</time>
      </trkpt>
      <trkpt lat="43.69444" lon="6.97889">
        <ele>230.8</ele>
        <time>2015-11-07T11:47:13Z</time>
      </trkpt>
      <trkpt lat="43.6944" lon="6.97888">
        <ele>230.4</ele>
        <time>2015-11-07T11:47:14Z</time>
      </trkpt>
      <trkpt lat="43.69426" lon="6.97886">
        <ele>230.8</ele>
        <time>2015-11-07T11:47:17Z</time>
      </trkpt>
      <trkpt lat="43.69421" lon="6.97885">
        <ele>231.2</ele>
        <time>2015-11-07T11:47:18Z</time>
      </trkpt>
      <trkpt lat="43.69416" lon="6.97884">
        <ele>231.6</ele>
        <time>2015-11-07T11:47:19Z</time>
      </trkpt>
      <trkpt lat="43.69412" lon="6.97883">
        <ele>232</ele>
        <time>2015-11-07T11:47:20Z</time>
      </trkpt>
      <trkpt lat="43.69408" lon="6.97882">
        <ele>232.6</ele>
        <time>2015-11-07T11:47:21Z</time>
      </trkpt>
      <trkpt lat="43.69403" lon="6.97882">
        <ele>232.6</ele>
        <time>2015-11-07T11:47:22Z</time>
      </trkpt>
      <trkpt lat="43.69394" lon="6.97882">
        <ele>232.6</ele>
        <time>2015-11-07T11:47:24Z</time>
      </trkpt>
      <trkpt lat="43.69367" lon="6.97894">
        <ele>232.6</ele>
        <time>2015-11-07T11:47:31Z</time>
      </trkpt>
      <trkpt lat="43.69364" lon="6.97897">
        <ele>233</ele>
        <time>2015-11-07T11:47:32Z</time>
      </trkpt>
      <trkpt lat="43.6936" lon="6.979">
        <ele>233.4</ele>
        <time>2015-11-07T11:47:33Z</time>
      </trkpt>
      <trkpt lat="43.69357" lon="6.97902">
        <ele>233.8</ele>
        <time>2015-11-07T11:47:34Z</time>
      </trkpt>
      <trkpt lat="43.69354" lon="6.97906">
        <ele>234.4</ele>
        <time>2015-11-07T11:47:35Z</time>
      </trkpt>
      <trkpt lat="43.6935" lon="6.97909">
        <ele>234.8</ele>
        <time>2015-11-07T11:47:36Z</time>
      </trkpt>
      <trkpt lat="43.6934" lon="6.97917">
        <ele>234.8</ele>
        <time>2015-11-07T11:47:39Z</time>
      </trkpt>
      <trkpt lat="43.69314" lon="6.97932">
        <ele>234.8</ele>
        <time>2015-11-07T11:47:46Z</time>
      </trkpt>
      <trkpt lat="43.6931" lon="6.97933">
        <ele>235.4</ele>
        <time>2015-11-07T11:47:47Z</time>
      </trkpt>
      <trkpt lat="43.69306" lon="6.97934">
        <ele>235.8</ele>
        <time>2015-11-07T11:47:48Z</time>
      </trkpt>
      <trkpt lat="43.69302" lon="6.97935">
        <ele>236.2</ele>
        <time>2015-11-07T11:47:49Z</time>
      </trkpt>
      <trkpt lat="43.69298" lon="6.97936">
        <ele>236.8</ele>
        <time>2015-11-07T11:47:50Z</time>
      </trkpt>
      <trkpt lat="43.69294" lon="6.97938">
        <ele>237.2</ele>
        <time>2015-11-07T11:47:51Z</time>
      </trkpt>
      <trkpt lat="43.69278" lon="6.97942">
        <ele>237.2</ele>
        <time>2015-11-07T11:47:55Z</time>
      </trkpt>
      <trkpt lat="43.69256" lon="6.97958">
        <ele>237.2</ele>
        <time>2015-11-07T11:48:01Z</time>
      </trkpt>
      <trkpt lat="43.69249" lon="6.97966">
        <ele>237.6</ele>
        <time>2015-11-07T11:48:03Z</time>
      </trkpt>
      <trkpt lat="43.69246" lon="6.97971">
        <ele>238</ele>
        <time>2015-11-07T11:48:04Z</time>
      </trkpt>
      <trkpt lat="43.69243" lon="6.97975">
        <ele>238.4</ele>
        <time>2015-11-07T11:48:05Z</time>
      </trkpt>
      <trkpt lat="43.69241" lon="6.97979">
        <ele>238.8</ele>
        <time>2015-11-07T11:48:06Z</time>
      </trkpt>
      <trkpt lat="43.69238" lon="6.97984">
        <ele>239.4</ele>
        <time>2015-11-07T11:48:07Z</time>
      </trkpt>
      <trkpt lat="43.69222" lon="6.98003">
        <ele>239.4</ele>
        <time>2015-11-07T11:48:12Z</time>
      </trkpt>
      <trkpt lat="43.69218" lon="6.98006">
        <ele>239.4</ele>
        <time>2015-11-07T11:48:13Z</time>
      </trkpt>
      <trkpt lat="43.69206" lon="6.98012">
        <ele>239.8</ele>
        <time>2015-11-07T11:48:16Z</time>
      </trkpt>
      <trkpt lat="43.69202" lon="6.98013">
        <ele>240.2</ele>
        <time>2015-11-07T11:48:17Z</time>
      </trkpt>
      <trkpt lat="43.69198" lon="6.98014">
        <ele>240.6</ele>
        <time>2015-11-07T11:48:18Z</time>
      </trkpt>
      <trkpt lat="43.69194" lon="6.98015">
        <ele>241</ele>
        <time>2015-11-07T11:48:19Z</time>
      </trkpt>
      <trkpt lat="43.6919" lon="6.98016">
        <ele>241.4</ele>
        <time>2015-11-07T11:48:20Z</time>
      </trkpt>
      <trkpt lat="43.69162" lon="6.98011">
        <ele>241.4</ele>
        <time>2015-11-07T11:48:27Z</time>
      </trkpt>
      <trkpt lat="43.69159" lon="6.98009">
        <ele>242</ele>
        <time>2015-11-07T11:48:28Z</time>
      </trkpt>
      <trkpt lat="43.69156" lon="6.98008">
        <ele>242.4</ele>
        <time>2015-11-07T11:48:29Z</time>
      </trkpt>
      <trkpt lat="43.69152" lon="6.98007">
        <ele>242.8</ele>
        <time>2015-11-07T11:48:30Z</time>
      </trkpt>
      <trkpt lat="43.69149" lon="6.98007">
        <ele>243.4</ele>
        <time>2015-11-07T11:48:31Z</time>
      </trkpt>
      <trkpt lat="43.69145" lon="6.98007">
        <ele>243.8</ele>
        <time>2015-11-07T11:48:32Z</time>
      </trkpt>
      <trkpt lat="43.69119" lon="6.97996">
        <ele>243.8</ele>
        <time>2015-11-07T11:48:39Z</time>
      </trkpt>
      <trkpt lat="43.69103" lon="6.9799">
        <ele>244.2</ele>
        <time>2015-11-07T11:48:43Z</time>
      </trkpt>
      <trkpt lat="43.69099" lon="6.97989">
        <ele>244.6</ele>
        <time>2015-11-07T11:48:44Z</time>
      </trkpt>
      <trkpt lat="43.69095" lon="6.97987">
        <ele>245.2</ele>
        <time>2015-11-07T11:48:45Z</time>
      </trkpt>
      <trkpt lat="43.69091" lon="6.97985">
        <ele>245.6</ele>
        <time>2015-11-07T11:48:46Z</time>
      </trkpt>
      <trkpt lat="43.69088" lon="6.97983">
        <ele>246</ele>
        <time>2015-11-07T11:48:47Z</time>
      </trkpt>
      <trkpt lat="43.69084" lon="6.97981">
        <ele>246</ele>
        <time>2015-11-07T11:48:48Z</time>
      </trkpt>
      <trkpt lat="43.69057" lon="6.97971">
        <ele>246.4</ele>
        <time>2015-11-07T11:48:55Z</time>
      </trkpt>
      <trkpt lat="43.69053" lon="6.97969">
        <ele>246.8</ele>
        <time>2015-11-07T11:48:56Z</time>
      </trkpt>
      <trkpt lat="43.6905" lon="6.97968">
        <ele>247.2</ele>
        <time>2015-11-07T11:48:57Z</time>
      </trkpt>
      <trkpt lat="43.69046" lon="6.97967">
        <ele>247.6</ele>
        <time>2015-11-07T11:48:58Z</time>
      </trkpt>
      <trkpt lat="43.69042" lon="6.97965">
        <ele>248</ele>
        <time>2015-11-07T11:48:59Z</time>
      </trkpt>
      <trkpt lat="43.69011" lon="6.97958">
        <ele>248</ele>
        <time>2015-11-07T11:49:07Z</time>
      </trkpt>
      <trkpt lat="43.69007" lon="6.97957">
        <ele>248.4</ele>
        <time>2015-11-07T11:49:08Z</time>
      </trkpt>
      <trkpt lat="43.69003" lon="6.97957">
        <ele>248.8</ele>
        <time>2015-11-07T11:49:09Z</time>
      </trkpt>
      <trkpt lat="43.68999" lon="6.97957">
        <ele>249.2</ele>
        <time>2015-11-07T11:49:10Z</time>
      </trkpt>
      <trkpt lat="43.68995" lon="6.97956">
        <ele>249.8</ele>
        <time>2015-11-07T11:49:11Z</time>
      </trkpt>
      <trkpt lat="43.68991" lon="6.97956">
        <ele>250.2</ele>
        <time>2015-11-07T11:49:12Z</time>
      </trkpt>
      <trkpt lat="43.68976" lon="6.97956">
        <ele>250.6</ele>
        <time>2015-11-07T11:49:16Z</time>
      </trkpt>
      <trkpt lat="43.68972" lon="6.97956">
        <ele>251</ele>
        <time>2015-11-07T11:49:17Z</time>
      </trkpt>
      <trkpt lat="43.68969" lon="6.97957">
        <ele>251.4</ele>
        <time>2015-11-07T11:49:18Z</time>
      </trkpt>
      <trkpt lat="43.68967" lon="6.97955">
        <ele>251.8</ele>
        <time>2015-11-07T11:49:19Z</time>
      </trkpt>
      <trkpt lat="43.68966" lon="6.97953">
        <ele>252.4</ele>
        <time>2015-11-07T11:49:20Z</time>
      </trkpt>
      <trkpt lat="43.68965" lon="6.97945">
        <ele>252.4</ele>
        <time>2015-11-07T11:49:22Z</time>
      </trkpt>
      <trkpt lat="43.6897" lon="6.97931">
        <ele>252.8</ele>
        <time>2015-11-07T11:49:27Z</time>
      </trkpt>
      <trkpt lat="43.68971" lon="6.97929">
        <ele>253.2</ele>
        <time>2015-11-07T11:49:28Z</time>
      </trkpt>
      <trkpt lat="43.68973" lon="6.97927">
        <ele>253.6</ele>
        <time>2015-11-07T11:49:29Z</time>
      </trkpt>
      <trkpt lat="43.68975" lon="6.97927">
        <ele>254</ele>
        <time>2015-11-07T11:49:30Z</time>
      </trkpt>
      <trkpt lat="43.68977" lon="6.97927">
        <ele>254.4</ele>
        <time>2015-11-07T11:49:31Z</time>
      </trkpt>
      <trkpt lat="43.68982" lon="6.97925">
        <ele>254.8</ele>
        <time>2015-11-07T11:49:33Z</time>
      </trkpt>
      <trkpt lat="43.68984" lon="6.97924">
        <ele>255.4</ele>
        <time>2015-11-07T11:49:34Z</time>
      </trkpt>
      <trkpt lat="43.68986" lon="6.97923">
        <ele>255.8</ele>
        <time>2015-11-07T11:49:35Z</time>
      </trkpt>
      <trkpt lat="43.68987" lon="6.97922">
        <ele>256.2</ele>
        <time>2015-11-07T11:49:36Z</time>
      </trkpt>
      <trkpt lat="43.68989" lon="6.97921">
        <ele>256.8</ele>
        <time>2015-11-07T11:49:37Z</time>
      </trkpt>
      <trkpt lat="43.68993" lon="6.97917">
        <ele>257.2</ele>
        <time>2015-11-07T11:49:39Z</time>
      </trkpt>
      <trkpt lat="43.68994" lon="6.97915">
        <ele>257.6</ele>
        <time>2015-11-07T11:49:40Z</time>
      </trkpt>
      <trkpt lat="43.68995" lon="6.97913">
        <ele>258</ele>
        <time>2015-11-07T11:49:41Z</time>
      </trkpt>
      <trkpt lat="43.68996" lon="6.97911">
        <ele>258.6</ele>
        <time>2015-11-07T11:49:42Z</time>
      </trkpt>
      <trkpt lat="43.68996" lon="6.9791">
        <ele>259</ele>
        <time>2015-11-07T11:49:43Z</time>
      </trkpt>
      <trkpt lat="43.68996" lon="6.97908">
        <ele>259.6</ele>
        <time>2015-11-07T11:49:44Z</time>
      </trkpt>
      <trkpt lat="43.68996" lon="6.97908">
        <ele>260.2</ele>
        <time>2015-11-07T11:49:45Z</time>
      </trkpt>
      <trkpt lat="43.68995" lon="6.97907">
        <ele>260.6</ele>
        <time>2015-11-07T11:49:46Z</time>
      </trkpt>
      <trkpt lat="43.68995" lon="6.97906">
        <ele>261.2</ele>
        <time>2015-11-07T11:49:47Z</time>
      </trkpt>
      <trkpt lat="43.68994" lon="6.97905">
        <ele>261.2</ele>
        <time>2015-11-07T11:49:50Z</time>
      </trkpt>
    </trkseg>
  </trk>
</gpx>